<?xml version="1.0" encoding="UTF-8"?>
<gpx version="1.1" creator="https://www.youtrack.es" xsi:schemaLocation="http://www.topografix.com/GPX/1/1 http://www.topografix.com/GPX/1/1/gpx.xsd http://www.garmin.com/xmlschemas/GpxExtensions/v3 http://www.garmin.com/xmlschemas/GpxExtensionsv3.xsd http://www.garmin.com/xmlschemas/TrackPointExtension/v1 http://www.garmin.com/xmlschemas/TrackPointExtensionv1.xsd" xmlns:gpxtpx="http://www.garmin.com/xmlschemas/TrackPointExtension/v1" xmlns:gpxx="http://www.garmin.com/xmlschemas/GpxExtensions/v3" xmlns:xsi="http://www.w3.org/2001/XMLSchema-instance">
  <metadata>
    <link href="https://www.youtrack.es">
      <text>YouTrack.es</text>
    </link>
    <time>2026-05-09T02:14:23Z</time>
  </metadata>
  <trk>
    <src>https://www.youtrack.es</src>
    <link href="https://www.youtrack.es/ruta/25259-alta-ruta-de-los-perdidos">
      <text>YouTrack.es</text>
    </link>
    <trkseg>
      <trkpt lat="42.69210993312299251556396484375" lon="-0.10694797150790691375732421875">
        <ele>1329.5999755859375</ele>
        <time>2021-08-21T10:36:32.000Z</time>
      </trkpt>
      <trkpt lat="42.69232568331062793731689453125" lon="-0.10677765123546123504638671875">
        <ele>1330.199951171875</ele>
        <time>2021-08-21T10:36:55.000Z</time>
      </trkpt>
      <trkpt lat="42.69235736690461635589599609375" lon="-0.106755606830120086669921875">
        <ele>1330.4000244140625</ele>
        <time>2021-08-21T10:36:58.000Z</time>
      </trkpt>
      <trkpt lat="42.69239835441112518310546875" lon="-0.10673574171960353851318359375">
        <ele>1330.4000244140625</ele>
        <time>2021-08-21T10:37:02.000Z</time>
      </trkpt>
      <trkpt lat="42.69242173992097377777099609375" lon="-0.10672903619706630706787109375">
        <ele>1330.5999755859375</ele>
        <time>2021-08-21T10:37:04.000Z</time>
      </trkpt>
      <trkpt lat="42.69248695112764835357666015625" lon="-0.106671787798404693603515625">
        <ele>1330.800048828125</ele>
        <time>2021-08-21T10:37:11.000Z</time>
      </trkpt>
      <trkpt lat="42.69249952398240566253662109375" lon="-0.1066504977643489837646484375">
        <ele>1330.800048828125</ele>
        <time>2021-08-21T10:37:14.000Z</time>
      </trkpt>
      <trkpt lat="42.69251008518040180206298828125" lon="-0.1066432893276214599609375">
        <ele>1330.800048828125</ele>
        <time>2021-08-21T10:37:25.000Z</time>
      </trkpt>
      <trkpt lat="42.69256473518908023834228515625" lon="-0.1066203229129314422607421875">
        <ele>1330.800048828125</ele>
        <time>2021-08-21T10:37:34.000Z</time>
      </trkpt>
      <trkpt lat="42.69260848872363567352294921875" lon="-0.10663499124348163604736328125">
        <ele>1331</ele>
        <time>2021-08-21T10:37:39.000Z</time>
      </trkpt>
      <trkpt lat="42.69262542016804218292236328125" lon="-0.10664521716535091400146484375">
        <ele>1331</ele>
        <time>2021-08-21T10:37:41.000Z</time>
      </trkpt>
      <trkpt lat="42.6926369033753871917724609375" lon="-0.1066535152494907379150390625">
        <ele>1331</ele>
        <time>2021-08-21T10:37:42.000Z</time>
      </trkpt>
      <trkpt lat="42.69264788366854190826416015625" lon="-0.10665544308722019195556640625">
        <ele>1331</ele>
        <time>2021-08-21T10:37:43.000Z</time>
      </trkpt>
      <trkpt lat="42.6926573552191257476806640625" lon="-0.10665510781109333038330078125">
        <ele>1331</ele>
        <time>2021-08-21T10:37:44.000Z</time>
      </trkpt>
      <trkpt lat="42.69272315315902233123779296875" lon="-0.106646306812763214111328125">
        <ele>1331.199951171875</ele>
        <time>2021-08-21T10:37:50.000Z</time>
      </trkpt>
      <trkpt lat="42.69281920976936817169189453125" lon="-0.1066494919359683990478515625">
        <ele>1331.199951171875</ele>
        <time>2021-08-21T10:38:05.000Z</time>
      </trkpt>
      <trkpt lat="42.69281451590359210968017578125" lon="-0.106647647917270660400390625">
        <ele>1331.199951171875</ele>
        <time>2021-08-21T10:38:10.000Z</time>
      </trkpt>
      <trkpt lat="42.69279087893664836883544921875" lon="-0.1066696085035800933837890625">
        <ele>1331.199951171875</ele>
        <time>2021-08-21T10:38:21.000Z</time>
      </trkpt>
      <trkpt lat="42.6927847601473331451416015625" lon="-0.10666918940842151641845703125">
        <ele>1331.199951171875</ele>
        <time>2021-08-21T10:38:29.000Z</time>
      </trkpt>
      <trkpt lat="42.692772857844829559326171875" lon="-0.10667723603546619415283203125">
        <ele>1331.199951171875</ele>
        <time>2021-08-21T10:38:39.000Z</time>
      </trkpt>
      <trkpt lat="42.69276975654065608978271484375" lon="-0.106678493320941925048828125">
        <ele>1331.199951171875</ele>
        <time>2021-08-21T10:38:40.000Z</time>
      </trkpt>
      <trkpt lat="42.6927659846842288970947265625" lon="-0.106679834425449371337890625">
        <ele>1331.199951171875</ele>
        <time>2021-08-21T10:38:41.000Z</time>
      </trkpt>
      <trkpt lat="42.692746706306934356689453125" lon="-0.10668394155800342559814453125">
        <ele>1331.199951171875</ele>
        <time>2021-08-21T10:38:53.000Z</time>
      </trkpt>
      <trkpt lat="42.69275668077170848846435546875" lon="-0.10668109171092510223388671875">
        <ele>1331.199951171875</ele>
        <time>2021-08-21T10:38:57.000Z</time>
      </trkpt>
      <trkpt lat="42.69283731468021869659423828125" lon="-0.1066729612648487091064453125">
        <ele>1331.4000244140625</ele>
        <time>2021-08-21T10:39:08.000Z</time>
      </trkpt>
      <trkpt lat="42.69298383034765720367431640625" lon="-0.10664789937436580657958984375">
        <ele>1331.4000244140625</ele>
        <time>2021-08-21T10:39:20.000Z</time>
      </trkpt>
      <trkpt lat="42.6930191181600093841552734375" lon="-0.10661973617970943450927734375">
        <ele>1331.4000244140625</ele>
        <time>2021-08-21T10:39:24.000Z</time>
      </trkpt>
      <trkpt lat="42.69309975206851959228515625" lon="-0.1065881364047527313232421875">
        <ele>1331.4000244140625</ele>
        <time>2021-08-21T10:39:32.000Z</time>
      </trkpt>
      <trkpt lat="42.69313395023345947265625" lon="-0.106540359556674957275390625">
        <ele>1331.199951171875</ele>
        <time>2021-08-21T10:39:36.000Z</time>
      </trkpt>
      <trkpt lat="42.69320838153362274169921875" lon="-0.10649937205016613006591796875">
        <ele>1331.199951171875</ele>
        <time>2021-08-21T10:39:43.000Z</time>
      </trkpt>
      <trkpt lat="42.69323226995766162872314453125" lon="-0.10648998431861400604248046875">
        <ele>1331.199951171875</ele>
        <time>2021-08-21T10:39:45.000Z</time>
      </trkpt>
      <trkpt lat="42.69325355999171733856201171875" lon="-0.10648478753864765167236328125">
        <ele>1331.199951171875</ele>
        <time>2021-08-21T10:39:47.000Z</time>
      </trkpt>
      <trkpt lat="42.69327652640640735626220703125" lon="-0.10647657327353954315185546875">
        <ele>1331.199951171875</ele>
        <time>2021-08-21T10:39:49.000Z</time>
      </trkpt>
      <trkpt lat="42.69330552779138088226318359375" lon="-0.1064600609242916107177734375">
        <ele>1331</ele>
        <time>2021-08-21T10:39:52.000Z</time>
      </trkpt>
      <trkpt lat="42.69333536736667156219482421875" lon="-0.10643265210092067718505859375">
        <ele>1331</ele>
        <time>2021-08-21T10:39:56.000Z</time>
      </trkpt>
      <trkpt lat="42.69335162825882434844970703125" lon="-0.10643147863447666168212890625">
        <ele>1331</ele>
        <time>2021-08-21T10:39:58.000Z</time>
      </trkpt>
      <trkpt lat="42.69338130019605159759521484375" lon="-0.10641421191394329071044921875">
        <ele>1331</ele>
        <time>2021-08-21T10:40:01.000Z</time>
      </trkpt>
      <trkpt lat="42.69344299100339412689208984375" lon="-0.10640583001077175140380859375">
        <ele>1331.199951171875</ele>
        <time>2021-08-21T10:40:07.000Z</time>
      </trkpt>
      <trkpt lat="42.69389309920370578765869140625" lon="-0.10632536374032497406005859375">
        <ele>1332.199951171875</ele>
        <time>2021-08-21T10:40:52.000Z</time>
      </trkpt>
      <trkpt lat="42.69403659738600254058837890625" lon="-0.1064033992588520050048828125">
        <ele>1332.5999755859375</ele>
        <time>2021-08-21T10:41:12.000Z</time>
      </trkpt>
      <trkpt lat="42.69439500756561756134033203125" lon="-0.106443129479885101318359375">
        <ele>1337.800048828125</ele>
        <time>2021-08-21T10:41:51.000Z</time>
      </trkpt>
      <trkpt lat="42.694438509643077850341796875" lon="-0.10645461268723011016845703125">
        <ele>1338.4000244140625</ele>
        <time>2021-08-21T10:41:56.000Z</time>
      </trkpt>
      <trkpt lat="42.69456163980066776275634765625" lon="-0.1065938360989093780517578125">
        <ele>1341.800048828125</ele>
        <time>2021-08-21T10:42:11.000Z</time>
      </trkpt>
      <trkpt lat="42.69468854181468486785888671875" lon="-0.10661956854164600372314453125">
        <ele>1344</ele>
        <time>2021-08-21T10:42:22.000Z</time>
      </trkpt>
      <trkpt lat="42.6948705129325389862060546875" lon="-0.10659031569957733154296875">
        <ele>1348.4000244140625</ele>
        <time>2021-08-21T10:42:50.000Z</time>
      </trkpt>
      <trkpt lat="42.694864980876445770263671875" lon="-0.10659576393663883209228515625">
        <ele>1348.4000244140625</ele>
        <time>2021-08-21T10:42:53.000Z</time>
      </trkpt>
      <trkpt lat="42.6948574371635913848876953125" lon="-0.1066504977643489837646484375">
        <ele>1349.5999755859375</ele>
        <time>2021-08-21T10:43:09.000Z</time>
      </trkpt>
      <trkpt lat="42.69488501362502574920654296875" lon="-0.10664706118404865264892578125">
        <ele>1350.4000244140625</ele>
        <time>2021-08-21T10:43:14.000Z</time>
      </trkpt>
      <trkpt lat="42.69491602666676044464111328125" lon="-0.10658050887286663055419921875">
        <ele>1349.5999755859375</ele>
        <time>2021-08-21T10:43:22.000Z</time>
      </trkpt>
      <trkpt lat="42.694921977818012237548828125" lon="-0.10658226907253265380859375">
        <ele>1349.800048828125</ele>
        <time>2021-08-21T10:43:25.000Z</time>
      </trkpt>
      <trkpt lat="42.694946117699146270751953125" lon="-0.10657154023647308349609375">
        <ele>1350.199951171875</ele>
        <time>2021-08-21T10:43:32.000Z</time>
      </trkpt>
      <trkpt lat="42.69494888372719287872314453125" lon="-0.10655670426785945892333984375">
        <ele>1349.800048828125</ele>
        <time>2021-08-21T10:43:36.000Z</time>
      </trkpt>
      <trkpt lat="42.694927342236042022705078125" lon="-0.10659492574632167816162109375">
        <ele>1350.199951171875</ele>
        <time>2021-08-21T10:43:41.000Z</time>
      </trkpt>
      <trkpt lat="42.6949254982173442840576171875" lon="-0.1066045649349689483642578125">
        <ele>1350.4000244140625</ele>
        <time>2021-08-21T10:43:46.000Z</time>
      </trkpt>
      <trkpt lat="42.6949216425418853759765625" lon="-0.1066055707633495330810546875">
        <ele>1350.4000244140625</ele>
        <time>2021-08-21T10:43:50.000Z</time>
      </trkpt>
      <trkpt lat="42.694929353892803192138671875" lon="-0.10659844614565372467041015625">
        <ele>1350.4000244140625</ele>
        <time>2021-08-21T10:43:55.000Z</time>
      </trkpt>
      <trkpt lat="42.69494201056659221649169921875" lon="-0.10661638341844081878662109375">
        <ele>1351.199951171875</ele>
        <time>2021-08-21T10:44:05.000Z</time>
      </trkpt>
      <trkpt lat="42.69498257897794246673583984375" lon="-0.106557123363018035888671875">
        <ele>1350.800048828125</ele>
        <time>2021-08-21T10:44:16.000Z</time>
      </trkpt>
      <trkpt lat="42.694937400519847869873046875" lon="-0.10666633956134319305419921875">
        <ele>1352.4000244140625</ele>
        <time>2021-08-21T10:44:31.000Z</time>
      </trkpt>
      <trkpt lat="42.69492390565574169158935546875" lon="-0.1066880486905574798583984375">
        <ele>1352.4000244140625</ele>
        <time>2021-08-21T10:44:33.000Z</time>
      </trkpt>
      <trkpt lat="42.6949174515902996063232421875" lon="-0.1066971011459827423095703125">
        <ele>1352.5999755859375</ele>
        <time>2021-08-21T10:44:34.000Z</time>
      </trkpt>
      <trkpt lat="42.6949135959148406982421875" lon="-0.1067058183252811431884765625">
        <ele>1352.5999755859375</ele>
        <time>2021-08-21T10:44:35.000Z</time>
      </trkpt>
      <trkpt lat="42.69491292536258697509765625" lon="-0.1067426986992359161376953125">
        <ele>1353.5999755859375</ele>
        <time>2021-08-21T10:44:39.000Z</time>
      </trkpt>
      <trkpt lat="42.694925330579280853271484375" lon="-0.10672132484614849090576171875">
        <ele>1353.4000244140625</ele>
        <time>2021-08-21T10:44:42.000Z</time>
      </trkpt>
      <trkpt lat="42.69492876715958118438720703125" lon="-0.10671327821910381317138671875">
        <ele>1353.199951171875</ele>
        <time>2021-08-21T10:44:43.000Z</time>
      </trkpt>
      <trkpt lat="42.69492675550282001495361328125" lon="-0.106716714799404144287109375">
        <ele>1353.199951171875</ele>
        <time>2021-08-21T10:44:44.000Z</time>
      </trkpt>
      <trkpt lat="42.6949275098741054534912109375" lon="-0.10672316886484622955322265625">
        <ele>1353.4000244140625</ele>
        <time>2021-08-21T10:44:45.000Z</time>
      </trkpt>
      <trkpt lat="42.69492139108479022979736328125" lon="-0.10676222853362560272216796875">
        <ele>1354.199951171875</ele>
        <time>2021-08-21T10:44:58.000Z</time>
      </trkpt>
      <trkpt lat="42.6949288509786128997802734375" lon="-0.10677136480808258056640625">
        <ele>1354.800048828125</ele>
        <time>2021-08-21T10:45:02.000Z</time>
      </trkpt>
      <trkpt lat="42.69491150043904781341552734375" lon="-0.106750242412090301513671875">
        <ele>1353.5999755859375</ele>
        <time>2021-08-21T10:45:05.000Z</time>
      </trkpt>
      <trkpt lat="42.69488786347210407257080078125" lon="-0.10665510781109333038330078125">
        <ele>1350.5999755859375</ele>
        <time>2021-08-21T10:45:08.000Z</time>
      </trkpt>
      <trkpt lat="42.69488752819597721099853515625" lon="-0.10662426240742206573486328125">
        <ele>1349.800048828125</ele>
        <time>2021-08-21T10:45:10.000Z</time>
      </trkpt>
      <trkpt lat="42.6948805712163448333740234375" lon="-0.10660246945917606353759765625">
        <ele>1349</ele>
        <time>2021-08-21T10:45:11.000Z</time>
      </trkpt>
      <trkpt lat="42.6948785595595836639404296875" lon="-0.10655284859240055084228515625">
        <ele>1347.800048828125</ele>
        <time>2021-08-21T10:45:14.000Z</time>
      </trkpt>
      <trkpt lat="42.6948902942240238189697265625" lon="-0.10646215640008449554443359375">
        <ele>1345.800048828125</ele>
        <time>2021-08-21T10:45:22.000Z</time>
      </trkpt>
      <trkpt lat="42.694901190698146820068359375" lon="-0.10645042173564434051513671875">
        <ele>1345.800048828125</ele>
        <time>2021-08-21T10:45:24.000Z</time>
      </trkpt>
      <trkpt lat="42.69490445964038372039794921875" lon="-0.10644354857504367828369140625">
        <ele>1345.800048828125</ele>
        <time>2021-08-21T10:45:25.000Z</time>
      </trkpt>
      <trkpt lat="42.694911248981952667236328125" lon="-0.1064171455800533294677734375">
        <ele>1345.199951171875</ele>
        <time>2021-08-21T10:45:28.000Z</time>
      </trkpt>
      <trkpt lat="42.694921307265758514404296875" lon="-0.1063749007880687713623046875">
        <ele>1344.5999755859375</ele>
        <time>2021-08-21T10:45:32.000Z</time>
      </trkpt>
      <trkpt lat="42.694944441318511962890625" lon="-0.10634765960276126861572265625">
        <ele>1344.5999755859375</ele>
        <time>2021-08-21T10:45:36.000Z</time>
      </trkpt>
      <trkpt lat="42.694954834878444671630859375" lon="-0.10632955469191074371337890625">
        <ele>1344.5999755859375</ele>
        <time>2021-08-21T10:45:39.000Z</time>
      </trkpt>
      <trkpt lat="42.69496179185807704925537109375" lon="-0.1063286326825618743896484375">
        <ele>1344.5999755859375</ele>
        <time>2021-08-21T10:45:40.000Z</time>
      </trkpt>
      <trkpt lat="42.6949707604944705963134765625" lon="-0.10631673038005828857421875">
        <ele>1344.5999755859375</ele>
        <time>2021-08-21T10:45:42.000Z</time>
      </trkpt>
      <trkpt lat="42.6949737779796123504638671875" lon="-0.10630994103848934173583984375">
        <ele>1344.5999755859375</ele>
        <time>2021-08-21T10:45:43.000Z</time>
      </trkpt>
      <trkpt lat="42.69497637636959552764892578125" lon="-0.1063058339059352874755859375">
        <ele>1344.5999755859375</ele>
        <time>2021-08-21T10:45:44.000Z</time>
      </trkpt>
      <trkpt lat="42.6949955709278583526611328125" lon="-0.106280185282230377197265625">
        <ele>1344.5999755859375</ele>
        <time>2021-08-21T10:45:48.000Z</time>
      </trkpt>
      <trkpt lat="42.69501107744872570037841796875" lon="-0.106255374848842620849609375">
        <ele>1344.5999755859375</ele>
        <time>2021-08-21T10:45:51.000Z</time>
      </trkpt>
      <trkpt lat="42.69506287761032581329345703125" lon="-0.10618940927088260650634765625">
        <ele>1344.5999755859375</ele>
        <time>2021-08-21T10:45:58.000Z</time>
      </trkpt>
      <trkpt lat="42.6950897835195064544677734375" lon="-0.1061804406344890594482421875">
        <ele>1345</ele>
        <time>2021-08-21T10:46:01.000Z</time>
      </trkpt>
      <trkpt lat="42.69510478712618350982666015625" lon="-0.10616074316203594207763671875">
        <ele>1345</ele>
        <time>2021-08-21T10:46:03.000Z</time>
      </trkpt>
      <trkpt lat="42.6951454393565654754638671875" lon="-0.10610491968691349029541015625">
        <ele>1345</ele>
        <time>2021-08-21T10:46:09.000Z</time>
      </trkpt>
      <trkpt lat="42.69515910185873508453369140625" lon="-0.1060640998184680938720703125">
        <ele>1344.800048828125</ele>
        <time>2021-08-21T10:46:12.000Z</time>
      </trkpt>
      <trkpt lat="42.69517821259796619415283203125" lon="-0.106026716530323028564453125">
        <ele>1344.800048828125</ele>
        <time>2021-08-21T10:46:15.000Z</time>
      </trkpt>
      <trkpt lat="42.69519179128110408782958984375" lon="-0.106010623276233673095703125">
        <ele>1344.800048828125</ele>
        <time>2021-08-21T10:46:19.000Z</time>
      </trkpt>
      <trkpt lat="42.695302180945873260498046875" lon="-0.10590392164885997772216796875">
        <ele>1345.4000244140625</ele>
        <time>2021-08-21T10:46:50.000Z</time>
      </trkpt>
      <trkpt lat="42.69546152092516422271728515625" lon="-0.10590408928692340850830078125">
        <ele>1346.800048828125</ele>
        <time>2021-08-21T10:47:24.000Z</time>
      </trkpt>
      <trkpt lat="42.69550980068743228912353515625" lon="-0.1057777740061283111572265625">
        <ele>1347.199951171875</ele>
        <time>2021-08-21T10:47:44.000Z</time>
      </trkpt>
      <trkpt lat="42.69566369242966175079345703125" lon="-0.10564860887825489044189453125">
        <ele>1348</ele>
        <time>2021-08-21T10:48:22.000Z</time>
      </trkpt>
      <trkpt lat="42.6957294903695583343505859375" lon="-0.10572521947324275970458984375">
        <ele>1347.800048828125</ele>
        <time>2021-08-21T10:48:33.000Z</time>
      </trkpt>
      <trkpt lat="42.695881538093090057373046875" lon="-0.10577986948192119598388671875">
        <ele>1348</ele>
        <time>2021-08-21T10:48:50.000Z</time>
      </trkpt>
      <trkpt lat="42.69591950811445713043212890625" lon="-0.10574181564152240753173828125">
        <ele>1348.800048828125</ele>
        <time>2021-08-21T10:48:59.000Z</time>
      </trkpt>
      <trkpt lat="42.69602696411311626434326171875" lon="-0.1058089546859264373779296875">
        <ele>1350.4000244140625</ele>
        <time>2021-08-21T10:49:20.000Z</time>
      </trkpt>
      <trkpt lat="42.69608345814049243927001953125" lon="-0.10578540153801441192626953125">
        <ele>1351.4000244140625</ele>
        <time>2021-08-21T10:49:24.000Z</time>
      </trkpt>
      <trkpt lat="42.696118243038654327392578125" lon="-0.105733685195446014404296875">
        <ele>1352.199951171875</ele>
        <time>2021-08-21T10:49:29.000Z</time>
      </trkpt>
      <trkpt lat="42.69622175954282283782958984375" lon="-0.10569856502115726470947265625">
        <ele>1354</ele>
        <time>2021-08-21T10:49:43.000Z</time>
      </trkpt>
      <trkpt lat="42.696266435086727142333984375" lon="-0.1056671328842639923095703125">
        <ele>1354.800048828125</ele>
        <time>2021-08-21T10:49:49.000Z</time>
      </trkpt>
      <trkpt lat="42.6963531039655208587646484375" lon="-0.10572530329227447509765625">
        <ele>1356.199951171875</ele>
        <time>2021-08-21T10:50:01.000Z</time>
      </trkpt>
      <trkpt lat="42.6964426226913928985595703125" lon="-0.105621032416820526123046875">
        <ele>1358</ele>
        <time>2021-08-21T10:50:19.000Z</time>
      </trkpt>
      <trkpt lat="42.69649584777653217315673828125" lon="-0.10561239905655384063720703125">
        <ele>1359</ele>
        <time>2021-08-21T10:50:28.000Z</time>
      </trkpt>
      <trkpt lat="42.6966833509504795074462890625" lon="-0.1054310984909534454345703125">
        <ele>1363</ele>
        <time>2021-08-21T10:51:05.000Z</time>
      </trkpt>
      <trkpt lat="42.6967155374586582183837890625" lon="-0.105367563664913177490234375">
        <ele>1367.800048828125</ele>
        <time>2021-08-21T10:51:13.000Z</time>
      </trkpt>
      <trkpt lat="42.69674411974847316741943359375" lon="-0.10530645959079265594482421875">
        <ele>1372.199951171875</ele>
        <time>2021-08-21T10:51:19.000Z</time>
      </trkpt>
      <trkpt lat="42.6968120969831943511962890625" lon="-0.1052453555166721343994140625">
        <ele>1376.4000244140625</ele>
        <time>2021-08-21T10:51:37.000Z</time>
      </trkpt>
      <trkpt lat="42.6968275196850299835205078125" lon="-0.10524862445890903472900390625">
        <ele>1376.199951171875</ele>
        <time>2021-08-21T10:51:39.000Z</time>
      </trkpt>
      <trkpt lat="42.69686666317284107208251953125" lon="-0.10532573796808719635009765625">
        <ele>1371.5999755859375</ele>
        <time>2021-08-21T10:51:46.000Z</time>
      </trkpt>
      <trkpt lat="42.696918211877346038818359375" lon="-0.10541693307459354400634765625">
        <ele>1368</ele>
        <time>2021-08-21T10:51:54.000Z</time>
      </trkpt>
      <trkpt lat="42.6969877816736698150634765625" lon="-0.1054616086184978485107421875">
        <ele>1367.5999755859375</ele>
        <time>2021-08-21T10:52:09.000Z</time>
      </trkpt>
      <trkpt lat="42.697033546864986419677734375" lon="-0.1055199466645717620849609375">
        <ele>1366.800048828125</ele>
        <time>2021-08-21T10:52:17.000Z</time>
      </trkpt>
      <trkpt lat="42.697122059762477874755859375" lon="-0.105542242527008056640625">
        <ele>1367.800048828125</ele>
        <time>2021-08-21T10:52:32.000Z</time>
      </trkpt>
      <trkpt lat="42.69729246385395526885986328125" lon="-0.10553193278610706329345703125">
        <ele>1371.4000244140625</ele>
        <time>2021-08-21T10:52:54.000Z</time>
      </trkpt>
      <trkpt lat="42.69739438779652118682861328125" lon="-0.10550175793468952178955078125">
        <ele>1374.199951171875</ele>
        <time>2021-08-21T10:53:23.000Z</time>
      </trkpt>
      <trkpt lat="42.697406373918056488037109375" lon="-0.105408132076263427734375">
        <ele>1377.800048828125</ele>
        <time>2021-08-21T10:53:29.000Z</time>
      </trkpt>
      <trkpt lat="42.69742305390536785125732421875" lon="-0.1053677313029766082763671875">
        <ele>1380.199951171875</ele>
        <time>2021-08-21T10:53:35.000Z</time>
      </trkpt>
      <trkpt lat="42.6974296756088733673095703125" lon="-0.105358846485614776611328125">
        <ele>1380.800048828125</ele>
        <time>2021-08-21T10:53:36.000Z</time>
      </trkpt>
      <trkpt lat="42.69751332700252532958984375" lon="-0.1053154282271862030029296875">
        <ele>1384.5999755859375</ele>
        <time>2021-08-21T10:53:49.000Z</time>
      </trkpt>
      <trkpt lat="42.6975339464843273162841796875" lon="-0.10530545376241207122802734375">
        <ele>1385.4000244140625</ele>
        <time>2021-08-21T10:53:51.000Z</time>
      </trkpt>
      <trkpt lat="42.697653137147426605224609375" lon="-0.105274021625518798828125">
        <ele>1389.5999755859375</ele>
        <time>2021-08-21T10:54:10.000Z</time>
      </trkpt>
      <trkpt lat="42.69777593202888965606689453125" lon="-0.10531215928494930267333984375">
        <ele>1390.4000244140625</ele>
        <time>2021-08-21T10:54:37.000Z</time>
      </trkpt>
      <trkpt lat="42.6978253014385700225830078125" lon="-0.1053093932569026947021484375">
        <ele>1391.5999755859375</ele>
        <time>2021-08-21T10:54:45.000Z</time>
      </trkpt>
      <trkpt lat="42.6978876627981662750244140625" lon="-0.1052949763834476470947265625">
        <ele>1393.5999755859375</ele>
        <time>2021-08-21T10:54:53.000Z</time>
      </trkpt>
      <trkpt lat="42.69790350459516048431396484375" lon="-0.10529237799346446990966796875">
        <ele>1394.199951171875</ele>
        <time>2021-08-21T10:54:55.000Z</time>
      </trkpt>
      <trkpt lat="42.69793049432337284088134765625" lon="-0.10528986342251300811767578125">
        <ele>1394.800048828125</ele>
        <time>2021-08-21T10:54:58.000Z</time>
      </trkpt>
      <trkpt lat="42.69794658757746219635009765625" lon="-0.10528718121349811553955078125">
        <ele>1395.4000244140625</ele>
        <time>2021-08-21T10:54:59.000Z</time>
      </trkpt>
      <trkpt lat="42.69794658757746219635009765625" lon="-0.10528718121349811553955078125">
        <ele>1395.4000244140625</ele>
        <time>2021-08-21T10:55:00.000Z</time>
      </trkpt>
      <trkpt lat="42.69795723259449005126953125" lon="-0.1052765361964702606201171875">
        <ele>1396</ele>
        <time>2021-08-21T10:55:02.000Z</time>
      </trkpt>
      <trkpt lat="42.6980227790772914886474609375" lon="-0.1052426733076572418212890625">
        <ele>1399.199951171875</ele>
        <time>2021-08-21T10:55:20.000Z</time>
      </trkpt>
      <trkpt lat="42.69804918207228183746337890625" lon="-0.105228088796138763427734375">
        <ele>1400.5999755859375</ele>
        <time>2021-08-21T10:55:25.000Z</time>
      </trkpt>
      <trkpt lat="42.69805404357612133026123046875" lon="-0.10520897805690765380859375">
        <ele>1401.5999755859375</ele>
        <time>2021-08-21T10:55:27.000Z</time>
      </trkpt>
      <trkpt lat="42.6980529539287090301513671875" lon="-0.1051233150064945220947265625">
        <ele>1405.800048828125</ele>
        <time>2021-08-21T10:55:41.000Z</time>
      </trkpt>
      <trkpt lat="42.69807365722954273223876953125" lon="-0.10512524284422397613525390625">
        <ele>1406.199951171875</ele>
        <time>2021-08-21T10:55:46.000Z</time>
      </trkpt>
      <trkpt lat="42.698143310844898223876953125" lon="-0.10513664223253726959228515625">
        <ele>1407.199951171875</ele>
        <time>2021-08-21T10:55:58.000Z</time>
      </trkpt>
      <trkpt lat="42.698188237845897674560546875" lon="-0.1051612012088298797607421875">
        <ele>1406.800048828125</ele>
        <time>2021-08-21T10:56:04.000Z</time>
      </trkpt>
      <trkpt lat="42.69820391200482845306396484375" lon="-0.10516413487493991851806640625">
        <ele>1407</ele>
        <time>2021-08-21T10:56:06.000Z</time>
      </trkpt>
      <trkpt lat="42.69826023839414119720458984375" lon="-0.10513261891901493072509765625">
        <ele>1409.800048828125</ele>
        <time>2021-08-21T10:56:13.000Z</time>
      </trkpt>
      <trkpt lat="42.698373310267925262451171875" lon="-0.105051733553409576416015625">
        <ele>1416.5999755859375</ele>
        <time>2021-08-21T10:56:34.000Z</time>
      </trkpt>
      <trkpt lat="42.6983238570392131805419921875" lon="-0.10484511964023113250732421875">
        <ele>1425.800048828125</ele>
        <time>2021-08-21T10:57:00.000Z</time>
      </trkpt>
      <trkpt lat="42.6982946880161762237548828125" lon="-0.10478921234607696533203125">
        <ele>1428</ele>
        <time>2021-08-21T10:57:06.000Z</time>
      </trkpt>
      <trkpt lat="42.698262669146060943603515625" lon="-0.10475425980985164642333984375">
        <ele>1429</ele>
        <time>2021-08-21T10:57:11.000Z</time>
      </trkpt>
      <trkpt lat="42.69820709712803363800048828125" lon="-0.10475568473339080810546875">
        <ele>1427.800048828125</ele>
        <time>2021-08-21T10:57:17.000Z</time>
      </trkpt>
      <trkpt lat="42.69819754175841808319091796875" lon="-0.10474772192537784576416015625">
        <ele>1428</ele>
        <time>2021-08-21T10:57:18.000Z</time>
      </trkpt>
      <trkpt lat="42.6980264671146869659423828125" lon="-0.10472743771970272064208984375">
        <ele>1425.199951171875</ele>
        <time>2021-08-21T10:57:42.000Z</time>
      </trkpt>
      <trkpt lat="42.69805722869932651519775390625" lon="-0.1047253422439098358154296875">
        <ele>1426</ele>
        <time>2021-08-21T10:57:46.000Z</time>
      </trkpt>
      <trkpt lat="42.6981743238866329193115234375" lon="-0.104751996695995330810546875">
        <ele>1427.199951171875</ele>
        <time>2021-08-21T10:58:03.000Z</time>
      </trkpt>
      <trkpt lat="42.69813635386526584625244140625" lon="-0.10465451516211032867431640625">
        <ele>1431.199951171875</ele>
        <time>2021-08-21T10:58:35.000Z</time>
      </trkpt>
      <trkpt lat="42.6980464160442352294921875" lon="-0.10455024428665637969970703125">
        <ele>1434.800048828125</ele>
        <time>2021-08-21T10:58:55.000Z</time>
      </trkpt>
      <trkpt lat="42.697961591184139251708984375" lon="-0.10440842248499393463134765625">
        <ele>1440.800048828125</ele>
        <time>2021-08-21T10:59:23.000Z</time>
      </trkpt>
      <trkpt lat="42.69796435721218585968017578125" lon="-0.10441244579851627349853515625">
        <ele>1440.5999755859375</ele>
        <time>2021-08-21T10:59:24.000Z</time>
      </trkpt>
      <trkpt lat="42.69798933528363704681396484375" lon="-0.1043937541544437408447265625">
        <ele>1442.199951171875</ele>
        <time>2021-08-21T10:59:28.000Z</time>
      </trkpt>
      <trkpt lat="42.69798497669398784637451171875" lon="-0.10437615215778350830078125">
        <ele>1443.199951171875</ele>
        <time>2021-08-21T10:59:34.000Z</time>
      </trkpt>
      <trkpt lat="42.6979091204702854156494140625" lon="-0.10434673167765140533447265625">
        <ele>1443.199951171875</ele>
        <time>2021-08-21T10:59:46.000Z</time>
      </trkpt>
      <trkpt lat="42.69790115766227245330810546875" lon="-0.1042499206960201263427734375">
        <ele>1448.199951171875</ele>
        <time>2021-08-21T10:59:59.000Z</time>
      </trkpt>
      <trkpt lat="42.6979262195527553558349609375" lon="-0.10424204170703887939453125">
        <ele>1449.199951171875</ele>
        <time>2021-08-21T11:00:03.000Z</time>
      </trkpt>
      <trkpt lat="42.69797609187662601470947265625" lon="-0.10425637476146221160888671875">
        <ele>1449.5999755859375</ele>
        <time>2021-08-21T11:00:10.000Z</time>
      </trkpt>
      <trkpt lat="42.6980496011674404144287109375" lon="-0.1042857952415943145751953125">
        <ele>1449.5999755859375</ele>
        <time>2021-08-21T11:00:20.000Z</time>
      </trkpt>
      <trkpt lat="42.69810349680483341217041015625" lon="-0.10431571863591670989990234375">
        <ele>1449</ele>
        <time>2021-08-21T11:00:29.000Z</time>
      </trkpt>
      <trkpt lat="42.698125205934047698974609375" lon="-0.1043260283768177032470703125">
        <ele>1449</ele>
        <time>2021-08-21T11:00:35.000Z</time>
      </trkpt>
      <trkpt lat="42.6983506791293621063232421875" lon="-0.10433868505060672760009765625">
        <ele>1453</ele>
        <time>2021-08-21T11:01:07.000Z</time>
      </trkpt>
      <trkpt lat="42.6984381861984729766845703125" lon="-0.10436885990202426910400390625">
        <ele>1453</ele>
        <time>2021-08-21T11:01:26.000Z</time>
      </trkpt>
      <trkpt lat="42.698510102927684783935546875" lon="-0.10428571142256259918212890625">
        <ele>1458.800048828125</ele>
        <time>2021-08-21T11:02:03.000Z</time>
      </trkpt>
      <trkpt lat="42.69851337186992168426513671875" lon="-0.10429023765027523040771484375">
        <ele>1458.5999755859375</ele>
        <time>2021-08-21T11:02:04.000Z</time>
      </trkpt>
      <trkpt lat="42.69848286174237728118896484375" lon="-0.104309432208538055419921875">
        <ele>1457</ele>
        <time>2021-08-21T11:02:47.000Z</time>
      </trkpt>
      <trkpt lat="42.698481939733028411865234375" lon="-0.1043183170258998870849609375">
        <ele>1456.4000244140625</ele>
        <time>2021-08-21T11:02:50.000Z</time>
      </trkpt>
      <trkpt lat="42.6984809339046478271484375" lon="-0.104326866567134857177734375">
        <ele>1456</ele>
        <time>2021-08-21T11:02:53.000Z</time>
      </trkpt>
      <trkpt lat="42.698594592511653900146484375" lon="-0.10438914410769939422607421875">
        <ele>1455</ele>
        <time>2021-08-21T11:03:09.000Z</time>
      </trkpt>
      <trkpt lat="42.69862920977175235748291015625" lon="-0.1043813489377498626708984375">
        <ele>1456.5999755859375</ele>
        <time>2021-08-21T11:03:15.000Z</time>
      </trkpt>
      <trkpt lat="42.69866374321281909942626953125" lon="-0.10438797064125537872314453125">
        <ele>1457.800048828125</ele>
        <time>2021-08-21T11:03:20.000Z</time>
      </trkpt>
      <trkpt lat="42.6986889727413654327392578125" lon="-0.10438579134643077850341796875">
        <ele>1459</ele>
        <time>2021-08-21T11:03:23.000Z</time>
      </trkpt>
      <trkpt lat="42.69871822558343410491943359375" lon="-0.10437221266329288482666015625">
        <ele>1460.5999755859375</ele>
        <time>2021-08-21T11:03:28.000Z</time>
      </trkpt>
      <trkpt lat="42.698742784559726715087890625" lon="-0.10435712523758411407470703125">
        <ele>1462</ele>
        <time>2021-08-21T11:03:32.000Z</time>
      </trkpt>
      <trkpt lat="42.69875057972967624664306640625" lon="-0.10435578413307666778564453125">
        <ele>1462.4000244140625</ele>
        <time>2021-08-21T11:03:33.000Z</time>
      </trkpt>
      <trkpt lat="42.69876030273735523223876953125" lon="-0.104349665343761444091796875">
        <ele>1463</ele>
        <time>2021-08-21T11:03:34.000Z</time>
      </trkpt>
      <trkpt lat="42.69877807237207889556884765625" lon="-0.1043411158025264739990234375">
        <ele>1464</ele>
        <time>2021-08-21T11:03:36.000Z</time>
      </trkpt>
      <trkpt lat="42.69879450090229511260986328125" lon="-0.10431219823658466339111328125">
        <ele>1465.5999755859375</ele>
        <time>2021-08-21T11:03:40.000Z</time>
      </trkpt>
      <trkpt lat="42.6987794972956180572509765625" lon="-0.10427397675812244415283203125">
        <ele>1466.199951171875</ele>
        <time>2021-08-21T11:03:47.000Z</time>
      </trkpt>
      <trkpt lat="42.69868821837007999420166015625" lon="-0.10421614162623882293701171875">
        <ele>1465.5999755859375</ele>
        <time>2021-08-21T11:04:03.000Z</time>
      </trkpt>
      <trkpt lat="42.69866667687892913818359375" lon="-0.10417498648166656494140625">
        <ele>1467.5999755859375</ele>
        <time>2021-08-21T11:04:06.000Z</time>
      </trkpt>
      <trkpt lat="42.69870297051966190338134765625" lon="-0.10411974973976612091064453125">
        <ele>1471.199951171875</ele>
        <time>2021-08-21T11:04:41.000Z</time>
      </trkpt>
      <trkpt lat="42.69875376485288143157958984375" lon="-0.104141794145107269287109375">
        <ele>1470.800048828125</ele>
        <time>2021-08-21T11:04:49.000Z</time>
      </trkpt>
      <trkpt lat="42.6987303793430328369140625" lon="-0.104066692292690277099609375">
        <ele>1474.5999755859375</ele>
        <time>2021-08-21T11:05:06.000Z</time>
      </trkpt>
      <trkpt lat="42.69865988753736019134521484375" lon="-0.103973485529422760009765625">
        <ele>1478.5999755859375</ele>
        <time>2021-08-21T11:05:17.000Z</time>
      </trkpt>
      <trkpt lat="42.6986437104642391204833984375" lon="-0.10388304479420185089111328125">
        <ele>1483.199951171875</ele>
        <time>2021-08-21T11:05:39.000Z</time>
      </trkpt>
      <trkpt lat="42.69866491667926311492919921875" lon="-0.1038573123514652252197265625">
        <ele>1485</ele>
        <time>2021-08-21T11:05:52.000Z</time>
      </trkpt>
      <trkpt lat="42.69867799244821071624755859375" lon="-0.103854127228260040283203125">
        <ele>1485.4000244140625</ele>
        <time>2021-08-21T11:06:00.000Z</time>
      </trkpt>
      <trkpt lat="42.6987684331834316253662109375" lon="-0.1038982160389423370361328125">
        <ele>1484.4000244140625</ele>
        <time>2021-08-21T11:06:19.000Z</time>
      </trkpt>
      <trkpt lat="42.6987858675420284271240234375" lon="-0.1038965396583080291748046875">
        <ele>1484.800048828125</ele>
        <time>2021-08-21T11:06:22.000Z</time>
      </trkpt>
      <trkpt lat="42.6988100074231624603271484375" lon="-0.1039045862853527069091796875">
        <ele>1484.800048828125</ele>
        <time>2021-08-21T11:06:27.000Z</time>
      </trkpt>
      <trkpt lat="42.698842026293277740478515625" lon="-0.1038985513150691986083984375">
        <ele>1485.800048828125</ele>
        <time>2021-08-21T11:06:33.000Z</time>
      </trkpt>
      <trkpt lat="42.6989451237022876739501953125" lon="-0.10395705699920654296875">
        <ele>1484.199951171875</ele>
        <time>2021-08-21T11:06:54.000Z</time>
      </trkpt>
      <trkpt lat="42.698992229998111724853515625" lon="-0.10393761098384857177734375">
        <ele>1486</ele>
        <time>2021-08-21T11:07:05.000Z</time>
      </trkpt>
      <trkpt lat="42.6990651525557041168212890625" lon="-0.10393233038485050201416015625">
        <ele>1488.4000244140625</ele>
        <time>2021-08-21T11:07:15.000Z</time>
      </trkpt>
      <trkpt lat="42.6992116682231426239013671875" lon="-0.10375731624662876129150390625">
        <ele>1499.800048828125</ele>
        <time>2021-08-21T11:07:49.000Z</time>
      </trkpt>
      <trkpt lat="42.699160873889923095703125" lon="-0.10352714918553829193115234375">
        <ele>1507</ele>
        <time>2021-08-21T11:08:23.000Z</time>
      </trkpt>
      <trkpt lat="42.6990983448922634124755859375" lon="-0.10349638760089874267578125">
        <ele>1507</ele>
        <time>2021-08-21T11:08:31.000Z</time>
      </trkpt>
      <trkpt lat="42.6990683376789093017578125" lon="-0.1034184359014034271240234375">
        <ele>1509.4000244140625</ele>
        <time>2021-08-21T11:08:55.000Z</time>
      </trkpt>
      <trkpt lat="42.69901377148926258087158203125" lon="-0.10335716418921947479248046875">
        <ele>1510.5999755859375</ele>
        <time>2021-08-21T11:09:09.000Z</time>
      </trkpt>
      <trkpt lat="42.699023745954036712646484375" lon="-0.1033414900302886962890625">
        <ele>1511.4000244140625</ele>
        <time>2021-08-21T11:09:11.000Z</time>
      </trkpt>
      <trkpt lat="42.6990577764809131622314453125" lon="-0.10332078672945499420166015625">
        <ele>1512.5999755859375</ele>
        <time>2021-08-21T11:09:15.000Z</time>
      </trkpt>
      <trkpt lat="42.69915509037673473358154296875" lon="-0.10315918363630771636962890625">
        <ele>1520.199951171875</ele>
        <time>2021-08-21T11:09:38.000Z</time>
      </trkpt>
      <trkpt lat="42.69921946339309215545654296875" lon="-0.1031233929097652435302734375">
        <ele>1522.800048828125</ele>
        <time>2021-08-21T11:09:51.000Z</time>
      </trkpt>
      <trkpt lat="42.6991657353937625885009765625" lon="-0.10306647978723049163818359375">
        <ele>1523.5999755859375</ele>
        <time>2021-08-21T11:10:02.000Z</time>
      </trkpt>
      <trkpt lat="42.69915978424251079559326171875" lon="-0.10302859358489513397216796875">
        <ele>1524.800048828125</ele>
        <time>2021-08-21T11:10:05.000Z</time>
      </trkpt>
      <trkpt lat="42.69895358942449092864990234375" lon="-0.10283815674483776092529296875">
        <ele>1532.4000244140625</ele>
        <time>2021-08-21T11:11:20.000Z</time>
      </trkpt>
      <trkpt lat="42.69896029494702816009521484375" lon="-0.1028270088136196136474609375">
        <ele>1532.800048828125</ele>
        <time>2021-08-21T11:11:21.000Z</time>
      </trkpt>
      <trkpt lat="42.6990091614425182342529296875" lon="-0.10276087559759616851806640625">
        <ele>1535.800048828125</ele>
        <time>2021-08-21T11:11:30.000Z</time>
      </trkpt>
      <trkpt lat="42.6990343071520328521728515625" lon="-0.102702789008617401123046875">
        <ele>1538.199951171875</ele>
        <time>2021-08-21T11:11:43.000Z</time>
      </trkpt>
      <trkpt lat="42.6991067267954349517822265625" lon="-0.102607570588588714599609375">
        <ele>1542.4000244140625</ele>
        <time>2021-08-21T11:11:59.000Z</time>
      </trkpt>
      <trkpt lat="42.6991385780274868011474609375" lon="-0.102532468736171722412109375">
        <ele>1545.5999755859375</ele>
        <time>2021-08-21T11:12:07.000Z</time>
      </trkpt>
      <trkpt lat="42.69916917197406291961669921875" lon="-0.10249114595353603363037109375">
        <ele>1547.4000244140625</ele>
        <time>2021-08-21T11:12:12.000Z</time>
      </trkpt>
      <trkpt lat="42.69919448532164096832275390625" lon="-0.10246348567306995391845703125">
        <ele>1548.800048828125</ele>
        <time>2021-08-21T11:12:15.000Z</time>
      </trkpt>
      <trkpt lat="42.69920554943382740020751953125" lon="-0.1024307124316692352294921875">
        <ele>1550.199951171875</ele>
        <time>2021-08-21T11:12:19.000Z</time>
      </trkpt>
      <trkpt lat="42.69922231324017047882080078125" lon="-0.1023827679455280303955078125">
        <ele>1552.199951171875</ele>
        <time>2021-08-21T11:12:30.000Z</time>
      </trkpt>
      <trkpt lat="42.69930294714868068695068359375" lon="-0.10233758948743343353271484375">
        <ele>1554.4000244140625</ele>
        <time>2021-08-21T11:12:47.000Z</time>
      </trkpt>
      <trkpt lat="42.69942482002079486846923828125" lon="-0.10220364667475223541259765625">
        <ele>1560.4000244140625</ele>
        <time>2021-08-21T11:13:15.000Z</time>
      </trkpt>
      <trkpt lat="42.69944812171161174774169921875" lon="-0.1021722145378589630126953125">
        <ele>1561.800048828125</ele>
        <time>2021-08-21T11:13:31.000Z</time>
      </trkpt>
      <trkpt lat="42.69944510422646999359130859375" lon="-0.10218084789812564849853515625">
        <ele>1561.4000244140625</ele>
        <time>2021-08-21T11:13:41.000Z</time>
      </trkpt>
      <trkpt lat="42.69946790300309658050537109375" lon="-0.10216659866273403167724609375">
        <ele>1562.199951171875</ele>
        <time>2021-08-21T11:13:55.000Z</time>
      </trkpt>
      <trkpt lat="42.6995120756328105926513671875" lon="-0.1021648384630680084228515625">
        <ele>1562.4000244140625</ele>
        <time>2021-08-21T11:14:01.000Z</time>
      </trkpt>
      <trkpt lat="42.69953546114265918731689453125" lon="-0.10217330418527126312255859375">
        <ele>1562.199951171875</ele>
        <time>2021-08-21T11:14:04.000Z</time>
      </trkpt>
      <trkpt lat="42.6995687372982501983642578125" lon="-0.10218939743936061859130859375">
        <ele>1561.5999755859375</ele>
        <time>2021-08-21T11:14:09.000Z</time>
      </trkpt>
      <trkpt lat="42.69960385747253894805908203125" lon="-0.10224186815321445465087890625">
        <ele>1559.4000244140625</ele>
        <time>2021-08-21T11:14:16.000Z</time>
      </trkpt>
      <trkpt lat="42.6996049471199512481689453125" lon="-0.1022607274353504180908203125">
        <ele>1558.800048828125</ele>
        <time>2021-08-21T11:14:19.000Z</time>
      </trkpt>
      <trkpt lat="42.69960771314799785614013671875" lon="-0.10226399637758731842041015625">
        <ele>1558.5999755859375</ele>
        <time>2021-08-21T11:14:21.000Z</time>
      </trkpt>
      <trkpt lat="42.69961081445217132568359375" lon="-0.10226433165371417999267578125">
        <ele>1558.5999755859375</ele>
        <time>2021-08-21T11:14:23.000Z</time>
      </trkpt>
      <trkpt lat="42.69961324520409107208251953125" lon="-0.1022657565772533416748046875">
        <ele>1558.5999755859375</ele>
        <time>2021-08-21T11:14:26.000Z</time>
      </trkpt>
      <trkpt lat="42.69961349666118621826171875" lon="-0.10226525366306304931640625">
        <ele>1558.5999755859375</ele>
        <time>2021-08-21T11:14:27.000Z</time>
      </trkpt>
      <trkpt lat="42.69961290992796421051025390625" lon="-0.1022660918533802032470703125">
        <ele>1558.5999755859375</ele>
        <time>2021-08-21T11:14:28.000Z</time>
      </trkpt>
      <trkpt lat="42.69960100762546062469482421875" lon="-0.1022525131702423095703125">
        <ele>1559</ele>
        <time>2021-08-21T11:14:35.000Z</time>
      </trkpt>
      <trkpt lat="42.69960083998739719390869140625" lon="-0.1022486574947834014892578125">
        <ele>1559.199951171875</ele>
        <time>2021-08-21T11:14:41.000Z</time>
      </trkpt>
      <trkpt lat="42.69959949888288974761962890625" lon="-0.1022463105618953704833984375">
        <ele>1559.199951171875</ele>
        <time>2021-08-21T11:14:44.000Z</time>
      </trkpt>
      <trkpt lat="42.69960083998739719390869140625" lon="-0.1022456400096416473388671875">
        <ele>1559.4000244140625</ele>
        <time>2021-08-21T11:14:47.000Z</time>
      </trkpt>
      <trkpt lat="42.69961056299507617950439453125" lon="-0.10222577489912509918212890625">
        <ele>1560.199951171875</ele>
        <time>2021-08-21T11:14:56.000Z</time>
      </trkpt>
      <trkpt lat="42.69972975365817546844482421875" lon="-0.10225930251181125640869140625">
        <ele>1559.199951171875</ele>
        <time>2021-08-21T11:15:21.000Z</time>
      </trkpt>
      <trkpt lat="42.69975992850959300994873046875" lon="-0.102263577282428741455078125">
        <ele>1559.199951171875</ele>
        <time>2021-08-21T11:15:25.000Z</time>
      </trkpt>
      <trkpt lat="42.69978658296167850494384765625" lon="-0.10227824561297893524169921875">
        <ele>1558.5999755859375</ele>
        <time>2021-08-21T11:15:28.000Z</time>
      </trkpt>
      <trkpt lat="42.6997933723032474517822265625" lon="-0.1022831909358501434326171875">
        <ele>1558.4000244140625</ele>
        <time>2021-08-21T11:15:29.000Z</time>
      </trkpt>
      <trkpt lat="42.6998399756848812103271484375" lon="-0.10228914208710193634033203125">
        <ele>1558.4000244140625</ele>
        <time>2021-08-21T11:15:36.000Z</time>
      </trkpt>
      <trkpt lat="42.69984626211225986480712890625" lon="-0.1022919081151485443115234375">
        <ele>1558.4000244140625</ele>
        <time>2021-08-21T11:15:37.000Z</time>
      </trkpt>
      <trkpt lat="42.69985112361609935760498046875" lon="-0.102294422686100006103515625">
        <ele>1558.4000244140625</ele>
        <time>2021-08-21T11:15:38.000Z</time>
      </trkpt>
      <trkpt lat="42.69985682331025600433349609375" lon="-0.10229836218059062957763671875">
        <ele>1558.5999755859375</ele>
        <time>2021-08-21T11:15:39.000Z</time>
      </trkpt>
      <trkpt lat="42.6998595893383026123046875" lon="-0.10230037383735179901123046875">
        <ele>1558.5999755859375</ele>
        <time>2021-08-21T11:15:40.000Z</time>
      </trkpt>
      <trkpt lat="42.6998778618872165679931640625" lon="-0.10228805243968963623046875">
        <ele>1559.4000244140625</ele>
        <time>2021-08-21T11:15:43.000Z</time>
      </trkpt>
      <trkpt lat="42.69988414831459522247314453125" lon="-0.10227723978459835052490234375">
        <ele>1559.800048828125</ele>
        <time>2021-08-21T11:15:45.000Z</time>
      </trkpt>
      <trkpt lat="42.69989118911325931549072265625" lon="-0.102272965013980865478515625">
        <ele>1560</ele>
        <time>2021-08-21T11:15:46.000Z</time>
      </trkpt>
      <trkpt lat="42.699895799160003662109375" lon="-0.102269947528839111328125">
        <ele>1560.199951171875</ele>
        <time>2021-08-21T11:15:47.000Z</time>
      </trkpt>
      <trkpt lat="42.69992304034531116485595703125" lon="-0.102272965013980865478515625">
        <ele>1561</ele>
        <time>2021-08-21T11:15:50.000Z</time>
      </trkpt>
      <trkpt lat="42.69993603229522705078125" lon="-0.1022691093385219573974609375">
        <ele>1561.4000244140625</ele>
        <time>2021-08-21T11:15:51.000Z</time>
      </trkpt>
      <trkpt lat="42.6999445818364620208740234375" lon="-0.1022697798907756805419921875">
        <ele>1561.5999755859375</ele>
        <time>2021-08-21T11:15:52.000Z</time>
      </trkpt>
      <trkpt lat="42.69996042363345623016357421875" lon="-0.10226449929177761077880859375">
        <ele>1562.199951171875</ele>
        <time>2021-08-21T11:15:55.000Z</time>
      </trkpt>
      <trkpt lat="42.69996821880340576171875" lon="-0.10226466692984104156494140625">
        <ele>1562.4000244140625</ele>
        <time>2021-08-21T11:15:56.000Z</time>
      </trkpt>
      <trkpt lat="42.69997551105916500091552734375" lon="-0.10226315818727016448974609375">
        <ele>1562.5999755859375</ele>
        <time>2021-08-21T11:15:57.000Z</time>
      </trkpt>
      <trkpt lat="42.70000585354864597320556640625" lon="-0.10223667137324810028076171875">
        <ele>1564</ele>
        <time>2021-08-21T11:16:06.000Z</time>
      </trkpt>
      <trkpt lat="42.70005681551992893218994140625" lon="-0.102144889533519744873046875">
        <ele>1566.800048828125</ele>
        <time>2021-08-21T11:16:19.000Z</time>
      </trkpt>
      <trkpt lat="42.7000119723379611968994140625" lon="-0.10203651152551174163818359375">
        <ele>1569</ele>
        <time>2021-08-21T11:16:37.000Z</time>
      </trkpt>
      <trkpt lat="42.69993259571492671966552734375" lon="-0.1019006408751010894775390625">
        <ele>1573</ele>
        <time>2021-08-21T11:16:52.000Z</time>
      </trkpt>
      <trkpt lat="42.69990158267319202423095703125" lon="-0.10186451487243175506591796875">
        <ele>1574.199951171875</ele>
        <time>2021-08-21T11:16:56.000Z</time>
      </trkpt>
      <trkpt lat="42.70008179359138011932373046875" lon="-0.1016884110867977142333984375">
        <ele>1580.4000244140625</ele>
        <time>2021-08-21T11:17:34.000Z</time>
      </trkpt>
      <trkpt lat="42.70010559819638729095458984375" lon="-0.10163065977394580841064453125">
        <ele>1582.199951171875</ele>
        <time>2021-08-21T11:17:41.000Z</time>
      </trkpt>
      <trkpt lat="42.70016225986182689666748046875" lon="-0.10153175331652164459228515625">
        <ele>1585.4000244140625</ele>
        <time>2021-08-21T11:17:53.000Z</time>
      </trkpt>
      <trkpt lat="42.7001692168414592742919921875" lon="-0.1015055179595947265625">
        <ele>1586.199951171875</ele>
        <time>2021-08-21T11:17:55.000Z</time>
      </trkpt>
      <trkpt lat="42.7001682110130786895751953125" lon="-0.10145933367311954498291015625">
        <ele>1587.800048828125</ele>
        <time>2021-08-21T11:18:01.000Z</time>
      </trkpt>
      <trkpt lat="42.70016091875731945037841796875" lon="-0.1014258898794651031494140625">
        <ele>1588.800048828125</ele>
        <time>2021-08-21T11:18:07.000Z</time>
      </trkpt>
      <trkpt lat="42.7001749165356159210205078125" lon="-0.10147760622203350067138671875">
        <ele>1587.199951171875</ele>
        <time>2021-08-21T11:18:34.000Z</time>
      </trkpt>
      <trkpt lat="42.7001734077930450439453125" lon="-0.10147660039365291595458984375">
        <ele>1587.199951171875</ele>
        <time>2021-08-21T11:18:37.000Z</time>
      </trkpt>
      <trkpt lat="42.7001734077930450439453125" lon="-0.10147475637495517730712890625">
        <ele>1587.199951171875</ele>
        <time>2021-08-21T11:18:46.000Z</time>
      </trkpt>
      <trkpt lat="42.70017047412693500518798828125" lon="-0.101467631757259368896484375">
        <ele>1587.4000244140625</ele>
        <time>2021-08-21T11:20:02.000Z</time>
      </trkpt>
      <trkpt lat="42.7001568116247653961181640625" lon="-0.1014540530741214752197265625">
        <ele>1588</ele>
        <time>2021-08-21T11:20:24.000Z</time>
      </trkpt>
      <trkpt lat="42.70016360096633434295654296875" lon="-0.1014493592083454132080078125">
        <ele>1588</ele>
        <time>2021-08-21T11:20:32.000Z</time>
      </trkpt>
      <trkpt lat="42.70016527734696865081787109375" lon="-0.1014594174921512603759765625">
        <ele>1587.800048828125</ele>
        <time>2021-08-21T11:20:44.000Z</time>
      </trkpt>
      <trkpt lat="42.700162343680858612060546875" lon="-0.10146520100533962249755859375">
        <ele>1587.5999755859375</ele>
        <time>2021-08-21T11:20:59.000Z</time>
      </trkpt>
      <trkpt lat="42.70006100647151470184326171875" lon="-0.1014473475515842437744140625">
        <ele>1588.199951171875</ele>
        <time>2021-08-21T11:21:25.000Z</time>
      </trkpt>
      <trkpt lat="42.70002714358270168304443359375" lon="-0.1014272309839725494384765625">
        <ele>1588.800048828125</ele>
        <time>2021-08-21T11:21:48.000Z</time>
      </trkpt>
      <trkpt lat="42.700012810528278350830078125" lon="-0.10140426456928253173828125">
        <ele>1589.4000244140625</ele>
        <time>2021-08-21T11:21:52.000Z</time>
      </trkpt>
      <trkpt lat="42.70001574419438838958740234375" lon="-0.1013625226914882659912109375">
        <ele>1590.800048828125</ele>
        <time>2021-08-21T11:21:58.000Z</time>
      </trkpt>
      <trkpt lat="42.69999571144580841064453125" lon="-0.10130192153155803680419921875">
        <ele>1592.800048828125</ele>
        <time>2021-08-21T11:22:06.000Z</time>
      </trkpt>
      <trkpt lat="42.699992358684539794921875" lon="-0.10126939974725246429443359375">
        <ele>1594.199951171875</ele>
        <time>2021-08-21T11:22:12.000Z</time>
      </trkpt>
      <trkpt lat="42.69999981857836246490478515625" lon="-0.10121458210051059722900390625">
        <ele>1596.199951171875</ele>
        <time>2021-08-21T11:22:31.000Z</time>
      </trkpt>
      <trkpt lat="42.69998908974230289459228515625" lon="-0.1011554896831512451171875">
        <ele>1598.800048828125</ele>
        <time>2021-08-21T11:22:49.000Z</time>
      </trkpt>
      <trkpt lat="42.69999026320874691009521484375" lon="-0.10115188546478748321533203125">
        <ele>1598.800048828125</ele>
        <time>2021-08-21T11:22:50.000Z</time>
      </trkpt>
      <trkpt lat="42.6999680511653423309326171875" lon="-0.10109178721904754638671875">
        <ele>1601.4000244140625</ele>
        <time>2021-08-21T11:23:05.000Z</time>
      </trkpt>
      <trkpt lat="42.6999670453369617462158203125" lon="-0.1010884344577789306640625">
        <ele>1601.5999755859375</ele>
        <time>2021-08-21T11:23:06.000Z</time>
      </trkpt>
      <trkpt lat="42.70011079497635364532470703125" lon="-0.10090512223541736602783203125">
        <ele>1607</ele>
        <time>2021-08-21T11:23:48.000Z</time>
      </trkpt>
      <trkpt lat="42.70014331676065921783447265625" lon="-0.10081283748149871826171875">
        <ele>1610</ele>
        <time>2021-08-21T11:24:05.000Z</time>
      </trkpt>
      <trkpt lat="42.69994667731225490570068359375" lon="-0.10042986832559108734130859375">
        <ele>1627.5999755859375</ele>
        <time>2021-08-21T11:25:12.000Z</time>
      </trkpt>
      <trkpt lat="42.699902839958667755126953125" lon="-0.100247561931610107421875">
        <ele>1630.4000244140625</ele>
        <time>2021-08-21T11:25:39.000Z</time>
      </trkpt>
      <trkpt lat="42.69981122575700283050537109375" lon="-0.10003508068621158599853515625">
        <ele>1634</ele>
        <time>2021-08-21T11:26:10.000Z</time>
      </trkpt>
      <trkpt lat="42.6997417397797107696533203125" lon="-0.09986962191760540008544921875">
        <ele>1637.199951171875</ele>
        <time>2021-08-21T11:26:42.000Z</time>
      </trkpt>
      <trkpt lat="42.6997286640107631683349609375" lon="-0.09988353587687015533447265625">
        <ele>1637.199951171875</ele>
        <time>2021-08-21T11:26:46.000Z</time>
      </trkpt>
      <trkpt lat="42.69971273839473724365234375" lon="-0.09988286532461643218994140625">
        <ele>1637.5999755859375</ele>
        <time>2021-08-21T11:26:49.000Z</time>
      </trkpt>
      <trkpt lat="42.6996917836368083953857421875" lon="-0.09988504461944103240966796875">
        <ele>1638</ele>
        <time>2021-08-21T11:26:54.000Z</time>
      </trkpt>
      <trkpt lat="42.69969002343714237213134765625" lon="-0.09988487698137760162353515625">
        <ele>1638</ele>
        <time>2021-08-21T11:26:56.000Z</time>
      </trkpt>
      <trkpt lat="42.69967426545917987823486328125" lon="-0.09988345205783843994140625">
        <ele>1638.4000244140625</ele>
        <time>2021-08-21T11:27:13.000Z</time>
      </trkpt>
      <trkpt lat="42.6996745169162750244140625" lon="-0.099884457886219024658203125">
        <ele>1638.4000244140625</ele>
        <time>2021-08-21T11:27:18.000Z</time>
      </trkpt>
      <trkpt lat="42.69967460073530673980712890625" lon="-0.09988320060074329376220703125">
        <ele>1638.4000244140625</ele>
        <time>2021-08-21T11:27:47.000Z</time>
      </trkpt>
      <trkpt lat="42.699671499431133270263671875" lon="-0.09987406432628631591796875">
        <ele>1638.800048828125</ele>
        <time>2021-08-21T11:27:51.000Z</time>
      </trkpt>
      <trkpt lat="42.6996518857777118682861328125" lon="-0.09986056946218013763427734375">
        <ele>1639.5999755859375</ele>
        <time>2021-08-21T11:27:55.000Z</time>
      </trkpt>
      <trkpt lat="42.69964191131293773651123046875" lon="-0.0998366810381412506103515625">
        <ele>1640.800048828125</ele>
        <time>2021-08-21T11:27:59.000Z</time>
      </trkpt>
      <trkpt lat="42.69964995793998241424560546875" lon="-0.0998323224484920501708984375">
        <ele>1640.5999755859375</ele>
        <time>2021-08-21T11:28:01.000Z</time>
      </trkpt>
      <trkpt lat="42.69967493601143360137939453125" lon="-0.09980508126318454742431640625">
        <ele>1641</ele>
        <time>2021-08-21T11:28:06.000Z</time>
      </trkpt>
      <trkpt lat="42.69968868233263492584228515625" lon="-0.09974422864615917205810546875">
        <ele>1642.5999755859375</ele>
        <time>2021-08-21T11:28:15.000Z</time>
      </trkpt>
      <trkpt lat="42.6996932923793792724609375" lon="-0.09969796054065227508544921875">
        <ele>1644</ele>
        <time>2021-08-21T11:28:21.000Z</time>
      </trkpt>
      <trkpt lat="42.6996880955994129180908203125" lon="-0.09968723170459270477294921875">
        <ele>1644.4000244140625</ele>
        <time>2021-08-21T11:28:22.000Z</time>
      </trkpt>
      <trkpt lat="42.6996787078678607940673828125" lon="-0.09967214427888393402099609375">
        <ele>1645.199951171875</ele>
        <time>2021-08-21T11:28:24.000Z</time>
      </trkpt>
      <trkpt lat="42.69967292435467243194580078125" lon="-0.09967231191694736480712890625">
        <ele>1645.199951171875</ele>
        <time>2021-08-21T11:28:25.000Z</time>
      </trkpt>
      <trkpt lat="42.69966755993664264678955078125" lon="-0.099674575030803680419921875">
        <ele>1645.4000244140625</ele>
        <time>2021-08-21T11:28:26.000Z</time>
      </trkpt>
      <trkpt lat="42.6996616087853908538818359375" lon="-0.0996787659823894500732421875">
        <ele>1645.4000244140625</ele>
        <time>2021-08-21T11:28:28.000Z</time>
      </trkpt>
      <trkpt lat="42.699653394520282745361328125" lon="-0.09968304075300693511962890625">
        <ele>1645.4000244140625</ele>
        <time>2021-08-21T11:28:30.000Z</time>
      </trkpt>
      <trkpt lat="42.6996502093970775604248046875" lon="-0.09968555532395839691162109375">
        <ele>1645.4000244140625</ele>
        <time>2021-08-21T11:28:31.000Z</time>
      </trkpt>
      <trkpt lat="42.699643336236476898193359375" lon="-0.09968857280910015106201171875">
        <ele>1645.4000244140625</ele>
        <time>2021-08-21T11:28:32.000Z</time>
      </trkpt>
      <trkpt lat="42.6996247284114360809326171875" lon="-0.09965957142412662506103515625">
        <ele>1646.800048828125</ele>
        <time>2021-08-21T11:28:35.000Z</time>
      </trkpt>
      <trkpt lat="42.69962380640208721160888671875" lon="-0.09963492862880229949951171875">
        <ele>1647.5999755859375</ele>
        <time>2021-08-21T11:28:37.000Z</time>
      </trkpt>
      <trkpt lat="42.69961810670793056488037109375" lon="-0.09961581788957118988037109375">
        <ele>1648.4000244140625</ele>
        <time>2021-08-21T11:28:40.000Z</time>
      </trkpt>
      <trkpt lat="42.69961726851761341094970703125" lon="-0.0995944440364837646484375">
        <ele>1649.199951171875</ele>
        <time>2021-08-21T11:28:44.000Z</time>
      </trkpt>
      <trkpt lat="42.699617184698581695556640625" lon="-0.0995909236371517181396484375">
        <ele>1649.199951171875</ele>
        <time>2021-08-21T11:28:45.000Z</time>
      </trkpt>
      <trkpt lat="42.69962028600275516510009765625" lon="-0.09957902133464813232421875">
        <ele>1649.4000244140625</ele>
        <time>2021-08-21T11:28:46.000Z</time>
      </trkpt>
      <trkpt lat="42.6996217109262943267822265625" lon="-0.09955488145351409912109375">
        <ele>1650</ele>
        <time>2021-08-21T11:28:49.000Z</time>
      </trkpt>
      <trkpt lat="42.6996227167546749114990234375" lon="-0.0995476730167865753173828125">
        <ele>1650.199951171875</ele>
        <time>2021-08-21T11:28:50.000Z</time>
      </trkpt>
      <trkpt lat="42.6996235549449920654296875" lon="-0.09953074157238006591796875">
        <ele>1650.4000244140625</ele>
        <time>2021-08-21T11:28:52.000Z</time>
      </trkpt>
      <trkpt lat="42.699617184698581695556640625" lon="-0.099525041878223419189453125">
        <ele>1650.800048828125</ele>
        <time>2021-08-21T11:28:54.000Z</time>
      </trkpt>
      <trkpt lat="42.699604444205760955810546875" lon="-0.0995235331356525421142578125">
        <ele>1651.199951171875</ele>
        <time>2021-08-21T11:28:57.000Z</time>
      </trkpt>
      <trkpt lat="42.69959363155066967010498046875" lon="-0.09951842017471790313720703125">
        <ele>1651.5999755859375</ele>
        <time>2021-08-21T11:28:59.000Z</time>
      </trkpt>
      <trkpt lat="42.69956949166953563690185546875" lon="-0.09949277155101299285888671875">
        <ele>1652.5999755859375</ele>
        <time>2021-08-21T11:29:03.000Z</time>
      </trkpt>
      <trkpt lat="42.69955624826252460479736328125" lon="-0.09947114624083042144775390625">
        <ele>1653.5999755859375</ele>
        <time>2021-08-21T11:29:06.000Z</time>
      </trkpt>
      <trkpt lat="42.6994748599827289581298828125" lon="-0.0994279794394969940185546875">
        <ele>1656.5999755859375</ele>
        <time>2021-08-21T11:29:18.000Z</time>
      </trkpt>
      <trkpt lat="42.69946840591728687286376953125" lon="-0.09942420758306980133056640625">
        <ele>1656.800048828125</ele>
        <time>2021-08-21T11:29:19.000Z</time>
      </trkpt>
      <trkpt lat="42.69942574203014373779296875" lon="-0.09941138327121734619140625">
        <ele>1658</ele>
        <time>2021-08-21T11:29:24.000Z</time>
      </trkpt>
      <trkpt lat="42.6994111575186252593994140625" lon="-0.09941431693732738494873046875">
        <ele>1658.4000244140625</ele>
        <time>2021-08-21T11:29:26.000Z</time>
      </trkpt>
      <trkpt lat="42.69939095713198184967041015625" lon="-0.09943342767655849456787109375">
        <ele>1658.4000244140625</ele>
        <time>2021-08-21T11:29:33.000Z</time>
      </trkpt>
      <trkpt lat="42.69939087331295013427734375" lon="-0.09943418204784393310546875">
        <ele>1658.4000244140625</ele>
        <time>2021-08-21T11:29:36.000Z</time>
      </trkpt>
      <trkpt lat="42.69939229823648929595947265625" lon="-0.09944080375134944915771484375">
        <ele>1658.199951171875</ele>
        <time>2021-08-21T11:29:40.000Z</time>
      </trkpt>
      <trkpt lat="42.6993896998465061187744140625" lon="-0.09944248013198375701904296875">
        <ele>1658.199951171875</ele>
        <time>2021-08-21T11:29:41.000Z</time>
      </trkpt>
      <trkpt lat="42.69938710145652294158935546875" lon="-0.09944600053131580352783203125">
        <ele>1658.199951171875</ele>
        <time>2021-08-21T11:29:42.000Z</time>
      </trkpt>
      <trkpt lat="42.699387185275554656982421875" lon="-0.09944750927388668060302734375">
        <ele>1658.199951171875</ele>
        <time>2021-08-21T11:29:43.000Z</time>
      </trkpt>
      <trkpt lat="42.699378468096256256103515625" lon="-0.0994594953954219818115234375">
        <ele>1658</ele>
        <time>2021-08-21T11:29:56.000Z</time>
      </trkpt>
      <trkpt lat="42.69936405122280120849609375" lon="-0.09945094585418701171875">
        <ele>1658.5999755859375</ele>
        <time>2021-08-21T11:30:43.000Z</time>
      </trkpt>
      <trkpt lat="42.6993648894131183624267578125" lon="-0.0994491018354892730712890625">
        <ele>1658.5999755859375</ele>
        <time>2021-08-21T11:30:47.000Z</time>
      </trkpt>
      <trkpt lat="42.6993642188608646392822265625" lon="-0.0994477607309818267822265625">
        <ele>1658.800048828125</ele>
        <time>2021-08-21T11:30:58.000Z</time>
      </trkpt>
      <trkpt lat="42.6993648894131183624267578125" lon="-0.09944784455001354217529296875">
        <ele>1658.5999755859375</ele>
        <time>2021-08-21T11:31:04.000Z</time>
      </trkpt>
      <trkpt lat="42.6993692480027675628662109375" lon="-0.0994437374174594879150390625">
        <ele>1658.5999755859375</ele>
        <time>2021-08-21T11:31:09.000Z</time>
      </trkpt>
      <trkpt lat="42.69937746226787567138671875" lon="-0.09943510405719280242919921875">
        <ele>1658.5999755859375</ele>
        <time>2021-08-21T11:31:21.000Z</time>
      </trkpt>
      <trkpt lat="42.69933681003749370574951171875" lon="-0.09937559254467487335205078125">
        <ele>1661.5999755859375</ele>
        <time>2021-08-21T11:31:49.000Z</time>
      </trkpt>
      <trkpt lat="42.6993662305176258087158203125" lon="-0.09928490035235881805419921875">
        <ele>1663.199951171875</ele>
        <time>2021-08-21T11:32:04.000Z</time>
      </trkpt>
      <trkpt lat="42.69937469623982906341552734375" lon="-0.0992556475102901458740234375">
        <ele>1663.800048828125</ele>
        <time>2021-08-21T11:32:08.000Z</time>
      </trkpt>
      <trkpt lat="42.6993772946298122406005859375" lon="-0.09923159144818782806396484375">
        <ele>1664.4000244140625</ele>
        <time>2021-08-21T11:32:11.000Z</time>
      </trkpt>
      <trkpt lat="42.6994054578244686126708984375" lon="-0.0991802103817462921142578125">
        <ele>1665.199951171875</ele>
        <time>2021-08-21T11:32:19.000Z</time>
      </trkpt>
      <trkpt lat="42.69942347891628742218017578125" lon="-0.09907099418342113494873046875">
        <ele>1667.800048828125</ele>
        <time>2021-08-21T11:32:37.000Z</time>
      </trkpt>
      <trkpt lat="42.6994453556835651397705078125" lon="-0.09895331226289272308349609375">
        <ele>1670.5999755859375</ele>
        <time>2021-08-21T11:33:00.000Z</time>
      </trkpt>
      <trkpt lat="42.69949011504650115966796875" lon="-0.0988040305674076080322265625">
        <ele>1673.5999755859375</ele>
        <time>2021-08-21T11:33:29.000Z</time>
      </trkpt>
      <trkpt lat="42.6994933001697063446044921875" lon="-0.0987939722836017608642578125">
        <ele>1673.800048828125</ele>
        <time>2021-08-21T11:33:32.000Z</time>
      </trkpt>
      <trkpt lat="42.69945046864449977874755859375" lon="-0.0987319462001323699951171875">
        <ele>1676.800048828125</ele>
        <time>2021-08-21T11:33:43.000Z</time>
      </trkpt>
      <trkpt lat="42.6994537375867366790771484375" lon="-0.098695568740367889404296875">
        <ele>1677.800048828125</ele>
        <time>2021-08-21T11:33:46.000Z</time>
      </trkpt>
      <trkpt lat="42.699448205530643463134765625" lon="-0.09858903475105762481689453125">
        <ele>1681.199951171875</ele>
        <time>2021-08-21T11:33:55.000Z</time>
      </trkpt>
      <trkpt lat="42.69945700652897357940673828125" lon="-0.09850622154772281646728515625">
        <ele>1683.4000244140625</ele>
        <time>2021-08-21T11:34:05.000Z</time>
      </trkpt>
      <trkpt lat="42.69945700652897357940673828125" lon="-0.09849616326391696929931640625">
        <ele>1683.5999755859375</ele>
        <time>2021-08-21T11:34:09.000Z</time>
      </trkpt>
      <trkpt lat="42.69945633597671985626220703125" lon="-0.09848828427493572235107421875">
        <ele>1683.800048828125</ele>
        <time>2021-08-21T11:34:14.000Z</time>
      </trkpt>
      <trkpt lat="42.69944208674132823944091796875" lon="-0.09846380911767482757568359375">
        <ele>1685</ele>
        <time>2021-08-21T11:34:20.000Z</time>
      </trkpt>
      <trkpt lat="42.699438817799091339111328125" lon="-0.09845073334872722625732421875">
        <ele>1685.4000244140625</ele>
        <time>2021-08-21T11:34:23.000Z</time>
      </trkpt>
      <trkpt lat="42.6993601955473423004150390625" lon="-0.098371021449565887451171875">
        <ele>1689.5999755859375</ele>
        <time>2021-08-21T11:34:33.000Z</time>
      </trkpt>
      <trkpt lat="42.69925382919609546661376953125" lon="-0.09837898425757884979248046875">
        <ele>1692.199951171875</ele>
        <time>2021-08-21T11:34:41.000Z</time>
      </trkpt>
      <trkpt lat="42.6992022804915904998779296875" lon="-0.0983973406255245208740234375">
        <ele>1693.199951171875</ele>
        <time>2021-08-21T11:34:45.000Z</time>
      </trkpt>
      <trkpt lat="42.69918828271329402923583984375" lon="-0.0983956642448902130126953125">
        <ele>1693.4000244140625</ele>
        <time>2021-08-21T11:34:48.000Z</time>
      </trkpt>
      <trkpt lat="42.699177972972393035888671875" lon="-0.09838250465691089630126953125">
        <ele>1694</ele>
        <time>2021-08-21T11:34:50.000Z</time>
      </trkpt>
      <trkpt lat="42.6991995982825756072998046875" lon="-0.0983460433781147003173828125">
        <ele>1694.5999755859375</ele>
        <time>2021-08-21T11:34:54.000Z</time>
      </trkpt>
      <trkpt lat="42.6992078125476837158203125" lon="-0.0983215682208538055419921875">
        <ele>1695</ele>
        <time>2021-08-21T11:34:57.000Z</time>
      </trkpt>
      <trkpt lat="42.6992079801857471466064453125" lon="-0.098307989537715911865234375">
        <ele>1695.4000244140625</ele>
        <time>2021-08-21T11:34:58.000Z</time>
      </trkpt>
      <trkpt lat="42.6992066390812397003173828125" lon="-0.09829684160649776458740234375">
        <ele>1695.800048828125</ele>
        <time>2021-08-21T11:34:59.000Z</time>
      </trkpt>
      <trkpt lat="42.69921493716537952423095703125" lon="-0.09828125126659870147705078125">
        <ele>1696</ele>
        <time>2021-08-21T11:35:01.000Z</time>
      </trkpt>
      <trkpt lat="42.6992317847907543182373046875" lon="-0.09826415218412876129150390625">
        <ele>1696</ele>
        <time>2021-08-21T11:35:03.000Z</time>
      </trkpt>
      <trkpt lat="42.69924393855035305023193359375" lon="-0.098250322043895721435546875">
        <ele>1696</ele>
        <time>2021-08-21T11:35:05.000Z</time>
      </trkpt>
      <trkpt lat="42.6992867700755596160888671875" lon="-0.09822039864957332611083984375">
        <ele>1695.800048828125</ele>
        <time>2021-08-21T11:35:11.000Z</time>
      </trkpt>
      <trkpt lat="42.69930076785385608673095703125" lon="-0.098210759460926055908203125">
        <ele>1695.5999755859375</ele>
        <time>2021-08-21T11:35:12.000Z</time>
      </trkpt>
      <trkpt lat="42.69931082613766193389892578125" lon="-0.09820573031902313232421875">
        <ele>1695.5999755859375</ele>
        <time>2021-08-21T11:35:14.000Z</time>
      </trkpt>
      <trkpt lat="42.6993266679346561431884765625" lon="-0.09819793514907360076904296875">
        <ele>1695.4000244140625</ele>
        <time>2021-08-21T11:35:16.000Z</time>
      </trkpt>
      <trkpt lat="42.6993343792855739593505859375" lon="-0.09819072671234607696533203125">
        <ele>1695.4000244140625</ele>
        <time>2021-08-21T11:35:17.000Z</time>
      </trkpt>
      <trkpt lat="42.69933965988457202911376953125" lon="-0.09818351827561855316162109375">
        <ele>1695.4000244140625</ele>
        <time>2021-08-21T11:35:18.000Z</time>
      </trkpt>
      <trkpt lat="42.6993776299059391021728515625" lon="-0.09809299372136592864990234375">
        <ele>1696.800048828125</ele>
        <time>2021-08-21T11:35:31.000Z</time>
      </trkpt>
      <trkpt lat="42.69937234930694103240966796875" lon="-0.0980697758495807647705078125">
        <ele>1697.5999755859375</ele>
        <time>2021-08-21T11:35:34.000Z</time>
      </trkpt>
      <trkpt lat="42.6993685774505138397216796875" lon="-0.09803465567529201507568359375">
        <ele>1698.800048828125</ele>
        <time>2021-08-21T11:35:39.000Z</time>
      </trkpt>
      <trkpt lat="42.6993685774505138397216796875" lon="-0.098025016486644744873046875">
        <ele>1699</ele>
        <time>2021-08-21T11:35:40.000Z</time>
      </trkpt>
      <trkpt lat="42.69936799071729183197021484375" lon="-0.098016969859600067138671875">
        <ele>1699.199951171875</ele>
        <time>2021-08-21T11:35:41.000Z</time>
      </trkpt>
      <trkpt lat="42.69938793964684009552001953125" lon="-0.097892917692661285400390625">
        <ele>1701.5999755859375</ele>
        <time>2021-08-21T11:35:59.000Z</time>
      </trkpt>
      <trkpt lat="42.699334211647510528564453125" lon="-0.09785494767129421234130859375">
        <ele>1703.4000244140625</ele>
        <time>2021-08-21T11:36:08.000Z</time>
      </trkpt>
      <trkpt lat="42.69932448863983154296875" lon="-0.0978536903858184814453125">
        <ele>1703.800048828125</ele>
        <time>2021-08-21T11:36:10.000Z</time>
      </trkpt>
      <trkpt lat="42.699315436184406280517578125" lon="-0.09785746224224567413330078125">
        <ele>1704</ele>
        <time>2021-08-21T11:36:12.000Z</time>
      </trkpt>
      <trkpt lat="42.6992998458445072174072265625" lon="-0.09786467067897319793701171875">
        <ele>1704.199951171875</ele>
        <time>2021-08-21T11:36:15.000Z</time>
      </trkpt>
      <trkpt lat="42.6992696709930896759033203125" lon="-0.097857378423213958740234375">
        <ele>1705.199951171875</ele>
        <time>2021-08-21T11:36:19.000Z</time>
      </trkpt>
      <trkpt lat="42.6992636360228061676025390625" lon="-0.0978548638522624969482421875">
        <ele>1705.5999755859375</ele>
        <time>2021-08-21T11:36:20.000Z</time>
      </trkpt>
      <trkpt lat="42.69926439039409160614013671875" lon="-0.09785327129065990447998046875">
        <ele>1705.5999755859375</ele>
        <time>2021-08-21T11:36:21.000Z</time>
      </trkpt>
      <trkpt lat="42.6992626301944255828857421875" lon="-0.0978511758148670196533203125">
        <ele>1705.800048828125</ele>
        <time>2021-08-21T11:36:22.000Z</time>
      </trkpt>
      <trkpt lat="42.6992453634738922119140625" lon="-0.0978434644639492034912109375">
        <ele>1706.800048828125</ele>
        <time>2021-08-21T11:36:26.000Z</time>
      </trkpt>
      <trkpt lat="42.6992455311119556427001953125" lon="-0.09783868677914142608642578125">
        <ele>1706.800048828125</ele>
        <time>2021-08-21T11:36:29.000Z</time>
      </trkpt>
      <trkpt lat="42.69922055304050445556640625" lon="-0.097828209400177001953125">
        <ele>1708.199951171875</ele>
        <time>2021-08-21T11:36:35.000Z</time>
      </trkpt>
      <trkpt lat="42.69922231324017047882080078125" lon="-0.09782644920051097869873046875">
        <ele>1708.199951171875</ele>
        <time>2021-08-21T11:36:36.000Z</time>
      </trkpt>
      <trkpt lat="42.6992109976708889007568359375" lon="-0.0978236831724643707275390625">
        <ele>1708.800048828125</ele>
        <time>2021-08-21T11:36:39.000Z</time>
      </trkpt>
      <trkpt lat="42.69916213117539882659912109375" lon="-0.09780616499483585357666015625">
        <ele>1711</ele>
        <time>2021-08-21T11:36:46.000Z</time>
      </trkpt>
      <trkpt lat="42.6991194672882556915283203125" lon="-0.0977754034101963043212890625">
        <ele>1713.199951171875</ele>
        <time>2021-08-21T11:36:52.000Z</time>
      </trkpt>
      <trkpt lat="42.699109576642513275146484375" lon="-0.0977556221187114715576171875">
        <ele>1714</ele>
        <time>2021-08-21T11:36:55.000Z</time>
      </trkpt>
      <trkpt lat="42.6991077326238155364990234375" lon="-0.0977489165961742401123046875">
        <ele>1714.199951171875</ele>
        <time>2021-08-21T11:36:56.000Z</time>
      </trkpt>
      <trkpt lat="42.6991010271012783050537109375" lon="-0.09770340286195278167724609375">
        <ele>1715.800048828125</ele>
        <time>2021-08-21T11:37:03.000Z</time>
      </trkpt>
      <trkpt lat="42.6991045475006103515625" lon="-0.09767792187631130218505859375">
        <ele>1716.5999755859375</ele>
        <time>2021-08-21T11:37:08.000Z</time>
      </trkpt>
      <trkpt lat="42.6991020329296588897705078125" lon="-0.0976739823818206787109375">
        <ele>1716.5999755859375</ele>
        <time>2021-08-21T11:37:09.000Z</time>
      </trkpt>
      <trkpt lat="42.699102200567722320556640625" lon="-0.097667276859283447265625">
        <ele>1716.800048828125</ele>
        <time>2021-08-21T11:37:10.000Z</time>
      </trkpt>
      <trkpt lat="42.6991851814091205596923828125" lon="-0.0976282171905040740966796875">
        <ele>1715.5999755859375</ele>
        <time>2021-08-21T11:37:24.000Z</time>
      </trkpt>
      <trkpt lat="42.69920186139643192291259765625" lon="-0.09761924855411052703857421875">
        <ele>1715.4000244140625</ele>
        <time>2021-08-21T11:37:29.000Z</time>
      </trkpt>
      <trkpt lat="42.6992109976708889007568359375" lon="-0.097605921328067779541015625">
        <ele>1715.4000244140625</ele>
        <time>2021-08-21T11:37:33.000Z</time>
      </trkpt>
      <trkpt lat="42.69924092106521129608154296875" lon="-0.0975264608860015869140625">
        <ele>1716.4000244140625</ele>
        <time>2021-08-21T11:37:45.000Z</time>
      </trkpt>
      <trkpt lat="42.6992545835673809051513671875" lon="-0.09750525467097759246826171875">
        <ele>1716.4000244140625</ele>
        <time>2021-08-21T11:37:48.000Z</time>
      </trkpt>
      <trkpt lat="42.699283249676227569580078125" lon="-0.09737567044794559478759765625">
        <ele>1719.199951171875</ele>
        <time>2021-08-21T11:37:59.000Z</time>
      </trkpt>
      <trkpt lat="42.6993152685463428497314453125" lon="-0.097164697945117950439453125">
        <ele>1724</ele>
        <time>2021-08-21T11:38:22.000Z</time>
      </trkpt>
      <trkpt lat="42.69932507537305355072021484375" lon="-0.09711700491607189178466796875">
        <ele>1725</ele>
        <time>2021-08-21T11:38:30.000Z</time>
      </trkpt>
      <trkpt lat="42.6993231475353240966796875" lon="-0.09707358665764331817626953125">
        <ele>1726.199951171875</ele>
        <time>2021-08-21T11:38:36.000Z</time>
      </trkpt>
      <trkpt lat="42.699316777288913726806640625" lon="-0.09705028496682643890380859375">
        <ele>1727.199951171875</ele>
        <time>2021-08-21T11:38:39.000Z</time>
      </trkpt>
      <trkpt lat="42.69931753166019916534423828125" lon="-0.09704508818686008453369140625">
        <ele>1727.199951171875</ele>
        <time>2021-08-21T11:38:40.000Z</time>
      </trkpt>
      <trkpt lat="42.69932406954467296600341796875" lon="-0.09704072959721088409423828125">
        <ele>1727</ele>
        <time>2021-08-21T11:38:41.000Z</time>
      </trkpt>
      <trkpt lat="42.6993290148675441741943359375" lon="-0.09702798910439014434814453125">
        <ele>1727.199951171875</ele>
        <time>2021-08-21T11:38:43.000Z</time>
      </trkpt>
      <trkpt lat="42.69932876341044902801513671875" lon="-0.09701893664896488189697265625">
        <ele>1727.4000244140625</ele>
        <time>2021-08-21T11:38:44.000Z</time>
      </trkpt>
      <trkpt lat="42.69933345727622509002685546875" lon="-0.0970103032886981964111328125">
        <ele>1727.4000244140625</ele>
        <time>2021-08-21T11:38:46.000Z</time>
      </trkpt>
      <trkpt lat="42.699342928826808929443359375" lon="-0.096966214478015899658203125">
        <ele>1728</ele>
        <time>2021-08-21T11:38:54.000Z</time>
      </trkpt>
      <trkpt lat="42.69935759715735912322998046875" lon="-0.09690376929938793182373046875">
        <ele>1729</ele>
        <time>2021-08-21T11:39:07.000Z</time>
      </trkpt>
      <trkpt lat="42.6993598602712154388427734375" lon="-0.0968979857861995697021484375">
        <ele>1729</ele>
        <time>2021-08-21T11:39:08.000Z</time>
      </trkpt>
      <trkpt lat="42.69936111755669116973876953125" lon="-0.09689404629170894622802734375">
        <ele>1729</ele>
        <time>2021-08-21T11:39:09.000Z</time>
      </trkpt>
      <trkpt lat="42.69937017001211643218994140625" lon="-0.09685314260423183441162109375">
        <ele>1729.800048828125</ele>
        <time>2021-08-21T11:39:18.000Z</time>
      </trkpt>
      <trkpt lat="42.69937000237405300140380859375" lon="-0.09684978984296321868896484375">
        <ele>1729.800048828125</ele>
        <time>2021-08-21T11:39:19.000Z</time>
      </trkpt>
      <trkpt lat="42.69936631433665752410888671875" lon="-0.09684140793979167938232421875">
        <ele>1730.199951171875</ele>
        <time>2021-08-21T11:39:20.000Z</time>
      </trkpt>
      <trkpt lat="42.6993638835847377777099609375" lon="-0.09683470241725444793701171875">
        <ele>1730.5999755859375</ele>
        <time>2021-08-21T11:39:21.000Z</time>
      </trkpt>
      <trkpt lat="42.6993598602712154388427734375" lon="-0.096830762922763824462890625">
        <ele>1730.800048828125</ele>
        <time>2021-08-21T11:39:22.000Z</time>
      </trkpt>
      <trkpt lat="42.6993580162525177001953125" lon="-0.09682598523795604705810546875">
        <ele>1731</ele>
        <time>2021-08-21T11:39:23.000Z</time>
      </trkpt>
      <trkpt lat="42.69935575313866138458251953125" lon="-0.09682145901024341583251953125">
        <ele>1731.199951171875</ele>
        <time>2021-08-21T11:39:25.000Z</time>
      </trkpt>
      <trkpt lat="42.69933312200009822845458984375" lon="-0.096803605556488037109375">
        <ele>1732.800048828125</ele>
        <time>2021-08-21T11:39:36.000Z</time>
      </trkpt>
      <trkpt lat="42.69932507537305355072021484375" lon="-0.0967950560152530670166015625">
        <ele>1733.4000244140625</ele>
        <time>2021-08-21T11:39:41.000Z</time>
      </trkpt>
      <trkpt lat="42.69932960160076618194580078125" lon="-0.09677368216216564178466796875">
        <ele>1733.5999755859375</ele>
        <time>2021-08-21T11:39:50.000Z</time>
      </trkpt>
      <trkpt lat="42.69933178089559078216552734375" lon="-0.096763037145137786865234375">
        <ele>1733.800048828125</ele>
        <time>2021-08-21T11:39:52.000Z</time>
      </trkpt>
      <trkpt lat="42.69932390190660953521728515625" lon="-0.0967216305434703826904296875">
        <ele>1735.4000244140625</ele>
        <time>2021-08-21T11:39:58.000Z</time>
      </trkpt>
      <trkpt lat="42.6993390731513500213623046875" lon="-0.09667494334280490875244140625">
        <ele>1735.800048828125</ele>
        <time>2021-08-21T11:40:05.000Z</time>
      </trkpt>
      <trkpt lat="42.69933630712330341339111328125" lon="-0.09662322700023651123046875">
        <ele>1737.4000244140625</ele>
        <time>2021-08-21T11:40:12.000Z</time>
      </trkpt>
      <trkpt lat="42.6993660628795623779296875" lon="-0.09650495834648609161376953125">
        <ele>1739.199951171875</ele>
        <time>2021-08-21T11:40:30.000Z</time>
      </trkpt>
      <trkpt lat="42.6993669010698795318603515625" lon="-0.09650051593780517578125">
        <ele>1739.199951171875</ele>
        <time>2021-08-21T11:40:31.000Z</time>
      </trkpt>
      <trkpt lat="42.6993679068982601165771484375" lon="-0.0964936427772045135498046875">
        <ele>1739.4000244140625</ele>
        <time>2021-08-21T11:40:32.000Z</time>
      </trkpt>
      <trkpt lat="42.69936631433665752410888671875" lon="-0.096483416855335235595703125">
        <ele>1739.5999755859375</ele>
        <time>2021-08-21T11:40:33.000Z</time>
      </trkpt>
      <trkpt lat="42.6993658952414989471435546875" lon="-0.09645299054682254791259765625">
        <ele>1740.4000244140625</ele>
        <time>2021-08-21T11:40:37.000Z</time>
      </trkpt>
      <trkpt lat="42.69936128519475460052490234375" lon="-0.09641879238188266754150390625">
        <ele>1741.5999755859375</ele>
        <time>2021-08-21T11:40:40.000Z</time>
      </trkpt>
      <trkpt lat="42.69933898933231830596923828125" lon="-0.09636011905968189239501953125">
        <ele>1744.199951171875</ele>
        <time>2021-08-21T11:40:47.000Z</time>
      </trkpt>
      <trkpt lat="42.69933521747589111328125" lon="-0.0963467918336391448974609375">
        <ele>1744.5999755859375</ele>
        <time>2021-08-21T11:40:49.000Z</time>
      </trkpt>
      <trkpt lat="42.699328847229480743408203125" lon="-0.09627110324800014495849609375">
        <ele>1747</ele>
        <time>2021-08-21T11:41:00.000Z</time>
      </trkpt>
      <trkpt lat="42.69933563657104969024658203125" lon="-0.09624771773815155029296875">
        <ele>1747.199951171875</ele>
        <time>2021-08-21T11:41:02.000Z</time>
      </trkpt>
      <trkpt lat="42.6993420906364917755126953125" lon="-0.096221230924129486083984375">
        <ele>1747.4000244140625</ele>
        <time>2021-08-21T11:41:05.000Z</time>
      </trkpt>
      <trkpt lat="42.69938643090426921844482421875" lon="-0.09611754678189754486083984375">
        <ele>1747.4000244140625</ele>
        <time>2021-08-21T11:41:17.000Z</time>
      </trkpt>
      <trkpt lat="42.6993860118091106414794921875" lon="-0.0961030460894107818603515625">
        <ele>1747.5999755859375</ele>
        <time>2021-08-21T11:41:19.000Z</time>
      </trkpt>
      <trkpt lat="42.69938844256103038787841796875" lon="-0.0960943289101123809814453125">
        <ele>1747.5999755859375</ele>
        <time>2021-08-21T11:41:20.000Z</time>
      </trkpt>
      <trkpt lat="42.6993907056748867034912109375" lon="-0.09608351625502109527587890625">
        <ele>1747.800048828125</ele>
        <time>2021-08-21T11:41:21.000Z</time>
      </trkpt>
      <trkpt lat="42.69940839149057865142822265625" lon="-0.0960376672446727752685546875">
        <ele>1748</ele>
        <time>2021-08-21T11:41:26.000Z</time>
      </trkpt>
      <trkpt lat="42.69943353720009326934814453125" lon="-0.09597639553248882293701171875">
        <ele>1748.199951171875</ele>
        <time>2021-08-21T11:41:34.000Z</time>
      </trkpt>
      <trkpt lat="42.69943688996136188507080078125" lon="-0.095857121050357818603515625">
        <ele>1750.800048828125</ele>
        <time>2021-08-21T11:41:49.000Z</time>
      </trkpt>
      <trkpt lat="42.69942029379308223724365234375" lon="-0.09582526981830596923828125">
        <ele>1752.4000244140625</ele>
        <time>2021-08-21T11:41:54.000Z</time>
      </trkpt>
      <trkpt lat="42.69944359548389911651611328125" lon="-0.09573902003467082977294921875">
        <ele>1753.4000244140625</ele>
        <time>2021-08-21T11:42:06.000Z</time>
      </trkpt>
      <trkpt lat="42.69946304149925708770751953125" lon="-0.0956004671752452850341796875">
        <ele>1755.800048828125</ele>
        <time>2021-08-21T11:42:23.000Z</time>
      </trkpt>
      <trkpt lat="42.699430100619792938232421875" lon="-0.09544565342366695404052734375">
        <ele>1761</ele>
        <time>2021-08-21T11:42:40.000Z</time>
      </trkpt>
      <trkpt lat="42.699430100619792938232421875" lon="-0.09541531093418598175048828125">
        <ele>1761.5999755859375</ele>
        <time>2021-08-21T11:42:43.000Z</time>
      </trkpt>
      <trkpt lat="42.6994292624294757843017578125" lon="-0.0953865610063076019287109375">
        <ele>1762</ele>
        <time>2021-08-21T11:42:46.000Z</time>
      </trkpt>
      <trkpt lat="42.6994295977056026458740234375" lon="-0.09537708945572376251220703125">
        <ele>1762.199951171875</ele>
        <time>2021-08-21T11:42:47.000Z</time>
      </trkpt>
      <trkpt lat="42.6994332857429981231689453125" lon="-0.09536619298160076141357421875">
        <ele>1762.199951171875</ele>
        <time>2021-08-21T11:42:48.000Z</time>
      </trkpt>
      <trkpt lat="42.6994192041456699371337890625" lon="-0.09532663039863109588623046875">
        <ele>1763.4000244140625</ele>
        <time>2021-08-21T11:42:53.000Z</time>
      </trkpt>
      <trkpt lat="42.6994171924889087677001953125" lon="-0.09530617855489253997802734375">
        <ele>1763.800048828125</ele>
        <time>2021-08-21T11:42:55.000Z</time>
      </trkpt>
      <trkpt lat="42.699389196932315826416015625" lon="-0.095187239348888397216796875">
        <ele>1767.4000244140625</ele>
        <time>2021-08-21T11:43:07.000Z</time>
      </trkpt>
      <trkpt lat="42.699393220245838165283203125" lon="-0.09512378834187984466552734375">
        <ele>1768.800048828125</ele>
        <time>2021-08-21T11:43:14.000Z</time>
      </trkpt>
      <trkpt lat="42.6993947289884090423583984375" lon="-0.0951045937836170196533203125">
        <ele>1769.199951171875</ele>
        <time>2021-08-21T11:43:16.000Z</time>
      </trkpt>
      <trkpt lat="42.69940302707254886627197265625" lon="-0.09506779722869396209716796875">
        <ele>1769.800048828125</ele>
        <time>2021-08-21T11:43:18.000Z</time>
      </trkpt>
      <trkpt lat="42.69943378865718841552734375" lon="-0.0950174219906330108642578125">
        <ele>1769</ele>
        <time>2021-08-21T11:43:24.000Z</time>
      </trkpt>
      <trkpt lat="42.69942574203014373779296875" lon="-0.09499403648078441619873046875">
        <ele>1770.199951171875</ele>
        <time>2021-08-21T11:43:27.000Z</time>
      </trkpt>
      <trkpt lat="42.6994155161082744598388671875" lon="-0.0949701480567455291748046875">
        <ele>1771.4000244140625</ele>
        <time>2021-08-21T11:43:30.000Z</time>
      </trkpt>
      <trkpt lat="42.69940302707254886627197265625" lon="-0.09495061822235584259033203125">
        <ele>1772.800048828125</ele>
        <time>2021-08-21T11:43:32.000Z</time>
      </trkpt>
      <trkpt lat="42.6994170248508453369140625" lon="-0.0948256440460681915283203125">
        <ele>1775.199951171875</ele>
        <time>2021-08-21T11:43:48.000Z</time>
      </trkpt>
      <trkpt lat="42.69944158382713794708251953125" lon="-0.09484852664172649383544921875">
        <ele>1773</ele>
        <time>2021-08-21T11:44:15.000Z</time>
      </trkpt>
      <trkpt lat="42.69942733459174633026123046875" lon="-0.09484735317528247833251953125">
        <ele>1774</ele>
        <time>2021-08-21T11:44:24.000Z</time>
      </trkpt>
      <trkpt lat="42.699454240500926971435546875" lon="-0.09485254995524883270263671875">
        <ele>1772.199951171875</ele>
        <time>2021-08-21T11:44:32.000Z</time>
      </trkpt>
      <trkpt lat="42.6994544081389904022216796875" lon="-0.09485338814556598663330078125">
        <ele>1772.199951171875</ele>
        <time>2021-08-21T11:44:37.000Z</time>
      </trkpt>
      <trkpt lat="42.6994631253182888031005859375" lon="-0.09485120885074138641357421875">
        <ele>1771.5999755859375</ele>
        <time>2021-08-21T11:44:44.000Z</time>
      </trkpt>
      <trkpt lat="42.69944560714066028594970703125" lon="-0.09478616528213024139404296875">
        <ele>1774.4000244140625</ele>
        <time>2021-08-21T11:44:55.000Z</time>
      </trkpt>
      <trkpt lat="42.69944141618907451629638671875" lon="-0.09477342478930950164794921875">
        <ele>1775</ele>
        <time>2021-08-21T11:44:56.000Z</time>
      </trkpt>
      <trkpt lat="42.69942264072597026824951171875" lon="-0.09474241174757480621337890625">
        <ele>1777</ele>
        <time>2021-08-21T11:44:59.000Z</time>
      </trkpt>
      <trkpt lat="42.69937955774366855621337890625" lon="-0.0946717523038387298583984375">
        <ele>1781.5999755859375</ele>
        <time>2021-08-21T11:45:06.000Z</time>
      </trkpt>
      <trkpt lat="42.6993692480027675628662109375" lon="-0.09465909563004970550537109375">
        <ele>1782.5999755859375</ele>
        <time>2021-08-21T11:45:08.000Z</time>
      </trkpt>
      <trkpt lat="42.69935776479542255401611328125" lon="-0.0946350395679473876953125">
        <ele>1784</ele>
        <time>2021-08-21T11:45:11.000Z</time>
      </trkpt>
      <trkpt lat="42.6993568427860736846923828125" lon="-0.0946274958550930023193359375">
        <ele>1784.199951171875</ele>
        <time>2021-08-21T11:45:12.000Z</time>
      </trkpt>
      <trkpt lat="42.69935340620577335357666015625" lon="-0.09461433626711368560791015625">
        <ele>1784.800048828125</ele>
        <time>2021-08-21T11:45:14.000Z</time>
      </trkpt>
      <trkpt lat="42.69935466349124908447265625" lon="-0.0945989973843097686767578125">
        <ele>1785.199951171875</ele>
        <time>2021-08-21T11:45:16.000Z</time>
      </trkpt>
      <trkpt lat="42.6993487961590290069580078125" lon="-0.0945037789642810821533203125">
        <ele>1788</ele>
        <time>2021-08-21T11:45:28.000Z</time>
      </trkpt>
      <trkpt lat="42.69934636540710926055908203125" lon="-0.09444418363273143768310546875">
        <ele>1789.800048828125</ele>
        <time>2021-08-21T11:45:34.000Z</time>
      </trkpt>
      <trkpt lat="42.69933714531362056732177734375" lon="-0.0943904556334018707275390625">
        <ele>1792</ele>
        <time>2021-08-21T11:45:39.000Z</time>
      </trkpt>
      <trkpt lat="42.69934016279876232147216796875" lon="-0.09438266046345233917236328125">
        <ele>1792</ele>
        <time>2021-08-21T11:45:40.000Z</time>
      </trkpt>
      <trkpt lat="42.69934125244617462158203125" lon="-0.0943589396774768829345703125">
        <ele>1792.800048828125</ele>
        <time>2021-08-21T11:45:42.000Z</time>
      </trkpt>
      <trkpt lat="42.69933965988457202911376953125" lon="-0.0943321175873279571533203125">
        <ele>1793.5999755859375</ele>
        <time>2021-08-21T11:45:45.000Z</time>
      </trkpt>
      <trkpt lat="42.69933764822781085968017578125" lon="-0.09431879036128520965576171875">
        <ele>1794.199951171875</ele>
        <time>2021-08-21T11:45:46.000Z</time>
      </trkpt>
      <trkpt lat="42.69931979477405548095703125" lon="-0.094267241656780242919921875">
        <ele>1796.800048828125</ele>
        <time>2021-08-21T11:45:52.000Z</time>
      </trkpt>
      <trkpt lat="42.699281908571720123291015625" lon="-0.093895085155963897705078125">
        <ele>1810.5999755859375</ele>
        <time>2021-08-21T11:46:42.000Z</time>
      </trkpt>
      <trkpt lat="42.69932339899241924285888671875" lon="-0.09375326335430145263671875">
        <ele>1812</ele>
        <time>2021-08-21T11:47:02.000Z</time>
      </trkpt>
      <trkpt lat="42.69939665682613849639892578125" lon="-0.093485377728939056396484375">
        <ele>1814.800048828125</ele>
        <time>2021-08-21T11:47:42.000Z</time>
      </trkpt>
      <trkpt lat="42.69940990023314952850341796875" lon="-0.09343986399471759796142578125">
        <ele>1815.199951171875</ele>
        <time>2021-08-21T11:47:49.000Z</time>
      </trkpt>
      <trkpt lat="42.69942850805819034576416015625" lon="-0.09341287426650524139404296875">
        <ele>1814.5999755859375</ele>
        <time>2021-08-21T11:47:52.000Z</time>
      </trkpt>
      <trkpt lat="42.69950796850025653839111328125" lon="-0.09331338107585906982421875">
        <ele>1812.199951171875</ele>
        <time>2021-08-21T11:48:28.000Z</time>
      </trkpt>
      <trkpt lat="42.69954233430325984954833984375" lon="-0.09324003942310810089111328125">
        <ele>1812</ele>
        <time>2021-08-21T11:48:36.000Z</time>
      </trkpt>
      <trkpt lat="42.6995355449616909027099609375" lon="-0.0931784324347972869873046875">
        <ele>1814</ele>
        <time>2021-08-21T11:48:40.000Z</time>
      </trkpt>
      <trkpt lat="42.69949187524616718292236328125" lon="-0.09308195672929286956787109375">
        <ele>1819.5999755859375</ele>
        <time>2021-08-21T11:48:49.000Z</time>
      </trkpt>
      <trkpt lat="42.699489779770374298095703125" lon="-0.09303736500442028045654296875">
        <ele>1821</ele>
        <time>2021-08-21T11:48:57.000Z</time>
      </trkpt>
      <trkpt lat="42.6995824836194515228271484375" lon="-0.09296896867454051971435546875">
        <ele>1816.800048828125</ele>
        <time>2021-08-21T11:49:23.000Z</time>
      </trkpt>
      <trkpt lat="42.6996344514191150665283203125" lon="-0.09281792677938938140869140625">
        <ele>1818.199951171875</ele>
        <time>2021-08-21T11:49:51.000Z</time>
      </trkpt>
      <trkpt lat="42.69958558492362499237060546875" lon="-0.09278138168156147003173828125">
        <ele>1822.5999755859375</ele>
        <time>2021-08-21T11:50:16.000Z</time>
      </trkpt>
      <trkpt lat="42.699580974876880645751953125" lon="-0.09268985129892826080322265625">
        <ele>1826</ele>
        <time>2021-08-21T11:50:24.000Z</time>
      </trkpt>
      <trkpt lat="42.6996056176722049713134765625" lon="-0.09252212941646575927734375">
        <ele>1830</ele>
        <time>2021-08-21T11:50:39.000Z</time>
      </trkpt>
      <trkpt lat="42.699713744223117828369140625" lon="-0.0921823270618915557861328125">
        <ele>1831.4000244140625</ele>
        <time>2021-08-21T11:51:05.000Z</time>
      </trkpt>
      <trkpt lat="42.699726484715938568115234375" lon="-0.092163719236850738525390625">
        <ele>1831.199951171875</ele>
        <time>2021-08-21T11:51:07.000Z</time>
      </trkpt>
      <trkpt lat="42.69995279610157012939453125" lon="-0.09175443090498447418212890625">
        <ele>1833.5999755859375</ele>
        <time>2021-08-21T11:52:06.000Z</time>
      </trkpt>
      <trkpt lat="42.699970565736293792724609375" lon="-0.09173967875540256500244140625">
        <ele>1833.199951171875</ele>
        <time>2021-08-21T11:52:09.000Z</time>
      </trkpt>
      <trkpt lat="42.70004407502710819244384765625" lon="-0.09161931462585926055908203125">
        <ele>1834</ele>
        <time>2021-08-21T11:52:31.000Z</time>
      </trkpt>
      <trkpt lat="42.70007039420306682586669921875" lon="-0.09156994521617889404296875">
        <ele>1835.199951171875</ele>
        <time>2021-08-21T11:52:36.000Z</time>
      </trkpt>
      <trkpt lat="42.7001343481242656707763671875" lon="-0.091519989073276519775390625">
        <ele>1835.199951171875</ele>
        <time>2021-08-21T11:52:47.000Z</time>
      </trkpt>
      <trkpt lat="42.70022193901240825653076171875" lon="-0.0912207551300525665283203125">
        <ele>1844</ele>
        <time>2021-08-21T11:53:23.000Z</time>
      </trkpt>
      <trkpt lat="42.7002860605716705322265625" lon="-0.0911414623260498046875">
        <ele>1844.800048828125</ele>
        <time>2021-08-21T11:53:34.000Z</time>
      </trkpt>
      <trkpt lat="42.700315900146961212158203125" lon="-0.09105219505727291107177734375">
        <ele>1846.800048828125</ele>
        <time>2021-08-21T11:53:45.000Z</time>
      </trkpt>
      <trkpt lat="42.7003328315913677215576171875" lon="-0.09095144458115100860595703125">
        <ele>1849.5999755859375</ele>
        <time>2021-08-21T11:53:56.000Z</time>
      </trkpt>
      <trkpt lat="42.70032151602208614349365234375" lon="-0.09091808460652828216552734375">
        <ele>1851.4000244140625</ele>
        <time>2021-08-21T11:54:00.000Z</time>
      </trkpt>
      <trkpt lat="42.7002959512174129486083984375" lon="-0.09086024947464466094970703125">
        <ele>1854.800048828125</ele>
        <time>2021-08-21T11:54:08.000Z</time>
      </trkpt>
      <trkpt lat="42.70030257292091846466064453125" lon="-0.0908154062926769256591796875">
        <ele>1856.4000244140625</ele>
        <time>2021-08-21T11:54:24.000Z</time>
      </trkpt>
      <trkpt lat="42.7003385312855243682861328125" lon="-0.09071775712072849273681640625">
        <ele>1859</ele>
        <time>2021-08-21T11:54:41.000Z</time>
      </trkpt>
      <trkpt lat="42.70037750713527202606201171875" lon="-0.090615749359130859375">
        <ele>1861.5999755859375</ele>
        <time>2021-08-21T11:54:54.000Z</time>
      </trkpt>
      <trkpt lat="42.7003935165703296661376953125" lon="-0.09058062918484210968017578125">
        <ele>1862.5999755859375</ele>
        <time>2021-08-21T11:54:57.000Z</time>
      </trkpt>
      <trkpt lat="42.70045302808284759521484375" lon="-0.0905206985771656036376953125">
        <ele>1862.800048828125</ele>
        <time>2021-08-21T11:55:07.000Z</time>
      </trkpt>
      <trkpt lat="42.7004639245569705963134765625" lon="-0.09049848653376102447509765625">
        <ele>1863.199951171875</ele>
        <time>2021-08-21T11:55:10.000Z</time>
      </trkpt>
      <trkpt lat="42.7004877291619777679443359375" lon="-0.090465210378170013427734375">
        <ele>1863.800048828125</ele>
        <time>2021-08-21T11:55:14.000Z</time>
      </trkpt>
      <trkpt lat="42.70062276162207126617431640625" lon="-0.09017243050038814544677734375">
        <ele>1868.800048828125</ele>
        <time>2021-08-21T11:55:53.000Z</time>
      </trkpt>
      <trkpt lat="42.70077045075595378875732421875" lon="-0.08970539085566997528076171875">
        <ele>1879</ele>
        <time>2021-08-21T11:56:56.000Z</time>
      </trkpt>
      <trkpt lat="42.7009178884327411651611328125" lon="-0.089482851326465606689453125">
        <ele>1881.5999755859375</ele>
        <time>2021-08-21T11:57:32.000Z</time>
      </trkpt>
      <trkpt lat="42.7009458839893341064453125" lon="-0.08941319771111011505126953125">
        <ele>1883.199951171875</ele>
        <time>2021-08-21T11:57:40.000Z</time>
      </trkpt>
      <trkpt lat="42.70101235248148441314697265625" lon="-0.08924488909542560577392578125">
        <ele>1887.199951171875</ele>
        <time>2021-08-21T11:58:03.000Z</time>
      </trkpt>
      <trkpt lat="42.70107664167881011962890625" lon="-0.08919778279960155487060546875">
        <ele>1886.800048828125</ele>
        <time>2021-08-21T11:58:29.000Z</time>
      </trkpt>
      <trkpt lat="42.70102324895560741424560546875" lon="-0.0891782529652118682861328125">
        <ele>1889.4000244140625</ele>
        <time>2021-08-21T11:58:35.000Z</time>
      </trkpt>
      <trkpt lat="42.7012176252901554107666015625" lon="-0.0889180786907672882080078125">
        <ele>1892.5999755859375</ele>
        <time>2021-08-21T11:59:25.000Z</time>
      </trkpt>
      <trkpt lat="42.70125190727412700653076171875" lon="-0.08886854164302349090576171875">
        <ele>1893.199951171875</ele>
        <time>2021-08-21T11:59:32.000Z</time>
      </trkpt>
      <trkpt lat="42.7011502347886562347412109375" lon="-0.08875094354152679443359375">
        <ele>1900.800048828125</ele>
        <time>2021-08-21T11:59:58.000Z</time>
      </trkpt>
      <trkpt lat="42.7010851912200450897216796875" lon="-0.08877449668943881988525390625">
        <ele>1902.199951171875</ele>
        <time>2021-08-21T12:00:07.000Z</time>
      </trkpt>
      <trkpt lat="42.70099240355193614959716796875" lon="-0.08881129324436187744140625">
        <ele>1904</ele>
        <time>2021-08-21T12:00:31.000Z</time>
      </trkpt>
      <trkpt lat="42.7009554393589496612548828125" lon="-0.088808946311473846435546875">
        <ele>1905.4000244140625</ele>
        <time>2021-08-21T12:00:34.000Z</time>
      </trkpt>
      <trkpt lat="42.700938172638416290283203125" lon="-0.08871045894920825958251953125">
        <ele>1908.800048828125</ele>
        <time>2021-08-21T12:00:56.000Z</time>
      </trkpt>
      <trkpt lat="42.701007910072803497314453125" lon="-0.08867315948009490966796875">
        <ele>1907.199951171875</ele>
        <time>2021-08-21T12:01:06.000Z</time>
      </trkpt>
      <trkpt lat="42.7009986899793148040771484375" lon="-0.08858908899128437042236328125">
        <ele>1909.800048828125</ele>
        <time>2021-08-21T12:01:21.000Z</time>
      </trkpt>
      <trkpt lat="42.7009718678891658782958984375" lon="-0.088582299649715423583984375">
        <ele>1911.199951171875</ele>
        <time>2021-08-21T12:01:23.000Z</time>
      </trkpt>
      <trkpt lat="42.70086281932890415191650390625" lon="-0.0885452516376972198486328125">
        <ele>1917.5999755859375</ele>
        <time>2021-08-21T12:01:38.000Z</time>
      </trkpt>
      <trkpt lat="42.700942195951938629150390625" lon="-0.088481046259403228759765625">
        <ele>1916</ele>
        <time>2021-08-21T12:01:47.000Z</time>
      </trkpt>
      <trkpt lat="42.7010570280253887176513671875" lon="-0.08835942484438419342041015625">
        <ele>1914.800048828125</ele>
        <time>2021-08-21T12:02:05.000Z</time>
      </trkpt>
      <trkpt lat="42.7010855264961719512939453125" lon="-0.08832606486976146697998046875">
        <ele>1914.4000244140625</ele>
        <time>2021-08-21T12:02:09.000Z</time>
      </trkpt>
      <trkpt lat="42.7011577785015106201171875" lon="-0.0883186049759387969970703125">
        <ele>1911.4000244140625</ele>
        <time>2021-08-21T12:02:19.000Z</time>
      </trkpt>
      <trkpt lat="42.70116574130952358245849609375" lon="-0.08832355029881000518798828125">
        <ele>1910.800048828125</ele>
        <time>2021-08-21T12:02:20.000Z</time>
      </trkpt>
      <trkpt lat="42.70132013596594333648681640625" lon="-0.088318772614002227783203125">
        <ele>1903.800048828125</ele>
        <time>2021-08-21T12:02:46.000Z</time>
      </trkpt>
      <trkpt lat="42.70130991004407405853271484375" lon="-0.0883531384170055389404296875">
        <ele>1903.5999755859375</ele>
        <time>2021-08-21T12:03:18.000Z</time>
      </trkpt>
      <trkpt lat="42.70129750482738018035888671875" lon="-0.08835959248244762420654296875">
        <ele>1903.800048828125</ele>
        <time>2021-08-21T12:03:28.000Z</time>
      </trkpt>
      <trkpt lat="42.70129566080868244171142578125" lon="-0.08836043067276477813720703125">
        <ele>1903.800048828125</ele>
        <time>2021-08-21T12:03:29.000Z</time>
      </trkpt>
      <trkpt lat="42.7012910507619380950927734375" lon="-0.08836328051984310150146484375">
        <ele>1904</ele>
        <time>2021-08-21T12:03:30.000Z</time>
      </trkpt>
      <trkpt lat="42.701261043548583984375" lon="-0.08832505904138088226318359375">
        <ele>1906.4000244140625</ele>
        <time>2021-08-21T12:04:23.000Z</time>
      </trkpt>
      <trkpt lat="42.70126900635659694671630859375" lon="-0.08829605765640735626220703125">
        <ele>1907</ele>
        <time>2021-08-21T12:04:25.000Z</time>
      </trkpt>
      <trkpt lat="42.7013882808387279510498046875" lon="-0.088107883930206298828125">
        <ele>1907.5999755859375</ele>
        <time>2021-08-21T12:04:39.000Z</time>
      </trkpt>
      <trkpt lat="42.70142088644206523895263671875" lon="-0.0880557484924793243408203125">
        <ele>1907.800048828125</ele>
        <time>2021-08-21T12:04:44.000Z</time>
      </trkpt>
      <trkpt lat="42.701435722410678863525390625" lon="-0.08803722448647022247314453125">
        <ele>1907.800048828125</ele>
        <time>2021-08-21T12:04:46.000Z</time>
      </trkpt>
      <trkpt lat="42.7014422602951526641845703125" lon="-0.08802649565041065216064453125">
        <ele>1907.800048828125</ele>
        <time>2021-08-21T12:04:47.000Z</time>
      </trkpt>
      <trkpt lat="42.7014476247131824493408203125" lon="-0.08801811374723911285400390625">
        <ele>1907.800048828125</ele>
        <time>2021-08-21T12:04:48.000Z</time>
      </trkpt>
      <trkpt lat="42.70145122893154621124267578125" lon="-0.0879722647368907928466796875">
        <ele>1909.199951171875</ele>
        <time>2021-08-21T12:04:57.000Z</time>
      </trkpt>
      <trkpt lat="42.70145005546510219573974609375" lon="-0.08796983398497104644775390625">
        <ele>1909.4000244140625</ele>
        <time>2021-08-21T12:05:01.000Z</time>
      </trkpt>
      <trkpt lat="42.701450474560260772705078125" lon="-0.087970085442066192626953125">
        <ele>1909.4000244140625</ele>
        <time>2021-08-21T12:05:02.000Z</time>
      </trkpt>
      <trkpt lat="42.7014513127505779266357421875" lon="-0.08796027861535549163818359375">
        <ele>1909.5999755859375</ele>
        <time>2021-08-21T12:05:05.000Z</time>
      </trkpt>
      <trkpt lat="42.70147469826042652130126953125" lon="-0.08787360973656177520751953125">
        <ele>1910.4000244140625</ele>
        <time>2021-08-21T12:05:14.000Z</time>
      </trkpt>
      <trkpt lat="42.7014761231839656829833984375" lon="-0.0877640582621097564697265625">
        <ele>1912</ele>
        <time>2021-08-21T12:05:25.000Z</time>
      </trkpt>
      <trkpt lat="42.7016129158437252044677734375" lon="-0.08731386624276638031005859375">
        <ele>1912.800048828125</ele>
        <time>2021-08-21T12:06:04.000Z</time>
      </trkpt>
      <trkpt lat="42.7016420848667621612548828125" lon="-0.08718377910554409027099609375">
        <ele>1913.4000244140625</ele>
        <time>2021-08-21T12:06:18.000Z</time>
      </trkpt>
      <trkpt lat="42.7016685716807842254638671875" lon="-0.0870663486421108245849609375">
        <ele>1914.800048828125</ele>
        <time>2021-08-21T12:06:34.000Z</time>
      </trkpt>
      <trkpt lat="42.7016839943826198577880859375" lon="-0.0870485790073871612548828125">
        <ele>1914.4000244140625</ele>
        <time>2021-08-21T12:06:37.000Z</time>
      </trkpt>
      <trkpt lat="42.70173512399196624755859375" lon="-0.08689259178936481475830078125">
        <ele>1916.5999755859375</ele>
        <time>2021-08-21T12:06:50.000Z</time>
      </trkpt>
      <trkpt lat="42.70174878649413585662841796875" lon="-0.08682779967784881591796875">
        <ele>1918.199951171875</ele>
        <time>2021-08-21T12:06:58.000Z</time>
      </trkpt>
      <trkpt lat="42.7017684839665889739990234375" lon="-0.086745321750640869140625">
        <ele>1919.800048828125</ele>
        <time>2021-08-21T12:07:07.000Z</time>
      </trkpt>
      <trkpt lat="42.701784409582614898681640625" lon="-0.086715482175350189208984375">
        <ele>1920.199951171875</ele>
        <time>2021-08-21T12:07:10.000Z</time>
      </trkpt>
      <trkpt lat="42.7017939649522304534912109375" lon="-0.08667063899338245391845703125">
        <ele>1921.199951171875</ele>
        <time>2021-08-21T12:07:14.000Z</time>
      </trkpt>
      <trkpt lat="42.70177393220365047454833984375" lon="-0.086559243500232696533203125">
        <ele>1924.800048828125</ele>
        <time>2021-08-21T12:07:24.000Z</time>
      </trkpt>
      <trkpt lat="42.70176253281533718109130859375" lon="-0.08650886826217174530029296875">
        <ele>1926.5999755859375</ele>
        <time>2021-08-21T12:07:30.000Z</time>
      </trkpt>
      <trkpt lat="42.701748199760913848876953125" lon="-0.0864028371870517730712890625">
        <ele>1929.800048828125</ele>
        <time>2021-08-21T12:07:42.000Z</time>
      </trkpt>
      <trkpt lat="42.7017326094210147857666015625" lon="-0.08636084385216236114501953125">
        <ele>1931.4000244140625</ele>
        <time>2021-08-21T12:07:47.000Z</time>
      </trkpt>
      <trkpt lat="42.7017151750624179840087890625" lon="-0.0862838141620159149169921875">
        <ele>1934</ele>
        <time>2021-08-21T12:07:55.000Z</time>
      </trkpt>
      <trkpt lat="42.70170989446341991424560546875" lon="-0.08623410947620868682861328125">
        <ele>1935.199951171875</ele>
        <time>2021-08-21T12:08:00.000Z</time>
      </trkpt>
      <trkpt lat="42.7017295919358730316162109375" lon="-0.08618046529591083526611328125">
        <ele>1935.5999755859375</ele>
        <time>2021-08-21T12:08:03.000Z</time>
      </trkpt>
      <trkpt lat="42.7017259038984775543212890625" lon="-0.08609614335000514984130859375">
        <ele>1937.199951171875</ele>
        <time>2021-08-21T12:08:11.000Z</time>
      </trkpt>
      <trkpt lat="42.70171492360532283782958984375" lon="-0.08607083000242710113525390625">
        <ele>1937.800048828125</ele>
        <time>2021-08-21T12:08:14.000Z</time>
      </trkpt>
      <trkpt lat="42.70170100964605808258056640625" lon="-0.08597376756370067596435546875">
        <ele>1939.800048828125</ele>
        <time>2021-08-21T12:08:23.000Z</time>
      </trkpt>
      <trkpt lat="42.7017024345695972442626953125" lon="-0.08592397905886173248291015625">
        <ele>1940.5999755859375</ele>
        <time>2021-08-21T12:08:27.000Z</time>
      </trkpt>
      <trkpt lat="42.7016591839492321014404296875" lon="-0.0858016870915889739990234375">
        <ele>1944.5999755859375</ele>
        <time>2021-08-21T12:08:39.000Z</time>
      </trkpt>
      <trkpt lat="42.70165960304439067840576171875" lon="-0.08569934405386447906494140625">
        <ele>1946.4000244140625</ele>
        <time>2021-08-21T12:08:49.000Z</time>
      </trkpt>
      <trkpt lat="42.70166044123470783233642578125" lon="-0.08567553944885730743408203125">
        <ele>1946.800048828125</ele>
        <time>2021-08-21T12:08:51.000Z</time>
      </trkpt>
      <trkpt lat="42.70166915841400623321533203125" lon="-0.085584931075572967529296875">
        <ele>1947.800048828125</ele>
        <time>2021-08-21T12:09:00.000Z</time>
      </trkpt>
      <trkpt lat="42.70167653448879718780517578125" lon="-0.08554025553166866302490234375">
        <ele>1948.199951171875</ele>
        <time>2021-08-21T12:09:03.000Z</time>
      </trkpt>
      <trkpt lat="42.70167921669781208038330078125" lon="-0.08551427163183689117431640625">
        <ele>1948.5999755859375</ele>
        <time>2021-08-21T12:09:05.000Z</time>
      </trkpt>
      <trkpt lat="42.70169623196125030517578125" lon="-0.0853921473026275634765625">
        <ele>1949.4000244140625</ele>
        <time>2021-08-21T12:09:13.000Z</time>
      </trkpt>
      <trkpt lat="42.7017513848841190338134765625" lon="-0.08491312153637409210205078125">
        <ele>1953.199951171875</ele>
        <time>2021-08-21T12:09:52.000Z</time>
      </trkpt>
      <trkpt lat="42.701775692403316497802734375" lon="-0.08466032333672046661376953125">
        <ele>1955.199951171875</ele>
        <time>2021-08-21T12:10:10.000Z</time>
      </trkpt>
      <trkpt lat="42.7017728425562381744384765625" lon="-0.08465118706226348876953125">
        <ele>1955.199951171875</ele>
        <time>2021-08-21T12:10:11.000Z</time>
      </trkpt>
      <trkpt lat="42.7017715014517307281494140625" lon="-0.0846412964165210723876953125">
        <ele>1955.199951171875</ele>
        <time>2021-08-21T12:10:12.000Z</time>
      </trkpt>
      <trkpt lat="42.70177359692752361297607421875" lon="-0.08462914265692234039306640625">
        <ele>1955.4000244140625</ele>
        <time>2021-08-21T12:10:13.000Z</time>
      </trkpt>
      <trkpt lat="42.70175046287477016448974609375" lon="-0.08445764891803264617919921875">
        <ele>1957.199951171875</ele>
        <time>2021-08-21T12:10:29.000Z</time>
      </trkpt>
      <trkpt lat="42.7017188630998134613037109375" lon="-0.084390342235565185546875">
        <ele>1957.199951171875</ele>
        <time>2021-08-21T12:10:59.000Z</time>
      </trkpt>
      <trkpt lat="42.70170570351183414459228515625" lon="-0.08434139192104339599609375">
        <ele>1957.5999755859375</ele>
        <time>2021-08-21T12:11:03.000Z</time>
      </trkpt>
      <trkpt lat="42.701844759285449981689453125" lon="-0.0840703211724758148193359375">
        <ele>1962.4000244140625</ele>
        <time>2021-08-21T12:11:33.000Z</time>
      </trkpt>
      <trkpt lat="42.701847441494464874267578125" lon="-0.084070153534412384033203125">
        <ele>1962.4000244140625</ele>
        <time>2021-08-21T12:11:35.000Z</time>
      </trkpt>
      <trkpt lat="42.7018476091325283050537109375" lon="-0.08406914770603179931640625">
        <ele>1962.4000244140625</ele>
        <time>2021-08-21T12:11:37.000Z</time>
      </trkpt>
      <trkpt lat="42.701873593032360076904296875" lon="-0.08407023735344409942626953125">
        <ele>1962.800048828125</ele>
        <time>2021-08-21T12:11:51.000Z</time>
      </trkpt>
      <trkpt lat="42.7018268220126628875732421875" lon="-0.08403369225561618804931640625">
        <ele>1962.4000244140625</ele>
        <time>2021-08-21T12:12:43.000Z</time>
      </trkpt>
      <trkpt lat="42.701856829226016998291015625" lon="-0.08403117768466472625732421875">
        <ele>1962.800048828125</ele>
        <time>2021-08-21T12:12:49.000Z</time>
      </trkpt>
      <trkpt lat="42.70185875706374645233154296875" lon="-0.08404106833040714263916015625">
        <ele>1962.800048828125</ele>
        <time>2021-08-21T12:12:51.000Z</time>
      </trkpt>
      <trkpt lat="42.7018600143492221832275390625" lon="-0.0840481929481029510498046875">
        <ele>1962.800048828125</ele>
        <time>2021-08-21T12:12:52.000Z</time>
      </trkpt>
      <trkpt lat="42.70186194218695163726806640625" lon="-0.0840532220900058746337890625">
        <ele>1962.800048828125</ele>
        <time>2021-08-21T12:12:53.000Z</time>
      </trkpt>
      <trkpt lat="42.7018630318343639373779296875" lon="-0.08405716158449649810791015625">
        <ele>1962.800048828125</ele>
        <time>2021-08-21T12:12:54.000Z</time>
      </trkpt>
      <trkpt lat="42.70186060108244419097900390625" lon="-0.084063112735748291015625">
        <ele>1962.5999755859375</ele>
        <time>2021-08-21T12:12:55.000Z</time>
      </trkpt>
      <trkpt lat="42.70185708068311214447021484375" lon="-0.08406939916312694549560546875">
        <ele>1962.5999755859375</ele>
        <time>2021-08-21T12:12:56.000Z</time>
      </trkpt>
      <trkpt lat="42.70185523666441440582275390625" lon="-0.084074847400188446044921875">
        <ele>1962.4000244140625</ele>
        <time>2021-08-21T12:12:57.000Z</time>
      </trkpt>
      <trkpt lat="42.701856158673763275146484375" lon="-0.08407912217080593109130859375">
        <ele>1962.4000244140625</ele>
        <time>2021-08-21T12:12:58.000Z</time>
      </trkpt>
      <trkpt lat="42.7018546499311923980712890625" lon="-0.08408297784626483917236328125">
        <ele>1962.4000244140625</ele>
        <time>2021-08-21T12:13:00.000Z</time>
      </trkpt>
      <trkpt lat="42.70185188390314579010009765625" lon="-0.08408800698816776275634765625">
        <ele>1962.199951171875</ele>
        <time>2021-08-21T12:13:02.000Z</time>
      </trkpt>
      <trkpt lat="42.70186093635857105255126953125" lon="-0.08408792316913604736328125">
        <ele>1962.4000244140625</ele>
        <time>2021-08-21T12:13:04.000Z</time>
      </trkpt>
      <trkpt lat="42.7018650434911251068115234375" lon="-0.08408482186496257781982421875">
        <ele>1962.4000244140625</ele>
        <time>2021-08-21T12:13:06.000Z</time>
      </trkpt>
      <trkpt lat="42.70187216810882091522216796875" lon="-0.08407023735344409942626953125">
        <ele>1962.800048828125</ele>
        <time>2021-08-21T12:13:16.000Z</time>
      </trkpt>
      <trkpt lat="42.70185649394989013671875" lon="-0.0840605981647968292236328125">
        <ele>1962.5999755859375</ele>
        <time>2021-08-21T12:13:21.000Z</time>
      </trkpt>
      <trkpt lat="42.70184668712317943572998046875" lon="-0.0840592570602893829345703125">
        <ele>1962.4000244140625</ele>
        <time>2021-08-21T12:13:22.000Z</time>
      </trkpt>
      <trkpt lat="42.70182724110782146453857421875" lon="-0.0840617716312408447265625">
        <ele>1962.199951171875</ele>
        <time>2021-08-21T12:13:26.000Z</time>
      </trkpt>
      <trkpt lat="42.70182908512651920318603515625" lon="-0.08406353183090686798095703125">
        <ele>1962.199951171875</ele>
        <time>2021-08-21T12:13:28.000Z</time>
      </trkpt>
      <trkpt lat="42.70183579064905643463134765625" lon="-0.08406051434576511383056640625">
        <ele>1962.199951171875</ele>
        <time>2021-08-21T12:13:31.000Z</time>
      </trkpt>
      <trkpt lat="42.70182372070848941802978515625" lon="-0.084079205989837646484375">
        <ele>1961.800048828125</ele>
        <time>2021-08-21T12:13:35.000Z</time>
      </trkpt>
      <trkpt lat="42.70181885920464992523193359375" lon="-0.08408113382756710052490234375">
        <ele>1961.800048828125</ele>
        <time>2021-08-21T12:13:36.000Z</time>
      </trkpt>
      <trkpt lat="42.7018130756914615631103515625" lon="-0.0840832293033599853515625">
        <ele>1961.5999755859375</ele>
        <time>2021-08-21T12:13:38.000Z</time>
      </trkpt>
      <trkpt lat="42.701813913881778717041015625" lon="-0.0840931199491024017333984375">
        <ele>1961.5999755859375</ele>
        <time>2021-08-21T12:13:41.000Z</time>
      </trkpt>
      <trkpt lat="42.7018117345869541168212890625" lon="-0.084095634520053863525390625">
        <ele>1961.5999755859375</ele>
        <time>2021-08-21T12:13:55.000Z</time>
      </trkpt>
      <trkpt lat="42.70179438404738903045654296875" lon="-0.08410460315644741058349609375">
        <ele>1961.199951171875</ele>
        <time>2021-08-21T12:14:01.000Z</time>
      </trkpt>
      <trkpt lat="42.70189915783703327178955078125" lon="-0.08408725261688232421875">
        <ele>1963</ele>
        <time>2021-08-21T12:15:15.000Z</time>
      </trkpt>
      <trkpt lat="42.70187619142234325408935546875" lon="-0.08408834226429462432861328125">
        <ele>1962.5999755859375</ele>
        <time>2021-08-21T12:15:22.000Z</time>
      </trkpt>
      <trkpt lat="42.70185540430247783660888671875" lon="-0.08402816019952297210693359375">
        <ele>1962.800048828125</ele>
        <time>2021-08-21T12:16:32.000Z</time>
      </trkpt>
      <trkpt lat="42.70184953697025775909423828125" lon="-0.08403754793107509613037109375">
        <ele>1962.5999755859375</ele>
        <time>2021-08-21T12:16:39.000Z</time>
      </trkpt>
      <trkpt lat="42.70186395384371280670166015625" lon="-0.08403369225561618804931640625">
        <ele>1963</ele>
        <time>2021-08-21T12:16:42.000Z</time>
      </trkpt>
      <trkpt lat="42.701842747628688812255859375" lon="-0.084030926227569580078125">
        <ele>1962.5999755859375</ele>
        <time>2021-08-21T12:16:46.000Z</time>
      </trkpt>
      <trkpt lat="42.70186194218695163726806640625" lon="-0.08402363397181034088134765625">
        <ele>1963</ele>
        <time>2021-08-21T12:16:50.000Z</time>
      </trkpt>
      <trkpt lat="42.7018737606704235076904296875" lon="-0.0840230472385883331298828125">
        <ele>1963.199951171875</ele>
        <time>2021-08-21T12:16:53.000Z</time>
      </trkpt>
      <trkpt lat="42.70188222639262676239013671875" lon="-0.084034614264965057373046875">
        <ele>1963.199951171875</ele>
        <time>2021-08-21T12:16:58.000Z</time>
      </trkpt>
      <trkpt lat="42.70186194218695163726806640625" lon="-0.08405330590903759002685546875">
        <ele>1962.800048828125</ele>
        <time>2021-08-21T12:17:03.000Z</time>
      </trkpt>
      <trkpt lat="42.7018435858190059661865234375" lon="-0.08405900560319423675537109375">
        <ele>1962.4000244140625</ele>
        <time>2021-08-21T12:17:09.000Z</time>
      </trkpt>
      <trkpt lat="42.70185054279863834381103515625" lon="-0.084060095250606536865234375">
        <ele>1962.4000244140625</ele>
        <time>2021-08-21T12:17:15.000Z</time>
      </trkpt>
      <trkpt lat="42.70186445675790309906005859375" lon="-0.08407392539083957672119140625">
        <ele>1962.5999755859375</ele>
        <time>2021-08-21T12:17:22.000Z</time>
      </trkpt>
      <trkpt lat="42.701858840882778167724609375" lon="-0.08407794870436191558837890625">
        <ele>1962.4000244140625</ele>
        <time>2021-08-21T12:17:27.000Z</time>
      </trkpt>
      <trkpt lat="42.70184383727610111236572265625" lon="-0.0840901024639606475830078125">
        <ele>1962.199951171875</ele>
        <time>2021-08-21T12:17:32.000Z</time>
      </trkpt>
      <trkpt lat="42.7018640376627445220947265625" lon="-0.08409622125327587127685546875">
        <ele>1962.4000244140625</ele>
        <time>2021-08-21T12:17:38.000Z</time>
      </trkpt>
      <trkpt lat="42.7018833160400390625" lon="-0.084073506295680999755859375">
        <ele>1962.800048828125</ele>
        <time>2021-08-21T12:17:45.000Z</time>
      </trkpt>
      <trkpt lat="42.70186630077660083770751953125" lon="-0.08407895453274250030517578125">
        <ele>1962.5999755859375</ele>
        <time>2021-08-21T12:17:54.000Z</time>
      </trkpt>
      <trkpt lat="42.7018895186483860015869140625" lon="-0.084055401384830474853515625">
        <ele>1963.199951171875</ele>
        <time>2021-08-21T12:18:04.000Z</time>
      </trkpt>
      <trkpt lat="42.7019082941114902496337890625" lon="-0.0840719975531101226806640625">
        <ele>1963.199951171875</ele>
        <time>2021-08-21T12:18:15.000Z</time>
      </trkpt>
      <trkpt lat="42.70191214978694915771484375" lon="-0.08407182991504669189453125">
        <ele>1963.4000244140625</ele>
        <time>2021-08-21T12:18:16.000Z</time>
      </trkpt>
      <trkpt lat="42.70191491581499576568603515625" lon="-0.0840730033814907073974609375">
        <ele>1963.4000244140625</ele>
        <time>2021-08-21T12:18:17.000Z</time>
      </trkpt>
      <trkpt lat="42.7019168436527252197265625" lon="-0.0840760208666324615478515625">
        <ele>1963.4000244140625</ele>
        <time>2021-08-21T12:18:19.000Z</time>
      </trkpt>
      <trkpt lat="42.70190938375890254974365234375" lon="-0.08407727815210819244384765625">
        <ele>1963.199951171875</ele>
        <time>2021-08-21T12:18:21.000Z</time>
      </trkpt>
      <trkpt lat="42.70185976289212703704833984375" lon="-0.08407979272305965423583984375">
        <ele>1962.4000244140625</ele>
        <time>2021-08-21T12:18:24.000Z</time>
      </trkpt>
      <trkpt lat="42.70185942761600017547607421875" lon="-0.0840778648853302001953125">
        <ele>1962.4000244140625</ele>
        <time>2021-08-21T12:18:25.000Z</time>
      </trkpt>
      <trkpt lat="42.70186345092952251434326171875" lon="-0.0840726681053638458251953125">
        <ele>1962.5999755859375</ele>
        <time>2021-08-21T12:18:34.000Z</time>
      </trkpt>
      <trkpt lat="42.701863534748554229736328125" lon="-0.08407359011471271514892578125">
        <ele>1962.5999755859375</ele>
        <time>2021-08-21T12:18:35.000Z</time>
      </trkpt>
      <trkpt lat="42.70186387002468109130859375" lon="-0.08407208137214183807373046875">
        <ele>1962.5999755859375</ele>
        <time>2021-08-21T12:18:36.000Z</time>
      </trkpt>
      <trkpt lat="42.70189546979963779449462890625" lon="-0.0840860791504383087158203125">
        <ele>1963</ele>
        <time>2021-08-21T12:18:57.000Z</time>
      </trkpt>
      <trkpt lat="42.7018858306109905242919921875" lon="-0.08403637446463108062744140625">
        <ele>1963.199951171875</ele>
        <time>2021-08-21T12:19:10.000Z</time>
      </trkpt>
      <trkpt lat="42.701846770942211151123046875" lon="-0.08403738029301166534423828125">
        <ele>1962.5999755859375</ele>
        <time>2021-08-21T12:19:24.000Z</time>
      </trkpt>
      <trkpt lat="42.701880969107151031494140625" lon="-0.08403972722589969635009765625">
        <ele>1963.199951171875</ele>
        <time>2021-08-21T12:19:33.000Z</time>
      </trkpt>
      <trkpt lat="42.701870910823345184326171875" lon="-0.0840438343584537506103515625">
        <ele>1963</ele>
        <time>2021-08-21T12:19:36.000Z</time>
      </trkpt>
      <trkpt lat="42.70187350921332836151123046875" lon="-0.08404609747231006622314453125">
        <ele>1963</ele>
        <time>2021-08-21T12:19:37.000Z</time>
      </trkpt>
      <trkpt lat="42.701875604689121246337890625" lon="-0.08404525928199291229248046875">
        <ele>1963</ele>
        <time>2021-08-21T12:19:38.000Z</time>
      </trkpt>
      <trkpt lat="42.70189077593386173248291015625" lon="-0.08404274471104145050048828125">
        <ele>1963.199951171875</ele>
        <time>2021-08-21T12:19:40.000Z</time>
      </trkpt>
      <trkpt lat="42.70189412869513034820556640625" lon="-0.08404073305428028106689453125">
        <ele>1963.4000244140625</ele>
        <time>2021-08-21T12:19:41.000Z</time>
      </trkpt>
      <trkpt lat="42.70188306458294391632080078125" lon="-0.0840391404926776885986328125">
        <ele>1963.199951171875</ele>
        <time>2021-08-21T12:19:47.000Z</time>
      </trkpt>
      <trkpt lat="42.70187635906040668487548828125" lon="-0.08404006250202655792236328125">
        <ele>1963</ele>
        <time>2021-08-21T12:19:48.000Z</time>
      </trkpt>
      <trkpt lat="42.70187770016491413116455078125" lon="-0.08404207415878772735595703125">
        <ele>1963</ele>
        <time>2021-08-21T12:19:50.000Z</time>
      </trkpt>
      <trkpt lat="42.7018777839839458465576171875" lon="-0.08404307998716831207275390625">
        <ele>1963</ele>
        <time>2021-08-21T12:19:51.000Z</time>
      </trkpt>
      <trkpt lat="42.70190133713185787200927734375" lon="-0.084074847400188446044921875">
        <ele>1963.199951171875</ele>
        <time>2021-08-21T12:20:07.000Z</time>
      </trkpt>
      <trkpt lat="42.70185758359730243682861328125" lon="-0.08407090790569782257080078125">
        <ele>1962.4000244140625</ele>
        <time>2021-08-21T12:20:18.000Z</time>
      </trkpt>
      <trkpt lat="42.7018578350543975830078125" lon="-0.0840649567544460296630859375">
        <ele>1962.5999755859375</ele>
        <time>2021-08-21T12:20:25.000Z</time>
      </trkpt>
      <trkpt lat="42.701882980763912200927734375" lon="-0.084064789116382598876953125">
        <ele>1963</ele>
        <time>2021-08-21T12:20:39.000Z</time>
      </trkpt>
      <trkpt lat="42.70186881534755229949951171875" lon="-0.08406420238316059112548828125">
        <ele>1962.800048828125</ele>
        <time>2021-08-21T12:20:42.000Z</time>
      </trkpt>
      <trkpt lat="42.7018417418003082275390625" lon="-0.08408029563724994659423828125">
        <ele>1962.199951171875</ele>
        <time>2021-08-21T12:21:13.000Z</time>
      </trkpt>
      <trkpt lat="42.70184316672384738922119140625" lon="-0.08407643996179103851318359375">
        <ele>1962.199951171875</ele>
        <time>2021-08-21T12:21:25.000Z</time>
      </trkpt>
      <trkpt lat="42.701852805912494659423828125" lon="-0.08407560177147388458251953125">
        <ele>1962.4000244140625</ele>
        <time>2021-08-21T12:21:39.000Z</time>
      </trkpt>
      <trkpt lat="42.70180460996925830841064453125" lon="-0.08407845161855220794677734375">
        <ele>1961.5999755859375</ele>
        <time>2021-08-21T12:22:32.000Z</time>
      </trkpt>
      <trkpt lat="42.70177577622234821319580078125" lon="-0.0840904377400875091552734375">
        <ele>1961</ele>
        <time>2021-08-21T12:23:00.000Z</time>
      </trkpt>
      <trkpt lat="42.70177745260298252105712890625" lon="-0.08409203030169010162353515625">
        <ele>1961</ele>
        <time>2021-08-21T12:23:02.000Z</time>
      </trkpt>
      <trkpt lat="42.7017854154109954833984375" lon="-0.08410326205193996429443359375">
        <ele>1961</ele>
        <time>2021-08-21T12:23:05.000Z</time>
      </trkpt>
      <trkpt lat="42.70180628634989261627197265625" lon="-0.08409731090068817138671875">
        <ele>1961.4000244140625</ele>
        <time>2021-08-21T12:23:40.000Z</time>
      </trkpt>
      <trkpt lat="42.701802514493465423583984375" lon="-0.08409705944359302520751953125">
        <ele>1961.4000244140625</ele>
        <time>2021-08-21T12:23:51.000Z</time>
      </trkpt>
      <trkpt lat="42.7018154226243495941162109375" lon="-0.0840994901955127716064453125">
        <ele>1961.5999755859375</ele>
        <time>2021-08-21T12:24:19.000Z</time>
      </trkpt>
      <trkpt lat="42.70180460996925830841064453125" lon="-0.0841180980205535888671875">
        <ele>1961.199951171875</ele>
        <time>2021-08-21T12:24:50.000Z</time>
      </trkpt>
      <trkpt lat="42.7017976529896259307861328125" lon="-0.0841162540018558502197265625">
        <ele>1961.199951171875</ele>
        <time>2021-08-21T12:24:54.000Z</time>
      </trkpt>
      <trkpt lat="42.7017926238477230072021484375" lon="-0.0841202773153781890869140625">
        <ele>1961</ele>
        <time>2021-08-21T12:25:01.000Z</time>
      </trkpt>
      <trkpt lat="42.701773010194301605224609375" lon="-0.0840944610536098480224609375">
        <ele>1961</ele>
        <time>2021-08-21T12:25:35.000Z</time>
      </trkpt>
      <trkpt lat="42.70174308679997920989990234375" lon="-0.08410963229835033416748046875">
        <ele>1960.4000244140625</ele>
        <time>2021-08-21T12:25:38.000Z</time>
      </trkpt>
      <trkpt lat="42.70183478482067584991455078125" lon="-0.08399463258683681488037109375">
        <ele>1962.800048828125</ele>
        <time>2021-08-21T12:49:00.000Z</time>
      </trkpt>
      <trkpt lat="42.70172196440398693084716796875" lon="-0.0839452631771564483642578125">
        <ele>1961.5999755859375</ele>
        <time>2021-08-21T12:49:24.000Z</time>
      </trkpt>
      <trkpt lat="42.7018398977816104888916015625" lon="-0.08360688574612140655517578125">
        <ele>1967.5999755859375</ele>
        <time>2021-08-21T12:50:05.000Z</time>
      </trkpt>
      <trkpt lat="42.70184651948511600494384765625" lon="-0.08349792100489139556884765625">
        <ele>1968.4000244140625</ele>
        <time>2021-08-21T12:50:17.000Z</time>
      </trkpt>
      <trkpt lat="42.70194190554320812225341796875" lon="-0.08317069150507450103759765625">
        <ele>1972.5999755859375</ele>
        <time>2021-08-21T12:50:55.000Z</time>
      </trkpt>
      <trkpt lat="42.7020375430583953857421875" lon="-0.0826661847531795501708984375">
        <ele>1978.199951171875</ele>
        <time>2021-08-21T12:51:42.000Z</time>
      </trkpt>
      <trkpt lat="42.70202941261231899261474609375" lon="-0.08206578902900218963623046875">
        <ele>1982.800048828125</ele>
        <time>2021-08-21T12:52:40.000Z</time>
      </trkpt>
      <trkpt lat="42.70195514895021915435791015625" lon="-0.081742666661739349365234375">
        <ele>1980.800048828125</ele>
        <time>2021-08-21T12:53:02.000Z</time>
      </trkpt>
      <trkpt lat="42.7020048536360263824462890625" lon="-0.0811621360480785369873046875">
        <ele>1981.199951171875</ele>
        <time>2021-08-21T12:53:47.000Z</time>
      </trkpt>
      <trkpt lat="42.7019958011806011199951171875" lon="-0.08085125125944614410400390625">
        <ele>1982</ele>
        <time>2021-08-21T12:54:09.000Z</time>
      </trkpt>
      <trkpt lat="42.70201147533953189849853515625" lon="-0.08063860237598419189453125">
        <ele>1984.4000244140625</ele>
        <time>2021-08-21T12:54:30.000Z</time>
      </trkpt>
      <trkpt lat="42.7020403929054737091064453125" lon="-0.08054061792790889739990234375">
        <ele>1985.800048828125</ele>
        <time>2021-08-21T12:54:37.000Z</time>
      </trkpt>
      <trkpt lat="42.70221331156790256500244140625" lon="-0.0800379551947116851806640625">
        <ele>1985.800048828125</ele>
        <time>2021-08-21T12:56:01.000Z</time>
      </trkpt>
      <trkpt lat="42.7022682130336761474609375" lon="-0.07993661798536777496337890625">
        <ele>1985.5999755859375</ele>
        <time>2021-08-21T12:56:15.000Z</time>
      </trkpt>
      <trkpt lat="42.7023102901875972747802734375" lon="-0.07976881228387355804443359375">
        <ele>1985.4000244140625</ele>
        <time>2021-08-21T12:56:32.000Z</time>
      </trkpt>
      <trkpt lat="42.70231984555721282958984375" lon="-0.07974014617502689361572265625">
        <ele>1985.4000244140625</ele>
        <time>2021-08-21T12:56:34.000Z</time>
      </trkpt>
      <trkpt lat="42.702584378421306610107421875" lon="-0.0792470388114452362060546875">
        <ele>1986.800048828125</ele>
        <time>2021-08-21T12:57:08.000Z</time>
      </trkpt>
      <trkpt lat="42.70286089740693569183349609375" lon="-0.0787699408829212188720703125">
        <ele>1992.4000244140625</ele>
        <time>2021-08-21T12:57:50.000Z</time>
      </trkpt>
      <trkpt lat="42.70309190265834331512451171875" lon="-0.07840775884687900543212890625">
        <ele>1997</ele>
        <time>2021-08-21T12:58:45.000Z</time>
      </trkpt>
      <trkpt lat="42.70312040112912654876708984375" lon="-0.07830910384654998779296875">
        <ele>1997.199951171875</ele>
        <time>2021-08-21T12:58:53.000Z</time>
      </trkpt>
      <trkpt lat="42.7031622268259525299072265625" lon="-0.07823056541383266448974609375">
        <ele>1997.800048828125</ele>
        <time>2021-08-21T12:58:59.000Z</time>
      </trkpt>
      <trkpt lat="42.7031719498336315155029296875" lon="-0.0782177411019802093505859375">
        <ele>1998.199951171875</ele>
        <time>2021-08-21T12:59:00.000Z</time>
      </trkpt>
      <trkpt lat="42.7032123506069183349609375" lon="-0.07815076969563961029052734375">
        <ele>1998.800048828125</ele>
        <time>2021-08-21T12:59:05.000Z</time>
      </trkpt>
      <trkpt lat="42.70322416909039020538330078125" lon="-0.0781027413904666900634765625">
        <ele>1999</ele>
        <time>2021-08-21T12:59:08.000Z</time>
      </trkpt>
      <trkpt lat="42.70322031341493129730224609375" lon="-0.07809041999280452728271484375">
        <ele>1998.800048828125</ele>
        <time>2021-08-21T12:59:09.000Z</time>
      </trkpt>
      <trkpt lat="42.70320975221693515777587890625" lon="-0.078044235706329345703125">
        <ele>1998.4000244140625</ele>
        <time>2021-08-21T12:59:12.000Z</time>
      </trkpt>
      <trkpt lat="42.70319022238254547119140625" lon="-0.07791523821651935577392578125">
        <ele>1998</ele>
        <time>2021-08-21T12:59:21.000Z</time>
      </trkpt>
      <trkpt lat="42.70320069976150989532470703125" lon="-0.077836029231548309326171875">
        <ele>1998</ele>
        <time>2021-08-21T12:59:28.000Z</time>
      </trkpt>
      <trkpt lat="42.7031867019832134246826171875" lon="-0.0777478516101837158203125">
        <ele>1997.5999755859375</ele>
        <time>2021-08-21T12:59:35.000Z</time>
      </trkpt>
      <trkpt lat="42.70318661816418170928955078125" lon="-0.07772362791001796722412109375">
        <ele>1997.5999755859375</ele>
        <time>2021-08-21T12:59:37.000Z</time>
      </trkpt>
      <trkpt lat="42.70319315604865550994873046875" lon="-0.077610053122043609619140625">
        <ele>1997.5999755859375</ele>
        <time>2021-08-21T12:59:46.000Z</time>
      </trkpt>
      <trkpt lat="42.703317962586879730224609375" lon="-0.0774295069277286529541015625">
        <ele>2000.199951171875</ele>
        <time>2021-08-21T13:00:02.000Z</time>
      </trkpt>
      <trkpt lat="42.703338079154491424560546875" lon="-0.07738265208899974822998046875">
        <ele>2000.5999755859375</ele>
        <time>2021-08-21T13:00:07.000Z</time>
      </trkpt>
      <trkpt lat="42.7033241651952266693115234375" lon="-0.07722574286162853240966796875">
        <ele>2000.199951171875</ele>
        <time>2021-08-21T13:00:17.000Z</time>
      </trkpt>
      <trkpt lat="42.7033338882029056549072265625" lon="-0.0772058777511119842529296875">
        <ele>2000.4000244140625</ele>
        <time>2021-08-21T13:00:19.000Z</time>
      </trkpt>
      <trkpt lat="42.7034458704292774200439453125" lon="-0.077008903026580810546875">
        <ele>2003.800048828125</ele>
        <time>2021-08-21T13:00:37.000Z</time>
      </trkpt>
      <trkpt lat="42.7035038731992244720458984375" lon="-0.076866410672664642333984375">
        <ele>2005</ele>
        <time>2021-08-21T13:00:48.000Z</time>
      </trkpt>
      <trkpt lat="42.70363504998385906219482421875" lon="-0.076710842549800872802734375">
        <ele>2009.5999755859375</ele>
        <time>2021-08-21T13:01:05.000Z</time>
      </trkpt>
      <trkpt lat="42.7036483772099018096923828125" lon="-0.07666834630072116851806640625">
        <ele>2009.800048828125</ele>
        <time>2021-08-21T13:01:09.000Z</time>
      </trkpt>
      <trkpt lat="42.70364058203995227813720703125" lon="-0.07660095579922199249267578125">
        <ele>2008.800048828125</ele>
        <time>2021-08-21T13:01:15.000Z</time>
      </trkpt>
      <trkpt lat="42.70361593924462795257568359375" lon="-0.07641806267201900482177734375">
        <ele>2005.5999755859375</ele>
        <time>2021-08-21T13:01:30.000Z</time>
      </trkpt>
      <trkpt lat="42.7036785520613193511962890625" lon="-0.0762191601097583770751953125">
        <ele>2007.199951171875</ele>
        <time>2021-08-21T13:01:50.000Z</time>
      </trkpt>
      <trkpt lat="42.7037380635738372802734375" lon="-0.0760998018085956573486328125">
        <ele>2010.800048828125</ele>
        <time>2021-08-21T13:02:03.000Z</time>
      </trkpt>
      <trkpt lat="42.70373814739286899566650390625" lon="-0.0756793655455112457275390625">
        <ele>2014</ele>
        <time>2021-08-21T13:02:53.000Z</time>
      </trkpt>
      <trkpt lat="42.70376798696815967559814453125" lon="-0.0753725878894329071044921875">
        <ele>2018.800048828125</ele>
        <time>2021-08-21T13:03:20.000Z</time>
      </trkpt>
      <trkpt lat="42.703779973089694976806640625" lon="-0.07521542720496654510498046875">
        <ele>2021.800048828125</ele>
        <time>2021-08-21T13:03:34.000Z</time>
      </trkpt>
      <trkpt lat="42.703789360821247100830078125" lon="-0.074881576001644134521484375">
        <ele>2026.800048828125</ele>
        <time>2021-08-21T13:04:12.000Z</time>
      </trkpt>
      <trkpt lat="42.70380444824695587158203125" lon="-0.0742797553539276123046875">
        <ele>2036</ele>
        <time>2021-08-21T13:05:28.000Z</time>
      </trkpt>
      <trkpt lat="42.70381140522658824920654296875" lon="-0.07402251474559307098388671875">
        <ele>2041.199951171875</ele>
        <time>2021-08-21T13:06:00.000Z</time>
      </trkpt>
      <trkpt lat="42.70380956120789051055908203125" lon="-0.0739459879696369171142578125">
        <ele>2042.4000244140625</ele>
        <time>2021-08-21T13:06:10.000Z</time>
      </trkpt>
      <trkpt lat="42.7037487924098968505859375" lon="-0.0733676366508007049560546875">
        <ele>2054.800048828125</ele>
        <time>2021-08-21T13:07:30.000Z</time>
      </trkpt>
      <trkpt lat="42.703670002520084381103515625" lon="-0.07296203635632991790771484375">
        <ele>2064.60009765625</ele>
        <time>2021-08-21T13:08:23.000Z</time>
      </trkpt>
      <trkpt lat="42.7034582756459712982177734375" lon="-0.07264821790158748626708984375">
        <ele>2066.199951171875</ele>
        <time>2021-08-21T13:10:49.000Z</time>
      </trkpt>
      <trkpt lat="42.7034646458923816680908203125" lon="-0.07265031337738037109375">
        <ele>2066.39990234375</ele>
        <time>2021-08-21T13:10:54.000Z</time>
      </trkpt>
      <trkpt lat="42.7034698426723480224609375" lon="-0.07265307940542697906494140625">
        <ele>2066.60009765625</ele>
        <time>2021-08-21T13:10:59.000Z</time>
      </trkpt>
      <trkpt lat="42.70346892066299915313720703125" lon="-0.072649978101253509521484375">
        <ele>2066.60009765625</ele>
        <time>2021-08-21T13:11:08.000Z</time>
      </trkpt>
      <trkpt lat="42.70350295118987560272216796875" lon="-0.0726011954247951507568359375">
        <ele>2070.60009765625</ele>
        <time>2021-08-21T13:11:34.000Z</time>
      </trkpt>
      <trkpt lat="42.70349733531475067138671875" lon="-0.0725591182708740234375">
        <ele>2072.199951171875</ele>
        <time>2021-08-21T13:12:11.000Z</time>
      </trkpt>
      <trkpt lat="42.7034985087811946868896484375" lon="-0.07255383767187595367431640625">
        <ele>2072.60009765625</ele>
        <time>2021-08-21T13:12:22.000Z</time>
      </trkpt>
      <trkpt lat="42.70349104888737201690673828125" lon="-0.07255165837705135345458984375">
        <ele>2072.199951171875</ele>
        <time>2021-08-21T13:13:02.000Z</time>
      </trkpt>
      <trkpt lat="42.70349054597318172454833984375" lon="-0.07255308330059051513671875">
        <ele>2072.199951171875</ele>
        <time>2021-08-21T13:13:23.000Z</time>
      </trkpt>
      <trkpt lat="42.70348736084997653961181640625" lon="-0.072528608143329620361328125">
        <ele>2073.199951171875</ele>
        <time>2021-08-21T13:14:16.000Z</time>
      </trkpt>
      <trkpt lat="42.70347612909972667694091796875" lon="-0.07246549241244792938232421875">
        <ele>2075.39990234375</ele>
        <time>2021-08-21T13:14:23.000Z</time>
      </trkpt>
      <trkpt lat="42.7034725248813629150390625" lon="-0.07245627231895923614501953125">
        <ele>2075.60009765625</ele>
        <time>2021-08-21T13:14:25.000Z</time>
      </trkpt>
      <trkpt lat="42.7034679986536502838134765625" lon="-0.0724302046000957489013671875">
        <ele>2076.60009765625</ele>
        <time>2021-08-21T13:14:29.000Z</time>
      </trkpt>
      <trkpt lat="42.7034629695117473602294921875" lon="-0.07239206694066524505615234375">
        <ele>2078.199951171875</ele>
        <time>2021-08-21T13:14:34.000Z</time>
      </trkpt>
      <trkpt lat="42.7034529112279415130615234375" lon="-0.0723738782107830047607421875">
        <ele>2078.39990234375</ele>
        <time>2021-08-21T13:14:37.000Z</time>
      </trkpt>
      <trkpt lat="42.7034502290189266204833984375" lon="-0.0723648257553577423095703125">
        <ele>2078.800048828125</ele>
        <time>2021-08-21T13:14:38.000Z</time>
      </trkpt>
      <trkpt lat="42.70343958400189876556396484375" lon="-0.0723386742174625396728515625">
        <ele>2079.39990234375</ele>
        <time>2021-08-21T13:14:41.000Z</time>
      </trkpt>
      <trkpt lat="42.7034361474215984344482421875" lon="-0.0723136961460113525390625">
        <ele>2080.39990234375</ele>
        <time>2021-08-21T13:14:45.000Z</time>
      </trkpt>
      <trkpt lat="42.70342332310974597930908203125" lon="-0.07226281799376010894775390625">
        <ele>2082</ele>
        <time>2021-08-21T13:14:50.000Z</time>
      </trkpt>
      <trkpt lat="42.7034224011003971099853515625" lon="-0.07208093069493770599365234375">
        <ele>2089.800048828125</ele>
        <time>2021-08-21T13:15:04.000Z</time>
      </trkpt>
      <trkpt lat="42.703419215977191925048828125" lon="-0.07203265093266963958740234375">
        <ele>2090.199951171875</ele>
        <time>2021-08-21T13:15:07.000Z</time>
      </trkpt>
      <trkpt lat="42.7034321241080760955810546875" lon="-0.07194824516773223876953125">
        <ele>2091.800048828125</ele>
        <time>2021-08-21T13:15:13.000Z</time>
      </trkpt>
      <trkpt lat="42.70343136973679065704345703125" lon="-0.0718632526695728302001953125">
        <ele>2093</ele>
        <time>2021-08-21T13:15:20.000Z</time>
      </trkpt>
      <trkpt lat="42.70349406637251377105712890625" lon="-0.07160031236708164215087890625">
        <ele>2099.199951171875</ele>
        <time>2021-08-21T13:15:48.000Z</time>
      </trkpt>
      <trkpt lat="42.7037154324352741241455078125" lon="-0.071114413440227508544921875">
        <ele>2114.199951171875</ele>
        <time>2021-08-21T13:16:57.000Z</time>
      </trkpt>
      <trkpt lat="42.70371191203594207763671875" lon="-0.07110242731869220733642578125">
        <ele>2114</ele>
        <time>2021-08-21T13:16:58.000Z</time>
      </trkpt>
      <trkpt lat="42.7037328667938709259033203125" lon="-0.07098994217813014984130859375">
        <ele>2115.39990234375</ele>
        <time>2021-08-21T13:17:13.000Z</time>
      </trkpt>
      <trkpt lat="42.70373714156448841094970703125" lon="-0.0709070451557636260986328125">
        <ele>2115.800048828125</ele>
        <time>2021-08-21T13:17:23.000Z</time>
      </trkpt>
      <trkpt lat="42.7037818171083927154541015625" lon="-0.07031771354377269744873046875">
        <ele>2125.800048828125</ele>
        <time>2021-08-21T13:18:38.000Z</time>
      </trkpt>
      <trkpt lat="42.70377762615680694580078125" lon="-0.0700832717120647430419921875">
        <ele>2127.60009765625</ele>
        <time>2021-08-21T13:19:08.000Z</time>
      </trkpt>
      <trkpt lat="42.70377502776682376861572265625" lon="-0.0700718723237514495849609375">
        <ele>2127.800048828125</ele>
        <time>2021-08-21T13:19:10.000Z</time>
      </trkpt>
      <trkpt lat="42.7037741057574748992919921875" lon="-0.07006692700088024139404296875">
        <ele>2127.800048828125</ele>
        <time>2021-08-21T13:19:11.000Z</time>
      </trkpt>
      <trkpt lat="42.70377636887133121490478515625" lon="-0.06991236470639705657958984375">
        <ele>2129.800048828125</ele>
        <time>2021-08-21T13:19:36.000Z</time>
      </trkpt>
      <trkpt lat="42.70378860644996166229248046875" lon="-0.0698462314903736114501953125">
        <ele>2131.199951171875</ele>
        <time>2021-08-21T13:19:51.000Z</time>
      </trkpt>
      <trkpt lat="42.7037858404219150543212890625" lon="-0.069816224277019500732421875">
        <ele>2131.60009765625</ele>
        <time>2021-08-21T13:19:53.000Z</time>
      </trkpt>
      <trkpt lat="42.7036919631063938140869140625" lon="-0.0692279823124408721923828125">
        <ele>2138.800048828125</ele>
        <time>2021-08-21T13:20:35.000Z</time>
      </trkpt>
      <trkpt lat="42.7036200463771820068359375" lon="-0.06874342449009418487548828125">
        <ele>2148.199951171875</ele>
        <time>2021-08-21T13:21:38.000Z</time>
      </trkpt>
      <trkpt lat="42.70359096117317676544189453125" lon="-0.06870168261229991912841796875">
        <ele>2149.199951171875</ele>
        <time>2021-08-21T13:21:43.000Z</time>
      </trkpt>
      <trkpt lat="42.70355500280857086181640625" lon="-0.06866346113383769989013671875">
        <ele>2149.800048828125</ele>
        <time>2021-08-21T13:21:49.000Z</time>
      </trkpt>
      <trkpt lat="42.70351820625364780426025390625" lon="-0.06848040036857128143310546875">
        <ele>2155.60009765625</ele>
        <time>2021-08-21T13:22:35.000Z</time>
      </trkpt>
      <trkpt lat="42.7035033702850341796875" lon="-0.06805770099163055419921875">
        <ele>2169.39990234375</ele>
        <time>2021-08-21T13:23:56.000Z</time>
      </trkpt>
      <trkpt lat="42.7034859359264373779296875" lon="-0.06790925748646259307861328125">
        <ele>2173.800048828125</ele>
        <time>2021-08-21T13:24:31.000Z</time>
      </trkpt>
      <trkpt lat="42.703432627022266387939453125" lon="-0.06748379208147525787353515625">
        <ele>2184.39990234375</ele>
        <time>2021-08-21T13:26:25.000Z</time>
      </trkpt>
      <trkpt lat="42.703384347259998321533203125" lon="-0.06735990755259990692138671875">
        <ele>2187</ele>
        <time>2021-08-21T13:27:29.000Z</time>
      </trkpt>
      <trkpt lat="42.7033861912786960601806640625" lon="-0.06737767718732357025146484375">
        <ele>2186.60009765625</ele>
        <time>2021-08-21T13:27:37.000Z</time>
      </trkpt>
      <trkpt lat="42.7033861912786960601806640625" lon="-0.06737818010151386260986328125">
        <ele>2186.39990234375</ele>
        <time>2021-08-21T13:27:38.000Z</time>
      </trkpt>
      <trkpt lat="42.7033861912786960601806640625" lon="-0.06737818010151386260986328125">
        <ele>2186.39990234375</ele>
        <time>2021-08-21T13:27:39.000Z</time>
      </trkpt>
      <trkpt lat="42.70338602364063262939453125" lon="-0.06737801246345043182373046875">
        <ele>2186.39990234375</ele>
        <time>2021-08-21T13:27:40.000Z</time>
      </trkpt>
      <trkpt lat="42.70338610745966434478759765625" lon="-0.06737683899700641632080078125">
        <ele>2186.60009765625</ele>
        <time>2021-08-21T13:27:43.000Z</time>
      </trkpt>
      <trkpt lat="42.7033959142863750457763671875" lon="-0.067326128482818603515625">
        <ele>2188.199951171875</ele>
        <time>2021-08-21T13:27:52.000Z</time>
      </trkpt>
      <trkpt lat="42.703399769961833953857421875" lon="-0.067286230623722076416015625">
        <ele>2189.199951171875</ele>
        <time>2021-08-21T13:27:58.000Z</time>
      </trkpt>
      <trkpt lat="42.7034096606075763702392578125" lon="-0.067250691354274749755859375">
        <ele>2190.39990234375</ele>
        <time>2021-08-21T13:28:02.000Z</time>
      </trkpt>
      <trkpt lat="42.703403793275356292724609375" lon="-0.06721238605678081512451171875">
        <ele>2191.39990234375</ele>
        <time>2021-08-21T13:28:08.000Z</time>
      </trkpt>
      <trkpt lat="42.70339549519121646881103515625" lon="-0.0671905092895030975341796875">
        <ele>2191.800048828125</ele>
        <time>2021-08-21T13:28:12.000Z</time>
      </trkpt>
      <trkpt lat="42.70338912494480609893798828125" lon="-0.06717617623507976531982421875">
        <ele>2192.199951171875</ele>
        <time>2021-08-21T13:28:14.000Z</time>
      </trkpt>
      <trkpt lat="42.70338141359388828277587890625" lon="-0.06714499555528163909912109375">
        <ele>2192.800048828125</ele>
        <time>2021-08-21T13:28:18.000Z</time>
      </trkpt>
      <trkpt lat="42.703371942043304443359375" lon="-0.06710258312523365020751953125">
        <ele>2193.800048828125</ele>
        <time>2021-08-21T13:28:26.000Z</time>
      </trkpt>
      <trkpt lat="42.70337521098554134368896484375" lon="-0.06710275076329708099365234375">
        <ele>2193.800048828125</ele>
        <time>2021-08-21T13:28:28.000Z</time>
      </trkpt>
      <trkpt lat="42.70340773276984691619873046875" lon="-0.06706100888550281524658203125">
        <ele>2195.39990234375</ele>
        <time>2021-08-21T13:28:37.000Z</time>
      </trkpt>
      <trkpt lat="42.70339432172477245330810546875" lon="-0.06705447100102901458740234375">
        <ele>2195.60009765625</ele>
        <time>2021-08-21T13:28:40.000Z</time>
      </trkpt>
      <trkpt lat="42.7033679187297821044921875" lon="-0.06703251041471958160400390625">
        <ele>2196</ele>
        <time>2021-08-21T13:28:48.000Z</time>
      </trkpt>
      <trkpt lat="42.70331100560724735260009765625" lon="-0.0665269978344440460205078125">
        <ele>2217</ele>
        <time>2021-08-21T13:30:27.000Z</time>
      </trkpt>
      <trkpt lat="42.703337408602237701416015625" lon="-0.06653144024312496185302734375">
        <ele>2215</ele>
        <time>2021-08-21T13:31:06.000Z</time>
      </trkpt>
      <trkpt lat="42.70334268920123577117919921875" lon="-0.0665269978344440460205078125">
        <ele>2214.800048828125</ele>
        <time>2021-08-21T13:31:07.000Z</time>
      </trkpt>
      <trkpt lat="42.70334268920123577117919921875" lon="-0.06652473472058773040771484375">
        <ele>2214.800048828125</ele>
        <time>2021-08-21T13:31:09.000Z</time>
      </trkpt>
      <trkpt lat="42.70330446772277355194091796875" lon="-0.06641895510256290435791015625">
        <ele>2221</ele>
        <time>2021-08-21T13:31:22.000Z</time>
      </trkpt>
      <trkpt lat="42.70330446772277355194091796875" lon="-0.066370926797389984130859375">
        <ele>2222.60009765625</ele>
        <time>2021-08-21T13:31:26.000Z</time>
      </trkpt>
      <trkpt lat="42.70331720821559429168701171875" lon="-0.066322982311248779296875">
        <ele>2223.39990234375</ele>
        <time>2021-08-21T13:31:30.000Z</time>
      </trkpt>
      <trkpt lat="42.70331494510173797607421875" lon="-0.0662909634411334991455078125">
        <ele>2224.60009765625</ele>
        <time>2021-08-21T13:31:33.000Z</time>
      </trkpt>
      <trkpt lat="42.70330949686467647552490234375" lon="-0.0662715174257755279541015625">
        <ele>2225.60009765625</ele>
        <time>2021-08-21T13:31:35.000Z</time>
      </trkpt>
      <trkpt lat="42.70329860039055347442626953125" lon="-0.06624628789722919464111328125">
        <ele>2227.199951171875</ele>
        <time>2021-08-21T13:31:38.000Z</time>
      </trkpt>
      <trkpt lat="42.70329826511442661285400390625" lon="-0.066225416958332061767578125">
        <ele>2227.800048828125</ele>
        <time>2021-08-21T13:31:39.000Z</time>
      </trkpt>
      <trkpt lat="42.70329826511442661285400390625" lon="-0.066225416958332061767578125">
        <ele>2227.800048828125</ele>
        <time>2021-08-21T13:31:40.000Z</time>
      </trkpt>
      <trkpt lat="42.703298516571521759033203125" lon="-0.06621493957936763763427734375">
        <ele>2228</ele>
        <time>2021-08-21T13:31:41.000Z</time>
      </trkpt>
      <trkpt lat="42.70329616963863372802734375" lon="-0.06619683466851711273193359375">
        <ele>2228.800048828125</ele>
        <time>2021-08-21T13:31:42.000Z</time>
      </trkpt>
      <trkpt lat="42.70329348742961883544921875" lon="-0.06618962623178958892822265625">
        <ele>2229.199951171875</ele>
        <time>2021-08-21T13:31:44.000Z</time>
      </trkpt>
      <trkpt lat="42.7032936550676822662353515625" lon="-0.06613950245082378387451171875">
        <ele>2230.60009765625</ele>
        <time>2021-08-21T13:31:52.000Z</time>
      </trkpt>
      <trkpt lat="42.70328544080257415771484375" lon="-0.06611553020775318145751953125">
        <ele>2232</ele>
        <time>2021-08-21T13:31:56.000Z</time>
      </trkpt>
      <trkpt lat="42.7032742090523242950439453125" lon="-0.06609172560274600982666015625">
        <ele>2233.39990234375</ele>
        <time>2021-08-21T13:31:59.000Z</time>
      </trkpt>
      <trkpt lat="42.70326607860624790191650390625" lon="-0.06605945527553558349609375">
        <ele>2235</ele>
        <time>2021-08-21T13:32:04.000Z</time>
      </trkpt>
      <trkpt lat="42.703257612884044647216796875" lon="-0.0660264305770397186279296875">
        <ele>2236.60009765625</ele>
        <time>2021-08-21T13:32:10.000Z</time>
      </trkpt>
      <trkpt lat="42.703331373631954193115234375" lon="-0.06579198874533176422119140625">
        <ele>2238.60009765625</ele>
        <time>2021-08-21T13:32:46.000Z</time>
      </trkpt>
      <trkpt lat="42.703304551541805267333984375" lon="-0.06563675589859485626220703125">
        <ele>2245</ele>
        <time>2021-08-21T13:33:20.000Z</time>
      </trkpt>
      <trkpt lat="42.70330698229372501373291015625" lon="-0.0655831955373287200927734375">
        <ele>2246.39990234375</ele>
        <time>2021-08-21T13:33:27.000Z</time>
      </trkpt>
      <trkpt lat="42.70330497063696384429931640625" lon="-0.06555612199008464813232421875">
        <ele>2247.39990234375</ele>
        <time>2021-08-21T13:33:31.000Z</time>
      </trkpt>
      <trkpt lat="42.7033070661127567291259765625" lon="-0.065528713166713714599609375">
        <ele>2248</ele>
        <time>2021-08-21T13:33:34.000Z</time>
      </trkpt>
      <trkpt lat="42.7033630572259426116943359375" lon="-0.06543877534568309783935546875">
        <ele>2247</ele>
        <time>2021-08-21T13:33:52.000Z</time>
      </trkpt>
      <trkpt lat="42.70339943468570709228515625" lon="-0.065326206386089324951171875">
        <ele>2249.800048828125</ele>
        <time>2021-08-21T13:34:10.000Z</time>
      </trkpt>
      <trkpt lat="42.7034562639892101287841796875" lon="-0.0651454925537109375">
        <ele>2255</ele>
        <time>2021-08-21T13:34:38.000Z</time>
      </trkpt>
      <trkpt lat="42.70380981266498565673828125" lon="-0.06487249396741390228271484375">
        <ele>2264.199951171875</ele>
        <time>2021-08-21T13:35:15.000Z</time>
      </trkpt>
      <trkpt lat="42.70388768054544925689697265625" lon="-0.064750202000141143798828125">
        <ele>2268</ele>
        <time>2021-08-21T13:36:12.000Z</time>
      </trkpt>
      <trkpt lat="42.70388759672641754150390625" lon="-0.0647500343620777130126953125">
        <ele>2268</ele>
        <time>2021-08-21T13:36:13.000Z</time>
      </trkpt>
      <trkpt lat="42.70389287732541561126708984375" lon="-0.06475380621850490570068359375">
        <ele>2268</ele>
        <time>2021-08-21T13:36:28.000Z</time>
      </trkpt>
      <trkpt lat="42.70389991812407970428466796875" lon="-0.0647466816008090972900390625">
        <ele>2268.199951171875</ele>
        <time>2021-08-21T13:36:32.000Z</time>
      </trkpt>
      <trkpt lat="42.7038994990289211273193359375" lon="-0.06474575959146022796630859375">
        <ele>2268.199951171875</ele>
        <time>2021-08-21T13:36:33.000Z</time>
      </trkpt>
      <trkpt lat="42.70390025340020656585693359375" lon="-0.06474710069596767425537109375">
        <ele>2268.199951171875</ele>
        <time>2021-08-21T13:36:34.000Z</time>
      </trkpt>
      <trkpt lat="42.70389891229569911956787109375" lon="-0.06474274210631847381591796875">
        <ele>2268.199951171875</ele>
        <time>2021-08-21T13:36:36.000Z</time>
      </trkpt>
      <trkpt lat="42.70389773882925510406494140625" lon="-0.064740478992462158203125">
        <ele>2268.39990234375</ele>
        <time>2021-08-21T13:36:37.000Z</time>
      </trkpt>
      <trkpt lat="42.703893966972827911376953125" lon="-0.06473301909863948822021484375">
        <ele>2268.39990234375</ele>
        <time>2021-08-21T13:36:38.000Z</time>
      </trkpt>
      <trkpt lat="42.70389120094478130340576171875" lon="-0.06473201327025890350341796875">
        <ele>2268.39990234375</ele>
        <time>2021-08-21T13:36:39.000Z</time>
      </trkpt>
      <trkpt lat="42.70389120094478130340576171875" lon="-0.06473201327025890350341796875">
        <ele>2268.39990234375</ele>
        <time>2021-08-21T13:36:40.000Z</time>
      </trkpt>
      <trkpt lat="42.7038880996406078338623046875" lon="-0.0647292472422122955322265625">
        <ele>2268.60009765625</ele>
        <time>2021-08-21T13:36:43.000Z</time>
      </trkpt>
      <trkpt lat="42.703897990286350250244140625" lon="-0.0647507049143314361572265625">
        <ele>2268</ele>
        <time>2021-08-21T13:37:08.000Z</time>
      </trkpt>
      <trkpt lat="42.703897319734096527099609375" lon="-0.06475229747593402862548828125">
        <ele>2268</ele>
        <time>2021-08-21T13:37:10.000Z</time>
      </trkpt>
      <trkpt lat="42.7038948051631450653076171875" lon="-0.0647520460188388824462890625">
        <ele>2268</ele>
        <time>2021-08-21T13:37:12.000Z</time>
      </trkpt>
      <trkpt lat="42.70389304496347904205322265625" lon="-0.06475129164755344390869140625">
        <ele>2268</ele>
        <time>2021-08-21T13:37:13.000Z</time>
      </trkpt>
      <trkpt lat="42.703892290592193603515625" lon="-0.06474944762885570526123046875">
        <ele>2268</ele>
        <time>2021-08-21T13:37:14.000Z</time>
      </trkpt>
      <trkpt lat="42.703892625868320465087890625" lon="-0.0647471845149993896484375">
        <ele>2268</ele>
        <time>2021-08-21T13:37:16.000Z</time>
      </trkpt>
      <trkpt lat="42.7038934640586376190185546875" lon="-0.0647456757724285125732421875">
        <ele>2268.199951171875</ele>
        <time>2021-08-21T13:37:17.000Z</time>
      </trkpt>
      <trkpt lat="42.70389824174344539642333984375" lon="-0.06474123336374759674072265625">
        <ele>2268.199951171875</ele>
        <time>2021-08-21T13:37:23.000Z</time>
      </trkpt>
      <trkpt lat="42.7038884349167346954345703125" lon="-0.0647191889584064483642578125">
        <ele>2268.800048828125</ele>
        <time>2021-08-21T13:37:39.000Z</time>
      </trkpt>
      <trkpt lat="42.70388600416481494903564453125" lon="-0.064719356596469879150390625">
        <ele>2268.800048828125</ele>
        <time>2021-08-21T13:37:57.000Z</time>
      </trkpt>
      <trkpt lat="42.70388751290738582611083984375" lon="-0.06471910513937473297119140625">
        <ele>2268.800048828125</ele>
        <time>2021-08-21T13:37:58.000Z</time>
      </trkpt>
      <trkpt lat="42.70388784818351268768310546875" lon="-0.06471843458712100982666015625">
        <ele>2268.800048828125</ele>
        <time>2021-08-21T13:38:02.000Z</time>
      </trkpt>
      <trkpt lat="42.70388751290738582611083984375" lon="-0.06471826694905757904052734375">
        <ele>2268.800048828125</ele>
        <time>2021-08-21T13:38:03.000Z</time>
      </trkpt>
      <trkpt lat="42.7038837410509586334228515625" lon="-0.06471994332969188690185546875">
        <ele>2268.800048828125</ele>
        <time>2021-08-21T13:38:10.000Z</time>
      </trkpt>
      <trkpt lat="42.7038837410509586334228515625" lon="-0.06472061388194561004638671875">
        <ele>2268.800048828125</ele>
        <time>2021-08-21T13:38:11.000Z</time>
      </trkpt>
      <trkpt lat="42.703881226480007171630859375" lon="-0.06472547538578510284423828125">
        <ele>2268.60009765625</ele>
        <time>2021-08-21T13:38:12.000Z</time>
      </trkpt>
      <trkpt lat="42.70388625562191009521484375" lon="-0.064722038805484771728515625">
        <ele>2268.800048828125</ele>
        <time>2021-08-21T13:38:23.000Z</time>
      </trkpt>
      <trkpt lat="42.70391114987432956695556640625" lon="-0.064669065177440643310546875">
        <ele>2270.199951171875</ele>
        <time>2021-08-21T13:38:31.000Z</time>
      </trkpt>
      <trkpt lat="42.703922800719738006591796875" lon="-0.06453269161283969879150390625">
        <ele>2272.199951171875</ele>
        <time>2021-08-21T13:38:40.000Z</time>
      </trkpt>
      <trkpt lat="42.70392707549035549163818359375" lon="-0.06446664221584796905517578125">
        <ele>2272</ele>
        <time>2021-08-21T13:38:45.000Z</time>
      </trkpt>
      <trkpt lat="42.70393998362123966217041015625" lon="-0.06441048346459865570068359375">
        <ele>2272</ele>
        <time>2021-08-21T13:38:49.000Z</time>
      </trkpt>
      <trkpt lat="42.70394601859152317047119140625" lon="-0.06438181735575199127197265625">
        <ele>2272</ele>
        <time>2021-08-21T13:38:50.000Z</time>
      </trkpt>
      <trkpt lat="42.70394861698150634765625" lon="-0.064367987215518951416015625">
        <ele>2272</ele>
        <time>2021-08-21T13:38:52.000Z</time>
      </trkpt>
      <trkpt lat="42.70394987426698207855224609375" lon="-0.06434041075408458709716796875">
        <ele>2271.800048828125</ele>
        <time>2021-08-21T13:38:54.000Z</time>
      </trkpt>
      <trkpt lat="42.703955657780170440673828125" lon="-0.0643034465610980987548828125">
        <ele>2271.800048828125</ele>
        <time>2021-08-21T13:38:57.000Z</time>
      </trkpt>
      <trkpt lat="42.70395490340888500213623046875" lon="-0.06428173743188381195068359375">
        <ele>2271.800048828125</ele>
        <time>2021-08-21T13:38:59.000Z</time>
      </trkpt>
      <trkpt lat="42.703954316675662994384765625" lon="-0.0642601959407329559326171875">
        <ele>2271.800048828125</ele>
        <time>2021-08-21T13:39:04.000Z</time>
      </trkpt>
      <trkpt lat="42.7039553225040435791015625" lon="-0.06425910629332065582275390625">
        <ele>2271.800048828125</ele>
        <time>2021-08-21T13:39:06.000Z</time>
      </trkpt>
      <trkpt lat="42.70395926199853420257568359375" lon="-0.0642585195600986480712890625">
        <ele>2271.800048828125</ele>
        <time>2021-08-21T13:39:08.000Z</time>
      </trkpt>
      <trkpt lat="42.7039642073214054107666015625" lon="-0.064270757138729095458984375">
        <ele>2271.800048828125</ele>
        <time>2021-08-21T13:39:29.000Z</time>
      </trkpt>
      <trkpt lat="42.70395758561789989471435546875" lon="-0.0642736069858074188232421875">
        <ele>2271.800048828125</ele>
        <time>2021-08-21T13:39:43.000Z</time>
      </trkpt>
      <trkpt lat="42.70396001636981964111328125" lon="-0.06427620537579059600830078125">
        <ele>2271.800048828125</ele>
        <time>2021-08-21T13:39:50.000Z</time>
      </trkpt>
      <trkpt lat="42.7039625309407711029052734375" lon="-0.06427570246160030364990234375">
        <ele>2271.800048828125</ele>
        <time>2021-08-21T13:39:54.000Z</time>
      </trkpt>
      <trkpt lat="42.7039638720452785491943359375" lon="-0.06427670828998088836669921875">
        <ele>2271.800048828125</ele>
        <time>2021-08-21T13:40:00.000Z</time>
      </trkpt>
      <trkpt lat="42.70396781153976917266845703125" lon="-0.0642705895006656646728515625">
        <ele>2271.800048828125</ele>
        <time>2021-08-21T13:40:08.000Z</time>
      </trkpt>
      <trkpt lat="42.70396613515913486480712890625" lon="-0.06427268497645854949951171875">
        <ele>2271.800048828125</ele>
        <time>2021-08-21T13:40:09.000Z</time>
      </trkpt>
      <trkpt lat="42.7039632014930248260498046875" lon="-0.064272768795490264892578125">
        <ele>2271.800048828125</ele>
        <time>2021-08-21T13:40:10.000Z</time>
      </trkpt>
      <trkpt lat="42.70397334359586238861083984375" lon="-0.0642724335193634033203125">
        <ele>2271.800048828125</ele>
        <time>2021-08-21T13:40:17.000Z</time>
      </trkpt>
      <trkpt lat="42.7039732597768306732177734375" lon="-0.06427201442420482635498046875">
        <ele>2271.800048828125</ele>
        <time>2021-08-21T13:40:35.000Z</time>
      </trkpt>
      <trkpt lat="42.70397082902491092681884765625" lon="-0.0642697513103485107421875">
        <ele>2271.800048828125</ele>
        <time>2021-08-21T13:40:36.000Z</time>
      </trkpt>
      <trkpt lat="42.70397082902491092681884765625" lon="-0.0642697513103485107421875">
        <ele>2271.800048828125</ele>
        <time>2021-08-21T13:40:37.000Z</time>
      </trkpt>
      <trkpt lat="42.7039722539484500885009765625" lon="-0.06426530890166759490966796875">
        <ele>2271.800048828125</ele>
        <time>2021-08-21T13:40:39.000Z</time>
      </trkpt>
      <trkpt lat="42.70397569052875041961669921875" lon="-0.0642615370452404022216796875">
        <ele>2271.800048828125</ele>
        <time>2021-08-21T13:40:44.000Z</time>
      </trkpt>
      <trkpt lat="42.70396680571138858795166015625" lon="-0.06426866166293621063232421875">
        <ele>2271.800048828125</ele>
        <time>2021-08-21T13:40:47.000Z</time>
      </trkpt>
      <trkpt lat="42.70396429114043712615966796875" lon="-0.0642764568328857421875">
        <ele>2271.800048828125</ele>
        <time>2021-08-21T13:40:48.000Z</time>
      </trkpt>
      <trkpt lat="42.70395725034177303314208984375" lon="-0.06428182125091552734375">
        <ele>2271.800048828125</ele>
        <time>2021-08-21T13:40:53.000Z</time>
      </trkpt>
      <trkpt lat="42.70395733416080474853515625" lon="-0.06428207270801067352294921875">
        <ele>2271.800048828125</ele>
        <time>2021-08-21T13:40:55.000Z</time>
      </trkpt>
      <trkpt lat="42.70395993255078792572021484375" lon="-0.0642850063741207122802734375">
        <ele>2271.800048828125</ele>
        <time>2021-08-21T13:40:57.000Z</time>
      </trkpt>
      <trkpt lat="42.7039642073214054107666015625" lon="-0.06429498083889484405517578125">
        <ele>2271.800048828125</ele>
        <time>2021-08-21T13:41:11.000Z</time>
      </trkpt>
      <trkpt lat="42.70396194420754909515380859375" lon="-0.06429866887629032135009765625">
        <ele>2271.800048828125</ele>
        <time>2021-08-21T13:41:15.000Z</time>
      </trkpt>
      <trkpt lat="42.70393914543092250823974609375" lon="-0.0642518140375614166259765625">
        <ele>2271.60009765625</ele>
        <time>2021-08-21T13:41:26.000Z</time>
      </trkpt>
      <trkpt lat="42.70390561781823635101318359375" lon="-0.06418433971703052520751953125">
        <ele>2271.199951171875</ele>
        <time>2021-08-21T13:41:31.000Z</time>
      </trkpt>
      <trkpt lat="42.70385784097015857696533203125" lon="-0.064110495150089263916015625">
        <ele>2270.800048828125</ele>
        <time>2021-08-21T13:41:38.000Z</time>
      </trkpt>
      <trkpt lat="42.7037415839731693267822265625" lon="-0.0639720261096954345703125">
        <ele>2276.60009765625</ele>
        <time>2021-08-21T13:42:25.000Z</time>
      </trkpt>
      <trkpt lat="42.70371702499687671661376953125" lon="-0.0639249198138713836669921875">
        <ele>2278.199951171875</ele>
        <time>2021-08-21T13:42:34.000Z</time>
      </trkpt>
      <trkpt lat="42.70371099002659320831298828125" lon="-0.06391963921487331390380859375">
        <ele>2278.60009765625</ele>
        <time>2021-08-21T13:42:35.000Z</time>
      </trkpt>
      <trkpt lat="42.703700847923755645751953125" lon="-0.0639151968061923980712890625">
        <ele>2278.800048828125</ele>
        <time>2021-08-21T13:42:39.000Z</time>
      </trkpt>
      <trkpt lat="42.7036691643297672271728515625" lon="-0.06388954818248748779296875">
        <ele>2280.199951171875</ele>
        <time>2021-08-21T13:42:46.000Z</time>
      </trkpt>
      <trkpt lat="42.70365851931273937225341796875" lon="-0.063884519040584564208984375">
        <ele>2280.60009765625</ele>
        <time>2021-08-21T13:42:59.000Z</time>
      </trkpt>
      <trkpt lat="42.703627087175846099853515625" lon="-0.0636929087340831756591796875">
        <ele>2283.199951171875</ele>
        <time>2021-08-21T13:43:24.000Z</time>
      </trkpt>
      <trkpt lat="42.70362901501357555389404296875" lon="-0.06365862675011157989501953125">
        <ele>2282.60009765625</ele>
        <time>2021-08-21T13:43:27.000Z</time>
      </trkpt>
      <trkpt lat="42.7035481296479701995849609375" lon="-0.0632865540683269500732421875">
        <ele>2286</ele>
        <time>2021-08-21T13:44:07.000Z</time>
      </trkpt>
      <trkpt lat="42.70348786376416683197021484375" lon="-0.06308279000222682952880859375">
        <ele>2291.199951171875</ele>
        <time>2021-08-21T13:44:32.000Z</time>
      </trkpt>
      <trkpt lat="42.70347763784229755401611328125" lon="-0.06305311806499958038330078125">
        <ele>2292</ele>
        <time>2021-08-21T13:44:42.000Z</time>
      </trkpt>
      <trkpt lat="42.70347990095615386962890625" lon="-0.06305269896984100341796875">
        <ele>2292</ele>
        <time>2021-08-21T13:44:47.000Z</time>
      </trkpt>
      <trkpt lat="42.7035008557140827178955078125" lon="-0.06301489658653736114501953125">
        <ele>2291.39990234375</ele>
        <time>2021-08-21T13:44:56.000Z</time>
      </trkpt>
      <trkpt lat="42.70351619459688663482666015625" lon="-0.0630129687488079071044921875">
        <ele>2290.60009765625</ele>
        <time>2021-08-21T13:45:05.000Z</time>
      </trkpt>
      <trkpt lat="42.7035082317888736724853515625" lon="-0.06301690824329853057861328125">
        <ele>2291</ele>
        <time>2021-08-21T13:45:21.000Z</time>
      </trkpt>
      <trkpt lat="42.7035129256546497344970703125" lon="-0.0629532895982265472412109375">
        <ele>2291.39990234375</ele>
        <time>2021-08-21T13:45:35.000Z</time>
      </trkpt>
      <trkpt lat="42.70351686514914035797119140625" lon="-0.062847845256328582763671875">
        <ele>2289.800048828125</ele>
        <time>2021-08-21T13:45:43.000Z</time>
      </trkpt>
      <trkpt lat="42.70350630395114421844482421875" lon="-0.0626931153237819671630859375">
        <ele>2289.60009765625</ele>
        <time>2021-08-21T13:45:59.000Z</time>
      </trkpt>
      <trkpt lat="42.70349959842860698699951171875" lon="-0.0626626051962375640869140625">
        <ele>2290.39990234375</ele>
        <time>2021-08-21T13:46:02.000Z</time>
      </trkpt>
      <trkpt lat="42.7034790627658367156982421875" lon="-0.06263033486902713775634765625">
        <ele>2292.199951171875</ele>
        <time>2021-08-21T13:46:08.000Z</time>
      </trkpt>
      <trkpt lat="42.7034666575491428375244140625" lon="-0.062535367906093597412109375">
        <ele>2294</ele>
        <time>2021-08-21T13:46:19.000Z</time>
      </trkpt>
      <trkpt lat="42.7034671604633331298828125" lon="-0.06249940954148769378662109375">
        <ele>2294.199951171875</ele>
        <time>2021-08-21T13:46:24.000Z</time>
      </trkpt>
      <trkpt lat="42.70346808247268199920654296875" lon="-0.062275864183902740478515625">
        <ele>2295.800048828125</ele>
        <time>2021-08-21T13:46:53.000Z</time>
      </trkpt>
      <trkpt lat="42.703423239290714263916015625" lon="-0.06191988475620746612548828125">
        <ele>2301.39990234375</ele>
        <time>2021-08-21T13:47:29.000Z</time>
      </trkpt>
      <trkpt lat="42.7033972553908824920654296875" lon="-0.061889626085758209228515625">
        <ele>2304</ele>
        <time>2021-08-21T13:47:33.000Z</time>
      </trkpt>
      <trkpt lat="42.70323959179222583770751953125" lon="-0.06136165000498294830322265625">
        <ele>2315.800048828125</ele>
        <time>2021-08-21T13:48:36.000Z</time>
      </trkpt>
      <trkpt lat="42.703248560428619384765625" lon="-0.06127196364104747772216796875">
        <ele>2315.800048828125</ele>
        <time>2021-08-21T13:48:46.000Z</time>
      </trkpt>
      <trkpt lat="42.70323456265032291412353515625" lon="-0.0611444748938083648681640625">
        <ele>2316.39990234375</ele>
        <time>2021-08-21T13:49:01.000Z</time>
      </trkpt>
      <trkpt lat="42.70326222293078899383544921875" lon="-0.06084666587412357330322265625">
        <ele>2315.199951171875</ele>
        <time>2021-08-21T13:49:28.000Z</time>
      </trkpt>
      <trkpt lat="42.70322601310908794403076171875" lon="-0.0606630183756351470947265625">
        <ele>2316.800048828125</ele>
        <time>2021-08-21T13:49:42.000Z</time>
      </trkpt>
      <trkpt lat="42.703176476061344146728515625" lon="-0.06033218465745449066162109375">
        <ele>2318.60009765625</ele>
        <time>2021-08-21T13:50:07.000Z</time>
      </trkpt>
      <trkpt lat="42.7031826786696910858154296875" lon="-0.06030854769051074981689453125">
        <ele>2318.39990234375</ele>
        <time>2021-08-21T13:50:09.000Z</time>
      </trkpt>
      <trkpt lat="42.7031441219151020050048828125" lon="-0.0598992593586444854736328125">
        <ele>2319.800048828125</ele>
        <time>2021-08-21T13:50:38.000Z</time>
      </trkpt>
      <trkpt lat="42.70313967950642108917236328125" lon="-0.05988324992358684539794921875">
        <ele>2320</ele>
        <time>2021-08-21T13:50:39.000Z</time>
      </trkpt>
      <trkpt lat="42.70311805419623851776123046875" lon="-0.0598238222301006317138671875">
        <ele>2320.800048828125</ele>
        <time>2021-08-21T13:50:43.000Z</time>
      </trkpt>
      <trkpt lat="42.70305669866502285003662109375" lon="-0.05954839289188385009765625">
        <ele>2321</ele>
        <time>2021-08-21T13:51:01.000Z</time>
      </trkpt>
      <trkpt lat="42.70302166230976581573486328125" lon="-0.05939156748354434967041015625">
        <ele>2321.800048828125</ele>
        <time>2021-08-21T13:51:13.000Z</time>
      </trkpt>
      <trkpt lat="42.70298142917454242706298828125" lon="-0.05925695411860942840576171875">
        <ele>2322.60009765625</ele>
        <time>2021-08-21T13:51:23.000Z</time>
      </trkpt>
      <trkpt lat="42.7029556967318058013916015625" lon="-0.05905578844249248504638671875">
        <ele>2321.800048828125</ele>
        <time>2021-08-21T13:51:38.000Z</time>
      </trkpt>
      <trkpt lat="42.70295829512178897857666015625" lon="-0.05895520560443401336669921875">
        <ele>2320.39990234375</ele>
        <time>2021-08-21T13:51:50.000Z</time>
      </trkpt>
      <trkpt lat="42.70294069312512874603271484375" lon="-0.05878069438040256500244140625">
        <ele>2318.39990234375</ele>
        <time>2021-08-21T13:52:01.000Z</time>
      </trkpt>
      <trkpt lat="42.70286240614950656890869140625" lon="-0.05862864665687084197998046875">
        <ele>2319.60009765625</ele>
        <time>2021-08-21T13:52:14.000Z</time>
      </trkpt>
      <trkpt lat="42.702820412814617156982421875" lon="-0.058494620025157928466796875">
        <ele>2320.199951171875</ele>
        <time>2021-08-21T13:52:30.000Z</time>
      </trkpt>
      <trkpt lat="42.702753357589244842529296875" lon="-0.05789238028228282928466796875">
        <ele>2317.199951171875</ele>
        <time>2021-08-21T13:53:10.000Z</time>
      </trkpt>
      <trkpt lat="42.7027545310556888580322265625" lon="-0.05782498978078365325927734375">
        <ele>2316.800048828125</ele>
        <time>2021-08-21T13:53:43.000Z</time>
      </trkpt>
      <trkpt lat="42.70275813527405261993408203125" lon="-0.05782515741884708404541015625">
        <ele>2316.800048828125</ele>
        <time>2021-08-21T13:53:44.000Z</time>
      </trkpt>
      <trkpt lat="42.7027671039104461669921875" lon="-0.05782884545624256134033203125">
        <ele>2316.60009765625</ele>
        <time>2021-08-21T13:53:49.000Z</time>
      </trkpt>
      <trkpt lat="42.70276601426303386688232421875" lon="-0.05780235864222049713134765625">
        <ele>2316.60009765625</ele>
        <time>2021-08-21T13:53:57.000Z</time>
      </trkpt>
      <trkpt lat="42.70276500843465328216552734375" lon="-0.05773697979748249053955078125">
        <ele>2316.199951171875</ele>
        <time>2021-08-21T13:54:03.000Z</time>
      </trkpt>
      <trkpt lat="42.702733911573886871337890625" lon="-0.05764209665358066558837890625">
        <ele>2316.199951171875</ele>
        <time>2021-08-21T13:54:12.000Z</time>
      </trkpt>
      <trkpt lat="42.7027308940887451171875" lon="-0.05762466229498386383056640625">
        <ele>2316.199951171875</ele>
        <time>2021-08-21T13:54:14.000Z</time>
      </trkpt>
      <trkpt lat="42.7027112804353237152099609375" lon="-0.05754134617745876312255859375">
        <ele>2316</ele>
        <time>2021-08-21T13:54:23.000Z</time>
      </trkpt>
      <trkpt lat="42.7027082629501819610595703125" lon="-0.05753405392169952392578125">
        <ele>2316</ele>
        <time>2021-08-21T13:54:24.000Z</time>
      </trkpt>
      <trkpt lat="42.70270382054150104522705078125" lon="-0.05751033313572406768798828125">
        <ele>2315.800048828125</ele>
        <time>2021-08-21T13:54:26.000Z</time>
      </trkpt>
      <trkpt lat="42.702699713408946990966796875" lon="-0.057494826614856719970703125">
        <ele>2315.800048828125</ele>
        <time>2021-08-21T13:54:27.000Z</time>
      </trkpt>
      <trkpt lat="42.702696025371551513671875" lon="-0.0574799068272113800048828125">
        <ele>2315.800048828125</ele>
        <time>2021-08-21T13:54:28.000Z</time>
      </trkpt>
      <trkpt lat="42.7026854641735553741455078125" lon="-0.05745182745158672332763671875">
        <ele>2315.800048828125</ele>
        <time>2021-08-21T13:54:30.000Z</time>
      </trkpt>
      <trkpt lat="42.70267389714717864990234375" lon="-0.0573437847197055816650390625">
        <ele>2315.39990234375</ele>
        <time>2021-08-21T13:54:44.000Z</time>
      </trkpt>
      <trkpt lat="42.702659480273723602294921875" lon="-0.0571922399103641510009765625">
        <ele>2314.60009765625</ele>
        <time>2021-08-21T13:55:45.000Z</time>
      </trkpt>
      <trkpt lat="42.70265939645469188690185546875" lon="-0.05719198845326900482177734375">
        <ele>2314.60009765625</ele>
        <time>2021-08-21T13:55:52.000Z</time>
      </trkpt>
      <trkpt lat="42.70265939645469188690185546875" lon="-0.05719207227230072021484375">
        <ele>2314.60009765625</ele>
        <time>2021-08-21T13:55:54.000Z</time>
      </trkpt>
      <trkpt lat="42.70268739201128482818603515625" lon="-0.057218559086322784423828125">
        <ele>2314.39990234375</ele>
        <time>2021-08-21T13:56:29.000Z</time>
      </trkpt>
      <trkpt lat="42.702682949602603912353515625" lon="-0.05720053799450397491455078125">
        <ele>2314.39990234375</ele>
        <time>2021-08-21T13:56:35.000Z</time>
      </trkpt>
      <trkpt lat="42.702674902975559234619140625" lon="-0.057234652340412139892578125">
        <ele>2314.60009765625</ele>
        <time>2021-08-21T13:57:16.000Z</time>
      </trkpt>
      <trkpt lat="42.70267766900360584259033203125" lon="-0.057229958474636077880859375">
        <ele>2314.60009765625</ele>
        <time>2021-08-21T13:57:41.000Z</time>
      </trkpt>
      <trkpt lat="42.70268420688807964324951171875" lon="-0.0572284497320652008056640625">
        <ele>2314.39990234375</ele>
        <time>2021-08-21T13:57:59.000Z</time>
      </trkpt>
      <trkpt lat="42.7026884816586971282958984375" lon="-0.057221911847591400146484375">
        <ele>2314.39990234375</ele>
        <time>2021-08-21T13:58:44.000Z</time>
      </trkpt>
      <trkpt lat="42.7026464045047760009765625" lon="-0.05712074227631092071533203125">
        <ele>2314.39990234375</ele>
        <time>2021-08-21T13:59:29.000Z</time>
      </trkpt>
      <trkpt lat="42.702690996229648590087890625" lon="-0.05700708366930484771728515625">
        <ele>2313</ele>
        <time>2021-08-21T13:59:38.000Z</time>
      </trkpt>
      <trkpt lat="42.7026857994496822357177734375" lon="-0.0569813512265682220458984375">
        <ele>2313</ele>
        <time>2021-08-21T13:59:40.000Z</time>
      </trkpt>
      <trkpt lat="42.702678255736827850341796875" lon="-0.0569709576666355133056640625">
        <ele>2313</ele>
        <time>2021-08-21T13:59:41.000Z</time>
      </trkpt>
      <trkpt lat="42.70263056270778179168701171875" lon="-0.05690096877515316009521484375">
        <ele>2314</ele>
        <time>2021-08-21T13:59:48.000Z</time>
      </trkpt>
      <trkpt lat="42.7026207558810710906982421875" lon="-0.05686190910637378692626953125">
        <ele>2314.199951171875</ele>
        <time>2021-08-21T13:59:51.000Z</time>
      </trkpt>
      <trkpt lat="42.70256585441529750823974609375" lon="-0.05668639205396175384521484375">
        <ele>2315.39990234375</ele>
        <time>2021-08-21T14:00:04.000Z</time>
      </trkpt>
      <trkpt lat="42.70253802649676799774169921875" lon="-0.05654524080455303192138671875">
        <ele>2316</ele>
        <time>2021-08-21T14:00:13.000Z</time>
      </trkpt>
      <trkpt lat="42.70256015472114086151123046875" lon="-0.05643744952976703643798828125">
        <ele>2315.39990234375</ele>
        <time>2021-08-21T14:00:20.000Z</time>
      </trkpt>
      <trkpt lat="42.70255831070244312286376953125" lon="-0.0562437437474727630615234375">
        <ele>2315.39990234375</ele>
        <time>2021-08-21T14:00:34.000Z</time>
      </trkpt>
      <trkpt lat="42.7025337517261505126953125" lon="-0.0561882555484771728515625">
        <ele>2315.39990234375</ele>
        <time>2021-08-21T14:00:40.000Z</time>
      </trkpt>
      <trkpt lat="42.70224030129611492156982421875" lon="-0.0557133369147777557373046875">
        <ele>2319.39990234375</ele>
        <time>2021-08-21T14:01:18.000Z</time>
      </trkpt>
      <trkpt lat="42.70223594270646572113037109375" lon="-0.05542206577956676483154296875">
        <ele>2316.39990234375</ele>
        <time>2021-08-21T14:01:40.000Z</time>
      </trkpt>
      <trkpt lat="42.7022422291338443756103515625" lon="-0.055240429937839508056640625">
        <ele>2316</ele>
        <time>2021-08-21T14:01:52.000Z</time>
      </trkpt>
      <trkpt lat="42.70216561853885650634765625" lon="-0.05463718436658382415771484375">
        <ele>2317.39990234375</ele>
        <time>2021-08-21T14:02:34.000Z</time>
      </trkpt>
      <trkpt lat="42.70225857384502887725830078125" lon="-0.05433074198663234710693359375">
        <ele>2315.60009765625</ele>
        <time>2021-08-21T14:02:55.000Z</time>
      </trkpt>
      <trkpt lat="42.70228824578225612640380859375" lon="-0.0542061030864715576171875">
        <ele>2315</ele>
        <time>2021-08-21T14:03:03.000Z</time>
      </trkpt>
      <trkpt lat="42.702325545251369476318359375" lon="-0.05362867377698421478271484375">
        <ele>2316.60009765625</ele>
        <time>2021-08-21T14:03:41.000Z</time>
      </trkpt>
      <trkpt lat="42.7023649401962757110595703125" lon="-0.05301075987517833709716796875">
        <ele>2316.39990234375</ele>
        <time>2021-08-21T14:04:16.000Z</time>
      </trkpt>
      <trkpt lat="42.70241640508174896240234375" lon="-0.05276114679872989654541015625">
        <ele>2314</ele>
        <time>2021-08-21T14:04:30.000Z</time>
      </trkpt>
      <trkpt lat="42.702424116432666778564453125" lon="-0.05234129726886749267578125">
        <ele>2311.800048828125</ele>
        <time>2021-08-21T14:04:54.000Z</time>
      </trkpt>
      <trkpt lat="42.70241447724401950836181640625" lon="-0.05211708135902881622314453125">
        <ele>2312.199951171875</ele>
        <time>2021-08-21T14:05:12.000Z</time>
      </trkpt>
      <trkpt lat="42.70232026465237140655517578125" lon="-0.0515555776655673980712890625">
        <ele>2317.800048828125</ele>
        <time>2021-08-21T14:05:54.000Z</time>
      </trkpt>
      <trkpt lat="42.70229528658092021942138671875" lon="-0.05145549774169921875">
        <ele>2319.39990234375</ele>
        <time>2021-08-21T14:06:03.000Z</time>
      </trkpt>
      <trkpt lat="42.70225555635988712310791015625" lon="-0.0512159429490566253662109375">
        <ele>2322.39990234375</ele>
        <time>2021-08-21T14:06:25.000Z</time>
      </trkpt>
      <trkpt lat="42.70224734209477901458740234375" lon="-0.05062527023255825042724609375">
        <ele>2322.199951171875</ele>
        <time>2021-08-21T14:07:08.000Z</time>
      </trkpt>
      <trkpt lat="42.70221658051013946533203125" lon="-0.05055737681686878204345703125">
        <ele>2323.800048828125</ele>
        <time>2021-08-21T14:07:13.000Z</time>
      </trkpt>
      <trkpt lat="42.70211323164403438568115234375" lon="-0.0501889921724796295166015625">
        <ele>2328.199951171875</ele>
        <time>2021-08-21T14:08:04.000Z</time>
      </trkpt>
      <trkpt lat="42.70211306400597095489501953125" lon="-0.05018924362957477569580078125">
        <ele>2328.199951171875</ele>
        <time>2021-08-21T14:08:05.000Z</time>
      </trkpt>
      <trkpt lat="42.702078111469745635986328125" lon="-0.05011749453842639923095703125">
        <ele>2329.39990234375</ele>
        <time>2021-08-21T14:08:28.000Z</time>
      </trkpt>
      <trkpt lat="42.7020769380033016204833984375" lon="-0.05010123364627361297607421875">
        <ele>2329.60009765625</ele>
        <time>2021-08-21T14:08:29.000Z</time>
      </trkpt>
      <trkpt lat="42.70207853056490421295166015625" lon="-0.05007307045161724090576171875">
        <ele>2329.39990234375</ele>
        <time>2021-08-21T14:08:30.000Z</time>
      </trkpt>
      <trkpt lat="42.70207853056490421295166015625" lon="-0.05007307045161724090576171875">
        <ele>2329.39990234375</ele>
        <time>2021-08-21T14:08:31.000Z</time>
      </trkpt>
      <trkpt lat="42.70208909176290035247802734375" lon="-0.050028897821903228759765625">
        <ele>2328.800048828125</ele>
        <time>2021-08-21T14:08:34.000Z</time>
      </trkpt>
      <trkpt lat="42.7020940370857715606689453125" lon="-0.04999302327632904052734375">
        <ele>2328.800048828125</ele>
        <time>2021-08-21T14:08:37.000Z</time>
      </trkpt>
      <trkpt lat="42.70210283808410167694091796875" lon="-0.049667470157146453857421875">
        <ele>2329.800048828125</ele>
        <time>2021-08-21T14:09:06.000Z</time>
      </trkpt>
      <trkpt lat="42.7021017484366893768310546875" lon="-0.04959329031407833099365234375">
        <ele>2330.199951171875</ele>
        <time>2021-08-21T14:09:16.000Z</time>
      </trkpt>
      <trkpt lat="42.70209780894219875335693359375" lon="-0.04941291175782680511474609375">
        <ele>2332.60009765625</ele>
        <time>2021-08-21T14:09:35.000Z</time>
      </trkpt>
      <trkpt lat="42.7020893432199954986572265625" lon="-0.0493538193404674530029296875">
        <ele>2333.800048828125</ele>
        <time>2021-08-21T14:09:41.000Z</time>
      </trkpt>
      <trkpt lat="42.7020558156073093414306640625" lon="-0.04930813796818256378173828125">
        <ele>2336</ele>
        <time>2021-08-21T14:09:47.000Z</time>
      </trkpt>
      <trkpt lat="42.70202706567943096160888671875" lon="-0.0490321218967437744140625">
        <ele>2339.199951171875</ele>
        <time>2021-08-21T14:10:20.000Z</time>
      </trkpt>
      <trkpt lat="42.70201139152050018310546875" lon="-0.0488187186419963836669921875">
        <ele>2341</ele>
        <time>2021-08-21T14:10:43.000Z</time>
      </trkpt>
      <trkpt lat="42.70201985724270343780517578125" lon="-0.048577822744846343994140625">
        <ele>2342.39990234375</ele>
        <time>2021-08-21T14:11:12.000Z</time>
      </trkpt>
      <trkpt lat="42.701997645199298858642578125" lon="-0.04832829348742961883544921875">
        <ele>2344.39990234375</ele>
        <time>2021-08-21T14:11:30.000Z</time>
      </trkpt>
      <trkpt lat="42.70201264880597591400146484375" lon="-0.04826978780329227447509765625">
        <ele>2344</ele>
        <time>2021-08-21T14:11:34.000Z</time>
      </trkpt>
      <trkpt lat="42.70204299129545688629150390625" lon="-0.0480606593191623687744140625">
        <ele>2343</ele>
        <time>2021-08-21T14:11:47.000Z</time>
      </trkpt>
      <trkpt lat="42.70205355249345302581787109375" lon="-0.04768456332385540008544921875">
        <ele>2343.39990234375</ele>
        <time>2021-08-21T14:12:12.000Z</time>
      </trkpt>
      <trkpt lat="42.702053301036357879638671875" lon="-0.04768892191350460052490234375">
        <ele>2343.39990234375</ele>
        <time>2021-08-21T14:12:42.000Z</time>
      </trkpt>
      <trkpt lat="42.70205455832183361053466796875" lon="-0.04769093357026576995849609375">
        <ele>2343.39990234375</ele>
        <time>2021-08-21T14:12:53.000Z</time>
      </trkpt>
      <trkpt lat="42.70206327550113201141357421875" lon="-0.04769311286509037017822265625">
        <ele>2343</ele>
        <time>2021-08-21T14:13:05.000Z</time>
      </trkpt>
      <trkpt lat="42.70206243731081485748291015625" lon="-0.0476963818073272705078125">
        <ele>2343</ele>
        <time>2021-08-21T14:13:13.000Z</time>
      </trkpt>
      <trkpt lat="42.70206260494887828826904296875" lon="-0.04769613035023212432861328125">
        <ele>2343</ele>
        <time>2021-08-21T14:13:18.000Z</time>
      </trkpt>
      <trkpt lat="42.702062688767910003662109375" lon="-0.0476963818073272705078125">
        <ele>2343</ele>
        <time>2021-08-21T14:13:26.000Z</time>
      </trkpt>
      <trkpt lat="42.7020625211298465728759765625" lon="-0.04769646562635898590087890625">
        <ele>2343</ele>
        <time>2021-08-21T14:13:32.000Z</time>
      </trkpt>
      <trkpt lat="42.70206294022500514984130859375" lon="-0.0476968847215175628662109375">
        <ele>2343</ele>
        <time>2021-08-21T14:13:36.000Z</time>
      </trkpt>
      <trkpt lat="42.7020628564059734344482421875" lon="-0.0476968847215175628662109375">
        <ele>2343</ele>
        <time>2021-08-21T14:13:44.000Z</time>
      </trkpt>
      <trkpt lat="42.70206277258694171905517578125" lon="-0.04769696854054927825927734375">
        <ele>2343</ele>
        <time>2021-08-21T14:13:56.000Z</time>
      </trkpt>
      <trkpt lat="42.70206344313919544219970703125" lon="-0.0476936995983123779296875">
        <ele>2343</ele>
        <time>2021-08-21T14:14:05.000Z</time>
      </trkpt>
      <trkpt lat="42.7019850723445415496826171875" lon="-0.04763544537127017974853515625">
        <ele>2346</ele>
        <time>2021-08-21T14:14:38.000Z</time>
      </trkpt>
      <trkpt lat="42.70187862217426300048828125" lon="-0.047600828111171722412109375">
        <ele>2349.800048828125</ele>
        <time>2021-08-21T14:14:48.000Z</time>
      </trkpt>
      <trkpt lat="42.70185842178761959075927734375" lon="-0.04758079536259174346923828125">
        <ele>2350.60009765625</ele>
        <time>2021-08-21T14:14:50.000Z</time>
      </trkpt>
      <trkpt lat="42.70184350199997425079345703125" lon="-0.04756386391818523406982421875">
        <ele>2351</ele>
        <time>2021-08-21T14:14:51.000Z</time>
      </trkpt>
      <trkpt lat="42.70184350199997425079345703125" lon="-0.04756386391818523406982421875">
        <ele>2351</ele>
        <time>2021-08-21T14:14:52.000Z</time>
      </trkpt>
      <trkpt lat="42.701817937195301055908203125" lon="-0.0475349463522434234619140625">
        <ele>2352</ele>
        <time>2021-08-21T14:14:56.000Z</time>
      </trkpt>
      <trkpt lat="42.70180494524538516998291015625" lon="-0.04751826636493206024169921875">
        <ele>2352.39990234375</ele>
        <time>2021-08-21T14:14:57.000Z</time>
      </trkpt>
      <trkpt lat="42.70180494524538516998291015625" lon="-0.04751826636493206024169921875">
        <ele>2352.39990234375</ele>
        <time>2021-08-21T14:14:58.000Z</time>
      </trkpt>
      <trkpt lat="42.701795138418674468994140625" lon="-0.04749546758830547332763671875">
        <ele>2352.800048828125</ele>
        <time>2021-08-21T14:14:59.000Z</time>
      </trkpt>
      <trkpt lat="42.70179036073386669158935546875" lon="-0.0474839843809604644775390625">
        <ele>2352.800048828125</ele>
        <time>2021-08-21T14:15:01.000Z</time>
      </trkpt>
      <trkpt lat="42.70166429691016674041748046875" lon="-0.0471979938447475433349609375">
        <ele>2357.39990234375</ele>
        <time>2021-08-21T14:15:23.000Z</time>
      </trkpt>
      <trkpt lat="42.70164434798061847686767578125" lon="-0.04714510403573513031005859375">
        <ele>2358.199951171875</ele>
        <time>2021-08-21T14:15:28.000Z</time>
      </trkpt>
      <trkpt lat="42.70159623585641384124755859375" lon="-0.04705198109149932861328125">
        <ele>2360.60009765625</ele>
        <time>2021-08-21T14:15:37.000Z</time>
      </trkpt>
      <trkpt lat="42.70156078040599822998046875" lon="-0.04694276489317417144775390625">
        <ele>2362.39990234375</ele>
        <time>2021-08-21T14:15:45.000Z</time>
      </trkpt>
      <trkpt lat="42.70147805102169513702392578125" lon="-0.0464667566120624542236328125">
        <ele>2366.60009765625</ele>
        <time>2021-08-21T14:16:24.000Z</time>
      </trkpt>
      <trkpt lat="42.701406888663768768310546875" lon="-0.04617582075297832489013671875">
        <ele>2370.800048828125</ele>
        <time>2021-08-21T14:16:58.000Z</time>
      </trkpt>
      <trkpt lat="42.701413594186305999755859375" lon="-0.04612619988620281219482421875">
        <ele>2370.39990234375</ele>
        <time>2021-08-21T14:17:03.000Z</time>
      </trkpt>
      <trkpt lat="42.7014164440333843231201171875" lon="-0.04609736613929271697998046875">
        <ele>2370.199951171875</ele>
        <time>2021-08-21T14:17:05.000Z</time>
      </trkpt>
      <trkpt lat="42.7014208026230335235595703125" lon="-0.04603818990290164947509765625">
        <ele>2370</ele>
        <time>2021-08-21T14:17:11.000Z</time>
      </trkpt>
      <trkpt lat="42.7014382369816303253173828125" lon="-0.04595956765115261077880859375">
        <ele>2369.199951171875</ele>
        <time>2021-08-21T14:17:19.000Z</time>
      </trkpt>
      <trkpt lat="42.70145625807344913482666015625" lon="-0.04586216993629932403564453125">
        <ele>2368.39990234375</ele>
        <time>2021-08-21T14:17:29.000Z</time>
      </trkpt>
      <trkpt lat="42.7014664001762866973876953125" lon="-0.045807100832462310791015625">
        <ele>2368</ele>
        <time>2021-08-21T14:17:33.000Z</time>
      </trkpt>
      <trkpt lat="42.701456844806671142578125" lon="-0.04570174030959606170654296875">
        <ele>2368.39990234375</ele>
        <time>2021-08-21T14:17:42.000Z</time>
      </trkpt>
      <trkpt lat="42.7014070563018321990966796875" lon="-0.0456738285720348358154296875">
        <ele>2370.800048828125</ele>
        <time>2021-08-21T14:17:50.000Z</time>
      </trkpt>
      <trkpt lat="42.701343186199665069580078125" lon="-0.04547618329524993896484375">
        <ele>2374</ele>
        <time>2021-08-21T14:18:50.000Z</time>
      </trkpt>
      <trkpt lat="42.70134494639933109283447265625" lon="-0.04543653689324855804443359375">
        <ele>2374</ele>
        <time>2021-08-21T14:18:53.000Z</time>
      </trkpt>
      <trkpt lat="42.701338827610015869140625" lon="-0.04538741894066333770751953125">
        <ele>2374.39990234375</ele>
        <time>2021-08-21T14:18:57.000Z</time>
      </trkpt>
      <trkpt lat="42.70133673213422298431396484375" lon="-0.04535221494734287261962890625">
        <ele>2374.39990234375</ele>
        <time>2021-08-21T14:19:01.000Z</time>
      </trkpt>
      <trkpt lat="42.70132348872721195220947265625" lon="-0.04529471509158611297607421875">
        <ele>2375</ele>
        <time>2021-08-21T14:19:07.000Z</time>
      </trkpt>
      <trkpt lat="42.70132248289883136749267578125" lon="-0.04525548778474330902099609375">
        <ele>2375.199951171875</ele>
        <time>2021-08-21T14:19:11.000Z</time>
      </trkpt>
      <trkpt lat="42.70131938159465789794921875" lon="-0.045242495834827423095703125">
        <ele>2375.199951171875</ele>
        <time>2021-08-21T14:19:12.000Z</time>
      </trkpt>
      <trkpt lat="42.70131058059632778167724609375" lon="-0.0452258996665477752685546875">
        <ele>2375.800048828125</ele>
        <time>2021-08-21T14:19:13.000Z</time>
      </trkpt>
      <trkpt lat="42.70129499025642871856689453125" lon="-0.04516881890594959259033203125">
        <ele>2376.39990234375</ele>
        <time>2021-08-21T14:19:19.000Z</time>
      </trkpt>
      <trkpt lat="42.70129180513322353363037109375" lon="-0.045137219130992889404296875">
        <ele>2376.60009765625</ele>
        <time>2021-08-21T14:19:20.000Z</time>
      </trkpt>
      <trkpt lat="42.70129180513322353363037109375" lon="-0.045137219130992889404296875">
        <ele>2376.60009765625</ele>
        <time>2021-08-21T14:19:21.000Z</time>
      </trkpt>
      <trkpt lat="42.70128878764808177947998046875" lon="-0.04512053914368152618408203125">
        <ele>2376.800048828125</ele>
        <time>2021-08-21T14:19:22.000Z</time>
      </trkpt>
      <trkpt lat="42.7012811601161956787109375" lon="-0.04502850584685802459716796875">
        <ele>2377.199951171875</ele>
        <time>2021-08-21T14:19:28.000Z</time>
      </trkpt>
      <trkpt lat="42.70127671770751476287841796875" lon="-0.04498173482716083526611328125">
        <ele>2377.39990234375</ele>
        <time>2021-08-21T14:19:31.000Z</time>
      </trkpt>
      <trkpt lat="42.70127604715526103973388671875" lon="-0.04493169486522674560546875">
        <ele>2377.800048828125</ele>
        <time>2021-08-21T14:19:35.000Z</time>
      </trkpt>
      <trkpt lat="42.7012779749929904937744140625" lon="-0.04492071457207202911376953125">
        <ele>2377.800048828125</ele>
        <time>2021-08-21T14:19:36.000Z</time>
      </trkpt>
      <trkpt lat="42.701277472078800201416015625" lon="-0.04490428604185581207275390625">
        <ele>2377.800048828125</ele>
        <time>2021-08-21T14:19:37.000Z</time>
      </trkpt>
      <trkpt lat="42.70128124393522739410400390625" lon="-0.0448718480765819549560546875">
        <ele>2377.800048828125</ele>
        <time>2021-08-21T14:19:40.000Z</time>
      </trkpt>
      <trkpt lat="42.7012716047465801239013671875" lon="-0.0443977676331996917724609375">
        <ele>2378.199951171875</ele>
        <time>2021-08-21T14:20:26.000Z</time>
      </trkpt>
      <trkpt lat="42.7010670863091945648193359375" lon="-0.0438345037400722503662109375">
        <ele>2384.39990234375</ele>
        <time>2021-08-21T14:21:06.000Z</time>
      </trkpt>
      <trkpt lat="42.7009641565382480621337890625" lon="-0.04325053654611110687255859375">
        <ele>2385.60009765625</ele>
        <time>2021-08-21T14:21:50.000Z</time>
      </trkpt>
      <trkpt lat="42.70090221427381038665771484375" lon="-0.04302741028368473052978515625">
        <ele>2387</ele>
        <time>2021-08-21T14:22:08.000Z</time>
      </trkpt>
      <trkpt lat="42.70073625259101390838623046875" lon="-0.04249331541359424591064453125">
        <ele>2386</ele>
        <time>2021-08-21T14:22:48.000Z</time>
      </trkpt>
      <trkpt lat="42.7007044851779937744140625" lon="-0.0423589535057544708251953125">
        <ele>2385</ele>
        <time>2021-08-21T14:23:03.000Z</time>
      </trkpt>
      <trkpt lat="42.70069836638867855072021484375" lon="-0.042319558560848236083984375">
        <ele>2384.60009765625</ele>
        <time>2021-08-21T14:23:06.000Z</time>
      </trkpt>
      <trkpt lat="42.700645811855792999267578125" lon="-0.04217731766402721405029296875">
        <ele>2385.39990234375</ele>
        <time>2021-08-21T14:23:28.000Z</time>
      </trkpt>
      <trkpt lat="42.70063600502908229827880859375" lon="-0.0415956974029541015625">
        <ele>2380.800048828125</ele>
        <time>2021-08-21T14:24:20.000Z</time>
      </trkpt>
      <trkpt lat="42.7006671018898487091064453125" lon="-0.0415039993822574615478515625">
        <ele>2378.39990234375</ele>
        <time>2021-08-21T14:24:28.000Z</time>
      </trkpt>
      <trkpt lat="42.70073088817298412322998046875" lon="-0.0411754287779331207275390625">
        <ele>2371.39990234375</ele>
        <time>2021-08-21T14:24:59.000Z</time>
      </trkpt>
      <trkpt lat="42.7007780782878398895263671875" lon="-0.0406922958791255950927734375">
        <ele>2373</ele>
        <time>2021-08-21T14:25:42.000Z</time>
      </trkpt>
      <trkpt lat="42.70076240412890911102294921875" lon="-0.04028049297630786895751953125">
        <ele>2373</ele>
        <time>2021-08-21T14:26:23.000Z</time>
      </trkpt>
      <trkpt lat="42.70073139108717441558837890625" lon="-0.0401444546878337860107421875">
        <ele>2373.199951171875</ele>
        <time>2021-08-21T14:26:41.000Z</time>
      </trkpt>
      <trkpt lat="42.70070641301572322845458984375" lon="-0.0400153733789920806884765625">
        <ele>2373.39990234375</ele>
        <time>2021-08-21T14:27:02.000Z</time>
      </trkpt>
      <trkpt lat="42.7006785012781620025634765625" lon="-0.0399074144661426544189453125">
        <ele>2373.60009765625</ele>
        <time>2021-08-21T14:27:18.000Z</time>
      </trkpt>
      <trkpt lat="42.70065695978701114654541015625" lon="-0.0398026406764984130859375">
        <ele>2373.800048828125</ele>
        <time>2021-08-21T14:27:30.000Z</time>
      </trkpt>
      <trkpt lat="42.70058236084878444671630859375" lon="-0.0394588150084018707275390625">
        <ele>2380</ele>
        <time>2021-08-21T14:28:00.000Z</time>
      </trkpt>
      <trkpt lat="42.7005489170551300048828125" lon="-0.03934138454496860504150390625">
        <ele>2381.39990234375</ele>
        <time>2021-08-21T14:28:16.000Z</time>
      </trkpt>
      <trkpt lat="42.70055587403476238250732421875" lon="-0.03929964266717433929443359375">
        <ele>2381</ele>
        <time>2021-08-21T14:28:22.000Z</time>
      </trkpt>
      <trkpt lat="42.70055604167282581329345703125" lon="-0.039292685687541961669921875">
        <ele>2381</ele>
        <time>2021-08-21T14:28:25.000Z</time>
      </trkpt>
      <trkpt lat="42.70056358538568019866943359375" lon="-0.03926896490156650543212890625">
        <ele>2380.800048828125</ele>
        <time>2021-08-21T14:28:29.000Z</time>
      </trkpt>
      <trkpt lat="42.70055604167282581329345703125" lon="-0.03918380476534366607666015625">
        <ele>2381</ele>
        <time>2021-08-21T14:28:36.000Z</time>
      </trkpt>
      <trkpt lat="42.700509019196033477783203125" lon="-0.039066709578037261962890625">
        <ele>2383.39990234375</ele>
        <time>2021-08-21T14:28:45.000Z</time>
      </trkpt>
      <trkpt lat="42.700513042509555816650390625" lon="-0.0389662943780422210693359375">
        <ele>2384</ele>
        <time>2021-08-21T14:28:57.000Z</time>
      </trkpt>
      <trkpt lat="42.70053693093359470367431640625" lon="-0.03888725303113460540771484375">
        <ele>2383.60009765625</ele>
        <time>2021-08-21T14:29:14.000Z</time>
      </trkpt>
      <trkpt lat="42.70053273998200893402099609375" lon="-0.0385163538157939910888671875">
        <ele>2386.800048828125</ele>
        <time>2021-08-21T14:30:20.000Z</time>
      </trkpt>
      <trkpt lat="42.70043249242007732391357421875" lon="-0.03814478404819965362548828125">
        <ele>2391.800048828125</ele>
        <time>2021-08-21T14:31:39.000Z</time>
      </trkpt>
      <trkpt lat="42.700437270104885101318359375" lon="-0.0381140224635601043701171875">
        <ele>2391.39990234375</ele>
        <time>2021-08-21T14:31:54.000Z</time>
      </trkpt>
      <trkpt lat="42.700483538210391998291015625" lon="-0.0381120108067989349365234375">
        <ele>2389.800048828125</ele>
        <time>2021-08-21T14:32:44.000Z</time>
      </trkpt>
      <trkpt lat="42.70046367309987545013427734375" lon="-0.0381066463887691497802734375">
        <ele>2390.39990234375</ele>
        <time>2021-08-21T14:32:53.000Z</time>
      </trkpt>
      <trkpt lat="42.70046367309987545013427734375" lon="-0.03811025060713291168212890625">
        <ele>2390.39990234375</ele>
        <time>2021-08-21T14:32:58.000Z</time>
      </trkpt>
      <trkpt lat="42.70047741942107677459716796875" lon="-0.0381213985383510589599609375">
        <ele>2390</ele>
        <time>2021-08-21T14:33:06.000Z</time>
      </trkpt>
      <trkpt lat="42.70047658123075962066650390625" lon="-0.0381208956241607666015625">
        <ele>2390</ele>
        <time>2021-08-21T14:33:12.000Z</time>
      </trkpt>
      <trkpt lat="42.7003780938684940338134765625" lon="-0.0381150282919406890869140625">
        <ele>2393.39990234375</ele>
        <time>2021-08-21T14:33:39.000Z</time>
      </trkpt>
      <trkpt lat="42.7003542892634868621826171875" lon="-0.0381128489971160888671875">
        <ele>2394.199951171875</ele>
        <time>2021-08-21T14:33:42.000Z</time>
      </trkpt>
      <trkpt lat="42.7003438957035541534423828125" lon="-0.0381264276802539825439453125">
        <ele>2394.60009765625</ele>
        <time>2021-08-21T14:33:46.000Z</time>
      </trkpt>
      <trkpt lat="42.7003385312855243682861328125" lon="-0.03812684677541255950927734375">
        <ele>2394.800048828125</ele>
        <time>2021-08-21T14:33:47.000Z</time>
      </trkpt>
      <trkpt lat="42.70030240528285503387451171875" lon="-0.0381076522171497344970703125">
        <ele>2396</ele>
        <time>2021-08-21T14:33:52.000Z</time>
      </trkpt>
      <trkpt lat="42.7002731524407863616943359375" lon="-0.0380975939333438873291015625">
        <ele>2397</ele>
        <time>2021-08-21T14:33:56.000Z</time>
      </trkpt>
      <trkpt lat="42.70022210665047168731689453125" lon="-0.038036741316318511962890625">
        <ele>2398.199951171875</ele>
        <time>2021-08-21T14:34:03.000Z</time>
      </trkpt>
      <trkpt lat="42.700198553502559661865234375" lon="-0.03797044046223163604736328125">
        <ele>2398.60009765625</ele>
        <time>2021-08-21T14:34:10.000Z</time>
      </trkpt>
      <trkpt lat="42.70018958486616611480712890625" lon="-0.037952251732349395751953125">
        <ele>2398.800048828125</ele>
        <time>2021-08-21T14:34:11.000Z</time>
      </trkpt>
      <trkpt lat="42.70018354989588260650634765625" lon="-0.0379413552582263946533203125">
        <ele>2399</ele>
        <time>2021-08-21T14:34:14.000Z</time>
      </trkpt>
      <trkpt lat="42.70017533563077449798583984375" lon="-0.03792718984186649322509765625">
        <ele>2399.199951171875</ele>
        <time>2021-08-21T14:34:16.000Z</time>
      </trkpt>
      <trkpt lat="42.70017030648887157440185546875" lon="-0.03792199306190013885498046875">
        <ele>2399.199951171875</ele>
        <time>2021-08-21T14:34:17.000Z</time>
      </trkpt>
      <trkpt lat="42.70014918409287929534912109375" lon="-0.0378991104662418365478515625">
        <ele>2399.800048828125</ele>
        <time>2021-08-21T14:34:21.000Z</time>
      </trkpt>
      <trkpt lat="42.70011750049889087677001953125" lon="-0.03786801360547542572021484375">
        <ele>2400.800048828125</ele>
        <time>2021-08-21T14:34:27.000Z</time>
      </trkpt>
      <trkpt lat="42.70005111582577228546142578125" lon="-0.03783322870731353759765625">
        <ele>2403.199951171875</ele>
        <time>2021-08-21T14:34:43.000Z</time>
      </trkpt>
      <trkpt lat="42.70003586076200008392333984375" lon="-0.03785141743719577789306640625">
        <ele>2403.800048828125</ele>
        <time>2021-08-21T14:34:49.000Z</time>
      </trkpt>
      <trkpt lat="42.70002664066851139068603515625" lon="-0.03784135915338993072509765625">
        <ele>2404.39990234375</ele>
        <time>2021-08-21T14:35:26.000Z</time>
      </trkpt>
      <trkpt lat="42.700026892125606536865234375" lon="-0.037838928401470184326171875">
        <ele>2404.39990234375</ele>
        <time>2021-08-21T14:35:34.000Z</time>
      </trkpt>
      <trkpt lat="42.70002747885882854461669921875" lon="-0.03783800639212131500244140625">
        <ele>2404.39990234375</ele>
        <time>2021-08-21T14:35:44.000Z</time>
      </trkpt>
      <trkpt lat="42.69999780692160129547119140625" lon="-0.03781755454838275909423828125">
        <ele>2406.60009765625</ele>
        <time>2021-08-21T14:35:54.000Z</time>
      </trkpt>
      <trkpt lat="42.69996914081275463104248046875" lon="-0.03781302832067012786865234375">
        <ele>2408.800048828125</ele>
        <time>2021-08-21T14:36:04.000Z</time>
      </trkpt>
      <trkpt lat="42.6999673806130886077880859375" lon="-0.0378136150538921356201171875">
        <ele>2409</ele>
        <time>2021-08-21T14:36:07.000Z</time>
      </trkpt>
      <trkpt lat="42.69996679387986660003662109375" lon="-0.03780506551265716552734375">
        <ele>2409</ele>
        <time>2021-08-21T14:36:10.000Z</time>
      </trkpt>
      <trkpt lat="42.699933014810085296630859375" lon="-0.037789642810821533203125">
        <ele>2411.60009765625</ele>
        <time>2021-08-21T14:36:15.000Z</time>
      </trkpt>
      <trkpt lat="42.6998349465429782867431640625" lon="-0.0377991981804370880126953125">
        <ele>2419.199951171875</ele>
        <time>2021-08-21T14:36:42.000Z</time>
      </trkpt>
      <trkpt lat="42.69980016164481639862060546875" lon="-0.03777883015573024749755859375">
        <ele>2421.800048828125</ele>
        <time>2021-08-21T14:36:58.000Z</time>
      </trkpt>
      <trkpt lat="42.699772417545318603515625" lon="-0.0377901457250118255615234375">
        <ele>2423.800048828125</ele>
        <time>2021-08-21T14:37:32.000Z</time>
      </trkpt>
      <trkpt lat="42.69977266900241374969482421875" lon="-0.03779031336307525634765625">
        <ele>2423.800048828125</ele>
        <time>2021-08-21T14:37:37.000Z</time>
      </trkpt>
      <trkpt lat="42.69977132789790630340576171875" lon="-0.0377888046205043792724609375">
        <ele>2424</ele>
        <time>2021-08-21T14:37:42.000Z</time>
      </trkpt>
      <trkpt lat="42.699772417545318603515625" lon="-0.0377901457250118255615234375">
        <ele>2423.800048828125</ele>
        <time>2021-08-21T14:37:53.000Z</time>
      </trkpt>
      <trkpt lat="42.69977166317403316497802734375" lon="-0.03778285346925258636474609375">
        <ele>2424</ele>
        <time>2021-08-21T14:38:13.000Z</time>
      </trkpt>
      <trkpt lat="42.69977652467787265777587890625" lon="-0.03778989426791667938232421875">
        <ele>2423.60009765625</ele>
        <time>2021-08-21T14:38:16.000Z</time>
      </trkpt>
      <trkpt lat="42.69977820105850696563720703125" lon="-0.0377857871353626251220703125">
        <ele>2423.39990234375</ele>
        <time>2021-08-21T14:38:21.000Z</time>
      </trkpt>
      <trkpt lat="42.699781470000743865966796875" lon="-0.0377831049263477325439453125">
        <ele>2423.199951171875</ele>
        <time>2021-08-21T14:38:25.000Z</time>
      </trkpt>
      <trkpt lat="42.6997870020568370819091796875" lon="-0.03778888843953609466552734375">
        <ele>2422.800048828125</ele>
        <time>2021-08-21T14:38:29.000Z</time>
      </trkpt>
      <trkpt lat="42.6997911930084228515625" lon="-0.03779073245823383331298828125">
        <ele>2422.39990234375</ele>
        <time>2021-08-21T14:38:31.000Z</time>
      </trkpt>
      <trkpt lat="42.69979530014097690582275390625" lon="-0.03779090009629726409912109375">
        <ele>2422.199951171875</ele>
        <time>2021-08-21T14:38:32.000Z</time>
      </trkpt>
      <trkpt lat="42.69979530014097690582275390625" lon="-0.03779090009629726409912109375">
        <ele>2422.199951171875</ele>
        <time>2021-08-21T14:38:33.000Z</time>
      </trkpt>
      <trkpt lat="42.69979647360742092132568359375" lon="-0.0377857871353626251220703125">
        <ele>2422</ele>
        <time>2021-08-21T14:38:39.000Z</time>
      </trkpt>
      <trkpt lat="42.69979127682745456695556640625" lon="-0.037779249250888824462890625">
        <ele>2422.39990234375</ele>
        <time>2021-08-21T14:38:43.000Z</time>
      </trkpt>
      <trkpt lat="42.69978809170424938201904296875" lon="-0.037771202623844146728515625">
        <ele>2422.60009765625</ele>
        <time>2021-08-21T14:38:46.000Z</time>
      </trkpt>
      <trkpt lat="42.6997440867125988006591796875" lon="-0.0377556122839450836181640625">
        <ele>2426</ele>
        <time>2021-08-21T14:38:55.000Z</time>
      </trkpt>
      <trkpt lat="42.69969773478806018829345703125" lon="-0.037724934518337249755859375">
        <ele>2429.60009765625</ele>
        <time>2021-08-21T14:39:02.000Z</time>
      </trkpt>
      <trkpt lat="42.69966445863246917724609375" lon="-0.03769643604755401611328125">
        <ele>2432</ele>
        <time>2021-08-21T14:39:11.000Z</time>
      </trkpt>
      <trkpt lat="42.69966504536569118499755859375" lon="-0.03769911825656890869140625">
        <ele>2432</ele>
        <time>2021-08-21T14:39:12.000Z</time>
      </trkpt>
      <trkpt lat="42.69965909421443939208984375" lon="-0.0377046503126621246337890625">
        <ele>2432.39990234375</ele>
        <time>2021-08-21T14:39:13.000Z</time>
      </trkpt>
      <trkpt lat="42.69963839091360569000244140625" lon="-0.03769643604755401611328125">
        <ele>2434</ele>
        <time>2021-08-21T14:39:17.000Z</time>
      </trkpt>
      <trkpt lat="42.69961106590926647186279296875" lon="-0.03769635222852230072021484375">
        <ele>2436.199951171875</ele>
        <time>2021-08-21T14:39:21.000Z</time>
      </trkpt>
      <trkpt lat="42.69960436038672924041748046875" lon="-0.03769752569496631622314453125">
        <ele>2436.60009765625</ele>
        <time>2021-08-21T14:39:22.000Z</time>
      </trkpt>
      <trkpt lat="42.6996002532541751861572265625" lon="-0.037694759666919708251953125">
        <ele>2437</ele>
        <time>2021-08-21T14:39:23.000Z</time>
      </trkpt>
      <trkpt lat="42.69950914196670055389404296875" lon="-0.03760314546525478363037109375">
        <ele>2444</ele>
        <time>2021-08-21T14:39:40.000Z</time>
      </trkpt>
      <trkpt lat="42.69949623383581638336181640625" lon="-0.03759241662919521331787109375">
        <ele>2445</ele>
        <time>2021-08-21T14:39:45.000Z</time>
      </trkpt>
      <trkpt lat="42.6994316093623638153076171875" lon="-0.0375048257410526275634765625">
        <ele>2450.39990234375</ele>
        <time>2021-08-21T14:41:05.000Z</time>
      </trkpt>
      <trkpt lat="42.6994379796087741851806640625" lon="-0.03750340081751346588134765625">
        <ele>2449.800048828125</ele>
        <time>2021-08-21T14:41:15.000Z</time>
      </trkpt>
      <trkpt lat="42.6994426734745502471923828125" lon="-0.03750222735106945037841796875">
        <ele>2449.60009765625</ele>
        <time>2021-08-21T14:41:24.000Z</time>
      </trkpt>
      <trkpt lat="42.69944057799875736236572265625" lon="-0.03750071860849857330322265625">
        <ele>2449.60009765625</ele>
        <time>2021-08-21T14:41:36.000Z</time>
      </trkpt>
      <trkpt lat="42.6993902027606964111328125" lon="-0.0374753214418888092041015625">
        <ele>2453.800048828125</ele>
        <time>2021-08-21T14:43:00.000Z</time>
      </trkpt>
      <trkpt lat="42.69938441924750804901123046875" lon="-0.03747892566025257110595703125">
        <ele>2454.199951171875</ele>
        <time>2021-08-21T14:43:11.000Z</time>
      </trkpt>
      <trkpt lat="42.6993759535253047943115234375" lon="-0.03746367059648036956787109375">
        <ele>2455</ele>
        <time>2021-08-21T14:43:20.000Z</time>
      </trkpt>
      <trkpt lat="42.69936941564083099365234375" lon="-0.03746216185390949249267578125">
        <ele>2455.39990234375</ele>
        <time>2021-08-21T14:43:27.000Z</time>
      </trkpt>
      <trkpt lat="42.69936765544116497039794921875" lon="-0.03746316768229007720947265625">
        <ele>2455.60009765625</ele>
        <time>2021-08-21T14:43:37.000Z</time>
      </trkpt>
      <trkpt lat="42.69936782307922840118408203125" lon="-0.037472136318683624267578125">
        <ele>2455.60009765625</ele>
        <time>2021-08-21T14:43:47.000Z</time>
      </trkpt>
      <trkpt lat="42.69937000237405300140380859375" lon="-0.0374763272702693939208984375">
        <ele>2455.39990234375</ele>
        <time>2021-08-21T14:43:55.000Z</time>
      </trkpt>
      <trkpt lat="42.699367068707942962646484375" lon="-0.0374682806432247161865234375">
        <ele>2455.60009765625</ele>
        <time>2021-08-21T14:44:03.000Z</time>
      </trkpt>
      <trkpt lat="42.6993943937122821807861328125" lon="-0.0374290533363819122314453125">
        <ele>2453.60009765625</ele>
        <time>2021-08-21T14:44:15.000Z</time>
      </trkpt>
      <trkpt lat="42.6993890292942523956298828125" lon="-0.037409774959087371826171875">
        <ele>2454</ele>
        <time>2021-08-21T14:44:30.000Z</time>
      </trkpt>
      <trkpt lat="42.6993930526077747344970703125" lon="-0.037386305630207061767578125">
        <ele>2453.800048828125</ele>
        <time>2021-08-21T14:44:36.000Z</time>
      </trkpt>
      <trkpt lat="42.6993863470852375030517578125" lon="-0.037368871271610260009765625">
        <ele>2454.39990234375</ele>
        <time>2021-08-21T14:44:38.000Z</time>
      </trkpt>
      <trkpt lat="42.69937821663916110992431640625" lon="-0.037363506853580474853515625">
        <ele>2455</ele>
        <time>2021-08-21T14:44:40.000Z</time>
      </trkpt>
      <trkpt lat="42.69937301985919475555419921875" lon="-0.0373603217303752899169921875">
        <ele>2455.39990234375</ele>
        <time>2021-08-21T14:44:43.000Z</time>
      </trkpt>
      <trkpt lat="42.69935994409024715423583984375" lon="-0.03734506666660308837890625">
        <ele>2456.60009765625</ele>
        <time>2021-08-21T14:44:49.000Z</time>
      </trkpt>
      <trkpt lat="42.69935307092964649200439453125" lon="-0.0373261235654354095458984375">
        <ele>2457.199951171875</ele>
        <time>2021-08-21T14:44:54.000Z</time>
      </trkpt>
      <trkpt lat="42.69933261908590793609619140625" lon="-0.037297122180461883544921875">
        <ele>2458.800048828125</ele>
        <time>2021-08-21T14:45:04.000Z</time>
      </trkpt>
      <trkpt lat="42.6993286795914173126220703125" lon="-0.037293769419193267822265625">
        <ele>2459.199951171875</ele>
        <time>2021-08-21T14:45:05.000Z</time>
      </trkpt>
      <trkpt lat="42.699297331273555755615234375" lon="-0.0372815318405628204345703125">
        <ele>2461.800048828125</ele>
        <time>2021-08-21T14:45:14.000Z</time>
      </trkpt>
      <trkpt lat="42.6992911286652088165283203125" lon="-0.0372520275413990020751953125">
        <ele>2462.199951171875</ele>
        <time>2021-08-21T14:45:47.000Z</time>
      </trkpt>
      <trkpt lat="42.6992911286652088165283203125" lon="-0.0372480042278766632080078125">
        <ele>2462.199951171875</ele>
        <time>2021-08-21T14:45:50.000Z</time>
      </trkpt>
      <trkpt lat="42.69929230213165283203125" lon="-0.03724758513271808624267578125">
        <ele>2462.199951171875</ele>
        <time>2021-08-21T14:46:01.000Z</time>
      </trkpt>
      <trkpt lat="42.699293978512287139892578125" lon="-0.03724624402821063995361328125">
        <ele>2462</ele>
        <time>2021-08-21T14:46:04.000Z</time>
      </trkpt>
      <trkpt lat="42.69931443035602569580078125" lon="-0.0371641851961612701416015625">
        <ele>2460.60009765625</ele>
        <time>2021-08-21T14:46:51.000Z</time>
      </trkpt>
      <trkpt lat="42.6993129216134548187255859375" lon="-0.03698959015309810638427734375">
        <ele>2460</ele>
        <time>2021-08-21T14:47:51.000Z</time>
      </trkpt>
      <trkpt lat="42.69925131462514400482177734375" lon="-0.036570914089679718017578125">
        <ele>2473.800048828125</ele>
        <time>2021-08-21T14:49:35.000Z</time>
      </trkpt>
      <trkpt lat="42.69914067350327968597412109375" lon="-0.03651953302323818206787109375">
        <ele>2484.199951171875</ele>
        <time>2021-08-21T14:50:12.000Z</time>
      </trkpt>
      <trkpt lat="42.6989746280014514923095703125" lon="-0.03647896461188793182373046875">
        <ele>2496.199951171875</ele>
        <time>2021-08-21T14:51:05.000Z</time>
      </trkpt>
      <trkpt lat="42.69898309372365474700927734375" lon="-0.03637720830738544464111328125">
        <ele>2497.39990234375</ele>
        <time>2021-08-21T14:51:43.000Z</time>
      </trkpt>
      <trkpt lat="42.69898409955203533172607421875" lon="-0.036371089518070220947265625">
        <ele>2497.39990234375</ele>
        <time>2021-08-21T14:51:44.000Z</time>
      </trkpt>
      <trkpt lat="42.69898309372365474700927734375" lon="-0.036359690129756927490234375">
        <ele>2497.800048828125</ele>
        <time>2021-08-21T14:51:45.000Z</time>
      </trkpt>
      <trkpt lat="42.69898275844752788543701171875" lon="-0.03634057939052581787109375">
        <ele>2498</ele>
        <time>2021-08-21T14:51:48.000Z</time>
      </trkpt>
      <trkpt lat="42.6989825069904327392578125" lon="-0.0363345444202423095703125">
        <ele>2498.199951171875</ele>
        <time>2021-08-21T14:51:49.000Z</time>
      </trkpt>
      <trkpt lat="42.69898175261914730072021484375" lon="-0.03630495630204677581787109375">
        <ele>2498.800048828125</ele>
        <time>2021-08-21T14:51:53.000Z</time>
      </trkpt>
      <trkpt lat="42.698977477848529815673828125" lon="-0.03625701181590557098388671875">
        <ele>2500</ele>
        <time>2021-08-21T14:52:03.000Z</time>
      </trkpt>
      <trkpt lat="42.69893531687557697296142578125" lon="-0.03625701181590557098388671875">
        <ele>2502.800048828125</ele>
        <time>2021-08-21T14:52:15.000Z</time>
      </trkpt>
      <trkpt lat="42.69892215728759765625" lon="-0.0362388230860233306884765625">
        <ele>2504.199951171875</ele>
        <time>2021-08-21T14:52:17.000Z</time>
      </trkpt>
      <trkpt lat="42.698919810354709625244140625" lon="-0.0362247414886951446533203125">
        <ele>2505</ele>
        <time>2021-08-21T14:52:18.000Z</time>
      </trkpt>
      <trkpt lat="42.698919810354709625244140625" lon="-0.0362247414886951446533203125">
        <ele>2505</ele>
        <time>2021-08-21T14:52:19.000Z</time>
      </trkpt>
      <trkpt lat="42.69888452254235744476318359375" lon="-0.036152489483356475830078125">
        <ele>2510</ele>
        <time>2021-08-21T14:52:39.000Z</time>
      </trkpt>
      <trkpt lat="42.69888100214302539825439453125" lon="-0.03613111563026905059814453125">
        <ele>2511</ele>
        <time>2021-08-21T14:52:44.000Z</time>
      </trkpt>
      <trkpt lat="42.69883724860846996307373046875" lon="-0.0360986776649951934814453125">
        <ele>2515.199951171875</ele>
        <time>2021-08-21T14:52:59.000Z</time>
      </trkpt>
      <trkpt lat="42.6987875439226627349853515625" lon="-0.0361226499080657958984375">
        <ele>2517.60009765625</ele>
        <time>2021-08-21T14:53:10.000Z</time>
      </trkpt>
      <trkpt lat="42.69878343679010868072509765625" lon="-0.03612063825130462646484375">
        <ele>2518</ele>
        <time>2021-08-21T14:53:11.000Z</time>
      </trkpt>
      <trkpt lat="42.69876784645020961761474609375" lon="-0.036133043467998504638671875">
        <ele>2518.60009765625</ele>
        <time>2021-08-21T14:53:15.000Z</time>
      </trkpt>
      <trkpt lat="42.698706574738025665283203125" lon="-0.03623471595346927642822265625">
        <ele>2519</ele>
        <time>2021-08-21T14:53:36.000Z</time>
      </trkpt>
      <trkpt lat="42.69870447926223278045654296875" lon="-0.03625206649303436279296875">
        <ele>2518.39990234375</ele>
        <time>2021-08-21T14:53:43.000Z</time>
      </trkpt>
      <trkpt lat="42.6987161301076412200927734375" lon="-0.03625097684562206268310546875">
        <ele>2517.60009765625</ele>
        <time>2021-08-21T14:53:56.000Z</time>
      </trkpt>
      <trkpt lat="42.698737420141696929931640625" lon="-0.03623371012508869171142578125">
        <ele>2516.800048828125</ele>
        <time>2021-08-21T14:54:36.000Z</time>
      </trkpt>
      <trkpt lat="42.6987338997423648834228515625" lon="-0.03624360077083110809326171875">
        <ele>2516.800048828125</ele>
        <time>2021-08-21T14:54:53.000Z</time>
      </trkpt>
      <trkpt lat="42.6987275294959545135498046875" lon="-0.03624410368502140045166015625">
        <ele>2517.199951171875</ele>
        <time>2021-08-21T14:55:00.000Z</time>
      </trkpt>
      <trkpt lat="42.6987188123166561126708984375" lon="-0.03625013865530490875244140625">
        <ele>2517.60009765625</ele>
        <time>2021-08-21T14:55:06.000Z</time>
      </trkpt>
      <trkpt lat="42.6987077482044696807861328125" lon="-0.03626103512942790985107421875">
        <ele>2518</ele>
        <time>2021-08-21T14:55:13.000Z</time>
      </trkpt>
      <trkpt lat="42.69874169491231441497802734375" lon="-0.03627059049904346466064453125">
        <ele>2515.60009765625</ele>
        <time>2021-08-21T14:56:19.000Z</time>
      </trkpt>
      <trkpt lat="42.698742449283599853515625" lon="-0.03627059049904346466064453125">
        <ele>2515.39990234375</ele>
        <time>2021-08-21T14:56:27.000Z</time>
      </trkpt>
      <trkpt lat="42.69873431883752346038818359375" lon="-0.03626103512942790985107421875">
        <ele>2516.199951171875</ele>
        <time>2021-08-21T14:56:37.000Z</time>
      </trkpt>
      <trkpt lat="42.698732055723667144775390625" lon="-0.0362586043775081634521484375">
        <ele>2516.39990234375</ele>
        <time>2021-08-21T14:56:43.000Z</time>
      </trkpt>
      <trkpt lat="42.69874052144587039947509765625" lon="-0.03626145422458648681640625">
        <ele>2515.800048828125</ele>
        <time>2021-08-21T14:57:06.000Z</time>
      </trkpt>
      <trkpt lat="42.698740772902965545654296875" lon="-0.03626002930104732513427734375">
        <ele>2515.800048828125</ele>
        <time>2021-08-21T14:57:07.000Z</time>
      </trkpt>
      <trkpt lat="42.6986805908381938934326171875" lon="-0.03620554693043231964111328125">
        <ele>2521.800048828125</ele>
        <time>2021-08-21T14:59:57.000Z</time>
      </trkpt>
      <trkpt lat="42.69868067465722560882568359375" lon="-0.03620588220655918121337890625">
        <ele>2521.800048828125</ele>
        <time>2021-08-21T14:59:58.000Z</time>
      </trkpt>
      <trkpt lat="42.698673717677593231201171875" lon="-0.03623270429670810699462890625">
        <ele>2521.199951171875</ele>
        <time>2021-08-21T15:00:13.000Z</time>
      </trkpt>
      <trkpt lat="42.698672376573085784912109375" lon="-0.03623387776315212249755859375">
        <ele>2521.199951171875</ele>
        <time>2021-08-21T15:00:14.000Z</time>
      </trkpt>
      <trkpt lat="42.6986681856215000152587890625" lon="-0.036236308515071868896484375">
        <ele>2521.39990234375</ele>
        <time>2021-08-21T15:00:15.000Z</time>
      </trkpt>
      <trkpt lat="42.69866139627993106842041015625" lon="-0.03624108619987964630126953125">
        <ele>2521.800048828125</ele>
        <time>2021-08-21T15:00:16.000Z</time>
      </trkpt>
      <trkpt lat="42.6986574567854404449462890625" lon="-0.03625114448368549346923828125">
        <ele>2521.60009765625</ele>
        <time>2021-08-21T15:00:18.000Z</time>
      </trkpt>
      <trkpt lat="42.6986447162926197052001953125" lon="-0.036269165575504302978515625">
        <ele>2522</ele>
        <time>2021-08-21T15:00:23.000Z</time>
      </trkpt>
      <trkpt lat="42.69864178262650966644287109375" lon="-0.03627478145062923431396484375">
        <ele>2522.199951171875</ele>
        <time>2021-08-21T15:00:24.000Z</time>
      </trkpt>
      <trkpt lat="42.69863440655171871185302734375" lon="-0.03628131933510303497314453125">
        <ele>2522.60009765625</ele>
        <time>2021-08-21T15:00:26.000Z</time>
      </trkpt>
      <trkpt lat="42.6986229233443737030029296875" lon="-0.0362969934940338134765625">
        <ele>2523</ele>
        <time>2021-08-21T15:00:29.000Z</time>
      </trkpt>
      <trkpt lat="42.6985092647373676300048828125" lon="-0.03634317778050899505615234375">
        <ele>2529.800048828125</ele>
        <time>2021-08-21T15:01:07.000Z</time>
      </trkpt>
      <trkpt lat="42.69844464026391506195068359375" lon="-0.03625349141657352447509765625">
        <ele>2535.800048828125</ele>
        <time>2021-08-21T15:01:35.000Z</time>
      </trkpt>
      <trkpt lat="42.6984448917210102081298828125" lon="-0.03625131212174892425537109375">
        <ele>2535.800048828125</ele>
        <time>2021-08-21T15:01:36.000Z</time>
      </trkpt>
      <trkpt lat="42.6984445564448833465576171875" lon="-0.03624737262725830078125">
        <ele>2536</ele>
        <time>2021-08-21T15:01:37.000Z</time>
      </trkpt>
      <trkpt lat="42.69844212569296360015869140625" lon="-0.0362384878098964691162109375">
        <ele>2536.60009765625</ele>
        <time>2021-08-21T15:01:39.000Z</time>
      </trkpt>
      <trkpt lat="42.69842955283820629119873046875" lon="-0.03622985444962978363037109375">
        <ele>2537.800048828125</ele>
        <time>2021-08-21T15:01:45.000Z</time>
      </trkpt>
      <trkpt lat="42.69842569716274738311767578125" lon="-0.03622658550739288330078125">
        <ele>2538.199951171875</ele>
        <time>2021-08-21T15:01:46.000Z</time>
      </trkpt>
      <trkpt lat="42.698418237268924713134765625" lon="-0.03621778450906276702880859375">
        <ele>2539</ele>
        <time>2021-08-21T15:01:48.000Z</time>
      </trkpt>
      <trkpt lat="42.69841547124087810516357421875" lon="-0.03621510230004787445068359375">
        <ele>2539.199951171875</ele>
        <time>2021-08-21T15:01:49.000Z</time>
      </trkpt>
      <trkpt lat="42.69840273074805736541748046875" lon="-0.03620504401624202728271484375">
        <ele>2540.39990234375</ele>
        <time>2021-08-21T15:01:53.000Z</time>
      </trkpt>
      <trkpt lat="42.6984251104295253753662109375" lon="-0.0361077301204204559326171875">
        <ele>2542</ele>
        <time>2021-08-21T15:02:06.000Z</time>
      </trkpt>
      <trkpt lat="42.69843089394271373748779296875" lon="-0.0360996834933757781982421875">
        <ele>2542</ele>
        <time>2021-08-21T15:02:07.000Z</time>
      </trkpt>
      <trkpt lat="42.6984380185604095458984375" lon="-0.0360904633998870849609375">
        <ele>2541.800048828125</ele>
        <time>2021-08-21T15:02:08.000Z</time>
      </trkpt>
      <trkpt lat="42.69846039824187755584716796875" lon="-0.03607504069805145263671875">
        <ele>2540.800048828125</ele>
        <time>2021-08-21T15:02:12.000Z</time>
      </trkpt>
      <trkpt lat="42.69846660085022449493408203125" lon="-0.03606221638619899749755859375">
        <ele>2541</ele>
        <time>2021-08-21T15:02:14.000Z</time>
      </trkpt>
      <trkpt lat="42.69846324808895587921142578125" lon="-0.0360158644616603851318359375">
        <ele>2542.60009765625</ele>
        <time>2021-08-21T15:02:23.000Z</time>
      </trkpt>
      <trkpt lat="42.69844866357743740081787109375" lon="-0.03601108677685260772705078125">
        <ele>2543.60009765625</ele>
        <time>2021-08-21T15:02:27.000Z</time>
      </trkpt>
      <trkpt lat="42.698447406291961669921875" lon="-0.03599834628403186798095703125">
        <ele>2544</ele>
        <time>2021-08-21T15:02:37.000Z</time>
      </trkpt>
      <trkpt lat="42.69844262860715389251708984375" lon="-0.03597554750740528106689453125">
        <ele>2545</ele>
        <time>2021-08-21T15:02:42.000Z</time>
      </trkpt>
      <trkpt lat="42.69842770881950855255126953125" lon="-0.0359558500349521636962890625">
        <ele>2546.60009765625</ele>
        <time>2021-08-21T15:02:46.000Z</time>
      </trkpt>
      <trkpt lat="42.69840792752802371978759765625" lon="-0.035944283008575439453125">
        <ele>2548.199951171875</ele>
        <time>2021-08-21T15:02:50.000Z</time>
      </trkpt>
      <trkpt lat="42.69838999025523662567138671875" lon="-0.03595040179789066314697265625">
        <ele>2549</ele>
        <time>2021-08-21T15:02:55.000Z</time>
      </trkpt>
      <trkpt lat="42.69836358726024627685546875" lon="-0.03596800379455089569091796875">
        <ele>2550.199951171875</ele>
        <time>2021-08-21T15:03:01.000Z</time>
      </trkpt>
      <trkpt lat="42.69834355451166629791259765625" lon="-0.0359350629150867462158203125">
        <ele>2552.199951171875</ele>
        <time>2021-08-21T15:03:05.000Z</time>
      </trkpt>
      <trkpt lat="42.69833517260849475860595703125" lon="-0.0358973443508148193359375">
        <ele>2553.800048828125</ele>
        <time>2021-08-21T15:03:21.000Z</time>
      </trkpt>
      <trkpt lat="42.698202989995479583740234375" lon="-0.03585870377719402313232421875">
        <ele>2561.39990234375</ele>
        <time>2021-08-21T15:04:01.000Z</time>
      </trkpt>
      <trkpt lat="42.69814188592135906219482421875" lon="-0.03586926497519016265869140625">
        <ele>2564.199951171875</ele>
        <time>2021-08-21T15:04:12.000Z</time>
      </trkpt>
      <trkpt lat="42.69805840216577053070068359375" lon="-0.03579718060791492462158203125">
        <ele>2570.39990234375</ele>
        <time>2021-08-21T15:04:25.000Z</time>
      </trkpt>
      <trkpt lat="42.69803375937044620513916015625" lon="-0.03579877316951751708984375">
        <ele>2571.60009765625</ele>
        <time>2021-08-21T15:04:34.000Z</time>
      </trkpt>
      <trkpt lat="42.6980338431894779205322265625" lon="-0.0358036346733570098876953125">
        <ele>2571.39990234375</ele>
        <time>2021-08-21T15:04:35.000Z</time>
      </trkpt>
      <trkpt lat="42.69803099334239959716796875" lon="-0.03580338321626186370849609375">
        <ele>2571.60009765625</ele>
        <time>2021-08-21T15:04:38.000Z</time>
      </trkpt>
      <trkpt lat="42.6980160735547542572021484375" lon="-0.03580187447369098663330078125">
        <ele>2572.39990234375</ele>
        <time>2021-08-21T15:04:41.000Z</time>
      </trkpt>
      <trkpt lat="42.69800626672804355621337890625" lon="-0.03580288030207157135009765625">
        <ele>2572.800048828125</ele>
        <time>2021-08-21T15:04:43.000Z</time>
      </trkpt>
      <trkpt lat="42.69800710491836071014404296875" lon="-0.03580807708203792572021484375">
        <ele>2572.60009765625</ele>
        <time>2021-08-21T15:04:44.000Z</time>
      </trkpt>
      <trkpt lat="42.6980035006999969482421875" lon="-0.03581352531909942626953125">
        <ele>2572.60009765625</ele>
        <time>2021-08-21T15:04:45.000Z</time>
      </trkpt>
      <trkpt lat="42.6980050094425678253173828125" lon="-0.0358237512409687042236328125">
        <ele>2572.199951171875</ele>
        <time>2021-08-21T15:04:47.000Z</time>
      </trkpt>
      <trkpt lat="42.697997801005840301513671875" lon="-0.0358435325324535369873046875">
        <ele>2572</ele>
        <time>2021-08-21T15:04:50.000Z</time>
      </trkpt>
      <trkpt lat="42.697995789349079132080078125" lon="-0.03584981895983219146728515625">
        <ele>2571.800048828125</ele>
        <time>2021-08-21T15:04:51.000Z</time>
      </trkpt>
      <trkpt lat="42.69799537025392055511474609375" lon="-0.0358571112155914306640625">
        <ele>2571.60009765625</ele>
        <time>2021-08-21T15:04:52.000Z</time>
      </trkpt>
      <trkpt lat="42.697995118796825408935546875" lon="-0.03586423583328723907470703125">
        <ele>2571.39990234375</ele>
        <time>2021-08-21T15:04:53.000Z</time>
      </trkpt>
      <trkpt lat="42.6979486830532550811767578125" lon="-0.0358773954212665557861328125">
        <ele>2573.39990234375</ele>
        <time>2021-08-21T15:05:04.000Z</time>
      </trkpt>
      <trkpt lat="42.69793317653238773345947265625" lon="-0.0358758866786956787109375">
        <ele>2574.199951171875</ele>
        <time>2021-08-21T15:05:06.000Z</time>
      </trkpt>
      <trkpt lat="42.6978494413197040557861328125" lon="-0.03586423583328723907470703125">
        <ele>2577.199951171875</ele>
        <time>2021-08-21T15:05:24.000Z</time>
      </trkpt>
      <trkpt lat="42.69782622344791889190673828125" lon="-0.035835988819599151611328125">
        <ele>2578.199951171875</ele>
        <time>2021-08-21T15:05:32.000Z</time>
      </trkpt>
      <trkpt lat="42.6978179253637790679931640625" lon="-0.03577354364097118377685546875">
        <ele>2579.199951171875</ele>
        <time>2021-08-21T15:05:43.000Z</time>
      </trkpt>
      <trkpt lat="42.69778682850301265716552734375" lon="-0.03577840514481067657470703125">
        <ele>2580.199951171875</ele>
        <time>2021-08-21T15:05:51.000Z</time>
      </trkpt>
      <trkpt lat="42.69774558953940868377685546875" lon="-0.03580606542527675628662109375">
        <ele>2581</ele>
        <time>2021-08-21T15:05:59.000Z</time>
      </trkpt>
      <trkpt lat="42.6977381296455860137939453125" lon="-0.0358093343675136566162109375">
        <ele>2581.199951171875</ele>
        <time>2021-08-21T15:06:01.000Z</time>
      </trkpt>
      <trkpt lat="42.6977304182946681976318359375" lon="-0.03580908291041851043701171875">
        <ele>2581.39990234375</ele>
        <time>2021-08-21T15:06:02.000Z</time>
      </trkpt>
      <trkpt lat="42.69766981713473796844482421875" lon="-0.03577572293579578399658203125">
        <ele>2583.60009765625</ele>
        <time>2021-08-21T15:06:10.000Z</time>
      </trkpt>
      <trkpt lat="42.69765322096645832061767578125" lon="-0.03576968796551227569580078125">
        <ele>2584.199951171875</ele>
        <time>2021-08-21T15:06:13.000Z</time>
      </trkpt>
      <trkpt lat="42.6976331882178783416748046875" lon="-0.0357375852763652801513671875">
        <ele>2585.199951171875</ele>
        <time>2021-08-21T15:06:18.000Z</time>
      </trkpt>
      <trkpt lat="42.69763000309467315673828125" lon="-0.0357251800596714019775390625">
        <ele>2585.39990234375</ele>
        <time>2021-08-21T15:06:20.000Z</time>
      </trkpt>
      <trkpt lat="42.69762866199016571044921875" lon="-0.03570179454982280731201171875">
        <ele>2585.800048828125</ele>
        <time>2021-08-21T15:06:22.000Z</time>
      </trkpt>
      <trkpt lat="42.697629667818546295166015625" lon="-0.03566893748939037322998046875">
        <ele>2586.199951171875</ele>
        <time>2021-08-21T15:06:25.000Z</time>
      </trkpt>
      <trkpt lat="42.69760577939450740814208984375" lon="-0.03560473211109638214111328125">
        <ele>2587.60009765625</ele>
        <time>2021-08-21T15:06:35.000Z</time>
      </trkpt>
      <trkpt lat="42.69759111106395721435546875" lon="-0.03558595664799213409423828125">
        <ele>2588.199951171875</ele>
        <time>2021-08-21T15:06:44.000Z</time>
      </trkpt>
      <trkpt lat="42.6975748501718044281005859375" lon="-0.0355846993625164031982421875">
        <ele>2588.800048828125</ele>
        <time>2021-08-21T15:06:51.000Z</time>
      </trkpt>
      <trkpt lat="42.69753302447497844696044921875" lon="-0.03553348593413829803466796875">
        <ele>2590.60009765625</ele>
        <time>2021-08-21T15:07:05.000Z</time>
      </trkpt>
      <trkpt lat="42.69751341082155704498291015625" lon="-0.03553214482963085174560546875">
        <ele>2591.60009765625</ele>
        <time>2021-08-21T15:07:10.000Z</time>
      </trkpt>
      <trkpt lat="42.69751056097447872161865234375" lon="-0.035538934171199798583984375">
        <ele>2591.800048828125</ele>
        <time>2021-08-21T15:07:15.000Z</time>
      </trkpt>
      <trkpt lat="42.69751206971704959869384765625" lon="-0.0355411134660243988037109375">
        <ele>2591.60009765625</ele>
        <time>2021-08-21T15:07:16.000Z</time>
      </trkpt>
      <trkpt lat="42.69751324318349361419677734375" lon="-0.03554354421794414520263671875">
        <ele>2591.60009765625</ele>
        <time>2021-08-21T15:07:18.000Z</time>
      </trkpt>
      <trkpt lat="42.69750637002289295196533203125" lon="-0.03554253838956356048583984375">
        <ele>2592</ele>
        <time>2021-08-21T15:07:20.000Z</time>
      </trkpt>
      <trkpt lat="42.69750620238482952117919921875" lon="-0.03554320894181728363037109375">
        <ele>2592</ele>
        <time>2021-08-21T15:07:21.000Z</time>
      </trkpt>
      <trkpt lat="42.69750201143324375152587890625" lon="-0.035539604723453521728515625">
        <ele>2592.199951171875</ele>
        <time>2021-08-21T15:07:22.000Z</time>
      </trkpt>
      <trkpt lat="42.697499580681324005126953125" lon="-0.0355310551822185516357421875">
        <ele>2592.39990234375</ele>
        <time>2021-08-21T15:07:26.000Z</time>
      </trkpt>
      <trkpt lat="42.69745322875678539276123046875" lon="-0.03546324558556079864501953125">
        <ele>2594.800048828125</ele>
        <time>2021-08-21T15:07:48.000Z</time>
      </trkpt>
      <trkpt lat="42.69745004363358020782470703125" lon="-0.03545679152011871337890625">
        <ele>2594.800048828125</ele>
        <time>2021-08-21T15:07:52.000Z</time>
      </trkpt>
      <trkpt lat="42.69743847660720348358154296875" lon="-0.03545285202562808990478515625">
        <ele>2595.199951171875</ele>
        <time>2021-08-21T15:07:59.000Z</time>
      </trkpt>
      <trkpt lat="42.69744233228266239166259765625" lon="-0.03544882871210575103759765625">
        <ele>2595</ele>
        <time>2021-08-21T15:08:01.000Z</time>
      </trkpt>
      <trkpt lat="42.69744350574910640716552734375" lon="-0.035445056855678558349609375">
        <ele>2595</ele>
        <time>2021-08-21T15:08:02.000Z</time>
      </trkpt>
      <trkpt lat="42.69744400866329669952392578125" lon="-0.035436339676380157470703125">
        <ele>2594.800048828125</ele>
        <time>2021-08-21T15:08:10.000Z</time>
      </trkpt>
      <trkpt lat="42.6974323578178882598876953125" lon="-0.0354465655982494354248046875">
        <ele>2595.39990234375</ele>
        <time>2021-08-21T15:08:16.000Z</time>
      </trkpt>
      <trkpt lat="42.69743822515010833740234375" lon="-0.0354415364563465118408203125">
        <ele>2595.199951171875</ele>
        <time>2021-08-21T15:08:21.000Z</time>
      </trkpt>
      <trkpt lat="42.69744803197681903839111328125" lon="-0.035430304706096649169921875">
        <ele>2594.800048828125</ele>
        <time>2021-08-21T15:08:26.000Z</time>
      </trkpt>
      <trkpt lat="42.6974789611995220184326171875" lon="-0.0354536063969135284423828125">
        <ele>2594</ele>
        <time>2021-08-21T15:08:35.000Z</time>
      </trkpt>
      <trkpt lat="42.69747267477214336395263671875" lon="-0.0354338251054286956787109375">
        <ele>2594</ele>
        <time>2021-08-21T15:08:42.000Z</time>
      </trkpt>
      <trkpt lat="42.6974563300609588623046875" lon="-0.035362578928470611572265625">
        <ele>2594.39990234375</ele>
        <time>2021-08-21T15:08:51.000Z</time>
      </trkpt>
      <trkpt lat="42.6974360458552837371826171875" lon="-0.03529317677021026611328125">
        <ele>2595.199951171875</ele>
        <time>2021-08-21T15:08:59.000Z</time>
      </trkpt>
      <trkpt lat="42.69743378274142742156982421875" lon="-0.03528974018990993499755859375">
        <ele>2595.199951171875</ele>
        <time>2021-08-21T15:09:00.000Z</time>
      </trkpt>
      <trkpt lat="42.697421796619892120361328125" lon="-0.03528621979057788848876953125">
        <ele>2595.60009765625</ele>
        <time>2021-08-21T15:09:03.000Z</time>
      </trkpt>
      <trkpt lat="42.6974199526011943817138671875" lon="-0.0352799333631992340087890625">
        <ele>2595.800048828125</ele>
        <time>2021-08-21T15:09:07.000Z</time>
      </trkpt>
      <trkpt lat="42.6974544860422611236572265625" lon="-0.03521698527038097381591796875">
        <ele>2594.60009765625</ele>
        <time>2021-08-21T15:09:26.000Z</time>
      </trkpt>
      <trkpt lat="42.6974762789905071258544921875" lon="-0.03522167913615703582763671875">
        <ele>2594</ele>
        <time>2021-08-21T15:09:32.000Z</time>
      </trkpt>
      <trkpt lat="42.697497569024562835693359375" lon="-0.0352128781378269195556640625">
        <ele>2593.39990234375</ele>
        <time>2021-08-21T15:09:37.000Z</time>
      </trkpt>
      <trkpt lat="42.69751106388866901397705078125" lon="-0.03522905521094799041748046875">
        <ele>2593</ele>
        <time>2021-08-21T15:09:45.000Z</time>
      </trkpt>
      <trkpt lat="42.697512991726398468017578125" lon="-0.03518915735185146331787109375">
        <ele>2593</ele>
        <time>2021-08-21T15:09:52.000Z</time>
      </trkpt>
      <trkpt lat="42.697494886815547943115234375" lon="-0.0351230241358280181884765625">
        <ele>2593.60009765625</ele>
        <time>2021-08-21T15:10:19.000Z</time>
      </trkpt>
      <trkpt lat="42.6974724233150482177734375" lon="-0.03509595058858394622802734375">
        <ele>2594.199951171875</ele>
        <time>2021-08-21T15:10:28.000Z</time>
      </trkpt>
      <trkpt lat="42.6974697411060333251953125" lon="-0.03508262336254119873046875">
        <ele>2594.39990234375</ele>
        <time>2021-08-21T15:10:32.000Z</time>
      </trkpt>
      <trkpt lat="42.6974402368068695068359375" lon="-0.03503778018057346343994140625">
        <ele>2595.39990234375</ele>
        <time>2021-08-21T15:10:40.000Z</time>
      </trkpt>
      <trkpt lat="42.69744015298783779144287109375" lon="-0.03502353094518184661865234375">
        <ele>2595.39990234375</ele>
        <time>2021-08-21T15:10:46.000Z</time>
      </trkpt>
      <trkpt lat="42.69743344746530055999755859375" lon="-0.03494583070278167724609375">
        <ele>2595.60009765625</ele>
        <time>2021-08-21T15:11:01.000Z</time>
      </trkpt>
      <trkpt lat="42.69741752184927463531494140625" lon="-0.03490299917757511138916015625">
        <ele>2596.199951171875</ele>
        <time>2021-08-21T15:11:16.000Z</time>
      </trkpt>
      <trkpt lat="42.69732146523892879486083984375" lon="-0.0348323397338390350341796875">
        <ele>2599.39990234375</ele>
        <time>2021-08-21T15:12:59.000Z</time>
      </trkpt>
      <trkpt lat="42.69732180051505565643310546875" lon="-0.03483627922832965850830078125">
        <ele>2599.199951171875</ele>
        <time>2021-08-21T15:13:08.000Z</time>
      </trkpt>
      <trkpt lat="42.6973247341811656951904296875" lon="-0.03483829088509082794189453125">
        <ele>2599.199951171875</ele>
        <time>2021-08-21T15:13:18.000Z</time>
      </trkpt>
      <trkpt lat="42.697330601513385772705078125" lon="-0.03483594395220279693603515625">
        <ele>2599</ele>
        <time>2021-08-21T15:13:29.000Z</time>
      </trkpt>
      <trkpt lat="42.69733470864593982696533203125" lon="-0.03484700806438922882080078125">
        <ele>2598.800048828125</ele>
        <time>2021-08-21T15:13:38.000Z</time>
      </trkpt>
      <trkpt lat="42.69733722321689128875732421875" lon="-0.0348336808383464813232421875">
        <ele>2598.800048828125</ele>
        <time>2021-08-21T15:13:57.000Z</time>
      </trkpt>
      <trkpt lat="42.6973371393978595733642578125" lon="-0.0348333455622196197509765625">
        <ele>2598.800048828125</ele>
        <time>2021-08-21T15:13:58.000Z</time>
      </trkpt>
      <trkpt lat="42.6973344571888446807861328125" lon="-0.03482873551547527313232421875">
        <ele>2599</ele>
        <time>2021-08-21T15:14:05.000Z</time>
      </trkpt>
      <trkpt lat="42.69732766784727573394775390625" lon="-0.0348303280770778656005859375">
        <ele>2599.199951171875</ele>
        <time>2021-08-21T15:14:23.000Z</time>
      </trkpt>
      <trkpt lat="42.69732716493308544158935546875" lon="-0.03483426757156848907470703125">
        <ele>2599.199951171875</ele>
        <time>2021-08-21T15:14:33.000Z</time>
      </trkpt>
      <trkpt lat="42.6973197050392627716064453125" lon="-0.034843571484088897705078125">
        <ele>2599.39990234375</ele>
        <time>2021-08-21T15:14:43.000Z</time>
      </trkpt>
      <trkpt lat="42.69732833839952945709228515625" lon="-0.03486813046038150787353515625">
        <ele>2599</ele>
        <time>2021-08-21T15:15:21.000Z</time>
      </trkpt>
      <trkpt lat="42.69732833839952945709228515625" lon="-0.034872405230998992919921875">
        <ele>2599</ele>
        <time>2021-08-21T15:15:22.000Z</time>
      </trkpt>
      <trkpt lat="42.6973274163901805877685546875" lon="-0.0348715670406818389892578125">
        <ele>2599</ele>
        <time>2021-08-21T15:15:25.000Z</time>
      </trkpt>
      <trkpt lat="42.6973213814198970794677734375" lon="-0.034874416887760162353515625">
        <ele>2599.199951171875</ele>
        <time>2021-08-21T15:15:31.000Z</time>
      </trkpt>
      <trkpt lat="42.69732247106730937957763671875" lon="-0.03487206995487213134765625">
        <ele>2599.199951171875</ele>
        <time>2021-08-21T15:15:33.000Z</time>
      </trkpt>
      <trkpt lat="42.6973230578005313873291015625" lon="-0.0348708964884281158447265625">
        <ele>2599.199951171875</ele>
        <time>2021-08-21T15:15:34.000Z</time>
      </trkpt>
      <trkpt lat="42.6973227225244045257568359375" lon="-0.03486997447907924652099609375">
        <ele>2599.199951171875</ele>
        <time>2021-08-21T15:15:35.000Z</time>
      </trkpt>
      <trkpt lat="42.69731861539185047149658203125" lon="-0.03486528061330318450927734375">
        <ele>2599.39990234375</ele>
        <time>2021-08-21T15:15:38.000Z</time>
      </trkpt>
      <trkpt lat="42.69731962122023105621337890625" lon="-0.0348568148910999298095703125">
        <ele>2599.39990234375</ele>
        <time>2021-08-21T15:15:40.000Z</time>
      </trkpt>
      <trkpt lat="42.6973195374011993408203125" lon="-0.0348581559956073760986328125">
        <ele>2599.39990234375</ele>
        <time>2021-08-21T15:15:41.000Z</time>
      </trkpt>
      <trkpt lat="42.69731492735445499420166015625" lon="-0.0348658673465251922607421875">
        <ele>2599.39990234375</ele>
        <time>2021-08-21T15:16:10.000Z</time>
      </trkpt>
      <trkpt lat="42.69731543026864528656005859375" lon="-0.0348655320703983306884765625">
        <ele>2599.39990234375</ele>
        <time>2021-08-21T15:16:20.000Z</time>
      </trkpt>
      <trkpt lat="42.69731828011572360992431640625" lon="-0.0348715670406818389892578125">
        <ele>2599.39990234375</ele>
        <time>2021-08-21T15:16:35.000Z</time>
      </trkpt>
      <trkpt lat="42.69732666201889514923095703125" lon="-0.034871399402618408203125">
        <ele>2599.199951171875</ele>
        <time>2021-08-21T15:16:47.000Z</time>
      </trkpt>
      <trkpt lat="42.6973203755915164947509765625" lon="-0.03486461006104946136474609375">
        <ele>2599.39990234375</ele>
        <time>2021-08-21T15:16:54.000Z</time>
      </trkpt>
      <trkpt lat="42.69731911830604076385498046875" lon="-0.03486427478492259979248046875">
        <ele>2599.39990234375</ele>
        <time>2021-08-21T15:16:56.000Z</time>
      </trkpt>
      <trkpt lat="42.69731819629669189453125" lon="-0.03486997447907924652099609375">
        <ele>2599.39990234375</ele>
        <time>2021-08-21T15:17:00.000Z</time>
      </trkpt>
      <trkpt lat="42.69732112996280193328857421875" lon="-0.0348715670406818389892578125">
        <ele>2599.199951171875</ele>
        <time>2021-08-21T15:17:05.000Z</time>
      </trkpt>
      <trkpt lat="42.69732196815311908721923828125" lon="-0.03487181849777698516845703125">
        <ele>2599.199951171875</ele>
        <time>2021-08-21T15:17:08.000Z</time>
      </trkpt>
      <trkpt lat="42.6973222196102142333984375" lon="-0.0348722375929355621337890625">
        <ele>2599.199951171875</ele>
        <time>2021-08-21T15:17:10.000Z</time>
      </trkpt>
      <trkpt lat="42.69732280634343624114990234375" lon="-0.0348727405071258544921875">
        <ele>2599.199951171875</ele>
        <time>2021-08-21T15:17:11.000Z</time>
      </trkpt>
      <trkpt lat="42.69732414744794368743896484375" lon="-0.0348668731749057769775390625">
        <ele>2599.199951171875</ele>
        <time>2021-08-21T15:17:45.000Z</time>
      </trkpt>
      <trkpt lat="42.69732565619051456451416015625" lon="-0.03486628644168376922607421875">
        <ele>2599.199951171875</ele>
        <time>2021-08-21T15:17:57.000Z</time>
      </trkpt>
      <trkpt lat="42.69732934422791004180908203125" lon="-0.0348646938800811767578125">
        <ele>2599</ele>
        <time>2021-08-21T15:18:08.000Z</time>
      </trkpt>
      <trkpt lat="42.69732825458049774169921875" lon="-0.03486896865069866180419921875">
        <ele>2599</ele>
        <time>2021-08-21T15:18:21.000Z</time>
      </trkpt>
      <trkpt lat="42.69732892513275146484375" lon="-0.0348762609064579010009765625">
        <ele>2599</ele>
        <time>2021-08-21T15:18:44.000Z</time>
      </trkpt>
      <trkpt lat="42.6973274163901805877685546875" lon="-0.03488103859126567840576171875">
        <ele>2599</ele>
        <time>2021-08-21T15:18:58.000Z</time>
      </trkpt>
      <trkpt lat="42.6973260752856731414794921875" lon="-0.034889169037342071533203125">
        <ele>2599</ele>
        <time>2021-08-21T15:19:05.000Z</time>
      </trkpt>
      <trkpt lat="42.69733152352273464202880859375" lon="-0.03488791175186634063720703125">
        <ele>2599</ele>
        <time>2021-08-21T15:19:11.000Z</time>
      </trkpt>
      <trkpt lat="42.697334624826908111572265625" lon="-0.03487081266939640045166015625">
        <ele>2598.800048828125</ele>
        <time>2021-08-21T15:19:23.000Z</time>
      </trkpt>
      <trkpt lat="42.6973347924649715423583984375" lon="-0.03487081266939640045166015625">
        <ele>2598.800048828125</ele>
        <time>2021-08-21T15:19:25.000Z</time>
      </trkpt>
      <trkpt lat="42.697334624826908111572265625" lon="-0.0348708964884281158447265625">
        <ele>2598.800048828125</ele>
        <time>2021-08-21T15:19:27.000Z</time>
      </trkpt>
      <trkpt lat="42.69733428955078125" lon="-0.03487232141196727752685546875">
        <ele>2598.800048828125</ele>
        <time>2021-08-21T15:20:12.000Z</time>
      </trkpt>
      <trkpt lat="42.6973270811140537261962890625" lon="-0.0348792783915996551513671875">
        <ele>2599</ele>
        <time>2021-08-21T15:20:27.000Z</time>
      </trkpt>
      <trkpt lat="42.6973243989050388336181640625" lon="-0.0348742492496967315673828125">
        <ele>2599.199951171875</ele>
        <time>2021-08-21T15:20:35.000Z</time>
      </trkpt>
      <trkpt lat="42.69734510220587253570556640625" lon="-0.03484901972115039825439453125">
        <ele>2598.60009765625</ele>
        <time>2021-08-21T15:21:14.000Z</time>
      </trkpt>
      <trkpt lat="42.69734510220587253570556640625" lon="-0.0348486006259918212890625">
        <ele>2598.60009765625</ele>
        <time>2021-08-21T15:21:15.000Z</time>
      </trkpt>
      <trkpt lat="42.69734241999685764312744140625" lon="-0.03485103137791156768798828125">
        <ele>2598.60009765625</ele>
        <time>2021-08-21T15:21:39.000Z</time>
      </trkpt>
      <trkpt lat="42.69733889959752559661865234375" lon="-0.0348497740924358367919921875">
        <ele>2598.800048828125</ele>
        <time>2021-08-21T15:21:42.000Z</time>
      </trkpt>
      <trkpt lat="42.697336971759796142578125" lon="-0.03484432585537433624267578125">
        <ele>2598.800048828125</ele>
        <time>2021-08-21T15:21:46.000Z</time>
      </trkpt>
      <trkpt lat="42.69733688794076442718505859375" lon="-0.03484281711280345916748046875">
        <ele>2598.800048828125</ele>
        <time>2021-08-21T15:21:48.000Z</time>
      </trkpt>
      <trkpt lat="42.69733537919819355010986328125" lon="-0.03484315238893032073974609375">
        <ele>2598.800048828125</ele>
        <time>2021-08-21T15:21:50.000Z</time>
      </trkpt>
      <trkpt lat="42.69733470864593982696533203125" lon="-0.03484189510345458984375">
        <ele>2598.800048828125</ele>
        <time>2021-08-21T15:21:51.000Z</time>
      </trkpt>
      <trkpt lat="42.69733470864593982696533203125" lon="-0.03484164364635944366455078125">
        <ele>2598.800048828125</ele>
        <time>2021-08-21T15:21:52.000Z</time>
      </trkpt>
      <trkpt lat="42.69733152352273464202880859375" lon="-0.0348427332937717437744140625">
        <ele>2599</ele>
        <time>2021-08-21T15:21:53.000Z</time>
      </trkpt>
      <trkpt lat="42.69732967950403690338134765625" lon="-0.0348658673465251922607421875">
        <ele>2599</ele>
        <time>2021-08-21T15:21:56.000Z</time>
      </trkpt>
      <trkpt lat="42.69732632674276828765869140625" lon="-0.034877769649028778076171875">
        <ele>2599.199951171875</ele>
        <time>2021-08-21T15:21:58.000Z</time>
      </trkpt>
      <trkpt lat="42.697326578199863433837890625" lon="-0.03487986512482166290283203125">
        <ele>2599</ele>
        <time>2021-08-21T15:22:00.000Z</time>
      </trkpt>
      <trkpt lat="42.69733001478016376495361328125" lon="-0.0348819606006145477294921875">
        <ele>2599</ele>
        <time>2021-08-21T15:22:02.000Z</time>
      </trkpt>
      <trkpt lat="42.69733118824660778045654296875" lon="-0.03487634472548961639404296875">
        <ele>2599</ele>
        <time>2021-08-21T15:22:03.000Z</time>
      </trkpt>
      <trkpt lat="42.697339318692684173583984375" lon="-0.0348682142794132232666015625">
        <ele>2598.800048828125</ele>
        <time>2021-08-21T15:22:04.000Z</time>
      </trkpt>
      <trkpt lat="42.697339318692684173583984375" lon="-0.0348682142794132232666015625">
        <ele>2598.800048828125</ele>
        <time>2021-08-21T15:22:05.000Z</time>
      </trkpt>
      <trkpt lat="42.697350047528743743896484375" lon="-0.03484834916889667510986328125">
        <ele>2598.39990234375</ele>
        <time>2021-08-21T15:22:08.000Z</time>
      </trkpt>
      <trkpt lat="42.6973468624055385589599609375" lon="-0.034839212894439697265625">
        <ele>2598.60009765625</ele>
        <time>2021-08-21T15:22:09.000Z</time>
      </trkpt>
      <trkpt lat="42.6973431743681430816650390625" lon="-0.03483527339994907379150390625">
        <ele>2598.60009765625</ele>
        <time>2021-08-21T15:22:11.000Z</time>
      </trkpt>
      <trkpt lat="42.697344012558460235595703125" lon="-0.034832842648029327392578125">
        <ele>2598.60009765625</ele>
        <time>2021-08-21T15:22:13.000Z</time>
      </trkpt>
      <trkpt lat="42.69734342582523822784423828125" lon="-0.03483041189610958099365234375">
        <ele>2598.60009765625</ele>
        <time>2021-08-21T15:22:15.000Z</time>
      </trkpt>
      <trkpt lat="42.69733898341655731201171875" lon="-0.0348263047635555267333984375">
        <ele>2598.800048828125</ele>
        <time>2021-08-21T15:22:18.000Z</time>
      </trkpt>
      <trkpt lat="42.697339989244937896728515625" lon="-0.03482605330646038055419921875">
        <ele>2598.800048828125</ele>
        <time>2021-08-21T15:22:21.000Z</time>
      </trkpt>
      <trkpt lat="42.69733973778784275054931640625" lon="-0.0348263047635555267333984375">
        <ele>2598.800048828125</ele>
        <time>2021-08-21T15:22:23.000Z</time>
      </trkpt>
      <trkpt lat="42.6973414979875087738037109375" lon="-0.034826807677745819091796875">
        <ele>2598.60009765625</ele>
        <time>2021-08-21T15:22:27.000Z</time>
      </trkpt>
      <trkpt lat="42.6973398216068744659423828125" lon="-0.03482588566839694976806640625">
        <ele>2598.800048828125</ele>
        <time>2021-08-21T15:22:29.000Z</time>
      </trkpt>
      <trkpt lat="42.697337307035923004150390625" lon="-0.03482806496322154998779296875">
        <ele>2598.800048828125</ele>
        <time>2021-08-21T15:22:35.000Z</time>
      </trkpt>
      <trkpt lat="42.6973364688456058502197265625" lon="-0.034827478229999542236328125">
        <ele>2598.800048828125</ele>
        <time>2021-08-21T15:22:37.000Z</time>
      </trkpt>
      <trkpt lat="42.69733764231204986572265625" lon="-0.0348244607448577880859375">
        <ele>2598.800048828125</ele>
        <time>2021-08-21T15:22:41.000Z</time>
      </trkpt>
      <trkpt lat="42.69733906723558902740478515625" lon="-0.03482555039227008819580078125">
        <ele>2598.800048828125</ele>
        <time>2021-08-21T15:22:43.000Z</time>
      </trkpt>
      <trkpt lat="42.69733898341655731201171875" lon="-0.0348286516964435577392578125">
        <ele>2598.800048828125</ele>
        <time>2021-08-21T15:22:49.000Z</time>
      </trkpt>
      <trkpt lat="42.69733370281755924224853515625" lon="-0.034823119640350341796875">
        <ele>2599</ele>
        <time>2021-08-21T15:22:56.000Z</time>
      </trkpt>
      <trkpt lat="42.69733085297048091888427734375" lon="-0.034821443259716033935546875">
        <ele>2599</ele>
        <time>2021-08-21T15:23:11.000Z</time>
      </trkpt>
      <trkpt lat="42.69732750020921230316162109375" lon="-0.0348263047635555267333984375">
        <ele>2599.199951171875</ele>
        <time>2021-08-21T15:23:16.000Z</time>
      </trkpt>
      <trkpt lat="42.69732825458049774169921875" lon="-0.03482923842966556549072265625">
        <ele>2599.199951171875</ele>
        <time>2021-08-21T15:23:20.000Z</time>
      </trkpt>
      <trkpt lat="42.6973284222185611724853515625" lon="-0.03482890315353870391845703125">
        <ele>2599</ele>
        <time>2021-08-21T15:23:22.000Z</time>
      </trkpt>
      <trkpt lat="42.69732959568500518798828125" lon="-0.034828819334506988525390625">
        <ele>2599</ele>
        <time>2021-08-21T15:23:25.000Z</time>
      </trkpt>
      <trkpt lat="42.69733571447432041168212890625" lon="-0.034831501543521881103515625">
        <ele>2598.800048828125</ele>
        <time>2021-08-21T15:23:27.000Z</time>
      </trkpt>
      <trkpt lat="42.6973347924649715423583984375" lon="-0.0348293222486972808837890625">
        <ele>2598.800048828125</ele>
        <time>2021-08-21T15:23:30.000Z</time>
      </trkpt>
      <trkpt lat="42.6973371393978595733642578125" lon="-0.03482370637357234954833984375">
        <ele>2598.800048828125</ele>
        <time>2021-08-21T15:23:34.000Z</time>
      </trkpt>
      <trkpt lat="42.69733822904527187347412109375" lon="-0.0348229520022869110107421875">
        <ele>2598.800048828125</ele>
        <time>2021-08-21T15:23:38.000Z</time>
      </trkpt>
      <trkpt lat="42.69733739085495471954345703125" lon="-0.03482370637357234954833984375">
        <ele>2598.800048828125</ele>
        <time>2021-08-21T15:23:40.000Z</time>
      </trkpt>
      <trkpt lat="42.69733806140720844268798828125" lon="-0.0348242931067943572998046875">
        <ele>2598.800048828125</ele>
        <time>2021-08-21T15:23:43.000Z</time>
      </trkpt>
      <trkpt lat="42.69733772613108158111572265625" lon="-0.034825801849365234375">
        <ele>2598.800048828125</ele>
        <time>2021-08-21T15:23:46.000Z</time>
      </trkpt>
      <trkpt lat="42.6973247341811656951904296875" lon="-0.03484868444502353668212890625">
        <ele>2599.199951171875</ele>
        <time>2021-08-21T15:23:51.000Z</time>
      </trkpt>
      <trkpt lat="42.6973257400095462799072265625" lon="-0.0348413921892642974853515625">
        <ele>2599.199951171875</ele>
        <time>2021-08-21T15:23:57.000Z</time>
      </trkpt>
      <trkpt lat="42.69732280634343624114990234375" lon="-0.03483527339994907379150390625">
        <ele>2599.199951171875</ele>
        <time>2021-08-21T15:24:02.000Z</time>
      </trkpt>
      <trkpt lat="42.69731752574443817138671875" lon="-0.0348551385104656219482421875">
        <ele>2599.39990234375</ele>
        <time>2021-08-21T15:24:11.000Z</time>
      </trkpt>
      <trkpt lat="42.6973233930766582489013671875" lon="-0.03486008383333683013916015625">
        <ele>2599.199951171875</ele>
        <time>2021-08-21T15:24:17.000Z</time>
      </trkpt>
      <trkpt lat="42.69733227789402008056640625" lon="-0.034858994185924530029296875">
        <ele>2599</ele>
        <time>2021-08-21T15:24:22.000Z</time>
      </trkpt>
      <trkpt lat="42.69733135588467121124267578125" lon="-0.03485823981463909149169921875">
        <ele>2599</ele>
        <time>2021-08-21T15:24:29.000Z</time>
      </trkpt>
      <trkpt lat="42.697331607341766357421875" lon="-0.0348579883575439453125">
        <ele>2599</ele>
        <time>2021-08-21T15:24:32.000Z</time>
      </trkpt>
      <trkpt lat="42.6973314397037029266357421875" lon="-0.0348558090627193450927734375">
        <ele>2599</ele>
        <time>2021-08-21T15:24:38.000Z</time>
      </trkpt>
      <trkpt lat="42.69733496010303497314453125" lon="-0.03485354594886302947998046875">
        <ele>2598.800048828125</ele>
        <time>2021-08-21T15:25:01.000Z</time>
      </trkpt>
      <trkpt lat="42.69733420573174953460693359375" lon="-0.0348531268537044525146484375">
        <ele>2598.800048828125</ele>
        <time>2021-08-21T15:25:02.000Z</time>
      </trkpt>
      <trkpt lat="42.69732682965695858001708984375" lon="-0.03486243076622486114501953125">
        <ele>2599.199951171875</ele>
        <time>2021-08-21T15:25:37.000Z</time>
      </trkpt>
      <trkpt lat="42.69732833839952945709228515625" lon="-0.0348658673465251922607421875">
        <ele>2599</ele>
        <time>2021-08-21T15:25:41.000Z</time>
      </trkpt>
      <trkpt lat="42.697176374495029449462890625" lon="-0.0348330102860927581787109375">
        <ele>2601.199951171875</ele>
        <time>2021-08-21T15:34:50.000Z</time>
      </trkpt>
      <trkpt lat="42.69710286520421504974365234375" lon="-0.0348137319087982177734375">
        <ele>2601.199951171875</ele>
        <time>2021-08-21T15:34:59.000Z</time>
      </trkpt>
      <trkpt lat="42.6970481313765048980712890625" lon="-0.03475966863334178924560546875">
        <ele>2600.39990234375</ele>
        <time>2021-08-21T15:35:10.000Z</time>
      </trkpt>
      <trkpt lat="42.69704125821590423583984375" lon="-0.0347626022994518280029296875">
        <ele>2600.60009765625</ele>
        <time>2021-08-21T15:35:11.000Z</time>
      </trkpt>
      <trkpt lat="42.69704125821590423583984375" lon="-0.0347626022994518280029296875">
        <ele>2600.60009765625</ele>
        <time>2021-08-21T15:35:12.000Z</time>
      </trkpt>
      <trkpt lat="42.69703631289303302764892578125" lon="-0.0347600877285003662109375">
        <ele>2600.39990234375</ele>
        <time>2021-08-21T15:35:13.000Z</time>
      </trkpt>
      <trkpt lat="42.697035558521747589111328125" lon="-0.03475765697658061981201171875">
        <ele>2600.39990234375</ele>
        <time>2021-08-21T15:35:15.000Z</time>
      </trkpt>
      <trkpt lat="42.69703513942658901214599609375" lon="-0.03475212492048740386962890625">
        <ele>2600.39990234375</ele>
        <time>2021-08-21T15:35:20.000Z</time>
      </trkpt>
      <trkpt lat="42.697035558521747589111328125" lon="-0.0347520411014556884765625">
        <ele>2600.39990234375</ele>
        <time>2021-08-21T15:35:21.000Z</time>
      </trkpt>
      <trkpt lat="42.6970156095921993255615234375" lon="-0.0347535498440265655517578125">
        <ele>2600.39990234375</ele>
        <time>2021-08-21T15:35:26.000Z</time>
      </trkpt>
      <trkpt lat="42.69700747914612293243408203125" lon="-0.03475405275821685791015625">
        <ele>2600.60009765625</ele>
        <time>2021-08-21T15:35:27.000Z</time>
      </trkpt>
      <trkpt lat="42.69696079194545745849609375" lon="-0.03474324010312557220458984375">
        <ele>2600.60009765625</ele>
        <time>2021-08-21T15:35:33.000Z</time>
      </trkpt>
      <trkpt lat="42.696942351758480072021484375" lon="-0.03473318181931972503662109375">
        <ele>2600.60009765625</ele>
        <time>2021-08-21T15:35:35.000Z</time>
      </trkpt>
      <trkpt lat="42.6969327963888645172119140625" lon="-0.034731589257717132568359375">
        <ele>2600.60009765625</ele>
        <time>2021-08-21T15:35:36.000Z</time>
      </trkpt>
      <trkpt lat="42.696901448071002960205078125" lon="-0.03471977077424526214599609375">
        <ele>2600.60009765625</ele>
        <time>2021-08-21T15:35:40.000Z</time>
      </trkpt>
      <trkpt lat="42.69687454216182231903076171875" lon="-0.03469915129244327545166015625">
        <ele>2600.199951171875</ele>
        <time>2021-08-21T15:35:43.000Z</time>
      </trkpt>
      <trkpt lat="42.69684654660522937774658203125" lon="-0.03463678993284702301025390625">
        <ele>2599</ele>
        <time>2021-08-21T15:35:52.000Z</time>
      </trkpt>
      <trkpt lat="42.69683648832142353057861328125" lon="-0.03457300364971160888671875">
        <ele>2598</ele>
        <time>2021-08-21T15:35:58.000Z</time>
      </trkpt>
      <trkpt lat="42.6968308724462985992431640625" lon="-0.03453738056123256683349609375">
        <ele>2598</ele>
        <time>2021-08-21T15:36:01.000Z</time>
      </trkpt>
      <trkpt lat="42.69680681638419628143310546875" lon="-0.0344276614487171173095703125">
        <ele>2596.60009765625</ele>
        <time>2021-08-21T15:36:13.000Z</time>
      </trkpt>
      <trkpt lat="42.6967949979007244110107421875" lon="-0.03437158651649951934814453125">
        <ele>2594.60009765625</ele>
        <time>2021-08-21T15:36:18.000Z</time>
      </trkpt>
      <trkpt lat="42.6967262662947177886962890625" lon="-0.034050978720188140869140625">
        <ele>2583.39990234375</ele>
        <time>2021-08-21T15:36:53.000Z</time>
      </trkpt>
      <trkpt lat="42.69649936817586421966552734375" lon="-0.03380966372787952423095703125">
        <ele>2578.800048828125</ele>
        <time>2021-08-21T15:37:20.000Z</time>
      </trkpt>
      <trkpt lat="42.69639610312879085540771484375" lon="-0.03372098319232463836669921875">
        <ele>2577</ele>
        <time>2021-08-21T15:37:36.000Z</time>
      </trkpt>
      <trkpt lat="42.6963269524276256561279296875" lon="-0.03366935066878795623779296875">
        <ele>2576.39990234375</ele>
        <time>2021-08-21T15:37:49.000Z</time>
      </trkpt>
      <trkpt lat="42.69612352363765239715576171875" lon="-0.0335921533405780792236328125">
        <ele>2576.800048828125</ele>
        <time>2021-08-21T15:39:14.000Z</time>
      </trkpt>
      <trkpt lat="42.69613735377788543701171875" lon="-0.033600032329559326171875">
        <ele>2576.800048828125</ele>
        <time>2021-08-21T15:39:19.000Z</time>
      </trkpt>
      <trkpt lat="42.69614783115684986114501953125" lon="-0.033599026501178741455078125">
        <ele>2576.60009765625</ele>
        <time>2021-08-21T15:39:22.000Z</time>
      </trkpt>
      <trkpt lat="42.69614364020526409149169921875" lon="-0.033590979874134063720703125">
        <ele>2576.39990234375</ele>
        <time>2021-08-21T15:39:26.000Z</time>
      </trkpt>
      <trkpt lat="42.69615034572780132293701171875" lon="-0.0335799157619476318359375">
        <ele>2576</ele>
        <time>2021-08-21T15:39:27.000Z</time>
      </trkpt>
      <trkpt lat="42.69615034572780132293701171875" lon="-0.0335799157619476318359375">
        <ele>2576</ele>
        <time>2021-08-21T15:39:28.000Z</time>
      </trkpt>
      <trkpt lat="42.69612955860793590545654296875" lon="-0.0335562787950038909912109375">
        <ele>2575.60009765625</ele>
        <time>2021-08-21T15:39:44.000Z</time>
      </trkpt>
      <trkpt lat="42.69613006152212619781494140625" lon="-0.03355619497597217559814453125">
        <ele>2575.60009765625</ele>
        <time>2021-08-21T15:39:47.000Z</time>
      </trkpt>
      <trkpt lat="42.69613106735050678253173828125" lon="-0.03355108201503753662109375">
        <ele>2575.39990234375</ele>
        <time>2021-08-21T15:39:50.000Z</time>
      </trkpt>
      <trkpt lat="42.69615872763097286224365234375" lon="-0.033621490001678466796875">
        <ele>2577.199951171875</ele>
        <time>2021-08-21T15:40:06.000Z</time>
      </trkpt>
      <trkpt lat="42.69617549143731594085693359375" lon="-0.03362844698131084442138671875">
        <ele>2577.199951171875</ele>
        <time>2021-08-21T15:40:10.000Z</time>
      </trkpt>
      <trkpt lat="42.696112878620624542236328125" lon="-0.033546723425388336181640625">
        <ele>2575.39990234375</ele>
        <time>2021-08-21T15:41:11.000Z</time>
      </trkpt>
      <trkpt lat="42.69613022916018962860107421875" lon="-0.03354714252054691314697265625">
        <ele>2575.199951171875</ele>
        <time>2021-08-21T15:42:02.000Z</time>
      </trkpt>
      <trkpt lat="42.696129642426967620849609375" lon="-0.03354613669216632843017578125">
        <ele>2575.199951171875</ele>
        <time>2021-08-21T15:42:09.000Z</time>
      </trkpt>
      <trkpt lat="42.6961210928857326507568359375" lon="-0.033511854708194732666015625">
        <ele>2574.39990234375</ele>
        <time>2021-08-21T15:42:15.000Z</time>
      </trkpt>
      <trkpt lat="42.69611815921962261199951171875" lon="-0.033508501946926116943359375">
        <ele>2574.199951171875</ele>
        <time>2021-08-21T15:42:18.000Z</time>
      </trkpt>
      <trkpt lat="42.696116901934146881103515625" lon="-0.0335059873759746551513671875">
        <ele>2574.199951171875</ele>
        <time>2021-08-21T15:42:19.000Z</time>
      </trkpt>
      <trkpt lat="42.696116901934146881103515625" lon="-0.0335059873759746551513671875">
        <ele>2574.199951171875</ele>
        <time>2021-08-21T15:42:20.000Z</time>
      </trkpt>
      <trkpt lat="42.6961177401244640350341796875" lon="-0.0334996171295642852783203125">
        <ele>2574</ele>
        <time>2021-08-21T15:42:21.000Z</time>
      </trkpt>
      <trkpt lat="42.6961177401244640350341796875" lon="-0.0334996171295642852783203125">
        <ele>2574</ele>
        <time>2021-08-21T15:42:22.000Z</time>
      </trkpt>
      <trkpt lat="42.69611111842095851898193359375" lon="-0.033482350409030914306640625">
        <ele>2573.39990234375</ele>
        <time>2021-08-21T15:42:25.000Z</time>
      </trkpt>
      <trkpt lat="42.69610525108873844146728515625" lon="-0.0334583781659603118896484375">
        <ele>2572.60009765625</ele>
        <time>2021-08-21T15:42:29.000Z</time>
      </trkpt>
      <trkpt lat="42.6961177401244640350341796875" lon="-0.0334141217172145843505859375">
        <ele>2571</ele>
        <time>2021-08-21T15:42:36.000Z</time>
      </trkpt>
      <trkpt lat="42.6961187459528446197509765625" lon="-0.0334023870527744293212890625">
        <ele>2570.39990234375</ele>
        <time>2021-08-21T15:42:37.000Z</time>
      </trkpt>
      <trkpt lat="42.6961187459528446197509765625" lon="-0.0334023870527744293212890625">
        <ele>2570.39990234375</ele>
        <time>2021-08-21T15:42:38.000Z</time>
      </trkpt>
      <trkpt lat="42.69611933268606662750244140625" lon="-0.0333973579108715057373046875">
        <ele>2570.39990234375</ele>
        <time>2021-08-21T15:42:39.000Z</time>
      </trkpt>
      <trkpt lat="42.6961247809231281280517578125" lon="-0.033387802541255950927734375">
        <ele>2570</ele>
        <time>2021-08-21T15:42:41.000Z</time>
      </trkpt>
      <trkpt lat="42.6961251161992549896240234375" lon="-0.03335251472890377044677734375">
        <ele>2568.60009765625</ele>
        <time>2021-08-21T15:42:48.000Z</time>
      </trkpt>
      <trkpt lat="42.6961324922740459442138671875" lon="-0.03333382308483123779296875">
        <ele>2568</ele>
        <time>2021-08-21T15:42:52.000Z</time>
      </trkpt>
      <trkpt lat="42.69613760523498058319091796875" lon="-0.0333276204764842987060546875">
        <ele>2567.60009765625</ele>
        <time>2021-08-21T15:42:53.000Z</time>
      </trkpt>
      <trkpt lat="42.69613995216786861419677734375" lon="-0.03332368098199367523193359375">
        <ele>2567.60009765625</ele>
        <time>2021-08-21T15:42:54.000Z</time>
      </trkpt>
      <trkpt lat="42.6961474120616912841796875" lon="-0.03331295214593410491943359375">
        <ele>2567</ele>
        <time>2021-08-21T15:42:56.000Z</time>
      </trkpt>
      <trkpt lat="42.6960801891982555389404296875" lon="-0.03318068571388721466064453125">
        <ele>2562.800048828125</ele>
        <time>2021-08-21T15:43:31.000Z</time>
      </trkpt>
      <trkpt lat="42.69606065936386585235595703125" lon="-0.033092088997364044189453125">
        <ele>2559.800048828125</ele>
        <time>2021-08-21T15:43:44.000Z</time>
      </trkpt>
      <trkpt lat="42.69608949311077594757080078125" lon="-0.03306333906948566436767578125">
        <ele>2558.39990234375</ele>
        <time>2021-08-21T15:44:05.000Z</time>
      </trkpt>
      <trkpt lat="42.6961482502520084381103515625" lon="-0.033095441758632659912109375">
        <ele>2559.199951171875</ele>
        <time>2021-08-21T15:44:15.000Z</time>
      </trkpt>
      <trkpt lat="42.696133665740489959716796875" lon="-0.032986812293529510498046875">
        <ele>2555.39990234375</ele>
        <time>2021-08-21T15:44:52.000Z</time>
      </trkpt>
      <trkpt lat="42.69612335599958896636962890625" lon="-0.03296074457466602325439453125">
        <ele>2554.60009765625</ele>
        <time>2021-08-21T15:44:54.000Z</time>
      </trkpt>
      <trkpt lat="42.69609770737588405609130859375" lon="-0.03275102935731410980224609375">
        <ele>2549.199951171875</ele>
        <time>2021-08-21T15:45:11.000Z</time>
      </trkpt>
      <trkpt lat="42.696082033216953277587890625" lon="-0.032729990780353546142578125">
        <ele>2548.800048828125</ele>
        <time>2021-08-21T15:45:16.000Z</time>
      </trkpt>
      <trkpt lat="42.69604121334850788116455078125" lon="-0.032482556998729705810546875">
        <ele>2542</ele>
        <time>2021-08-21T15:45:52.000Z</time>
      </trkpt>
      <trkpt lat="42.69604121334850788116455078125" lon="-0.03248129971325397491455078125">
        <ele>2542</ele>
        <time>2021-08-21T15:45:54.000Z</time>
      </trkpt>
      <trkpt lat="42.696041129529476165771484375" lon="-0.0324833951890468597412109375">
        <ele>2542</ele>
        <time>2021-08-21T15:45:55.000Z</time>
      </trkpt>
      <trkpt lat="42.696041129529476165771484375" lon="-0.0324833951890468597412109375">
        <ele>2542</ele>
        <time>2021-08-21T15:45:56.000Z</time>
      </trkpt>
      <trkpt lat="42.696087062358856201171875" lon="-0.03239639103412628173828125">
        <ele>2539.39990234375</ele>
        <time>2021-08-21T15:46:09.000Z</time>
      </trkpt>
      <trkpt lat="42.69607189111411571502685546875" lon="-0.03235557116568088531494140625">
        <ele>2538.199951171875</ele>
        <time>2021-08-21T15:46:17.000Z</time>
      </trkpt>
      <trkpt lat="42.6960245333611965179443359375" lon="-0.03230963833630084991455078125">
        <ele>2537</ele>
        <time>2021-08-21T15:46:28.000Z</time>
      </trkpt>
      <trkpt lat="42.6960428059101104736328125" lon="-0.032087601721286773681640625">
        <ele>2530.60009765625</ele>
        <time>2021-08-21T15:47:09.000Z</time>
      </trkpt>
      <trkpt lat="42.6960282213985919952392578125" lon="-0.03215658478438854217529296875">
        <ele>2532.60009765625</ele>
        <time>2021-08-21T15:47:28.000Z</time>
      </trkpt>
      <trkpt lat="42.69602193497121334075927734375" lon="-0.03215205855667591094970703125">
        <ele>2532.39990234375</ele>
        <time>2021-08-21T15:47:40.000Z</time>
      </trkpt>
      <trkpt lat="42.69601036794483661651611328125" lon="-0.0321491248905658721923828125">
        <ele>2532.39990234375</ele>
        <time>2021-08-21T15:47:48.000Z</time>
      </trkpt>
      <trkpt lat="42.6960034109652042388916015625" lon="-0.0321712531149387359619140625">
        <ele>2533</ele>
        <time>2021-08-21T15:48:01.000Z</time>
      </trkpt>
      <trkpt lat="42.6960359327495098114013671875" lon="-0.03212087787687778472900390625">
        <ele>2531.60009765625</ele>
        <time>2021-08-21T15:48:29.000Z</time>
      </trkpt>
      <trkpt lat="42.69603802822530269622802734375" lon="-0.03212280571460723876953125">
        <ele>2531.60009765625</ele>
        <time>2021-08-21T15:48:38.000Z</time>
      </trkpt>
      <trkpt lat="42.6960070990025997161865234375" lon="-0.03217284567654132843017578125">
        <ele>2533.199951171875</ele>
        <time>2021-08-21T15:48:50.000Z</time>
      </trkpt>
      <trkpt lat="42.6960181631147861480712890625" lon="-0.032247863709926605224609375">
        <ele>2535.199951171875</ele>
        <time>2021-08-21T15:48:58.000Z</time>
      </trkpt>
      <trkpt lat="42.6960195042192935943603515625" lon="-0.0323273241519927978515625">
        <ele>2537.60009765625</ele>
        <time>2021-08-21T15:49:04.000Z</time>
      </trkpt>
      <trkpt lat="42.69601623527705669403076171875" lon="-0.032345764338970184326171875">
        <ele>2538</ele>
        <time>2021-08-21T15:49:06.000Z</time>
      </trkpt>
      <trkpt lat="42.69599796272814273834228515625" lon="-0.0323962233960628509521484375">
        <ele>2539.60009765625</ele>
        <time>2021-08-21T15:49:12.000Z</time>
      </trkpt>
      <trkpt lat="42.6959933526813983917236328125" lon="-0.03240250982344150543212890625">
        <ele>2539.800048828125</ele>
        <time>2021-08-21T15:49:13.000Z</time>
      </trkpt>
      <trkpt lat="42.69598589278757572174072265625" lon="-0.03241659142076969146728515625">
        <ele>2540.199951171875</ele>
        <time>2021-08-21T15:49:15.000Z</time>
      </trkpt>
      <trkpt lat="42.6959843002259731292724609375" lon="-0.03242187201976776123046875">
        <ele>2540.39990234375</ele>
        <time>2021-08-21T15:49:17.000Z</time>
      </trkpt>
      <trkpt lat="42.695951275527477264404296875" lon="-0.03240217454731464385986328125">
        <ele>2539.800048828125</ele>
        <time>2021-08-21T15:49:24.000Z</time>
      </trkpt>
      <trkpt lat="42.69594431854784488677978515625" lon="-0.0324123166501522064208984375">
        <ele>2540.199951171875</ele>
        <time>2021-08-21T15:49:28.000Z</time>
      </trkpt>
      <trkpt lat="42.69594825804233551025390625" lon="-0.03242463804781436920166015625">
        <ele>2540.39990234375</ele>
        <time>2021-08-21T15:49:29.000Z</time>
      </trkpt>
      <trkpt lat="42.69594331271946430206298828125" lon="-0.03244190476834774017333984375">
        <ele>2541</ele>
        <time>2021-08-21T15:49:34.000Z</time>
      </trkpt>
      <trkpt lat="42.6959343440830707550048828125" lon="-0.03245850093662738800048828125">
        <ele>2541.60009765625</ele>
        <time>2021-08-21T15:49:38.000Z</time>
      </trkpt>
      <trkpt lat="42.695913054049015045166015625" lon="-0.03248968161642551422119140625">
        <ele>2542.39990234375</ele>
        <time>2021-08-21T15:49:43.000Z</time>
      </trkpt>
      <trkpt lat="42.69588899798691272735595703125" lon="-0.03253477625548839569091796875">
        <ele>2543.800048828125</ele>
        <time>2021-08-21T15:49:48.000Z</time>
      </trkpt>
      <trkpt lat="42.69588363356888294219970703125" lon="-0.0325477682054042816162109375">
        <ele>2544.199951171875</ele>
        <time>2021-08-21T15:49:49.000Z</time>
      </trkpt>
      <trkpt lat="42.6958337612450122833251953125" lon="-0.03270844928920269012451171875">
        <ele>2550.199951171875</ele>
        <time>2021-08-21T15:50:17.000Z</time>
      </trkpt>
      <trkpt lat="42.69564248621463775634765625" lon="-0.0328186713159084320068359375">
        <ele>2561.199951171875</ele>
        <time>2021-08-21T15:51:08.000Z</time>
      </trkpt>
      <trkpt lat="42.69562932662665843963623046875" lon="-0.03293459303677082061767578125">
        <ele>2565</ele>
        <time>2021-08-21T15:51:29.000Z</time>
      </trkpt>
      <trkpt lat="42.69560049287974834442138671875" lon="-0.0329925119876861572265625">
        <ele>2568.199951171875</ele>
        <time>2021-08-21T15:51:38.000Z</time>
      </trkpt>
      <trkpt lat="42.69551918841898441314697265625" lon="-0.03309351392090320587158203125">
        <ele>2574.800048828125</ele>
        <time>2021-08-21T15:52:00.000Z</time>
      </trkpt>
      <trkpt lat="42.695516087114810943603515625" lon="-0.03310373984277248382568359375">
        <ele>2575.199951171875</ele>
        <time>2021-08-21T15:52:02.000Z</time>
      </trkpt>
      <trkpt lat="42.69551575183868408203125" lon="-0.03311648033559322357177734375">
        <ele>2575.60009765625</ele>
        <time>2021-08-21T15:52:04.000Z</time>
      </trkpt>
      <trkpt lat="42.69551650620996952056884765625" lon="-0.03313978202641010284423828125">
        <ele>2576.39990234375</ele>
        <time>2021-08-21T15:52:08.000Z</time>
      </trkpt>
      <trkpt lat="42.695513404905796051025390625" lon="-0.03315403126180171966552734375">
        <ele>2577</ele>
        <time>2021-08-21T15:52:10.000Z</time>
      </trkpt>
      <trkpt lat="42.69551374018192291259765625" lon="-0.033168531954288482666015625">
        <ele>2577.39990234375</ele>
        <time>2021-08-21T15:52:11.000Z</time>
      </trkpt>
      <trkpt lat="42.69551499746739864349365234375" lon="-0.03317699767649173736572265625">
        <ele>2577.60009765625</ele>
        <time>2021-08-21T15:52:13.000Z</time>
      </trkpt>
      <trkpt lat="42.69551885314285755157470703125" lon="-0.03319107927381992340087890625">
        <ele>2577.800048828125</ele>
        <time>2021-08-21T15:52:14.000Z</time>
      </trkpt>
      <trkpt lat="42.69552069716155529022216796875" lon="-0.03321153111755847930908203125">
        <ele>2578.39990234375</ele>
        <time>2021-08-21T15:52:20.000Z</time>
      </trkpt>
      <trkpt lat="42.695519439876079559326171875" lon="-0.03321773372590541839599609375">
        <ele>2578.800048828125</ele>
        <time>2021-08-21T15:52:21.000Z</time>
      </trkpt>
      <trkpt lat="42.695518434047698974609375" lon="-0.033219158649444580078125">
        <ele>2578.800048828125</ele>
        <time>2021-08-21T15:52:23.000Z</time>
      </trkpt>
      <trkpt lat="42.6955243013799190521240234375" lon="-0.03321086056530475616455078125">
        <ele>2578.39990234375</ele>
        <time>2021-08-21T15:52:28.000Z</time>
      </trkpt>
      <trkpt lat="42.69552354700863361358642578125" lon="-0.03321580588817596435546875">
        <ele>2578.60009765625</ele>
        <time>2021-08-21T15:52:29.000Z</time>
      </trkpt>
      <trkpt lat="42.69554751925170421600341796875" lon="-0.03324438817799091339111328125">
        <ele>2578.39990234375</ele>
        <time>2021-08-21T15:52:36.000Z</time>
      </trkpt>
      <trkpt lat="42.6955611817538738250732421875" lon="-0.03325746394693851470947265625">
        <ele>2578.39990234375</ele>
        <time>2021-08-21T15:52:39.000Z</time>
      </trkpt>
      <trkpt lat="42.69556897692382335662841796875" lon="-0.03326031379401683807373046875">
        <ele>2578.199951171875</ele>
        <time>2021-08-21T15:52:40.000Z</time>
      </trkpt>
      <trkpt lat="42.69556897692382335662841796875" lon="-0.03326031379401683807373046875">
        <ele>2578.199951171875</ele>
        <time>2021-08-21T15:52:41.000Z</time>
      </trkpt>
      <trkpt lat="42.6955916918814182281494140625" lon="-0.03327213227748870849609375">
        <ele>2577.800048828125</ele>
        <time>2021-08-21T15:52:45.000Z</time>
      </trkpt>
      <trkpt lat="42.69559982232749462127685546875" lon="-0.0333095155656337738037109375">
        <ele>2578.800048828125</ele>
        <time>2021-08-21T15:52:52.000Z</time>
      </trkpt>
      <trkpt lat="42.695599235594272613525390625" lon="-0.0333319790661334991455078125">
        <ele>2579.60009765625</ele>
        <time>2021-08-21T15:52:55.000Z</time>
      </trkpt>
      <trkpt lat="42.6955990679562091827392578125" lon="-0.0333386845886707305908203125">
        <ele>2580</ele>
        <time>2021-08-21T15:52:56.000Z</time>
      </trkpt>
      <trkpt lat="42.69560283981263637542724609375" lon="-0.03335184417665004730224609375">
        <ele>2580.199951171875</ele>
        <time>2021-08-21T15:52:57.000Z</time>
      </trkpt>
      <trkpt lat="42.69560283981263637542724609375" lon="-0.03335184417665004730224609375">
        <ele>2580.199951171875</ele>
        <time>2021-08-21T15:52:58.000Z</time>
      </trkpt>
      <trkpt lat="42.69560418091714382171630859375" lon="-0.033369027078151702880859375">
        <ele>2580.800048828125</ele>
        <time>2021-08-21T15:52:59.000Z</time>
      </trkpt>
      <trkpt lat="42.6956047676503658294677734375" lon="-0.03337539732456207275390625">
        <ele>2581</ele>
        <time>2021-08-21T15:53:01.000Z</time>
      </trkpt>
      <trkpt lat="42.69559831358492374420166015625" lon="-0.03338453359901905059814453125">
        <ele>2581.60009765625</ele>
        <time>2021-08-21T15:53:03.000Z</time>
      </trkpt>
      <trkpt lat="42.69551432691514492034912109375" lon="-0.03343029879033565521240234375">
        <ele>2586.39990234375</ele>
        <time>2021-08-21T15:53:40.000Z</time>
      </trkpt>
      <trkpt lat="42.695481888949871063232421875" lon="-0.0334231741726398468017578125">
        <ele>2587.39990234375</ele>
        <time>2021-08-21T15:53:48.000Z</time>
      </trkpt>
      <trkpt lat="42.6954659633338451385498046875" lon="-0.0334399379789829254150390625">
        <ele>2588.60009765625</ele>
        <time>2021-08-21T15:53:55.000Z</time>
      </trkpt>
      <trkpt lat="42.69545263610780239105224609375" lon="-0.03344102762639522552490234375">
        <ele>2589</ele>
        <time>2021-08-21T15:54:03.000Z</time>
      </trkpt>
      <trkpt lat="42.69544827751815319061279296875" lon="-0.0334342382848262786865234375">
        <ele>2589</ele>
        <time>2021-08-21T15:54:08.000Z</time>
      </trkpt>
      <trkpt lat="42.6954098045825958251953125" lon="-0.0334657542407512664794921875">
        <ele>2591.60009765625</ele>
        <time>2021-08-21T15:54:20.000Z</time>
      </trkpt>
      <trkpt lat="42.69540033303201198577880859375" lon="-0.03349601291120052337646484375">
        <ele>2593</ele>
        <time>2021-08-21T15:54:27.000Z</time>
      </trkpt>
      <trkpt lat="42.69542254507541656494140625" lon="-0.033588297665119171142578125">
        <ele>2595.39990234375</ele>
        <time>2021-08-21T15:54:48.000Z</time>
      </trkpt>
      <trkpt lat="42.69542480818927288055419921875" lon="-0.03359056077897548675537109375">
        <ele>2595.39990234375</ele>
        <time>2021-08-21T15:55:12.000Z</time>
      </trkpt>
      <trkpt lat="42.6954304240643978118896484375" lon="-0.0335743837058544158935546875">
        <ele>2594.800048828125</ele>
        <time>2021-08-21T15:55:24.000Z</time>
      </trkpt>
      <trkpt lat="42.695319950580596923828125" lon="-0.03352534957230091094970703125">
        <ele>2597</ele>
        <time>2021-08-21T15:56:01.000Z</time>
      </trkpt>
      <trkpt lat="42.69524929113686084747314453125" lon="-0.03352224826812744140625">
        <ele>2599.60009765625</ele>
        <time>2021-08-21T15:56:10.000Z</time>
      </trkpt>
      <trkpt lat="42.69523755647242069244384765625" lon="-0.03352870233356952667236328125">
        <ele>2600.39990234375</ele>
        <time>2021-08-21T15:56:12.000Z</time>
      </trkpt>
      <trkpt lat="42.69522950984537601470947265625" lon="-0.03352819941937923431396484375">
        <ele>2600.60009765625</ele>
        <time>2021-08-21T15:56:13.000Z</time>
      </trkpt>
      <trkpt lat="42.69521475769579410552978515625" lon="-0.0335247628390789031982421875">
        <ele>2601.199951171875</ele>
        <time>2021-08-21T15:56:15.000Z</time>
      </trkpt>
      <trkpt lat="42.6952067948877811431884765625" lon="-0.03352484665811061859130859375">
        <ele>2601.39990234375</ele>
        <time>2021-08-21T15:56:16.000Z</time>
      </trkpt>
      <trkpt lat="42.69518927671015262603759765625" lon="-0.03352317027747631072998046875">
        <ele>2602</ele>
        <time>2021-08-21T15:56:19.000Z</time>
      </trkpt>
      <trkpt lat="42.695157341659069061279296875" lon="-0.033517219126224517822265625">
        <ele>2603.199951171875</ele>
        <time>2021-08-21T15:56:24.000Z</time>
      </trkpt>
      <trkpt lat="42.69514753483235836029052734375" lon="-0.03351847641170024871826171875">
        <ele>2603.60009765625</ele>
        <time>2021-08-21T15:56:25.000Z</time>
      </trkpt>
      <trkpt lat="42.69514451734721660614013671875" lon="-0.0335287861526012420654296875">
        <ele>2604.199951171875</ele>
        <time>2021-08-21T15:56:27.000Z</time>
      </trkpt>
      <trkpt lat="42.69505097530782222747802734375" lon="-0.03354261629283428192138671875">
        <ele>2608.39990234375</ele>
        <time>2021-08-21T15:56:57.000Z</time>
      </trkpt>
      <trkpt lat="42.69504292868077754974365234375" lon="-0.033542700111865997314453125">
        <ele>2608.800048828125</ele>
        <time>2021-08-21T15:56:59.000Z</time>
      </trkpt>
      <trkpt lat="42.694995403289794921875" lon="-0.03359106369316577911376953125">
        <ele>2612.60009765625</ele>
        <time>2021-08-21T15:57:09.000Z</time>
      </trkpt>
      <trkpt lat="42.69499414600431919097900390625" lon="-0.033567845821380615234375">
        <ele>2611.800048828125</ele>
        <time>2021-08-21T15:57:16.000Z</time>
      </trkpt>
      <trkpt lat="42.69496380351483821868896484375" lon="-0.0335861183702945709228515625">
        <ele>2614</ele>
        <time>2021-08-21T15:57:29.000Z</time>
      </trkpt>
      <trkpt lat="42.69494687207043170928955078125" lon="-0.0335968472063541412353515625">
        <ele>2615.199951171875</ele>
        <time>2021-08-21T15:57:33.000Z</time>
      </trkpt>
      <trkpt lat="42.69492625258862972259521484375" lon="-0.0336028821766376495361328125">
        <ele>2616.39990234375</ele>
        <time>2021-08-21T15:57:38.000Z</time>
      </trkpt>
      <trkpt lat="42.69490831531584262847900390625" lon="-0.03359894268214702606201171875">
        <ele>2617.199951171875</ele>
        <time>2021-08-21T15:57:46.000Z</time>
      </trkpt>
      <trkpt lat="42.694903872907161712646484375" lon="-0.0336374156177043914794921875">
        <ele>2618.60009765625</ele>
        <time>2021-08-21T15:57:57.000Z</time>
      </trkpt>
      <trkpt lat="42.694852910935878753662109375" lon="-0.03366180695593357086181640625">
        <ele>2622</ele>
        <time>2021-08-21T15:58:14.000Z</time>
      </trkpt>
      <trkpt lat="42.69484511576592922210693359375" lon="-0.0336910597980022430419921875">
        <ele>2623.39990234375</ele>
        <time>2021-08-21T15:58:20.000Z</time>
      </trkpt>
      <trkpt lat="42.69483271054923534393310546875" lon="-0.03373003564774990081787109375">
        <ele>2625.199951171875</ele>
        <time>2021-08-21T15:58:27.000Z</time>
      </trkpt>
      <trkpt lat="42.69480555318295955657958984375" lon="-0.03373120911419391632080078125">
        <ele>2626.60009765625</ele>
        <time>2021-08-21T15:58:35.000Z</time>
      </trkpt>
      <trkpt lat="42.6948074810206890106201171875" lon="-0.03374151885509490966796875">
        <ele>2627</ele>
        <time>2021-08-21T15:58:37.000Z</time>
      </trkpt>
      <trkpt lat="42.694797925651073455810546875" lon="-0.0337577797472476959228515625">
        <ele>2628</ele>
        <time>2021-08-21T15:58:41.000Z</time>
      </trkpt>
      <trkpt lat="42.69478686153888702392578125" lon="-0.033761970698833465576171875">
        <ele>2628.60009765625</ele>
        <time>2021-08-21T15:58:46.000Z</time>
      </trkpt>
      <trkpt lat="42.69465836696326732635498046875" lon="-0.0337891280651092529296875">
        <ele>2635.800048828125</ele>
        <time>2021-08-21T15:59:33.000Z</time>
      </trkpt>
      <trkpt lat="42.6946317963302135467529296875" lon="-0.03382475115358829498291015625">
        <ele>2638.199951171875</ele>
        <time>2021-08-21T15:59:44.000Z</time>
      </trkpt>
      <trkpt lat="42.69429408945143222808837890625" lon="-0.03400211222469806671142578125">
        <ele>2660</ele>
        <time>2021-08-21T16:01:17.000Z</time>
      </trkpt>
      <trkpt lat="42.69424916245043277740478515625" lon="-0.0340407527983188629150390625">
        <ele>2663.39990234375</ele>
        <time>2021-08-21T16:01:29.000Z</time>
      </trkpt>
      <trkpt lat="42.69420574419200420379638671875" lon="-0.0340669043362140655517578125">
        <ele>2666.199951171875</ele>
        <time>2021-08-21T16:01:52.000Z</time>
      </trkpt>
      <trkpt lat="42.69420658238232135772705078125" lon="-0.03406749106943607330322265625">
        <ele>2666.199951171875</ele>
        <time>2021-08-21T16:01:53.000Z</time>
      </trkpt>
      <trkpt lat="42.69421580247581005096435546875" lon="-0.0340645574033260345458984375">
        <ele>2665.800048828125</ele>
        <time>2021-08-21T16:01:59.000Z</time>
      </trkpt>
      <trkpt lat="42.69419166259467601776123046875" lon="-0.03409649245440959930419921875">
        <ele>2667.800048828125</ele>
        <time>2021-08-21T16:02:27.000Z</time>
      </trkpt>
      <trkpt lat="42.69416249357163906097412109375" lon="-0.0341443531215190887451171875">
        <ele>2670.800048828125</ele>
        <time>2021-08-21T16:02:35.000Z</time>
      </trkpt>
      <trkpt lat="42.69414656795561313629150390625" lon="-0.03416086547076702117919921875">
        <ele>2672.199951171875</ele>
        <time>2021-08-21T16:02:38.000Z</time>
      </trkpt>
      <trkpt lat="42.694133408367633819580078125" lon="-0.0341887772083282470703125">
        <ele>2673.60009765625</ele>
        <time>2021-08-21T16:02:42.000Z</time>
      </trkpt>
      <trkpt lat="42.69412594847381114959716796875" lon="-0.03420847468078136444091796875">
        <ele>2674.60009765625</ele>
        <time>2021-08-21T16:02:45.000Z</time>
      </trkpt>
      <trkpt lat="42.694119326770305633544921875" lon="-0.03422004170715808868408203125">
        <ele>2675.199951171875</ele>
        <time>2021-08-21T16:02:47.000Z</time>
      </trkpt>
      <trkpt lat="42.69410667009651660919189453125" lon="-0.03423864953219890594482421875">
        <ele>2676.39990234375</ele>
        <time>2021-08-21T16:02:50.000Z</time>
      </trkpt>
      <trkpt lat="42.6941044069826602935791015625" lon="-0.03424753434956073760986328125">
        <ele>2676.800048828125</ele>
        <time>2021-08-21T16:02:51.000Z</time>
      </trkpt>
      <trkpt lat="42.6940926723182201385498046875" lon="-0.03426186740398406982421875">
        <ele>2677.800048828125</ele>
        <time>2021-08-21T16:02:52.000Z</time>
      </trkpt>
      <trkpt lat="42.6940926723182201385498046875" lon="-0.03426186740398406982421875">
        <ele>2677.800048828125</ele>
        <time>2021-08-21T16:02:53.000Z</time>
      </trkpt>
      <trkpt lat="42.69408605061471462249755859375" lon="-0.03427335061132907867431640625">
        <ele>2678.60009765625</ele>
        <time>2021-08-21T16:02:54.000Z</time>
      </trkpt>
      <trkpt lat="42.6940812729299068450927734375" lon="-0.0342818163335323333740234375">
        <ele>2679</ele>
        <time>2021-08-21T16:02:56.000Z</time>
      </trkpt>
      <trkpt lat="42.69407699815928936004638671875" lon="-0.0342865101993083953857421875">
        <ele>2679.39990234375</ele>
        <time>2021-08-21T16:02:57.000Z</time>
      </trkpt>
      <trkpt lat="42.69405503757297992706298828125" lon="-0.03431643359363079071044921875">
        <ele>2681.39990234375</ele>
        <time>2021-08-21T16:03:02.000Z</time>
      </trkpt>
      <trkpt lat="42.69404497928917407989501953125" lon="-0.03434635698795318603515625">
        <ele>2682.800048828125</ele>
        <time>2021-08-21T16:03:06.000Z</time>
      </trkpt>
      <trkpt lat="42.6940430514514446258544921875" lon="-0.0343515537679195404052734375">
        <ele>2683</ele>
        <time>2021-08-21T16:03:07.000Z</time>
      </trkpt>
      <trkpt lat="42.694036848843097686767578125" lon="-0.03436069004237651824951171875">
        <ele>2683.60009765625</ele>
        <time>2021-08-21T16:03:08.000Z</time>
      </trkpt>
      <trkpt lat="42.694036848843097686767578125" lon="-0.03436069004237651824951171875">
        <ele>2683.60009765625</ele>
        <time>2021-08-21T16:03:09.000Z</time>
      </trkpt>
      <trkpt lat="42.69402804784476757049560546875" lon="-0.03438130952417850494384765625">
        <ele>2684.800048828125</ele>
        <time>2021-08-21T16:03:12.000Z</time>
      </trkpt>
      <trkpt lat="42.6940115354955196380615234375" lon="-0.03439170308411121368408203125">
        <ele>2686</ele>
        <time>2021-08-21T16:03:16.000Z</time>
      </trkpt>
      <trkpt lat="42.694010026752948760986328125" lon="-0.034392289817333221435546875">
        <ele>2686</ele>
        <time>2021-08-21T16:03:18.000Z</time>
      </trkpt>
      <trkpt lat="42.694002650678157806396484375" lon="-0.03439731895923614501953125">
        <ele>2686.60009765625</ele>
        <time>2021-08-21T16:03:19.000Z</time>
      </trkpt>
      <trkpt lat="42.693987227976322174072265625" lon="-0.03441886045038700103759765625">
        <ele>2688</ele>
        <time>2021-08-21T16:03:25.000Z</time>
      </trkpt>
      <trkpt lat="42.69396149553358554840087890625" lon="-0.0344581715762615203857421875">
        <ele>2690.60009765625</ele>
        <time>2021-08-21T16:03:32.000Z</time>
      </trkpt>
      <trkpt lat="42.69395495764911174774169921875" lon="-0.0344632007181644439697265625">
        <ele>2691</ele>
        <time>2021-08-21T16:03:34.000Z</time>
      </trkpt>
      <trkpt lat="42.69394875504076480865478515625" lon="-0.03447049297392368316650390625">
        <ele>2691.60009765625</ele>
        <time>2021-08-21T16:03:36.000Z</time>
      </trkpt>
      <trkpt lat="42.69390014000236988067626953125" lon="-0.03455045633018016815185546875">
        <ele>2696.39990234375</ele>
        <time>2021-08-21T16:03:53.000Z</time>
      </trkpt>
      <trkpt lat="42.69388102926313877105712890625" lon="-0.03460845910012722015380859375">
        <ele>2699.199951171875</ele>
        <time>2021-08-21T16:04:01.000Z</time>
      </trkpt>
      <trkpt lat="42.69387717358767986297607421875" lon="-0.0346395559608936309814453125">
        <ele>2700.39990234375</ele>
        <time>2021-08-21T16:04:05.000Z</time>
      </trkpt>
      <trkpt lat="42.6938764192163944244384765625" lon="-0.0346420705318450927734375">
        <ele>2700.39990234375</ele>
        <time>2021-08-21T16:04:06.000Z</time>
      </trkpt>
      <trkpt lat="42.693875245749950408935546875" lon="-0.0346512906253337860107421875">
        <ele>2700.800048828125</ele>
        <time>2021-08-21T16:04:09.000Z</time>
      </trkpt>
      <trkpt lat="42.69387683831155300140380859375" lon="-0.03466126509010791778564453125">
        <ele>2701</ele>
        <time>2021-08-21T16:04:12.000Z</time>
      </trkpt>
      <trkpt lat="42.69387415610253810882568359375" lon="-0.03467165865004062652587890625">
        <ele>2701.39990234375</ele>
        <time>2021-08-21T16:04:14.000Z</time>
      </trkpt>
      <trkpt lat="42.69386979751288890838623046875" lon="-0.0346801243722438812255859375">
        <ele>2702</ele>
        <time>2021-08-21T16:04:16.000Z</time>
      </trkpt>
      <trkpt lat="42.6938666962087154388427734375" lon="-0.03469328396022319793701171875">
        <ele>2702.39990234375</ele>
        <time>2021-08-21T16:04:17.000Z</time>
      </trkpt>
      <trkpt lat="42.6938666962087154388427734375" lon="-0.03469328396022319793701171875">
        <ele>2702.39990234375</ele>
        <time>2021-08-21T16:04:18.000Z</time>
      </trkpt>
      <trkpt lat="42.69386543892323970794677734375" lon="-0.03470133058726787567138671875">
        <ele>2702.800048828125</ele>
        <time>2021-08-21T16:04:19.000Z</time>
      </trkpt>
      <trkpt lat="42.6938626728951930999755859375" lon="-0.03471189178526401519775390625">
        <ele>2703.199951171875</ele>
        <time>2021-08-21T16:04:22.000Z</time>
      </trkpt>
      <trkpt lat="42.693859152495861053466796875" lon="-0.034722872078418731689453125">
        <ele>2703.800048828125</ele>
        <time>2021-08-21T16:04:24.000Z</time>
      </trkpt>
      <trkpt lat="42.69386108033359050750732421875" lon="-0.0347347743809223175048828125">
        <ele>2704</ele>
        <time>2021-08-21T16:04:26.000Z</time>
      </trkpt>
      <trkpt lat="42.6938609965145587921142578125" lon="-0.0347438268363475799560546875">
        <ele>2704.39990234375</ele>
        <time>2021-08-21T16:04:27.000Z</time>
      </trkpt>
      <trkpt lat="42.6938609965145587921142578125" lon="-0.0347438268363475799560546875">
        <ele>2704.39990234375</ele>
        <time>2021-08-21T16:04:28.000Z</time>
      </trkpt>
      <trkpt lat="42.693861164152622222900390625" lon="-0.03474877215921878814697265625">
        <ele>2704.39990234375</ele>
        <time>2021-08-21T16:04:29.000Z</time>
      </trkpt>
      <trkpt lat="42.6938616670668125152587890625" lon="-0.03477676771581172943115234375">
        <ele>2705.199951171875</ele>
        <time>2021-08-21T16:04:32.000Z</time>
      </trkpt>
      <trkpt lat="42.69386476837098598480224609375" lon="-0.034785233438014984130859375">
        <ele>2705.39990234375</ele>
        <time>2021-08-21T16:04:34.000Z</time>
      </trkpt>
      <trkpt lat="42.69386510364711284637451171875" lon="-0.0347874127328395843505859375">
        <ele>2705.39990234375</ele>
        <time>2021-08-21T16:04:35.000Z</time>
      </trkpt>
      <trkpt lat="42.69386426545679569244384765625" lon="-0.0347917713224887847900390625">
        <ele>2705.60009765625</ele>
        <time>2021-08-21T16:04:36.000Z</time>
      </trkpt>
      <trkpt lat="42.69385613501071929931640625" lon="-0.03482647240161895751953125">
        <ele>2707</ele>
        <time>2021-08-21T16:04:41.000Z</time>
      </trkpt>
      <trkpt lat="42.69384398125112056732177734375" lon="-0.03486000001430511474609375">
        <ele>2708.800048828125</ele>
        <time>2021-08-21T16:04:45.000Z</time>
      </trkpt>
      <trkpt lat="42.69383995793759822845458984375" lon="-0.0348755903542041778564453125">
        <ele>2709.39990234375</ele>
        <time>2021-08-21T16:04:47.000Z</time>
      </trkpt>
      <trkpt lat="42.693830989301204681396484375" lon="-0.03490216098725795745849609375">
        <ele>2710.800048828125</ele>
        <time>2021-08-21T16:04:52.000Z</time>
      </trkpt>
      <trkpt lat="42.6938217692077159881591796875" lon="-0.03495077602565288543701171875">
        <ele>2712.60009765625</ele>
        <time>2021-08-21T16:05:00.000Z</time>
      </trkpt>
      <trkpt lat="42.69381715916097164154052734375" lon="-0.03496116958558559417724609375">
        <ele>2713.199951171875</ele>
        <time>2021-08-21T16:05:02.000Z</time>
      </trkpt>
      <trkpt lat="42.6938090287148952484130859375" lon="-0.03497407771646976470947265625">
        <ele>2714</ele>
        <time>2021-08-21T16:05:05.000Z</time>
      </trkpt>
      <trkpt lat="42.69380643032491207122802734375" lon="-0.0349801965057849884033203125">
        <ele>2714.39990234375</ele>
        <time>2021-08-21T16:05:06.000Z</time>
      </trkpt>
      <trkpt lat="42.69380575977265834808349609375" lon="-0.03498329780995845794677734375">
        <ele>2714.60009765625</ele>
        <time>2021-08-21T16:05:07.000Z</time>
      </trkpt>
      <trkpt lat="42.69380341283977031707763671875" lon="-0.03498547710478305816650390625">
        <ele>2714.800048828125</ele>
        <time>2021-08-21T16:05:08.000Z</time>
      </trkpt>
      <trkpt lat="42.69380156882107257843017578125" lon="-0.0349853932857513427734375">
        <ele>2714.800048828125</ele>
        <time>2021-08-21T16:05:09.000Z</time>
      </trkpt>
      <trkpt lat="42.69379989244043827056884765625" lon="-0.034982375800609588623046875">
        <ele>2714.800048828125</ele>
        <time>2021-08-21T16:05:10.000Z</time>
      </trkpt>
      <trkpt lat="42.69379637204110622406005859375" lon="-0.0349828787147998809814453125">
        <ele>2715</ele>
        <time>2021-08-21T16:05:11.000Z</time>
      </trkpt>
      <trkpt lat="42.69379486329853534698486328125" lon="-0.03497944213449954986572265625">
        <ele>2715</ele>
        <time>2021-08-21T16:05:12.000Z</time>
      </trkpt>
      <trkpt lat="42.69379201345145702362060546875" lon="-0.03497743047773838043212890625">
        <ele>2715.199951171875</ele>
        <time>2021-08-21T16:05:13.000Z</time>
      </trkpt>
      <trkpt lat="42.69378899596631526947021484375" lon="-0.03497407771646976470947265625">
        <ele>2715.199951171875</ele>
        <time>2021-08-21T16:05:14.000Z</time>
      </trkpt>
      <trkpt lat="42.693765945732593536376953125" lon="-0.0349061004817485809326171875">
        <ele>2714.39990234375</ele>
        <time>2021-08-21T16:05:25.000Z</time>
      </trkpt>
      <trkpt lat="42.69375781528651714324951171875" lon="-0.03489562310278415679931640625">
        <ele>2714.60009765625</ele>
        <time>2021-08-21T16:05:28.000Z</time>
      </trkpt>
      <trkpt lat="42.693736441433429718017578125" lon="-0.0348420627415180206298828125">
        <ele>2714.199951171875</ele>
        <time>2021-08-21T16:05:37.000Z</time>
      </trkpt>
      <trkpt lat="42.69370995461940765380859375" lon="-0.03482052125036716461181640625">
        <ele>2715</ele>
        <time>2021-08-21T16:05:42.000Z</time>
      </trkpt>
      <trkpt lat="42.69370048306882381439208984375" lon="-0.03481440246105194091796875">
        <ele>2715.39990234375</ele>
        <time>2021-08-21T16:05:44.000Z</time>
      </trkpt>
      <trkpt lat="42.693641893565654754638671875" lon="-0.0347659550607204437255859375">
        <ele>2717</ele>
        <time>2021-08-21T16:05:55.000Z</time>
      </trkpt>
      <trkpt lat="42.69358179531991481781005859375" lon="-0.03470116294920444488525390625">
        <ele>2718.39990234375</ele>
        <time>2021-08-21T16:06:10.000Z</time>
      </trkpt>
      <trkpt lat="42.69356050528585910797119140625" lon="-0.0346771068871021270751953125">
        <ele>2719</ele>
        <time>2021-08-21T16:06:15.000Z</time>
      </trkpt>
      <trkpt lat="42.6935542188584804534912109375" lon="-0.034637711942195892333984375">
        <ele>2718</ele>
        <time>2021-08-21T16:06:20.000Z</time>
      </trkpt>
      <trkpt lat="42.693550027906894683837890625" lon="-0.03462539054453372955322265625">
        <ele>2718</ele>
        <time>2021-08-21T16:06:22.000Z</time>
      </trkpt>
      <trkpt lat="42.693543992936611175537109375" lon="-0.03460896201431751251220703125">
        <ele>2717.800048828125</ele>
        <time>2021-08-21T16:06:24.000Z</time>
      </trkpt>
      <trkpt lat="42.69350820221006870269775390625" lon="-0.03456604667007923126220703125">
        <ele>2718.60009765625</ele>
        <time>2021-08-21T16:06:33.000Z</time>
      </trkpt>
      <trkpt lat="42.69347517751157283782958984375" lon="-0.0345272384583950042724609375">
        <ele>2719.199951171875</ele>
        <time>2021-08-21T16:06:42.000Z</time>
      </trkpt>
      <trkpt lat="42.69342924468219280242919921875" lon="-0.034447275102138519287109375">
        <ele>2720</ele>
        <time>2021-08-21T16:06:59.000Z</time>
      </trkpt>
      <trkpt lat="42.6934378780424594879150390625" lon="-0.0344447605311870574951171875">
        <ele>2719.39990234375</ele>
        <time>2021-08-21T16:07:04.000Z</time>
      </trkpt>
      <trkpt lat="42.6934397220611572265625" lon="-0.03443864174187183380126953125">
        <ele>2719.199951171875</ele>
        <time>2021-08-21T16:07:08.000Z</time>
      </trkpt>
      <trkpt lat="42.69343427382409572601318359375" lon="-0.0344357080757617950439453125">
        <ele>2719.39990234375</ele>
        <time>2021-08-21T16:07:17.000Z</time>
      </trkpt>
      <trkpt lat="42.69343435764312744140625" lon="-0.03443579189479351043701171875">
        <ele>2719.39990234375</ele>
        <time>2021-08-21T16:07:18.000Z</time>
      </trkpt>
      <trkpt lat="42.69343435764312744140625" lon="-0.034435875713825225830078125">
        <ele>2719.39990234375</ele>
        <time>2021-08-21T16:07:19.000Z</time>
      </trkpt>
      <trkpt lat="42.69343142397701740264892578125" lon="-0.03443378023803234100341796875">
        <ele>2719.60009765625</ele>
        <time>2021-08-21T16:07:30.000Z</time>
      </trkpt>
      <trkpt lat="42.6934157498180866241455078125" lon="-0.034423135221004486083984375">
        <ele>2720.199951171875</ele>
        <time>2021-08-21T16:07:34.000Z</time>
      </trkpt>
      <trkpt lat="42.69338582642376422882080078125" lon="-0.0343954749405384063720703125">
        <ele>2721.39990234375</ele>
        <time>2021-08-21T16:07:39.000Z</time>
      </trkpt>
      <trkpt lat="42.69335749559104442596435546875" lon="-0.034361444413661956787109375">
        <ele>2722.39990234375</ele>
        <time>2021-08-21T16:07:44.000Z</time>
      </trkpt>
      <trkpt lat="42.69333486445248126983642578125" lon="-0.0343508832156658172607421875">
        <ele>2723.60009765625</ele>
        <time>2021-08-21T16:07:48.000Z</time>
      </trkpt>
      <trkpt lat="42.6933134905993938446044921875" lon="-0.034337975084781646728515625">
        <ele>2724.60009765625</ele>
        <time>2021-08-21T16:07:52.000Z</time>
      </trkpt>
      <trkpt lat="42.69328826107084751129150390625" lon="-0.0343264080584049224853515625">
        <ele>2725.800048828125</ele>
        <time>2021-08-21T16:07:56.000Z</time>
      </trkpt>
      <trkpt lat="42.69325523637235164642333984375" lon="-0.03428064286708831787109375">
        <ele>2726.800048828125</ele>
        <time>2021-08-21T16:08:03.000Z</time>
      </trkpt>
      <trkpt lat="42.6932491175830364227294921875" lon="-0.03427066840231418609619140625">
        <ele>2727</ele>
        <time>2021-08-21T16:08:05.000Z</time>
      </trkpt>
      <trkpt lat="42.69323042593896389007568359375" lon="-0.03424854017794132232666015625">
        <ele>2727.60009765625</ele>
        <time>2021-08-21T16:08:09.000Z</time>
      </trkpt>
      <trkpt lat="42.69321969710290431976318359375" lon="-0.03423630259931087493896484375">
        <ele>2728</ele>
        <time>2021-08-21T16:08:11.000Z</time>
      </trkpt>
      <trkpt lat="42.693175859749317169189453125" lon="-0.03419615328311920166015625">
        <ele>2730</ele>
        <time>2021-08-21T16:08:18.000Z</time>
      </trkpt>
      <trkpt lat="42.69316588528454303741455078125" lon="-0.034174360334873199462890625">
        <ele>2730</ele>
        <time>2021-08-21T16:08:20.000Z</time>
      </trkpt>
      <trkpt lat="42.69313973374664783477783203125" lon="-0.03415432758629322052001953125">
        <ele>2731.199951171875</ele>
        <time>2021-08-21T16:08:26.000Z</time>
      </trkpt>
      <trkpt lat="42.69313453696668148040771484375" lon="-0.034152567386627197265625">
        <ele>2731.39990234375</ele>
        <time>2021-08-21T16:08:27.000Z</time>
      </trkpt>
      <trkpt lat="42.69313135184347629547119140625" lon="-0.03415181301534175872802734375">
        <ele>2731.60009765625</ele>
        <time>2021-08-21T16:08:28.000Z</time>
      </trkpt>
      <trkpt lat="42.69312028773128986358642578125" lon="-0.03416304476559162139892578125">
        <ele>2732.60009765625</ele>
        <time>2021-08-21T16:08:32.000Z</time>
      </trkpt>
      <trkpt lat="42.69311609677970409393310546875" lon="-0.0341631285846233367919921875">
        <ele>2732.800048828125</ele>
        <time>2021-08-21T16:08:33.000Z</time>
      </trkpt>
      <trkpt lat="42.69310872070491313934326171875" lon="-0.03416354767978191375732421875">
        <ele>2733.39990234375</ele>
        <time>2021-08-21T16:08:34.000Z</time>
      </trkpt>
      <trkpt lat="42.69310201518237590789794921875" lon="-0.0341627933084964752197265625">
        <ele>2733.800048828125</ele>
        <time>2021-08-21T16:08:35.000Z</time>
      </trkpt>
      <trkpt lat="42.693083994090557098388671875" lon="-0.03415684215724468231201171875">
        <ele>2734.800048828125</ele>
        <time>2021-08-21T16:08:38.000Z</time>
      </trkpt>
      <trkpt lat="42.69306429661810398101806640625" lon="-0.03414259292185306549072265625">
        <ele>2735.60009765625</ele>
        <time>2021-08-21T16:08:42.000Z</time>
      </trkpt>
      <trkpt lat="42.69305373542010784149169921875" lon="-0.0341336242854595184326171875">
        <ele>2736</ele>
        <time>2021-08-21T16:08:44.000Z</time>
      </trkpt>
      <trkpt lat="42.6930415816605091094970703125" lon="-0.03412507474422454833984375">
        <ele>2736.60009765625</ele>
        <time>2021-08-21T16:08:47.000Z</time>
      </trkpt>
      <trkpt lat="42.6930352114140987396240234375" lon="-0.03411945886909961700439453125">
        <ele>2737</ele>
        <time>2021-08-21T16:08:48.000Z</time>
      </trkpt>
      <trkpt lat="42.69302490167319774627685546875" lon="-0.034125410020351409912109375">
        <ele>2737.800048828125</ele>
        <time>2021-08-21T16:08:52.000Z</time>
      </trkpt>
      <trkpt lat="42.69301635213196277618408203125" lon="-0.0341540761291980743408203125">
        <ele>2738.800048828125</ele>
        <time>2021-08-21T16:08:56.000Z</time>
      </trkpt>
      <trkpt lat="42.693016938865184783935546875" lon="-0.034172348678112030029296875">
        <ele>2739.199951171875</ele>
        <time>2021-08-21T16:08:58.000Z</time>
      </trkpt>
      <trkpt lat="42.6930241473019123077392578125" lon="-0.03421367146074771881103515625">
        <ele>2739.800048828125</ele>
        <time>2021-08-21T16:09:06.000Z</time>
      </trkpt>
      <trkpt lat="42.69302976317703723907470703125" lon="-0.0342134200036525726318359375">
        <ele>2739.39990234375</ele>
        <time>2021-08-21T16:09:28.000Z</time>
      </trkpt>
      <trkpt lat="42.69303160719573497772216796875" lon="-0.03421761095523834228515625">
        <ele>2739.39990234375</ele>
        <time>2021-08-21T16:09:32.000Z</time>
      </trkpt>
      <trkpt lat="42.693039067089557647705078125" lon="-0.034224987030029296875">
        <ele>2739</ele>
        <time>2021-08-21T16:09:35.000Z</time>
      </trkpt>
      <trkpt lat="42.6930432580411434173583984375" lon="-0.03422590903937816619873046875">
        <ele>2738.800048828125</ele>
        <time>2021-08-21T16:09:36.000Z</time>
      </trkpt>
      <trkpt lat="42.6930432580411434173583984375" lon="-0.03422590903937816619873046875">
        <ele>2738.800048828125</ele>
        <time>2021-08-21T16:09:37.000Z</time>
      </trkpt>
      <trkpt lat="42.69304552115499973297119140625" lon="-0.0342264957726001739501953125">
        <ele>2738.800048828125</ele>
        <time>2021-08-21T16:09:38.000Z</time>
      </trkpt>
      <trkpt lat="42.69305423833429813385009765625" lon="-0.03421702422201633453369140625">
        <ele>2738</ele>
        <time>2021-08-21T16:09:58.000Z</time>
      </trkpt>
      <trkpt lat="42.69305323250591754913330078125" lon="-0.034217275679111480712890625">
        <ele>2738</ele>
        <time>2021-08-21T16:10:01.000Z</time>
      </trkpt>
      <trkpt lat="42.69305004738271236419677734375" lon="-0.03421585075557231903076171875">
        <ele>2738.199951171875</ele>
        <time>2021-08-21T16:10:09.000Z</time>
      </trkpt>
      <trkpt lat="42.693046443164348602294921875" lon="-0.03421886824071407318115234375">
        <ele>2738.39990234375</ele>
        <time>2021-08-21T16:10:14.000Z</time>
      </trkpt>
      <trkpt lat="42.693042755126953125" lon="-0.03422238864004611968994140625">
        <ele>2738.800048828125</ele>
        <time>2021-08-21T16:10:20.000Z</time>
      </trkpt>
      <trkpt lat="42.6930425874888896942138671875" lon="-0.0342258252203464508056640625">
        <ele>2738.800048828125</ele>
        <time>2021-08-21T16:10:23.000Z</time>
      </trkpt>
      <trkpt lat="42.69304200075566768646240234375" lon="-0.03422741778194904327392578125">
        <ele>2739</ele>
        <time>2021-08-21T16:10:24.000Z</time>
      </trkpt>
      <trkpt lat="42.69304283894598484039306640625" lon="-0.03422523848712444305419921875">
        <ele>2738.800048828125</ele>
        <time>2021-08-21T16:10:27.000Z</time>
      </trkpt>
      <trkpt lat="42.6930452696979045867919921875" lon="-0.0342248193919658660888671875">
        <ele>2738.800048828125</ele>
        <time>2021-08-21T16:10:31.000Z</time>
      </trkpt>
      <trkpt lat="42.6930452696979045867919921875" lon="-0.03422473557293415069580078125">
        <ele>2738.800048828125</ele>
        <time>2021-08-21T16:10:32.000Z</time>
      </trkpt>
      <trkpt lat="42.69302439875900745391845703125" lon="-0.03421015106141567230224609375">
        <ele>2739.60009765625</ele>
        <time>2021-08-21T16:10:50.000Z</time>
      </trkpt>
      <trkpt lat="42.6930199563503265380859375" lon="-0.034210570156574249267578125">
        <ele>2740</ele>
        <time>2021-08-21T16:10:56.000Z</time>
      </trkpt>
      <trkpt lat="42.69302858971059322357177734375" lon="-0.034222640097141265869140625">
        <ele>2739.60009765625</ele>
        <time>2021-08-21T16:11:17.000Z</time>
      </trkpt>
      <trkpt lat="42.69304116256535053253173828125" lon="-0.0342389009892940521240234375">
        <ele>2739.199951171875</ele>
        <time>2021-08-21T16:11:24.000Z</time>
      </trkpt>
      <trkpt lat="42.69304116256535053253173828125" lon="-0.03423898480832576751708984375">
        <ele>2739.199951171875</ele>
        <time>2021-08-21T16:11:25.000Z</time>
      </trkpt>
      <trkpt lat="42.6930412463843822479248046875" lon="-0.03423915244638919830322265625">
        <ele>2739.199951171875</ele>
        <time>2021-08-21T16:11:26.000Z</time>
      </trkpt>
      <trkpt lat="42.69304116256535053253173828125" lon="-0.03423932008445262908935546875">
        <ele>2739.199951171875</ele>
        <time>2021-08-21T16:11:27.000Z</time>
      </trkpt>
      <trkpt lat="42.69304116256535053253173828125" lon="-0.0342395715415477752685546875">
        <ele>2739.199951171875</ele>
        <time>2021-08-21T16:11:28.000Z</time>
      </trkpt>
      <trkpt lat="42.6930412463843822479248046875" lon="-0.0342397391796112060546875">
        <ele>2739.199951171875</ele>
        <time>2021-08-21T16:11:29.000Z</time>
      </trkpt>
      <trkpt lat="42.69304074347019195556640625" lon="-0.0342402420938014984130859375">
        <ele>2739.39990234375</ele>
        <time>2021-08-21T16:11:30.000Z</time>
      </trkpt>
      <trkpt lat="42.69304183311760425567626953125" lon="-0.034239403903484344482421875">
        <ele>2739.199951171875</ele>
        <time>2021-08-21T16:11:32.000Z</time>
      </trkpt>
      <trkpt lat="42.6930412463843822479248046875" lon="-0.0342482887208461761474609375">
        <ele>2739.39990234375</ele>
        <time>2021-08-21T16:11:36.000Z</time>
      </trkpt>
      <trkpt lat="42.69303680397570133209228515625" lon="-0.03426178358495235443115234375">
        <ele>2740</ele>
        <time>2021-08-21T16:11:40.000Z</time>
      </trkpt>
      <trkpt lat="42.6930355466902256011962890625" lon="-0.03426178358495235443115234375">
        <ele>2740.199951171875</ele>
        <time>2021-08-21T16:11:41.000Z</time>
      </trkpt>
      <trkpt lat="42.6930333673954010009765625" lon="-0.03425591625273227691650390625">
        <ele>2740.199951171875</ele>
        <time>2021-08-21T16:11:59.000Z</time>
      </trkpt>
      <trkpt lat="42.69302825443446636199951171875" lon="-0.0342558324337005615234375">
        <ele>2740.39990234375</ele>
        <time>2021-08-21T16:12:10.000Z</time>
      </trkpt>
      <trkpt lat="42.69302909262478351593017578125" lon="-0.0342553295195102691650390625">
        <ele>2740.39990234375</ele>
        <time>2021-08-21T16:12:19.000Z</time>
      </trkpt>
      <trkpt lat="42.6930295117199420928955078125" lon="-0.034254826605319976806640625">
        <ele>2740.39990234375</ele>
        <time>2021-08-21T16:12:23.000Z</time>
      </trkpt>
      <trkpt lat="42.69302741624414920806884765625" lon="-0.03425382077693939208984375">
        <ele>2740.39990234375</ele>
        <time>2021-08-21T16:12:26.000Z</time>
      </trkpt>
      <trkpt lat="42.69302540458738803863525390625" lon="-0.03425574861466884613037109375">
        <ele>2740.60009765625</ele>
        <time>2021-08-21T16:12:32.000Z</time>
      </trkpt>
      <trkpt lat="42.6929877698421478271484375" lon="-0.03426128067076206207275390625">
        <ele>2743.199951171875</ele>
        <time>2021-08-21T16:13:01.000Z</time>
      </trkpt>
      <trkpt lat="42.69297377206385135650634765625" lon="-0.03425708971917629241943359375">
        <ele>2743.800048828125</ele>
        <time>2021-08-21T16:13:03.000Z</time>
      </trkpt>
      <trkpt lat="42.69296958111226558685302734375" lon="-0.03425641916692256927490234375">
        <ele>2744.199951171875</ele>
        <time>2021-08-21T16:13:04.000Z</time>
      </trkpt>
      <trkpt lat="42.69296606071293354034423828125" lon="-0.03425491042435169219970703125">
        <ele>2744.39990234375</ele>
        <time>2021-08-21T16:13:05.000Z</time>
      </trkpt>
      <trkpt lat="42.69296824000775814056396484375" lon="-0.03423211164772510528564453125">
        <ele>2743.60009765625</ele>
        <time>2021-08-21T16:13:14.000Z</time>
      </trkpt>
      <trkpt lat="42.69296773709356784820556640625" lon="-0.03423035144805908203125">
        <ele>2743.60009765625</ele>
        <time>2021-08-21T16:13:15.000Z</time>
      </trkpt>
      <trkpt lat="42.692970670759677886962890625" lon="-0.0342301838099956512451171875">
        <ele>2743.39990234375</ele>
        <time>2021-08-21T16:13:16.000Z</time>
      </trkpt>
      <trkpt lat="42.69296874292194843292236328125" lon="-0.034228675067424774169921875">
        <ele>2743.60009765625</ele>
        <time>2021-08-21T16:13:18.000Z</time>
      </trkpt>
      <trkpt lat="42.69297209568321704864501953125" lon="-0.03422339446842670440673828125">
        <ele>2743.199951171875</ele>
        <time>2021-08-21T16:13:22.000Z</time>
      </trkpt>
      <trkpt lat="42.69297494553029537200927734375" lon="-0.034222640097141265869140625">
        <ele>2743</ele>
        <time>2021-08-21T16:13:25.000Z</time>
      </trkpt>
      <trkpt lat="42.6929795555770397186279296875" lon="-0.0342263281345367431640625">
        <ele>2742.800048828125</ele>
        <time>2021-08-21T16:13:35.000Z</time>
      </trkpt>
      <trkpt lat="42.6929795555770397186279296875" lon="-0.0342254899442195892333984375">
        <ele>2742.800048828125</ele>
        <time>2021-08-21T16:13:36.000Z</time>
      </trkpt>
      <trkpt lat="42.6929671503603458404541015625" lon="-0.03424711525440216064453125">
        <ele>2744</ele>
        <time>2021-08-21T16:14:01.000Z</time>
      </trkpt>
      <trkpt lat="42.69296773709356784820556640625" lon="-0.0342603586614131927490234375">
        <ele>2744.39990234375</ele>
        <time>2021-08-21T16:14:07.000Z</time>
      </trkpt>
      <trkpt lat="42.6929770410060882568359375" lon="-0.0342710874974727630615234375">
        <ele>2744</ele>
        <time>2021-08-21T16:14:11.000Z</time>
      </trkpt>
      <trkpt lat="42.692976035177707672119140625" lon="-0.03427125513553619384765625">
        <ele>2744</ele>
        <time>2021-08-21T16:14:12.000Z</time>
      </trkpt>
      <trkpt lat="42.6929758675396442413330078125" lon="-0.0342710874974727630615234375">
        <ele>2744</ele>
        <time>2021-08-21T16:14:13.000Z</time>
      </trkpt>
      <trkpt lat="42.6929735206067562103271484375" lon="-0.03427117131650447845458984375">
        <ele>2744.199951171875</ele>
        <time>2021-08-21T16:14:14.000Z</time>
      </trkpt>
      <trkpt lat="42.69297301769256591796875" lon="-0.03427033312618732452392578125">
        <ele>2744.199951171875</ele>
        <time>2021-08-21T16:14:15.000Z</time>
      </trkpt>
      <trkpt lat="42.69296974875032901763916015625" lon="-0.03426899202167987823486328125">
        <ele>2744.39990234375</ele>
        <time>2021-08-21T16:14:18.000Z</time>
      </trkpt>
      <trkpt lat="42.69297075457870960235595703125" lon="-0.0342684052884578704833984375">
        <ele>2744.39990234375</ele>
        <time>2021-08-21T16:14:19.000Z</time>
      </trkpt>
      <trkpt lat="42.6929728500545024871826171875" lon="-0.03427502699196338653564453125">
        <ele>2744.39990234375</ele>
        <time>2021-08-21T16:14:23.000Z</time>
      </trkpt>
      <trkpt lat="42.6929725147783756256103515625" lon="-0.0342777930200099945068359375">
        <ele>2744.39990234375</ele>
        <time>2021-08-21T16:14:26.000Z</time>
      </trkpt>
      <trkpt lat="42.69296304322779178619384765625" lon="-0.03427770920097827911376953125">
        <ele>2745</ele>
        <time>2021-08-21T16:14:27.000Z</time>
      </trkpt>
      <trkpt lat="42.692952565848827362060546875" lon="-0.03427787683904170989990234375">
        <ele>2745.60009765625</ele>
        <time>2021-08-21T16:14:34.000Z</time>
      </trkpt>
      <trkpt lat="42.692947871983051300048828125" lon="-0.03427754156291484832763671875">
        <ele>2746</ele>
        <time>2021-08-21T16:14:35.000Z</time>
      </trkpt>
      <trkpt lat="42.69295248202979564666748046875" lon="-0.0342767871916294097900390625">
        <ele>2745.60009765625</ele>
        <time>2021-08-21T16:14:38.000Z</time>
      </trkpt>
      <trkpt lat="42.69295759499073028564453125" lon="-0.0342764519155025482177734375">
        <ele>2745.39990234375</ele>
        <time>2021-08-21T16:14:42.000Z</time>
      </trkpt>
      <trkpt lat="42.69295734353363513946533203125" lon="-0.03427620045840740203857421875">
        <ele>2745.39990234375</ele>
        <time>2021-08-21T16:14:43.000Z</time>
      </trkpt>
      <trkpt lat="42.69295684061944484710693359375" lon="-0.034275949001312255859375">
        <ele>2745.39990234375</ele>
        <time>2021-08-21T16:14:44.000Z</time>
      </trkpt>
      <trkpt lat="42.69295684061944484710693359375" lon="-0.0342757813632488250732421875">
        <ele>2745.39990234375</ele>
        <time>2021-08-21T16:14:45.000Z</time>
      </trkpt>
      <trkpt lat="42.69295684061944484710693359375" lon="-0.034276284277439117431640625">
        <ele>2745.39990234375</ele>
        <time>2021-08-21T16:14:46.000Z</time>
      </trkpt>
      <trkpt lat="42.6929570920765399932861328125" lon="-0.0342744402587413787841796875">
        <ele>2745.39990234375</ele>
        <time>2021-08-21T16:14:58.000Z</time>
      </trkpt>
      <trkpt lat="42.69295751117169857025146484375" lon="-0.034274943172931671142578125">
        <ele>2745.39990234375</ele>
        <time>2021-08-21T16:15:00.000Z</time>
      </trkpt>
      <trkpt lat="42.69295449368655681610107421875" lon="-0.034308470785617828369140625">
        <ele>2746.199951171875</ele>
        <time>2021-08-21T16:15:06.000Z</time>
      </trkpt>
      <trkpt lat="42.6929215528070926666259765625" lon="-0.0343954749405384063720703125">
        <ele>2750.39990234375</ele>
        <time>2021-08-21T16:15:15.000Z</time>
      </trkpt>
      <trkpt lat="42.692915014922618865966796875" lon="-0.0343854166567325592041015625">
        <ele>2750.39990234375</ele>
        <time>2021-08-21T16:15:18.000Z</time>
      </trkpt>
      <trkpt lat="42.69290084950625896453857421875" lon="-0.0343797169625759124755859375">
        <ele>2751.199951171875</ele>
        <time>2021-08-21T16:15:20.000Z</time>
      </trkpt>
      <trkpt lat="42.69288777373731136322021484375" lon="-0.034370832145214080810546875">
        <ele>2751.800048828125</ele>
        <time>2021-08-21T16:15:22.000Z</time>
      </trkpt>
      <trkpt lat="42.692876122891902923583984375" lon="-0.03436119295656681060791015625">
        <ele>2752.39990234375</ele>
        <time>2021-08-21T16:15:24.000Z</time>
      </trkpt>
      <trkpt lat="42.6928642205893993377685546875" lon="-0.034354738891124725341796875">
        <ele>2753</ele>
        <time>2021-08-21T16:15:27.000Z</time>
      </trkpt>
      <trkpt lat="42.69286195747554302215576171875" lon="-0.034352727234363555908203125">
        <ele>2753</ele>
        <time>2021-08-21T16:15:31.000Z</time>
      </trkpt>
      <trkpt lat="42.692858017981052398681640625" lon="-0.034350715577602386474609375">
        <ele>2753.199951171875</ele>
        <time>2021-08-21T16:15:36.000Z</time>
      </trkpt>
      <trkpt lat="42.69285659305751323699951171875" lon="-0.034351386129856109619140625">
        <ele>2753.39990234375</ele>
        <time>2021-08-21T16:15:38.000Z</time>
      </trkpt>
      <trkpt lat="42.69282859750092029571533203125" lon="-0.03439807333052158355712890625">
        <ele>2756.199951171875</ele>
        <time>2021-08-21T16:16:06.000Z</time>
      </trkpt>
      <trkpt lat="42.69261938519775867462158203125" lon="-0.03446982242166996002197265625">
        <ele>2771</ele>
        <time>2021-08-21T16:17:51.000Z</time>
      </trkpt>
      <trkpt lat="42.692614607512950897216796875" lon="-0.034466050565242767333984375">
        <ele>2771.199951171875</ele>
        <time>2021-08-21T16:17:55.000Z</time>
      </trkpt>
      <trkpt lat="42.69228477962315082550048828125" lon="-0.03465305082499980926513671875">
        <ele>2792.60009765625</ele>
        <time>2021-08-21T16:19:34.000Z</time>
      </trkpt>
      <trkpt lat="42.6921178959310054779052734375" lon="-0.0346715748310089111328125">
        <ele>2801.199951171875</ele>
        <time>2021-08-21T16:20:45.000Z</time>
      </trkpt>
      <trkpt lat="42.6921145431697368621826171875" lon="-0.03466746769845485687255859375">
        <ele>2801.199951171875</ele>
        <time>2021-08-21T16:20:46.000Z</time>
      </trkpt>
      <trkpt lat="42.69210289232432842254638671875" lon="-0.03466780297458171844482421875">
        <ele>2801.800048828125</ele>
        <time>2021-08-21T16:20:48.000Z</time>
      </trkpt>
      <trkpt lat="42.69208931364119052886962890625" lon="-0.03467299975454807281494140625">
        <ele>2802.60009765625</ele>
        <time>2021-08-21T16:20:53.000Z</time>
      </trkpt>
      <trkpt lat="42.69207456149160861968994140625" lon="-0.03466277383267879486083984375">
        <ele>2803.199951171875</ele>
        <time>2021-08-21T16:20:58.000Z</time>
      </trkpt>
      <trkpt lat="42.69196224398910999298095703125" lon="-0.034547187387943267822265625">
        <ele>2806.199951171875</ele>
        <time>2021-08-21T16:21:30.000Z</time>
      </trkpt>
      <trkpt lat="42.6919572986662387847900390625" lon="-0.034531764686107635498046875">
        <ele>2806.199951171875</ele>
        <time>2021-08-21T16:21:46.000Z</time>
      </trkpt>
      <trkpt lat="42.6918640919029712677001953125" lon="-0.03456152044236660003662109375">
        <ele>2811.39990234375</ele>
        <time>2021-08-21T16:22:14.000Z</time>
      </trkpt>
      <trkpt lat="42.69179963506758213043212890625" lon="-0.034496895968914031982421875">
        <ele>2813.199951171875</ele>
        <time>2021-08-21T16:22:44.000Z</time>
      </trkpt>
      <trkpt lat="42.691793181002140045166015625" lon="-0.0344977341592311859130859375">
        <ele>2813.60009765625</ele>
        <time>2021-08-21T16:22:49.000Z</time>
      </trkpt>
      <trkpt lat="42.6917829550802707672119140625" lon="-0.034502930939197540283203125">
        <ele>2814.199951171875</ele>
        <time>2021-08-21T16:22:51.000Z</time>
      </trkpt>
      <trkpt lat="42.69177080132067203521728515625" lon="-0.034496895968914031982421875">
        <ele>2814.800048828125</ele>
        <time>2021-08-21T16:22:54.000Z</time>
      </trkpt>
      <trkpt lat="42.6917660236358642578125" lon="-0.0344945490360260009765625">
        <ele>2815</ele>
        <time>2021-08-21T16:22:55.000Z</time>
      </trkpt>
      <trkpt lat="42.69176443107426166534423828125" lon="-0.0344933755695819854736328125">
        <ele>2815.199951171875</ele>
        <time>2021-08-21T16:22:56.000Z</time>
      </trkpt>
      <trkpt lat="42.69175638444721698760986328125" lon="-0.03448910079896450042724609375">
        <ele>2815.60009765625</ele>
        <time>2021-08-21T16:23:01.000Z</time>
      </trkpt>
      <trkpt lat="42.6917303167283535003662109375" lon="-0.03447451628744602203369140625">
        <ele>2816.800048828125</ele>
        <time>2021-08-21T16:23:13.000Z</time>
      </trkpt>
      <trkpt lat="42.6917085237801074981689453125" lon="-0.03446278162300586700439453125">
        <ele>2818</ele>
        <time>2021-08-21T16:23:20.000Z</time>
      </trkpt>
      <trkpt lat="42.69169620238244533538818359375" lon="-0.03442221321165561676025390625">
        <ele>2818</ele>
        <time>2021-08-21T16:23:29.000Z</time>
      </trkpt>
      <trkpt lat="42.69168983213603496551513671875" lon="-0.03441818989813327789306640625">
        <ele>2818</ele>
        <time>2021-08-21T16:23:40.000Z</time>
      </trkpt>
      <trkpt lat="42.6916833780705928802490234375" lon="-0.03443160094320774078369140625">
        <ele>2818.199951171875</ele>
        <time>2021-08-21T16:24:02.000Z</time>
      </trkpt>
      <trkpt lat="42.69168178550899028778076171875" lon="-0.03442942164838314056396484375">
        <ele>2818.199951171875</ele>
        <time>2021-08-21T16:24:06.000Z</time>
      </trkpt>
      <trkpt lat="42.69167415797710418701171875" lon="-0.0344363786280155181884765625">
        <ele>2818.39990234375</ele>
        <time>2021-08-21T16:24:14.000Z</time>
      </trkpt>
      <trkpt lat="42.69167407415807247161865234375" lon="-0.0344373844563961029052734375">
        <ele>2818.39990234375</ele>
        <time>2021-08-21T16:24:20.000Z</time>
      </trkpt>
      <trkpt lat="42.6916619203984737396240234375" lon="-0.0344695709645748138427734375">
        <ele>2818.800048828125</ele>
        <time>2021-08-21T16:24:30.000Z</time>
      </trkpt>
      <trkpt lat="42.69166217185556888580322265625" lon="-0.034476779401302337646484375">
        <ele>2818.800048828125</ele>
        <time>2021-08-21T16:24:34.000Z</time>
      </trkpt>
      <trkpt lat="42.69162587821483612060546875" lon="-0.0345242209732532501220703125">
        <ele>2819.60009765625</ele>
        <time>2021-08-21T16:24:58.000Z</time>
      </trkpt>
      <trkpt lat="42.6916236989200115203857421875" lon="-0.0345361232757568359375">
        <ele>2819.800048828125</ele>
        <time>2021-08-21T16:25:02.000Z</time>
      </trkpt>
      <trkpt lat="42.69161925651133060455322265625" lon="-0.03454484045505523681640625">
        <ele>2820</ele>
        <time>2021-08-21T16:25:06.000Z</time>
      </trkpt>
      <trkpt lat="42.6916216872632503509521484375" lon="-0.034557916224002838134765625">
        <ele>2820</ele>
        <time>2021-08-21T16:25:13.000Z</time>
      </trkpt>
      <trkpt lat="42.691620849072933197021484375" lon="-0.0345597602427005767822265625">
        <ele>2820.199951171875</ele>
        <time>2021-08-21T16:25:14.000Z</time>
      </trkpt>
      <trkpt lat="42.69161808304488658905029296875" lon="-0.03456789068877696990966796875">
        <ele>2820.199951171875</ele>
        <time>2021-08-21T16:25:16.000Z</time>
      </trkpt>
      <trkpt lat="42.6916173286736011505126953125" lon="-0.03457057289779186248779296875">
        <ele>2820.199951171875</ele>
        <time>2021-08-21T16:25:17.000Z</time>
      </trkpt>
      <trkpt lat="42.69161523319780826568603515625" lon="-0.03457409329712390899658203125">
        <ele>2820.39990234375</ele>
        <time>2021-08-21T16:25:18.000Z</time>
      </trkpt>
      <trkpt lat="42.69160836003720760345458984375" lon="-0.03458105027675628662109375">
        <ele>2820.39990234375</ele>
        <time>2021-08-21T16:25:21.000Z</time>
      </trkpt>
      <trkpt lat="42.69159595482051372528076171875" lon="-0.03460309468209743499755859375">
        <ele>2820.60009765625</ele>
        <time>2021-08-21T16:25:24.000Z</time>
      </trkpt>
      <trkpt lat="42.69156946800649166107177734375" lon="-0.03453805111348628997802734375">
        <ele>2820.199951171875</ele>
        <time>2021-08-21T16:25:44.000Z</time>
      </trkpt>
      <trkpt lat="42.69155672751367092132568359375" lon="-0.0344990752637386322021484375">
        <ele>2819.800048828125</ele>
        <time>2021-08-21T16:25:54.000Z</time>
      </trkpt>
      <trkpt lat="42.6915154047310352325439453125" lon="-0.03444115631282329559326171875">
        <ele>2819.39990234375</ele>
        <time>2021-08-21T16:26:10.000Z</time>
      </trkpt>
      <trkpt lat="42.6914228685200214385986328125" lon="-0.03426865674555301666259765625">
        <ele>2817.800048828125</ele>
        <time>2021-08-21T16:27:17.000Z</time>
      </trkpt>
      <trkpt lat="42.6914205215871334075927734375" lon="-0.03427435643970966339111328125">
        <ele>2817.800048828125</ele>
        <time>2021-08-21T16:27:25.000Z</time>
      </trkpt>
      <trkpt lat="42.69141406752169132232666015625" lon="-0.03428064286708831787109375">
        <ele>2818</ele>
        <time>2021-08-21T16:27:31.000Z</time>
      </trkpt>
      <trkpt lat="42.69141440279781818389892578125" lon="-0.0342536531388759613037109375">
        <ele>2817.60009765625</ele>
        <time>2021-08-21T16:27:36.000Z</time>
      </trkpt>
      <trkpt lat="42.69140199758112430572509765625" lon="-0.03421786241233348846435546875">
        <ele>2817.39990234375</ele>
        <time>2021-08-21T16:27:44.000Z</time>
      </trkpt>
      <trkpt lat="42.69131080247461795806884765625" lon="-0.03419171087443828582763671875">
        <ele>2817.60009765625</ele>
        <time>2021-08-21T16:28:48.000Z</time>
      </trkpt>
      <trkpt lat="42.69116261042654514312744140625" lon="-0.03413270227611064910888671875">
        <ele>2820</ele>
        <time>2021-08-21T16:30:25.000Z</time>
      </trkpt>
      <trkpt lat="42.69119001924991607666015625" lon="-0.03403781913220882415771484375">
        <ele>2819.60009765625</ele>
        <time>2021-08-21T16:31:06.000Z</time>
      </trkpt>
      <trkpt lat="42.6911559887230396270751953125" lon="-0.034016110002994537353515625">
        <ele>2820.39990234375</ele>
        <time>2021-08-21T16:31:23.000Z</time>
      </trkpt>
      <trkpt lat="42.69113495014607906341552734375" lon="-0.0340347178280353546142578125">
        <ele>2820.800048828125</ele>
        <time>2021-08-21T16:31:34.000Z</time>
      </trkpt>
      <trkpt lat="42.69111952744424343109130859375" lon="-0.034013092517852783203125">
        <ele>2821.199951171875</ele>
        <time>2021-08-21T16:31:46.000Z</time>
      </trkpt>
      <trkpt lat="42.6910941302776336669921875" lon="-0.03409045748412609100341796875">
        <ele>2821.60009765625</ele>
        <time>2021-08-21T16:32:09.000Z</time>
      </trkpt>
      <trkpt lat="42.6910956390202045440673828125" lon="-0.03409934230148792266845703125">
        <ele>2821.39990234375</ele>
        <time>2021-08-21T16:32:10.000Z</time>
      </trkpt>
      <trkpt lat="42.691098153591156005859375" lon="-0.0341336242854595184326171875">
        <ele>2821.39990234375</ele>
        <time>2021-08-21T16:32:15.000Z</time>
      </trkpt>
      <trkpt lat="42.691100500524044036865234375" lon="-0.03414041362702846527099609375">
        <ele>2821.199951171875</ele>
        <time>2021-08-21T16:32:16.000Z</time>
      </trkpt>
      <trkpt lat="42.69109924323856830596923828125" lon="-0.03414695151150226593017578125">
        <ele>2821.199951171875</ele>
        <time>2021-08-21T16:32:17.000Z</time>
      </trkpt>
      <trkpt lat="42.691086418926715850830078125" lon="-0.0341440178453922271728515625">
        <ele>2821.60009765625</ele>
        <time>2021-08-21T16:32:21.000Z</time>
      </trkpt>
      <trkpt lat="42.691109217703342437744140625" lon="-0.03421518020331859588623046875">
        <ele>2821</ele>
        <time>2021-08-21T16:32:46.000Z</time>
      </trkpt>
      <trkpt lat="42.69105347804725170135498046875" lon="-0.03413873724639415740966796875">
        <ele>2822.199951171875</ele>
        <time>2021-08-21T16:32:58.000Z</time>
      </trkpt>
      <trkpt lat="42.69101760350167751312255859375" lon="-0.03411526791751384735107421875">
        <ele>2823</ele>
        <time>2021-08-21T16:33:55.000Z</time>
      </trkpt>
      <trkpt lat="42.6910190284252166748046875" lon="-0.0341148488223552703857421875">
        <ele>2823</ele>
        <time>2021-08-21T16:34:01.000Z</time>
      </trkpt>
      <trkpt lat="42.69102430902421474456787109375" lon="-0.0341111607849597930908203125">
        <ele>2823</ele>
        <time>2021-08-21T16:34:09.000Z</time>
      </trkpt>
      <trkpt lat="42.691024728119373321533203125" lon="-0.0341114960610866546630859375">
        <ele>2822.800048828125</ele>
        <time>2021-08-21T16:34:18.000Z</time>
      </trkpt>
      <trkpt lat="42.69101793877780437469482421875" lon="-0.03412884660065174102783203125">
        <ele>2823</ele>
        <time>2021-08-21T16:34:32.000Z</time>
      </trkpt>
      <trkpt lat="42.69102078862488269805908203125" lon="-0.03411007113754749298095703125">
        <ele>2823</ele>
        <time>2021-08-21T16:34:51.000Z</time>
      </trkpt>
      <trkpt lat="42.69102430902421474456787109375" lon="-0.034114010632038116455078125">
        <ele>2822.800048828125</ele>
        <time>2021-08-21T16:35:06.000Z</time>
      </trkpt>
      <trkpt lat="42.69102238118648529052734375" lon="-0.03411241807043552398681640625">
        <ele>2823</ele>
        <time>2021-08-21T16:35:15.000Z</time>
      </trkpt>
      <trkpt lat="42.6910238899290561676025390625" lon="-0.03410839475691318511962890625">
        <ele>2823</ele>
        <time>2021-08-21T16:35:22.000Z</time>
      </trkpt>
      <trkpt lat="42.69102782942354679107666015625" lon="-0.03410789184272289276123046875">
        <ele>2822.800048828125</ele>
        <time>2021-08-21T16:35:33.000Z</time>
      </trkpt>
      <trkpt lat="42.691027410328388214111328125" lon="-0.0341084785759449005126953125">
        <ele>2822.800048828125</ele>
        <time>2021-08-21T16:35:38.000Z</time>
      </trkpt>
      <trkpt lat="42.6910309307277202606201171875" lon="-0.0341239012777805328369140625">
        <ele>2822.800048828125</ele>
        <time>2021-08-21T16:36:07.000Z</time>
      </trkpt>
      <trkpt lat="42.6910305954515933990478515625" lon="-0.034120716154575347900390625">
        <ele>2822.800048828125</ele>
        <time>2021-08-21T16:36:12.000Z</time>
      </trkpt>
      <trkpt lat="42.69100503064692020416259765625" lon="-0.0341245718300342559814453125">
        <ele>2823.199951171875</ele>
        <time>2021-08-21T16:36:31.000Z</time>
      </trkpt>
      <trkpt lat="42.6910044439136981964111328125" lon="-0.0341185368597507476806640625">
        <ele>2823.199951171875</ele>
        <time>2021-08-21T16:36:34.000Z</time>
      </trkpt>
      <trkpt lat="42.691002599895000457763671875" lon="-0.03410906530916690826416015625">
        <ele>2823.39990234375</ele>
        <time>2021-08-21T16:36:37.000Z</time>
      </trkpt>
      <trkpt lat="42.691003270447254180908203125" lon="-0.0341091491281986236572265625">
        <ele>2823.39990234375</ele>
        <time>2021-08-21T16:36:38.000Z</time>
      </trkpt>
      <trkpt lat="42.6910024322569370269775390625" lon="-0.034106634557247161865234375">
        <ele>2823.39990234375</ele>
        <time>2021-08-21T16:36:41.000Z</time>
      </trkpt>
      <trkpt lat="42.69100234843790531158447265625" lon="-0.03410286270081996917724609375">
        <ele>2823.39990234375</ele>
        <time>2021-08-21T16:36:46.000Z</time>
      </trkpt>
      <trkpt lat="42.69099891185760498046875" lon="-0.03409800119698047637939453125">
        <ele>2823.39990234375</ele>
        <time>2021-08-21T16:36:54.000Z</time>
      </trkpt>
      <trkpt lat="42.6909933798015117645263671875" lon="-0.03408341668546199798583984375">
        <ele>2823.60009765625</ele>
        <time>2021-08-21T16:37:11.000Z</time>
      </trkpt>
      <trkpt lat="42.6909997500479221343994140625" lon="-0.03408752381801605224609375">
        <ele>2823.39990234375</ele>
        <time>2021-08-21T16:37:26.000Z</time>
      </trkpt>
      <trkpt lat="42.691004276275634765625" lon="-0.03409347496926784515380859375">
        <ele>2823.39990234375</ele>
        <time>2021-08-21T16:37:36.000Z</time>
      </trkpt>
      <trkpt lat="42.6910091377794742584228515625" lon="-0.03409716300666332244873046875">
        <ele>2823.199951171875</ele>
        <time>2021-08-21T16:38:01.000Z</time>
      </trkpt>
      <trkpt lat="42.691009305417537689208984375" lon="-0.03409825265407562255859375">
        <ele>2823.199951171875</ele>
        <time>2021-08-21T16:38:03.000Z</time>
      </trkpt>
      <trkpt lat="42.691000588238239288330078125" lon="-0.0341031141579151153564453125">
        <ele>2823.39990234375</ele>
        <time>2021-08-21T16:38:05.000Z</time>
      </trkpt>
      <trkpt lat="42.6909963972866535186767578125" lon="-0.034105964004993438720703125">
        <ele>2823.39990234375</ele>
        <time>2021-08-21T16:38:06.000Z</time>
      </trkpt>
      <trkpt lat="42.69098491407930850982666015625" lon="-0.0341141782701015472412109375">
        <ele>2823.60009765625</ele>
        <time>2021-08-21T16:38:09.000Z</time>
      </trkpt>
      <trkpt lat="42.69096479751169681549072265625" lon="-0.0341406650841236114501953125">
        <ele>2824</ele>
        <time>2021-08-21T16:38:17.000Z</time>
      </trkpt>
      <trkpt lat="42.69096781499683856964111328125" lon="-0.03414980135858058929443359375">
        <ele>2824</ele>
        <time>2021-08-21T16:38:22.000Z</time>
      </trkpt>
      <trkpt lat="42.6908840797841548919677734375" lon="-0.03418215550482273101806640625">
        <ele>2825.60009765625</ele>
        <time>2021-08-21T16:38:47.000Z</time>
      </trkpt>
      <trkpt lat="42.69088064320385456085205078125" lon="-0.03419506363570690155029296875">
        <ele>2825.60009765625</ele>
        <time>2021-08-21T16:39:01.000Z</time>
      </trkpt>
      <trkpt lat="42.6908813975751399993896484375" lon="-0.03420076332986354827880859375">
        <ele>2825.60009765625</ele>
        <time>2021-08-21T16:39:03.000Z</time>
      </trkpt>
      <trkpt lat="42.69088366068899631500244140625" lon="-0.0342254899442195892333984375">
        <ele>2825.39990234375</ele>
        <time>2021-08-21T16:39:15.000Z</time>
      </trkpt>
      <trkpt lat="42.690878547728061676025390625" lon="-0.03423236310482025146484375">
        <ele>2825.60009765625</ele>
        <time>2021-08-21T16:39:34.000Z</time>
      </trkpt>
      <trkpt lat="42.6908897794783115386962890625" lon="-0.03423680551350116729736328125">
        <ele>2825.39990234375</ele>
        <time>2021-08-21T16:39:44.000Z</time>
      </trkpt>
      <trkpt lat="42.69090528599917888641357421875" lon="-0.03427200950682163238525390625">
        <ele>2825</ele>
        <time>2021-08-21T16:39:50.000Z</time>
      </trkpt>
      <trkpt lat="42.69091282971203327178955078125" lon="-0.03427988849580287933349609375">
        <ele>2824.800048828125</ele>
        <time>2021-08-21T16:40:16.000Z</time>
      </trkpt>
      <trkpt lat="42.69090059213340282440185546875" lon="-0.03426513634622097015380859375">
        <ele>2825</ele>
        <time>2021-08-21T16:40:21.000Z</time>
      </trkpt>
      <trkpt lat="42.6908978261053562164306640625" lon="-0.03425625152885913848876953125">
        <ele>2825.199951171875</ele>
        <time>2021-08-21T16:40:25.000Z</time>
      </trkpt>
      <trkpt lat="42.690897993743419647216796875" lon="-0.03425650298595428466796875">
        <ele>2825.199951171875</ele>
        <time>2021-08-21T16:40:28.000Z</time>
      </trkpt>
      <trkpt lat="42.69090075977146625518798828125" lon="-0.03425893373787403106689453125">
        <ele>2825</ele>
        <time>2021-08-21T16:40:29.000Z</time>
      </trkpt>
      <trkpt lat="42.6909015141427516937255859375" lon="-0.03426010720431804656982421875">
        <ele>2825</ele>
        <time>2021-08-21T16:40:31.000Z</time>
      </trkpt>
      <trkpt lat="42.690903358161449432373046875" lon="-0.0342566706240177154541015625">
        <ele>2825</ele>
        <time>2021-08-21T16:40:34.000Z</time>
      </trkpt>
      <trkpt lat="42.6908894442021846771240234375" lon="-0.034225992858409881591796875">
        <ele>2825.39990234375</ele>
        <time>2021-08-21T16:40:42.000Z</time>
      </trkpt>
      <trkpt lat="42.690897323191165924072265625" lon="-0.0341956503689289093017578125">
        <ele>2825.199951171875</ele>
        <time>2021-08-21T16:40:50.000Z</time>
      </trkpt>
      <trkpt lat="42.69090210087597370147705078125" lon="-0.0341872684657573699951171875">
        <ele>2825.199951171875</ele>
        <time>2021-08-21T16:40:52.000Z</time>
      </trkpt>
      <trkpt lat="42.69091165624558925628662109375" lon="-0.0341597758233547210693359375">
        <ele>2825</ele>
        <time>2021-08-21T16:40:55.000Z</time>
      </trkpt>
      <trkpt lat="42.6909179426729679107666015625" lon="-0.03412130288779735565185546875">
        <ele>2825</ele>
        <time>2021-08-21T16:40:58.000Z</time>
      </trkpt>
      <trkpt lat="42.69092774949967861175537109375" lon="-0.034096240997314453125">
        <ele>2825</ele>
        <time>2021-08-21T16:41:01.000Z</time>
      </trkpt>
      <trkpt lat="42.69094727933406829833984375" lon="-0.03406112082302570343017578125">
        <ele>2824.60009765625</ele>
        <time>2021-08-21T16:41:05.000Z</time>
      </trkpt>
      <trkpt lat="42.6909521408379077911376953125" lon="-0.03404997289180755615234375">
        <ele>2824.60009765625</ele>
        <time>2021-08-21T16:41:06.000Z</time>
      </trkpt>
      <trkpt lat="42.6909648813307285308837890625" lon="-0.03403580747544765472412109375">
        <ele>2824.199951171875</ele>
        <time>2021-08-21T16:41:08.000Z</time>
      </trkpt>
      <trkpt lat="42.6909707486629486083984375" lon="-0.03402474336326122283935546875">
        <ele>2824.199951171875</ele>
        <time>2021-08-21T16:41:09.000Z</time>
      </trkpt>
      <trkpt lat="42.69099882803857326507568359375" lon="-0.03403144888579845428466796875">
        <ele>2823.60009765625</ele>
        <time>2021-08-21T16:41:23.000Z</time>
      </trkpt>
      <trkpt lat="42.69099044613540172576904296875" lon="-0.0339596159756183624267578125">
        <ele>2824</ele>
        <time>2021-08-21T16:41:31.000Z</time>
      </trkpt>
      <trkpt lat="42.690990865230560302734375" lon="-0.03394545055925846099853515625">
        <ele>2824</ele>
        <time>2021-08-21T16:41:32.000Z</time>
      </trkpt>
      <trkpt lat="42.69097183831036090850830078125" lon="-0.03372131846845149993896484375">
        <ele>2824.800048828125</ele>
        <time>2021-08-21T16:41:52.000Z</time>
      </trkpt>
      <trkpt lat="42.69092288799583911895751953125" lon="-0.0333698652684688568115234375">
        <ele>2828.800048828125</ele>
        <time>2021-08-21T16:43:10.000Z</time>
      </trkpt>
      <trkpt lat="42.690893970429897308349609375" lon="-0.0333286263048648834228515625">
        <ele>2830.199951171875</ele>
        <time>2021-08-21T16:43:21.000Z</time>
      </trkpt>
      <trkpt lat="42.6908297650516033172607421875" lon="-0.03315520472824573516845703125">
        <ele>2831</ele>
        <time>2021-08-21T16:44:02.000Z</time>
      </trkpt>
      <trkpt lat="42.69082632847130298614501953125" lon="-0.03316241316497325897216796875">
        <ele>2830.800048828125</ele>
        <time>2021-08-21T16:44:04.000Z</time>
      </trkpt>
      <trkpt lat="42.69082498736679553985595703125" lon="-0.0331653468310832977294921875">
        <ele>2830.60009765625</ele>
        <time>2021-08-21T16:44:05.000Z</time>
      </trkpt>
      <trkpt lat="42.69082498736679553985595703125" lon="-0.0331653468310832977294921875">
        <ele>2830.60009765625</ele>
        <time>2021-08-21T16:44:06.000Z</time>
      </trkpt>
      <trkpt lat="42.69081744365394115447998046875" lon="-0.03316610120236873626708984375">
        <ele>2830.199951171875</ele>
        <time>2021-08-21T16:44:09.000Z</time>
      </trkpt>
      <trkpt lat="42.69081308506429195404052734375" lon="-0.0331619940698146820068359375">
        <ele>2830</ele>
        <time>2021-08-21T16:44:10.000Z</time>
      </trkpt>
      <trkpt lat="42.6908083073794841766357421875" lon="-0.03315679728984832763671875">
        <ele>2829.800048828125</ele>
        <time>2021-08-21T16:44:13.000Z</time>
      </trkpt>
      <trkpt lat="42.690797410905361175537109375" lon="-0.03312771208584308624267578125">
        <ele>2829.60009765625</ele>
        <time>2021-08-21T16:44:19.000Z</time>
      </trkpt>
      <trkpt lat="42.69078626297414302825927734375" lon="-0.0330593995749950408935546875">
        <ele>2829.60009765625</ele>
        <time>2021-08-21T16:44:26.000Z</time>
      </trkpt>
      <trkpt lat="42.6907727681100368499755859375" lon="-0.0328934378921985626220703125">
        <ele>2830.39990234375</ele>
        <time>2021-08-21T16:44:50.000Z</time>
      </trkpt>
      <trkpt lat="42.6907378993928432464599609375" lon="-0.03284909762442111968994140625">
        <ele>2829</ele>
        <time>2021-08-21T16:45:04.000Z</time>
      </trkpt>
      <trkpt lat="42.69071166403591632843017578125" lon="-0.03280802629888057708740234375">
        <ele>2827.800048828125</ele>
        <time>2021-08-21T16:45:13.000Z</time>
      </trkpt>
      <trkpt lat="42.69070579670369625091552734375" lon="-0.0327405519783496856689453125">
        <ele>2828</ele>
        <time>2021-08-21T16:45:34.000Z</time>
      </trkpt>
      <trkpt lat="42.69069188274443149566650390625" lon="-0.032713897526264190673828125">
        <ele>2827.60009765625</ele>
        <time>2021-08-21T16:45:50.000Z</time>
      </trkpt>
      <trkpt lat="42.6906480453908443450927734375" lon="-0.03263167105615139007568359375">
        <ele>2825.800048828125</ele>
        <time>2021-08-21T16:46:08.000Z</time>
      </trkpt>
      <trkpt lat="42.6904763840138912200927734375" lon="-0.03233478404581546783447265625">
        <ele>2820.60009765625</ele>
        <time>2021-08-21T16:46:51.000Z</time>
      </trkpt>
      <trkpt lat="42.69039340317249298095703125" lon="-0.0322262383997440338134765625">
        <ele>2818.800048828125</ele>
        <time>2021-08-21T16:47:04.000Z</time>
      </trkpt>
      <trkpt lat="42.69000875763595104217529296875" lon="-0.0326335988938808441162109375">
        <ele>2793.39990234375</ele>
        <time>2021-08-21T16:47:27.000Z</time>
      </trkpt>
      <trkpt lat="42.6897369325160980224609375" lon="-0.03279293887317180633544921875">
        <ele>2751</ele>
        <time>2021-08-21T16:47:59.000Z</time>
      </trkpt>
      <trkpt lat="42.6897414587438106536865234375" lon="-0.032300166785717010498046875">
        <ele>2758</ele>
        <time>2021-08-21T16:48:32.000Z</time>
      </trkpt>
      <trkpt lat="42.68951506353914737701416015625" lon="-0.0323056988418102264404296875">
        <ele>2719.60009765625</ele>
        <time>2021-08-21T16:49:13.000Z</time>
      </trkpt>
      <trkpt lat="42.6895081065595149993896484375" lon="-0.03211333416402339935302734375">
        <ele>2717</ele>
        <time>2021-08-21T16:49:23.000Z</time>
      </trkpt>
      <trkpt lat="42.6894517801702022552490234375" lon="-0.0320966541767120361328125">
        <ele>2707.199951171875</ele>
        <time>2021-08-21T16:49:31.000Z</time>
      </trkpt>
      <trkpt lat="42.689546160399913787841796875" lon="-0.03146474249660968780517578125">
        <ele>2760.39990234375</ele>
        <time>2021-08-21T16:50:01.000Z</time>
      </trkpt>
      <trkpt lat="42.68951238133013248443603515625" lon="-0.031428448855876922607421875">
        <ele>2761.199951171875</ele>
        <time>2021-08-21T16:50:17.000Z</time>
      </trkpt>
      <trkpt lat="42.68950081430375576019287109375" lon="-0.03139684908092021942138671875">
        <ele>2763.39990234375</ele>
        <time>2021-08-21T16:50:27.000Z</time>
      </trkpt>
      <trkpt lat="42.6894889958202838897705078125" lon="-0.03141067922115325927734375">
        <ele>2760.800048828125</ele>
        <time>2021-08-21T16:50:34.000Z</time>
      </trkpt>
      <trkpt lat="42.68936133943498134613037109375" lon="-0.0313669256865978240966796875">
        <ele>2754</ele>
        <time>2021-08-21T16:51:06.000Z</time>
      </trkpt>
      <trkpt lat="42.68935899250209331512451171875" lon="-0.031360052525997161865234375">
        <ele>2754.39990234375</ele>
        <time>2021-08-21T16:51:07.000Z</time>
      </trkpt>
      <trkpt lat="42.68936066888272762298583984375" lon="-0.03134504891932010650634765625">
        <ele>2756.199951171875</ele>
        <time>2021-08-21T16:51:10.000Z</time>
      </trkpt>
      <trkpt lat="42.68934507854282855987548828125" lon="-0.03131738863885402679443359375">
        <ele>2757.60009765625</ele>
        <time>2021-08-21T16:51:14.000Z</time>
      </trkpt>
      <trkpt lat="42.689321525394916534423828125" lon="-0.03125913441181182861328125">
        <ele>2761.60009765625</ele>
        <time>2021-08-21T16:51:22.000Z</time>
      </trkpt>
      <trkpt lat="42.689126394689083099365234375" lon="-0.03121353685855865478515625">
        <ele>2745.800048828125</ele>
        <time>2021-08-21T16:52:21.000Z</time>
      </trkpt>
      <trkpt lat="42.68898633308708667755126953125" lon="-0.03110180608928203582763671875">
        <ele>2738</ele>
        <time>2021-08-21T16:52:50.000Z</time>
      </trkpt>
      <trkpt lat="42.68885423429310321807861328125" lon="-0.0308764167129993438720703125">
        <ele>2740.60009765625</ele>
        <time>2021-08-21T16:53:14.000Z</time>
      </trkpt>
      <trkpt lat="42.68853270448744297027587890625" lon="-0.0308858044445514678955078125">
        <ele>2706.199951171875</ele>
        <time>2021-08-21T16:54:18.000Z</time>
      </trkpt>
      <trkpt lat="42.68845257349312305450439453125" lon="-0.03091639839112758636474609375">
        <ele>2695.39990234375</ele>
        <time>2021-08-21T16:54:43.000Z</time>
      </trkpt>
      <trkpt lat="42.688420973718166351318359375" lon="-0.03100424073636531829833984375">
        <ele>2683.199951171875</ele>
        <time>2021-08-21T16:54:52.000Z</time>
      </trkpt>
      <trkpt lat="42.688262052834033966064453125" lon="-0.03104363568127155303955078125">
        <ele>2672.199951171875</ele>
        <time>2021-08-21T16:55:40.000Z</time>
      </trkpt>
      <trkpt lat="42.688039429485797882080078125" lon="-0.031411349773406982421875">
        <ele>2643.39990234375</ele>
        <time>2021-08-21T16:56:16.000Z</time>
      </trkpt>
      <trkpt lat="42.68796307034790515899658203125" lon="-0.03146491013467311859130859375">
        <ele>2641</ele>
        <time>2021-08-21T16:56:36.000Z</time>
      </trkpt>
      <trkpt lat="42.68768965266644954681396484375" lon="-0.03180337138473987579345703125">
        <ele>2629</ele>
        <time>2021-08-21T16:57:39.000Z</time>
      </trkpt>
      <trkpt lat="42.68741774372756481170654296875" lon="-0.03204342909157276153564453125">
        <ele>2618.800048828125</ele>
        <time>2021-08-21T16:58:28.000Z</time>
      </trkpt>
      <trkpt lat="42.6873331703245639801025390625" lon="-0.03205918706953525543212890625">
        <ele>2616.60009765625</ele>
        <time>2021-08-21T16:58:38.000Z</time>
      </trkpt>
      <trkpt lat="42.6872956193983554840087890625" lon="-0.03207175992429256439208984375">
        <ele>2615.60009765625</ele>
        <time>2021-08-21T16:58:46.000Z</time>
      </trkpt>
      <trkpt lat="42.6872907578945159912109375" lon="-0.0320394895970821380615234375">
        <ele>2616.199951171875</ele>
        <time>2021-08-21T16:58:56.000Z</time>
      </trkpt>
      <trkpt lat="42.687241472303867340087890625" lon="-0.0321719236671924591064453125">
        <ele>2614.800048828125</ele>
        <time>2021-08-21T16:59:26.000Z</time>
      </trkpt>
      <trkpt lat="42.68718841485679149627685546875" lon="-0.03236177377402782440185546875">
        <ele>2615.60009765625</ele>
        <time>2021-08-21T16:59:42.000Z</time>
      </trkpt>
      <trkpt lat="42.68715002574026584625244140625" lon="-0.0324639491736888885498046875">
        <ele>2615.800048828125</ele>
        <time>2021-08-21T16:59:46.000Z</time>
      </trkpt>
      <trkpt lat="42.68712320365011692047119140625" lon="-0.03251482732594013214111328125">
        <ele>2615.800048828125</ele>
        <time>2021-08-21T16:59:51.000Z</time>
      </trkpt>
      <trkpt lat="42.68707307986915111541748046875" lon="-0.03263468854129314422607421875">
        <ele>2616.199951171875</ele>
        <time>2021-08-21T17:00:00.000Z</time>
      </trkpt>
      <trkpt lat="42.68696419894695281982421875" lon="-0.032732002437114715576171875">
        <ele>2614.800048828125</ele>
        <time>2021-08-21T17:00:16.000Z</time>
      </trkpt>
      <trkpt lat="42.68691767938435077667236328125" lon="-0.03271096386015415191650390625">
        <ele>2613.39990234375</ele>
        <time>2021-08-21T17:00:25.000Z</time>
      </trkpt>
      <trkpt lat="42.6869072020053863525390625" lon="-0.03269679844379425048828125">
        <ele>2613.199951171875</ele>
        <time>2021-08-21T17:00:28.000Z</time>
      </trkpt>
      <trkpt lat="42.68692195415496826171875" lon="-0.03262194804847240447998046875">
        <ele>2612.60009765625</ele>
        <time>2021-08-21T17:00:31.000Z</time>
      </trkpt>
      <trkpt lat="42.68693796359002590179443359375" lon="-0.03253779374063014984130859375">
        <ele>2612.199951171875</ele>
        <time>2021-08-21T17:00:36.000Z</time>
      </trkpt>
      <trkpt lat="42.68692773766815662384033203125" lon="-0.0325204432010650634765625">
        <ele>2611.800048828125</ele>
        <time>2021-08-21T17:00:39.000Z</time>
      </trkpt>
      <trkpt lat="42.6869345270097255706787109375" lon="-0.0324904359877109527587890625">
        <ele>2611.60009765625</ele>
        <time>2021-08-21T17:00:41.000Z</time>
      </trkpt>
      <trkpt lat="42.68694366328418254852294921875" lon="-0.0324029289186000823974609375">
        <ele>2611</ele>
        <time>2021-08-21T17:00:46.000Z</time>
      </trkpt>
      <trkpt lat="42.68695288337767124176025390625" lon="-0.03236445598304271697998046875">
        <ele>2610.800048828125</ele>
        <time>2021-08-21T17:00:48.000Z</time>
      </trkpt>
      <trkpt lat="42.68696151673793792724609375" lon="-0.0323177687823772430419921875">
        <ele>2610.60009765625</ele>
        <time>2021-08-21T17:00:51.000Z</time>
      </trkpt>
      <trkpt lat="42.6869492791593074798583984375" lon="-0.03227963112294673919677734375">
        <ele>2610</ele>
        <time>2021-08-21T17:00:57.000Z</time>
      </trkpt>
      <trkpt lat="42.68698674626648426055908203125" lon="-0.0320887751877307891845703125">
        <ele>2608.800048828125</ele>
        <time>2021-08-21T17:01:04.000Z</time>
      </trkpt>
      <trkpt lat="42.68700149841606616973876953125" lon="-0.03201191313564777374267578125">
        <ele>2611</ele>
        <time>2021-08-21T17:01:07.000Z</time>
      </trkpt>
      <trkpt lat="42.6870260573923587799072265625" lon="-0.03193882293999195098876953125">
        <ele>2613</ele>
        <time>2021-08-21T17:01:08.000Z</time>
      </trkpt>
      <trkpt lat="42.6870260573923587799072265625" lon="-0.03193882293999195098876953125">
        <ele>2613</ele>
        <time>2021-08-21T17:01:09.000Z</time>
      </trkpt>
      <trkpt lat="42.68703804351389408111572265625" lon="-0.03189624287188053131103515625">
        <ele>2614.39990234375</ele>
        <time>2021-08-21T17:01:10.000Z</time>
      </trkpt>
      <trkpt lat="42.68703804351389408111572265625" lon="-0.03189624287188053131103515625">
        <ele>2614.39990234375</ele>
        <time>2021-08-21T17:01:11.000Z</time>
      </trkpt>
      <trkpt lat="42.6870347745716571807861328125" lon="-0.0318232364952564239501953125">
        <ele>2616</ele>
        <time>2021-08-21T17:01:16.000Z</time>
      </trkpt>
      <trkpt lat="42.68703904934227466583251953125" lon="-0.03181074745953083038330078125">
        <ele>2616.199951171875</ele>
        <time>2021-08-21T17:01:17.000Z</time>
      </trkpt>
      <trkpt lat="42.687042653560638427734375" lon="-0.03178141079843044281005859375">
        <ele>2617</ele>
        <time>2021-08-21T17:01:18.000Z</time>
      </trkpt>
      <trkpt lat="42.687042653560638427734375" lon="-0.03178141079843044281005859375">
        <ele>2617</ele>
        <time>2021-08-21T17:01:19.000Z</time>
      </trkpt>
      <trkpt lat="42.6870455034077167510986328125" lon="-0.03175693564116954803466796875">
        <ele>2617.60009765625</ele>
        <time>2021-08-21T17:01:20.000Z</time>
      </trkpt>
      <trkpt lat="42.6870455034077167510986328125" lon="-0.03175693564116954803466796875">
        <ele>2617.60009765625</ele>
        <time>2021-08-21T17:01:21.000Z</time>
      </trkpt>
      <trkpt lat="42.68706754781305789947509765625" lon="-0.03171443939208984375">
        <ele>2619.199951171875</ele>
        <time>2021-08-21T17:01:25.000Z</time>
      </trkpt>
      <trkpt lat="42.68708028830587863922119140625" lon="-0.0316889584064483642578125">
        <ele>2620</ele>
        <time>2021-08-21T17:01:28.000Z</time>
      </trkpt>
      <trkpt lat="42.68708196468651294708251953125" lon="-0.031671859323978424072265625">
        <ele>2620.60009765625</ele>
        <time>2021-08-21T17:01:30.000Z</time>
      </trkpt>
      <trkpt lat="42.68712387420237064361572265625" lon="-0.03153431229293346405029296875">
        <ele>2625.60009765625</ele>
        <time>2021-08-21T17:01:37.000Z</time>
      </trkpt>
      <trkpt lat="42.687136195600032806396484375" lon="-0.031489469110965728759765625">
        <ele>2627.39990234375</ele>
        <time>2021-08-21T17:01:39.000Z</time>
      </trkpt>
      <trkpt lat="42.6871219463646411895751953125" lon="-0.03144948743283748626708984375">
        <ele>2628.60009765625</ele>
        <time>2021-08-21T17:01:42.000Z</time>
      </trkpt>
      <trkpt lat="42.6871145702898502349853515625" lon="-0.03142702393233776092529296875">
        <ele>2629.199951171875</ele>
        <time>2021-08-21T17:01:44.000Z</time>
      </trkpt>
      <trkpt lat="42.68759443424642086029052734375" lon="-0.03001165576279163360595703125">
        <ele>2707.60009765625</ele>
        <time>2021-08-21T17:02:09.000Z</time>
      </trkpt>
      <trkpt lat="42.6876030676066875457763671875" lon="-0.02992196939885616302490234375">
        <ele>2713.39990234375</ele>
        <time>2021-08-21T17:02:18.000Z</time>
      </trkpt>
      <trkpt lat="42.6875992119312286376953125" lon="-0.02991509623825550079345703125">
        <ele>2713.39990234375</ele>
        <time>2021-08-21T17:02:22.000Z</time>
      </trkpt>
      <trkpt lat="42.68757465295493602752685546875" lon="-0.02989447675645351409912109375">
        <ele>2712.199951171875</ele>
        <time>2021-08-21T17:02:27.000Z</time>
      </trkpt>
      <trkpt lat="42.68757574260234832763671875" lon="-0.02989749424159526824951171875">
        <ele>2712</ele>
        <time>2021-08-21T17:02:30.000Z</time>
      </trkpt>
      <trkpt lat="42.6876030676066875457763671875" lon="-0.029892213642597198486328125">
        <ele>2715.199951171875</ele>
        <time>2021-08-21T17:02:37.000Z</time>
      </trkpt>
      <trkpt lat="42.6876077614724636077880859375" lon="-0.02988391555845737457275390625">
        <ele>2716</ele>
        <time>2021-08-21T17:02:43.000Z</time>
      </trkpt>
      <trkpt lat="42.68762678839266300201416015625" lon="-0.02986379899084568023681640625">
        <ele>2719.199951171875</ele>
        <time>2021-08-21T17:02:50.000Z</time>
      </trkpt>
      <trkpt lat="42.687645815312862396240234375" lon="-0.0298454426229000091552734375">
        <ele>2722.199951171875</ele>
        <time>2021-08-21T17:03:01.000Z</time>
      </trkpt>
      <trkpt lat="42.6875048317015171051025390625" lon="-0.029768161475658416748046875">
        <ele>2714.800048828125</ele>
        <time>2021-08-21T17:03:24.000Z</time>
      </trkpt>
      <trkpt lat="42.68742017447948455810546875" lon="-0.02971527166664600372314453125">
        <ele>2717.800048828125</ele>
        <time>2021-08-21T17:03:34.000Z</time>
      </trkpt>
      <trkpt lat="42.68732537515461444854736328125" lon="-0.02960915677249431610107421875">
        <ele>2718</ele>
        <time>2021-08-21T17:03:50.000Z</time>
      </trkpt>
      <trkpt lat="42.68723116256296634674072265625" lon="-0.029604546725749969482421875">
        <ele>2715.199951171875</ele>
        <time>2021-08-21T17:04:25.000Z</time>
      </trkpt>
      <trkpt lat="42.68712915480136871337890625" lon="-0.0295460410416126251220703125">
        <ele>2715.800048828125</ele>
        <time>2021-08-21T17:04:50.000Z</time>
      </trkpt>
      <trkpt lat="42.6871185936033725738525390625" lon="-0.02952785231173038482666015625">
        <ele>2717</ele>
        <time>2021-08-21T17:04:51.000Z</time>
      </trkpt>
      <trkpt lat="42.68711029551923274993896484375" lon="-0.0295148603618144989013671875">
        <ele>2717.800048828125</ele>
        <time>2021-08-21T17:04:53.000Z</time>
      </trkpt>
      <trkpt lat="42.68709428608417510986328125" lon="-0.02949558198451995849609375">
        <ele>2718.800048828125</ele>
        <time>2021-08-21T17:04:54.000Z</time>
      </trkpt>
      <trkpt lat="42.68709428608417510986328125" lon="-0.02949558198451995849609375">
        <ele>2718.800048828125</ele>
        <time>2021-08-21T17:04:55.000Z</time>
      </trkpt>
      <trkpt lat="42.687058411538600921630859375" lon="-0.02946850843727588653564453125">
        <ele>2719.800048828125</ele>
        <time>2021-08-21T17:04:58.000Z</time>
      </trkpt>
      <trkpt lat="42.6870049349963665008544921875" lon="-0.02942861057817935943603515625">
        <ele>2721.39990234375</ele>
        <time>2021-08-21T17:05:03.000Z</time>
      </trkpt>
      <trkpt lat="42.68698607571423053741455078125" lon="-0.02941553480923175811767578125">
        <ele>2721.800048828125</ele>
        <time>2021-08-21T17:05:06.000Z</time>
      </trkpt>
      <trkpt lat="42.68698154948651790618896484375" lon="-0.02941503189504146575927734375">
        <ele>2721.800048828125</ele>
        <time>2021-08-21T17:05:07.000Z</time>
      </trkpt>
      <trkpt lat="42.68697383813560009002685546875" lon="-0.0293931551277637481689453125">
        <ele>2723.199951171875</ele>
        <time>2021-08-21T17:05:15.000Z</time>
      </trkpt>
      <trkpt lat="42.68684827722609043121337890625" lon="-0.02920833416283130645751953125">
        <ele>2725.199951171875</ele>
        <time>2021-08-21T17:05:49.000Z</time>
      </trkpt>
      <trkpt lat="42.68683838658034801483154296875" lon="-0.02919659949839115142822265625">
        <ele>2724.800048828125</ele>
        <time>2021-08-21T17:05:53.000Z</time>
      </trkpt>
      <trkpt lat="42.68683352507650852203369140625" lon="-0.029190815985202789306640625">
        <ele>2724.800048828125</ele>
        <time>2021-08-21T17:05:54.000Z</time>
      </trkpt>
      <trkpt lat="42.6868134923279285430908203125" lon="-0.02916022203862667083740234375">
        <ele>2724.60009765625</ele>
        <time>2021-08-21T17:05:59.000Z</time>
      </trkpt>
      <trkpt lat="42.6868004165589809417724609375" lon="-0.02914815209805965423583984375">
        <ele>2724.199951171875</ele>
        <time>2021-08-21T17:06:01.000Z</time>
      </trkpt>
      <trkpt lat="42.68679077737033367156982421875" lon="-0.02913407050073146820068359375">
        <ele>2724</ele>
        <time>2021-08-21T17:06:05.000Z</time>
      </trkpt>
      <trkpt lat="42.68677183426916599273681640625" lon="-0.02910054288804531097412109375">
        <ele>2724.199951171875</ele>
        <time>2021-08-21T17:06:10.000Z</time>
      </trkpt>
      <trkpt lat="42.68673579208552837371826171875" lon="-0.02903097309172153472900390625">
        <ele>2724.39990234375</ele>
        <time>2021-08-21T17:06:17.000Z</time>
      </trkpt>
      <trkpt lat="42.686524651944637298583984375" lon="-0.0288339145481586456298828125">
        <ele>2722.199951171875</ele>
        <time>2021-08-21T17:06:57.000Z</time>
      </trkpt>
      <trkpt lat="42.68634418956935405731201171875" lon="-0.02868429757654666900634765625">
        <ele>2717.39990234375</ele>
        <time>2021-08-21T17:07:36.000Z</time>
      </trkpt>
      <trkpt lat="42.6861868612468242645263671875" lon="-0.02857415936887264251708984375">
        <ele>2712.199951171875</ele>
        <time>2021-08-21T17:07:57.000Z</time>
      </trkpt>
      <trkpt lat="42.6861496455967426300048828125" lon="-0.028486065566539764404296875">
        <ele>2712.199951171875</ele>
        <time>2021-08-21T17:08:09.000Z</time>
      </trkpt>
      <trkpt lat="42.68610664643347263336181640625" lon="-0.0284453295171260833740234375">
        <ele>2712.199951171875</ele>
        <time>2021-08-21T17:08:14.000Z</time>
      </trkpt>
      <trkpt lat="42.68603774718940258026123046875" lon="-0.02843250520527362823486328125">
        <ele>2711</ele>
        <time>2021-08-21T17:08:27.000Z</time>
      </trkpt>
      <trkpt lat="42.68599298782646656036376953125" lon="-0.02832823432981967926025390625">
        <ele>2714</ele>
        <time>2021-08-21T17:08:45.000Z</time>
      </trkpt>
      <trkpt lat="42.6859496533870697021484375" lon="-0.02816780470311641693115234375">
        <ele>2719.199951171875</ele>
        <time>2021-08-21T17:08:59.000Z</time>
      </trkpt>
      <trkpt lat="42.685683108866214752197265625" lon="-0.0277224741876125335693359375">
        <ele>2722.199951171875</ele>
        <time>2021-08-21T17:09:44.000Z</time>
      </trkpt>
      <trkpt lat="42.68567833118140697479248046875" lon="-0.02770260907709598541259765625">
        <ele>2722.199951171875</ele>
        <time>2021-08-21T17:09:45.000Z</time>
      </trkpt>
      <trkpt lat="42.6856651715934276580810546875" lon="-0.027713589370250701904296875">
        <ele>2721.60009765625</ele>
        <time>2021-08-21T17:09:50.000Z</time>
      </trkpt>
      <trkpt lat="42.68565653823316097259521484375" lon="-0.02770629711449146270751953125">
        <ele>2721.39990234375</ele>
        <time>2021-08-21T17:09:52.000Z</time>
      </trkpt>
      <trkpt lat="42.68564865924417972564697265625" lon="-0.0276919640600681304931640625">
        <ele>2721.199951171875</ele>
        <time>2021-08-21T17:09:54.000Z</time>
      </trkpt>
      <trkpt lat="42.68563809804618358612060546875" lon="-0.02767612226307392120361328125">
        <ele>2721</ele>
        <time>2021-08-21T17:09:55.000Z</time>
      </trkpt>
      <trkpt lat="42.6856303028762340545654296875" lon="-0.027663968503475189208984375">
        <ele>2720.800048828125</ele>
        <time>2021-08-21T17:09:58.000Z</time>
      </trkpt>
      <trkpt lat="42.68562401644885540008544921875" lon="-0.02764619886875152587890625">
        <ele>2720.800048828125</ele>
        <time>2021-08-21T17:10:00.000Z</time>
      </trkpt>
      <trkpt lat="42.685618735849857330322265625" lon="-0.02763974480330944061279296875">
        <ele>2720.60009765625</ele>
        <time>2021-08-21T17:10:01.000Z</time>
      </trkpt>
      <trkpt lat="42.6856128685176372528076171875" lon="-0.02760839648544788360595703125">
        <ele>2720.800048828125</ele>
        <time>2021-08-21T17:10:06.000Z</time>
      </trkpt>
      <trkpt lat="42.68561697565019130706787109375" lon="-0.027628429234027862548828125">
        <ele>2720.60009765625</ele>
        <time>2021-08-21T17:10:10.000Z</time>
      </trkpt>
      <trkpt lat="42.68561731092631816864013671875" lon="-0.0276289321482181549072265625">
        <ele>2720.60009765625</ele>
        <time>2021-08-21T17:10:12.000Z</time>
      </trkpt>
      <trkpt lat="42.6856162212789058685302734375" lon="-0.0276275910437107086181640625">
        <ele>2720.60009765625</ele>
        <time>2021-08-21T17:10:13.000Z</time>
      </trkpt>
      <trkpt lat="42.6856034807860851287841796875" lon="-0.02761937677860260009765625">
        <ele>2720.199951171875</ele>
        <time>2021-08-21T17:10:16.000Z</time>
      </trkpt>
      <trkpt lat="42.6855796761810779571533203125" lon="-0.0275878608226776123046875">
        <ele>2719.60009765625</ele>
        <time>2021-08-21T17:10:19.000Z</time>
      </trkpt>
      <trkpt lat="42.68556567840278148651123046875" lon="-0.02757905982434749603271484375">
        <ele>2719.199951171875</ele>
        <time>2021-08-21T17:10:21.000Z</time>
      </trkpt>
      <trkpt lat="42.6855619065463542938232421875" lon="-0.0275717675685882568359375">
        <ele>2719.199951171875</ele>
        <time>2021-08-21T17:10:22.000Z</time>
      </trkpt>
      <trkpt lat="42.68555067479610443115234375" lon="-0.02755944617092609405517578125">
        <ele>2718.800048828125</ele>
        <time>2021-08-21T17:10:24.000Z</time>
      </trkpt>
      <trkpt lat="42.68553885631263256072998046875" lon="-0.02754285000264644622802734375">
        <ele>2718.60009765625</ele>
        <time>2021-08-21T17:10:25.000Z</time>
      </trkpt>
      <trkpt lat="42.68553885631263256072998046875" lon="-0.02754285000264644622802734375">
        <ele>2718.60009765625</ele>
        <time>2021-08-21T17:10:26.000Z</time>
      </trkpt>
      <trkpt lat="42.6855250261723995208740234375" lon="-0.02753220498561859130859375">
        <ele>2718.199951171875</ele>
        <time>2021-08-21T17:10:29.000Z</time>
      </trkpt>
      <trkpt lat="42.68552653491497039794921875" lon="-0.02753480337560176849365234375">
        <ele>2718.199951171875</ele>
        <time>2021-08-21T17:10:32.000Z</time>
      </trkpt>
      <trkpt lat="42.685526199638843536376953125" lon="-0.0275363959372043609619140625">
        <ele>2718.199951171875</ele>
        <time>2021-08-21T17:10:33.000Z</time>
      </trkpt>
      <trkpt lat="42.68552041612565517425537109375" lon="-0.027537234127521514892578125">
        <ele>2718</ele>
        <time>2021-08-21T17:10:37.000Z</time>
      </trkpt>
      <trkpt lat="42.68551873974502086639404296875" lon="-0.0275377370417118072509765625">
        <ele>2717.800048828125</ele>
        <time>2021-08-21T17:10:38.000Z</time>
      </trkpt>
      <trkpt lat="42.68551924265921115875244140625" lon="-0.02753396518528461456298828125">
        <ele>2718</ele>
        <time>2021-08-21T17:10:41.000Z</time>
      </trkpt>
      <trkpt lat="42.685519158840179443359375" lon="-0.0275337137281894683837890625">
        <ele>2718</ele>
        <time>2021-08-21T17:10:43.000Z</time>
      </trkpt>
      <trkpt lat="42.68544028513133525848388671875" lon="-0.02745199017226696014404296875">
        <ele>2717.39990234375</ele>
        <time>2021-08-21T17:11:06.000Z</time>
      </trkpt>
      <trkpt lat="42.68536199815571308135986328125" lon="-0.0273947417736053466796875">
        <ele>2718.800048828125</ele>
        <time>2021-08-21T17:11:18.000Z</time>
      </trkpt>
      <trkpt lat="42.68525755964219570159912109375" lon="-0.02725635655224323272705078125">
        <ele>2723</ele>
        <time>2021-08-21T17:11:38.000Z</time>
      </trkpt>
      <trkpt lat="42.68515982665121555328369140625" lon="-0.02719148062169551849365234375">
        <ele>2724.39990234375</ele>
        <time>2021-08-21T17:11:51.000Z</time>
      </trkpt>
      <trkpt lat="42.68513618968427181243896484375" lon="-0.02716197632253170013427734375">
        <ele>2725.199951171875</ele>
        <time>2021-08-21T17:11:54.000Z</time>
      </trkpt>
      <trkpt lat="42.6851183362305164337158203125" lon="-0.027147643268108367919921875">
        <ele>2725.60009765625</ele>
        <time>2021-08-21T17:11:55.000Z</time>
      </trkpt>
      <trkpt lat="42.68507726490497589111328125" lon="-0.02711956389248371124267578125">
        <ele>2726.199951171875</ele>
        <time>2021-08-21T17:12:00.000Z</time>
      </trkpt>
      <trkpt lat="42.68506511114537715911865234375" lon="-0.0271085835993289947509765625">
        <ele>2726.60009765625</ele>
        <time>2021-08-21T17:12:01.000Z</time>
      </trkpt>
      <trkpt lat="42.68505723215639591217041015625" lon="-0.02710045315325260162353515625">
        <ele>2726.800048828125</ele>
        <time>2021-08-21T17:12:02.000Z</time>
      </trkpt>
      <trkpt lat="42.684998475015163421630859375" lon="-0.0270478986203670501708984375">
        <ele>2728.39990234375</ele>
        <time>2021-08-21T17:12:10.000Z</time>
      </trkpt>
      <trkpt lat="42.68494977615773677825927734375" lon="-0.0269208289682865142822265625">
        <ele>2732.39990234375</ele>
        <time>2021-08-21T17:12:25.000Z</time>
      </trkpt>
      <trkpt lat="42.68491775728762149810791015625" lon="-0.02681848593056201934814453125">
        <ele>2735.60009765625</ele>
        <time>2021-08-21T17:12:42.000Z</time>
      </trkpt>
      <trkpt lat="42.68490426242351531982421875" lon="-0.0267843715846538543701171875">
        <ele>2736.60009765625</ele>
        <time>2021-08-21T17:12:50.000Z</time>
      </trkpt>
      <trkpt lat="42.6849175058305263519287109375" lon="-0.02682116813957691192626953125">
        <ele>2735.39990234375</ele>
        <time>2021-08-21T17:12:58.000Z</time>
      </trkpt>
      <trkpt lat="42.68489093519747257232666015625" lon="-0.0268121995031833648681640625">
        <ele>2736</ele>
        <time>2021-08-21T17:13:03.000Z</time>
      </trkpt>
      <trkpt lat="42.68485858105123043060302734375" lon="-0.026821084320545196533203125">
        <ele>2736</ele>
        <time>2021-08-21T17:13:08.000Z</time>
      </trkpt>
      <trkpt lat="42.6848333515226840972900390625" lon="-0.02685067243874073028564453125">
        <ele>2735.39990234375</ele>
        <time>2021-08-21T17:13:09.000Z</time>
      </trkpt>
      <trkpt lat="42.6848333515226840972900390625" lon="-0.02685067243874073028564453125">
        <ele>2735.39990234375</ele>
        <time>2021-08-21T17:13:10.000Z</time>
      </trkpt>
      <trkpt lat="42.68473285250365734100341796875" lon="-0.02683793194591999053955078125">
        <ele>2736.800048828125</ele>
        <time>2021-08-21T17:13:24.000Z</time>
      </trkpt>
      <trkpt lat="42.68465808592736721038818359375" lon="-0.02679887227714061737060546875">
        <ele>2738.60009765625</ele>
        <time>2021-08-21T17:14:08.000Z</time>
      </trkpt>
      <trkpt lat="42.68464014865458011627197265625" lon="-0.02688285894691944122314453125">
        <ele>2736.39990234375</ele>
        <time>2021-08-21T17:14:36.000Z</time>
      </trkpt>
      <trkpt lat="42.68461215309798717498779296875" lon="-0.02728636376559734344482421875">
        <ele>2724.60009765625</ele>
        <time>2021-08-21T17:15:34.000Z</time>
      </trkpt>
      <trkpt lat="42.6846006698906421661376953125" lon="-0.0272391736507415771484375">
        <ele>2726.199951171875</ele>
        <time>2021-08-21T17:15:43.000Z</time>
      </trkpt>
      <trkpt lat="42.68458415754139423370361328125" lon="-0.02720690332353115081787109375">
        <ele>2727.39990234375</ele>
        <time>2021-08-21T17:15:49.000Z</time>
      </trkpt>
      <trkpt lat="42.6845678128302097320556640625" lon="-0.02709902822971343994140625">
        <ele>2731</ele>
        <time>2021-08-21T17:16:00.000Z</time>
      </trkpt>
      <trkpt lat="42.68454912118613719940185546875" lon="-0.02703733742237091064453125">
        <ele>2733</ele>
        <time>2021-08-21T17:16:05.000Z</time>
      </trkpt>
      <trkpt lat="42.684544511139392852783203125" lon="-0.02701495774090290069580078125">
        <ele>2733.60009765625</ele>
        <time>2021-08-21T17:16:07.000Z</time>
      </trkpt>
      <trkpt lat="42.6845530606806278228759765625" lon="-0.02698101103305816650390625">
        <ele>2734.60009765625</ele>
        <time>2021-08-21T17:16:11.000Z</time>
      </trkpt>
      <trkpt lat="42.68455616198480129241943359375" lon="-0.0269795022904872894287109375">
        <ele>2734.60009765625</ele>
        <time>2021-08-21T17:16:13.000Z</time>
      </trkpt>
      <trkpt lat="42.68457376398146152496337890625" lon="-0.02698360942304134368896484375">
        <ele>2734.199951171875</ele>
        <time>2021-08-21T17:16:16.000Z</time>
      </trkpt>
      <trkpt lat="42.684575356543064117431640625" lon="-0.0269818492233753204345703125">
        <ele>2734.199951171875</ele>
        <time>2021-08-21T17:16:22.000Z</time>
      </trkpt>
      <trkpt lat="42.68457661382853984832763671875" lon="-0.0269805081188678741455078125">
        <ele>2734.39990234375</ele>
        <time>2021-08-21T17:16:23.000Z</time>
      </trkpt>
      <trkpt lat="42.68457661382853984832763671875" lon="-0.0269805081188678741455078125">
        <ele>2734.39990234375</ele>
        <time>2021-08-21T17:16:24.000Z</time>
      </trkpt>
      <trkpt lat="42.68457728438079357147216796875" lon="-0.026978664100170135498046875">
        <ele>2734.39990234375</ele>
        <time>2021-08-21T17:16:25.000Z</time>
      </trkpt>
      <trkpt lat="42.6845808885991573333740234375" lon="-0.0269707851111888885498046875">
        <ele>2734.60009765625</ele>
        <time>2021-08-21T17:16:28.000Z</time>
      </trkpt>
      <trkpt lat="42.684583403170108795166015625" lon="-0.0269714556634426116943359375">
        <ele>2734.39990234375</ele>
        <time>2021-08-21T17:16:29.000Z</time>
      </trkpt>
      <trkpt lat="42.68458583392202854156494140625" lon="-0.0269721262156963348388671875">
        <ele>2734.39990234375</ele>
        <time>2021-08-21T17:16:31.000Z</time>
      </trkpt>
      <trkpt lat="42.6845869235694408416748046875" lon="-0.0269711203873157501220703125">
        <ele>2734.39990234375</ele>
        <time>2021-08-21T17:16:32.000Z</time>
      </trkpt>
      <trkpt lat="42.684592120349407196044921875" lon="-0.02698411233723163604736328125">
        <ele>2734</ele>
        <time>2021-08-21T17:16:45.000Z</time>
      </trkpt>
      <trkpt lat="42.6845865882933139801025390625" lon="-0.02700087614357471466064453125">
        <ele>2733.60009765625</ele>
        <time>2021-08-21T17:16:50.000Z</time>
      </trkpt>
      <trkpt lat="42.6845942996442317962646484375" lon="-0.02700506709516048431396484375">
        <ele>2733.39990234375</ele>
        <time>2021-08-21T17:16:53.000Z</time>
      </trkpt>
      <trkpt lat="42.6845882646739482879638671875" lon="-0.02700523473322391510009765625">
        <ele>2733.60009765625</ele>
        <time>2021-08-21T17:16:57.000Z</time>
      </trkpt>
      <trkpt lat="42.68457242287695407867431640625" lon="-0.0269630737602710723876953125">
        <ele>2734.800048828125</ele>
        <time>2021-08-21T17:17:13.000Z</time>
      </trkpt>
      <trkpt lat="42.68459170125424861907958984375" lon="-0.02688470296561717987060546875">
        <ele>2736.800048828125</ele>
        <time>2021-08-21T17:19:02.000Z</time>
      </trkpt>
      <trkpt lat="42.68485522828996181488037109375" lon="-0.0267075933516025543212890625">
        <ele>2744.800048828125</ele>
        <time>2021-08-22T06:30:18.000Z</time>
      </trkpt>
      <trkpt lat="42.684848941862583160400390625" lon="-0.02670206129550933837890625">
        <ele>2744.60009765625</ele>
        <time>2021-08-22T06:30:19.000Z</time>
      </trkpt>
      <trkpt lat="42.684838883578777313232421875" lon="-0.0266945175826549530029296875">
        <ele>2744.199951171875</ele>
        <time>2021-08-22T06:30:20.000Z</time>
      </trkpt>
      <trkpt lat="42.68461190164089202880859375" lon="-0.0265225209295749664306640625">
        <ele>2738.60009765625</ele>
        <time>2021-08-22T06:30:46.000Z</time>
      </trkpt>
      <trkpt lat="42.6845683157444000244140625" lon="-0.0263984687626361846923828125">
        <ele>2736.39990234375</ele>
        <time>2021-08-22T06:31:09.000Z</time>
      </trkpt>
      <trkpt lat="42.6845580898225307464599609375" lon="-0.02625337801873683929443359375">
        <ele>2733.60009765625</ele>
        <time>2021-08-22T06:31:32.000Z</time>
      </trkpt>
      <trkpt lat="42.68455423414707183837890625" lon="-0.0261795334517955780029296875">
        <ele>2732.800048828125</ele>
        <time>2021-08-22T06:31:39.000Z</time>
      </trkpt>
      <trkpt lat="42.68453302793204784393310546875" lon="-0.02609780989587306976318359375">
        <ele>2731</ele>
        <time>2021-08-22T06:31:47.000Z</time>
      </trkpt>
      <trkpt lat="42.6844836585223674774169921875" lon="-0.0260863266885280609130859375">
        <ele>2729.60009765625</ele>
        <time>2021-08-22T06:31:53.000Z</time>
      </trkpt>
      <trkpt lat="42.68445138819515705108642578125" lon="-0.0260608457028865814208984375">
        <ele>2729.199951171875</ele>
        <time>2021-08-22T06:32:02.000Z</time>
      </trkpt>
      <trkpt lat="42.68442456610500812530517578125" lon="-0.026031844317913055419921875">
        <ele>2728.60009765625</ele>
        <time>2021-08-22T06:32:10.000Z</time>
      </trkpt>
      <trkpt lat="42.684387266635894775390625" lon="-0.0260098837316036224365234375">
        <ele>2727.800048828125</ele>
        <time>2021-08-22T06:32:17.000Z</time>
      </trkpt>
      <trkpt lat="42.68430336378514766693115234375" lon="-0.0259114801883697509765625">
        <ele>2726.199951171875</ele>
        <time>2021-08-22T06:32:33.000Z</time>
      </trkpt>
      <trkpt lat="42.68421736545860767364501953125" lon="-0.02577426843345165252685546875">
        <ele>2723</ele>
        <time>2021-08-22T06:32:48.000Z</time>
      </trkpt>
      <trkpt lat="42.684164308011531829833984375" lon="-0.025662370026111602783203125">
        <ele>2721.39990234375</ele>
        <time>2021-08-22T06:33:00.000Z</time>
      </trkpt>
      <trkpt lat="42.6841031201183795928955078125" lon="-0.02562188543379306793212890625">
        <ele>2720.60009765625</ele>
        <time>2021-08-22T06:33:07.000Z</time>
      </trkpt>
      <trkpt lat="42.68389717675745487213134765625" lon="-0.0253996811807155609130859375">
        <ele>2711.60009765625</ele>
        <time>2021-08-22T06:33:39.000Z</time>
      </trkpt>
      <trkpt lat="42.6838821731507778167724609375" lon="-0.025317035615444183349609375">
        <ele>2710</ele>
        <time>2021-08-22T06:34:01.000Z</time>
      </trkpt>
      <trkpt lat="42.68378100357949733734130859375" lon="-0.0251847691833972930908203125">
        <ele>2705.199951171875</ele>
        <time>2021-08-22T06:34:26.000Z</time>
      </trkpt>
      <trkpt lat="42.68369466997683048248291015625" lon="-0.025203041732311248779296875">
        <ele>2703</ele>
        <time>2021-08-22T06:34:48.000Z</time>
      </trkpt>
      <trkpt lat="42.68364219926297664642333984375" lon="-0.02510069869458675384521484375">
        <ele>2700</ele>
        <time>2021-08-22T06:35:06.000Z</time>
      </trkpt>
      <trkpt lat="42.683641612529754638671875" lon="-0.02509533427655696868896484375">
        <ele>2700</ele>
        <time>2021-08-22T06:35:10.000Z</time>
      </trkpt>
      <trkpt lat="42.683641612529754638671875" lon="-0.02509516663849353790283203125">
        <ele>2700</ele>
        <time>2021-08-22T06:35:11.000Z</time>
      </trkpt>
      <trkpt lat="42.68364320509135723114013671875" lon="-0.02509566955268383026123046875">
        <ele>2700</ele>
        <time>2021-08-22T06:35:13.000Z</time>
      </trkpt>
      <trkpt lat="42.68365577794611454010009765625" lon="-0.02508125267922878265380859375">
        <ele>2700.39990234375</ele>
        <time>2021-08-22T06:35:33.000Z</time>
      </trkpt>
      <trkpt lat="42.6836608909070491790771484375" lon="-0.02507303841412067413330078125">
        <ele>2700.39990234375</ele>
        <time>2021-08-22T06:35:40.000Z</time>
      </trkpt>
      <trkpt lat="42.68364756368100643157958984375" lon="-0.0249986909329891204833984375">
        <ele>2699.39990234375</ele>
        <time>2021-08-22T06:35:50.000Z</time>
      </trkpt>
      <trkpt lat="42.68360665999352931976318359375" lon="-0.0249346531927585601806640625">
        <ele>2697.60009765625</ele>
        <time>2021-08-22T06:36:01.000Z</time>
      </trkpt>
      <trkpt lat="42.6835515908896923065185546875" lon="-0.024931468069553375244140625">
        <ele>2695.800048828125</ele>
        <time>2021-08-22T06:36:10.000Z</time>
      </trkpt>
      <trkpt lat="42.68353172577917575836181640625" lon="-0.02487681806087493896484375">
        <ele>2694.800048828125</ele>
        <time>2021-08-22T06:36:14.000Z</time>
      </trkpt>
      <trkpt lat="42.6835244335234165191650390625" lon="-0.02486902289092540740966796875">
        <ele>2694.60009765625</ele>
        <time>2021-08-22T06:36:15.000Z</time>
      </trkpt>
      <trkpt lat="42.68351479433476924896240234375" lon="-0.024840943515300750732421875">
        <ele>2694.199951171875</ele>
        <time>2021-08-22T06:36:22.000Z</time>
      </trkpt>
      <trkpt lat="42.68351412378251552581787109375" lon="-0.024839602410793304443359375">
        <ele>2694.199951171875</ele>
        <time>2021-08-22T06:36:24.000Z</time>
      </trkpt>
      <trkpt lat="42.6835214160382747650146484375" lon="-0.02484706230461597442626953125">
        <ele>2694.39990234375</ele>
        <time>2021-08-22T06:36:37.000Z</time>
      </trkpt>
      <trkpt lat="42.68348461948335170745849609375" lon="-0.02485527656972408294677734375">
        <ele>2693.199951171875</ele>
        <time>2021-08-22T06:36:51.000Z</time>
      </trkpt>
      <trkpt lat="42.683449499309062957763671875" lon="-0.02482459880411624908447265625">
        <ele>2692</ele>
        <time>2021-08-22T06:36:57.000Z</time>
      </trkpt>
      <trkpt lat="42.68342426978051662445068359375" lon="-0.0247794203460216522216796875">
        <ele>2691.39990234375</ele>
        <time>2021-08-22T06:37:01.000Z</time>
      </trkpt>
      <trkpt lat="42.68339560367166996002197265625" lon="-0.02464002929627895355224609375">
        <ele>2691.199951171875</ele>
        <time>2021-08-22T06:37:11.000Z</time>
      </trkpt>
      <trkpt lat="42.68339057452976703643798828125" lon="-0.02460650168359279632568359375">
        <ele>2691.199951171875</ele>
        <time>2021-08-22T06:37:13.000Z</time>
      </trkpt>
      <trkpt lat="42.6833728887140750885009765625" lon="-0.0245678611099720001220703125">
        <ele>2690.60009765625</ele>
        <time>2021-08-22T06:37:16.000Z</time>
      </trkpt>
      <trkpt lat="42.6833527721464633941650390625" lon="-0.0245531089603900909423828125">
        <ele>2690</ele>
        <time>2021-08-22T06:37:18.000Z</time>
      </trkpt>
      <trkpt lat="42.6833447255194187164306640625" lon="-0.02454816363751888275146484375">
        <ele>2689.800048828125</ele>
        <time>2021-08-22T06:37:19.000Z</time>
      </trkpt>
      <trkpt lat="42.6833054982125759124755859375" lon="-0.024546571075916290283203125">
        <ele>2688.39990234375</ele>
        <time>2021-08-22T06:37:25.000Z</time>
      </trkpt>
      <trkpt lat="42.6832915842533111572265625" lon="-0.02456023357808589935302734375">
        <ele>2687.800048828125</ele>
        <time>2021-08-22T06:37:29.000Z</time>
      </trkpt>
      <trkpt lat="42.68325042910873889923095703125" lon="-0.02466014586389064788818359375">
        <ele>2686.39990234375</ele>
        <time>2021-08-22T06:38:18.000Z</time>
      </trkpt>
      <trkpt lat="42.68321178853511810302734375" lon="-0.0245940126478672027587890625">
        <ele>2684.800048828125</ele>
        <time>2021-08-22T06:38:25.000Z</time>
      </trkpt>
      <trkpt lat="42.6831046678125858306884765625" lon="-0.02423484809696674346923828125">
        <ele>2681.39990234375</ele>
        <time>2021-08-22T06:39:01.000Z</time>
      </trkpt>
      <trkpt lat="42.6830929331481456756591796875" lon="-0.02416494302451610565185546875">
        <ele>2681.39990234375</ele>
        <time>2021-08-22T06:39:09.000Z</time>
      </trkpt>
      <trkpt lat="42.68302361480891704559326171875" lon="-0.02375070936977863311767578125">
        <ele>2679</ele>
        <time>2021-08-22T06:39:37.000Z</time>
      </trkpt>
      <trkpt lat="42.68302579410374164581298828125" lon="-0.02371667884290218353271484375">
        <ele>2679</ele>
        <time>2021-08-22T06:39:40.000Z</time>
      </trkpt>
      <trkpt lat="42.6830111257731914520263671875" lon="-0.02366655506193637847900390625">
        <ele>2677.800048828125</ele>
        <time>2021-08-22T06:39:46.000Z</time>
      </trkpt>
      <trkpt lat="42.6830081082880496978759765625" lon="-0.02364970743656158447265625">
        <ele>2677.60009765625</ele>
        <time>2021-08-22T06:39:48.000Z</time>
      </trkpt>
      <trkpt lat="42.68300416879355907440185546875" lon="-0.02364660613238811492919921875">
        <ele>2677.39990234375</ele>
        <time>2021-08-22T06:39:49.000Z</time>
      </trkpt>
      <trkpt lat="42.68300249241292476654052734375" lon="-0.0236455164849758148193359375">
        <ele>2677.39990234375</ele>
        <time>2021-08-22T06:39:50.000Z</time>
      </trkpt>
      <trkpt lat="42.68301053903996944427490234375" lon="-0.0236347876489162445068359375">
        <ele>2677.60009765625</ele>
        <time>2021-08-22T06:40:21.000Z</time>
      </trkpt>
      <trkpt lat="42.6830537058413028717041015625" lon="-0.02347326837480068206787109375">
        <ele>2678.199951171875</ele>
        <time>2021-08-22T06:40:43.000Z</time>
      </trkpt>
      <trkpt lat="42.68306250683963298797607421875" lon="-0.02340537495911121368408203125">
        <ele>2678.199951171875</ele>
        <time>2021-08-22T06:40:49.000Z</time>
      </trkpt>
      <trkpt lat="42.68304993398487567901611328125" lon="-0.023319460451602935791015625">
        <ele>2676.800048828125</ele>
        <time>2021-08-22T06:41:01.000Z</time>
      </trkpt>
      <trkpt lat="42.683046497404575347900390625" lon="-0.02328182570636272430419921875">
        <ele>2676.39990234375</ele>
        <time>2021-08-22T06:41:04.000Z</time>
      </trkpt>
      <trkpt lat="42.68305747769773006439208984375" lon="-0.0232270918786525726318359375">
        <ele>2676.39990234375</ele>
        <time>2021-08-22T06:41:09.000Z</time>
      </trkpt>
      <trkpt lat="42.68304406665265560150146484375" lon="-0.02319666557013988494873046875">
        <ele>2675.199951171875</ele>
        <time>2021-08-22T06:41:21.000Z</time>
      </trkpt>
      <trkpt lat="42.683045826852321624755859375" lon="-0.0231273472309112548828125">
        <ele>2674.800048828125</ele>
        <time>2021-08-22T06:41:27.000Z</time>
      </trkpt>
      <trkpt lat="42.683051861822605133056640625" lon="-0.0230856053531169891357421875">
        <ele>2674.800048828125</ele>
        <time>2021-08-22T06:41:38.000Z</time>
      </trkpt>
      <trkpt lat="42.6830805279314517974853515625" lon="-0.023042522370815277099609375">
        <ele>2676.199951171875</ele>
        <time>2021-08-22T06:41:52.000Z</time>
      </trkpt>
      <trkpt lat="42.68311464227735996246337890625" lon="-0.02297722734510898590087890625">
        <ele>2677.60009765625</ele>
        <time>2021-08-22T06:42:00.000Z</time>
      </trkpt>
      <trkpt lat="42.68308664672076702117919921875" lon="-0.0229139439761638641357421875">
        <ele>2676</ele>
        <time>2021-08-22T06:42:14.000Z</time>
      </trkpt>
      <trkpt lat="42.6830862276256084442138671875" lon="-0.022911764681339263916015625">
        <ele>2676</ele>
        <time>2021-08-22T06:42:19.000Z</time>
      </trkpt>
      <trkpt lat="42.68309067003428936004638671875" lon="-0.02286658622324466705322265625">
        <ele>2675.60009765625</ele>
        <time>2021-08-22T06:42:27.000Z</time>
      </trkpt>
      <trkpt lat="42.68310072831809520721435546875" lon="-0.0228559412062168121337890625">
        <ele>2676</ele>
        <time>2021-08-22T06:42:46.000Z</time>
      </trkpt>
      <trkpt lat="42.6831033267080783843994140625" lon="-0.0228636525571346282958984375">
        <ele>2676.199951171875</ele>
        <time>2021-08-22T06:42:51.000Z</time>
      </trkpt>
      <trkpt lat="42.68310357816517353057861328125" lon="-0.02286373637616634368896484375">
        <ele>2676.199951171875</ele>
        <time>2021-08-22T06:42:52.000Z</time>
      </trkpt>
      <trkpt lat="42.68310341052711009979248046875" lon="-0.02286289818584918975830078125">
        <ele>2676.199951171875</ele>
        <time>2021-08-22T06:42:55.000Z</time>
      </trkpt>
      <trkpt lat="42.6831117086112499237060546875" lon="-0.0228576175868511199951171875">
        <ele>2676.39990234375</ele>
        <time>2021-08-22T06:42:57.000Z</time>
      </trkpt>
      <trkpt lat="42.683143727481365203857421875" lon="-0.02282601781189441680908203125">
        <ele>2676.39990234375</ele>
        <time>2021-08-22T06:43:01.000Z</time>
      </trkpt>
      <trkpt lat="42.68317918293178081512451171875" lon="-0.02274454571306705474853515625">
        <ele>2676.199951171875</ele>
        <time>2021-08-22T06:43:11.000Z</time>
      </trkpt>
      <trkpt lat="42.68318488262593746185302734375" lon="-0.0227315537631511688232421875">
        <ele>2676</ele>
        <time>2021-08-22T06:43:13.000Z</time>
      </trkpt>
      <trkpt lat="42.68318773247301578521728515625" lon="-0.02271940000355243682861328125">
        <ele>2676</ele>
        <time>2021-08-22T06:43:14.000Z</time>
      </trkpt>
      <trkpt lat="42.683185636997222900390625" lon="-0.02271470613777637481689453125">
        <ele>2675.800048828125</ele>
        <time>2021-08-22T06:43:15.000Z</time>
      </trkpt>
      <trkpt lat="42.6831790991127490997314453125" lon="-0.02270481549203395843505859375">
        <ele>2675.60009765625</ele>
        <time>2021-08-22T06:43:17.000Z</time>
      </trkpt>
      <trkpt lat="42.68317583017051219940185546875" lon="-0.02269308082759380340576171875">
        <ele>2675.60009765625</ele>
        <time>2021-08-22T06:43:18.000Z</time>
      </trkpt>
      <trkpt lat="42.683174908161163330078125" lon="-0.02261638641357421875">
        <ele>2674.60009765625</ele>
        <time>2021-08-22T06:43:25.000Z</time>
      </trkpt>
      <trkpt lat="42.68317298032343387603759765625" lon="-0.0226024724543094635009765625">
        <ele>2674.39990234375</ele>
        <time>2021-08-22T06:43:26.000Z</time>
      </trkpt>
      <trkpt lat="42.68317155539989471435546875" lon="-0.02258746884763240814208984375">
        <ele>2674.199951171875</ele>
        <time>2021-08-22T06:43:27.000Z</time>
      </trkpt>
      <trkpt lat="42.683167196810245513916015625" lon="-0.022552013397216796875">
        <ele>2673.60009765625</ele>
        <time>2021-08-22T06:43:31.000Z</time>
      </trkpt>
      <trkpt lat="42.68312687985599040985107421875" lon="-0.02252225764095783233642578125">
        <ele>2672.60009765625</ele>
        <time>2021-08-22T06:43:38.000Z</time>
      </trkpt>
      <trkpt lat="42.683121263980865478515625" lon="-0.02250884659588336944580078125">
        <ele>2672.199951171875</ele>
        <time>2021-08-22T06:43:39.000Z</time>
      </trkpt>
      <trkpt lat="42.68310978077352046966552734375" lon="-0.022435672581195831298828125">
        <ele>2671</ele>
        <time>2021-08-22T06:43:44.000Z</time>
      </trkpt>
      <trkpt lat="42.6830382831394672393798828125" lon="-0.022372640669345855712890625">
        <ele>2668.800048828125</ele>
        <time>2021-08-22T06:43:52.000Z</time>
      </trkpt>
      <trkpt lat="42.683010958135128021240234375" lon="-0.0223744846880435943603515625">
        <ele>2668.199951171875</ele>
        <time>2021-08-22T06:43:57.000Z</time>
      </trkpt>
      <trkpt lat="42.68301003612577915191650390625" lon="-0.02237658016383647918701171875">
        <ele>2668.199951171875</ele>
        <time>2021-08-22T06:43:58.000Z</time>
      </trkpt>
      <trkpt lat="42.68300928175449371337890625" lon="-0.02237909473478794097900390625">
        <ele>2668.199951171875</ele>
        <time>2021-08-22T06:43:59.000Z</time>
      </trkpt>
      <trkpt lat="42.683000229299068450927734375" lon="-0.02238110639154911041259765625">
        <ele>2668</ele>
        <time>2021-08-22T06:44:02.000Z</time>
      </trkpt>
      <trkpt lat="42.68295907415449619293212890625" lon="-0.02221212722361087799072265625">
        <ele>2669</ele>
        <time>2021-08-22T06:44:32.000Z</time>
      </trkpt>
      <trkpt lat="42.68289218656718730926513671875" lon="-0.02197626046836376190185546875">
        <ele>2670.199951171875</ele>
        <time>2021-08-22T06:44:51.000Z</time>
      </trkpt>
      <trkpt lat="42.6828803680837154388427734375" lon="-0.021925382316112518310546875">
        <ele>2670.60009765625</ele>
        <time>2021-08-22T06:44:59.000Z</time>
      </trkpt>
      <trkpt lat="42.68283753655850887298583984375" lon="-0.02181499265134334564208984375">
        <ele>2671.199951171875</ele>
        <time>2021-08-22T06:45:09.000Z</time>
      </trkpt>
      <trkpt lat="42.6827626861631870269775390625" lon="-0.02178532071411609649658203125">
        <ele>2670.39990234375</ele>
        <time>2021-08-22T06:45:18.000Z</time>
      </trkpt>
      <trkpt lat="42.682764194905757904052734375" lon="-0.0216938741505146026611328125">
        <ele>2671.199951171875</ele>
        <time>2021-08-22T06:45:25.000Z</time>
      </trkpt>
      <trkpt lat="42.68254970200359821319580078125" lon="-0.02115030772984027862548828125">
        <ele>2669</ele>
        <time>2021-08-22T06:46:08.000Z</time>
      </trkpt>
      <trkpt lat="42.68244576640427112579345703125" lon="-0.02091896720230579376220703125">
        <ele>2669</ele>
        <time>2021-08-22T06:46:24.000Z</time>
      </trkpt>
      <trkpt lat="42.682371921837329864501953125" lon="-0.02082995139062404632568359375">
        <ele>2668.800048828125</ele>
        <time>2021-08-22T06:46:32.000Z</time>
      </trkpt>
      <trkpt lat="42.68234283663332462310791015625" lon="-0.0208107568323612213134765625">
        <ele>2668.60009765625</ele>
        <time>2021-08-22T06:46:35.000Z</time>
      </trkpt>
      <trkpt lat="42.68220554105937480926513671875" lon="-0.02067857421934604644775390625">
        <ele>2667.199951171875</ele>
        <time>2021-08-22T06:46:51.000Z</time>
      </trkpt>
      <trkpt lat="42.682126499712467193603515625" lon="-0.02060313709080219268798828125">
        <ele>2666</ele>
        <time>2021-08-22T06:47:01.000Z</time>
      </trkpt>
      <trkpt lat="42.68200437538325786590576171875" lon="-0.0200131349265575408935546875">
        <ele>2655</ele>
        <time>2021-08-22T06:47:46.000Z</time>
      </trkpt>
      <trkpt lat="42.68199138343334197998046875" lon="-0.0197824649512767791748046875">
        <ele>2650.800048828125</ele>
        <time>2021-08-22T06:48:04.000Z</time>
      </trkpt>
      <trkpt lat="42.68199138343334197998046875" lon="-0.0197211094200611114501953125">
        <ele>2650.199951171875</ele>
        <time>2021-08-22T06:48:08.000Z</time>
      </trkpt>
      <trkpt lat="42.68199180252850055694580078125" lon="-0.019707195460796356201171875">
        <ele>2650.199951171875</ele>
        <time>2021-08-22T06:48:09.000Z</time>
      </trkpt>
      <trkpt lat="42.68199398182332515716552734375" lon="-0.01969277858734130859375">
        <ele>2650</ele>
        <time>2021-08-22T06:48:10.000Z</time>
      </trkpt>
      <trkpt lat="42.6819942332804203033447265625" lon="-0.01967643387615680694580078125">
        <ele>2650</ele>
        <time>2021-08-22T06:48:11.000Z</time>
      </trkpt>
      <trkpt lat="42.68199565820395946502685546875" lon="-0.01966184936463832855224609375">
        <ele>2649.800048828125</ele>
        <time>2021-08-22T06:48:12.000Z</time>
      </trkpt>
      <trkpt lat="42.68199381418526172637939453125" lon="-0.0196480192244052886962890625">
        <ele>2649.60009765625</ele>
        <time>2021-08-22T06:48:13.000Z</time>
      </trkpt>
      <trkpt lat="42.68199297599494457244873046875" lon="-0.01963284797966480255126953125">
        <ele>2649.39990234375</ele>
        <time>2021-08-22T06:48:14.000Z</time>
      </trkpt>
      <trkpt lat="42.68198006786406040191650390625" lon="-0.0195403955876827239990234375">
        <ele>2648.199951171875</ele>
        <time>2021-08-22T06:48:20.000Z</time>
      </trkpt>
      <trkpt lat="42.68197453580796718597412109375" lon="-0.01949270255863666534423828125">
        <ele>2647.800048828125</ele>
        <time>2021-08-22T06:48:23.000Z</time>
      </trkpt>
      <trkpt lat="42.68196883611381053924560546875" lon="-0.0194607675075531005859375">
        <ele>2647.39990234375</ele>
        <time>2021-08-22T06:48:25.000Z</time>
      </trkpt>
      <trkpt lat="42.68190245144069194793701171875" lon="-0.019314587116241455078125">
        <ele>2646.800048828125</ele>
        <time>2021-08-22T06:48:38.000Z</time>
      </trkpt>
      <trkpt lat="42.68186397850513458251953125" lon="-0.01927561126649379730224609375">
        <ele>2647.39990234375</ele>
        <time>2021-08-22T06:48:42.000Z</time>
      </trkpt>
      <trkpt lat="42.68179868347942829132080078125" lon="-0.01918575726449489593505859375">
        <ele>2648.60009765625</ele>
        <time>2021-08-22T06:48:50.000Z</time>
      </trkpt>
      <trkpt lat="42.68176197074353694915771484375" lon="-0.01913546584546566009521484375">
        <ele>2649.199951171875</ele>
        <time>2021-08-22T06:48:56.000Z</time>
      </trkpt>
      <trkpt lat="42.68175828270614147186279296875" lon="-0.019122473895549774169921875">
        <ele>2649.60009765625</ele>
        <time>2021-08-22T06:48:57.000Z</time>
      </trkpt>
      <trkpt lat="42.6817578636109828948974609375" lon="-0.0191129185259342193603515625">
        <ele>2649.800048828125</ele>
        <time>2021-08-22T06:48:58.000Z</time>
      </trkpt>
      <trkpt lat="42.68175073899328708648681640625" lon="-0.0190978311002254486083984375">
        <ele>2650</ele>
        <time>2021-08-22T06:49:00.000Z</time>
      </trkpt>
      <trkpt lat="42.6817484758794307708740234375" lon="-0.019077546894550323486328125">
        <ele>2650.39990234375</ele>
        <time>2021-08-22T06:49:02.000Z</time>
      </trkpt>
      <trkpt lat="42.6817417703568935394287109375" lon="-0.019047372043132781982421875">
        <ele>2651</ele>
        <time>2021-08-22T06:49:05.000Z</time>
      </trkpt>
      <trkpt lat="42.68172341398894786834716796875" lon="-0.0189845077693462371826171875">
        <ele>2652.199951171875</ele>
        <time>2021-08-22T06:49:21.000Z</time>
      </trkpt>
      <trkpt lat="42.68170162104070186614990234375" lon="-0.01897788606584072113037109375">
        <ele>2652</ele>
        <time>2021-08-22T06:49:25.000Z</time>
      </trkpt>
      <trkpt lat="42.68169525079429149627685546875" lon="-0.01896665431559085845947265625">
        <ele>2652.199951171875</ele>
        <time>2021-08-22T06:49:29.000Z</time>
      </trkpt>
      <trkpt lat="42.68162266351282596588134765625" lon="-0.0188733637332916259765625">
        <ele>2653.800048828125</ele>
        <time>2021-08-22T06:49:45.000Z</time>
      </trkpt>
      <trkpt lat="42.6815949194133281707763671875" lon="-0.0188326276838779449462890625">
        <ele>2654.39990234375</ele>
        <time>2021-08-22T06:50:18.000Z</time>
      </trkpt>
      <trkpt lat="42.68160087056457996368408203125" lon="-0.01883354969322681427001953125">
        <ele>2654.39990234375</ele>
        <time>2021-08-22T06:50:28.000Z</time>
      </trkpt>
      <trkpt lat="42.68160472624003887176513671875" lon="-0.01882835291326045989990234375">
        <ele>2654.60009765625</ele>
        <time>2021-08-22T06:50:34.000Z</time>
      </trkpt>
      <trkpt lat="42.68159852363169193267822265625" lon="-0.01880555413663387298583984375">
        <ele>2655</ele>
        <time>2021-08-22T06:50:48.000Z</time>
      </trkpt>
      <trkpt lat="42.68159667961299419403076171875" lon="-0.01880689524114131927490234375">
        <ele>2655</ele>
        <time>2021-08-22T06:50:56.000Z</time>
      </trkpt>
      <trkpt lat="42.68158980645239353179931640625" lon="-0.01881678588688373565673828125">
        <ele>2654.800048828125</ele>
        <time>2021-08-22T06:51:03.000Z</time>
      </trkpt>
      <trkpt lat="42.68158712424337863922119140625" lon="-0.01880429685115814208984375">
        <ele>2655</ele>
        <time>2021-08-22T06:51:11.000Z</time>
      </trkpt>
      <trkpt lat="42.6815925724804401397705078125" lon="-0.01877755858004093170166015625">
        <ele>2655.60009765625</ele>
        <time>2021-08-22T06:51:23.000Z</time>
      </trkpt>
      <trkpt lat="42.68159282393753528594970703125" lon="-0.01877772621810436248779296875">
        <ele>2655.60009765625</ele>
        <time>2021-08-22T06:51:33.000Z</time>
      </trkpt>
      <trkpt lat="42.68160355277359485626220703125" lon="-0.01877479255199432373046875">
        <ele>2655.800048828125</ele>
        <time>2021-08-22T06:52:17.000Z</time>
      </trkpt>
      <trkpt lat="42.681592740118503570556640625" lon="-0.018793903291225433349609375">
        <ele>2655.199951171875</ele>
        <time>2021-08-22T06:52:39.000Z</time>
      </trkpt>
      <trkpt lat="42.6815483160316944122314453125" lon="-0.0187773071229457855224609375">
        <ele>2655.39990234375</ele>
        <time>2021-08-22T06:53:11.000Z</time>
      </trkpt>
      <trkpt lat="42.68143507651984691619873046875" lon="-0.018892474472522735595703125">
        <ele>2651.800048828125</ele>
        <time>2021-08-22T06:53:26.000Z</time>
      </trkpt>
      <trkpt lat="42.68137439154088497161865234375" lon="-0.0188892893493175506591796875">
        <ele>2649</ele>
        <time>2021-08-22T06:53:33.000Z</time>
      </trkpt>
      <trkpt lat="42.6813595555722713470458984375" lon="-0.01887512393295764923095703125">
        <ele>2648.60009765625</ele>
        <time>2021-08-22T06:53:35.000Z</time>
      </trkpt>
      <trkpt lat="42.68135494552552700042724609375" lon="-0.01885718666017055511474609375">
        <ele>2648.800048828125</ele>
        <time>2021-08-22T06:53:41.000Z</time>
      </trkpt>
      <trkpt lat="42.6813538558781147003173828125" lon="-0.01885970123112201690673828125">
        <ele>2648.800048828125</ele>
        <time>2021-08-22T06:53:44.000Z</time>
      </trkpt>
      <trkpt lat="42.68135762773454189300537109375" lon="-0.01885618083178997039794921875">
        <ele>2649</ele>
        <time>2021-08-22T06:53:47.000Z</time>
      </trkpt>
      <trkpt lat="42.68136248923838138580322265625" lon="-0.018831454217433929443359375">
        <ele>2649.800048828125</ele>
        <time>2021-08-22T06:53:59.000Z</time>
      </trkpt>
      <trkpt lat="42.68135377205908298492431640625" lon="-0.0188007764518260955810546875">
        <ele>2649.800048828125</ele>
        <time>2021-08-22T06:54:17.000Z</time>
      </trkpt>
      <trkpt lat="42.681354023516178131103515625" lon="-0.01880136318504810333251953125">
        <ele>2649.800048828125</ele>
        <time>2021-08-22T06:54:23.000Z</time>
      </trkpt>
      <trkpt lat="42.6813541911542415618896484375" lon="-0.01882751472294330596923828125">
        <ele>2649.39990234375</ele>
        <time>2021-08-22T06:54:35.000Z</time>
      </trkpt>
      <trkpt lat="42.68135176040232181549072265625" lon="-0.0188225694000720977783203125">
        <ele>2649.39990234375</ele>
        <time>2021-08-22T06:54:48.000Z</time>
      </trkpt>
      <trkpt lat="42.68135980702936649322509765625" lon="-0.01878141425549983978271484375">
        <ele>2650.39990234375</ele>
        <time>2021-08-22T06:55:01.000Z</time>
      </trkpt>
      <trkpt lat="42.6813454739749431610107421875" lon="-0.01874168403446674346923828125">
        <ele>2650.199951171875</ele>
        <time>2021-08-22T06:55:04.000Z</time>
      </trkpt>
      <trkpt lat="42.68131152726709842681884765625" lon="-0.01862484030425548553466796875">
        <ele>2651</ele>
        <time>2021-08-22T06:55:12.000Z</time>
      </trkpt>
      <trkpt lat="42.68130247481167316436767578125" lon="-0.01854554750025272369384765625">
        <ele>2652.800048828125</ele>
        <time>2021-08-22T06:55:18.000Z</time>
      </trkpt>
      <trkpt lat="42.6813008822500705718994140625" lon="-0.01853615976870059967041015625">
        <ele>2653.199951171875</ele>
        <time>2021-08-22T06:55:19.000Z</time>
      </trkpt>
      <trkpt lat="42.6812988705933094024658203125" lon="-0.018526017665863037109375">
        <ele>2653.39990234375</ele>
        <time>2021-08-22T06:55:20.000Z</time>
      </trkpt>
      <trkpt lat="42.6812982000410556793212890625" lon="-0.01851671375334262847900390625">
        <ele>2653.60009765625</ele>
        <time>2021-08-22T06:55:21.000Z</time>
      </trkpt>
      <trkpt lat="42.68129476346075534820556640625" lon="-0.01849986612796783447265625">
        <ele>2654</ele>
        <time>2021-08-22T06:55:23.000Z</time>
      </trkpt>
      <trkpt lat="42.68129342235624790191650390625" lon="-0.01848335377871990203857421875">
        <ele>2654.60009765625</ele>
        <time>2021-08-22T06:55:25.000Z</time>
      </trkpt>
      <trkpt lat="42.68126492388546466827392578125" lon="-0.0184041447937488555908203125">
        <ele>2654.800048828125</ele>
        <time>2021-08-22T06:55:34.000Z</time>
      </trkpt>
      <trkpt lat="42.68125385977327823638916015625" lon="-0.01836215145885944366455078125">
        <ele>2655.39990234375</ele>
        <time>2021-08-22T06:55:38.000Z</time>
      </trkpt>
      <trkpt lat="42.68125017173588275909423828125" lon="-0.0183323957026004791259765625">
        <ele>2656.199951171875</ele>
        <time>2021-08-22T06:55:41.000Z</time>
      </trkpt>
      <trkpt lat="42.6812562905251979827880859375" lon="-0.01823223195970058441162109375">
        <ele>2659.60009765625</ele>
        <time>2021-08-22T06:55:50.000Z</time>
      </trkpt>
      <trkpt lat="42.68125570379197597503662109375" lon="-0.018202476203441619873046875">
        <ele>2660.60009765625</ele>
        <time>2021-08-22T06:55:52.000Z</time>
      </trkpt>
      <trkpt lat="42.68124681897461414337158203125" lon="-0.01813081093132495880126953125">
        <ele>2661.39990234375</ele>
        <time>2021-08-22T06:55:58.000Z</time>
      </trkpt>
      <trkpt lat="42.68123558722436428070068359375" lon="-0.018076412379741668701171875">
        <ele>2661.800048828125</ele>
        <time>2021-08-22T06:56:05.000Z</time>
      </trkpt>
      <trkpt lat="42.68124279566109180450439453125" lon="-0.0179474987089633941650390625">
        <ele>2663.39990234375</ele>
        <time>2021-08-22T06:56:49.000Z</time>
      </trkpt>
      <trkpt lat="42.6812469027936458587646484375" lon="-0.01796049065887928009033203125">
        <ele>2663.39990234375</ele>
        <time>2021-08-22T06:56:57.000Z</time>
      </trkpt>
      <trkpt lat="42.6812450587749481201171875" lon="-0.0179391168057918548583984375">
        <ele>2663.60009765625</ele>
        <time>2021-08-22T06:57:05.000Z</time>
      </trkpt>
      <trkpt lat="42.68123776651918888092041015625" lon="-0.0178090296685695648193359375">
        <ele>2663.199951171875</ele>
        <time>2021-08-22T06:57:14.000Z</time>
      </trkpt>
      <trkpt lat="42.68121630884706974029541015625" lon="-0.01767450012266635894775390625">
        <ele>2662.60009765625</ele>
        <time>2021-08-22T06:57:28.000Z</time>
      </trkpt>
      <trkpt lat="42.68121446482837200164794921875" lon="-0.0176744163036346435546875">
        <ele>2662.60009765625</ele>
        <time>2021-08-22T06:57:29.000Z</time>
      </trkpt>
      <trkpt lat="42.68121228553354740142822265625" lon="-0.01767684705555438995361328125">
        <ele>2662.39990234375</ele>
        <time>2021-08-22T06:57:30.000Z</time>
      </trkpt>
      <trkpt lat="42.681205831468105316162109375" lon="-0.01767148263752460479736328125">
        <ele>2662.199951171875</ele>
        <time>2021-08-22T06:57:34.000Z</time>
      </trkpt>
      <trkpt lat="42.68120759166777133941650390625" lon="-0.01766645349562168121337890625">
        <ele>2662.39990234375</ele>
        <time>2021-08-22T06:57:35.000Z</time>
      </trkpt>
      <trkpt lat="42.681209184229373931884765625" lon="-0.017635188996791839599609375">
        <ele>2662.39990234375</ele>
        <time>2021-08-22T06:57:39.000Z</time>
      </trkpt>
      <trkpt lat="42.6812080107629299163818359375" lon="-0.0176239572465419769287109375">
        <ele>2662.39990234375</ele>
        <time>2021-08-22T06:57:40.000Z</time>
      </trkpt>
      <trkpt lat="42.6812056638300418853759765625" lon="-0.0175890885293483734130859375">
        <ele>2662.39990234375</ele>
        <time>2021-08-22T06:57:44.000Z</time>
      </trkpt>
      <trkpt lat="42.681216560304164886474609375" lon="-0.017533935606479644775390625">
        <ele>2662.800048828125</ele>
        <time>2021-08-22T06:57:49.000Z</time>
      </trkpt>
      <trkpt lat="42.6812127046287059783935546875" lon="-0.01747392117977142333984375">
        <ele>2663</ele>
        <time>2021-08-22T06:57:58.000Z</time>
      </trkpt>
      <trkpt lat="42.681211531162261962890625" lon="-0.01742589287459850311279296875">
        <ele>2663</ele>
        <time>2021-08-22T06:58:07.000Z</time>
      </trkpt>
      <trkpt lat="42.68120708875358104705810546875" lon="-0.017356574535369873046875">
        <ele>2663.199951171875</ele>
        <time>2021-08-22T06:58:17.000Z</time>
      </trkpt>
      <trkpt lat="42.681204490363597869873046875" lon="-0.0173364579677581787109375">
        <ele>2663.199951171875</ele>
        <time>2021-08-22T06:58:22.000Z</time>
      </trkpt>
      <trkpt lat="42.68120289780199527740478515625" lon="-0.0173215381801128387451171875">
        <ele>2663.39990234375</ele>
        <time>2021-08-22T06:58:25.000Z</time>
      </trkpt>
      <trkpt lat="42.68100139684975147247314453125" lon="-0.01710302196443080902099609375">
        <ele>2657.60009765625</ele>
        <time>2021-08-22T07:00:33.000Z</time>
      </trkpt>
      <trkpt lat="42.680997960269451141357421875" lon="-0.017092712223529815673828125">
        <ele>2657.39990234375</ele>
        <time>2021-08-22T07:00:36.000Z</time>
      </trkpt>
      <trkpt lat="42.6809904165565967559814453125" lon="-0.01704619266092777252197265625">
        <ele>2657.39990234375</ele>
        <time>2021-08-22T07:00:40.000Z</time>
      </trkpt>
      <trkpt lat="42.68099016509950160980224609375" lon="-0.01702959649264812469482421875">
        <ele>2657.39990234375</ele>
        <time>2021-08-22T07:00:41.000Z</time>
      </trkpt>
      <trkpt lat="42.68099133856594562530517578125" lon="-0.01698349602520465850830078125">
        <ele>2657.800048828125</ele>
        <time>2021-08-22T07:00:44.000Z</time>
      </trkpt>
      <trkpt lat="42.68093953840434551239013671875" lon="-0.01680605113506317138671875">
        <ele>2657.39990234375</ele>
        <time>2021-08-22T07:01:03.000Z</time>
      </trkpt>
      <trkpt lat="42.68087851814925670623779296875" lon="-0.0167280994355678558349609375">
        <ele>2656.199951171875</ele>
        <time>2021-08-22T07:01:35.000Z</time>
      </trkpt>
      <trkpt lat="42.68075530417263507843017578125" lon="-0.01670102588832378387451171875">
        <ele>2649.199951171875</ele>
        <time>2021-08-22T07:02:48.000Z</time>
      </trkpt>
      <trkpt lat="42.68068959005177021026611328125" lon="-0.0166429392993450164794921875">
        <ele>2647</ele>
        <time>2021-08-22T07:03:02.000Z</time>
      </trkpt>
      <trkpt lat="42.68067886121571063995361328125" lon="-0.0166224874556064605712890625">
        <ele>2647</ele>
        <time>2021-08-22T07:03:06.000Z</time>
      </trkpt>
      <trkpt lat="42.6806764304637908935546875" lon="-0.01661502756178379058837890625">
        <ele>2647.199951171875</ele>
        <time>2021-08-22T07:03:07.000Z</time>
      </trkpt>
      <trkpt lat="42.680664025247097015380859375" lon="-0.01659088768064975738525390625">
        <ele>2647.199951171875</ele>
        <time>2021-08-22T07:03:10.000Z</time>
      </trkpt>
      <trkpt lat="42.68065941520035266876220703125" lon="-0.016586445271968841552734375">
        <ele>2647.199951171875</ele>
        <time>2021-08-22T07:03:11.000Z</time>
      </trkpt>
      <trkpt lat="42.68063016235828399658203125" lon="-0.01656037755310535430908203125">
        <ele>2646.39990234375</ele>
        <time>2021-08-22T07:03:15.000Z</time>
      </trkpt>
      <trkpt lat="42.6806028373539447784423828125" lon="-0.0165376625955104827880859375">
        <ele>2645.60009765625</ele>
        <time>2021-08-22T07:03:20.000Z</time>
      </trkpt>
      <trkpt lat="42.6805230416357517242431640625" lon="-0.0163619779050350189208984375">
        <ele>2646.199951171875</ele>
        <time>2021-08-22T07:03:41.000Z</time>
      </trkpt>
      <trkpt lat="42.68048959784209728240966796875" lon="-0.01610758714377880096435546875">
        <ele>2651.199951171875</ele>
        <time>2021-08-22T07:04:02.000Z</time>
      </trkpt>
      <trkpt lat="42.68047325313091278076171875" lon="-0.01602628268301486968994140625">
        <ele>2651.60009765625</ele>
        <time>2021-08-22T07:04:12.000Z</time>
      </trkpt>
      <trkpt lat="42.68037225119769573211669921875" lon="-0.01573861576616764068603515625">
        <ele>2650.800048828125</ele>
        <time>2021-08-22T07:04:59.000Z</time>
      </trkpt>
      <trkpt lat="42.6803218759596347808837890625" lon="-0.0155127234756946563720703125">
        <ele>2653.199951171875</ele>
        <time>2021-08-22T07:05:20.000Z</time>
      </trkpt>
      <trkpt lat="42.6802900247275829315185546875" lon="-0.0154131464660167694091796875">
        <ele>2654.199951171875</ele>
        <time>2021-08-22T07:05:53.000Z</time>
      </trkpt>
      <trkpt lat="42.6803155057132244110107421875" lon="-0.01541758887469768524169921875">
        <ele>2655.39990234375</ele>
        <time>2021-08-22T07:06:05.000Z</time>
      </trkpt>
      <trkpt lat="42.68031424842774868011474609375" lon="-0.01542043872177600860595703125">
        <ele>2655.39990234375</ele>
        <time>2021-08-22T07:06:07.000Z</time>
      </trkpt>
      <trkpt lat="42.680318020284175872802734375" lon="-0.0154258869588375091552734375">
        <ele>2655.199951171875</ele>
        <time>2021-08-22T07:06:11.000Z</time>
      </trkpt>
      <trkpt lat="42.68031223677098751068115234375" lon="-0.01542546786367893218994140625">
        <ele>2655</ele>
        <time>2021-08-22T07:06:14.000Z</time>
      </trkpt>
      <trkpt lat="42.6803433336317539215087890625" lon="-0.01540099270641803741455078125">
        <ele>2657</ele>
        <time>2021-08-22T07:06:29.000Z</time>
      </trkpt>
      <trkpt lat="42.6803419925272464752197265625" lon="-0.0153906829655170440673828125">
        <ele>2657.199951171875</ele>
        <time>2021-08-22T07:06:30.000Z</time>
      </trkpt>
      <trkpt lat="42.6803403161466121673583984375" lon="-0.01532639376819133758544921875">
        <ele>2658.39990234375</ele>
        <time>2021-08-22T07:06:36.000Z</time>
      </trkpt>
      <trkpt lat="42.680350206792354583740234375" lon="-0.0152642838656902313232421875">
        <ele>2660.199951171875</ele>
        <time>2021-08-22T07:06:58.000Z</time>
      </trkpt>
      <trkpt lat="42.6803626120090484619140625" lon="-0.01532102935016155242919921875">
        <ele>2659.199951171875</ele>
        <time>2021-08-22T07:15:57.000Z</time>
      </trkpt>
      <trkpt lat="42.6803599298000335693359375" lon="-0.015314407646656036376953125">
        <ele>2659.39990234375</ele>
        <time>2021-08-22T07:15:58.000Z</time>
      </trkpt>
      <trkpt lat="42.6803235523402690887451171875" lon="-0.015021376311779022216796875">
        <ele>2663.60009765625</ele>
        <time>2021-08-22T07:16:31.000Z</time>
      </trkpt>
      <trkpt lat="42.6802794635295867919921875" lon="-0.01488500274717807769775390625">
        <ele>2664</ele>
        <time>2021-08-22T07:16:46.000Z</time>
      </trkpt>
      <trkpt lat="42.6802048645913600921630859375" lon="-0.0146849267184734344482421875">
        <ele>2665</ele>
        <time>2021-08-22T07:17:09.000Z</time>
      </trkpt>
      <trkpt lat="42.68010319210588932037353515625" lon="-0.014168433845043182373046875">
        <ele>2665.60009765625</ele>
        <time>2021-08-22T07:18:00.000Z</time>
      </trkpt>
      <trkpt lat="42.68002540804445743560791015625" lon="-0.01366191543638706207275390625">
        <ele>2664.199951171875</ele>
        <time>2021-08-22T07:18:47.000Z</time>
      </trkpt>
      <trkpt lat="42.6800077222287654876708984375" lon="-0.01357759349048137664794921875">
        <ele>2664.39990234375</ele>
        <time>2021-08-22T07:18:56.000Z</time>
      </trkpt>
      <trkpt lat="42.6799128390848636627197265625" lon="-0.0129924528300762176513671875">
        <ele>2663.800048828125</ele>
        <time>2021-08-22T07:19:43.000Z</time>
      </trkpt>
      <trkpt lat="42.67989951185882091522216796875" lon="-0.012699253857135772705078125">
        <ele>2663.800048828125</ele>
        <time>2021-08-22T07:20:06.000Z</time>
      </trkpt>
      <trkpt lat="42.6798484660685062408447265625" lon="-0.0120925717055797576904296875">
        <ele>2663.199951171875</ele>
        <time>2021-08-22T07:20:46.000Z</time>
      </trkpt>
      <trkpt lat="42.67985307611525058746337890625" lon="-0.01176274381577968597412109375">
        <ele>2661.39990234375</ele>
        <time>2021-08-22T07:21:07.000Z</time>
      </trkpt>
      <trkpt lat="42.6798565126955509185791015625" lon="-0.01152369193732738494873046875">
        <ele>2660.60009765625</ele>
        <time>2021-08-22T07:21:25.000Z</time>
      </trkpt>
      <trkpt lat="42.67981988377869129180908203125" lon="-0.0109098851680755615234375">
        <ele>2657.60009765625</ele>
        <time>2021-08-22T07:22:03.000Z</time>
      </trkpt>
      <trkpt lat="42.6798119209706783294677734375" lon="-0.01059363596141338348388671875">
        <ele>2654.39990234375</ele>
        <time>2021-08-22T07:22:29.000Z</time>
      </trkpt>
      <trkpt lat="42.67981066368520259857177734375" lon="-0.0104537419974803924560546875">
        <ele>2654.39990234375</ele>
        <time>2021-08-22T07:22:46.000Z</time>
      </trkpt>
      <trkpt lat="42.67976582050323486328125" lon="-0.0102814100682735443115234375">
        <ele>2653.199951171875</ele>
        <time>2021-08-22T07:22:58.000Z</time>
      </trkpt>
      <trkpt lat="42.679724581539630889892578125" lon="-0.00981059856712818145751953125">
        <ele>2650</ele>
        <time>2021-08-22T07:23:26.000Z</time>
      </trkpt>
      <trkpt lat="42.67966330982744693756103515625" lon="-0.00919687561690807342529296875">
        <ele>2642.60009765625</ele>
        <time>2021-08-22T07:24:03.000Z</time>
      </trkpt>
      <trkpt lat="42.67965895123779773712158203125" lon="-0.00860997475683689117431640625">
        <ele>2641.800048828125</ele>
        <time>2021-08-22T07:24:41.000Z</time>
      </trkpt>
      <trkpt lat="42.67968468368053436279296875" lon="-0.0082674063742160797119140625">
        <ele>2642.60009765625</ele>
        <time>2021-08-22T07:25:15.000Z</time>
      </trkpt>
      <trkpt lat="42.67966934479773044586181640625" lon="-0.00816070474684238433837890625">
        <ele>2641.800048828125</ele>
        <time>2021-08-22T07:25:24.000Z</time>
      </trkpt>
      <trkpt lat="42.67953808419406414031982421875" lon="-0.0079884566366672515869140625">
        <ele>2636</ele>
        <time>2021-08-22T07:25:44.000Z</time>
      </trkpt>
      <trkpt lat="42.6795209012925624847412109375" lon="-0.00788443721830844879150390625">
        <ele>2634.800048828125</ele>
        <time>2021-08-22T07:25:55.000Z</time>
      </trkpt>
      <trkpt lat="42.6794089190661907196044921875" lon="-0.00729150138795375823974609375">
        <ele>2631.199951171875</ele>
        <time>2021-08-22T07:26:38.000Z</time>
      </trkpt>
      <trkpt lat="42.6792966015636920928955078125" lon="-0.00670158304274082183837890625">
        <ele>2626.199951171875</ele>
        <time>2021-08-22T07:27:27.000Z</time>
      </trkpt>
      <trkpt lat="42.6792603917419910430908203125" lon="-0.0060968287289142608642578125">
        <ele>2619.800048828125</ele>
        <time>2021-08-22T07:28:07.000Z</time>
      </trkpt>
      <trkpt lat="42.6792516745626926422119140625" lon="-0.00588753260672092437744140625">
        <ele>2616.60009765625</ele>
        <time>2021-08-22T07:28:25.000Z</time>
      </trkpt>
      <trkpt lat="42.67925494350492954254150390625" lon="-0.0058396719396114349365234375">
        <ele>2616.60009765625</ele>
        <time>2021-08-22T07:28:29.000Z</time>
      </trkpt>
      <trkpt lat="42.67925092019140720367431640625" lon="-0.00582667998969554901123046875">
        <ele>2616.199951171875</ele>
        <time>2021-08-22T07:28:30.000Z</time>
      </trkpt>
      <trkpt lat="42.67924505285918712615966796875" lon="-0.00579985789954662322998046875">
        <ele>2615.60009765625</ele>
        <time>2021-08-22T07:28:32.000Z</time>
      </trkpt>
      <trkpt lat="42.67922761850059032440185546875" lon="-0.0057598762214183807373046875">
        <ele>2614.199951171875</ele>
        <time>2021-08-22T07:28:35.000Z</time>
      </trkpt>
      <trkpt lat="42.6792214997112751007080078125" lon="-0.005745626986026763916015625">
        <ele>2613.60009765625</ele>
        <time>2021-08-22T07:28:36.000Z</time>
      </trkpt>
      <trkpt lat="42.6792178116738796234130859375" lon="-0.0057286955416202545166015625">
        <ele>2613.39990234375</ele>
        <time>2021-08-22T07:28:37.000Z</time>
      </trkpt>
      <trkpt lat="42.67920859158039093017578125" lon="-0.0056983530521392822265625">
        <ele>2612.800048828125</ele>
        <time>2021-08-22T07:28:39.000Z</time>
      </trkpt>
      <trkpt lat="42.6791879720985889434814453125" lon="-0.005611516535282135009765625">
        <ele>2612.39990234375</ele>
        <time>2021-08-22T07:28:45.000Z</time>
      </trkpt>
      <trkpt lat="42.67917732708156108856201171875" lon="-0.00556290149688720703125">
        <ele>2612.39990234375</ele>
        <time>2021-08-22T07:28:49.000Z</time>
      </trkpt>
      <trkpt lat="42.6791708730161190032958984375" lon="-0.005549490451812744140625">
        <ele>2612.199951171875</ele>
        <time>2021-08-22T07:28:53.000Z</time>
      </trkpt>
      <trkpt lat="42.679163999855518341064453125" lon="-0.00556030310690402984619140625">
        <ele>2612</ele>
        <time>2021-08-22T07:28:57.000Z</time>
      </trkpt>
      <trkpt lat="42.67916299402713775634765625" lon="-0.005557872354984283447265625">
        <ele>2612</ele>
        <time>2021-08-22T07:28:58.000Z</time>
      </trkpt>
      <trkpt lat="42.679160647094249725341796875" lon="-0.005553849041461944580078125">
        <ele>2612</ele>
        <time>2021-08-22T07:28:59.000Z</time>
      </trkpt>
      <trkpt lat="42.67915419302880764007568359375" lon="-0.0055345706641674041748046875">
        <ele>2611.800048828125</ele>
        <time>2021-08-22T07:29:04.000Z</time>
      </trkpt>
      <trkpt lat="42.6791601441800594329833984375" lon="-0.00550565309822559356689453125">
        <ele>2612</ele>
        <time>2021-08-22T07:29:07.000Z</time>
      </trkpt>
      <trkpt lat="42.67915369011461734771728515625" lon="-0.00548151321709156036376953125">
        <ele>2612</ele>
        <time>2021-08-22T07:29:09.000Z</time>
      </trkpt>
      <trkpt lat="42.6791410334408283233642578125" lon="-0.0054569542407989501953125">
        <ele>2611.39990234375</ele>
        <time>2021-08-22T07:29:11.000Z</time>
      </trkpt>
      <trkpt lat="42.679135501384735107421875" lon="-0.00544245354831218719482421875">
        <ele>2611.199951171875</ele>
        <time>2021-08-22T07:29:12.000Z</time>
      </trkpt>
      <trkpt lat="42.679118402302265167236328125" lon="-0.00537925399839878082275390625">
        <ele>2610.199951171875</ele>
        <time>2021-08-22T07:29:17.000Z</time>
      </trkpt>
      <trkpt lat="42.6790966093540191650390625" lon="-0.00524581409990787506103515625">
        <ele>2608.39990234375</ele>
        <time>2021-08-22T07:29:27.000Z</time>
      </trkpt>
      <trkpt lat="42.67908898182213306427001953125" lon="-0.00515646301209926605224609375">
        <ele>2608</ele>
        <time>2021-08-22T07:29:32.000Z</time>
      </trkpt>
      <trkpt lat="42.67907640896737575531005859375" lon="-0.0051189959049224853515625">
        <ele>2607.199951171875</ele>
        <time>2021-08-22T07:29:36.000Z</time>
      </trkpt>
      <trkpt lat="42.67904019914567470550537109375" lon="-0.00501967035233974456787109375">
        <ele>2604.60009765625</ele>
        <time>2021-08-22T07:29:44.000Z</time>
      </trkpt>
      <trkpt lat="42.67901455052196979522705078125" lon="-0.0049954466521739959716796875">
        <ele>2603.800048828125</ele>
        <time>2021-08-22T07:29:47.000Z</time>
      </trkpt>
      <trkpt lat="42.67896643839776515960693359375" lon="-0.0049672834575176239013671875">
        <ele>2602.39990234375</ele>
        <time>2021-08-22T07:29:53.000Z</time>
      </trkpt>
      <trkpt lat="42.67893232405185699462890625" lon="-0.00490886159241199493408203125">
        <ele>2601.199951171875</ele>
        <time>2021-08-22T07:29:58.000Z</time>
      </trkpt>
      <trkpt lat="42.6789241097867488861083984375" lon="-0.0048596598207950592041015625">
        <ele>2600.39990234375</ele>
        <time>2021-08-22T07:30:01.000Z</time>
      </trkpt>
      <trkpt lat="42.67888865433633327484130859375" lon="-0.00474206171929836273193359375">
        <ele>2598.39990234375</ele>
        <time>2021-08-22T07:30:09.000Z</time>
      </trkpt>
      <trkpt lat="42.67887323163449764251708984375" lon="-0.00469495542347431182861328125">
        <ele>2597.39990234375</ele>
        <time>2021-08-22T07:30:12.000Z</time>
      </trkpt>
      <trkpt lat="42.67882344312965869903564453125" lon="-0.0046048499643802642822265625">
        <ele>2595.39990234375</ele>
        <time>2021-08-22T07:30:21.000Z</time>
      </trkpt>
      <trkpt lat="42.67875202931463718414306640625" lon="-0.0045337714254856109619140625">
        <ele>2593.60009765625</ele>
        <time>2021-08-22T07:30:36.000Z</time>
      </trkpt>
      <trkpt lat="42.67873710952699184417724609375" lon="-0.004497729241847991943359375">
        <ele>2593.60009765625</ele>
        <time>2021-08-22T07:30:39.000Z</time>
      </trkpt>
      <trkpt lat="42.678716070950031280517578125" lon="-0.00442371703684329986572265625">
        <ele>2593.800048828125</ele>
        <time>2021-08-22T07:30:45.000Z</time>
      </trkpt>
      <trkpt lat="42.678693272173404693603515625" lon="-0.00429622828960418701171875">
        <ele>2594.39990234375</ele>
        <time>2021-08-22T07:31:03.000Z</time>
      </trkpt>
      <trkpt lat="42.6786931045353412628173828125" lon="-0.00425624661147594451904296875">
        <ele>2594.800048828125</ele>
        <time>2021-08-22T07:31:07.000Z</time>
      </trkpt>
      <trkpt lat="42.6786763407289981842041015625" lon="-0.00419237650930881500244140625">
        <ele>2595.199951171875</ele>
        <time>2021-08-22T07:31:14.000Z</time>
      </trkpt>
      <trkpt lat="42.67865932546555995941162109375" lon="-0.004106126725673675537109375">
        <ele>2595.800048828125</ele>
        <time>2021-08-22T07:31:25.000Z</time>
      </trkpt>
      <trkpt lat="42.678655721247196197509765625" lon="-0.0040935538709163665771484375">
        <ele>2595.800048828125</ele>
        <time>2021-08-22T07:31:26.000Z</time>
      </trkpt>
      <trkpt lat="42.6786384545266628265380859375" lon="-0.00400143675506114959716796875">
        <ele>2596</ele>
        <time>2021-08-22T07:31:33.000Z</time>
      </trkpt>
      <trkpt lat="42.6785482652485370635986328125" lon="-0.00370346009731292724609375">
        <ele>2592.39990234375</ele>
        <time>2021-08-22T07:31:59.000Z</time>
      </trkpt>
      <trkpt lat="42.678443826735019683837890625" lon="-0.0034699402749538421630859375">
        <ele>2589.39990234375</ele>
        <time>2021-08-22T07:32:25.000Z</time>
      </trkpt>
      <trkpt lat="42.678362019360065460205078125" lon="-0.00325645320117473602294921875">
        <ele>2588.199951171875</ele>
        <time>2021-08-22T07:32:43.000Z</time>
      </trkpt>
      <trkpt lat="42.67814668826758861541748046875" lon="-0.00294950790703296661376953125">
        <ele>2583</ele>
        <time>2021-08-22T07:33:31.000Z</time>
      </trkpt>
      <trkpt lat="42.67814216203987598419189453125" lon="-0.0028364360332489013671875">
        <ele>2584</ele>
        <time>2021-08-22T07:33:40.000Z</time>
      </trkpt>
      <trkpt lat="42.6780872605741024017333984375" lon="-0.00254784710705280303955078125">
        <ele>2585.39990234375</ele>
        <time>2021-08-22T07:34:19.000Z</time>
      </trkpt>
      <trkpt lat="42.67803034745156764984130859375" lon="-0.00250493176281452178955078125">
        <ele>2583.800048828125</ele>
        <time>2021-08-22T07:34:36.000Z</time>
      </trkpt>
      <trkpt lat="42.6780331134796142578125" lon="-0.00250442884862422943115234375">
        <ele>2583.800048828125</ele>
        <time>2021-08-22T07:34:41.000Z</time>
      </trkpt>
      <trkpt lat="42.6780091412365436553955078125" lon="-0.00246704556047916412353515625">
        <ele>2583.39990234375</ele>
        <time>2021-08-22T07:34:50.000Z</time>
      </trkpt>
      <trkpt lat="42.6779960654675960540771484375" lon="-0.00246738083660602569580078125">
        <ele>2583</ele>
        <time>2021-08-22T07:35:00.000Z</time>
      </trkpt>
      <trkpt lat="42.67799220979213714599609375" lon="-0.00245413742959499359130859375">
        <ele>2583</ele>
        <time>2021-08-22T07:35:07.000Z</time>
      </trkpt>
      <trkpt lat="42.67796966247260570526123046875" lon="-0.00240099616348743438720703125">
        <ele>2583</ele>
        <time>2021-08-22T07:35:11.000Z</time>
      </trkpt>
      <trkpt lat="42.67789824865758419036865234375" lon="-0.00231533311307430267333984375">
        <ele>2582</ele>
        <time>2021-08-22T07:35:21.000Z</time>
      </trkpt>
      <trkpt lat="42.6778941415250301361083984375" lon="-0.00231583602726459503173828125">
        <ele>2581.800048828125</ele>
        <time>2021-08-22T07:35:23.000Z</time>
      </trkpt>
      <trkpt lat="42.67789489589631557464599609375" lon="-0.00231541693210601806640625">
        <ele>2581.800048828125</ele>
        <time>2021-08-22T07:35:26.000Z</time>
      </trkpt>
      <trkpt lat="42.677891962230205535888671875" lon="-0.00231097452342510223388671875">
        <ele>2581.800048828125</ele>
        <time>2021-08-22T07:35:27.000Z</time>
      </trkpt>
      <trkpt lat="42.6778762042522430419921875" lon="-0.00228188931941986083984375">
        <ele>2582</ele>
        <time>2021-08-22T07:35:32.000Z</time>
      </trkpt>
      <trkpt lat="42.67787561751902103424072265625" lon="-0.00227526761591434478759765625">
        <ele>2582.199951171875</ele>
        <time>2021-08-22T07:35:36.000Z</time>
      </trkpt>
      <trkpt lat="42.67787796445190906524658203125" lon="-0.002274177968502044677734375">
        <ele>2582.39990234375</ele>
        <time>2021-08-22T07:35:37.000Z</time>
      </trkpt>
      <trkpt lat="42.67786991782486438751220703125" lon="-0.00228884629905223846435546875">
        <ele>2581.800048828125</ele>
        <time>2021-08-22T07:35:42.000Z</time>
      </trkpt>
      <trkpt lat="42.67786991782486438751220703125" lon="-0.002287589013576507568359375">
        <ele>2581.800048828125</ele>
        <time>2021-08-22T07:35:48.000Z</time>
      </trkpt>
      <trkpt lat="42.6777975820004940032958984375" lon="-0.0022408179938793182373046875">
        <ele>2580.60009765625</ele>
        <time>2021-08-22T07:36:22.000Z</time>
      </trkpt>
      <trkpt lat="42.67778308130800724029541015625" lon="-0.00219765119254589080810546875">
        <ele>2581</ele>
        <time>2021-08-22T07:36:26.000Z</time>
      </trkpt>
      <trkpt lat="42.6777053810656070709228515625" lon="-0.002109222114086151123046875">
        <ele>2580</ele>
        <time>2021-08-22T07:36:35.000Z</time>
      </trkpt>
      <trkpt lat="42.67762449570000171661376953125" lon="-0.0021020136773586273193359375">
        <ele>2576.800048828125</ele>
        <time>2021-08-22T07:36:43.000Z</time>
      </trkpt>
      <trkpt lat="42.67754905857145786285400390625" lon="-0.0021016784012317657470703125">
        <ele>2573.39990234375</ele>
        <time>2021-08-22T07:36:52.000Z</time>
      </trkpt>
      <trkpt lat="42.67754319123923778533935546875" lon="-0.0021000020205974578857421875">
        <ele>2573.199951171875</ele>
        <time>2021-08-22T07:36:53.000Z</time>
      </trkpt>
      <trkpt lat="42.67752357758581638336181640625" lon="-0.0021003372967243194580078125">
        <ele>2572.199951171875</ele>
        <time>2021-08-22T07:36:56.000Z</time>
      </trkpt>
      <trkpt lat="42.6775186322629451751708984375" lon="-0.00210084021091461181640625">
        <ele>2572</ele>
        <time>2021-08-22T07:36:57.000Z</time>
      </trkpt>
      <trkpt lat="42.67750580795109272003173828125" lon="-0.0020989961922168731689453125">
        <ele>2571.199951171875</ele>
        <time>2021-08-22T07:36:59.000Z</time>
      </trkpt>
      <trkpt lat="42.67748736776411533355712890625" lon="-0.00211902894079685211181640625">
        <ele>2569.800048828125</ele>
        <time>2021-08-22T07:37:38.000Z</time>
      </trkpt>
      <trkpt lat="42.67748736776411533355712890625" lon="-0.00211894512176513671875">
        <ele>2569.800048828125</ele>
        <time>2021-08-22T07:37:42.000Z</time>
      </trkpt>
      <trkpt lat="42.6774846017360687255859375" lon="-0.00213428400456905364990234375">
        <ele>2569.39990234375</ele>
        <time>2021-08-22T07:37:59.000Z</time>
      </trkpt>
      <trkpt lat="42.67749072052538394927978515625" lon="-0.0021083839237689971923828125">
        <ele>2570.199951171875</ele>
        <time>2021-08-22T07:38:04.000Z</time>
      </trkpt>
      <trkpt lat="42.67748468555510044097900390625" lon="-0.00210846774280071258544921875">
        <ele>2569.800048828125</ele>
        <time>2021-08-22T07:38:09.000Z</time>
      </trkpt>
      <trkpt lat="42.6774696819484233856201171875" lon="-0.00211047939956188201904296875">
        <ele>2569</ele>
        <time>2021-08-22T07:38:16.000Z</time>
      </trkpt>
      <trkpt lat="42.677467167377471923828125" lon="-0.002032779157161712646484375">
        <ele>2570</ele>
        <time>2021-08-22T07:38:35.000Z</time>
      </trkpt>
      <trkpt lat="42.6774465478956699371337890625" lon="-0.00193110667169094085693359375">
        <ele>2570.199951171875</ele>
        <time>2021-08-22T07:38:41.000Z</time>
      </trkpt>
      <trkpt lat="42.67743020318448543548583984375" lon="-0.00177587382495403289794921875">
        <ele>2570.199951171875</ele>
        <time>2021-08-22T07:38:52.000Z</time>
      </trkpt>
      <trkpt lat="42.67741494812071323394775390625" lon="-0.0015816651284694671630859375">
        <ele>2570.199951171875</ele>
        <time>2021-08-22T07:39:07.000Z</time>
      </trkpt>
      <trkpt lat="42.67741746269166469573974609375" lon="-0.00154989771544933319091796875">
        <ele>2570.60009765625</ele>
        <time>2021-08-22T07:39:09.000Z</time>
      </trkpt>
      <trkpt lat="42.6774187199771404266357421875" lon="-0.0015377439558506011962890625">
        <ele>2570.800048828125</ele>
        <time>2021-08-22T07:39:10.000Z</time>
      </trkpt>
      <trkpt lat="42.67742048017680644989013671875" lon="-0.0015229918062686920166015625">
        <ele>2571</ele>
        <time>2021-08-22T07:39:11.000Z</time>
      </trkpt>
      <trkpt lat="42.67737530171871185302734375" lon="-0.0012906454503536224365234375">
        <ele>2571.199951171875</ele>
        <time>2021-08-22T07:39:28.000Z</time>
      </trkpt>
      <trkpt lat="42.67737329006195068359375" lon="-0.00124664045870304107666015625">
        <ele>2571.800048828125</ele>
        <time>2021-08-22T07:39:31.000Z</time>
      </trkpt>
      <trkpt lat="42.6773585379123687744140625" lon="-0.00115460716187953948974609375">
        <ele>2572</ele>
        <time>2021-08-22T07:39:38.000Z</time>
      </trkpt>
      <trkpt lat="42.67735828645527362823486328125" lon="-0.0011287070810794830322265625">
        <ele>2571.800048828125</ele>
        <time>2021-08-22T07:39:41.000Z</time>
      </trkpt>
      <trkpt lat="42.6773566938936710357666015625" lon="-0.00109978951513767242431640625">
        <ele>2571.60009765625</ele>
        <time>2021-08-22T07:39:44.000Z</time>
      </trkpt>
      <trkpt lat="42.677328027784824371337890625" lon="-0.00095277093350887298583984375">
        <ele>2569.60009765625</ele>
        <time>2021-08-22T07:39:59.000Z</time>
      </trkpt>
      <trkpt lat="42.67732442356646060943603515625" lon="-0.0008730590343475341796875">
        <ele>2570.199951171875</ele>
        <time>2021-08-22T07:40:10.000Z</time>
      </trkpt>
      <trkpt lat="42.67730866558849811553955078125" lon="-0.000566951930522918701171875">
        <ele>2572</ele>
        <time>2021-08-22T07:40:31.000Z</time>
      </trkpt>
      <trkpt lat="42.6773077435791492462158203125" lon="-0.0005506910383701324462890625">
        <ele>2572.199951171875</ele>
        <time>2021-08-22T07:40:32.000Z</time>
      </trkpt>
      <trkpt lat="42.67730430699884891510009765625" lon="-0.00052646733820438385009765625">
        <ele>2572.199951171875</ele>
        <time>2021-08-22T07:40:34.000Z</time>
      </trkpt>
      <trkpt lat="42.677286453545093536376953125" lon="-0.00047810375690460205078125">
        <ele>2571.39990234375</ele>
        <time>2021-08-22T07:40:38.000Z</time>
      </trkpt>
      <trkpt lat="42.67722249962389469146728515625" lon="-0.00034801661968231201171875">
        <ele>2567.60009765625</ele>
        <time>2021-08-22T07:40:49.000Z</time>
      </trkpt>
      <trkpt lat="42.6771538518369197845458984375" lon="-0.000317506492137908935546875">
        <ele>2563</ele>
        <time>2021-08-22T07:41:00.000Z</time>
      </trkpt>
      <trkpt lat="42.67706626094877719879150390625" lon="-0.00027199275791645050048828125">
        <ele>2558.800048828125</ele>
        <time>2021-08-22T07:41:07.000Z</time>
      </trkpt>
      <trkpt lat="42.67702837474644184112548828125" lon="-0.00021851621568202972412109375">
        <ele>2557.60009765625</ele>
        <time>2021-08-22T07:41:12.000Z</time>
      </trkpt>
      <trkpt lat="42.6768980361521244049072265625" lon="-0.00002087093889713287353515625">
        <ele>2553.199951171875</ele>
        <time>2021-08-22T07:41:35.000Z</time>
      </trkpt>
      <trkpt lat="42.67685218714177608489990234375" lon="0.000040568411350250244140625">
        <ele>2551.800048828125</ele>
        <time>2021-08-22T07:41:46.000Z</time>
      </trkpt>
      <trkpt lat="42.67676015384495258331298828125" lon="0.0002248026430606842041015625">
        <ele>2551.199951171875</ele>
        <time>2021-08-22T07:42:03.000Z</time>
      </trkpt>
      <trkpt lat="42.67661489546298980712890625" lon="0.00044885091483592987060546875">
        <ele>2544.199951171875</ele>
        <time>2021-08-22T07:42:32.000Z</time>
      </trkpt>
      <trkpt lat="42.67646812833845615386962890625" lon="0.00088311731815338134765625">
        <ele>2536.800048828125</ele>
        <time>2021-08-22T07:43:13.000Z</time>
      </trkpt>
      <trkpt lat="42.6764487661421298980712890625" lon="0.00097967684268951416015625">
        <ele>2536.60009765625</ele>
        <time>2021-08-22T07:43:23.000Z</time>
      </trkpt>
      <trkpt lat="42.6764276437461376190185546875" lon="0.00105134211480617523193359375">
        <ele>2535.60009765625</ele>
        <time>2021-08-22T07:43:33.000Z</time>
      </trkpt>
      <trkpt lat="42.676324881613254547119140625" lon="0.00128402374684810638427734375">
        <ele>2529.800048828125</ele>
        <time>2021-08-22T07:43:51.000Z</time>
      </trkpt>
      <trkpt lat="42.6763290725648403167724609375" lon="0.001365579664707183837890625">
        <ele>2529.60009765625</ele>
        <time>2021-08-22T07:44:12.000Z</time>
      </trkpt>
      <trkpt lat="42.67632228322327136993408203125" lon="0.0013439543545246124267578125">
        <ele>2529.199951171875</ele>
        <time>2021-08-22T07:44:40.000Z</time>
      </trkpt>
      <trkpt lat="42.67632295377552509307861328125" lon="0.0013422779738903045654296875">
        <ele>2529.39990234375</ele>
        <time>2021-08-22T07:44:42.000Z</time>
      </trkpt>
      <trkpt lat="42.6763257198035717010498046875" lon="0.0013389252126216888427734375">
        <ele>2529.60009765625</ele>
        <time>2021-08-22T07:44:44.000Z</time>
      </trkpt>
      <trkpt lat="42.67632178030908107757568359375" lon="0.00133364461362361907958984375">
        <ele>2529.199951171875</ele>
        <time>2021-08-22T07:44:47.000Z</time>
      </trkpt>
      <trkpt lat="42.6763334311544895172119140625" lon="0.00135711394250392913818359375">
        <ele>2529.800048828125</ele>
        <time>2021-08-22T07:45:08.000Z</time>
      </trkpt>
      <trkpt lat="42.6763451658189296722412109375" lon="0.00134437344968318939208984375">
        <ele>2530.60009765625</ele>
        <time>2021-08-22T07:45:21.000Z</time>
      </trkpt>
      <trkpt lat="42.67628070898354053497314453125" lon="0.00142567791044712066650390625">
        <ele>2526.39990234375</ele>
        <time>2021-08-22T07:45:54.000Z</time>
      </trkpt>
      <trkpt lat="42.6761569082736968994140625" lon="0.00167529098689556121826171875">
        <ele>2517.199951171875</ele>
        <time>2021-08-22T07:46:12.000Z</time>
      </trkpt>
      <trkpt lat="42.67604970373213291168212890625" lon="0.00192590989172458648681640625">
        <ele>2507.60009765625</ele>
        <time>2021-08-22T07:46:34.000Z</time>
      </trkpt>
      <trkpt lat="42.67598482780158519744873046875" lon="0.0021135807037353515625">
        <ele>2502.800048828125</ele>
        <time>2021-08-22T07:46:58.000Z</time>
      </trkpt>
      <trkpt lat="42.67593638040125370025634765625" lon="0.0022817216813564300537109375">
        <ele>2502.800048828125</ele>
        <time>2021-08-22T07:47:15.000Z</time>
      </trkpt>
      <trkpt lat="42.6759310998022556304931640625" lon="0.0023440830409526824951171875">
        <ele>2503.60009765625</ele>
        <time>2021-08-22T07:47:23.000Z</time>
      </trkpt>
      <trkpt lat="42.67578952945768833160400390625" lon="0.002628900110721588134765625">
        <ele>2494</ele>
        <time>2021-08-22T07:47:58.000Z</time>
      </trkpt>
      <trkpt lat="42.67575524747371673583984375" lon="0.0025670416653156280517578125">
        <ele>2491.199951171875</ele>
        <time>2021-08-22T07:48:18.000Z</time>
      </trkpt>
      <trkpt lat="42.67571040429174900054931640625" lon="0.0024292431771755218505859375">
        <ele>2487.800048828125</ele>
        <time>2021-08-22T07:48:44.000Z</time>
      </trkpt>
      <trkpt lat="42.67571174539625644683837890625" lon="0.002369396388530731201171875">
        <ele>2488</ele>
        <time>2021-08-22T07:49:07.000Z</time>
      </trkpt>
      <trkpt lat="42.675709314644336700439453125" lon="0.002357997000217437744140625">
        <ele>2488</ele>
        <time>2021-08-22T07:49:08.000Z</time>
      </trkpt>
      <trkpt lat="42.6756910420954227447509765625" lon="0.00231768004596233367919921875">
        <ele>2486.60009765625</ele>
        <time>2021-08-22T07:49:13.000Z</time>
      </trkpt>
      <trkpt lat="42.67567134462296962738037109375" lon="0.00229001976549625396728515625">
        <ele>2485</ele>
        <time>2021-08-22T07:49:18.000Z</time>
      </trkpt>
      <trkpt lat="42.6756669022142887115478515625" lon="0.00225950963795185089111328125">
        <ele>2484.800048828125</ele>
        <time>2021-08-22T07:49:25.000Z</time>
      </trkpt>
      <trkpt lat="42.6756612025201320648193359375" lon="0.0022597610950469970703125">
        <ele>2484.199951171875</ele>
        <time>2021-08-22T07:49:32.000Z</time>
      </trkpt>
      <trkpt lat="42.67566044814884662628173828125" lon="0.0022471882402896881103515625">
        <ele>2484.199951171875</ele>
        <time>2021-08-22T07:49:34.000Z</time>
      </trkpt>
      <trkpt lat="42.6756561733782291412353515625" lon="0.00223084352910518646240234375">
        <ele>2484</ele>
        <time>2021-08-22T07:49:36.000Z</time>
      </trkpt>
      <trkpt lat="42.6755388267338275909423828125" lon="0.002197064459323883056640625">
        <ele>2475.199951171875</ele>
        <time>2021-08-22T07:50:08.000Z</time>
      </trkpt>
      <trkpt lat="42.6755291037261486053466796875" lon="0.00222824513912200927734375">
        <ele>2474.60009765625</ele>
        <time>2021-08-22T07:50:10.000Z</time>
      </trkpt>
      <trkpt lat="42.67547403462231159210205078125" lon="0.00234852544963359832763671875">
        <ele>2471.39990234375</ele>
        <time>2021-08-22T07:50:23.000Z</time>
      </trkpt>
      <trkpt lat="42.67546967603266239166259765625" lon="0.00244156457483768463134765625">
        <ele>2471.800048828125</ele>
        <time>2021-08-22T07:50:29.000Z</time>
      </trkpt>
      <trkpt lat="42.67540295608341693878173828125" lon="0.0026996433734893798828125">
        <ele>2469</ele>
        <time>2021-08-22T07:50:50.000Z</time>
      </trkpt>
      <trkpt lat="42.6753453724086284637451171875" lon="0.00285328365862369537353515625">
        <ele>2465.199951171875</ele>
        <time>2021-08-22T07:51:03.000Z</time>
      </trkpt>
      <trkpt lat="42.67533053644001483917236328125" lon="0.00288228504359722137451171875">
        <ele>2464.199951171875</ele>
        <time>2021-08-22T07:51:19.000Z</time>
      </trkpt>
      <trkpt lat="42.67529566772282123565673828125" lon="0.00294850207865238189697265625">
        <ele>2462.39990234375</ele>
        <time>2021-08-22T07:51:27.000Z</time>
      </trkpt>
      <trkpt lat="42.67505460418760776519775390625" lon="0.00340246595442295074462890625">
        <ele>2451.800048828125</ele>
        <time>2021-08-22T07:52:25.000Z</time>
      </trkpt>
      <trkpt lat="42.6750446297228336334228515625" lon="0.00339995138347148895263671875">
        <ele>2451.199951171875</ele>
        <time>2021-08-22T07:52:26.000Z</time>
      </trkpt>
      <trkpt lat="42.674708180129528045654296875" lon="0.00378929078578948974609375">
        <ele>2436</ele>
        <time>2021-08-22T07:53:08.000Z</time>
      </trkpt>
      <trkpt lat="42.67454531975090503692626953125" lon="0.003928430378437042236328125">
        <ele>2425.60009765625</ele>
        <time>2021-08-22T07:53:26.000Z</time>
      </trkpt>
      <trkpt lat="42.6743070222437381744384765625" lon="0.00389029271900653839111328125">
        <ele>2415.800048828125</ele>
        <time>2021-08-22T07:53:59.000Z</time>
      </trkpt>
      <trkpt lat="42.67400200478732585906982421875" lon="0.00380965881049633026123046875">
        <ele>2409</ele>
        <time>2021-08-22T07:54:23.000Z</time>
      </trkpt>
      <trkpt lat="42.67397853545844554901123046875" lon="0.0038119219243526458740234375">
        <ele>2408.60009765625</ele>
        <time>2021-08-22T07:54:26.000Z</time>
      </trkpt>
      <trkpt lat="42.67390578053891658782958984375" lon="0.00383849255740642547607421875">
        <ele>2407.800048828125</ele>
        <time>2021-08-22T07:54:38.000Z</time>
      </trkpt>
      <trkpt lat="42.67373193986713886260986328125" lon="0.00391267240047454833984375">
        <ele>2405</ele>
        <time>2021-08-22T07:55:00.000Z</time>
      </trkpt>
      <trkpt lat="42.67372741363942623138427734375" lon="0.0039389915764331817626953125">
        <ele>2404.800048828125</ele>
        <time>2021-08-22T07:55:02.000Z</time>
      </trkpt>
      <trkpt lat="42.67368650995194911956787109375" lon="0.0039752013981342315673828125">
        <ele>2403.800048828125</ele>
        <time>2021-08-22T07:55:15.000Z</time>
      </trkpt>
      <trkpt lat="42.67366312444210052490234375" lon="0.00399523414671421051025390625">
        <ele>2403.199951171875</ele>
        <time>2021-08-22T07:55:17.000Z</time>
      </trkpt>
      <trkpt lat="42.67343086190521717071533203125" lon="0.0043668039143085479736328125">
        <ele>2397.60009765625</ele>
        <time>2021-08-22T07:56:09.000Z</time>
      </trkpt>
      <trkpt lat="42.67341158352792263031005859375" lon="0.00436102040112018585205078125">
        <ele>2397.39990234375</ele>
        <time>2021-08-22T07:56:33.000Z</time>
      </trkpt>
      <trkpt lat="42.67342013306915760040283203125" lon="0.0043775327503681182861328125">
        <ele>2397.39990234375</ele>
        <time>2021-08-22T07:56:42.000Z</time>
      </trkpt>
      <trkpt lat="42.67341778613626956939697265625" lon="0.00442790798842906951904296875">
        <ele>2397.39990234375</ele>
        <time>2021-08-22T07:56:48.000Z</time>
      </trkpt>
      <trkpt lat="42.67341460101306438446044921875" lon="0.00446512363851070404052734375">
        <ele>2397.39990234375</ele>
        <time>2021-08-22T07:56:50.000Z</time>
      </trkpt>
      <trkpt lat="42.67338593490421772003173828125" lon="0.0045280717313289642333984375">
        <ele>2397</ele>
        <time>2021-08-22T07:56:55.000Z</time>
      </trkpt>
      <trkpt lat="42.67336397431790828704833984375" lon="0.00462018884718418121337890625">
        <ele>2396.800048828125</ele>
        <time>2021-08-22T07:57:02.000Z</time>
      </trkpt>
      <trkpt lat="42.6733588613569736480712890625" lon="0.00464701093733310699462890625">
        <ele>2396.60009765625</ele>
        <time>2021-08-22T07:57:04.000Z</time>
      </trkpt>
      <trkpt lat="42.6733581908047199249267578125" lon="0.00466100871562957763671875">
        <ele>2396.60009765625</ele>
        <time>2021-08-22T07:57:05.000Z</time>
      </trkpt>
      <trkpt lat="42.67335056327283382415771484375" lon="0.00468540005385875701904296875">
        <ele>2396.60009765625</ele>
        <time>2021-08-22T07:57:07.000Z</time>
      </trkpt>
      <trkpt lat="42.67332960851490497589111328125" lon="0.0047862343490123748779296875">
        <ele>2396</ele>
        <time>2021-08-22T07:57:14.000Z</time>
      </trkpt>
      <trkpt lat="42.67332508228719234466552734375" lon="0.00480459071695804595947265625">
        <ele>2396</ele>
        <time>2021-08-22T07:57:15.000Z</time>
      </trkpt>
      <trkpt lat="42.6733192987740039825439453125" lon="0.0048214383423328399658203125">
        <ele>2396</ele>
        <time>2021-08-22T07:57:16.000Z</time>
      </trkpt>
      <trkpt lat="42.67330731265246868133544921875" lon="0.00485421158373355865478515625">
        <ele>2396</ele>
        <time>2021-08-22T07:57:18.000Z</time>
      </trkpt>
      <trkpt lat="42.67329809255897998809814453125" lon="0.00486728735268115997314453125">
        <ele>2396</ele>
        <time>2021-08-22T07:57:19.000Z</time>
      </trkpt>
      <trkpt lat="42.6732777245342731475830078125" lon="0.00492428429424762725830078125">
        <ele>2395.800048828125</ele>
        <time>2021-08-22T07:57:24.000Z</time>
      </trkpt>
      <trkpt lat="42.67327529378235340118408203125" lon="0.004941634833812713623046875">
        <ele>2395.800048828125</ele>
        <time>2021-08-22T07:57:26.000Z</time>
      </trkpt>
      <trkpt lat="42.6732351444661617279052734375" lon="0.00505822710692882537841796875">
        <ele>2395.60009765625</ele>
        <time>2021-08-22T07:57:36.000Z</time>
      </trkpt>
      <trkpt lat="42.67320639453828334808349609375" lon="0.0050863064825534820556640625">
        <ele>2395.60009765625</ele>
        <time>2021-08-22T07:57:39.000Z</time>
      </trkpt>
      <trkpt lat="42.67320019192993640899658203125" lon="0.00509829260408878326416015625">
        <ele>2395.60009765625</ele>
        <time>2021-08-22T07:57:40.000Z</time>
      </trkpt>
      <trkpt lat="42.67307463102042675018310546875" lon="0.005450583994388580322265625">
        <ele>2393.199951171875</ele>
        <time>2021-08-22T07:58:04.000Z</time>
      </trkpt>
      <trkpt lat="42.67287329770624637603759765625" lon="0.0059566833078861236572265625">
        <ele>2391.199951171875</ele>
        <time>2021-08-22T07:58:40.000Z</time>
      </trkpt>
      <trkpt lat="42.67270213924348354339599609375" lon="0.0063501298427581787109375">
        <ele>2394.800048828125</ele>
        <time>2021-08-22T07:59:13.000Z</time>
      </trkpt>
      <trkpt lat="42.672649919986724853515625" lon="0.00647376291453838348388671875">
        <ele>2395.39990234375</ele>
        <time>2021-08-22T07:59:23.000Z</time>
      </trkpt>
      <trkpt lat="42.6725679449737071990966796875" lon="0.00678305514156818389892578125">
        <ele>2401</ele>
        <time>2021-08-22T07:59:51.000Z</time>
      </trkpt>
      <trkpt lat="42.672215737402439117431640625" lon="0.007157810032367706298828125">
        <ele>2412.39990234375</ele>
        <time>2021-08-22T08:00:32.000Z</time>
      </trkpt>
      <trkpt lat="42.67209109850227832794189453125" lon="0.0074067525565624237060546875">
        <ele>2410.39990234375</ele>
        <time>2021-08-22T08:00:54.000Z</time>
      </trkpt>
      <trkpt lat="42.6718581654131412506103515625" lon="0.007616467773914337158203125">
        <ele>2410.39990234375</ele>
        <time>2021-08-22T08:01:24.000Z</time>
      </trkpt>
      <trkpt lat="42.67148575745522975921630859375" lon="0.00796641223132610321044921875">
        <ele>2422.800048828125</ele>
        <time>2021-08-22T08:02:09.000Z</time>
      </trkpt>
      <trkpt lat="42.67139489762485027313232421875" lon="0.0080062262713909149169921875">
        <ele>2422</ele>
        <time>2021-08-22T08:02:23.000Z</time>
      </trkpt>
      <trkpt lat="42.67132180742919445037841796875" lon="0.0080806575715541839599609375">
        <ele>2420.800048828125</ele>
        <time>2021-08-22T08:02:34.000Z</time>
      </trkpt>
      <trkpt lat="42.67127931118011474609375" lon="0.00812734477221965789794921875">
        <ele>2420.800048828125</ele>
        <time>2021-08-22T08:02:40.000Z</time>
      </trkpt>
      <trkpt lat="42.67103648744523525238037109375" lon="0.0083577632904052734375">
        <ele>2419.199951171875</ele>
        <time>2021-08-22T08:03:11.000Z</time>
      </trkpt>
      <trkpt lat="42.67100681550800800323486328125" lon="0.008366145193576812744140625">
        <ele>2419</ele>
        <time>2021-08-22T08:03:24.000Z</time>
      </trkpt>
      <trkpt lat="42.67099969089031219482421875" lon="0.00842641107738018035888671875">
        <ele>2420.39990234375</ele>
        <time>2021-08-22T08:03:59.000Z</time>
      </trkpt>
      <trkpt lat="42.671006731688976287841796875" lon="0.00841484405100345611572265625">
        <ele>2420.39990234375</ele>
        <time>2021-08-22T08:04:07.000Z</time>
      </trkpt>
      <trkpt lat="42.67099726013839244842529296875" lon="0.008396990597248077392578125">
        <ele>2419.800048828125</ele>
        <time>2021-08-22T08:04:16.000Z</time>
      </trkpt>
      <trkpt lat="42.67099172808229923248291015625" lon="0.008386261761188507080078125">
        <ele>2419.39990234375</ele>
        <time>2021-08-22T08:04:20.000Z</time>
      </trkpt>
      <trkpt lat="42.6709713600575923919677734375" lon="0.0084518082439899444580078125">
        <ele>2420.800048828125</ele>
        <time>2021-08-22T08:04:27.000Z</time>
      </trkpt>
      <trkpt lat="42.6708620600402355194091796875" lon="0.0086596794426441192626953125">
        <ele>2424.39990234375</ele>
        <time>2021-08-22T08:04:42.000Z</time>
      </trkpt>
      <trkpt lat="42.67081637866795063018798828125" lon="0.0087572447955608367919921875">
        <ele>2426.199951171875</ele>
        <time>2021-08-22T08:04:49.000Z</time>
      </trkpt>
      <trkpt lat="42.670737169682979583740234375" lon="0.00885606743395328521728515625">
        <ele>2427.60009765625</ele>
        <time>2021-08-22T08:05:01.000Z</time>
      </trkpt>
      <trkpt lat="42.67071110196411609649658203125" lon="0.00888506881892681121826171875">
        <ele>2427.800048828125</ele>
        <time>2021-08-22T08:05:04.000Z</time>
      </trkpt>
      <trkpt lat="42.670632898807525634765625" lon="0.008966624736785888671875">
        <ele>2428.800048828125</ele>
        <time>2021-08-22T08:05:17.000Z</time>
      </trkpt>
      <trkpt lat="42.67053592018783092498779296875" lon="0.00912822782993316650390625">
        <ele>2429.199951171875</ele>
        <time>2021-08-22T08:05:37.000Z</time>
      </trkpt>
      <trkpt lat="42.67046366818249225616455078125" lon="0.0092152319848537445068359375">
        <ele>2428</ele>
        <time>2021-08-22T08:05:58.000Z</time>
      </trkpt>
      <trkpt lat="42.67045059241354465484619140625" lon="0.0092682056128978729248046875">
        <ele>2428.60009765625</ele>
        <time>2021-08-22T08:06:02.000Z</time>
      </trkpt>
      <trkpt lat="42.670434080064296722412109375" lon="0.00946727581322193145751953125">
        <ele>2431.60009765625</ele>
        <time>2021-08-22T08:06:16.000Z</time>
      </trkpt>
      <trkpt lat="42.6702612452208995819091796875" lon="0.0099518336355686187744140625">
        <ele>2431.199951171875</ele>
        <time>2021-08-22T08:06:48.000Z</time>
      </trkpt>
      <trkpt lat="42.6700200140476226806640625" lon="0.0104694999754428863525390625">
        <ele>2425.199951171875</ele>
        <time>2021-08-22T08:07:26.000Z</time>
      </trkpt>
      <trkpt lat="42.669834606349468231201171875" lon="0.01087124459445476531982421875">
        <ele>2428.199951171875</ele>
        <time>2021-08-22T08:08:07.000Z</time>
      </trkpt>
      <trkpt lat="42.6698096282780170440673828125" lon="0.0108611024916172027587890625">
        <ele>2427.39990234375</ele>
        <time>2021-08-22T08:08:09.000Z</time>
      </trkpt>
      <trkpt lat="42.66961927525699138641357421875" lon="0.01106520183384418487548828125">
        <ele>2426.60009765625</ele>
        <time>2021-08-22T08:08:31.000Z</time>
      </trkpt>
      <trkpt lat="42.6694659702479839324951171875" lon="0.01140450127422809600830078125">
        <ele>2427.60009765625</ele>
        <time>2021-08-22T08:09:00.000Z</time>
      </trkpt>
      <trkpt lat="42.66945465467870235443115234375" lon="0.01143383793532848358154296875">
        <ele>2427.39990234375</ele>
        <time>2021-08-22T08:09:02.000Z</time>
      </trkpt>
      <trkpt lat="42.66945071518421173095703125" lon="0.0114471651613712310791015625">
        <ele>2427.199951171875</ele>
        <time>2021-08-22T08:09:03.000Z</time>
      </trkpt>
      <trkpt lat="42.6694458536803722381591796875" lon="0.01147742383182048797607421875">
        <ele>2427.39990234375</ele>
        <time>2021-08-22T08:09:05.000Z</time>
      </trkpt>
      <trkpt lat="42.6694435067474842071533203125" lon="0.0114934332668781280517578125">
        <ele>2427.39990234375</ele>
        <time>2021-08-22T08:09:06.000Z</time>
      </trkpt>
      <trkpt lat="42.6694414950907230377197265625" lon="0.0115085206925868988037109375">
        <ele>2427.60009765625</ele>
        <time>2021-08-22T08:09:07.000Z</time>
      </trkpt>
      <trkpt lat="42.66944090835750102996826171875" lon="0.01153944991528987884521484375">
        <ele>2427.800048828125</ele>
        <time>2021-08-22T08:09:09.000Z</time>
      </trkpt>
      <trkpt lat="42.66943998634815216064453125" lon="0.0115547887980937957763671875">
        <ele>2428</ele>
        <time>2021-08-22T08:09:10.000Z</time>
      </trkpt>
      <trkpt lat="42.66943990252912044525146484375" lon="0.0115938484668731689453125">
        <ele>2428.800048828125</ele>
        <time>2021-08-22T08:09:13.000Z</time>
      </trkpt>
      <trkpt lat="42.6694374717772006988525390625" lon="0.0116137973964214324951171875">
        <ele>2429</ele>
        <time>2021-08-22T08:09:15.000Z</time>
      </trkpt>
      <trkpt lat="42.66943193972110748291015625" lon="0.011635087430477142333984375">
        <ele>2429</ele>
        <time>2021-08-22T08:09:17.000Z</time>
      </trkpt>
      <trkpt lat="42.6694250665605068206787109375" lon="0.0116609036922454833984375">
        <ele>2429</ele>
        <time>2021-08-22T08:09:19.000Z</time>
      </trkpt>
      <trkpt lat="42.66941324807703495025634765625" lon="0.0116828642785549163818359375">
        <ele>2428.60009765625</ele>
        <time>2021-08-22T08:09:21.000Z</time>
      </trkpt>
      <trkpt lat="42.6694069616496562957763671875" lon="0.01170826144516468048095703125">
        <ele>2428.800048828125</ele>
        <time>2021-08-22T08:09:23.000Z</time>
      </trkpt>
      <trkpt lat="42.66938634216785430908203125" lon="0.0117589719593524932861328125">
        <ele>2428.199951171875</ele>
        <time>2021-08-22T08:09:28.000Z</time>
      </trkpt>
      <trkpt lat="42.6693707518279552459716796875" lon="0.011863410472869873046875">
        <ele>2429.60009765625</ele>
        <time>2021-08-22T08:09:39.000Z</time>
      </trkpt>
      <trkpt lat="42.66938039101660251617431640625" lon="0.0118904002010822296142578125">
        <ele>2430.800048828125</ele>
        <time>2021-08-22T08:09:44.000Z</time>
      </trkpt>
      <trkpt lat="42.66937754116952419281005859375" lon="0.0119398534297943115234375">
        <ele>2432</ele>
        <time>2021-08-22T08:09:50.000Z</time>
      </trkpt>
      <trkpt lat="42.6693616993725299835205078125" lon="0.0119846127927303314208984375">
        <ele>2432</ele>
        <time>2021-08-22T08:09:54.000Z</time>
      </trkpt>
      <trkpt lat="42.6692071370780467987060546875" lon="0.01220463775098323822021484375">
        <ele>2427.60009765625</ele>
        <time>2021-08-22T08:10:13.000Z</time>
      </trkpt>
      <trkpt lat="42.66910932026803493499755859375" lon="0.01235115341842174530029296875">
        <ele>2425.60009765625</ele>
        <time>2021-08-22T08:10:26.000Z</time>
      </trkpt>
      <trkpt lat="42.66908450983464717864990234375" lon="0.012496411800384521484375">
        <ele>2428.800048828125</ele>
        <time>2021-08-22T08:10:34.000Z</time>
      </trkpt>
      <trkpt lat="42.66902449540793895721435546875" lon="0.0126511417329311370849609375">
        <ele>2430.39990234375</ele>
        <time>2021-08-22T08:10:44.000Z</time>
      </trkpt>
      <trkpt lat="42.66899448819458484649658203125" lon="0.01272909343242645263671875">
        <ele>2431.199951171875</ele>
        <time>2021-08-22T08:10:49.000Z</time>
      </trkpt>
      <trkpt lat="42.66894268803298473358154296875" lon="0.01287267543375492095947265625">
        <ele>2432.800048828125</ele>
        <time>2021-08-22T08:10:59.000Z</time>
      </trkpt>
      <trkpt lat="42.66879868693649768829345703125" lon="0.01315556466579437255859375">
        <ele>2428.800048828125</ele>
        <time>2021-08-22T08:11:21.000Z</time>
      </trkpt>
      <trkpt lat="42.66868519596755504608154296875" lon="0.0131664611399173736572265625">
        <ele>2420</ele>
        <time>2021-08-22T08:11:38.000Z</time>
      </trkpt>
      <trkpt lat="42.66868972219526767730712890625" lon="0.01319303177297115325927734375">
        <ele>2420.39990234375</ele>
        <time>2021-08-22T08:11:42.000Z</time>
      </trkpt>
      <trkpt lat="42.66869106329977512359619140625" lon="0.01323108561336994171142578125">
        <ele>2421.39990234375</ele>
        <time>2021-08-22T08:11:44.000Z</time>
      </trkpt>
      <trkpt lat="42.66854412853717803955078125" lon="0.01361950300633907318115234375">
        <ele>2410.60009765625</ele>
        <time>2021-08-22T08:12:08.000Z</time>
      </trkpt>
      <trkpt lat="42.66834941692650318145751953125" lon="0.01402585767209529876708984375">
        <ele>2402.800048828125</ele>
        <time>2021-08-22T08:12:39.000Z</time>
      </trkpt>
      <trkpt lat="42.66827951185405254364013671875" lon="0.01430631615221500396728515625">
        <ele>2400.39990234375</ele>
        <time>2021-08-22T08:12:58.000Z</time>
      </trkpt>
      <trkpt lat="42.668277919292449951171875" lon="0.0143198110163211822509765625">
        <ele>2400.39990234375</ele>
        <time>2021-08-22T08:12:59.000Z</time>
      </trkpt>
      <trkpt lat="42.6682894863188266754150390625" lon="0.01457487232983112335205078125">
        <ele>2401.60009765625</ele>
        <time>2021-08-22T08:13:15.000Z</time>
      </trkpt>
      <trkpt lat="42.6682938449084758758544921875" lon="0.01514567993581295013427734375">
        <ele>2404.60009765625</ele>
        <time>2021-08-22T08:13:51.000Z</time>
      </trkpt>
      <trkpt lat="42.6682348363101482391357421875" lon="0.01544910483062267303466796875">
        <ele>2403.800048828125</ele>
        <time>2021-08-22T08:14:11.000Z</time>
      </trkpt>
      <trkpt lat="42.66817088238894939422607421875" lon="0.01552806235849857330322265625">
        <ele>2400.39990234375</ele>
        <time>2021-08-22T08:14:24.000Z</time>
      </trkpt>
      <trkpt lat="42.66814271919429302215576171875" lon="0.015543065965175628662109375">
        <ele>2398.800048828125</ele>
        <time>2021-08-22T08:14:30.000Z</time>
      </trkpt>
      <trkpt lat="42.66814305447041988372802734375" lon="0.01554499380290508270263671875">
        <ele>2398.800048828125</ele>
        <time>2021-08-22T08:14:31.000Z</time>
      </trkpt>
      <trkpt lat="42.66814179718494415283203125" lon="0.015545748174190521240234375">
        <ele>2398.800048828125</ele>
        <time>2021-08-22T08:14:32.000Z</time>
      </trkpt>
      <trkpt lat="42.66814221628010272979736328125" lon="0.015522949397563934326171875">
        <ele>2398.60009765625</ele>
        <time>2021-08-22T08:14:39.000Z</time>
      </trkpt>
      <trkpt lat="42.6681392826139926910400390625" lon="0.015563182532787322998046875">
        <ele>2398.800048828125</ele>
        <time>2021-08-22T08:14:51.000Z</time>
      </trkpt>
      <trkpt lat="42.66813232563436031341552734375" lon="0.0156092830002307891845703125">
        <ele>2398.800048828125</ele>
        <time>2021-08-22T08:14:54.000Z</time>
      </trkpt>
      <trkpt lat="42.66813266091048717498779296875" lon="0.015702657401561737060546875">
        <ele>2400</ele>
        <time>2021-08-22T08:15:01.000Z</time>
      </trkpt>
      <trkpt lat="42.668119333684444427490234375" lon="0.01576795242726802825927734375">
        <ele>2400</ele>
        <time>2021-08-22T08:15:06.000Z</time>
      </trkpt>
      <trkpt lat="42.6680873148143291473388671875" lon="0.01587356440722942352294921875">
        <ele>2399.800048828125</ele>
        <time>2021-08-22T08:15:13.000Z</time>
      </trkpt>
      <trkpt lat="42.667965777218341827392578125" lon="0.01646029762923717498779296875">
        <ele>2401.199951171875</ele>
        <time>2021-08-22T08:15:50.000Z</time>
      </trkpt>
      <trkpt lat="42.66793384216725826263427734375" lon="0.0166015326976776123046875">
        <ele>2399.800048828125</ele>
        <time>2021-08-22T08:16:00.000Z</time>
      </trkpt>
      <trkpt lat="42.66787215135991573333740234375" lon="0.01680278219282627105712890625">
        <ele>2396</ele>
        <time>2021-08-22T08:16:14.000Z</time>
      </trkpt>
      <trkpt lat="42.66775430180132389068603515625" lon="0.0171552412211894989013671875">
        <ele>2388.199951171875</ele>
        <time>2021-08-22T08:16:41.000Z</time>
      </trkpt>
      <trkpt lat="42.667715661227703094482421875" lon="0.017595626413822174072265625">
        <ele>2384</ele>
        <time>2021-08-22T08:17:12.000Z</time>
      </trkpt>
      <trkpt lat="42.66772278584539890289306640625" lon="0.01760928891599178314208984375">
        <ele>2384.199951171875</ele>
        <time>2021-08-22T08:17:13.000Z</time>
      </trkpt>
      <trkpt lat="42.667709290981292724609375" lon="0.01787365414202213287353515625">
        <ele>2383.60009765625</ele>
        <time>2021-08-22T08:17:36.000Z</time>
      </trkpt>
      <trkpt lat="42.66769546084105968475341796875" lon="0.01793048344552516937255859375">
        <ele>2383.39990234375</ele>
        <time>2021-08-22T08:18:06.000Z</time>
      </trkpt>
      <trkpt lat="42.6676407270133495330810546875" lon="0.01808621920645236968994140625">
        <ele>2382</ele>
        <time>2021-08-22T08:18:41.000Z</time>
      </trkpt>
      <trkpt lat="42.66759906895458698272705078125" lon="0.01836265437304973602294921875">
        <ele>2381.39990234375</ele>
        <time>2021-08-22T08:19:30.000Z</time>
      </trkpt>
      <trkpt lat="42.6676189340651035308837890625" lon="0.0183173082768917083740234375">
        <ele>2382</ele>
        <time>2021-08-22T08:19:57.000Z</time>
      </trkpt>
      <trkpt lat="42.6676115579903125762939453125" lon="0.0183320604264736175537109375">
        <ele>2381.800048828125</ele>
        <time>2021-08-22T08:20:06.000Z</time>
      </trkpt>
      <trkpt lat="42.66753419302403926849365234375" lon="0.01835058443248271942138671875">
        <ele>2378.800048828125</ele>
        <time>2021-08-22T08:20:18.000Z</time>
      </trkpt>
      <trkpt lat="42.66751726157963275909423828125" lon="0.018357373774051666259765625">
        <ele>2378.60009765625</ele>
        <time>2021-08-22T08:20:20.000Z</time>
      </trkpt>
      <trkpt lat="42.66750879585742950439453125" lon="0.0183570384979248046875">
        <ele>2378.39990234375</ele>
        <time>2021-08-22T08:20:22.000Z</time>
      </trkpt>
      <trkpt lat="42.66749412752687931060791015625" lon="0.01835946924984455108642578125">
        <ele>2378.199951171875</ele>
        <time>2021-08-22T08:20:36.000Z</time>
      </trkpt>
      <trkpt lat="42.66749278642237186431884765625" lon="0.0183595530688762664794921875">
        <ele>2378.199951171875</ele>
        <time>2021-08-22T08:20:37.000Z</time>
      </trkpt>
      <trkpt lat="42.6674960553646087646484375" lon="0.01835460774600505828857421875">
        <ele>2378.199951171875</ele>
        <time>2021-08-22T08:20:53.000Z</time>
      </trkpt>
      <trkpt lat="42.6674999110400676727294921875" lon="0.0183548592031002044677734375">
        <ele>2378.199951171875</ele>
        <time>2021-08-22T08:20:56.000Z</time>
      </trkpt>
      <trkpt lat="42.6675022579729557037353515625" lon="0.0183551944792270660400390625">
        <ele>2378.39990234375</ele>
        <time>2021-08-22T08:20:58.000Z</time>
      </trkpt>
      <trkpt lat="42.66750401817262172698974609375" lon="0.01835502684116363525390625">
        <ele>2378.39990234375</ele>
        <time>2021-08-22T08:20:59.000Z</time>
      </trkpt>
      <trkpt lat="42.66750602982938289642333984375" lon="0.01835368573665618896484375">
        <ele>2378.39990234375</ele>
        <time>2021-08-22T08:21:00.000Z</time>
      </trkpt>
      <trkpt lat="42.66751105897128582000732421875" lon="0.01835125498473644256591796875">
        <ele>2378.39990234375</ele>
        <time>2021-08-22T08:21:07.000Z</time>
      </trkpt>
      <trkpt lat="42.66750586219131946563720703125" lon="0.01835863105952739715576171875">
        <ele>2378.39990234375</ele>
        <time>2021-08-22T08:21:10.000Z</time>
      </trkpt>
      <trkpt lat="42.6674804650247097015380859375" lon="0.0183749757707118988037109375">
        <ele>2378</ele>
        <time>2021-08-22T08:21:30.000Z</time>
      </trkpt>
      <trkpt lat="42.6674871705472469329833984375" lon="0.01837371848523616790771484375">
        <ele>2378.199951171875</ele>
        <time>2021-08-22T08:21:38.000Z</time>
      </trkpt>
      <trkpt lat="42.6676678843796253204345703125" lon="0.0183454714715480804443359375">
        <ele>2384.199951171875</ele>
        <time>2021-08-22T09:17:14.000Z</time>
      </trkpt>
      <trkpt lat="42.66763511113822460174560546875" lon="0.01843876205384731292724609375">
        <ele>2383.60009765625</ele>
        <time>2021-08-22T09:17:16.000Z</time>
      </trkpt>
      <trkpt lat="42.6674784533679485321044921875" lon="0.018934719264507293701171875">
        <ele>2390</ele>
        <time>2021-08-22T09:18:43.000Z</time>
      </trkpt>
      <trkpt lat="42.66714745201170444488525390625" lon="0.01932741142809391021728515625">
        <ele>2401.199951171875</ele>
        <time>2021-08-22T09:20:07.000Z</time>
      </trkpt>
      <trkpt lat="42.66705525107681751251220703125" lon="0.01948482356965541839599609375">
        <ele>2411.39990234375</ele>
        <time>2021-08-22T09:20:33.000Z</time>
      </trkpt>
      <trkpt lat="42.667050473392009735107421875" lon="0.019490607082843780517578125">
        <ele>2411.60009765625</ele>
        <time>2021-08-22T09:20:34.000Z</time>
      </trkpt>
      <trkpt lat="42.66704619862139225006103515625" lon="0.01949739642441272735595703125">
        <ele>2412</ele>
        <time>2021-08-22T09:20:35.000Z</time>
      </trkpt>
      <trkpt lat="42.667003534734249114990234375" lon="0.01953796483576297760009765625">
        <ele>2413.199951171875</ele>
        <time>2021-08-22T09:20:50.000Z</time>
      </trkpt>
      <trkpt lat="42.6668809913098812103271484375" lon="0.01977819018065929412841796875">
        <ele>2420</ele>
        <time>2021-08-22T09:21:30.000Z</time>
      </trkpt>
      <trkpt lat="42.6664622314274311065673828125" lon="0.019896291196346282958984375">
        <ele>2415.39990234375</ele>
        <time>2021-08-22T09:22:56.000Z</time>
      </trkpt>
      <trkpt lat="42.66645108349621295928955078125" lon="0.0199008174240589141845703125">
        <ele>2415.39990234375</ele>
        <time>2021-08-22T09:22:57.000Z</time>
      </trkpt>
      <trkpt lat="42.6662461459636688232421875" lon="0.0200057588517665863037109375">
        <ele>2415</ele>
        <time>2021-08-22T09:23:24.000Z</time>
      </trkpt>
      <trkpt lat="42.66612955369055271148681640625" lon="0.020152442157268524169921875">
        <ele>2418.199951171875</ele>
        <time>2021-08-22T09:24:26.000Z</time>
      </trkpt>
      <trkpt lat="42.66606710851192474365234375" lon="0.02020332030951976776123046875">
        <ele>2419.199951171875</ele>
        <time>2021-08-22T09:24:34.000Z</time>
      </trkpt>
      <trkpt lat="42.66604908742010593414306640625" lon="0.020212791860103607177734375">
        <ele>2419.39990234375</ele>
        <time>2021-08-22T09:24:36.000Z</time>
      </trkpt>
      <trkpt lat="42.6659376919269561767578125" lon="0.02034212462604045867919921875">
        <ele>2424.800048828125</ele>
        <time>2021-08-22T09:24:52.000Z</time>
      </trkpt>
      <trkpt lat="42.6658925972878932952880859375" lon="0.02038252539932727813720703125">
        <ele>2427.199951171875</ele>
        <time>2021-08-22T09:24:59.000Z</time>
      </trkpt>
      <trkpt lat="42.66587072052061557769775390625" lon="0.02041253261268138885498046875">
        <ele>2428.39990234375</ele>
        <time>2021-08-22T09:25:03.000Z</time>
      </trkpt>
      <trkpt lat="42.66582579351961612701416015625" lon="0.0204687751829624176025390625">
        <ele>2428.39990234375</ele>
        <time>2021-08-22T09:25:09.000Z</time>
      </trkpt>
      <trkpt lat="42.6654738374054431915283203125" lon="0.02084604464471340179443359375">
        <ele>2424.800048828125</ele>
        <time>2021-08-22T09:26:04.000Z</time>
      </trkpt>
      <trkpt lat="42.66545900143682956695556640625" lon="0.02087286673486232757568359375">
        <ele>2424.60009765625</ele>
        <time>2021-08-22T09:26:07.000Z</time>
      </trkpt>
      <trkpt lat="42.6653556525707244873046875" lon="0.020966492593288421630859375">
        <ele>2421.39990234375</ele>
        <time>2021-08-22T09:26:27.000Z</time>
      </trkpt>
      <trkpt lat="42.6649943925440311431884765625" lon="0.021329931914806365966796875">
        <ele>2422.199951171875</ele>
        <time>2021-08-22T09:27:09.000Z</time>
      </trkpt>
      <trkpt lat="42.66486137174069881439208984375" lon="0.02163075841963291168212890625">
        <ele>2425.199951171875</ele>
        <time>2021-08-22T09:28:19.000Z</time>
      </trkpt>
      <trkpt lat="42.66483639366924762725830078125" lon="0.0216841511428356170654296875">
        <ele>2425.800048828125</ele>
        <time>2021-08-22T09:28:25.000Z</time>
      </trkpt>
      <trkpt lat="42.6648099906742572784423828125" lon="0.021736286580562591552734375">
        <ele>2426.199951171875</ele>
        <time>2021-08-22T09:28:54.000Z</time>
      </trkpt>
      <trkpt lat="42.66482264734804630279541015625" lon="0.021738298237323760986328125">
        <ele>2426.60009765625</ele>
        <time>2021-08-22T09:29:25.000Z</time>
      </trkpt>
      <trkpt lat="42.6647870242595672607421875" lon="0.02175665460526943206787109375">
        <ele>2426.199951171875</ele>
        <time>2021-08-22T09:29:38.000Z</time>
      </trkpt>
      <trkpt lat="42.66477763652801513671875" lon="0.02176771871745586395263671875">
        <ele>2426.199951171875</ele>
        <time>2021-08-22T09:29:42.000Z</time>
      </trkpt>
      <trkpt lat="42.66474553383886814117431640625" lon="0.0217649526894092559814453125">
        <ele>2425</ele>
        <time>2021-08-22T09:30:09.000Z</time>
      </trkpt>
      <trkpt lat="42.66474612057209014892578125" lon="0.02176453359425067901611328125">
        <ele>2425</ele>
        <time>2021-08-22T09:30:10.000Z</time>
      </trkpt>
      <trkpt lat="42.66474603675305843353271484375" lon="0.02176436595618724822998046875">
        <ele>2425</ele>
        <time>2021-08-22T09:30:11.000Z</time>
      </trkpt>
      <trkpt lat="42.6646953262388706207275390625" lon="0.021734945476055145263671875">
        <ele>2422.199951171875</ele>
        <time>2021-08-22T09:30:31.000Z</time>
      </trkpt>
      <trkpt lat="42.664700858294963836669921875" lon="0.0217354483902454376220703125">
        <ele>2422.39990234375</ele>
        <time>2021-08-22T09:30:46.000Z</time>
      </trkpt>
      <trkpt lat="42.6646721921861171722412109375" lon="0.0218001566827297210693359375">
        <ele>2423.199951171875</ele>
        <time>2021-08-22T09:31:06.000Z</time>
      </trkpt>
      <trkpt lat="42.664673030376434326171875" lon="0.02180124633014202117919921875">
        <ele>2423.199951171875</ele>
        <time>2021-08-22T09:31:12.000Z</time>
      </trkpt>
      <trkpt lat="42.6646728627383708953857421875" lon="0.02180057577788829803466796875">
        <ele>2423.199951171875</ele>
        <time>2021-08-22T09:31:46.000Z</time>
      </trkpt>
      <trkpt lat="42.66467294655740261077880859375" lon="0.02179923467338085174560546875">
        <ele>2423.199951171875</ele>
        <time>2021-08-22T09:32:07.000Z</time>
      </trkpt>
      <trkpt lat="42.6646728627383708953857421875" lon="0.02179906703531742095947265625">
        <ele>2423.199951171875</ele>
        <time>2021-08-22T09:32:14.000Z</time>
      </trkpt>
      <trkpt lat="42.6646728627383708953857421875" lon="0.02179906703531742095947265625">
        <ele>2423.199951171875</ele>
        <time>2021-08-22T09:32:15.000Z</time>
      </trkpt>
      <trkpt lat="42.66467294655740261077880859375" lon="0.0217991508543491363525390625">
        <ele>2423.199951171875</ele>
        <time>2021-08-22T09:32:16.000Z</time>
      </trkpt>
      <trkpt lat="42.664672695100307464599609375" lon="0.02179906703531742095947265625">
        <ele>2423.199951171875</ele>
        <time>2021-08-22T09:32:18.000Z</time>
      </trkpt>
      <trkpt lat="42.66466389410197734832763671875" lon="0.0217951275408267974853515625">
        <ele>2422.800048828125</ele>
        <time>2021-08-22T09:32:37.000Z</time>
      </trkpt>
      <trkpt lat="42.6646597869694232940673828125" lon="0.02179739065468311309814453125">
        <ele>2422.60009765625</ele>
        <time>2021-08-22T09:32:40.000Z</time>
      </trkpt>
      <trkpt lat="42.66465685330331325531005859375" lon="0.0218001566827297210693359375">
        <ele>2422.60009765625</ele>
        <time>2021-08-22T09:32:41.000Z</time>
      </trkpt>
      <trkpt lat="42.66464947722852230072021484375" lon="0.02180325798690319061279296875">
        <ele>2422.39990234375</ele>
        <time>2021-08-22T09:32:43.000Z</time>
      </trkpt>
      <trkpt lat="42.66462014056742191314697265625" lon="0.02180459909141063690185546875">
        <ele>2421.39990234375</ele>
        <time>2021-08-22T09:32:48.000Z</time>
      </trkpt>
      <trkpt lat="42.66461410559713840484619140625" lon="0.0218061916530132293701171875">
        <ele>2421.39990234375</ele>
        <time>2021-08-22T09:32:49.000Z</time>
      </trkpt>
      <trkpt lat="42.66460924409329891204833984375" lon="0.021808706223964691162109375">
        <ele>2421.199951171875</ele>
        <time>2021-08-22T09:32:50.000Z</time>
      </trkpt>
      <trkpt lat="42.664604298770427703857421875" lon="0.02181197516620159149169921875">
        <ele>2421.199951171875</ele>
        <time>2021-08-22T09:32:51.000Z</time>
      </trkpt>
      <trkpt lat="42.664582841098308563232421875" lon="0.02181801013648509979248046875">
        <ele>2420.60009765625</ele>
        <time>2021-08-22T09:32:55.000Z</time>
      </trkpt>
      <trkpt lat="42.66457177698612213134765625" lon="0.02181331627070903778076171875">
        <ele>2420</ele>
        <time>2021-08-22T09:32:57.000Z</time>
      </trkpt>
      <trkpt lat="42.66453950665891170501708984375" lon="0.02180879004299640655517578125">
        <ele>2418.60009765625</ele>
        <time>2021-08-22T09:33:02.000Z</time>
      </trkpt>
      <trkpt lat="42.66451436094939708709716796875" lon="0.0217994861304759979248046875">
        <ele>2417.60009765625</ele>
        <time>2021-08-22T09:33:05.000Z</time>
      </trkpt>
      <trkpt lat="42.664492316544055938720703125" lon="0.02178515307605266571044921875">
        <ele>2416.39990234375</ele>
        <time>2021-08-22T09:33:08.000Z</time>
      </trkpt>
      <trkpt lat="42.66447127796709537506103515625" lon="0.0217713229358196258544921875">
        <ele>2415</ele>
        <time>2021-08-22T09:33:11.000Z</time>
      </trkpt>
      <trkpt lat="42.66444076783955097198486328125" lon="0.021766461431980133056640625">
        <ele>2413.800048828125</ele>
        <time>2021-08-22T09:33:15.000Z</time>
      </trkpt>
      <trkpt lat="42.6644036360085010528564453125" lon="0.02174793742597103118896484375">
        <ele>2411.800048828125</ele>
        <time>2021-08-22T09:33:22.000Z</time>
      </trkpt>
      <trkpt lat="42.6644173823297023773193359375" lon="0.021716840565204620361328125">
        <ele>2411.39990234375</ele>
        <time>2021-08-22T09:33:25.000Z</time>
      </trkpt>
      <trkpt lat="42.66440807841718196868896484375" lon="0.02169731073081493377685546875">
        <ele>2410.39990234375</ele>
        <time>2021-08-22T09:33:29.000Z</time>
      </trkpt>
      <trkpt lat="42.66439014114439487457275390625" lon="0.02170166932046413421630859375">
        <ele>2409.800048828125</ele>
        <time>2021-08-22T09:33:32.000Z</time>
      </trkpt>
      <trkpt lat="42.6643737964332103729248046875" lon="0.02170250751078128814697265625">
        <ele>2409.199951171875</ele>
        <time>2021-08-22T09:33:34.000Z</time>
      </trkpt>
      <trkpt lat="42.66436449252068996429443359375" lon="0.02162556163966655731201171875">
        <ele>2406.60009765625</ele>
        <time>2021-08-22T09:33:47.000Z</time>
      </trkpt>
      <trkpt lat="42.6643793284893035888671875" lon="0.02156387083232402801513671875">
        <ele>2405.39990234375</ele>
        <time>2021-08-22T09:33:53.000Z</time>
      </trkpt>
      <trkpt lat="42.6643846929073333740234375" lon="0.0215542316436767578125">
        <ele>2405.39990234375</ele>
        <time>2021-08-22T09:33:54.000Z</time>
      </trkpt>
      <trkpt lat="42.664410173892974853515625" lon="0.02154274843633174896240234375">
        <ele>2406</ele>
        <time>2021-08-22T09:34:00.000Z</time>
      </trkpt>
      <trkpt lat="42.664377987384796142578125" lon="0.0214809738099575042724609375">
        <ele>2403</ele>
        <time>2021-08-22T09:34:23.000Z</time>
      </trkpt>
      <trkpt lat="42.66433364711701869964599609375" lon="0.0214347057044506072998046875">
        <ele>2400</ele>
        <time>2021-08-22T09:34:33.000Z</time>
      </trkpt>
      <trkpt lat="42.66432174481451511383056640625" lon="0.02140344120562076568603515625">
        <ele>2398.60009765625</ele>
        <time>2021-08-22T09:34:47.000Z</time>
      </trkpt>
      <trkpt lat="42.6643191464245319366455078125" lon="0.021394975483417510986328125">
        <ele>2398.199951171875</ele>
        <time>2021-08-22T09:34:50.000Z</time>
      </trkpt>
      <trkpt lat="42.664307244122028350830078125" lon="0.0213699974119663238525390625">
        <ele>2397</ele>
        <time>2021-08-22T09:34:57.000Z</time>
      </trkpt>
      <trkpt lat="42.6642906479537487030029296875" lon="0.021324567496776580810546875">
        <ele>2395</ele>
        <time>2021-08-22T09:35:15.000Z</time>
      </trkpt>
      <trkpt lat="42.66429416835308074951171875" lon="0.02118182368576526641845703125">
        <ele>2391.199951171875</ele>
        <time>2021-08-22T09:35:47.000Z</time>
      </trkpt>
      <trkpt lat="42.66429039649665355682373046875" lon="0.021185092628002166748046875">
        <ele>2391</ele>
        <time>2021-08-22T09:35:49.000Z</time>
      </trkpt>
      <trkpt lat="42.66421562992036342620849609375" lon="0.02121954225003719329833984375">
        <ele>2389</ele>
        <time>2021-08-22T09:36:04.000Z</time>
      </trkpt>
      <trkpt lat="42.66419760882854461669921875" lon="0.0210970826447010040283203125">
        <ele>2384.800048828125</ele>
        <time>2021-08-22T09:36:16.000Z</time>
      </trkpt>
      <trkpt lat="42.664196603000164031982421875" lon="0.02105827443301677703857421875">
        <ele>2383.800048828125</ele>
        <time>2021-08-22T09:36:19.000Z</time>
      </trkpt>
      <trkpt lat="42.6641981117427349090576171875" lon="0.02104754559695720672607421875">
        <ele>2383.39990234375</ele>
        <time>2021-08-22T09:36:20.000Z</time>
      </trkpt>
      <trkpt lat="42.6641984470188617706298828125" lon="0.02103715203702449798583984375">
        <ele>2383.199951171875</ele>
        <time>2021-08-22T09:36:21.000Z</time>
      </trkpt>
      <trkpt lat="42.66419232822954654693603515625" lon="0.0209964998066425323486328125">
        <ele>2381.800048828125</ele>
        <time>2021-08-22T09:36:24.000Z</time>
      </trkpt>
      <trkpt lat="42.66419165767729282379150390625" lon="0.02098166383802890777587890625">
        <ele>2381.39990234375</ele>
        <time>2021-08-22T09:36:25.000Z</time>
      </trkpt>
      <trkpt lat="42.6641888916492462158203125" lon="0.02096976153552532196044921875">
        <ele>2381</ele>
        <time>2021-08-22T09:36:26.000Z</time>
      </trkpt>
      <trkpt lat="42.66413633711636066436767578125" lon="0.02093187533318996429443359375">
        <ele>2378.60009765625</ele>
        <time>2021-08-22T09:36:32.000Z</time>
      </trkpt>
      <trkpt lat="42.66412845812737941741943359375" lon="0.02090823836624622344970703125">
        <ele>2378</ele>
        <time>2021-08-22T09:36:34.000Z</time>
      </trkpt>
      <trkpt lat="42.664087973535060882568359375" lon="0.02080916427075862884521484375">
        <ele>2374.60009765625</ele>
        <time>2021-08-22T09:36:47.000Z</time>
      </trkpt>
      <trkpt lat="42.6640680246055126190185546875" lon="0.0207991898059844970703125">
        <ele>2373.800048828125</ele>
        <time>2021-08-22T09:36:49.000Z</time>
      </trkpt>
      <trkpt lat="42.664053104817867279052734375" lon="0.020739845931529998779296875">
        <ele>2372</ele>
        <time>2021-08-22T09:36:54.000Z</time>
      </trkpt>
      <trkpt lat="42.66404606401920318603515625" lon="0.02051554620265960693359375">
        <ele>2367.39990234375</ele>
        <time>2021-08-22T09:37:26.000Z</time>
      </trkpt>
      <trkpt lat="42.6640489138662815093994140625" lon="0.02051764167845249176025390625">
        <ele>2367.60009765625</ele>
        <time>2021-08-22T09:37:27.000Z</time>
      </trkpt>
      <trkpt lat="42.66404740512371063232421875" lon="0.02052300609648227691650390625">
        <ele>2367.60009765625</ele>
        <time>2021-08-22T09:37:29.000Z</time>
      </trkpt>
      <trkpt lat="42.6640467345714569091796875" lon="0.0205257721245288848876953125">
        <ele>2367.60009765625</ele>
        <time>2021-08-22T09:37:31.000Z</time>
      </trkpt>
      <trkpt lat="42.6640311442315578460693359375" lon="0.02054505050182342529296875">
        <ele>2367.60009765625</ele>
        <time>2021-08-22T09:37:37.000Z</time>
      </trkpt>
      <trkpt lat="42.6640314795076847076416015625" lon="0.020546726882457733154296875">
        <ele>2367.60009765625</ele>
        <time>2021-08-22T09:37:38.000Z</time>
      </trkpt>
      <trkpt lat="42.6640355028212070465087890625" lon="0.02054697833955287933349609375">
        <ele>2367.800048828125</ele>
        <time>2021-08-22T09:37:40.000Z</time>
      </trkpt>
      <trkpt lat="42.66403810121119022369384765625" lon="0.020546726882457733154296875">
        <ele>2367.800048828125</ele>
        <time>2021-08-22T09:37:44.000Z</time>
      </trkpt>
      <trkpt lat="42.664039023220539093017578125" lon="0.0205462239682674407958984375">
        <ele>2367.800048828125</ele>
        <time>2021-08-22T09:37:46.000Z</time>
      </trkpt>
      <trkpt lat="42.6640413701534271240234375" lon="0.020546056330204010009765625">
        <ele>2368</ele>
        <time>2021-08-22T09:37:52.000Z</time>
      </trkpt>
      <trkpt lat="42.66404128633439540863037109375" lon="0.02054614014923572540283203125">
        <ele>2368</ele>
        <time>2021-08-22T09:37:53.000Z</time>
      </trkpt>
      <trkpt lat="42.66403625719249248504638671875" lon="0.020546726882457733154296875">
        <ele>2367.800048828125</ele>
        <time>2021-08-22T09:38:05.000Z</time>
      </trkpt>
      <trkpt lat="42.66402955166995525360107421875" lon="0.02055468969047069549560546875">
        <ele>2367.800048828125</ele>
        <time>2021-08-22T09:38:09.000Z</time>
      </trkpt>
      <trkpt lat="42.66403122805058956146240234375" lon="0.02055552788078784942626953125">
        <ele>2367.800048828125</ele>
        <time>2021-08-22T09:38:13.000Z</time>
      </trkpt>
      <trkpt lat="42.6640314795076847076416015625" lon="0.0205562822520732879638671875">
        <ele>2367.800048828125</ele>
        <time>2021-08-22T09:38:15.000Z</time>
      </trkpt>
      <trkpt lat="42.6640324853360652923583984375" lon="0.02055904828011989593505859375">
        <ele>2368</ele>
        <time>2021-08-22T09:38:18.000Z</time>
      </trkpt>
      <trkpt lat="42.66403156332671642303466796875" lon="0.02056181430816650390625">
        <ele>2368</ele>
        <time>2021-08-22T09:38:21.000Z</time>
      </trkpt>
      <trkpt lat="42.6640334911644458770751953125" lon="0.0205596350133419036865234375">
        <ele>2368</ele>
        <time>2021-08-22T09:38:25.000Z</time>
      </trkpt>
      <trkpt lat="42.66403759829699993133544921875" lon="0.0205556116998195648193359375">
        <ele>2368</ele>
        <time>2021-08-22T09:38:29.000Z</time>
      </trkpt>
      <trkpt lat="42.66403776593506336212158203125" lon="0.0205559469759464263916015625">
        <ele>2368</ele>
        <time>2021-08-22T09:38:34.000Z</time>
      </trkpt>
      <trkpt lat="42.66403441317379474639892578125" lon="0.0205559469759464263916015625">
        <ele>2368</ele>
        <time>2021-08-22T09:38:39.000Z</time>
      </trkpt>
      <trkpt lat="42.664008177816867828369140625" lon="0.02054798416793346405029296875">
        <ele>2367.199951171875</ele>
        <time>2021-08-22T09:38:46.000Z</time>
      </trkpt>
      <trkpt lat="42.6639956049621105194091796875" lon="0.020540021359920501708984375">
        <ele>2366.60009765625</ele>
        <time>2021-08-22T09:38:50.000Z</time>
      </trkpt>
      <trkpt lat="42.663959227502346038818359375" lon="0.0205126963555812835693359375">
        <ele>2365.199951171875</ele>
        <time>2021-08-22T09:38:56.000Z</time>
      </trkpt>
      <trkpt lat="42.663898207247257232666015625" lon="0.0204852037131786346435546875">
        <ele>2362.60009765625</ele>
        <time>2021-08-22T09:39:05.000Z</time>
      </trkpt>
      <trkpt lat="42.663891501724720001220703125" lon="0.02047740854322910308837890625">
        <ele>2362.199951171875</ele>
        <time>2021-08-22T09:39:07.000Z</time>
      </trkpt>
      <trkpt lat="42.66388873569667339324951171875" lon="0.02047405578196048736572265625">
        <ele>2362.199951171875</ele>
        <time>2021-08-22T09:39:08.000Z</time>
      </trkpt>
      <trkpt lat="42.66388513147830963134765625" lon="0.0204704515635967254638671875">
        <ele>2362</ele>
        <time>2021-08-22T09:39:10.000Z</time>
      </trkpt>
      <trkpt lat="42.66387817449867725372314453125" lon="0.020471625030040740966796875">
        <ele>2361.60009765625</ele>
        <time>2021-08-22T09:39:14.000Z</time>
      </trkpt>
      <trkpt lat="42.6638789288699626922607421875" lon="0.02045787870883941650390625">
        <ele>2361.39990234375</ele>
        <time>2021-08-22T09:39:18.000Z</time>
      </trkpt>
      <trkpt lat="42.6638816110789775848388671875" lon="0.0204456411302089691162109375">
        <ele>2361.39990234375</ele>
        <time>2021-08-22T09:39:22.000Z</time>
      </trkpt>
      <trkpt lat="42.66388806514441967010498046875" lon="0.02044790424406528472900390625">
        <ele>2361.60009765625</ele>
        <time>2021-08-22T09:39:24.000Z</time>
      </trkpt>
      <trkpt lat="42.66388638876378536224365234375" lon="0.02044321037828922271728515625">
        <ele>2361.39990234375</ele>
        <time>2021-08-22T09:39:32.000Z</time>
      </trkpt>
      <trkpt lat="42.6637914218008518218994140625" lon="0.020478330552577972412109375">
        <ele>2358.39990234375</ele>
        <time>2021-08-22T09:40:03.000Z</time>
      </trkpt>
      <trkpt lat="42.66365982592105865478515625" lon="0.02034950070083141326904296875">
        <ele>2350.800048828125</ele>
        <time>2021-08-22T09:40:34.000Z</time>
      </trkpt>
      <trkpt lat="42.6636351831257343292236328125" lon="0.02030725590884685516357421875">
        <ele>2349.199951171875</ele>
        <time>2021-08-22T09:40:38.000Z</time>
      </trkpt>
      <trkpt lat="42.663492523133754730224609375" lon="0.020208097994327545166015625">
        <ele>2342.199951171875</ele>
        <time>2021-08-22T09:40:56.000Z</time>
      </trkpt>
      <trkpt lat="42.66334022395312786102294921875" lon="0.02024204470217227935791015625">
        <ele>2337.199951171875</ele>
        <time>2021-08-22T09:41:12.000Z</time>
      </trkpt>
      <trkpt lat="42.66316437162458896636962890625" lon="0.0204640813171863555908203125">
        <ele>2337.39990234375</ele>
        <time>2021-08-22T09:41:31.000Z</time>
      </trkpt>
      <trkpt lat="42.663154564797878265380859375" lon="0.02047531306743621826171875">
        <ele>2337.39990234375</ele>
        <time>2021-08-22T09:41:32.000Z</time>
      </trkpt>
      <trkpt lat="42.66314685344696044921875" lon="0.02048713155090808868408203125">
        <ele>2337.39990234375</ele>
        <time>2021-08-22T09:41:33.000Z</time>
      </trkpt>
      <trkpt lat="42.6631396450102329254150390625" lon="0.02049718983471393585205078125">
        <ele>2337.39990234375</ele>
        <time>2021-08-22T09:41:34.000Z</time>
      </trkpt>
      <trkpt lat="42.66313034109771251678466796875" lon="0.020506493747234344482421875">
        <ele>2337.39990234375</ele>
        <time>2021-08-22T09:41:35.000Z</time>
      </trkpt>
      <trkpt lat="42.6630829833447933197021484375" lon="0.020541362464427947998046875">
        <ele>2336.60009765625</ele>
        <time>2021-08-22T09:41:39.000Z</time>
      </trkpt>
      <trkpt lat="42.66306211240589618682861328125" lon="0.02055871300399303436279296875">
        <ele>2336.39990234375</ele>
        <time>2021-08-22T09:41:41.000Z</time>
      </trkpt>
      <trkpt lat="42.66304987482726573944091796875" lon="0.02057028003036975860595703125">
        <ele>2336.39990234375</ele>
        <time>2021-08-22T09:41:42.000Z</time>
      </trkpt>
      <trkpt lat="42.66303981654345989227294921875" lon="0.0205817632377147674560546875">
        <ele>2336.39990234375</ele>
        <time>2021-08-22T09:41:43.000Z</time>
      </trkpt>
      <trkpt lat="42.66303042881190776824951171875" lon="0.02060011960566043853759765625">
        <ele>2336.39990234375</ele>
        <time>2021-08-22T09:41:46.000Z</time>
      </trkpt>
      <trkpt lat="42.662991620600223541259765625" lon="0.02068310044705867767333984375">
        <ele>2336.60009765625</ele>
        <time>2021-08-22T09:41:59.000Z</time>
      </trkpt>
      <trkpt lat="42.66284577548503875732421875" lon="0.02082131803035736083984375">
        <ele>2334</ele>
        <time>2021-08-22T09:42:13.000Z</time>
      </trkpt>
      <trkpt lat="42.66262860037386417388916015625" lon="0.02097244374454021453857421875">
        <ele>2332.800048828125</ele>
        <time>2021-08-22T09:42:34.000Z</time>
      </trkpt>
      <trkpt lat="42.66243414022028446197509765625" lon="0.02112063579261302947998046875">
        <ele>2329.199951171875</ele>
        <time>2021-08-22T09:42:55.000Z</time>
      </trkpt>
      <trkpt lat="42.6622753031551837921142578125" lon="0.0212526507675647735595703125">
        <ele>2329</ele>
        <time>2021-08-22T09:43:29.000Z</time>
      </trkpt>
      <trkpt lat="42.66219257377088069915771484375" lon="0.02126480452716350555419921875">
        <ele>2324.199951171875</ele>
        <time>2021-08-22T09:43:45.000Z</time>
      </trkpt>
      <trkpt lat="42.662146389484405517578125" lon="0.02127737738192081451416015625">
        <ele>2321.39990234375</ele>
        <time>2021-08-22T09:43:52.000Z</time>
      </trkpt>
      <trkpt lat="42.66203683800995349884033203125" lon="0.021208226680755615234375">
        <ele>2312.39990234375</ele>
        <time>2021-08-22T09:44:25.000Z</time>
      </trkpt>
      <trkpt lat="42.66185729764401912689208984375" lon="0.02124016173183917999267578125">
        <ele>2309.39990234375</ele>
        <time>2021-08-22T09:44:58.000Z</time>
      </trkpt>
      <trkpt lat="42.66179845668375492095947265625" lon="0.02122825942933559417724609375">
        <ele>2308.60009765625</ele>
        <time>2021-08-22T09:45:06.000Z</time>
      </trkpt>
      <trkpt lat="42.66177113167941570281982421875" lon="0.02123027108609676361083984375">
        <ele>2308.60009765625</ele>
        <time>2021-08-22T09:45:10.000Z</time>
      </trkpt>
      <trkpt lat="42.6617687009274959564208984375" lon="0.02122767269611358642578125">
        <ele>2308.39990234375</ele>
        <time>2021-08-22T09:45:16.000Z</time>
      </trkpt>
      <trkpt lat="42.66177582554519176483154296875" lon="0.0212308578193187713623046875">
        <ele>2308.60009765625</ele>
        <time>2021-08-22T09:45:23.000Z</time>
      </trkpt>
      <trkpt lat="42.6616676151752471923828125" lon="0.02122725360095500946044921875">
        <ele>2306</ele>
        <time>2021-08-22T09:46:03.000Z</time>
      </trkpt>
      <trkpt lat="42.6616181619465351104736328125" lon="0.0212345458567142486572265625">
        <ele>2304.199951171875</ele>
        <time>2021-08-22T09:46:10.000Z</time>
      </trkpt>
      <trkpt lat="42.6615819521248340606689453125" lon="0.02123974263668060302734375">
        <ele>2302.800048828125</ele>
        <time>2021-08-22T09:46:17.000Z</time>
      </trkpt>
      <trkpt lat="42.66155638732016086578369140625" lon="0.021256841719150543212890625">
        <ele>2302.39990234375</ele>
        <time>2021-08-22T09:46:20.000Z</time>
      </trkpt>
      <trkpt lat="42.66152839176356792449951171875" lon="0.02128760330379009246826171875">
        <ele>2301.800048828125</ele>
        <time>2021-08-22T09:46:27.000Z</time>
      </trkpt>
      <trkpt lat="42.6615075208246707916259765625" lon="0.02130202017724514007568359375">
        <ele>2301.199951171875</ele>
        <time>2021-08-22T09:46:31.000Z</time>
      </trkpt>
      <trkpt lat="42.66150224022567272186279296875" lon="0.02130973152816295623779296875">
        <ele>2301.199951171875</ele>
        <time>2021-08-22T09:46:32.000Z</time>
      </trkpt>
      <trkpt lat="42.66144390217959880828857421875" lon="0.02135750837624073028564453125">
        <ele>2300.199951171875</ele>
        <time>2021-08-22T09:46:39.000Z</time>
      </trkpt>
      <trkpt lat="42.6610354520380496978759765625" lon="0.021557919681072235107421875">
        <ele>2293</ele>
        <time>2021-08-22T09:47:21.000Z</time>
      </trkpt>
      <trkpt lat="42.661025226116180419921875" lon="0.02156420610845088958740234375">
        <ele>2293</ele>
        <time>2021-08-22T09:47:22.000Z</time>
      </trkpt>
      <trkpt lat="42.66088776290416717529296875" lon="0.021648108959197998046875">
        <ele>2290.800048828125</ele>
        <time>2021-08-22T09:47:38.000Z</time>
      </trkpt>
      <trkpt lat="42.66087879426777362823486328125" lon="0.0216548144817352294921875">
        <ele>2290.60009765625</ele>
        <time>2021-08-22T09:47:39.000Z</time>
      </trkpt>
      <trkpt lat="42.66048752702772617340087890625" lon="0.02194583415985107421875">
        <ele>2287.60009765625</ele>
        <time>2021-08-22T09:48:19.000Z</time>
      </trkpt>
      <trkpt lat="42.66042902134358882904052734375" lon="0.0219847261905670166015625">
        <ele>2286.800048828125</ele>
        <time>2021-08-22T09:48:24.000Z</time>
      </trkpt>
      <trkpt lat="42.660027444362640380859375" lon="0.0222551263868808746337890625">
        <ele>2285.39990234375</ele>
        <time>2021-08-22T09:49:00.000Z</time>
      </trkpt>
      <trkpt lat="42.65982502140104770660400390625" lon="0.02240994013845920562744140625">
        <ele>2284</ele>
        <time>2021-08-22T09:49:21.000Z</time>
      </trkpt>
      <trkpt lat="42.65950399450957775115966796875" lon="0.02258713357150554656982421875">
        <ele>2278</ele>
        <time>2021-08-22T09:49:51.000Z</time>
      </trkpt>
      <trkpt lat="42.6594789326190948486328125" lon="0.0225991196930408477783203125">
        <ele>2277.60009765625</ele>
        <time>2021-08-22T09:49:53.000Z</time>
      </trkpt>
      <trkpt lat="42.6594552956521511077880859375" lon="0.02261261455714702606201171875">
        <ele>2277.60009765625</ele>
        <time>2021-08-22T09:49:55.000Z</time>
      </trkpt>
      <trkpt lat="42.65943107195198535919189453125" lon="0.022622086107730865478515625">
        <ele>2277.800048828125</ele>
        <time>2021-08-22T09:49:57.000Z</time>
      </trkpt>
      <trkpt lat="42.65902974642813205718994140625" lon="0.02279433421790599822998046875">
        <ele>2276.60009765625</ele>
        <time>2021-08-22T09:50:57.000Z</time>
      </trkpt>
      <trkpt lat="42.6589218713343143463134765625" lon="0.0226872973144054412841796875">
        <ele>2272.199951171875</ele>
        <time>2021-08-22T09:51:08.000Z</time>
      </trkpt>
      <trkpt lat="42.65891290269792079925537109375" lon="0.0226993672549724578857421875">
        <ele>2272.39990234375</ele>
        <time>2021-08-22T09:51:53.000Z</time>
      </trkpt>
      <trkpt lat="42.658909298479557037353515625" lon="0.0227000378072261810302734375">
        <ele>2272.199951171875</ele>
        <time>2021-08-22T09:51:59.000Z</time>
      </trkpt>
      <trkpt lat="42.65890150330960750579833984375" lon="0.02270565368235111236572265625">
        <ele>2272.199951171875</ele>
        <time>2021-08-22T09:52:12.000Z</time>
      </trkpt>
      <trkpt lat="42.6588799618184566497802734375" lon="0.02277396619319915771484375">
        <ele>2274</ele>
        <time>2021-08-22T09:52:21.000Z</time>
      </trkpt>
      <trkpt lat="42.658873088657855987548828125" lon="0.02278804779052734375">
        <ele>2274.39990234375</ele>
        <time>2021-08-22T09:52:22.000Z</time>
      </trkpt>
      <trkpt lat="42.658828161656856536865234375" lon="0.02286172471940517425537109375">
        <ele>2275.60009765625</ele>
        <time>2021-08-22T09:52:29.000Z</time>
      </trkpt>
      <trkpt lat="42.65873336233198642730712890625" lon="0.02290430478751659393310546875">
        <ele>2274.39990234375</ele>
        <time>2021-08-22T09:52:39.000Z</time>
      </trkpt>
      <trkpt lat="42.6587314344942569732666015625" lon="0.022907070815563201904296875">
        <ele>2274.39990234375</ele>
        <time>2021-08-22T09:52:48.000Z</time>
      </trkpt>
      <trkpt lat="42.65873529016971588134765625" lon="0.02290095202624797821044921875">
        <ele>2274.39990234375</ele>
        <time>2021-08-22T09:52:55.000Z</time>
      </trkpt>
      <trkpt lat="42.65868944115936756134033203125" lon="0.02297856844961643218994140625">
        <ele>2275.199951171875</ele>
        <time>2021-08-22T09:53:16.000Z</time>
      </trkpt>
      <trkpt lat="42.6586405746638774871826171875" lon="0.02307127229869365692138671875">
        <ele>2277.39990234375</ele>
        <time>2021-08-22T09:53:22.000Z</time>
      </trkpt>
      <trkpt lat="42.65861970372498035430908203125" lon="0.0230869464576244354248046875">
        <ele>2277.60009765625</ele>
        <time>2021-08-22T09:53:28.000Z</time>
      </trkpt>
      <trkpt lat="42.65854828990995883941650390625" lon="0.0231248326599597930908203125">
        <ele>2276.60009765625</ele>
        <time>2021-08-22T09:53:38.000Z</time>
      </trkpt>
      <trkpt lat="42.65853052027523517608642578125" lon="0.02313514240086078643798828125">
        <ele>2276.199951171875</ele>
        <time>2021-08-22T09:53:40.000Z</time>
      </trkpt>
      <trkpt lat="42.65848794020712375640869140625" lon="0.02316112630069255828857421875">
        <ele>2274.800048828125</ele>
        <time>2021-08-22T09:53:45.000Z</time>
      </trkpt>
      <trkpt lat="42.6584601961076259613037109375" lon="0.02318996004760265350341796875">
        <ele>2274.199951171875</ele>
        <time>2021-08-22T09:53:48.000Z</time>
      </trkpt>
      <trkpt lat="42.65839892439544200897216796875" lon="0.0232324562966823577880859375">
        <ele>2272.800048828125</ele>
        <time>2021-08-22T09:53:54.000Z</time>
      </trkpt>
      <trkpt lat="42.65832281671464443206787109375" lon="0.02331367693841457366943359375">
        <ele>2272.800048828125</ele>
        <time>2021-08-22T09:54:01.000Z</time>
      </trkpt>
      <trkpt lat="42.65829498879611492156982421875" lon="0.023339577019214630126953125">
        <ele>2273</ele>
        <time>2021-08-22T09:54:04.000Z</time>
      </trkpt>
      <trkpt lat="42.65828560106456279754638671875" lon="0.02334787510335445404052734375">
        <ele>2273</ele>
        <time>2021-08-22T09:54:05.000Z</time>
      </trkpt>
      <trkpt lat="42.65824134461581707000732421875" lon="0.02339221537113189697265625">
        <ele>2273</ele>
        <time>2021-08-22T09:54:09.000Z</time>
      </trkpt>
      <trkpt lat="42.65823195688426494598388671875" lon="0.02340369857847690582275390625">
        <ele>2273</ele>
        <time>2021-08-22T09:54:10.000Z</time>
      </trkpt>
      <trkpt lat="42.65820530243217945098876953125" lon="0.02342549152672290802001953125">
        <ele>2272.800048828125</ele>
        <time>2021-08-22T09:54:13.000Z</time>
      </trkpt>
      <trkpt lat="42.65812701545655727386474609375" lon="0.02338391728699207305908203125">
        <ele>2270</ele>
        <time>2021-08-22T09:54:22.000Z</time>
      </trkpt>
      <trkpt lat="42.65792786143720149993896484375" lon="0.02354501746594905853271484375">
        <ele>2269.60009765625</ele>
        <time>2021-08-22T09:54:40.000Z</time>
      </trkpt>
      <trkpt lat="42.65791998244822025299072265625" lon="0.02356060780584812164306640625">
        <ele>2269.800048828125</ele>
        <time>2021-08-22T09:54:41.000Z</time>
      </trkpt>
      <trkpt lat="42.6579123549163341522216796875" lon="0.0235741026699542999267578125">
        <ele>2270</ele>
        <time>2021-08-22T09:54:42.000Z</time>
      </trkpt>
      <trkpt lat="42.6578650809824466705322265625" lon="0.02364509738981723785400390625">
        <ele>2269.60009765625</ele>
        <time>2021-08-22T09:54:47.000Z</time>
      </trkpt>
      <trkpt lat="42.657825015485286712646484375" lon="0.0237214565277099609375">
        <ele>2269.60009765625</ele>
        <time>2021-08-22T09:54:52.000Z</time>
      </trkpt>
      <trkpt lat="42.65782007016241550445556640625" lon="0.02373754978179931640625">
        <ele>2269.60009765625</ele>
        <time>2021-08-22T09:54:53.000Z</time>
      </trkpt>
      <trkpt lat="42.6578030548989772796630859375" lon="0.02378541044890880584716796875">
        <ele>2269.60009765625</ele>
        <time>2021-08-22T09:54:56.000Z</time>
      </trkpt>
      <trkpt lat="42.6577745564281940460205078125" lon="0.02382463775575160980224609375">
        <ele>2269</ele>
        <time>2021-08-22T09:54:59.000Z</time>
      </trkpt>
      <trkpt lat="42.65768118202686309814453125" lon="0.02397567965090274810791015625">
        <ele>2267.39990234375</ele>
        <time>2021-08-22T09:55:10.000Z</time>
      </trkpt>
      <trkpt lat="42.657602727413177490234375" lon="0.0241682119667530059814453125">
        <ele>2266.199951171875</ele>
        <time>2021-08-22T09:55:22.000Z</time>
      </trkpt>
      <trkpt lat="42.65732687897980213165283203125" lon="0.02464539371430873870849609375">
        <ele>2261.39990234375</ele>
        <time>2021-08-22T09:55:55.000Z</time>
      </trkpt>
      <trkpt lat="42.65723702497780323028564453125" lon="0.02498033456504344940185546875">
        <ele>2261.39990234375</ele>
        <time>2021-08-22T09:56:17.000Z</time>
      </trkpt>
      <trkpt lat="42.65724741853773593902587890625" lon="0.02508066594600677490234375">
        <ele>2264</ele>
        <time>2021-08-22T09:56:24.000Z</time>
      </trkpt>
      <trkpt lat="42.65722998417913913726806640625" lon="0.0251244194805622100830078125">
        <ele>2264</ele>
        <time>2021-08-22T09:56:28.000Z</time>
      </trkpt>
      <trkpt lat="42.65722453594207763671875" lon="0.02515710890293121337890625">
        <ele>2264.199951171875</ele>
        <time>2021-08-22T09:56:31.000Z</time>
      </trkpt>
      <trkpt lat="42.65718631446361541748046875" lon="0.02524537034332752227783203125">
        <ele>2263.800048828125</ele>
        <time>2021-08-22T09:56:38.000Z</time>
      </trkpt>
      <trkpt lat="42.6571626774966716766357421875" lon="0.02530354075133800506591796875">
        <ele>2263.60009765625</ele>
        <time>2021-08-22T09:56:46.000Z</time>
      </trkpt>
      <trkpt lat="42.65716276131570339202880859375" lon="0.02530588768422603607177734375">
        <ele>2263.60009765625</ele>
        <time>2021-08-22T09:56:47.000Z</time>
      </trkpt>
      <trkpt lat="42.657161839306354522705078125" lon="0.025308318436145782470703125">
        <ele>2263.60009765625</ele>
        <time>2021-08-22T09:56:48.000Z</time>
      </trkpt>
      <trkpt lat="42.657157815992832183837890625" lon="0.0253240764141082763671875">
        <ele>2263.800048828125</ele>
        <time>2021-08-22T09:56:50.000Z</time>
      </trkpt>
      <trkpt lat="42.65714767388999462127685546875" lon="0.0253748707473278045654296875">
        <ele>2264.199951171875</ele>
        <time>2021-08-22T09:56:53.000Z</time>
      </trkpt>
      <trkpt lat="42.65714348293840885162353515625" lon="0.0253933109343051910400390625">
        <ele>2264.199951171875</ele>
        <time>2021-08-22T09:56:54.000Z</time>
      </trkpt>
      <trkpt lat="42.65713275410234928131103515625" lon="0.025433711707592010498046875">
        <ele>2264.60009765625</ele>
        <time>2021-08-22T09:56:56.000Z</time>
      </trkpt>
      <trkpt lat="42.65712286345660686492919921875" lon="0.02547604031860828399658203125">
        <ele>2265.199951171875</ele>
        <time>2021-08-22T09:56:58.000Z</time>
      </trkpt>
      <trkpt lat="42.65711791813373565673828125" lon="0.02549774944782257080078125">
        <ele>2265.39990234375</ele>
        <time>2021-08-22T09:56:59.000Z</time>
      </trkpt>
      <trkpt lat="42.6571127213537693023681640625" lon="0.025519542396068572998046875">
        <ele>2265.60009765625</ele>
        <time>2021-08-22T09:57:00.000Z</time>
      </trkpt>
      <trkpt lat="42.657103836536407470703125" lon="0.0255582667887210845947265625">
        <ele>2266.199951171875</ele>
        <time>2021-08-22T09:57:02.000Z</time>
      </trkpt>
      <trkpt lat="42.65709000639617443084716796875" lon="0.02559422515332698822021484375">
        <ele>2266.199951171875</ele>
        <time>2021-08-22T09:57:04.000Z</time>
      </trkpt>
      <trkpt lat="42.65707500278949737548828125" lon="0.02566446550190448760986328125">
        <ele>2266.800048828125</ele>
        <time>2021-08-22T09:57:08.000Z</time>
      </trkpt>
      <trkpt lat="42.65706184320151805877685546875" lon="0.02574920654296875">
        <ele>2268.39990234375</ele>
        <time>2021-08-22T09:57:16.000Z</time>
      </trkpt>
      <trkpt lat="42.657057233154773712158203125" lon="0.02577410079538822174072265625">
        <ele>2268.800048828125</ele>
        <time>2021-08-22T09:57:18.000Z</time>
      </trkpt>
      <trkpt lat="42.65705295838415622711181640625" lon="0.02580645494163036346435546875">
        <ele>2269.60009765625</ele>
        <time>2021-08-22T09:57:20.000Z</time>
      </trkpt>
      <trkpt lat="42.657048515975475311279296875" lon="0.0259632803499698638916015625">
        <ele>2273.800048828125</ele>
        <time>2021-08-22T09:57:30.000Z</time>
      </trkpt>
      <trkpt lat="42.6570232026278972625732421875" lon="0.0260152481496334075927734375">
        <ele>2273.199951171875</ele>
        <time>2021-08-22T09:57:35.000Z</time>
      </trkpt>
      <trkpt lat="42.6570077799260616302490234375" lon="0.02618883736431598663330078125">
        <ele>2275</ele>
        <time>2021-08-22T09:57:46.000Z</time>
      </trkpt>
      <trkpt lat="42.65699646435678005218505859375" lon="0.02629864029586315155029296875">
        <ele>2275.60009765625</ele>
        <time>2021-08-22T09:57:53.000Z</time>
      </trkpt>
      <trkpt lat="42.6569630205631256103515625" lon="0.02642554230988025665283203125">
        <ele>2274.199951171875</ele>
        <time>2021-08-22T09:58:02.000Z</time>
      </trkpt>
      <trkpt lat="42.65690795145928859710693359375" lon="0.0265939347445964813232421875">
        <ele>2272</ele>
        <time>2021-08-22T09:58:15.000Z</time>
      </trkpt>
      <trkpt lat="42.656893618404865264892578125" lon="0.0266464054584503173828125">
        <ele>2271.199951171875</ele>
        <time>2021-08-22T09:58:19.000Z</time>
      </trkpt>
      <trkpt lat="42.65687383711338043212890625" lon="0.026719830930233001708984375">
        <ele>2270.39990234375</ele>
        <time>2021-08-22T09:58:25.000Z</time>
      </trkpt>
      <trkpt lat="42.65684894286096096038818359375" lon="0.02679468132555484771728515625">
        <ele>2270.199951171875</ele>
        <time>2021-08-22T09:58:31.000Z</time>
      </trkpt>
      <trkpt lat="42.65677333809435367584228515625" lon="0.027071870863437652587890625">
        <ele>2271.199951171875</ele>
        <time>2021-08-22T09:58:51.000Z</time>
      </trkpt>
      <trkpt lat="42.6566906087100505828857421875" lon="0.027373619377613067626953125">
        <ele>2268.199951171875</ele>
        <time>2021-08-22T09:59:17.000Z</time>
      </trkpt>
      <trkpt lat="42.65667174942791461944580078125" lon="0.0274376571178436279296875">
        <ele>2267</ele>
        <time>2021-08-22T09:59:23.000Z</time>
      </trkpt>
      <trkpt lat="42.65664325095713138580322265625" lon="0.02792338840663433074951171875">
        <ele>2261.39990234375</ele>
        <time>2021-08-22T09:59:54.000Z</time>
      </trkpt>
      <trkpt lat="42.65667275525629520416259765625" lon="0.02799765206873416900634765625">
        <ele>2261.39990234375</ele>
        <time>2021-08-22T10:00:07.000Z</time>
      </trkpt>
      <trkpt lat="42.6566225476562976837158203125" lon="0.02810544334352016448974609375">
        <ele>2258</ele>
        <time>2021-08-22T10:00:34.000Z</time>
      </trkpt>
      <trkpt lat="42.65652573667466640472412109375" lon="0.02825103700160980224609375">
        <ele>2254.39990234375</ele>
        <time>2021-08-22T10:00:47.000Z</time>
      </trkpt>
      <trkpt lat="42.65652657486498355865478515625" lon="0.0282783620059490203857421875">
        <ele>2254.199951171875</ele>
        <time>2021-08-22T10:00:49.000Z</time>
      </trkpt>
      <trkpt lat="42.6565246470272541046142578125" lon="0.0282921083271503448486328125">
        <ele>2254</ele>
        <time>2021-08-22T10:00:50.000Z</time>
      </trkpt>
      <trkpt lat="42.6565236411988735198974609375" lon="0.02830744720995426177978515625">
        <ele>2254</ele>
        <time>2021-08-22T10:00:51.000Z</time>
      </trkpt>
      <trkpt lat="42.65651785768568515777587890625" lon="0.02833460457623004913330078125">
        <ele>2253.60009765625</ele>
        <time>2021-08-22T10:00:53.000Z</time>
      </trkpt>
      <trkpt lat="42.65649489127099514007568359375" lon="0.0283777713775634765625">
        <ele>2253</ele>
        <time>2021-08-22T10:00:56.000Z</time>
      </trkpt>
      <trkpt lat="42.6564847491681575775146484375" lon="0.02838917076587677001953125">
        <ele>2252.60009765625</ele>
        <time>2021-08-22T10:00:57.000Z</time>
      </trkpt>
      <trkpt lat="42.65647427178919315338134765625" lon="0.02839813940227031707763671875">
        <ele>2252.39990234375</ele>
        <time>2021-08-22T10:00:58.000Z</time>
      </trkpt>
      <trkpt lat="42.656461782753467559814453125" lon="0.02840920351445674896240234375">
        <ele>2252</ele>
        <time>2021-08-22T10:00:59.000Z</time>
      </trkpt>
      <trkpt lat="42.65643437393009662628173828125" lon="0.028432421386241912841796875">
        <ele>2251.199951171875</ele>
        <time>2021-08-22T10:01:01.000Z</time>
      </trkpt>
      <trkpt lat="42.6564103178679943084716796875" lon="0.0284503586590290069580078125">
        <ele>2250.800048828125</ele>
        <time>2021-08-22T10:01:03.000Z</time>
      </trkpt>
      <trkpt lat="42.6563714258372783660888671875" lon="0.02846435643732547760009765625">
        <ele>2250.199951171875</ele>
        <time>2021-08-22T10:01:06.000Z</time>
      </trkpt>
      <trkpt lat="42.656363211572170257568359375" lon="0.02846695482730865478515625">
        <ele>2250</ele>
        <time>2021-08-22T10:01:07.000Z</time>
      </trkpt>
      <trkpt lat="42.65631367452442646026611328125" lon="0.02851883880794048309326171875">
        <ele>2249.199951171875</ele>
        <time>2021-08-22T10:01:14.000Z</time>
      </trkpt>
      <trkpt lat="42.65629674308001995086669921875" lon="0.0285469181835651397705078125">
        <ele>2249</ele>
        <time>2021-08-22T10:01:16.000Z</time>
      </trkpt>
      <trkpt lat="42.656261622905731201171875" lon="0.02860911190509796142578125">
        <ele>2248.60009765625</ele>
        <time>2021-08-22T10:01:21.000Z</time>
      </trkpt>
      <trkpt lat="42.65624628402292728424072265625" lon="0.02862880937755107879638671875">
        <ele>2248.60009765625</ele>
        <time>2021-08-22T10:01:23.000Z</time>
      </trkpt>
      <trkpt lat="42.65624024905264377593994140625" lon="0.02863568253815174102783203125">
        <ele>2248.39990234375</ele>
        <time>2021-08-22T10:01:24.000Z</time>
      </trkpt>
      <trkpt lat="42.6561625488102436065673828125" lon="0.0287313200533390045166015625">
        <ele>2248</ele>
        <time>2021-08-22T10:01:36.000Z</time>
      </trkpt>
      <trkpt lat="42.6561441086232662200927734375" lon="0.02876442857086658477783203125">
        <ele>2248.39990234375</ele>
        <time>2021-08-22T10:01:42.000Z</time>
      </trkpt>
      <trkpt lat="42.65614201314747333526611328125" lon="0.02879108302295207977294921875">
        <ele>2249</ele>
        <time>2021-08-22T10:01:44.000Z</time>
      </trkpt>
      <trkpt lat="42.65614385716617107391357421875" lon="0.0288205035030841827392578125">
        <ele>2249.60009765625</ele>
        <time>2021-08-22T10:01:46.000Z</time>
      </trkpt>
      <trkpt lat="42.65613245777785778045654296875" lon="0.0288768298923969268798828125">
        <ele>2251</ele>
        <time>2021-08-22T10:01:52.000Z</time>
      </trkpt>
      <trkpt lat="42.6561047136783599853515625" lon="0.0289435498416423797607421875">
        <ele>2253</ele>
        <time>2021-08-22T10:01:59.000Z</time>
      </trkpt>
      <trkpt lat="42.65604277141392230987548828125" lon="0.02900297753512859344482421875">
        <ele>2256.199951171875</ele>
        <time>2021-08-22T10:02:05.000Z</time>
      </trkpt>
      <trkpt lat="42.656003125011920928955078125" lon="0.02904572524130344390869140625">
        <ele>2258.60009765625</ele>
        <time>2021-08-22T10:02:11.000Z</time>
      </trkpt>
      <trkpt lat="42.655997090041637420654296875" lon="0.02904304303228855133056640625">
        <ele>2258.60009765625</ele>
        <time>2021-08-22T10:02:31.000Z</time>
      </trkpt>
      <trkpt lat="42.65597973950207233428955078125" lon="0.0290699489414691925048828125">
        <ele>2259.60009765625</ele>
        <time>2021-08-22T10:02:36.000Z</time>
      </trkpt>
      <trkpt lat="42.655929364264011383056640625" lon="0.0291209109127521514892578125">
        <ele>2261.800048828125</ele>
        <time>2021-08-22T10:02:41.000Z</time>
      </trkpt>
      <trkpt lat="42.65583775006234645843505859375" lon="0.02917505800724029541015625">
        <ele>2264.199951171875</ele>
        <time>2021-08-22T10:02:48.000Z</time>
      </trkpt>
      <trkpt lat="42.6557206548750400543212890625" lon="0.0291460566222667694091796875">
        <ele>2264.800048828125</ele>
        <time>2021-08-22T10:02:56.000Z</time>
      </trkpt>
      <trkpt lat="42.65566541813313961029052734375" lon="0.02913951873779296875">
        <ele>2266</ele>
        <time>2021-08-22T10:03:00.000Z</time>
      </trkpt>
      <trkpt lat="42.65534900128841400146484375" lon="0.0292454659938812255859375">
        <ele>2268.199951171875</ele>
        <time>2021-08-22T10:03:48.000Z</time>
      </trkpt>
      <trkpt lat="42.65532393939793109893798828125" lon="0.02924588508903980255126953125">
        <ele>2267.60009765625</ele>
        <time>2021-08-22T10:04:11.000Z</time>
      </trkpt>
      <trkpt lat="42.6553241908550262451171875" lon="0.0292516686022281646728515625">
        <ele>2267.800048828125</ele>
        <time>2021-08-22T10:04:25.000Z</time>
      </trkpt>
      <trkpt lat="42.65532486140727996826171875" lon="0.0292526744306087493896484375">
        <ele>2267.800048828125</ele>
        <time>2021-08-22T10:04:32.000Z</time>
      </trkpt>
      <trkpt lat="42.6553230173885822296142578125" lon="0.02925359643995761871337890625">
        <ele>2267.800048828125</ele>
        <time>2021-08-22T10:04:43.000Z</time>
      </trkpt>
      <trkpt lat="42.65532310120761394500732421875" lon="0.02941134385764598846435546875">
        <ele>2273</ele>
        <time>2021-08-22T10:05:02.000Z</time>
      </trkpt>
      <trkpt lat="42.65532997436821460723876953125" lon="0.029433555901050567626953125">
        <ele>2274</ele>
        <time>2021-08-22T10:05:05.000Z</time>
      </trkpt>
      <trkpt lat="42.6553313992917537689208984375" lon="0.02944973297417163848876953125">
        <ele>2274.60009765625</ele>
        <time>2021-08-22T10:05:07.000Z</time>
      </trkpt>
      <trkpt lat="42.6553320698440074920654296875" lon="0.0294638983905315399169921875">
        <ele>2275.199951171875</ele>
        <time>2021-08-22T10:05:09.000Z</time>
      </trkpt>
      <trkpt lat="42.6553268730640411376953125" lon="0.02947739325463771820068359375">
        <ele>2275.60009765625</ele>
        <time>2021-08-22T10:05:11.000Z</time>
      </trkpt>
      <trkpt lat="42.655326537787914276123046875" lon="0.02948527224361896514892578125">
        <ele>2275.800048828125</ele>
        <time>2021-08-22T10:05:13.000Z</time>
      </trkpt>
      <trkpt lat="42.65533282421529293060302734375" lon="0.02950304187834262847900390625">
        <ele>2276.800048828125</ele>
        <time>2021-08-22T10:05:17.000Z</time>
      </trkpt>
      <trkpt lat="42.6553367637097835540771484375" lon="0.02951360307633876800537109375">
        <ele>2277.199951171875</ele>
        <time>2021-08-22T10:05:18.000Z</time>
      </trkpt>
      <trkpt lat="42.65533424913883209228515625" lon="0.0295319594442844390869140625">
        <ele>2277.800048828125</ele>
        <time>2021-08-22T10:05:21.000Z</time>
      </trkpt>
      <trkpt lat="42.6553186587989330291748046875" lon="0.02953958697617053985595703125">
        <ele>2278</ele>
        <time>2021-08-22T10:05:25.000Z</time>
      </trkpt>
      <trkpt lat="42.655317150056362152099609375" lon="0.02957361750304698944091796875">
        <ele>2279.39990234375</ele>
        <time>2021-08-22T10:05:31.000Z</time>
      </trkpt>
      <trkpt lat="42.65531773678958415985107421875" lon="0.02960781566798686981201171875">
        <ele>2280.60009765625</ele>
        <time>2021-08-22T10:05:36.000Z</time>
      </trkpt>
      <trkpt lat="42.6553240232169628143310546875" lon="0.02961418591439723968505859375">
        <ele>2280.800048828125</ele>
        <time>2021-08-22T10:05:37.000Z</time>
      </trkpt>
      <trkpt lat="42.65534221194684505462646484375" lon="0.0296308659017086029052734375">
        <ele>2280.800048828125</ele>
        <time>2021-08-22T10:05:40.000Z</time>
      </trkpt>
      <trkpt lat="42.65535143204033374786376953125" lon="0.02964704297482967376708984375">
        <ele>2281.199951171875</ele>
        <time>2021-08-22T10:05:42.000Z</time>
      </trkpt>
      <trkpt lat="42.65535495243966579437255859375" lon="0.02966129221022129058837890625">
        <ele>2281.60009765625</ele>
        <time>2021-08-22T10:05:44.000Z</time>
      </trkpt>
      <trkpt lat="42.65535763464868068695068359375" lon="0.02966984175145626068115234375">
        <ele>2281.800048828125</ele>
        <time>2021-08-22T10:05:45.000Z</time>
      </trkpt>
      <trkpt lat="42.6553967781364917755126953125" lon="0.02986614592373371124267578125">
        <ele>2288</ele>
        <time>2021-08-22T10:06:15.000Z</time>
      </trkpt>
      <trkpt lat="42.6554199121892452239990234375" lon="0.030024312436580657958984375">
        <ele>2288.199951171875</ele>
        <time>2021-08-22T10:07:09.000Z</time>
      </trkpt>
      <trkpt lat="42.65540532767772674560546875" lon="0.030053816735744476318359375">
        <ele>2289</ele>
        <time>2021-08-22T10:07:16.000Z</time>
      </trkpt>
      <trkpt lat="42.6553558744490146636962890625" lon="0.0300761125981807708740234375">
        <ele>2291</ele>
        <time>2021-08-22T10:07:22.000Z</time>
      </trkpt>
      <trkpt lat="42.6553590595722198486328125" lon="0.030140317976474761962890625">
        <ele>2291.60009765625</ele>
        <time>2021-08-22T10:07:30.000Z</time>
      </trkpt>
      <trkpt lat="42.65534120611846446990966796875" lon="0.03018222749233245849609375">
        <ele>2293.800048828125</ele>
        <time>2021-08-22T10:07:36.000Z</time>
      </trkpt>
      <trkpt lat="42.6553293876349925994873046875" lon="0.030182562768459320068359375">
        <ele>2294</ele>
        <time>2021-08-22T10:07:38.000Z</time>
      </trkpt>
      <trkpt lat="42.6553122885525226593017578125" lon="0.030176527798175811767578125">
        <ele>2294.199951171875</ele>
        <time>2021-08-22T10:07:41.000Z</time>
      </trkpt>
      <trkpt lat="42.65528705902397632598876953125" lon="0.03019832074642181396484375">
        <ele>2296</ele>
        <time>2021-08-22T10:07:45.000Z</time>
      </trkpt>
      <trkpt lat="42.655280269682407379150390625" lon="0.03022975288331508636474609375">
        <ele>2297.199951171875</ele>
        <time>2021-08-22T10:07:49.000Z</time>
      </trkpt>
      <trkpt lat="42.65528068877756595611572265625" lon="0.03024316392838954925537109375">
        <ele>2297.60009765625</ele>
        <time>2021-08-22T10:07:52.000Z</time>
      </trkpt>
      <trkpt lat="42.65528722666203975677490234375" lon="0.03027535043656826019287109375">
        <ele>2298.199951171875</ele>
        <time>2021-08-22T10:07:56.000Z</time>
      </trkpt>
      <trkpt lat="42.65528638847172260284423828125" lon="0.03029630519449710845947265625">
        <ele>2299</ele>
        <time>2021-08-22T10:07:58.000Z</time>
      </trkpt>
      <trkpt lat="42.65526107512414455413818359375" lon="0.030313320457935333251953125">
        <ele>2300.60009765625</ele>
        <time>2021-08-22T10:08:03.000Z</time>
      </trkpt>
      <trkpt lat="42.655227966606616973876953125" lon="0.03034994937479496002197265625">
        <ele>2303.199951171875</ele>
        <time>2021-08-22T10:08:10.000Z</time>
      </trkpt>
      <trkpt lat="42.6552169024944305419921875" lon="0.03038029186427593231201171875">
        <ele>2304.39990234375</ele>
        <time>2021-08-22T10:08:13.000Z</time>
      </trkpt>
      <trkpt lat="42.65515311621129512786865234375" lon="0.03055312670767307281494140625">
        <ele>2316</ele>
        <time>2021-08-22T10:08:40.000Z</time>
      </trkpt>
      <trkpt lat="42.6551671139895915985107421875" lon="0.03062034957110881805419921875">
        <ele>2317.39990234375</ele>
        <time>2021-08-22T10:08:48.000Z</time>
      </trkpt>
      <trkpt lat="42.655145823955535888671875" lon="0.03074741922318935394287109375">
        <ele>2319.800048828125</ele>
        <time>2021-08-22T10:09:03.000Z</time>
      </trkpt>
      <trkpt lat="42.655121348798274993896484375" lon="0.03090642392635345458984375">
        <ele>2322.39990234375</ele>
        <time>2021-08-22T10:09:24.000Z</time>
      </trkpt>
      <trkpt lat="42.6550313271582126617431640625" lon="0.03092092461884021759033203125">
        <ele>2321</ele>
        <time>2021-08-22T10:09:47.000Z</time>
      </trkpt>
      <trkpt lat="42.65499293804168701171875" lon="0.03089225850999355316162109375">
        <ele>2320</ele>
        <time>2021-08-22T10:09:52.000Z</time>
      </trkpt>
      <trkpt lat="42.65480853617191314697265625" lon="0.03078178502619266510009765625">
        <ele>2316.39990234375</ele>
        <time>2021-08-22T10:10:23.000Z</time>
      </trkpt>
      <trkpt lat="42.65476989559829235076904296875" lon="0.03093617968261241912841796875">
        <ele>2321.60009765625</ele>
        <time>2021-08-22T10:10:47.000Z</time>
      </trkpt>
      <trkpt lat="42.65477593056857585906982421875" lon="0.0309763289988040924072265625">
        <ele>2322.800048828125</ele>
        <time>2021-08-22T10:10:50.000Z</time>
      </trkpt>
      <trkpt lat="42.65482907183468341827392578125" lon="0.03110314719378948211669921875">
        <ele>2326.199951171875</ele>
        <time>2021-08-22T10:12:27.000Z</time>
      </trkpt>
      <trkpt lat="42.65482806600630283355712890625" lon="0.0311028957366943359375">
        <ele>2326.199951171875</ele>
        <time>2021-08-22T10:12:31.000Z</time>
      </trkpt>
      <trkpt lat="42.65482865273952484130859375" lon="0.0311027280986309051513671875">
        <ele>2326.199951171875</ele>
        <time>2021-08-22T10:12:32.000Z</time>
      </trkpt>
      <trkpt lat="42.654827646911144256591796875" lon="0.03110297955572605133056640625">
        <ele>2326.199951171875</ele>
        <time>2021-08-22T10:13:00.000Z</time>
      </trkpt>
      <trkpt lat="42.65479219146072864532470703125" lon="0.0311684422194957733154296875">
        <ele>2328.39990234375</ele>
        <time>2021-08-22T10:13:10.000Z</time>
      </trkpt>
      <trkpt lat="42.65475212596356868743896484375" lon="0.0312774069607257843017578125">
        <ele>2332</ele>
        <time>2021-08-22T10:13:20.000Z</time>
      </trkpt>
      <trkpt lat="42.6547359488904476165771484375" lon="0.03133532591164112091064453125">
        <ele>2334.60009765625</ele>
        <time>2021-08-22T10:13:26.000Z</time>
      </trkpt>
      <trkpt lat="42.65475195832550525665283203125" lon="0.03137740306556224822998046875">
        <ele>2335.39990234375</ele>
        <time>2021-08-22T10:13:30.000Z</time>
      </trkpt>
      <trkpt lat="42.6547540538012981414794921875" lon="0.03141948021948337554931640625">
        <ele>2336.60009765625</ele>
        <time>2021-08-22T10:13:34.000Z</time>
      </trkpt>
      <trkpt lat="42.6547040976583957672119140625" lon="0.03159105777740478515625">
        <ele>2341.39990234375</ele>
        <time>2021-08-22T10:13:51.000Z</time>
      </trkpt>
      <trkpt lat="42.6546997390687465667724609375" lon="0.0315996073186397552490234375">
        <ele>2341.60009765625</ele>
        <time>2021-08-22T10:13:52.000Z</time>
      </trkpt>
      <trkpt lat="42.65464399941265583038330078125" lon="0.03170848824083805084228515625">
        <ele>2343.800048828125</ele>
        <time>2021-08-22T10:14:01.000Z</time>
      </trkpt>
      <trkpt lat="42.65460158698260784149169921875" lon="0.0317813269793987274169921875">
        <ele>2343.60009765625</ele>
        <time>2021-08-22T10:14:07.000Z</time>
      </trkpt>
      <trkpt lat="42.6545964740216732025146484375" lon="0.03179599530994892120361328125">
        <ele>2343.60009765625</ele>
        <time>2021-08-22T10:14:08.000Z</time>
      </trkpt>
      <trkpt lat="42.65457208268344402313232421875" lon="0.03196447156369686126708984375">
        <ele>2343.60009765625</ele>
        <time>2021-08-22T10:14:18.000Z</time>
      </trkpt>
      <trkpt lat="42.6545659638941287994384765625" lon="0.03199431113898754119873046875">
        <ele>2343.39990234375</ele>
        <time>2021-08-22T10:14:20.000Z</time>
      </trkpt>
      <trkpt lat="42.65444769524037837982177734375" lon="0.03228851594030857086181640625">
        <ele>2339.800048828125</ele>
        <time>2021-08-22T10:14:44.000Z</time>
      </trkpt>
      <trkpt lat="42.65444953925907611846923828125" lon="0.03231584094464778900146484375">
        <ele>2339.800048828125</ele>
        <time>2021-08-22T10:15:36.000Z</time>
      </trkpt>
      <trkpt lat="42.654449455440044403076171875" lon="0.03231667913496494293212890625">
        <ele>2339.800048828125</ele>
        <time>2021-08-22T10:15:43.000Z</time>
      </trkpt>
      <trkpt lat="42.654449455440044403076171875" lon="0.0323160924017429351806640625">
        <ele>2339.800048828125</ele>
        <time>2021-08-22T10:15:58.000Z</time>
      </trkpt>
      <trkpt lat="42.65444953925907611846923828125" lon="0.03231600858271121978759765625">
        <ele>2339.800048828125</ele>
        <time>2021-08-22T10:16:03.000Z</time>
      </trkpt>
      <trkpt lat="42.65444953925907611846923828125" lon="0.03231592476367950439453125">
        <ele>2339.800048828125</ele>
        <time>2021-08-22T10:16:06.000Z</time>
      </trkpt>
      <trkpt lat="42.65444953925907611846923828125" lon="0.03231584094464778900146484375">
        <ele>2339.800048828125</ele>
        <time>2021-08-22T10:16:07.000Z</time>
      </trkpt>
      <trkpt lat="42.6544496230781078338623046875" lon="0.0323150865733623504638671875">
        <ele>2339.800048828125</ele>
        <time>2021-08-22T10:16:25.000Z</time>
      </trkpt>
      <trkpt lat="42.654449455440044403076171875" lon="0.03231366164982318878173828125">
        <ele>2339.800048828125</ele>
        <time>2021-08-22T10:16:45.000Z</time>
      </trkpt>
      <trkpt lat="42.6544496230781078338623046875" lon="0.03231366164982318878173828125">
        <ele>2339.800048828125</ele>
        <time>2021-08-22T10:16:55.000Z</time>
      </trkpt>
      <trkpt lat="42.654449455440044403076171875" lon="0.0323140807449817657470703125">
        <ele>2339.800048828125</ele>
        <time>2021-08-22T10:17:10.000Z</time>
      </trkpt>
      <trkpt lat="42.65444953925907611846923828125" lon="0.03231399692595005035400390625">
        <ele>2339.800048828125</ele>
        <time>2021-08-22T10:17:11.000Z</time>
      </trkpt>
      <trkpt lat="42.65444953925907611846923828125" lon="0.03231399692595005035400390625">
        <ele>2339.800048828125</ele>
        <time>2021-08-22T10:17:12.000Z</time>
      </trkpt>
      <trkpt lat="42.65446119010448455810546875" lon="0.03231282345950603485107421875">
        <ele>2340</ele>
        <time>2021-08-22T10:17:40.000Z</time>
      </trkpt>
      <trkpt lat="42.6544633693993091583251953125" lon="0.0323139131069183349609375">
        <ele>2340</ele>
        <time>2021-08-22T10:17:49.000Z</time>
      </trkpt>
      <trkpt lat="42.6544838212430477142333984375" lon="0.0323110632598400115966796875">
        <ele>2340.199951171875</ele>
        <time>2021-08-22T10:17:59.000Z</time>
      </trkpt>
      <trkpt lat="42.654491029679775238037109375" lon="0.03230729140341281890869140625">
        <ele>2340.39990234375</ele>
        <time>2021-08-22T10:18:05.000Z</time>
      </trkpt>
      <trkpt lat="42.65450636856257915496826171875" lon="0.03232321701943874359130859375">
        <ele>2340.60009765625</ele>
        <time>2021-08-22T10:18:27.000Z</time>
      </trkpt>
      <trkpt lat="42.6544979028403759002685546875" lon="0.0323219597339630126953125">
        <ele>2340.39990234375</ele>
        <time>2021-08-22T10:18:29.000Z</time>
      </trkpt>
      <trkpt lat="42.6544838212430477142333984375" lon="0.03231852315366268157958984375">
        <ele>2340.199951171875</ele>
        <time>2021-08-22T10:18:47.000Z</time>
      </trkpt>
      <trkpt lat="42.65448390506207942962646484375" lon="0.03231860697269439697265625">
        <ele>2340.199951171875</ele>
        <time>2021-08-22T10:18:59.000Z</time>
      </trkpt>
      <trkpt lat="42.65448390506207942962646484375" lon="0.03231860697269439697265625">
        <ele>2340.199951171875</ele>
        <time>2021-08-22T10:19:00.000Z</time>
      </trkpt>
      <trkpt lat="42.65448390506207942962646484375" lon="0.03231860697269439697265625">
        <ele>2340.199951171875</ele>
        <time>2021-08-22T10:19:03.000Z</time>
      </trkpt>
      <trkpt lat="42.65448390506207942962646484375" lon="0.03231860697269439697265625">
        <ele>2340.199951171875</ele>
        <time>2021-08-22T10:19:06.000Z</time>
      </trkpt>
      <trkpt lat="42.6544251479208469390869140625" lon="0.0323818065226078033447265625">
        <ele>2339.800048828125</ele>
        <time>2021-08-22T10:19:23.000Z</time>
      </trkpt>
      <trkpt lat="42.6543969847261905670166015625" lon="0.03241726197302341461181640625">
        <ele>2339.60009765625</ele>
        <time>2021-08-22T10:19:26.000Z</time>
      </trkpt>
      <trkpt lat="42.65429413877427577972412109375" lon="0.032471828162670135498046875">
        <ele>2339.199951171875</ele>
        <time>2021-08-22T10:19:35.000Z</time>
      </trkpt>
      <trkpt lat="42.65427536331117153167724609375" lon="0.03249554894864559173583984375">
        <ele>2339</ele>
        <time>2021-08-22T10:19:37.000Z</time>
      </trkpt>
      <trkpt lat="42.6542685739696025848388671875" lon="0.03250963054597377777099609375">
        <ele>2339</ele>
        <time>2021-08-22T10:19:38.000Z</time>
      </trkpt>
      <trkpt lat="42.65425658784806728363037109375" lon="0.0325387157499790191650390625">
        <ele>2338.800048828125</ele>
        <time>2021-08-22T10:19:40.000Z</time>
      </trkpt>
      <trkpt lat="42.65424921177327632904052734375" lon="0.03255271352827548980712890625">
        <ele>2338.60009765625</ele>
        <time>2021-08-22T10:19:41.000Z</time>
      </trkpt>
      <trkpt lat="42.654235549271106719970703125" lon="0.03258104436099529266357421875">
        <ele>2338.39990234375</ele>
        <time>2021-08-22T10:19:43.000Z</time>
      </trkpt>
      <trkpt lat="42.6541896164417266845703125" lon="0.03266670741140842437744140625">
        <ele>2338</ele>
        <time>2021-08-22T10:19:49.000Z</time>
      </trkpt>
      <trkpt lat="42.65415818430483341217041015625" lon="0.032715909183025360107421875">
        <ele>2338</ele>
        <time>2021-08-22T10:19:53.000Z</time>
      </trkpt>
      <trkpt lat="42.65415114350616931915283203125" lon="0.0327298231422901153564453125">
        <ele>2338</ele>
        <time>2021-08-22T10:19:54.000Z</time>
      </trkpt>
      <trkpt lat="42.6541294343769550323486328125" lon="0.0327660329639911651611328125">
        <ele>2337.800048828125</ele>
        <time>2021-08-22T10:19:57.000Z</time>
      </trkpt>
      <trkpt lat="42.65411275438964366912841796875" lon="0.0327895022928714752197265625">
        <ele>2337.800048828125</ele>
        <time>2021-08-22T10:19:59.000Z</time>
      </trkpt>
      <trkpt lat="42.65409909188747406005859375" lon="0.03281976096332073211669921875">
        <ele>2337.800048828125</ele>
        <time>2021-08-22T10:20:01.000Z</time>
      </trkpt>
      <trkpt lat="42.65409213490784168243408203125" lon="0.03283434547483921051025390625">
        <ele>2337.39990234375</ele>
        <time>2021-08-22T10:20:02.000Z</time>
      </trkpt>
      <trkpt lat="42.65404150821268558502197265625" lon="0.03296912647783756256103515625">
        <ele>2335.39990234375</ele>
        <time>2021-08-22T10:20:11.000Z</time>
      </trkpt>
      <trkpt lat="42.65402491204440593719482421875" lon="0.03300215117633342742919921875">
        <ele>2335.199951171875</ele>
        <time>2021-08-22T10:20:13.000Z</time>
      </trkpt>
      <trkpt lat="42.65400865115225315093994140625" lon="0.0330345891416072845458984375">
        <ele>2334.60009765625</ele>
        <time>2021-08-22T10:20:15.000Z</time>
      </trkpt>
      <trkpt lat="42.653952576220035552978515625" lon="0.03314682282507419586181640625">
        <ele>2332.800048828125</ele>
        <time>2021-08-22T10:20:22.000Z</time>
      </trkpt>
      <trkpt lat="42.65394620597362518310546875" lon="0.03316174261271953582763671875">
        <ele>2332.60009765625</ele>
        <time>2021-08-22T10:20:23.000Z</time>
      </trkpt>
      <trkpt lat="42.653932459652423858642578125" lon="0.03319124691188335418701171875">
        <ele>2332.199951171875</ele>
        <time>2021-08-22T10:20:25.000Z</time>
      </trkpt>
      <trkpt lat="42.6536929048597812652587890625" lon="0.03371310420334339141845703125">
        <ele>2319.39990234375</ele>
        <time>2021-08-22T10:21:01.000Z</time>
      </trkpt>
      <trkpt lat="42.65366834588348865509033203125" lon="0.03393706865608692169189453125">
        <ele>2314.39990234375</ele>
        <time>2021-08-22T10:21:51.000Z</time>
      </trkpt>
      <trkpt lat="42.6536731235682964324951171875" lon="0.0339473783969879150390625">
        <ele>2314.39990234375</ele>
        <time>2021-08-22T10:21:52.000Z</time>
      </trkpt>
      <trkpt lat="42.653620652854442596435546875" lon="0.03403027541935443878173828125">
        <ele>2312.39990234375</ele>
        <time>2021-08-22T10:22:03.000Z</time>
      </trkpt>
      <trkpt lat="42.65357731841504573822021484375" lon="0.03408425487577915191650390625">
        <ele>2311.60009765625</ele>
        <time>2021-08-22T10:22:16.000Z</time>
      </trkpt>
      <trkpt lat="42.6535742171108722686767578125" lon="0.0340893678367137908935546875">
        <ele>2311.39990234375</ele>
        <time>2021-08-22T10:22:17.000Z</time>
      </trkpt>
      <trkpt lat="42.65357446856796741485595703125" lon="0.03409557044506072998046875">
        <ele>2311.39990234375</ele>
        <time>2021-08-22T10:22:19.000Z</time>
      </trkpt>
      <trkpt lat="42.65356809832155704498291015625" lon="0.03411644138395786285400390625">
        <ele>2311</ele>
        <time>2021-08-22T10:22:21.000Z</time>
      </trkpt>
      <trkpt lat="42.653547227382659912109375" lon="0.0341933034360408782958984375">
        <ele>2309.39990234375</ele>
        <time>2021-08-22T10:22:30.000Z</time>
      </trkpt>
      <trkpt lat="42.653538174927234649658203125" lon="0.03435063175857067108154296875">
        <ele>2305.199951171875</ele>
        <time>2021-08-22T10:22:46.000Z</time>
      </trkpt>
      <trkpt lat="42.65340766869485378265380859375" lon="0.03456286154687404632568359375">
        <ele>2301.39990234375</ele>
        <time>2021-08-22T10:23:16.000Z</time>
      </trkpt>
      <trkpt lat="42.6533700339496135711669921875" lon="0.03462555818259716033935546875">
        <ele>2300.60009765625</ele>
        <time>2021-08-22T10:23:22.000Z</time>
      </trkpt>
      <trkpt lat="42.65327841974794864654541015625" lon="0.03474944271147251129150390625">
        <ele>2300</ele>
        <time>2021-08-22T10:23:36.000Z</time>
      </trkpt>
      <trkpt lat="42.65321957878768444061279296875" lon="0.0347763486206531524658203125">
        <ele>2299.800048828125</ele>
        <time>2021-08-22T10:23:44.000Z</time>
      </trkpt>
      <trkpt lat="42.6531852968037128448486328125" lon="0.0348058529198169708251953125">
        <ele>2299.199951171875</ele>
        <time>2021-08-22T10:23:50.000Z</time>
      </trkpt>
      <trkpt lat="42.65317372977733612060546875" lon="0.03483158536255359649658203125">
        <ele>2298.60009765625</ele>
        <time>2021-08-22T10:23:53.000Z</time>
      </trkpt>
      <trkpt lat="42.653161995112895965576171875" lon="0.034858994185924530029296875">
        <ele>2297.800048828125</ele>
        <time>2021-08-22T10:23:56.000Z</time>
      </trkpt>
      <trkpt lat="42.65314799733459949493408203125" lon="0.034895874559879302978515625">
        <ele>2297</ele>
        <time>2021-08-22T10:24:00.000Z</time>
      </trkpt>
      <trkpt lat="42.6531450636684894561767578125" lon="0.034923367202281951904296875">
        <ele>2296.199951171875</ele>
        <time>2021-08-22T10:24:02.000Z</time>
      </trkpt>
      <trkpt lat="42.65313081443309783935546875" lon="0.0350331701338291168212890625">
        <ele>2293.60009765625</ele>
        <time>2021-08-22T10:24:15.000Z</time>
      </trkpt>
      <trkpt lat="42.65312410891056060791015625" lon="0.03506728447973728179931640625">
        <ele>2292.800048828125</ele>
        <time>2021-08-22T10:24:18.000Z</time>
      </trkpt>
      <trkpt lat="42.6531132124364376068115234375" lon="0.03510550595819950103759765625">
        <ele>2292</ele>
        <time>2021-08-22T10:24:23.000Z</time>
      </trkpt>
      <trkpt lat="42.653033919632434844970703125" lon="0.03524355590343475341796875">
        <ele>2287.800048828125</ele>
        <time>2021-08-22T10:24:35.000Z</time>
      </trkpt>
      <trkpt lat="42.65299226157367229461669921875" lon="0.03534791059792041778564453125">
        <ele>2284.800048828125</ele>
        <time>2021-08-22T10:24:50.000Z</time>
      </trkpt>
      <trkpt lat="42.65297122299671173095703125" lon="0.0355508364737033843994140625">
        <ele>2279.800048828125</ele>
        <time>2021-08-22T10:25:13.000Z</time>
      </trkpt>
      <trkpt lat="42.6526421494781970977783203125" lon="0.0358170457184314727783203125">
        <ele>2275.60009765625</ele>
        <time>2021-08-22T10:25:50.000Z</time>
      </trkpt>
      <trkpt lat="42.65263167209923267364501953125" lon="0.03588016144931316375732421875">
        <ele>2274.60009765625</ele>
        <time>2021-08-22T10:26:03.000Z</time>
      </trkpt>
      <trkpt lat="42.652695961296558380126953125" lon="0.0359568558633327484130859375">
        <ele>2272.199951171875</ele>
        <time>2021-08-22T10:26:27.000Z</time>
      </trkpt>
      <trkpt lat="42.6526795327663421630859375" lon="0.03600262105464935302734375">
        <ele>2271.800048828125</ele>
        <time>2021-08-22T10:26:31.000Z</time>
      </trkpt>
      <trkpt lat="42.6523839868605136871337890625" lon="0.0364540703594684600830078125">
        <ele>2266.60009765625</ele>
        <time>2021-08-22T10:27:06.000Z</time>
      </trkpt>
      <trkpt lat="42.6523377187550067901611328125" lon="0.03652540035545825958251953125">
        <ele>2265.39990234375</ele>
        <time>2021-08-22T10:27:12.000Z</time>
      </trkpt>
      <trkpt lat="42.6523253135383129119873046875" lon="0.0365412421524524688720703125">
        <ele>2265</ele>
        <time>2021-08-22T10:27:14.000Z</time>
      </trkpt>
      <trkpt lat="42.652305029332637786865234375" lon="0.03664593212306499481201171875">
        <ele>2262</ele>
        <time>2021-08-22T10:27:20.000Z</time>
      </trkpt>
      <trkpt lat="42.652282230556011199951171875" lon="0.036782138049602508544921875">
        <ele>2257.800048828125</ele>
        <time>2021-08-22T10:27:32.000Z</time>
      </trkpt>
      <trkpt lat="42.65217569656670093536376953125" lon="0.03699294291436672210693359375">
        <ele>2254.199951171875</ele>
        <time>2021-08-22T10:27:56.000Z</time>
      </trkpt>
      <trkpt lat="42.65205583535134792327880859375" lon="0.03723417408764362335205078125">
        <ele>2252</ele>
        <time>2021-08-22T10:28:13.000Z</time>
      </trkpt>
      <trkpt lat="42.65201526693999767303466796875" lon="0.03730810247361660003662109375">
        <ele>2251.60009765625</ele>
        <time>2021-08-22T10:28:19.000Z</time>
      </trkpt>
      <trkpt lat="42.65200017951428890228271484375" lon="0.0373291410505771636962890625">
        <ele>2251.39990234375</ele>
        <time>2021-08-22T10:28:21.000Z</time>
      </trkpt>
      <trkpt lat="42.65198827721178531646728515625" lon="0.03737197257578372955322265625">
        <ele>2251</ele>
        <time>2021-08-22T10:28:25.000Z</time>
      </trkpt>
      <trkpt lat="42.651837654411792755126953125" lon="0.037517063319683074951171875">
        <ele>2250.60009765625</ele>
        <time>2021-08-22T10:28:44.000Z</time>
      </trkpt>
      <trkpt lat="42.651731707155704498291015625" lon="0.0375705398619174957275390625">
        <ele>2251.60009765625</ele>
        <time>2021-08-22T10:28:53.000Z</time>
      </trkpt>
      <trkpt lat="42.65167663805186748504638671875" lon="0.03757682628929615020751953125">
        <ele>2252.39990234375</ele>
        <time>2021-08-22T10:29:02.000Z</time>
      </trkpt>
      <trkpt lat="42.651665993034839630126953125" lon="0.03757967613637447357177734375">
        <ele>2252.60009765625</ele>
        <time>2021-08-22T10:29:03.000Z</time>
      </trkpt>
      <trkpt lat="42.651447393000125885009765625" lon="0.037754438817501068115234375">
        <ele>2251.60009765625</ele>
        <time>2021-08-22T10:29:22.000Z</time>
      </trkpt>
      <trkpt lat="42.651041708886623382568359375" lon="0.03800312988460063934326171875">
        <ele>2250.199951171875</ele>
        <time>2021-08-22T10:29:56.000Z</time>
      </trkpt>
      <trkpt lat="42.6510039903223514556884765625" lon="0.03806448541581630706787109375">
        <ele>2248.60009765625</ele>
        <time>2021-08-22T10:30:03.000Z</time>
      </trkpt>
      <trkpt lat="42.6508749090135097503662109375" lon="0.0381851010024547576904296875">
        <ele>2246.60009765625</ele>
        <time>2021-08-22T10:30:16.000Z</time>
      </trkpt>
      <trkpt lat="42.65082000754773616790771484375" lon="0.03835198469460010528564453125">
        <ele>2241.60009765625</ele>
        <time>2021-08-22T10:30:40.000Z</time>
      </trkpt>
      <trkpt lat="42.65072026289999485015869140625" lon="0.0383757054805755615234375">
        <ele>2241.800048828125</ele>
        <time>2021-08-22T10:31:04.000Z</time>
      </trkpt>
      <trkpt lat="42.65070877969264984130859375" lon="0.03838165663182735443115234375">
        <ele>2241.800048828125</ele>
        <time>2021-08-22T10:31:05.000Z</time>
      </trkpt>
      <trkpt lat="42.6506522856652736663818359375" lon="0.03840998746454715728759765625">
        <ele>2241.60009765625</ele>
        <time>2021-08-22T10:31:27.000Z</time>
      </trkpt>
      <trkpt lat="42.65065848827362060546875" lon="0.0384650565683841705322265625">
        <ele>2239.800048828125</ele>
        <time>2021-08-22T10:31:33.000Z</time>
      </trkpt>
      <trkpt lat="42.65052798204123973846435546875" lon="0.03864417783915996551513671875">
        <ele>2238.199951171875</ele>
        <time>2021-08-22T10:31:47.000Z</time>
      </trkpt>
      <trkpt lat="42.65043444000184535980224609375" lon="0.038905441761016845703125">
        <ele>2235.39990234375</ele>
        <time>2021-08-22T10:32:05.000Z</time>
      </trkpt>
      <trkpt lat="42.65035162679851055145263671875" lon="0.03906302154064178466796875">
        <ele>2234</ele>
        <time>2021-08-22T10:32:21.000Z</time>
      </trkpt>
      <trkpt lat="42.65017862431704998016357421875" lon="0.03932881169021129608154296875">
        <ele>2228.800048828125</ele>
        <time>2021-08-22T10:32:45.000Z</time>
      </trkpt>
      <trkpt lat="42.65008340589702129364013671875" lon="0.0396127067506313323974609375">
        <ele>2226</ele>
        <time>2021-08-22T10:33:04.000Z</time>
      </trkpt>
      <trkpt lat="42.64989766292273998260498046875" lon="0.039918981492519378662109375">
        <ele>2224</ele>
        <time>2021-08-22T10:33:27.000Z</time>
      </trkpt>
      <trkpt lat="42.6497906260192394256591796875" lon="0.04016398452222347259521484375">
        <ele>2220.39990234375</ele>
        <time>2021-08-22T10:33:46.000Z</time>
      </trkpt>
      <trkpt lat="42.649748884141445159912109375" lon="0.0403726100921630859375">
        <ele>2216.39990234375</ele>
        <time>2021-08-22T10:34:00.000Z</time>
      </trkpt>
      <trkpt lat="42.64959138818085193634033203125" lon="0.0408606044948101043701171875">
        <ele>2215.60009765625</ele>
        <time>2021-08-22T10:34:30.000Z</time>
      </trkpt>
      <trkpt lat="42.64934713952243328094482421875" lon="0.04137047566473484039306640625">
        <ele>2213.800048828125</ele>
        <time>2021-08-22T10:35:05.000Z</time>
      </trkpt>
      <trkpt lat="42.64928192831575870513916015625" lon="0.0415085256099700927734375">
        <ele>2211.60009765625</ele>
        <time>2021-08-22T10:35:14.000Z</time>
      </trkpt>
      <trkpt lat="42.6490209996700286865234375" lon="0.04200917668640613555908203125">
        <ele>2208.39990234375</ele>
        <time>2021-08-22T10:35:47.000Z</time>
      </trkpt>
      <trkpt lat="42.64886350370943546295166015625" lon="0.04219584167003631591796875">
        <ele>2208.800048828125</ele>
        <time>2021-08-22T10:36:02.000Z</time>
      </trkpt>
      <trkpt lat="42.64882176183164119720458984375" lon="0.0422509945929050445556640625">
        <ele>2208.800048828125</ele>
        <time>2021-08-22T10:36:06.000Z</time>
      </trkpt>
      <trkpt lat="42.64880172908306121826171875" lon="0.04227404482662677764892578125">
        <ele>2209</ele>
        <time>2021-08-22T10:36:08.000Z</time>
      </trkpt>
      <trkpt lat="42.64878069050610065460205078125" lon="0.04231276921927928924560546875">
        <ele>2209.199951171875</ele>
        <time>2021-08-22T10:36:11.000Z</time>
      </trkpt>
      <trkpt lat="42.6486106216907501220703125" lon="0.0426161102950572967529296875">
        <ele>2207.39990234375</ele>
        <time>2021-08-22T10:36:32.000Z</time>
      </trkpt>
      <trkpt lat="42.6484263874590396881103515625" lon="0.04295649938285350799560546875">
        <ele>2205</ele>
        <time>2021-08-22T10:36:58.000Z</time>
      </trkpt>
      <trkpt lat="42.648295462131500244140625" lon="0.043113492429256439208984375">
        <ele>2204</ele>
        <time>2021-08-22T10:37:12.000Z</time>
      </trkpt>
      <trkpt lat="42.64802522957324981689453125" lon="0.0436021573841571807861328125">
        <ele>2199.39990234375</ele>
        <time>2021-08-22T10:37:49.000Z</time>
      </trkpt>
      <trkpt lat="42.64800251461565494537353515625" lon="0.0436742417514324188232421875">
        <ele>2198.60009765625</ele>
        <time>2021-08-22T10:37:57.000Z</time>
      </trkpt>
      <trkpt lat="42.64788751490414142608642578125" lon="0.0439749844372272491455078125">
        <ele>2194.800048828125</ele>
        <time>2021-08-22T10:38:24.000Z</time>
      </trkpt>
      <trkpt lat="42.64781274832785129547119140625" lon="0.0441074185073375701904296875">
        <ele>2193.800048828125</ele>
        <time>2021-08-22T10:38:43.000Z</time>
      </trkpt>
      <trkpt lat="42.6476572640240192413330078125" lon="0.04431545734405517578125">
        <ele>2191.199951171875</ele>
        <time>2021-08-22T10:39:18.000Z</time>
      </trkpt>
      <trkpt lat="42.64763169921934604644775390625" lon="0.0443890504539012908935546875">
        <ele>2190.39990234375</ele>
        <time>2021-08-22T10:39:27.000Z</time>
      </trkpt>
      <trkpt lat="42.6475989259779453277587890625" lon="0.0444725342094898223876953125">
        <ele>2189.800048828125</ele>
        <time>2021-08-22T10:39:33.000Z</time>
      </trkpt>
      <trkpt lat="42.6473991014063358306884765625" lon="0.04471502266824245452880859375">
        <ele>2187.39990234375</ele>
        <time>2021-08-22T10:40:11.000Z</time>
      </trkpt>
      <trkpt lat="42.64739415608346462249755859375" lon="0.0447494722902774810791015625">
        <ele>2186.800048828125</ele>
        <time>2021-08-22T10:40:36.000Z</time>
      </trkpt>
      <trkpt lat="42.64739734120666980743408203125" lon="0.04475207068026065826416015625">
        <ele>2186.60009765625</ele>
        <time>2021-08-22T10:40:48.000Z</time>
      </trkpt>
      <trkpt lat="42.64739600010216236114501953125" lon="0.04476162604987621307373046875">
        <ele>2186.39990234375</ele>
        <time>2021-08-22T10:40:56.000Z</time>
      </trkpt>
      <trkpt lat="42.6473820023238658905029296875" lon="0.04476531408727169036865234375">
        <ele>2186.39990234375</ele>
        <time>2021-08-22T10:41:08.000Z</time>
      </trkpt>
      <trkpt lat="42.64739331789314746856689453125" lon="0.0447695888578891754150390625">
        <ele>2186.39990234375</ele>
        <time>2021-08-22T10:41:14.000Z</time>
      </trkpt>
      <trkpt lat="42.6474175415933132171630859375" lon="0.0447927229106426239013671875">
        <ele>2185.60009765625</ele>
        <time>2021-08-22T10:41:23.000Z</time>
      </trkpt>
      <trkpt lat="42.6474108360707759857177734375" lon="0.0447866879403591156005859375">
        <ele>2185.800048828125</ele>
        <time>2021-08-22T10:41:30.000Z</time>
      </trkpt>
      <trkpt lat="42.64741175808012485504150390625" lon="0.04477746784687042236328125">
        <ele>2186</ele>
        <time>2021-08-22T10:41:37.000Z</time>
      </trkpt>
      <trkpt lat="42.64740656130015850067138671875" lon="0.04477218724787235260009765625">
        <ele>2186.199951171875</ele>
        <time>2021-08-22T10:41:40.000Z</time>
      </trkpt>
      <trkpt lat="42.64732575975358486175537109375" lon="0.0448007695376873016357421875">
        <ele>2186.199951171875</ele>
        <time>2021-08-22T10:41:59.000Z</time>
      </trkpt>
      <trkpt lat="42.64729977585375308990478515625" lon="0.04483438096940517425537109375">
        <ele>2185.60009765625</ele>
        <time>2021-08-22T10:42:05.000Z</time>
      </trkpt>
      <trkpt lat="42.64727630652487277984619140625" lon="0.04484997130930423736572265625">
        <ele>2185.39990234375</ele>
        <time>2021-08-22T10:42:09.000Z</time>
      </trkpt>
      <trkpt lat="42.64725602231919765472412109375" lon="0.044863633811473846435546875">
        <ele>2185.199951171875</ele>
        <time>2021-08-22T10:42:13.000Z</time>
      </trkpt>
      <trkpt lat="42.647251747548580169677734375" lon="0.04486866295337677001953125">
        <ele>2185.199951171875</ele>
        <time>2021-08-22T10:42:14.000Z</time>
      </trkpt>
      <trkpt lat="42.64724730513989925384521484375" lon="0.04487494938075542449951171875">
        <ele>2185</ele>
        <time>2021-08-22T10:42:15.000Z</time>
      </trkpt>
      <trkpt lat="42.64724043197929859161376953125" lon="0.04488048143684864044189453125">
        <ele>2184.60009765625</ele>
        <time>2021-08-22T10:42:16.000Z</time>
      </trkpt>
      <trkpt lat="42.64722735621035099029541015625" lon="0.0448953174054622650146484375">
        <ele>2183.60009765625</ele>
        <time>2021-08-22T10:42:18.000Z</time>
      </trkpt>
      <trkpt lat="42.6472212374210357666015625" lon="0.04490294493734836578369140625">
        <ele>2183.199951171875</ele>
        <time>2021-08-22T10:42:19.000Z</time>
      </trkpt>
      <trkpt lat="42.6472146995365619659423828125" lon="0.04490931518375873565673828125">
        <ele>2182.800048828125</ele>
        <time>2021-08-22T10:42:20.000Z</time>
      </trkpt>
      <trkpt lat="42.64719852246344089508056640625" lon="0.0449264980852603912353515625">
        <ele>2181.60009765625</ele>
        <time>2021-08-22T10:42:22.000Z</time>
      </trkpt>
      <trkpt lat="42.64718226157128810882568359375" lon="0.04492959938943386077880859375">
        <ele>2181.60009765625</ele>
        <time>2021-08-22T10:42:27.000Z</time>
      </trkpt>
      <trkpt lat="42.64718879945576190948486328125" lon="0.04493571817874908447265625">
        <ele>2181</ele>
        <time>2021-08-22T10:42:31.000Z</time>
      </trkpt>
      <trkpt lat="42.64718494378030300140380859375" lon="0.04493798129260540008544921875">
        <ele>2181</ele>
        <time>2021-08-22T10:42:33.000Z</time>
      </trkpt>
      <trkpt lat="42.6471741311252117156982421875" lon="0.04494720138609409332275390625">
        <ele>2180.39990234375</ele>
        <time>2021-08-22T10:42:35.000Z</time>
      </trkpt>
      <trkpt lat="42.6471305452287197113037109375" lon="0.04495583474636077880859375">
        <ele>2180</ele>
        <time>2021-08-22T10:42:44.000Z</time>
      </trkpt>
      <trkpt lat="42.64712174423038959503173828125" lon="0.0449578464031219482421875">
        <ele>2180</ele>
        <time>2021-08-22T10:42:46.000Z</time>
      </trkpt>
      <trkpt lat="42.6471047289669513702392578125" lon="0.044972598552703857421875">
        <ele>2179</ele>
        <time>2021-08-22T10:42:53.000Z</time>
      </trkpt>
      <trkpt lat="42.646807841956615447998046875" lon="0.0451724231243133544921875">
        <ele>2175.60009765625</ele>
        <time>2021-08-22T10:45:12.000Z</time>
      </trkpt>
      <trkpt lat="42.646821923553943634033203125" lon="0.045180134475231170654296875">
        <ele>2175</ele>
        <time>2021-08-22T10:45:21.000Z</time>
      </trkpt>
      <trkpt lat="42.64680256135761737823486328125" lon="0.0451608560979366302490234375">
        <ele>2176.60009765625</ele>
        <time>2021-08-22T10:45:28.000Z</time>
      </trkpt>
      <trkpt lat="42.6467979513108730316162109375" lon="0.0451615266501903533935546875">
        <ele>2176.60009765625</ele>
        <time>2021-08-22T10:45:37.000Z</time>
      </trkpt>
      <trkpt lat="42.64679468236863613128662109375" lon="0.04517083056271076202392578125">
        <ele>2175.800048828125</ele>
        <time>2021-08-22T10:45:51.000Z</time>
      </trkpt>
      <trkpt lat="42.6468479074537754058837890625" lon="0.0452104769647121429443359375">
        <ele>2172.39990234375</ele>
        <time>2021-08-22T10:46:10.000Z</time>
      </trkpt>
      <trkpt lat="42.64685804955661296844482421875" lon="0.0452111475169658660888671875">
        <ele>2172.199951171875</ele>
        <time>2021-08-22T10:46:13.000Z</time>
      </trkpt>
      <trkpt lat="42.64686458744108676910400390625" lon="0.045208632946014404296875">
        <ele>2172.39990234375</ele>
        <time>2021-08-22T10:46:14.000Z</time>
      </trkpt>
      <trkpt lat="42.6468754000961780548095703125" lon="0.0452131591737270355224609375">
        <ele>2172</ele>
        <time>2021-08-22T10:46:18.000Z</time>
      </trkpt>
      <trkpt lat="42.64688202179968357086181640625" lon="0.0452099740505218505859375">
        <ele>2172.199951171875</ele>
        <time>2021-08-22T10:46:19.000Z</time>
      </trkpt>
      <trkpt lat="42.64688436873257160186767578125" lon="0.045208632946014404296875">
        <ele>2172.199951171875</ele>
        <time>2021-08-22T10:46:20.000Z</time>
      </trkpt>
      <trkpt lat="42.6468980312347412109375" lon="0.045210979878902435302734375">
        <ele>2172</ele>
        <time>2021-08-22T10:46:24.000Z</time>
      </trkpt>
      <trkpt lat="42.64690674841403961181640625" lon="0.04520938731729984283447265625">
        <ele>2172</ele>
        <time>2021-08-22T10:46:26.000Z</time>
      </trkpt>
      <trkpt lat="42.64690917916595935821533203125" lon="0.0452104769647121429443359375">
        <ele>2171.800048828125</ele>
        <time>2021-08-22T10:46:27.000Z</time>
      </trkpt>
      <trkpt lat="42.646912448108196258544921875" lon="0.04521341063082218170166015625">
        <ele>2171.60009765625</ele>
        <time>2021-08-22T10:46:29.000Z</time>
      </trkpt>
      <trkpt lat="42.64691823162138462066650390625" lon="0.045216344296932220458984375">
        <ele>2171.39990234375</ele>
        <time>2021-08-22T10:46:31.000Z</time>
      </trkpt>
      <trkpt lat="42.6469287090003490447998046875" lon="0.04521877504885196685791015625">
        <ele>2171</ele>
        <time>2021-08-22T10:46:48.000Z</time>
      </trkpt>
      <trkpt lat="42.646952010691165924072265625" lon="0.0452406518161296844482421875">
        <ele>2169.199951171875</ele>
        <time>2021-08-22T10:47:00.000Z</time>
      </trkpt>
      <trkpt lat="42.6471288688480854034423828125" lon="0.04541449248790740966796875">
        <ele>2150.60009765625</ele>
        <time>2021-08-22T10:48:34.000Z</time>
      </trkpt>
      <trkpt lat="42.64713197015225887298583984375" lon="0.04544927738606929779052734375">
        <ele>2147.800048828125</ele>
        <time>2021-08-22T10:48:36.000Z</time>
      </trkpt>
      <trkpt lat="42.6471126079559326171875" lon="0.04564625211060047149658203125">
        <ele>2136.60009765625</ele>
        <time>2021-08-22T10:49:33.000Z</time>
      </trkpt>
      <trkpt lat="42.64682359993457794189453125" lon="0.046120584011077880859375">
        <ele>2126.60009765625</ele>
        <time>2021-08-22T10:50:09.000Z</time>
      </trkpt>
      <trkpt lat="42.64655177481472492218017578125" lon="0.04660313017666339874267578125">
        <ele>2121.199951171875</ele>
        <time>2021-08-22T10:50:48.000Z</time>
      </trkpt>
      <trkpt lat="42.6465002261102199554443359375" lon="0.04675702191889286041259765625">
        <ele>2116.39990234375</ele>
        <time>2021-08-22T10:51:04.000Z</time>
      </trkpt>
      <trkpt lat="42.64647851698100566864013671875" lon="0.04685961641371250152587890625">
        <ele>2113</ele>
        <time>2021-08-22T10:51:23.000Z</time>
      </trkpt>
      <trkpt lat="42.646428309381008148193359375" lon="0.046972520649433135986328125">
        <ele>2111.60009765625</ele>
        <time>2021-08-22T10:51:48.000Z</time>
      </trkpt>
      <trkpt lat="42.6464103721082210540771484375" lon="0.04713621921837329864501953125">
        <ele>2105.39990234375</ele>
        <time>2021-08-22T10:52:13.000Z</time>
      </trkpt>
      <trkpt lat="42.64628808014094829559326171875" lon="0.04740511067211627960205078125">
        <ele>2097.800048828125</ele>
        <time>2021-08-22T10:52:54.000Z</time>
      </trkpt>
      <trkpt lat="42.64629528857767581939697265625" lon="0.04749999381601810455322265625">
        <ele>2092</ele>
        <time>2021-08-22T10:53:20.000Z</time>
      </trkpt>
      <trkpt lat="42.6462739147245883941650390625" lon="0.04748943261802196502685546875">
        <ele>2093.60009765625</ele>
        <time>2021-08-22T10:53:36.000Z</time>
      </trkpt>
      <trkpt lat="42.6462722383439540863037109375" lon="0.047651119530200958251953125">
        <ele>2089</ele>
        <time>2021-08-22T10:53:56.000Z</time>
      </trkpt>
      <trkpt lat="42.64624281786382198333740234375" lon="0.0479003973305225372314453125">
        <ele>2078</ele>
        <time>2021-08-22T10:54:43.000Z</time>
      </trkpt>
      <trkpt lat="42.646192274987697601318359375" lon="0.0481116212904453277587890625">
        <ele>2072</ele>
        <time>2021-08-22T10:55:11.000Z</time>
      </trkpt>
      <trkpt lat="42.64612815342843532562255859375" lon="0.04831505008041858673095703125">
        <ele>2067.199951171875</ele>
        <time>2021-08-22T10:55:26.000Z</time>
      </trkpt>
      <trkpt lat="42.646005190908908843994140625" lon="0.048451758921146392822265625">
        <ele>2070.800048828125</ele>
        <time>2021-08-22T10:55:50.000Z</time>
      </trkpt>
      <trkpt lat="42.64582003466784954071044921875" lon="0.0487731210887432098388671875">
        <ele>2076.199951171875</ele>
        <time>2021-08-22T10:56:19.000Z</time>
      </trkpt>
      <trkpt lat="42.64575515873730182647705078125" lon="0.04895810969173908233642578125">
        <ele>2078</ele>
        <time>2021-08-22T10:56:31.000Z</time>
      </trkpt>
      <trkpt lat="42.645745687186717987060546875" lon="0.04899851046502590179443359375">
        <ele>2077.39990234375</ele>
        <time>2021-08-22T10:56:34.000Z</time>
      </trkpt>
      <trkpt lat="42.6457300968468189239501953125" lon="0.04905098117887973785400390625">
        <ele>2076.800048828125</ele>
        <time>2021-08-22T10:56:38.000Z</time>
      </trkpt>
      <trkpt lat="42.6456218026578426361083984375" lon="0.049328170716762542724609375">
        <ele>2073</ele>
        <time>2021-08-22T10:57:01.000Z</time>
      </trkpt>
      <trkpt lat="42.64555969275534152984619140625" lon="0.049540735781192779541015625">
        <ele>2067.60009765625</ele>
        <time>2021-08-22T10:57:22.000Z</time>
      </trkpt>
      <trkpt lat="42.64555449597537517547607421875" lon="0.0495524704456329345703125">
        <ele>2067.199951171875</ele>
        <time>2021-08-22T10:57:28.000Z</time>
      </trkpt>
      <trkpt lat="42.6455570943653583526611328125" lon="0.04953444935381412506103515625">
        <ele>2067.800048828125</ele>
        <time>2021-08-22T10:57:46.000Z</time>
      </trkpt>
      <trkpt lat="42.64553857035934925079345703125" lon="0.04963184706866741180419921875">
        <ele>2062</ele>
        <time>2021-08-22T10:57:55.000Z</time>
      </trkpt>
      <trkpt lat="42.64552817679941654205322265625" lon="0.04974500276148319244384765625">
        <ele>2051.800048828125</ele>
        <time>2021-08-22T10:58:02.000Z</time>
      </trkpt>
      <trkpt lat="42.6454850099980831146240234375" lon="0.0498319230973720550537109375">
        <ele>2045.4000244140625</ele>
        <time>2021-08-22T10:58:08.000Z</time>
      </trkpt>
      <trkpt lat="42.64545860700309276580810546875" lon="0.04987156949937343597412109375">
        <ele>2043.5999755859375</ele>
        <time>2021-08-22T10:58:11.000Z</time>
      </trkpt>
      <trkpt lat="42.64540328644216060638427734375" lon="0.04996259696781635284423828125">
        <ele>2037.800048828125</ele>
        <time>2021-08-22T10:58:19.000Z</time>
      </trkpt>
      <trkpt lat="42.64542927034199237823486328125" lon="0.05027775652706623077392578125">
        <ele>2015</ele>
        <time>2021-08-22T10:58:56.000Z</time>
      </trkpt>
      <trkpt lat="42.64543212018907070159912109375" lon="0.05039661191403865814208984375">
        <ele>2006.4000244140625</ele>
        <time>2021-08-22T10:59:22.000Z</time>
      </trkpt>
      <trkpt lat="42.64542591758072376251220703125" lon="0.0503566302359104156494140625">
        <ele>2009.4000244140625</ele>
        <time>2021-08-22T10:59:37.000Z</time>
      </trkpt>
      <trkpt lat="42.6454327069222927093505859375" lon="0.05033760331571102142333984375">
        <ele>2010.5999755859375</ele>
        <time>2021-08-22T10:59:51.000Z</time>
      </trkpt>
      <trkpt lat="42.6454601995646953582763671875" lon="0.05028513260185718536376953125">
        <ele>2013.4000244140625</ele>
        <time>2021-08-22T11:00:03.000Z</time>
      </trkpt>
      <trkpt lat="42.64547520317137241363525390625" lon="0.0502981245517730712890625">
        <ele>2012</ele>
        <time>2021-08-22T11:00:14.000Z</time>
      </trkpt>
      <trkpt lat="42.64548408798873424530029296875" lon="0.05029384978115558624267578125">
        <ele>2012</ele>
        <time>2021-08-22T11:00:22.000Z</time>
      </trkpt>
      <trkpt lat="42.64548392035067081451416015625" lon="0.05027993582189083099365234375">
        <ele>2013.199951171875</ele>
        <time>2021-08-22T11:00:24.000Z</time>
      </trkpt>
      <trkpt lat="42.645484842360019683837890625" lon="0.05027239210903644561767578125">
        <ele>2013.800048828125</ele>
        <time>2021-08-22T11:00:28.000Z</time>
      </trkpt>
      <trkpt lat="42.6454880274832248687744140625" lon="0.050272308290004730224609375">
        <ele>2013.5999755859375</ele>
        <time>2021-08-22T11:00:30.000Z</time>
      </trkpt>
      <trkpt lat="42.6454873569309711456298828125" lon="0.05027197301387786865234375">
        <ele>2013.5999755859375</ele>
        <time>2021-08-22T11:00:31.000Z</time>
      </trkpt>
      <trkpt lat="42.64549322426319122314453125" lon="0.05026518367230892181396484375">
        <ele>2014</ele>
        <time>2021-08-22T11:00:39.000Z</time>
      </trkpt>
      <trkpt lat="42.64552096836268901824951171875" lon="0.05027255974709987640380859375">
        <ele>2012.5999755859375</ele>
        <time>2021-08-22T11:00:49.000Z</time>
      </trkpt>
      <trkpt lat="42.6457012630999088287353515625" lon="0.05011229775846004486083984375">
        <ele>2020</ele>
        <time>2021-08-22T11:02:29.000Z</time>
      </trkpt>
      <trkpt lat="42.64582590200006961822509765625" lon="0.05002948455512523651123046875">
        <ele>2020</ele>
        <time>2021-08-22T11:03:01.000Z</time>
      </trkpt>
      <trkpt lat="42.64587015844881534576416015625" lon="0.050000734627246856689453125">
        <ele>2018.199951171875</ele>
        <time>2021-08-22T11:03:07.000Z</time>
      </trkpt>
      <trkpt lat="42.645955570042133331298828125" lon="0.0500736571848392486572265625">
        <ele>2013</ele>
        <time>2021-08-22T11:03:23.000Z</time>
      </trkpt>
      <trkpt lat="42.64600393362343311309814453125" lon="0.0500749982893466949462890625">
        <ele>2011.800048828125</ele>
        <time>2021-08-22T11:03:29.000Z</time>
      </trkpt>
      <trkpt lat="42.646010220050811767578125" lon="0.05007617175579071044921875">
        <ele>2011.5999755859375</ele>
        <time>2021-08-22T11:03:30.000Z</time>
      </trkpt>
      <trkpt lat="42.6460345275700092315673828125" lon="0.05005949176847934722900390625">
        <ele>2011.5999755859375</ele>
        <time>2021-08-22T11:03:32.000Z</time>
      </trkpt>
      <trkpt lat="42.64606512151658535003662109375" lon="0.05008262582123279571533203125">
        <ele>2010</ele>
        <time>2021-08-22T11:03:39.000Z</time>
      </trkpt>
      <trkpt lat="42.646069228649139404296875" lon="0.05009754560887813568115234375">
        <ele>2009.199951171875</ele>
        <time>2021-08-22T11:03:41.000Z</time>
      </trkpt>
      <trkpt lat="42.646088339388370513916015625" lon="0.05008631385862827301025390625">
        <ele>2009.199951171875</ele>
        <time>2021-08-22T11:03:45.000Z</time>
      </trkpt>
      <trkpt lat="42.646105773746967315673828125" lon="0.05006276071071624755859375">
        <ele>2009.199951171875</ele>
        <time>2021-08-22T11:03:49.000Z</time>
      </trkpt>
      <trkpt lat="42.6461106352508068084716796875" lon="0.0500582344830036163330078125">
        <ele>2009.199951171875</ele>
        <time>2021-08-22T11:03:50.000Z</time>
      </trkpt>
      <trkpt lat="42.64611574821174144744873046875" lon="0.05005882121622562408447265625">
        <ele>2009</ele>
        <time>2021-08-22T11:03:51.000Z</time>
      </trkpt>
      <trkpt lat="42.646121196448802947998046875" lon="0.05006016232073307037353515625">
        <ele>2008.800048828125</ele>
        <time>2021-08-22T11:03:52.000Z</time>
      </trkpt>
      <trkpt lat="42.64618816785514354705810546875" lon="0.05038102157413959503173828125">
        <ele>1993.4000244140625</ele>
        <time>2021-08-22T11:04:53.000Z</time>
      </trkpt>
      <trkpt lat="42.64616285450756549835205078125" lon="0.05051471292972564697265625">
        <ele>1985.800048828125</ele>
        <time>2021-08-22T11:05:09.000Z</time>
      </trkpt>
      <trkpt lat="42.646158747375011444091796875" lon="0.05051949061453342437744140625">
        <ele>1985.4000244140625</ele>
        <time>2021-08-22T11:05:11.000Z</time>
      </trkpt>
      <trkpt lat="42.64615715481340885162353515625" lon="0.050519742071628570556640625">
        <ele>1985.4000244140625</ele>
        <time>2021-08-22T11:05:12.000Z</time>
      </trkpt>
      <trkpt lat="42.64619705267250537872314453125" lon="0.05057112313807010650634765625">
        <ele>1981</ele>
        <time>2021-08-22T11:05:46.000Z</time>
      </trkpt>
      <trkpt lat="42.64626343734562397003173828125" lon="0.05059760995209217071533203125">
        <ele>1979</ele>
        <time>2021-08-22T11:06:10.000Z</time>
      </trkpt>
      <trkpt lat="42.646310292184352874755859375" lon="0.05063951946794986724853515625">
        <ele>1975.5999755859375</ele>
        <time>2021-08-22T11:06:57.000Z</time>
      </trkpt>
      <trkpt lat="42.6460305042564868927001953125" lon="0.05079542286694049835205078125">
        <ele>1967.5999755859375</ele>
        <time>2021-08-22T11:07:43.000Z</time>
      </trkpt>
      <trkpt lat="42.64601114206016063690185546875" lon="0.0507988594472408294677734375">
        <ele>1968.199951171875</ele>
        <time>2021-08-22T11:08:15.000Z</time>
      </trkpt>
      <trkpt lat="42.64600343070924282073974609375" lon="0.0508008711040019989013671875">
        <ele>1968.4000244140625</ele>
        <time>2021-08-22T11:08:23.000Z</time>
      </trkpt>
      <trkpt lat="42.64599437825381755828857421875" lon="0.05083180032670497894287109375">
        <ele>1966.4000244140625</ele>
        <time>2021-08-22T11:08:33.000Z</time>
      </trkpt>
      <trkpt lat="42.64597878791391849517822265625" lon="0.05081704817712306976318359375">
        <ele>1968.199951171875</ele>
        <time>2021-08-22T11:08:41.000Z</time>
      </trkpt>
      <trkpt lat="42.645978033542633056640625" lon="0.05081537179648876190185546875">
        <ele>1968.4000244140625</ele>
        <time>2021-08-22T11:08:45.000Z</time>
      </trkpt>
      <trkpt lat="42.6459778659045696258544921875" lon="0.05081688053905963897705078125">
        <ele>1968.4000244140625</ele>
        <time>2021-08-22T11:08:51.000Z</time>
      </trkpt>
      <trkpt lat="42.64597778208553791046142578125" lon="0.05082140676677227020263671875">
        <ele>1968</ele>
        <time>2021-08-22T11:08:56.000Z</time>
      </trkpt>
      <trkpt lat="42.64600686728954315185546875" lon="0.0508224964141845703125">
        <ele>1966.5999755859375</ele>
        <time>2021-08-22T11:09:55.000Z</time>
      </trkpt>
      <trkpt lat="42.64598633162677288055419921875" lon="0.05083255469799041748046875">
        <ele>1966.800048828125</ele>
        <time>2021-08-22T11:10:02.000Z</time>
      </trkpt>
      <trkpt lat="42.64597602188587188720703125" lon="0.05082442425191402435302734375">
        <ele>1967.800048828125</ele>
        <time>2021-08-22T11:10:23.000Z</time>
      </trkpt>
      <trkpt lat="42.6459510438144207000732421875" lon="0.05083146505057811737060546875">
        <ele>1968.4000244140625</ele>
        <time>2021-08-22T11:10:37.000Z</time>
      </trkpt>
      <trkpt lat="42.645942829549312591552734375" lon="0.0508400984108448028564453125">
        <ele>1968</ele>
        <time>2021-08-22T11:10:39.000Z</time>
      </trkpt>
      <trkpt lat="42.64593704603612422943115234375" lon="0.050840266048908233642578125">
        <ele>1968.4000244140625</ele>
        <time>2021-08-22T11:10:40.000Z</time>
      </trkpt>
      <trkpt lat="42.64593050815165042877197265625" lon="0.0508457981050014495849609375">
        <ele>1968.199951171875</ele>
        <time>2021-08-22T11:10:42.000Z</time>
      </trkpt>
      <trkpt lat="42.645914666354656219482421875" lon="0.05084705539047718048095703125">
        <ele>1968.800048828125</ele>
        <time>2021-08-22T11:10:45.000Z</time>
      </trkpt>
      <trkpt lat="42.645914666354656219482421875" lon="0.05084705539047718048095703125">
        <ele>1968.800048828125</ele>
        <time>2021-08-22T11:10:46.000Z</time>
      </trkpt>
      <trkpt lat="42.6459134928882122039794921875" lon="0.05084604956209659576416015625">
        <ele>1968.800048828125</ele>
        <time>2021-08-22T11:10:51.000Z</time>
      </trkpt>
      <trkpt lat="42.64590628445148468017578125" lon="0.05084328353404998779296875">
        <ele>1969.4000244140625</ele>
        <time>2021-08-22T11:10:57.000Z</time>
      </trkpt>
      <trkpt lat="42.64590770937502384185791015625" lon="0.05084705539047718048095703125">
        <ele>1969</ele>
        <time>2021-08-22T11:10:58.000Z</time>
      </trkpt>
      <trkpt lat="42.64590452425181865692138671875" lon="0.05084655247628688812255859375">
        <ele>1969.199951171875</ele>
        <time>2021-08-22T11:10:59.000Z</time>
      </trkpt>
      <trkpt lat="42.6458828151226043701171875" lon="0.0508444570004940032958984375">
        <ele>1970.4000244140625</ele>
        <time>2021-08-22T11:11:07.000Z</time>
      </trkpt>
      <trkpt lat="42.6458846591413021087646484375" lon="0.0508444570004940032958984375">
        <ele>1970.199951171875</ele>
        <time>2021-08-22T11:11:09.000Z</time>
      </trkpt>
      <trkpt lat="42.6458772830665111541748046875" lon="0.05084621720016002655029296875">
        <ele>1970.4000244140625</ele>
        <time>2021-08-22T11:11:15.000Z</time>
      </trkpt>
      <trkpt lat="42.64586412347853183746337890625" lon="0.05084303207695484161376953125">
        <ele>1970.800048828125</ele>
        <time>2021-08-22T11:11:18.000Z</time>
      </trkpt>
      <trkpt lat="42.64585196971893310546875" lon="0.05085493437945842742919921875">
        <ele>1969.800048828125</ele>
        <time>2021-08-22T11:11:20.000Z</time>
      </trkpt>
      <trkpt lat="42.64582606963813304901123046875" lon="0.05088829435408115386962890625">
        <ele>1967</ele>
        <time>2021-08-22T11:11:24.000Z</time>
      </trkpt>
      <trkpt lat="42.645806707441806793212890625" lon="0.0509376637637615203857421875">
        <ele>1963.199951171875</ele>
        <time>2021-08-22T11:11:29.000Z</time>
      </trkpt>
      <trkpt lat="42.6457673124969005584716796875" lon="0.05094445310533046722412109375">
        <ele>1963.199951171875</ele>
        <time>2021-08-22T11:11:34.000Z</time>
      </trkpt>
      <trkpt lat="42.6457602716982364654541015625" lon="0.051060207188129425048828125">
        <ele>1955.800048828125</ele>
        <time>2021-08-22T11:11:42.000Z</time>
      </trkpt>
      <trkpt lat="42.64577309601008892059326171875" lon="0.05137167870998382568359375">
        <ele>1937.4000244140625</ele>
        <time>2021-08-22T11:11:55.000Z</time>
      </trkpt>
      <trkpt lat="42.64589019119739532470703125" lon="0.05182539112865924835205078125">
        <ele>1913</ele>
        <time>2021-08-22T11:12:13.000Z</time>
      </trkpt>
      <trkpt lat="42.646005861461162567138671875" lon="0.05246928893029689788818359375">
        <ele>1916</ele>
        <time>2021-08-22T11:12:23.000Z</time>
      </trkpt>
      <trkpt lat="42.64596437104046344757080078125" lon="0.0524759106338024139404296875">
        <ele>1915.800048828125</ele>
        <time>2021-08-22T11:12:25.000Z</time>
      </trkpt>
      <trkpt lat="42.64587854035198688507080078125" lon="0.0526059977710247039794921875">
        <ele>1924.4000244140625</ele>
        <time>2021-08-22T11:12:36.000Z</time>
      </trkpt>
      <trkpt lat="42.6456674002110958099365234375" lon="0.05228237248957157135009765625">
        <ele>1915.199951171875</ele>
        <time>2021-08-22T11:13:01.000Z</time>
      </trkpt>
      <trkpt lat="42.64540060423314571380615234375" lon="0.0514970719814300537109375">
        <ele>1940</ele>
        <time>2021-08-22T11:13:29.000Z</time>
      </trkpt>
      <trkpt lat="42.64539155177772045135498046875" lon="0.05145306698977947235107421875">
        <ele>1942.5999755859375</ele>
        <time>2021-08-22T11:13:46.000Z</time>
      </trkpt>
      <trkpt lat="42.645281665027141571044921875" lon="0.05167066119611263275146484375">
        <ele>1937.199951171875</ele>
        <time>2021-08-22T11:14:47.000Z</time>
      </trkpt>
      <trkpt lat="42.64525945298373699188232421875" lon="0.051695890724658966064453125">
        <ele>1937.4000244140625</ele>
        <time>2021-08-22T11:15:00.000Z</time>
      </trkpt>
      <trkpt lat="42.64525157399475574493408203125" lon="0.051726736128330230712890625">
        <ele>1936.5999755859375</ele>
        <time>2021-08-22T11:15:08.000Z</time>
      </trkpt>
      <trkpt lat="42.645226009190082550048828125" lon="0.0517902709543704986572265625">
        <ele>1935</ele>
        <time>2021-08-22T11:15:17.000Z</time>
      </trkpt>
      <trkpt lat="42.645217292010784149169921875" lon="0.05186495371162891387939453125">
        <ele>1932.5999755859375</ele>
        <time>2021-08-22T11:15:23.000Z</time>
      </trkpt>
      <trkpt lat="42.64518032781779766082763671875" lon="0.05217357538640499114990234375">
        <ele>1926.4000244140625</ele>
        <time>2021-08-22T11:16:16.000Z</time>
      </trkpt>
      <trkpt lat="42.645187787711620330810546875" lon="0.052182711660861968994140625">
        <ele>1926.199951171875</ele>
        <time>2021-08-22T11:16:19.000Z</time>
      </trkpt>
      <trkpt lat="42.64519625343382358551025390625" lon="0.05221146158874034881591796875">
        <ele>1925.5999755859375</ele>
        <time>2021-08-22T11:16:24.000Z</time>
      </trkpt>
      <trkpt lat="42.64520228840410709381103515625" lon="0.0523200072348117828369140625">
        <ele>1922.5999755859375</ele>
        <time>2021-08-22T11:16:48.000Z</time>
      </trkpt>
      <trkpt lat="42.64521754346787929534912109375" lon="0.05236384458839893341064453125">
        <ele>1920.800048828125</ele>
        <time>2021-08-22T11:17:10.000Z</time>
      </trkpt>
      <trkpt lat="42.645207904279232025146484375" lon="0.05248881876468658447265625">
        <ele>1919.800048828125</ele>
        <time>2021-08-22T11:17:31.000Z</time>
      </trkpt>
      <trkpt lat="42.645171694457530975341796875" lon="0.05258093588054180145263671875">
        <ele>1917.800048828125</ele>
        <time>2021-08-22T11:17:43.000Z</time>
      </trkpt>
      <trkpt lat="42.6451544277369976043701171875" lon="0.05260474048554897308349609375">
        <ele>1917</ele>
        <time>2021-08-22T11:17:46.000Z</time>
      </trkpt>
      <trkpt lat="42.64513674192130565643310546875" lon="0.05262770690023899078369140625">
        <ele>1916</ele>
        <time>2021-08-22T11:17:48.000Z</time>
      </trkpt>
      <trkpt lat="42.64510606415569782257080078125" lon="0.05266810767352581024169921875">
        <ele>1915</ele>
        <time>2021-08-22T11:17:52.000Z</time>
      </trkpt>
      <trkpt lat="42.64510095119476318359375" lon="0.05267447791993618011474609375">
        <ele>1915</ele>
        <time>2021-08-22T11:17:53.000Z</time>
      </trkpt>
      <trkpt lat="42.6450960896909236907958984375" lon="0.0526844523847103118896484375">
        <ele>1915.199951171875</ele>
        <time>2021-08-22T11:17:54.000Z</time>
      </trkpt>
      <trkpt lat="42.6450917311012744903564453125" lon="0.05269258283078670501708984375">
        <ele>1915.199951171875</ele>
        <time>2021-08-22T11:17:55.000Z</time>
      </trkpt>
      <trkpt lat="42.6450853608548641204833984375" lon="0.0527035631239414215087890625">
        <ele>1915.199951171875</ele>
        <time>2021-08-22T11:17:57.000Z</time>
      </trkpt>
      <trkpt lat="42.6450753025710582733154296875" lon="0.05272686481475830078125">
        <ele>1914.4000244140625</ele>
        <time>2021-08-22T11:18:03.000Z</time>
      </trkpt>
      <trkpt lat="42.6450719498097896575927734375" lon="0.0527307204902172088623046875">
        <ele>1914.199951171875</ele>
        <time>2021-08-22T11:18:04.000Z</time>
      </trkpt>
      <trkpt lat="42.6450685970485210418701171875" lon="0.05273315124213695526123046875">
        <ele>1913.800048828125</ele>
        <time>2021-08-22T11:18:05.000Z</time>
      </trkpt>
      <trkpt lat="42.6450639031827449798583984375" lon="0.05275142379105091094970703125">
        <ele>1913.4000244140625</ele>
        <time>2021-08-22T11:18:09.000Z</time>
      </trkpt>
      <trkpt lat="42.6450741291046142578125" lon="0.05274119786918163299560546875">
        <ele>1914.199951171875</ele>
        <time>2021-08-22T11:18:12.000Z</time>
      </trkpt>
      <trkpt lat="42.6450712792575359344482421875" lon="0.05274220369756221771240234375">
        <ele>1914</ele>
        <time>2021-08-22T11:18:15.000Z</time>
      </trkpt>
      <trkpt lat="42.64505644328892230987548828125" lon="0.05276835523545742034912109375">
        <ele>1912.800048828125</ele>
        <time>2021-08-22T11:18:18.000Z</time>
      </trkpt>
      <trkpt lat="42.64505392871797084808349609375" lon="0.05278310738503932952880859375">
        <ele>1912.4000244140625</ele>
        <time>2021-08-22T11:18:21.000Z</time>
      </trkpt>
      <trkpt lat="42.64505459927022457122802734375" lon="0.0527944229543209075927734375">
        <ele>1912.4000244140625</ele>
        <time>2021-08-22T11:18:22.000Z</time>
      </trkpt>
      <trkpt lat="42.64505040831863880157470703125" lon="0.05282853730022907257080078125">
        <ele>1911.800048828125</ele>
        <time>2021-08-22T11:18:24.000Z</time>
      </trkpt>
      <trkpt lat="42.64504395425319671630859375" lon="0.0528785772621631622314453125">
        <ele>1910.800048828125</ele>
        <time>2021-08-22T11:18:27.000Z</time>
      </trkpt>
      <trkpt lat="42.64501235447824001312255859375" lon="0.0530700199306011199951171875">
        <ele>1905.800048828125</ele>
        <time>2021-08-22T11:18:44.000Z</time>
      </trkpt>
      <trkpt lat="42.6450169645249843597412109375" lon="0.0530770607292652130126953125">
        <ele>1905.5999755859375</ele>
        <time>2021-08-22T11:18:47.000Z</time>
      </trkpt>
      <trkpt lat="42.64502626843750476837158203125" lon="0.0530784018337726593017578125">
        <ele>1905.5999755859375</ele>
        <time>2021-08-22T11:18:52.000Z</time>
      </trkpt>
      <trkpt lat="42.645035572350025177001953125" lon="0.05307890474796295166015625">
        <ele>1905.800048828125</ele>
        <time>2021-08-22T11:19:10.000Z</time>
      </trkpt>
      <trkpt lat="42.64503465034067630767822265625" lon="0.05306624807417392730712890625">
        <ele>1906</ele>
        <time>2021-08-22T11:19:13.000Z</time>
      </trkpt>
      <trkpt lat="42.64504588209092617034912109375" lon="0.05305049009621143341064453125">
        <ele>1907.199951171875</ele>
        <time>2021-08-22T11:19:16.000Z</time>
      </trkpt>
      <trkpt lat="42.64505141414701938629150390625" lon="0.05304948426783084869384765625">
        <ele>1907.5999755859375</ele>
        <time>2021-08-22T11:19:20.000Z</time>
      </trkpt>
      <trkpt lat="42.6450555212795734405517578125" lon="0.05305099301040172576904296875">
        <ele>1908</ele>
        <time>2021-08-22T11:19:23.000Z</time>
      </trkpt>
      <trkpt lat="42.64505979605019092559814453125" lon="0.05305149592459201812744140625">
        <ele>1908.4000244140625</ele>
        <time>2021-08-22T11:19:26.000Z</time>
      </trkpt>
      <trkpt lat="42.64505828730762004852294921875" lon="0.05305074155330657958984375">
        <ele>1908.4000244140625</ele>
        <time>2021-08-22T11:19:29.000Z</time>
      </trkpt>
      <trkpt lat="42.6450513303279876708984375" lon="0.05304646678268909454345703125">
        <ele>1907.800048828125</ele>
        <time>2021-08-22T11:19:31.000Z</time>
      </trkpt>
      <trkpt lat="42.64504001475870609283447265625" lon="0.0530552677810192108154296875">
        <ele>1906.4000244140625</ele>
        <time>2021-08-22T11:19:36.000Z</time>
      </trkpt>
      <trkpt lat="42.64504806138575077056884765625" lon="0.05308368243277072906494140625">
        <ele>1906.4000244140625</ele>
        <time>2021-08-22T11:19:40.000Z</time>
      </trkpt>
      <trkpt lat="42.645047642290592193603515625" lon="0.0531062297523021697998046875">
        <ele>1905.5999755859375</ele>
        <time>2021-08-22T11:19:45.000Z</time>
      </trkpt>
      <trkpt lat="42.64508326537907123565673828125" lon="0.05307395942509174346923828125">
        <ele>1910</ele>
        <time>2021-08-22T11:19:52.000Z</time>
      </trkpt>
      <trkpt lat="42.645124755799770355224609375" lon="0.05300112068653106689453125">
        <ele>1915.5999755859375</ele>
        <time>2021-08-22T11:19:59.000Z</time>
      </trkpt>
      <trkpt lat="42.6451011188328266143798828125" lon="0.05299919284880161285400390625">
        <ele>1914</ele>
        <time>2021-08-22T11:20:09.000Z</time>
      </trkpt>
      <trkpt lat="42.64509667642414569854736328125" lon="0.0529949180781841278076171875">
        <ele>1913.5999755859375</ele>
        <time>2021-08-22T11:20:15.000Z</time>
      </trkpt>
      <trkpt lat="42.6450893841683864593505859375" lon="0.05304512567818164825439453125">
        <ele>1911.4000244140625</ele>
        <time>2021-08-22T11:20:25.000Z</time>
      </trkpt>
      <trkpt lat="42.64505870640277862548828125" lon="0.05312743596732616424560546875">
        <ele>1906.199951171875</ele>
        <time>2021-08-22T11:20:32.000Z</time>
      </trkpt>
      <trkpt lat="42.645002715289592742919921875" lon="0.05317873321473598480224609375">
        <ele>1902.800048828125</ele>
        <time>2021-08-22T11:20:42.000Z</time>
      </trkpt>
      <trkpt lat="42.6449834369122982025146484375" lon="0.05321410484611988067626953125">
        <ele>1902.800048828125</ele>
        <time>2021-08-22T11:20:46.000Z</time>
      </trkpt>
      <trkpt lat="42.64496843330562114715576171875" lon="0.05323874764144420623779296875">
        <ele>1902.800048828125</ele>
        <time>2021-08-22T11:20:48.000Z</time>
      </trkpt>
      <trkpt lat="42.644953094422817230224609375" lon="0.05326556973159313201904296875">
        <ele>1902.5999755859375</ele>
        <time>2021-08-22T11:20:51.000Z</time>
      </trkpt>
      <trkpt lat="42.64492585323750972747802734375" lon="0.05332977510988712310791015625">
        <ele>1902.4000244140625</ele>
        <time>2021-08-22T11:20:57.000Z</time>
      </trkpt>
      <trkpt lat="42.64491830952465534210205078125" lon="0.05334167741239070892333984375">
        <ele>1902.4000244140625</ele>
        <time>2021-08-22T11:20:58.000Z</time>
      </trkpt>
      <trkpt lat="42.6449147053062915802001953125" lon="0.05335542373359203338623046875">
        <ele>1902.199951171875</ele>
        <time>2021-08-22T11:20:59.000Z</time>
      </trkpt>
      <trkpt lat="42.644899450242519378662109375" lon="0.05340973846614360809326171875">
        <ele>1902</ele>
        <time>2021-08-22T11:21:02.000Z</time>
      </trkpt>
      <trkpt lat="42.64488293789327144622802734375" lon="0.05345215089619159698486328125">
        <ele>1902</ele>
        <time>2021-08-22T11:21:05.000Z</time>
      </trkpt>
      <trkpt lat="42.6448781602084636688232421875" lon="0.05348131991922855377197265625">
        <ele>1902</ele>
        <time>2021-08-22T11:21:10.000Z</time>
      </trkpt>
      <trkpt lat="42.6448627375066280364990234375" lon="0.05350948311388492584228515625">
        <ele>1902.4000244140625</ele>
        <time>2021-08-22T11:21:13.000Z</time>
      </trkpt>
      <trkpt lat="42.644854523241519927978515625" lon="0.0535213015973567962646484375">
        <ele>1902.800048828125</ele>
        <time>2021-08-22T11:21:14.000Z</time>
      </trkpt>
      <trkpt lat="42.64484253711998462677001953125" lon="0.0535518117249011993408203125">
        <ele>1903.199951171875</ele>
        <time>2021-08-22T11:21:15.000Z</time>
      </trkpt>
      <trkpt lat="42.64483834616839885711669921875" lon="0.05356497131288051605224609375">
        <ele>1903.4000244140625</ele>
        <time>2021-08-22T11:21:17.000Z</time>
      </trkpt>
      <trkpt lat="42.644842453300952911376953125" lon="0.05358307622373104095458984375">
        <ele>1902.199951171875</ele>
        <time>2021-08-22T11:21:19.000Z</time>
      </trkpt>
      <trkpt lat="42.64480766840279102325439453125" lon="0.05358844064176082611083984375">
        <ele>1899.199951171875</ele>
        <time>2021-08-22T11:21:26.000Z</time>
      </trkpt>
      <trkpt lat="42.64476357959210872650146484375" lon="0.053631104528903961181640625">
        <ele>1892.5999755859375</ele>
        <time>2021-08-22T11:21:30.000Z</time>
      </trkpt>
      <trkpt lat="42.64469216577708721160888671875" lon="0.05378139205276966094970703125">
        <ele>1884.5999755859375</ele>
        <time>2021-08-22T11:21:46.000Z</time>
      </trkpt>
      <trkpt lat="42.6446666009724140167236328125" lon="0.05384056828916072845458984375">
        <ele>1886.800048828125</ele>
        <time>2021-08-22T11:21:52.000Z</time>
      </trkpt>
      <trkpt lat="42.64463382773101329803466796875" lon="0.05404156632721424102783203125">
        <ele>1883</ele>
        <time>2021-08-22T11:22:08.000Z</time>
      </trkpt>
      <trkpt lat="42.64458755962550640106201171875" lon="0.05425932817161083221435546875">
        <ele>1883.4000244140625</ele>
        <time>2021-08-22T11:22:34.000Z</time>
      </trkpt>
      <trkpt lat="42.64460817910730838775634765625" lon="0.05436770617961883544921875">
        <ele>1885</ele>
        <time>2021-08-22T11:22:45.000Z</time>
      </trkpt>
      <trkpt lat="42.64461169950664043426513671875" lon="0.05451967008411884307861328125">
        <ele>1885.800048828125</ele>
        <time>2021-08-22T11:23:01.000Z</time>
      </trkpt>
      <trkpt lat="42.64456861652433872222900390625" lon="0.054784119129180908203125">
        <ele>1884.800048828125</ele>
        <time>2021-08-22T11:23:30.000Z</time>
      </trkpt>
      <trkpt lat="42.64453777112066745758056640625" lon="0.054834745824337005615234375">
        <ele>1882.5999755859375</ele>
        <time>2021-08-22T11:23:41.000Z</time>
      </trkpt>
      <trkpt lat="42.64448580332100391387939453125" lon="0.05488730035722255706787109375">
        <ele>1879.199951171875</ele>
        <time>2021-08-22T11:23:53.000Z</time>
      </trkpt>
      <trkpt lat="42.6444463245570659637451171875" lon="0.05492384545505046844482421875">
        <ele>1876.800048828125</ele>
        <time>2021-08-22T11:23:58.000Z</time>
      </trkpt>
      <trkpt lat="42.64439678750932216644287109375" lon="0.0549411959946155548095703125">
        <ele>1873.5999755859375</ele>
        <time>2021-08-22T11:24:03.000Z</time>
      </trkpt>
      <trkpt lat="42.64425127767026424407958984375" lon="0.055005736649036407470703125">
        <ele>1864.800048828125</ele>
        <time>2021-08-22T11:24:20.000Z</time>
      </trkpt>
      <trkpt lat="42.64415186829864978790283203125" lon="0.05508243106305599212646484375">
        <ele>1859.5999755859375</ele>
        <time>2021-08-22T11:24:45.000Z</time>
      </trkpt>
      <trkpt lat="42.64414181001484394073486328125" lon="0.05508595146238803863525390625">
        <ele>1859</ele>
        <time>2021-08-22T11:24:54.000Z</time>
      </trkpt>
      <trkpt lat="42.644092775881290435791015625" lon="0.0551393441855907440185546875">
        <ele>1856.199951171875</ele>
        <time>2021-08-22T11:25:25.000Z</time>
      </trkpt>
      <trkpt lat="42.64399512670934200286865234375" lon="0.05521503277122974395751953125">
        <ele>1850.800048828125</ele>
        <time>2021-08-22T11:25:51.000Z</time>
      </trkpt>
      <trkpt lat="42.64382128603756427764892578125" lon="0.05532315932214260101318359375">
        <ele>1839.4000244140625</ele>
        <time>2021-08-22T11:26:17.000Z</time>
      </trkpt>
      <trkpt lat="42.64371533878147602081298828125" lon="0.05550337024033069610595703125">
        <ele>1838.4000244140625</ele>
        <time>2021-08-22T11:26:40.000Z</time>
      </trkpt>
      <trkpt lat="42.6435223035514354705810546875" lon="0.05560395307838916778564453125">
        <ele>1824.199951171875</ele>
        <time>2021-08-22T11:27:53.000Z</time>
      </trkpt>
      <trkpt lat="42.643475867807865142822265625" lon="0.05556656979024410247802734375">
        <ele>1821.800048828125</ele>
        <time>2021-08-22T11:28:01.000Z</time>
      </trkpt>
      <trkpt lat="42.64321208931505680084228515625" lon="0.05567335523664951324462890625">
        <ele>1818.800048828125</ele>
        <time>2021-08-22T11:29:33.000Z</time>
      </trkpt>
      <trkpt lat="42.6432091556489467620849609375" lon="0.05563370883464813232421875">
        <ele>1817.199951171875</ele>
        <time>2021-08-22T11:29:40.000Z</time>
      </trkpt>
      <trkpt lat="42.6432627998292446136474609375" lon="0.05573638714849948883056640625">
        <ele>1819.199951171875</ele>
        <time>2021-08-22T11:30:04.000Z</time>
      </trkpt>
      <trkpt lat="42.64330194331705570220947265625" lon="0.0558011792600154876708984375">
        <ele>1817.5999755859375</ele>
        <time>2021-08-22T11:30:09.000Z</time>
      </trkpt>
      <trkpt lat="42.6432839222252368927001953125" lon="0.0557663105428218841552734375">
        <ele>1818.4000244140625</ele>
        <time>2021-08-22T11:30:23.000Z</time>
      </trkpt>
      <trkpt lat="42.6432943157851696014404296875" lon="0.05570554174482822418212890625">
        <ele>1819.4000244140625</ele>
        <time>2021-08-22T11:30:34.000Z</time>
      </trkpt>
      <trkpt lat="42.64328937046229839324951171875" lon="0.05568475462496280670166015625">
        <ele>1818.5999755859375</ele>
        <time>2021-08-22T11:30:44.000Z</time>
      </trkpt>
      <trkpt lat="42.6432852633297443389892578125" lon="0.05566648207604885101318359375">
        <ele>1818</ele>
        <time>2021-08-22T11:30:48.000Z</time>
      </trkpt>
      <trkpt lat="42.64328568242490291595458984375" lon="0.05565307103097438812255859375">
        <ele>1817.4000244140625</ele>
        <time>2021-08-22T11:30:50.000Z</time>
      </trkpt>
      <trkpt lat="42.64328082092106342315673828125" lon="0.0556492991745471954345703125">
        <ele>1817.199951171875</ele>
        <time>2021-08-22T11:30:52.000Z</time>
      </trkpt>
      <trkpt lat="42.6432782225310802459716796875" lon="0.05565172992646694183349609375">
        <ele>1817.4000244140625</ele>
        <time>2021-08-22T11:30:53.000Z</time>
      </trkpt>
      <trkpt lat="42.643282413482666015625" lon="0.05567184649407863616943359375">
        <ele>1818.199951171875</ele>
        <time>2021-08-22T11:31:02.000Z</time>
      </trkpt>
      <trkpt lat="42.64322516508400440216064453125" lon="0.055694393813610076904296875">
        <ele>1819.4000244140625</ele>
        <time>2021-08-22T11:31:33.000Z</time>
      </trkpt>
      <trkpt lat="42.64326791279017925262451171875" lon="0.05569430999457836151123046875">
        <ele>1819.199951171875</ele>
        <time>2021-08-22T11:31:43.000Z</time>
      </trkpt>
      <trkpt lat="42.643274366855621337890625" lon="0.05569414235651493072509765625">
        <ele>1819</ele>
        <time>2021-08-22T11:31:44.000Z</time>
      </trkpt>
      <trkpt lat="42.64327612705528736114501953125" lon="0.05569397471845149993896484375">
        <ele>1819</ele>
        <time>2021-08-22T11:31:50.000Z</time>
      </trkpt>
      <trkpt lat="42.643280737102031707763671875" lon="0.0556918792426586151123046875">
        <ele>1819</ele>
        <time>2021-08-22T11:31:52.000Z</time>
      </trkpt>
      <trkpt lat="42.643279731273651123046875" lon="0.055702440440654754638671875">
        <ele>1819.4000244140625</ele>
        <time>2021-08-22T11:31:58.000Z</time>
      </trkpt>
      <trkpt lat="42.64328098855912685394287109375" lon="0.05571191199123859405517578125">
        <ele>1819.5999755859375</ele>
        <time>2021-08-22T11:32:00.000Z</time>
      </trkpt>
      <trkpt lat="42.6432757079601287841796875" lon="0.0557988323271274566650390625">
        <ele>1817.800048828125</ele>
        <time>2021-08-22T11:32:14.000Z</time>
      </trkpt>
      <trkpt lat="42.64328040182590484619140625" lon="0.05583143793046474456787109375">
        <ele>1817</ele>
        <time>2021-08-22T11:32:17.000Z</time>
      </trkpt>
      <trkpt lat="42.643280066549777984619140625" lon="0.05585624836385250091552734375">
        <ele>1816.5999755859375</ele>
        <time>2021-08-22T11:32:19.000Z</time>
      </trkpt>
      <trkpt lat="42.64327662996947765350341796875" lon="0.05599438212811946868896484375">
        <ele>1807.5999755859375</ele>
        <time>2021-08-22T11:32:34.000Z</time>
      </trkpt>
      <trkpt lat="42.64327679760754108428955078125" lon="0.05602103658020496368408203125">
        <ele>1806.800048828125</ele>
        <time>2021-08-22T11:32:36.000Z</time>
      </trkpt>
      <trkpt lat="42.6432783901691436767578125" lon="0.0562762655317783355712890625">
        <ele>1806.800048828125</ele>
        <time>2021-08-22T11:32:56.000Z</time>
      </trkpt>
      <trkpt lat="42.6432400010526180267333984375" lon="0.05637307651340961456298828125">
        <ele>1808.5999755859375</ele>
        <time>2021-08-22T11:33:21.000Z</time>
      </trkpt>
      <trkpt lat="42.64321628026664257049560546875" lon="0.0563865713775157928466796875">
        <ele>1809.199951171875</ele>
        <time>2021-08-22T11:33:29.000Z</time>
      </trkpt>
      <trkpt lat="42.64321443624794483184814453125" lon="0.05639721639454364776611328125">
        <ele>1810</ele>
        <time>2021-08-22T11:33:31.000Z</time>
      </trkpt>
      <trkpt lat="42.64320454560220241546630859375" lon="0.05640224553644657135009765625">
        <ele>1811.199951171875</ele>
        <time>2021-08-22T11:33:37.000Z</time>
      </trkpt>
      <trkpt lat="42.643202282488346099853515625" lon="0.05649059079587459564208984375">
        <ele>1817.800048828125</ele>
        <time>2021-08-22T11:33:48.000Z</time>
      </trkpt>
      <trkpt lat="42.6431389153003692626953125" lon="0.05648941732943058013916015625">
        <ele>1822.5999755859375</ele>
        <time>2021-08-22T11:34:04.000Z</time>
      </trkpt>
      <trkpt lat="42.64311972074210643768310546875" lon="0.05657742731273174285888671875">
        <ele>1825.800048828125</ele>
        <time>2021-08-22T11:34:20.000Z</time>
      </trkpt>
      <trkpt lat="42.64304839074611663818359375" lon="0.0566951930522918701171875">
        <ele>1793.4000244140625</ele>
        <time>2021-08-22T11:34:43.000Z</time>
      </trkpt>
      <trkpt lat="42.643022239208221435546875" lon="0.0569692812860012054443359375">
        <ele>1773</ele>
        <time>2021-08-22T11:35:02.000Z</time>
      </trkpt>
      <trkpt lat="42.6431659050285816192626953125" lon="0.05711521022021770477294921875">
        <ele>1782</ele>
        <time>2021-08-22T11:35:16.000Z</time>
      </trkpt>
      <trkpt lat="42.64318778179585933685302734375" lon="0.057184360921382904052734375">
        <ele>1781</ele>
        <time>2021-08-22T11:35:29.000Z</time>
      </trkpt>
      <trkpt lat="42.6431871950626373291015625" lon="0.05722903646528720855712890625">
        <ele>1779.199951171875</ele>
        <time>2021-08-22T11:35:32.000Z</time>
      </trkpt>
      <trkpt lat="42.64319415204226970672607421875" lon="0.05740187130868434906005859375">
        <ele>1772.800048828125</ele>
        <time>2021-08-22T11:36:08.000Z</time>
      </trkpt>
      <trkpt lat="42.64317956753075122833251953125" lon="0.0574658252298831939697265625">
        <ele>1769.4000244140625</ele>
        <time>2021-08-22T11:36:20.000Z</time>
      </trkpt>
      <trkpt lat="42.64309826306998729705810546875" lon="0.0575613789260387420654296875">
        <ele>1759.5999755859375</ele>
        <time>2021-08-22T11:36:35.000Z</time>
      </trkpt>
      <trkpt lat="42.64315609820187091827392578125" lon="0.05773480050265789031982421875">
        <ele>1756</ele>
        <time>2021-08-22T11:37:10.000Z</time>
      </trkpt>
      <trkpt lat="42.64317152090370655059814453125" lon="0.05777771584689617156982421875">
        <ele>1755.199951171875</ele>
        <time>2021-08-22T11:37:18.000Z</time>
      </trkpt>
      <trkpt lat="42.64317403547465801239013671875" lon="0.05779020488262176513671875">
        <ele>1755</ele>
        <time>2021-08-22T11:37:23.000Z</time>
      </trkpt>
      <trkpt lat="42.6431940682232379913330078125" lon="0.05775273777544498443603515625">
        <ele>1758.199951171875</ele>
        <time>2021-08-22T11:37:42.000Z</time>
      </trkpt>
      <trkpt lat="42.64320756308734416961669921875" lon="0.05771568976342678070068359375">
        <ele>1760.4000244140625</ele>
        <time>2021-08-22T11:37:47.000Z</time>
      </trkpt>
      <trkpt lat="42.64322700910270214080810546875" lon="0.05771032534539699554443359375">
        <ele>1761.800048828125</ele>
        <time>2021-08-22T11:37:50.000Z</time>
      </trkpt>
      <trkpt lat="42.64327562414109706878662109375" lon="0.05772155709564685821533203125">
        <ele>1764.5999755859375</ele>
        <time>2021-08-22T11:37:54.000Z</time>
      </trkpt>
      <trkpt lat="42.64329523779451847076416015625" lon="0.05775290541350841522216796875">
        <ele>1764.800048828125</ele>
        <time>2021-08-22T11:37:58.000Z</time>
      </trkpt>
      <trkpt lat="42.6433271728456020355224609375" lon="0.05779959261417388916015625">
        <ele>1765.4000244140625</ele>
        <time>2021-08-22T11:38:03.000Z</time>
      </trkpt>
      <trkpt lat="42.6433362253010272979736328125" lon="0.05780437029898166656494140625">
        <ele>1765.800048828125</ele>
        <time>2021-08-22T11:38:04.000Z</time>
      </trkpt>
      <trkpt lat="42.64340319670736789703369140625" lon="0.05778525955975055694580078125">
        <ele>1771</ele>
        <time>2021-08-22T11:38:22.000Z</time>
      </trkpt>
      <trkpt lat="42.64337360858917236328125" lon="0.057890117168426513671875">
        <ele>1765.4000244140625</ele>
        <time>2021-08-22T11:38:55.000Z</time>
      </trkpt>
      <trkpt lat="42.6434205472469329833984375" lon="0.057959854602813720703125">
        <ele>1766.5999755859375</ele>
        <time>2021-08-22T11:39:10.000Z</time>
      </trkpt>
      <trkpt lat="42.64338995330035686492919921875" lon="0.0579663924872875213623046875">
        <ele>1764.199951171875</ele>
        <time>2021-08-22T11:39:24.000Z</time>
      </trkpt>
      <trkpt lat="42.64337738044559955596923828125" lon="0.05797536112368106842041015625">
        <ele>1763.199951171875</ele>
        <time>2021-08-22T11:39:29.000Z</time>
      </trkpt>
      <trkpt lat="42.64339598827064037322998046875" lon="0.058067142963409423828125">
        <ele>1762</ele>
        <time>2021-08-22T11:39:46.000Z</time>
      </trkpt>
      <trkpt lat="42.64341183006763458251953125" lon="0.05807376466691493988037109375">
        <ele>1763</ele>
        <time>2021-08-22T11:39:57.000Z</time>
      </trkpt>
      <trkpt lat="42.64344141818583011627197265625" lon="0.05817200057208538055419921875">
        <ele>1762.4000244140625</ele>
        <time>2021-08-22T11:40:32.000Z</time>
      </trkpt>
      <trkpt lat="42.6434103213250637054443359375" lon="0.05831616930663585662841796875">
        <ele>1756.199951171875</ele>
        <time>2021-08-22T11:41:00.000Z</time>
      </trkpt>
      <trkpt lat="42.64332423917949199676513671875" lon="0.0583040155470371246337890625">
        <ele>1750.4000244140625</ele>
        <time>2021-08-22T11:41:18.000Z</time>
      </trkpt>
      <trkpt lat="42.64330931939184665679931640625" lon="0.0583755970001220703125">
        <ele>1747.199951171875</ele>
        <time>2021-08-22T11:41:33.000Z</time>
      </trkpt>
      <trkpt lat="42.64323019422590732574462890625" lon="0.058416165411472320556640625">
        <ele>1741</ele>
        <time>2021-08-22T11:41:45.000Z</time>
      </trkpt>
      <trkpt lat="42.64322130940854549407958984375" lon="0.058457739651203155517578125">
        <ele>1740</ele>
        <time>2021-08-22T11:41:52.000Z</time>
      </trkpt>
      <trkpt lat="42.6431903801858425140380859375" lon="0.058507360517978668212890625">
        <ele>1737.5999755859375</ele>
        <time>2021-08-22T11:41:56.000Z</time>
      </trkpt>
      <trkpt lat="42.64318828471004962921142578125" lon="0.058585144579410552978515625">
        <ele>1736.4000244140625</ele>
        <time>2021-08-22T11:42:04.000Z</time>
      </trkpt>
      <trkpt lat="42.6431323774158954620361328125" lon="0.05871430970728397369384765625">
        <ele>1732.4000244140625</ele>
        <time>2021-08-22T11:42:26.000Z</time>
      </trkpt>
      <trkpt lat="42.64306792058050632476806640625" lon="0.05877817980945110321044921875">
        <ele>1728.199951171875</ele>
        <time>2021-08-22T11:42:58.000Z</time>
      </trkpt>
      <trkpt lat="42.64310446567833423614501953125" lon="0.05872051231563091278076171875">
        <ele>1730.800048828125</ele>
        <time>2021-08-22T11:43:12.000Z</time>
      </trkpt>
      <trkpt lat="42.64313631691038608551025390625" lon="0.058696456253528594970703125">
        <ele>1732.800048828125</ele>
        <time>2021-08-22T11:43:16.000Z</time>
      </trkpt>
      <trkpt lat="42.643174789845943450927734375" lon="0.05872688256204128265380859375">
        <ele>1734.5999755859375</ele>
        <time>2021-08-22T11:43:26.000Z</time>
      </trkpt>
      <trkpt lat="42.643166743218898773193359375" lon="0.058723278343677520751953125">
        <ele>1734.199951171875</ele>
        <time>2021-08-22T11:43:33.000Z</time>
      </trkpt>
      <trkpt lat="42.64315609820187091827392578125" lon="0.05873861722648143768310546875">
        <ele>1733.4000244140625</ele>
        <time>2021-08-22T11:43:41.000Z</time>
      </trkpt>
      <trkpt lat="42.64309407211840152740478515625" lon="0.05879008211195468902587890625">
        <ele>1729.800048828125</ele>
        <time>2021-08-22T11:44:04.000Z</time>
      </trkpt>
      <trkpt lat="42.643070518970489501953125" lon="0.05878756754100322723388671875">
        <ele>1728.4000244140625</ele>
        <time>2021-08-22T11:44:13.000Z</time>
      </trkpt>
      <trkpt lat="42.643042020499706268310546875" lon="0.05873040296137332916259765625">
        <ele>1726.800048828125</ele>
        <time>2021-08-22T11:44:25.000Z</time>
      </trkpt>
      <trkpt lat="42.6430405117571353912353515625" lon="0.0587539561092853546142578125">
        <ele>1726.5999755859375</ele>
        <time>2021-08-22T11:44:28.000Z</time>
      </trkpt>
      <trkpt lat="42.64303305186331272125244140625" lon="0.05879712291061878204345703125">
        <ele>1726</ele>
        <time>2021-08-22T11:44:34.000Z</time>
      </trkpt>
      <trkpt lat="42.64303321950137615203857421875" lon="0.0588025711476802825927734375">
        <ele>1726</ele>
        <time>2021-08-22T11:44:35.000Z</time>
      </trkpt>
      <trkpt lat="42.6430113427340984344482421875" lon="0.05885629914700984954833984375">
        <ele>1724.5999755859375</ele>
        <time>2021-08-22T11:44:43.000Z</time>
      </trkpt>
      <trkpt lat="42.64300270937383174896240234375" lon="0.05885730497539043426513671875">
        <ele>1724</ele>
        <time>2021-08-22T11:44:45.000Z</time>
      </trkpt>
      <trkpt lat="42.6429851911962032318115234375" lon="0.05888613872230052947998046875">
        <ele>1722.800048828125</ele>
        <time>2021-08-22T11:44:51.000Z</time>
      </trkpt>
      <trkpt lat="42.64298058114945888519287109375" lon="0.05889317952096462249755859375">
        <ele>1722.5999755859375</ele>
        <time>2021-08-22T11:44:52.000Z</time>
      </trkpt>
      <trkpt lat="42.64297404326498508453369140625" lon="0.05890156142413616180419921875">
        <ele>1722</ele>
        <time>2021-08-22T11:44:53.000Z</time>
      </trkpt>
      <trkpt lat="42.6429687626659870147705078125" lon="0.05891145206987857818603515625">
        <ele>1721.800048828125</ele>
        <time>2021-08-22T11:44:55.000Z</time>
      </trkpt>
      <trkpt lat="42.6429650746285915374755859375" lon="0.058909021317958831787109375">
        <ele>1721.5999755859375</ele>
        <time>2021-08-22T11:44:56.000Z</time>
      </trkpt>
      <trkpt lat="42.6429325528442859649658203125" lon="0.05894900299608707427978515625">
        <ele>1719.5999755859375</ele>
        <time>2021-08-22T11:45:07.000Z</time>
      </trkpt>
      <trkpt lat="42.64292961917817592620849609375" lon="0.05897532217204570770263671875">
        <ele>1719.4000244140625</ele>
        <time>2021-08-22T11:45:09.000Z</time>
      </trkpt>
      <trkpt lat="42.64291620813310146331787109375" lon="0.05900432355701923370361328125">
        <ele>1718.5999755859375</ele>
        <time>2021-08-22T11:45:13.000Z</time>
      </trkpt>
      <trkpt lat="42.6429107598960399627685546875" lon="0.0590205006301403045654296875">
        <ele>1718.4000244140625</ele>
        <time>2021-08-22T11:45:15.000Z</time>
      </trkpt>
      <trkpt lat="42.64282668940722942352294921875" lon="0.0590892322361469268798828125">
        <ele>1712.5999755859375</ele>
        <time>2021-08-22T11:45:51.000Z</time>
      </trkpt>
      <trkpt lat="42.6428497396409511566162109375" lon="0.0590716302394866943359375">
        <ele>1714.199951171875</ele>
        <time>2021-08-22T11:46:17.000Z</time>
      </trkpt>
      <trkpt lat="42.6428923197090625762939453125" lon="0.059075318276882171630859375">
        <ele>1716.5999755859375</ele>
        <time>2021-08-22T11:46:32.000Z</time>
      </trkpt>
      <trkpt lat="42.6428805850446224212646484375" lon="0.0591009669005870819091796875">
        <ele>1715.4000244140625</ele>
        <time>2021-08-22T11:46:37.000Z</time>
      </trkpt>
      <trkpt lat="42.64293573796749114990234375" lon="0.059106163680553436279296875">
        <ele>1718.4000244140625</ele>
        <time>2021-08-22T11:46:54.000Z</time>
      </trkpt>
      <trkpt lat="42.64292626641690731048583984375" lon="0.05908143706619739532470703125">
        <ele>1718.4000244140625</ele>
        <time>2021-08-22T11:47:08.000Z</time>
      </trkpt>
      <trkpt lat="42.6428708620369434356689453125" lon="0.05905964411795139312744140625">
        <ele>1715.800048828125</ele>
        <time>2021-08-22T11:47:18.000Z</time>
      </trkpt>
      <trkpt lat="42.64286926947534084320068359375" lon="0.05906618200242519378662109375">
        <ele>1715.5999755859375</ele>
        <time>2021-08-22T11:47:21.000Z</time>
      </trkpt>
      <trkpt lat="42.64284990727901458740234375" lon="0.0590627454221248626708984375">
        <ele>1714.4000244140625</ele>
        <time>2021-08-22T11:47:27.000Z</time>
      </trkpt>
      <trkpt lat="42.642810679972171783447265625" lon="0.059064924716949462890625">
        <ele>1712.199951171875</ele>
        <time>2021-08-22T11:47:32.000Z</time>
      </trkpt>
      <trkpt lat="42.64278151094913482666015625" lon="0.0590416230261325836181640625">
        <ele>1711.199951171875</ele>
        <time>2021-08-22T11:47:36.000Z</time>
      </trkpt>
      <trkpt lat="42.6427290402352809906005859375" lon="0.05900935269892215728759765625">
        <ele>1708.5999755859375</ele>
        <time>2021-08-22T11:47:43.000Z</time>
      </trkpt>
      <trkpt lat="42.6426961831748485565185546875" lon="0.0589856319129467010498046875">
        <ele>1707.199951171875</ele>
        <time>2021-08-22T11:47:46.000Z</time>
      </trkpt>
      <trkpt lat="42.642665170133113861083984375" lon="0.05896492861211299896240234375">
        <ele>1705.5999755859375</ele>
        <time>2021-08-22T11:47:51.000Z</time>
      </trkpt>
      <trkpt lat="42.642648406326770782470703125" lon="0.05891296081244945526123046875">
        <ele>1705</ele>
        <time>2021-08-22T11:48:15.000Z</time>
      </trkpt>
      <trkpt lat="42.64270967803895473480224609375" lon="0.05883148871362209320068359375">
        <ele>1708</ele>
        <time>2021-08-22T11:48:30.000Z</time>
      </trkpt>
      <trkpt lat="42.64255980961024761199951171875" lon="0.05893592722713947296142578125">
        <ele>1700.4000244140625</ele>
        <time>2021-08-22T11:49:19.000Z</time>
      </trkpt>
      <trkpt lat="42.642512954771518707275390625" lon="0.058941207826137542724609375">
        <ele>1698.5999755859375</ele>
        <time>2021-08-22T11:49:33.000Z</time>
      </trkpt>
      <trkpt lat="42.6423344202339649200439453125" lon="0.05907473154366016387939453125">
        <ele>1692</ele>
        <time>2021-08-22T11:50:25.000Z</time>
      </trkpt>
      <trkpt lat="42.64234020374715328216552734375" lon="0.05913935601711273193359375">
        <ele>1691.199951171875</ele>
        <time>2021-08-22T11:50:59.000Z</time>
      </trkpt>
      <trkpt lat="42.64235881157219409942626953125" lon="0.0591304711997509002685546875">
        <ele>1692</ele>
        <time>2021-08-22T11:51:24.000Z</time>
      </trkpt>
      <trkpt lat="42.64234967529773712158203125" lon="0.05914245732128620147705078125">
        <ele>1691.4000244140625</ele>
        <time>2021-08-22T11:51:32.000Z</time>
      </trkpt>
      <trkpt lat="42.64239032752811908721923828125" lon="0.05912602879106998443603515625">
        <ele>1693</ele>
        <time>2021-08-22T11:51:44.000Z</time>
      </trkpt>
      <trkpt lat="42.64239317737519741058349609375" lon="0.05913265049457550048828125">
        <ele>1693</ele>
        <time>2021-08-22T11:51:50.000Z</time>
      </trkpt>
      <trkpt lat="42.64240122400224208831787109375" lon="0.05912837572395801544189453125">
        <ele>1693.4000244140625</ele>
        <time>2021-08-22T11:51:54.000Z</time>
      </trkpt>
      <trkpt lat="42.6423873938620090484619140625" lon="0.0591358356177806854248046875">
        <ele>1692.800048828125</ele>
        <time>2021-08-22T11:51:59.000Z</time>
      </trkpt>
      <trkpt lat="42.64239217154681682586669921875" lon="0.05913323722779750823974609375">
        <ele>1693</ele>
        <time>2021-08-22T11:52:05.000Z</time>
      </trkpt>
      <trkpt lat="42.6423810236155986785888671875" lon="0.05913709290325641632080078125">
        <ele>1692.5999755859375</ele>
        <time>2021-08-22T11:52:10.000Z</time>
      </trkpt>
      <trkpt lat="42.6423800177872180938720703125" lon="0.05913876928389072418212890625">
        <ele>1692.4000244140625</ele>
        <time>2021-08-22T11:52:12.000Z</time>
      </trkpt>
      <trkpt lat="42.64233768917620182037353515625" lon="0.059205405414104461669921875">
        <ele>1690.4000244140625</ele>
        <time>2021-08-22T11:52:32.000Z</time>
      </trkpt>
      <trkpt lat="42.6423243619501590728759765625" lon="0.0592598877847194671630859375">
        <ele>1689.4000244140625</ele>
        <time>2021-08-22T11:52:37.000Z</time>
      </trkpt>
      <trkpt lat="42.64235101640224456787109375" lon="0.05928981117904186248779296875">
        <ele>1690</ele>
        <time>2021-08-22T11:52:42.000Z</time>
      </trkpt>
      <trkpt lat="42.6423682831227779388427734375" lon="0.05928209982812404632568359375">
        <ele>1690.4000244140625</ele>
        <time>2021-08-22T11:52:43.000Z</time>
      </trkpt>
      <trkpt lat="42.64235981740057468414306640625" lon="0.05928209982812404632568359375">
        <ele>1690.199951171875</ele>
        <time>2021-08-22T11:52:45.000Z</time>
      </trkpt>
      <trkpt lat="42.6423233561217784881591796875" lon="0.05929064936935901641845703125">
        <ele>1689.199951171875</ele>
        <time>2021-08-22T11:52:48.000Z</time>
      </trkpt>
      <trkpt lat="42.6423086039721965789794921875" lon="0.05930087529122829437255859375">
        <ele>1688.5999755859375</ele>
        <time>2021-08-22T11:52:50.000Z</time>
      </trkpt>
      <trkpt lat="42.6422779262065887451171875" lon="0.05933239124715328216552734375">
        <ele>1687.199951171875</ele>
        <time>2021-08-22T11:52:54.000Z</time>
      </trkpt>
      <trkpt lat="42.64226359315216541290283203125" lon="0.05935971625149250030517578125">
        <ele>1686.800048828125</ele>
        <time>2021-08-22T11:53:00.000Z</time>
      </trkpt>
      <trkpt lat="42.642234005033969879150390625" lon="0.05937027744948863983154296875">
        <ele>1686.199951171875</ele>
        <time>2021-08-22T11:53:05.000Z</time>
      </trkpt>
      <trkpt lat="42.6422311551868915557861328125" lon="0.05937363021075725555419921875">
        <ele>1686.199951171875</ele>
        <time>2021-08-22T11:53:07.000Z</time>
      </trkpt>
      <trkpt lat="42.6421982981264591217041015625" lon="0.05938771180808544158935546875">
        <ele>1685.5999755859375</ele>
        <time>2021-08-22T11:53:11.000Z</time>
      </trkpt>
      <trkpt lat="42.64215379022061824798583984375" lon="0.059436745941638946533203125">
        <ele>1684.5999755859375</ele>
        <time>2021-08-22T11:53:17.000Z</time>
      </trkpt>
      <trkpt lat="42.64213241636753082275390625" lon="0.059477649629116058349609375">
        <ele>1684</ele>
        <time>2021-08-22T11:53:20.000Z</time>
      </trkpt>
      <trkpt lat="42.64210048131644725799560546875" lon="0.059547387063503265380859375">
        <ele>1683.4000244140625</ele>
        <time>2021-08-22T11:53:26.000Z</time>
      </trkpt>
      <trkpt lat="42.641922198235988616943359375" lon="0.05961368791759014129638671875">
        <ele>1681.199951171875</ele>
        <time>2021-08-22T11:53:47.000Z</time>
      </trkpt>
      <trkpt lat="42.64185623265802860260009765625" lon="0.0597180426120758056640625">
        <ele>1681</ele>
        <time>2021-08-22T11:54:04.000Z</time>
      </trkpt>
      <trkpt lat="42.6418251357972621917724609375" lon="0.05974042229354381561279296875">
        <ele>1680.800048828125</ele>
        <time>2021-08-22T11:54:10.000Z</time>
      </trkpt>
      <trkpt lat="42.64181834645569324493408203125" lon="0.05983228795230388641357421875">
        <ele>1682.199951171875</ele>
        <time>2021-08-22T11:54:26.000Z</time>
      </trkpt>
      <trkpt lat="42.6417671330273151397705078125" lon="0.05983312614262104034423828125">
        <ele>1681.800048828125</ele>
        <time>2021-08-22T11:54:34.000Z</time>
      </trkpt>
      <trkpt lat="42.64175020158290863037109375" lon="0.05982876755297183990478515625">
        <ele>1681.5999755859375</ele>
        <time>2021-08-22T11:54:37.000Z</time>
      </trkpt>
      <trkpt lat="42.6417842321097850799560546875" lon="0.05987738259136676788330078125">
        <ele>1682.5999755859375</ele>
        <time>2021-08-22T11:55:11.000Z</time>
      </trkpt>
      <trkpt lat="42.64177526347339153289794921875" lon="0.05991107784211635589599609375">
        <ele>1683</ele>
        <time>2021-08-22T11:56:36.000Z</time>
      </trkpt>
      <trkpt lat="42.6417835615575313568115234375" lon="0.059917867183685302734375">
        <ele>1683.199951171875</ele>
        <time>2021-08-22T11:56:43.000Z</time>
      </trkpt>
      <trkpt lat="42.6417976431548595428466796875" lon="0.059924907982349395751953125">
        <ele>1683.4000244140625</ele>
        <time>2021-08-22T11:56:51.000Z</time>
      </trkpt>
      <trkpt lat="42.641755230724811553955078125" lon="0.0599218904972076416015625">
        <ele>1683</ele>
        <time>2021-08-22T11:57:03.000Z</time>
      </trkpt>
      <trkpt lat="42.6417604275047779083251953125" lon="0.05992524325847625732421875">
        <ele>1683</ele>
        <time>2021-08-22T11:57:15.000Z</time>
      </trkpt>
      <trkpt lat="42.64175464399158954620361328125" lon="0.05993622355163097381591796875">
        <ele>1683.199951171875</ele>
        <time>2021-08-22T11:57:20.000Z</time>
      </trkpt>
      <trkpt lat="42.641754560172557830810546875" lon="0.05994091741740703582763671875">
        <ele>1683.4000244140625</ele>
        <time>2021-08-22T11:57:23.000Z</time>
      </trkpt>
      <trkpt lat="42.641727738082408905029296875" lon="0.05992800928652286529541015625">
        <ele>1683</ele>
        <time>2021-08-22T11:57:30.000Z</time>
      </trkpt>
      <trkpt lat="42.64172874391078948974609375" lon="0.05992465652525424957275390625">
        <ele>1683</ele>
        <time>2021-08-22T11:57:34.000Z</time>
      </trkpt>
      <trkpt lat="42.64172379858791828155517578125" lon="0.0598995946347713470458984375">
        <ele>1682.4000244140625</ele>
        <time>2021-08-22T11:57:37.000Z</time>
      </trkpt>
      <trkpt lat="42.64172279275953769683837890625" lon="0.05988777615129947662353515625">
        <ele>1682.199951171875</ele>
        <time>2021-08-22T11:57:38.000Z</time>
      </trkpt>
      <trkpt lat="42.641721032559871673583984375" lon="0.0598999299108982086181640625">
        <ele>1682.4000244140625</ele>
        <time>2021-08-22T11:58:08.000Z</time>
      </trkpt>
      <trkpt lat="42.64170820824801921844482421875" lon="0.05987738259136676788330078125">
        <ele>1682</ele>
        <time>2021-08-22T11:58:36.000Z</time>
      </trkpt>
      <trkpt lat="42.6417034305632114410400390625" lon="0.0598778016865253448486328125">
        <ele>1682</ele>
        <time>2021-08-22T11:58:43.000Z</time>
      </trkpt>
      <trkpt lat="42.64171239919960498809814453125" lon="0.05989196710288524627685546875">
        <ele>1682.199951171875</ele>
        <time>2021-08-22T11:59:07.000Z</time>
      </trkpt>
      <trkpt lat="42.6417124830186367034912109375" lon="0.05990001372992992401123046875">
        <ele>1682.4000244140625</ele>
        <time>2021-08-22T11:59:16.000Z</time>
      </trkpt>
      <trkpt lat="42.64168976806104183197021484375" lon="0.05995969288051128387451171875">
        <ele>1683.199951171875</ele>
        <time>2021-08-22T11:59:22.000Z</time>
      </trkpt>
      <trkpt lat="42.6416611857712268829345703125" lon="0.0600514747202396392822265625">
        <ele>1684.4000244140625</ele>
        <time>2021-08-22T11:59:28.000Z</time>
      </trkpt>
      <trkpt lat="42.64165121130645275115966796875" lon="0.06007703952491283416748046875">
        <ele>1684.5999755859375</ele>
        <time>2021-08-22T11:59:30.000Z</time>
      </trkpt>
      <trkpt lat="42.64164517633616924285888671875" lon="0.06008885800838470458984375">
        <ele>1684.800048828125</ele>
        <time>2021-08-22T11:59:31.000Z</time>
      </trkpt>
      <trkpt lat="42.641638554632663726806640625" lon="0.06010067649185657501220703125">
        <ele>1684.800048828125</ele>
        <time>2021-08-22T11:59:32.000Z</time>
      </trkpt>
      <trkpt lat="42.6416306756436824798583984375" lon="0.06011375226080417633056640625">
        <ele>1684.800048828125</ele>
        <time>2021-08-22T11:59:33.000Z</time>
      </trkpt>
      <trkpt lat="42.6416181027889251708984375" lon="0.060132108628749847412109375">
        <ele>1685</ele>
        <time>2021-08-22T11:59:35.000Z</time>
      </trkpt>
      <trkpt lat="42.6415698230266571044921875" lon="0.0601768679916858673095703125">
        <ele>1684.800048828125</ele>
        <time>2021-08-22T11:59:40.000Z</time>
      </trkpt>
      <trkpt lat="42.6415431685745716094970703125" lon="0.0602000020444393157958984375">
        <ele>1684.5999755859375</ele>
        <time>2021-08-22T11:59:43.000Z</time>
      </trkpt>
      <trkpt lat="42.64153587631881237030029296875" lon="0.060207545757293701171875">
        <ele>1684.4000244140625</ele>
        <time>2021-08-22T11:59:44.000Z</time>
      </trkpt>
      <trkpt lat="42.6415297575294971466064453125" lon="0.06022137589752674102783203125">
        <ele>1684.5999755859375</ele>
        <time>2021-08-22T11:59:46.000Z</time>
      </trkpt>
      <trkpt lat="42.64154635369777679443359375" lon="0.0602858327329158782958984375">
        <ele>1685.5999755859375</ele>
        <time>2021-08-22T11:59:55.000Z</time>
      </trkpt>
      <trkpt lat="42.6415991596877574920654296875" lon="0.060305781662464141845703125">
        <ele>1686.5999755859375</ele>
        <time>2021-08-22T12:00:06.000Z</time>
      </trkpt>
      <trkpt lat="42.64162120409309864044189453125" lon="0.0603327713906764984130859375">
        <ele>1687.4000244140625</ele>
        <time>2021-08-22T12:00:10.000Z</time>
      </trkpt>
      <trkpt lat="42.64172547496855258941650390625" lon="0.06040527485311031341552734375">
        <ele>1690</ele>
        <time>2021-08-22T12:00:31.000Z</time>
      </trkpt>
      <trkpt lat="42.6418455876410007476806640625" lon="0.06049362011253833770751953125">
        <ele>1692.800048828125</ele>
        <time>2021-08-22T12:00:55.000Z</time>
      </trkpt>
      <trkpt lat="42.64199218712747097015380859375" lon="0.0606157444417476654052734375">
        <ele>1697</ele>
        <time>2021-08-22T12:01:13.000Z</time>
      </trkpt>
      <trkpt lat="42.6420256309211254119873046875" lon="0.06063527427613735198974609375">
        <ele>1697.800048828125</ele>
        <time>2021-08-22T12:01:19.000Z</time>
      </trkpt>
      <trkpt lat="42.64203719794750213623046875" lon="0.06064474582672119140625">
        <ele>1698.199951171875</ele>
        <time>2021-08-22T12:01:21.000Z</time>
      </trkpt>
      <trkpt lat="42.6420427300035953521728515625" lon="0.060652457177639007568359375">
        <ele>1698.4000244140625</ele>
        <time>2021-08-22T12:01:22.000Z</time>
      </trkpt>
      <trkpt lat="42.64204717241227626800537109375" lon="0.06065790541470050811767578125">
        <ele>1698.5999755859375</ele>
        <time>2021-08-22T12:01:23.000Z</time>
      </trkpt>
      <trkpt lat="42.64209025539457798004150390625" lon="0.0606938637793064117431640625">
        <ele>1699.800048828125</ele>
        <time>2021-08-22T12:01:32.000Z</time>
      </trkpt>
      <trkpt lat="42.6420993916690349578857421875" lon="0.0607089512050151824951171875">
        <ele>1700.199951171875</ele>
        <time>2021-08-22T12:01:35.000Z</time>
      </trkpt>
      <trkpt lat="42.64210760593414306640625" lon="0.060711465775966644287109375">
        <ele>1700.4000244140625</ele>
        <time>2021-08-22T12:01:37.000Z</time>
      </trkpt>
      <trkpt lat="42.64212361536920070648193359375" lon="0.06072227843105792999267578125">
        <ele>1701</ele>
        <time>2021-08-22T12:01:40.000Z</time>
      </trkpt>
      <trkpt lat="42.64212512411177158355712890625" lon="0.0607300736010074615478515625">
        <ele>1701.199951171875</ele>
        <time>2021-08-22T12:01:42.000Z</time>
      </trkpt>
      <trkpt lat="42.64213283546268939971923828125" lon="0.06073686294257640838623046875">
        <ele>1701.5999755859375</ele>
        <time>2021-08-22T12:01:44.000Z</time>
      </trkpt>
      <trkpt lat="42.64219134114682674407958984375" lon="0.06076988764107227325439453125">
        <ele>1703.5999755859375</ele>
        <time>2021-08-22T12:01:52.000Z</time>
      </trkpt>
      <trkpt lat="42.6422516070306301116943359375" lon="0.0607721507549285888671875">
        <ele>1704.199951171875</ele>
        <time>2021-08-22T12:02:03.000Z</time>
      </trkpt>
      <trkpt lat="42.64228119514882564544677734375" lon="0.060808025300502777099609375">
        <ele>1706.199951171875</ele>
        <time>2021-08-22T12:02:08.000Z</time>
      </trkpt>
      <trkpt lat="42.64232913963496685028076171875" lon="0.0608598254621028900146484375">
        <ele>1709</ele>
        <time>2021-08-22T12:02:18.000Z</time>
      </trkpt>
      <trkpt lat="42.64238479547202587127685546875" lon="0.06081112660467624664306640625">
        <ele>1708.4000244140625</ele>
        <time>2021-08-22T12:02:30.000Z</time>
      </trkpt>
      <trkpt lat="42.64250583015382289886474609375" lon="0.06100357510149478912353515625">
        <ele>1717.800048828125</ele>
        <time>2021-08-22T12:03:15.000Z</time>
      </trkpt>
      <trkpt lat="42.642517983913421630859375" lon="0.0610422156751155853271484375">
        <ele>1719.4000244140625</ele>
        <time>2021-08-22T12:03:19.000Z</time>
      </trkpt>
      <trkpt lat="42.6425265334546566009521484375" lon="0.061056800186634063720703125">
        <ele>1720</ele>
        <time>2021-08-22T12:03:21.000Z</time>
      </trkpt>
      <trkpt lat="42.64254824258387088775634765625" lon="0.061125196516513824462890625">
        <ele>1722.4000244140625</ele>
        <time>2021-08-22T12:03:27.000Z</time>
      </trkpt>
      <trkpt lat="42.642594091594219207763671875" lon="0.0611676089465618133544921875">
        <ele>1724.199951171875</ele>
        <time>2021-08-22T12:03:33.000Z</time>
      </trkpt>
      <trkpt lat="42.642598114907741546630859375" lon="0.06119686178863048553466796875">
        <ele>1725.199951171875</ele>
        <time>2021-08-22T12:03:36.000Z</time>
      </trkpt>
      <trkpt lat="42.64261387288570404052734375" lon="0.06118529476225376129150390625">
        <ele>1724.800048828125</ele>
        <time>2021-08-22T12:03:41.000Z</time>
      </trkpt>
      <trkpt lat="42.64265016652643680572509765625" lon="0.0612708739936351776123046875">
        <ele>1728</ele>
        <time>2021-08-22T12:04:01.000Z</time>
      </trkpt>
      <trkpt lat="42.6426787488162517547607421875" lon="0.0613885559141635894775390625">
        <ele>1731.5999755859375</ele>
        <time>2021-08-22T12:04:21.000Z</time>
      </trkpt>
      <trkpt lat="42.64274488203227519989013671875" lon="0.06143876351416110992431640625">
        <ele>1733.4000244140625</ele>
        <time>2021-08-22T12:04:36.000Z</time>
      </trkpt>
      <trkpt lat="42.642860300838947296142578125" lon="0.06156968884170055389404296875">
        <ele>1738</ele>
        <time>2021-08-22T12:05:27.000Z</time>
      </trkpt>
      <trkpt lat="42.64293867163360118865966796875" lon="0.061656944453716278076171875">
        <ele>1741</ele>
        <time>2021-08-22T12:05:49.000Z</time>
      </trkpt>
      <trkpt lat="42.643104381859302520751953125" lon="0.06168686784803867340087890625">
        <ele>1743</ele>
        <time>2021-08-22T12:06:13.000Z</time>
      </trkpt>
      <trkpt lat="42.64311502687633037567138671875" lon="0.061683095991611480712890625">
        <ele>1743</ele>
        <time>2021-08-22T12:06:14.000Z</time>
      </trkpt>
      <trkpt lat="42.64315106905996799468994140625" lon="0.0617268495261669158935546875">
        <ele>1744.199951171875</ele>
        <time>2021-08-22T12:06:27.000Z</time>
      </trkpt>
      <trkpt lat="42.64316313900053501129150390625" lon="0.0617328844964504241943359375">
        <ele>1744.4000244140625</ele>
        <time>2021-08-22T12:06:28.000Z</time>
      </trkpt>
      <trkpt lat="42.643247880041599273681640625" lon="0.0617707706987857818603515625">
        <ele>1745.5999755859375</ele>
        <time>2021-08-22T12:06:37.000Z</time>
      </trkpt>
      <trkpt lat="42.64336564578115940093994140625" lon="0.06181058473885059356689453125">
        <ele>1746.5999755859375</ele>
        <time>2021-08-22T12:06:53.000Z</time>
      </trkpt>
      <trkpt lat="42.64341543428599834442138671875" lon="0.0617801584303379058837890625">
        <ele>1745.800048828125</ele>
        <time>2021-08-22T12:07:05.000Z</time>
      </trkpt>
      <trkpt lat="42.64356178231537342071533203125" lon="0.06176783703267574310302734375">
        <ele>1745.4000244140625</ele>
        <time>2021-08-22T12:07:15.000Z</time>
      </trkpt>
      <trkpt lat="42.6436351239681243896484375" lon="0.061801113188266754150390625">
        <ele>1746.4000244140625</ele>
        <time>2021-08-22T12:07:25.000Z</time>
      </trkpt>
      <trkpt lat="42.643670998513698577880859375" lon="0.0618093274533748626708984375">
        <ele>1747.4000244140625</ele>
        <time>2021-08-22T12:07:30.000Z</time>
      </trkpt>
      <trkpt lat="42.6437093876302242279052734375" lon="0.061841346323490142822265625">
        <ele>1749.5999755859375</ele>
        <time>2021-08-22T12:07:37.000Z</time>
      </trkpt>
      <trkpt lat="42.6437787897884845733642578125" lon="0.06179834716022014617919921875">
        <ele>1750.5999755859375</ele>
        <time>2021-08-22T12:07:46.000Z</time>
      </trkpt>
      <trkpt lat="42.643800079822540283203125" lon="0.0618156976997852325439453125">
        <ele>1751.5999755859375</ele>
        <time>2021-08-22T12:07:50.000Z</time>
      </trkpt>
      <trkpt lat="42.64381508342921733856201171875" lon="0.0618183799088001251220703125">
        <ele>1752.199951171875</ele>
        <time>2021-08-22T12:07:52.000Z</time>
      </trkpt>
      <trkpt lat="42.64358106069266796112060546875" lon="0.06199582479894161224365234375">
        <ele>1755.800048828125</ele>
        <time>2021-08-22T12:08:49.000Z</time>
      </trkpt>
      <trkpt lat="42.6435734331607818603515625" lon="0.06200672127306461334228515625">
        <ele>1756.199951171875</ele>
        <time>2021-08-22T12:08:53.000Z</time>
      </trkpt>
      <trkpt lat="42.643558345735073089599609375" lon="0.0620148517191410064697265625">
        <ele>1756.5999755859375</ele>
        <time>2021-08-22T12:08:57.000Z</time>
      </trkpt>
      <trkpt lat="42.64353948645293712615966796875" lon="0.06198693998157978057861328125">
        <ele>1755.199951171875</ele>
        <time>2021-08-22T12:09:03.000Z</time>
      </trkpt>
      <trkpt lat="42.64352741651237010955810546875" lon="0.0619555078446865081787109375">
        <ele>1753.5999755859375</ele>
        <time>2021-08-22T12:09:31.000Z</time>
      </trkpt>
      <trkpt lat="42.643514089286327362060546875" lon="0.061978809535503387451171875">
        <ele>1754.5999755859375</ele>
        <time>2021-08-22T12:09:45.000Z</time>
      </trkpt>
      <trkpt lat="42.64354535378515720367431640625" lon="0.06200906820595264434814453125">
        <ele>1756.199951171875</ele>
        <time>2021-08-22T12:10:12.000Z</time>
      </trkpt>
      <trkpt lat="42.6435729302465915679931640625" lon="0.0619900412857532501220703125">
        <ele>1755.4000244140625</ele>
        <time>2021-08-22T12:10:18.000Z</time>
      </trkpt>
      <trkpt lat="42.64363235794007778167724609375" lon="0.06195039488375186920166015625">
        <ele>1753.4000244140625</ele>
        <time>2021-08-22T12:10:27.000Z</time>
      </trkpt>
      <trkpt lat="42.64350512064993381500244140625" lon="0.0621355511248111724853515625">
        <ele>1761.4000244140625</ele>
        <time>2021-08-22T12:11:16.000Z</time>
      </trkpt>
      <trkpt lat="42.64361760579049587249755859375" lon="0.062163211405277252197265625">
        <ele>1764</ele>
        <time>2021-08-22T12:11:27.000Z</time>
      </trkpt>
      <trkpt lat="42.64363043010234832763671875" lon="0.06216295994818210601806640625">
        <ele>1764.199951171875</ele>
        <time>2021-08-22T12:11:28.000Z</time>
      </trkpt>
      <trkpt lat="42.643645517528057098388671875" lon="0.06217586807906627655029296875">
        <ele>1765</ele>
        <time>2021-08-22T12:11:31.000Z</time>
      </trkpt>
      <trkpt lat="42.643666304647922515869140625" lon="0.062168575823307037353515625">
        <ele>1764.800048828125</ele>
        <time>2021-08-22T12:11:33.000Z</time>
      </trkpt>
      <trkpt lat="42.64368583448231220245361328125" lon="0.06216513924300670623779296875">
        <ele>1765</ele>
        <time>2021-08-22T12:11:34.000Z</time>
      </trkpt>
      <trkpt lat="42.6437341980636119842529296875" lon="0.06217234767973423004150390625">
        <ele>1766.199951171875</ele>
        <time>2021-08-22T12:11:39.000Z</time>
      </trkpt>
      <trkpt lat="42.64376831240952014923095703125" lon="0.062183998525142669677734375">
        <ele>1767.4000244140625</ele>
        <time>2021-08-22T12:11:43.000Z</time>
      </trkpt>
      <trkpt lat="42.64384157024323940277099609375" lon="0.06219078786671161651611328125">
        <ele>1769</ele>
        <time>2021-08-22T12:11:51.000Z</time>
      </trkpt>
      <trkpt lat="42.64385933987796306610107421875" lon="0.06218232214450836181640625">
        <ele>1768.800048828125</ele>
        <time>2021-08-22T12:11:54.000Z</time>
      </trkpt>
      <trkpt lat="42.6438964717090129852294921875" lon="0.06218542344868183135986328125">
        <ele>1769.5999755859375</ele>
        <time>2021-08-22T12:12:00.000Z</time>
      </trkpt>
      <trkpt lat="42.64391130767762660980224609375" lon="0.062206126749515533447265625">
        <ele>1771</ele>
        <time>2021-08-22T12:12:03.000Z</time>
      </trkpt>
      <trkpt lat="42.6439306698739528656005859375" lon="0.0622250698506832122802734375">
        <ele>1772.199951171875</ele>
        <time>2021-08-22T12:12:05.000Z</time>
      </trkpt>
      <trkpt lat="42.6440587453544139862060546875" lon="0.0622522272169589996337890625">
        <ele>1774.5999755859375</ele>
        <time>2021-08-22T12:12:15.000Z</time>
      </trkpt>
      <trkpt lat="42.64404424466192722320556640625" lon="0.06236831657588481903076171875">
        <ele>1780.4000244140625</ele>
        <time>2021-08-22T12:12:36.000Z</time>
      </trkpt>
      <trkpt lat="42.644107528030872344970703125" lon="0.06243688054382801055908203125">
        <ele>1784</ele>
        <time>2021-08-22T12:12:58.000Z</time>
      </trkpt>
      <trkpt lat="42.64416058547794818878173828125" lon="0.0624869205057621002197265625">
        <ele>1786.800048828125</ele>
        <time>2021-08-22T12:13:11.000Z</time>
      </trkpt>
      <trkpt lat="42.6442464999854564666748046875" lon="0.0625221244990825653076171875">
        <ele>1788.800048828125</ele>
        <time>2021-08-22T12:13:23.000Z</time>
      </trkpt>
      <trkpt lat="42.6442622579634189605712890625" lon="0.06253176368772983551025390625">
        <ele>1789.4000244140625</ele>
        <time>2021-08-22T12:13:25.000Z</time>
      </trkpt>
      <trkpt lat="42.644343562424182891845703125" lon="0.06254098378121852874755859375">
        <ele>1790</ele>
        <time>2021-08-22T12:13:40.000Z</time>
      </trkpt>
      <trkpt lat="42.64442947693169116973876953125" lon="0.06255674175918102264404296875">
        <ele>1791.5999755859375</ele>
        <time>2021-08-22T12:14:09.000Z</time>
      </trkpt>
      <trkpt lat="42.64445395208895206451416015625" lon="0.06255892105400562286376953125">
        <ele>1792</ele>
        <time>2021-08-22T12:14:19.000Z</time>
      </trkpt>
      <trkpt lat="42.6444731466472148895263671875" lon="0.06254299543797969818115234375">
        <ele>1791.800048828125</ele>
        <time>2021-08-22T12:14:38.000Z</time>
      </trkpt>
      <trkpt lat="42.64451279304921627044677734375" lon="0.06261625327169895172119140625">
        <ele>1794.800048828125</ele>
        <time>2021-08-22T12:15:36.000Z</time>
      </trkpt>
      <trkpt lat="42.644544057548046112060546875" lon="0.062646009027957916259765625">
        <ele>1796.199951171875</ele>
        <time>2021-08-22T12:15:44.000Z</time>
      </trkpt>
      <trkpt lat="42.6445660181343555450439453125" lon="0.06270141340792179107666015625">
        <ele>1798.5999755859375</ele>
        <time>2021-08-22T12:15:52.000Z</time>
      </trkpt>
      <trkpt lat="42.64457096345722675323486328125" lon="0.06271381862461566925048828125">
        <ele>1799.199951171875</ele>
        <time>2021-08-22T12:15:53.000Z</time>
      </trkpt>
      <trkpt lat="42.64458588324487209320068359375" lon="0.0627407245337963104248046875">
        <ele>1800.4000244140625</ele>
        <time>2021-08-22T12:15:56.000Z</time>
      </trkpt>
      <trkpt lat="42.64460147358477115631103515625" lon="0.06275924853980541229248046875">
        <ele>1801.4000244140625</ele>
        <time>2021-08-22T12:15:58.000Z</time>
      </trkpt>
      <trkpt lat="42.6446407847106456756591796875" lon="0.0628191791474819183349609375">
        <ele>1804.199951171875</ele>
        <time>2021-08-22T12:16:03.000Z</time>
      </trkpt>
      <trkpt lat="42.6446867175400257110595703125" lon="0.06285413168370723724365234375">
        <ele>1806</ele>
        <time>2021-08-22T12:16:18.000Z</time>
      </trkpt>
      <trkpt lat="42.6446709595620632171630859375" lon="0.06279663182795047760009765625">
        <ele>1803.5999755859375</ele>
        <time>2021-08-22T12:16:25.000Z</time>
      </trkpt>
      <trkpt lat="42.6446716301143169403076171875" lon="0.0627596676349639892578125">
        <ele>1802.199951171875</ele>
        <time>2021-08-22T12:16:28.000Z</time>
      </trkpt>
      <trkpt lat="42.64464388601481914520263671875" lon="0.0627095438539981842041015625">
        <ele>1799.800048828125</ele>
        <time>2021-08-22T12:16:44.000Z</time>
      </trkpt>
      <trkpt lat="42.64463416300714015960693359375" lon="0.0627060234546661376953125">
        <ele>1799.5999755859375</ele>
        <time>2021-08-22T12:16:54.000Z</time>
      </trkpt>
      <trkpt lat="42.644615806639194488525390625" lon="0.062690936028957366943359375">
        <ele>1798.800048828125</ele>
        <time>2021-08-22T12:17:04.000Z</time>
      </trkpt>
      <trkpt lat="42.64461538754403591156005859375" lon="0.0626867450773715972900390625">
        <ele>1798.5999755859375</ele>
        <time>2021-08-22T12:17:18.000Z</time>
      </trkpt>
      <trkpt lat="42.64461857266724109649658203125" lon="0.06269596517086029052734375">
        <ele>1799</ele>
        <time>2021-08-22T12:17:22.000Z</time>
      </trkpt>
      <trkpt lat="42.64463223516941070556640625" lon="0.0627061910927295684814453125">
        <ele>1799.5999755859375</ele>
        <time>2021-08-22T12:17:32.000Z</time>
      </trkpt>
      <trkpt lat="42.6446347497403621673583984375" lon="0.06270459853112697601318359375">
        <ele>1799.5999755859375</ele>
        <time>2021-08-22T12:17:42.000Z</time>
      </trkpt>
      <trkpt lat="42.6446360908448696136474609375" lon="0.062703676521778106689453125">
        <ele>1799.5999755859375</ele>
        <time>2021-08-22T12:17:50.000Z</time>
      </trkpt>
      <trkpt lat="42.64463684521615505218505859375" lon="0.06269194185733795166015625">
        <ele>1799</ele>
        <time>2021-08-22T12:17:58.000Z</time>
      </trkpt>
      <trkpt lat="42.644697614014148712158203125" lon="0.0626988150179386138916015625">
        <ele>1800</ele>
        <time>2021-08-22T12:18:19.000Z</time>
      </trkpt>
      <trkpt lat="42.64470599591732025146484375" lon="0.0627045147120952606201171875">
        <ele>1800.199951171875</ele>
        <time>2021-08-22T12:18:21.000Z</time>
      </trkpt>
      <trkpt lat="42.6447195746004581451416015625" lon="0.0627266429364681243896484375">
        <ele>1801.4000244140625</ele>
        <time>2021-08-22T12:18:25.000Z</time>
      </trkpt>
      <trkpt lat="42.64472686685621738433837890625" lon="0.06276545114815235137939453125">
        <ele>1803</ele>
        <time>2021-08-22T12:18:29.000Z</time>
      </trkpt>
      <trkpt lat="42.644777409732341766357421875" lon="0.06282269954681396484375">
        <ele>1805.5999755859375</ele>
        <time>2021-08-22T12:18:38.000Z</time>
      </trkpt>
      <trkpt lat="42.64480129815638065338134765625" lon="0.0628671236336231231689453125">
        <ele>1807.5999755859375</ele>
        <time>2021-08-22T12:18:42.000Z</time>
      </trkpt>
      <trkpt lat="42.64480297453701496124267578125" lon="0.06288967095315456390380859375">
        <ele>1808.5999755859375</ele>
        <time>2021-08-22T12:18:45.000Z</time>
      </trkpt>
      <trkpt lat="42.64481470920145511627197265625" lon="0.06290978752076625823974609375">
        <ele>1809.4000244140625</ele>
        <time>2021-08-22T12:18:47.000Z</time>
      </trkpt>
      <trkpt lat="42.64482124708592891693115234375" lon="0.0629179179668426513671875">
        <ele>1809.800048828125</ele>
        <time>2021-08-22T12:18:49.000Z</time>
      </trkpt>
      <trkpt lat="42.64482376165688037872314453125" lon="0.06292705424129962921142578125">
        <ele>1810.199951171875</ele>
        <time>2021-08-22T12:18:52.000Z</time>
      </trkpt>
      <trkpt lat="42.64481688849627971649169921875" lon="0.0629174150526523590087890625">
        <ele>1809.800048828125</ele>
        <time>2021-08-22T12:18:58.000Z</time>
      </trkpt>
      <trkpt lat="42.64480632729828357696533203125" lon="0.0629006512463092803955078125">
        <ele>1809</ele>
        <time>2021-08-22T12:19:01.000Z</time>
      </trkpt>
      <trkpt lat="42.6448164694011211395263671875" lon="0.06288849748671054840087890625">
        <ele>1808.5999755859375</ele>
        <time>2021-08-22T12:19:06.000Z</time>
      </trkpt>
      <trkpt lat="42.6448161341249942779541015625" lon="0.06288506090641021728515625">
        <ele>1808.4000244140625</ele>
        <time>2021-08-22T12:19:08.000Z</time>
      </trkpt>
      <trkpt lat="42.6448147930204868316650390625" lon="0.06286905147135257720947265625">
        <ele>1807.800048828125</ele>
        <time>2021-08-22T12:19:11.000Z</time>
      </trkpt>
      <trkpt lat="42.64481219463050365447998046875" lon="0.06286536343395709991455078125">
        <ele>1807.5999755859375</ele>
        <time>2021-08-22T12:19:12.000Z</time>
      </trkpt>
      <trkpt lat="42.64494664035737514495849609375" lon="0.06303886882960796356201171875">
        <ele>1816.199951171875</ele>
        <time>2021-08-22T12:19:56.000Z</time>
      </trkpt>
      <trkpt lat="42.6450032182037830352783203125" lon="0.06303333677351474761962890625">
        <ele>1816.4000244140625</ele>
        <time>2021-08-22T12:20:09.000Z</time>
      </trkpt>
      <trkpt lat="42.64504722319543361663818359375" lon="0.06310910917818546295166015625">
        <ele>1820.199951171875</ele>
        <time>2021-08-22T12:20:23.000Z</time>
      </trkpt>
      <trkpt lat="42.64505342580378055572509765625" lon="0.06311447359621524810791015625">
        <ele>1820.5999755859375</ele>
        <time>2021-08-22T12:20:25.000Z</time>
      </trkpt>
      <trkpt lat="42.64506272971630096435546875" lon="0.063120760023593902587890625">
        <ele>1821</ele>
        <time>2021-08-22T12:20:28.000Z</time>
      </trkpt>
      <trkpt lat="42.64507823623716831207275390625" lon="0.0631400384008884429931640625">
        <ele>1822</ele>
        <time>2021-08-22T12:20:31.000Z</time>
      </trkpt>
      <trkpt lat="42.645145542919635772705078125" lon="0.06320022046566009521484375">
        <ele>1825.5999755859375</ele>
        <time>2021-08-22T12:20:41.000Z</time>
      </trkpt>
      <trkpt lat="42.6452632248401641845703125" lon="0.06322192959487438201904296875">
        <ele>1828</ele>
        <time>2021-08-22T12:21:04.000Z</time>
      </trkpt>
      <trkpt lat="42.64532022178173065185546875" lon="0.06320667453110218048095703125">
        <ele>1827.800048828125</ele>
        <time>2021-08-22T12:21:11.000Z</time>
      </trkpt>
      <trkpt lat="42.645436562597751617431640625" lon="0.0631487555801868438720703125">
        <ele>1826.800048828125</ele>
        <time>2021-08-22T12:21:29.000Z</time>
      </trkpt>
      <trkpt lat="42.64539062976837158203125" lon="0.06307692267000675201416015625">
        <ele>1823.4000244140625</ele>
        <time>2021-08-22T12:21:54.000Z</time>
      </trkpt>
      <trkpt lat="42.6453582756221294403076171875" lon="0.06307943724095821380615234375">
        <ele>1823.199951171875</ele>
        <time>2021-08-22T12:22:05.000Z</time>
      </trkpt>
      <trkpt lat="42.6453731954097747802734375" lon="0.0632577203214168548583984375">
        <ele>1830.5999755859375</ele>
        <time>2021-08-22T13:07:36.000Z</time>
      </trkpt>
      <trkpt lat="42.6453666575253009796142578125" lon="0.06327892653644084930419921875">
        <ele>1831.5999755859375</ele>
        <time>2021-08-22T13:07:38.000Z</time>
      </trkpt>
      <trkpt lat="42.64546103775501251220703125" lon="0.06341077387332916259765625">
        <ele>1838.800048828125</ele>
        <time>2021-08-22T13:07:59.000Z</time>
      </trkpt>
      <trkpt lat="42.6455000974237918853759765625" lon="0.06343969143927097320556640625">
        <ele>1840.199951171875</ele>
        <time>2021-08-22T13:08:06.000Z</time>
      </trkpt>
      <trkpt lat="42.6455249078571796417236328125" lon="0.06343918852508068084716796875">
        <ele>1840.199951171875</ele>
        <time>2021-08-22T13:08:11.000Z</time>
      </trkpt>
      <trkpt lat="42.64574107713997364044189453125" lon="0.0636426173150539398193359375">
        <ele>1849.199951171875</ele>
        <time>2021-08-22T13:09:21.000Z</time>
      </trkpt>
      <trkpt lat="42.6458005048334598541259765625" lon="0.063691399991512298583984375">
        <ele>1851</ele>
        <time>2021-08-22T13:09:38.000Z</time>
      </trkpt>
      <trkpt lat="42.64584551565349102020263671875" lon="0.06371126510202884674072265625">
        <ele>1852.4000244140625</ele>
        <time>2021-08-22T13:09:44.000Z</time>
      </trkpt>
      <trkpt lat="42.6458528079092502593994140625" lon="0.0637147016823291778564453125">
        <ele>1852.5999755859375</ele>
        <time>2021-08-22T13:09:45.000Z</time>
      </trkpt>
      <trkpt lat="42.64588541351258754730224609375" lon="0.06373171694576740264892578125">
        <ele>1853.199951171875</ele>
        <time>2021-08-22T13:09:50.000Z</time>
      </trkpt>
      <trkpt lat="42.64589153230190277099609375" lon="0.0637371651828289031982421875">
        <ele>1853.199951171875</ele>
        <time>2021-08-22T13:09:51.000Z</time>
      </trkpt>
      <trkpt lat="42.64590703882277011871337890625" lon="0.0637438707053661346435546875">
        <ele>1853</ele>
        <time>2021-08-22T13:09:54.000Z</time>
      </trkpt>
      <trkpt lat="42.64592195861041545867919921875" lon="0.06374713964760303497314453125">
        <ele>1853</ele>
        <time>2021-08-22T13:09:57.000Z</time>
      </trkpt>
      <trkpt lat="42.645936794579029083251953125" lon="0.0637472234666347503662109375">
        <ele>1852.800048828125</ele>
        <time>2021-08-22T13:10:01.000Z</time>
      </trkpt>
      <trkpt lat="42.6459480263292789459228515625" lon="0.06374143995344638824462890625">
        <ele>1852.4000244140625</ele>
        <time>2021-08-22T13:10:06.000Z</time>
      </trkpt>
      <trkpt lat="42.64599320478737354278564453125" lon="0.063757784664630889892578125">
        <ele>1852.199951171875</ele>
        <time>2021-08-22T13:10:13.000Z</time>
      </trkpt>
      <trkpt lat="42.64600460417568683624267578125" lon="0.06377077661454677581787109375">
        <ele>1852.199951171875</ele>
        <time>2021-08-22T13:10:31.000Z</time>
      </trkpt>
      <trkpt lat="42.64609982259571552276611328125" lon="0.06385241635143756866455078125">
        <ele>1852.800048828125</ele>
        <time>2021-08-22T13:11:18.000Z</time>
      </trkpt>
      <trkpt lat="42.6461522094905376434326171875" lon="0.0638977624475955963134765625">
        <ele>1853.199951171875</ele>
        <time>2021-08-22T13:11:50.000Z</time>
      </trkpt>
      <trkpt lat="42.646153382956981658935546875" lon="0.0638984329998493194580078125">
        <ele>1853.199951171875</ele>
        <time>2021-08-22T13:11:51.000Z</time>
      </trkpt>
      <trkpt lat="42.6461579091846942901611328125" lon="0.0639017857611179351806640625">
        <ele>1853.4000244140625</ele>
        <time>2021-08-22T13:11:53.000Z</time>
      </trkpt>
      <trkpt lat="42.64616243541240692138671875" lon="0.06390555761754512786865234375">
        <ele>1853.5999755859375</ele>
        <time>2021-08-22T13:11:54.000Z</time>
      </trkpt>
      <trkpt lat="42.6461672969162464141845703125" lon="0.06391502916812896728515625">
        <ele>1853.800048828125</ele>
        <time>2021-08-22T13:11:55.000Z</time>
      </trkpt>
      <trkpt lat="42.64617341570556163787841796875" lon="0.06393388845026493072509765625">
        <ele>1854.199951171875</ele>
        <time>2021-08-22T13:11:58.000Z</time>
      </trkpt>
      <trkpt lat="42.6461837254464626312255859375" lon="0.0639425218105316162109375">
        <ele>1854.5999755859375</ele>
        <time>2021-08-22T13:12:00.000Z</time>
      </trkpt>
      <trkpt lat="42.646187245845794677734375" lon="0.0639470480382442474365234375">
        <ele>1854.5999755859375</ele>
        <time>2021-08-22T13:12:01.000Z</time>
      </trkpt>
      <trkpt lat="42.646192610263824462890625" lon="0.063951909542083740234375">
        <ele>1854.800048828125</ele>
        <time>2021-08-22T13:12:02.000Z</time>
      </trkpt>
      <trkpt lat="42.64619654975831508636474609375" lon="0.06395752541720867156982421875">
        <ele>1855</ele>
        <time>2021-08-22T13:12:03.000Z</time>
      </trkpt>
      <trkpt lat="42.64620794914662837982177734375" lon="0.06398149766027927398681640625">
        <ele>1855.5999755859375</ele>
        <time>2021-08-22T13:12:08.000Z</time>
      </trkpt>
      <trkpt lat="42.64623125083744525909423828125" lon="0.06401561200618743896484375">
        <ele>1856.5999755859375</ele>
        <time>2021-08-22T13:12:16.000Z</time>
      </trkpt>
      <trkpt lat="42.646213062107563018798828125" lon="0.0640496425330638885498046875">
        <ele>1857.4000244140625</ele>
        <time>2021-08-22T13:12:33.000Z</time>
      </trkpt>
      <trkpt lat="42.64622412621974945068359375" lon="0.06406791508197784423828125">
        <ele>1858.199951171875</ele>
        <time>2021-08-22T13:12:36.000Z</time>
      </trkpt>
      <trkpt lat="42.646251954138278961181640625" lon="0.06403966806828975677490234375">
        <ele>1857.199951171875</ele>
        <time>2021-08-22T13:13:41.000Z</time>
      </trkpt>
      <trkpt lat="42.646332420408725738525390625" lon="0.0640164501965045928955078125">
        <ele>1857</ele>
        <time>2021-08-22T13:13:52.000Z</time>
      </trkpt>
      <trkpt lat="42.64637030661106109619140625" lon="0.064013265073299407958984375">
        <ele>1857</ele>
        <time>2021-08-22T13:13:56.000Z</time>
      </trkpt>
      <trkpt lat="42.6463977992534637451171875" lon="0.06401049904525279998779296875">
        <ele>1857</ele>
        <time>2021-08-22T13:13:59.000Z</time>
      </trkpt>
      <trkpt lat="42.64640710316598415374755859375" lon="0.0640114210546016693115234375">
        <ele>1857.199951171875</ele>
        <time>2021-08-22T13:14:00.000Z</time>
      </trkpt>
      <trkpt lat="42.6464190892875194549560546875" lon="0.06401200778782367706298828125">
        <ele>1857.199951171875</ele>
        <time>2021-08-22T13:14:01.000Z</time>
      </trkpt>
      <trkpt lat="42.64647885225713253021240234375" lon="0.06399541161954402923583984375">
        <ele>1857.4000244140625</ele>
        <time>2021-08-22T13:14:07.000Z</time>
      </trkpt>
      <trkpt lat="42.6465292274951934814453125" lon="0.0639842636883258819580078125">
        <ele>1857.5999755859375</ele>
        <time>2021-08-22T13:14:12.000Z</time>
      </trkpt>
      <trkpt lat="42.6466122083365917205810546875" lon="0.0639752112329006195068359375">
        <ele>1858</ele>
        <time>2021-08-22T13:14:20.000Z</time>
      </trkpt>
      <trkpt lat="42.64676400460302829742431640625" lon="0.0641056336462497711181640625">
        <ele>1862.4000244140625</ele>
        <time>2021-08-22T13:14:56.000Z</time>
      </trkpt>
      <trkpt lat="42.64687330462038516998291015625" lon="0.06424804218113422393798828125">
        <ele>1867.800048828125</ele>
        <time>2021-08-22T13:15:09.000Z</time>
      </trkpt>
      <trkpt lat="42.647131718695163726806640625" lon="0.0645941309630870819091796875">
        <ele>1875.4000244140625</ele>
        <time>2021-08-22T13:16:05.000Z</time>
      </trkpt>
      <trkpt lat="42.64718678779900074005126953125" lon="0.064668394625186920166015625">
        <ele>1876.800048828125</ele>
        <time>2021-08-22T13:16:15.000Z</time>
      </trkpt>
      <trkpt lat="42.647240348160266876220703125" lon="0.06472195498645305633544921875">
        <ele>1877.5999755859375</ele>
        <time>2021-08-22T13:16:21.000Z</time>
      </trkpt>
      <trkpt lat="42.6473263464868068695068359375" lon="0.06482203491032123565673828125">
        <ele>1879.5999755859375</ele>
        <time>2021-08-22T13:16:32.000Z</time>
      </trkpt>
      <trkpt lat="42.647353000938892364501953125" lon="0.0648760981857776641845703125">
        <ele>1880.5999755859375</ele>
        <time>2021-08-22T13:16:40.000Z</time>
      </trkpt>
      <trkpt lat="42.64741125516593456268310546875" lon="0.0648881681263446807861328125">
        <ele>1880.5999755859375</ele>
        <time>2021-08-22T13:16:46.000Z</time>
      </trkpt>
      <trkpt lat="42.647542096674442291259765625" lon="0.06508707068860530853271484375">
        <ele>1885.199951171875</ele>
        <time>2021-08-22T13:17:07.000Z</time>
      </trkpt>
      <trkpt lat="42.6476197130978107452392578125" lon="0.06525856442749500274658203125">
        <ele>1889</ele>
        <time>2021-08-22T13:17:32.000Z</time>
      </trkpt>
      <trkpt lat="42.64770881272852420806884765625" lon="0.06528588943183422088623046875">
        <ele>1888.800048828125</ele>
        <time>2021-08-22T13:17:49.000Z</time>
      </trkpt>
      <trkpt lat="42.64787846244871616363525390625" lon="0.06546408869326114654541015625">
        <ele>1892.5999755859375</ele>
        <time>2021-08-22T13:18:25.000Z</time>
      </trkpt>
      <trkpt lat="42.64794250018894672393798828125" lon="0.0655744783580303192138671875">
        <ele>1895</ele>
        <time>2021-08-22T13:18:51.000Z</time>
      </trkpt>
      <trkpt lat="42.648080885410308837890625" lon="0.06560188718140125274658203125">
        <ele>1895.199951171875</ele>
        <time>2021-08-22T13:19:28.000Z</time>
      </trkpt>
      <trkpt lat="42.64808499254286289215087890625" lon="0.06568000651895999908447265625">
        <ele>1897.199951171875</ele>
        <time>2021-08-22T13:19:43.000Z</time>
      </trkpt>
      <trkpt lat="42.648175768554210662841796875" lon="0.0657069124281406402587890625">
        <ele>1895.800048828125</ele>
        <time>2021-08-22T13:20:05.000Z</time>
      </trkpt>
      <trkpt lat="42.64821323566138744354248046875" lon="0.0657139532268047332763671875">
        <ele>1895.199951171875</ele>
        <time>2021-08-22T13:20:09.000Z</time>
      </trkpt>
      <trkpt lat="42.648284733295440673828125" lon="0.06575812585651874542236328125">
        <ele>1894.800048828125</ele>
        <time>2021-08-22T13:20:17.000Z</time>
      </trkpt>
      <trkpt lat="42.64836427755653858184814453125" lon="0.06583054549992084503173828125">
        <ele>1895</ele>
        <time>2021-08-22T13:20:52.000Z</time>
      </trkpt>
      <trkpt lat="42.648344077169895172119140625" lon="0.06600170396268367767333984375">
        <ele>1901.5999755859375</ele>
        <time>2021-08-22T13:21:27.000Z</time>
      </trkpt>
      <trkpt lat="42.64837651513516902923583984375" lon="0.06611167453229427337646484375">
        <ele>1907.4000244140625</ele>
        <time>2021-08-22T13:22:20.000Z</time>
      </trkpt>
      <trkpt lat="42.64842613600194454193115234375" lon="0.06618074141442775726318359375">
        <ele>1911</ele>
        <time>2021-08-22T13:23:03.000Z</time>
      </trkpt>
      <trkpt lat="42.64845413155853748321533203125" lon="0.066226422786712646484375">
        <ele>1913.5999755859375</ele>
        <time>2021-08-22T13:23:17.000Z</time>
      </trkpt>
      <trkpt lat="42.6484575681388378143310546875" lon="0.06623203866183757781982421875">
        <ele>1913.800048828125</ele>
        <time>2021-08-22T13:23:20.000Z</time>
      </trkpt>
      <trkpt lat="42.6484589092433452606201171875" lon="0.06623254157602787017822265625">
        <ele>1913.800048828125</ele>
        <time>2021-08-22T13:23:21.000Z</time>
      </trkpt>
      <trkpt lat="42.6484629325568675994873046875" lon="0.06623136810958385467529296875">
        <ele>1913.800048828125</ele>
        <time>2021-08-22T13:23:23.000Z</time>
      </trkpt>
      <trkpt lat="42.64846519567072391510009765625" lon="0.06623170338571071624755859375">
        <ele>1913.800048828125</ele>
        <time>2021-08-22T13:23:24.000Z</time>
      </trkpt>
      <trkpt lat="42.64850241132080554962158203125" lon="0.06628811359405517578125">
        <ele>1916.5999755859375</ele>
        <time>2021-08-22T13:23:36.000Z</time>
      </trkpt>
      <trkpt lat="42.6485058479011058807373046875" lon="0.066293142735958099365234375">
        <ele>1917</ele>
        <time>2021-08-22T13:23:37.000Z</time>
      </trkpt>
      <trkpt lat="42.648514397442340850830078125" lon="0.06630479358136653900146484375">
        <ele>1917.4000244140625</ele>
        <time>2021-08-22T13:23:40.000Z</time>
      </trkpt>
      <trkpt lat="42.6485249586403369903564453125" lon="0.06632256321609020233154296875">
        <ele>1918.199951171875</ele>
        <time>2021-08-22T13:23:43.000Z</time>
      </trkpt>
      <trkpt lat="42.64852437190711498260498046875" lon="0.06633128039538860321044921875">
        <ele>1918.800048828125</ele>
        <time>2021-08-22T13:23:44.000Z</time>
      </trkpt>
      <trkpt lat="42.6485088653862476348876953125" lon="0.0664160214364528656005859375">
        <ele>1923.800048828125</ele>
        <time>2021-08-22T13:24:16.000Z</time>
      </trkpt>
      <trkpt lat="42.648566029965877532958984375" lon="0.06648316048085689544677734375">
        <ele>1926.800048828125</ele>
        <time>2021-08-22T13:24:39.000Z</time>
      </trkpt>
      <trkpt lat="42.64862612821161746978759765625" lon="0.066568739712238311767578125">
        <ele>1931.199951171875</ele>
        <time>2021-08-22T13:25:04.000Z</time>
      </trkpt>
      <trkpt lat="42.648702152073383331298828125" lon="0.0667764432728290557861328125">
        <ele>1943.199951171875</ele>
        <time>2021-08-22T13:26:00.000Z</time>
      </trkpt>
      <trkpt lat="42.64870273880660533905029296875" lon="0.0667781196534633636474609375">
        <ele>1943.199951171875</ele>
        <time>2021-08-22T13:26:01.000Z</time>
      </trkpt>
      <trkpt lat="42.64869938604533672332763671875" lon="0.0667937099933624267578125">
        <ele>1944.4000244140625</ele>
        <time>2021-08-22T13:26:06.000Z</time>
      </trkpt>
      <trkpt lat="42.64869100414216518402099609375" lon="0.0667895190417766571044921875">
        <ele>1944.199951171875</ele>
        <time>2021-08-22T13:26:38.000Z</time>
      </trkpt>
      <trkpt lat="42.64869175851345062255859375" lon="0.0667883455753326416015625">
        <ele>1944.199951171875</ele>
        <time>2021-08-22T13:26:48.000Z</time>
      </trkpt>
      <trkpt lat="42.64868505299091339111328125" lon="0.06679530255496501922607421875">
        <ele>1944.5999755859375</ele>
        <time>2021-08-22T13:26:55.000Z</time>
      </trkpt>
      <trkpt lat="42.64868530444800853729248046875" lon="0.0667952187359333038330078125">
        <ele>1944.5999755859375</ele>
        <time>2021-08-22T13:27:01.000Z</time>
      </trkpt>
      <trkpt lat="42.648686058819293975830078125" lon="0.06679848767817020416259765625">
        <ele>1944.800048828125</ele>
        <time>2021-08-22T13:27:17.000Z</time>
      </trkpt>
      <trkpt lat="42.64868513680994510650634765625" lon="0.066798739135265350341796875">
        <ele>1944.800048828125</ele>
        <time>2021-08-22T13:27:23.000Z</time>
      </trkpt>
      <trkpt lat="42.64873928390443325042724609375" lon="0.06688113324344158172607421875">
        <ele>1948.800048828125</ele>
        <time>2021-08-22T13:27:52.000Z</time>
      </trkpt>
      <trkpt lat="42.64876275323331356048583984375" lon="0.06688431836664676666259765625">
        <ele>1948.5999755859375</ele>
        <time>2021-08-22T13:27:59.000Z</time>
      </trkpt>
      <trkpt lat="42.64876878820359706878662109375" lon="0.06688532419502735137939453125">
        <ele>1948.5999755859375</ele>
        <time>2021-08-22T13:28:02.000Z</time>
      </trkpt>
      <trkpt lat="42.64877314679324626922607421875" lon="0.06688783876597881317138671875">
        <ele>1948.5999755859375</ele>
        <time>2021-08-22T13:28:05.000Z</time>
      </trkpt>
      <trkpt lat="42.6487849652767181396484375" lon="0.0668937899172306060791015625">
        <ele>1948.800048828125</ele>
        <time>2021-08-22T13:28:11.000Z</time>
      </trkpt>
      <trkpt lat="42.6487908326089382171630859375" lon="0.0668983161449432373046875">
        <ele>1949</ele>
        <time>2021-08-22T13:28:12.000Z</time>
      </trkpt>
      <trkpt lat="42.648797370493412017822265625" lon="0.06690996699035167694091796875">
        <ele>1949.5999755859375</ele>
        <time>2021-08-22T13:28:14.000Z</time>
      </trkpt>
      <trkpt lat="42.648869790136814117431640625" lon="0.06698221899569034576416015625">
        <ele>1952.4000244140625</ele>
        <time>2021-08-22T13:28:38.000Z</time>
      </trkpt>
      <trkpt lat="42.64888596720993518829345703125" lon="0.06701976992189884185791015625">
        <ele>1954.199951171875</ele>
        <time>2021-08-22T13:28:44.000Z</time>
      </trkpt>
      <trkpt lat="42.64891396276652812957763671875" lon="0.06703150458633899688720703125">
        <ele>1954.4000244140625</ele>
        <time>2021-08-22T13:28:55.000Z</time>
      </trkpt>
      <trkpt lat="42.6489150524139404296875" lon="0.0670305825769901275634765625">
        <ele>1954.4000244140625</ele>
        <time>2021-08-22T13:28:56.000Z</time>
      </trkpt>
      <trkpt lat="42.64892267994582653045654296875" lon="0.06702848710119724273681640625">
        <ele>1954.199951171875</ele>
        <time>2021-08-22T13:29:01.000Z</time>
      </trkpt>
      <trkpt lat="42.64898051507771015167236328125" lon="0.06703418679535388946533203125">
        <ele>1954</ele>
        <time>2021-08-22T13:29:14.000Z</time>
      </trkpt>
      <trkpt lat="42.64907472766935825347900390625" lon="0.06704022176563739776611328125">
        <ele>1953.5999755859375</ele>
        <time>2021-08-22T13:29:34.000Z</time>
      </trkpt>
      <trkpt lat="42.64911328442394733428955078125" lon="0.0670329295098781585693359375">
        <ele>1953</ele>
        <time>2021-08-22T13:29:40.000Z</time>
      </trkpt>
      <trkpt lat="42.64912250451743602752685546875" lon="0.06702194921672344207763671875">
        <ele>1952.199951171875</ele>
        <time>2021-08-22T13:29:42.000Z</time>
      </trkpt>
      <trkpt lat="42.64914580620825290679931640625" lon="0.06702111102640628814697265625">
        <ele>1952.199951171875</ele>
        <time>2021-08-22T13:29:49.000Z</time>
      </trkpt>
      <trkpt lat="42.649229876697063446044921875" lon="0.0670292414724826812744140625">
        <ele>1952.5999755859375</ele>
        <time>2021-08-22T13:30:15.000Z</time>
      </trkpt>
      <trkpt lat="42.64923582784831523895263671875" lon="0.06703016348183155059814453125">
        <ele>1952.4000244140625</ele>
        <time>2021-08-22T13:30:16.000Z</time>
      </trkpt>
      <trkpt lat="42.64927153475582599639892578125" lon="0.067052543163299560546875">
        <ele>1953</ele>
        <time>2021-08-22T13:30:21.000Z</time>
      </trkpt>
      <trkpt lat="42.649293243885040283203125" lon="0.06705329753458499908447265625">
        <ele>1952.5999755859375</ele>
        <time>2021-08-22T13:30:25.000Z</time>
      </trkpt>
      <trkpt lat="42.64932869933545589447021484375" lon="0.0670570693910121917724609375">
        <ele>1952.4000244140625</ele>
        <time>2021-08-22T13:30:30.000Z</time>
      </trkpt>
      <trkpt lat="42.6493711955845355987548828125" lon="0.0670592486858367919921875">
        <ele>1951.800048828125</ele>
        <time>2021-08-22T13:30:35.000Z</time>
      </trkpt>
      <trkpt lat="42.649550400674343109130859375" lon="0.06711968220770359039306640625">
        <ele>1952.4000244140625</ele>
        <time>2021-08-22T13:31:00.000Z</time>
      </trkpt>
      <trkpt lat="42.64959608204662799835205078125" lon="0.06719268858432769775390625">
        <ele>1955.4000244140625</ele>
        <time>2021-08-22T13:31:11.000Z</time>
      </trkpt>
      <trkpt lat="42.6497524045407772064208984375" lon="0.06718036718666553497314453125">
        <ele>1953.800048828125</ele>
        <time>2021-08-22T13:31:36.000Z</time>
      </trkpt>
      <trkpt lat="42.6499450206756591796875" lon="0.06714583374559879302978515625">
        <ele>1952.199951171875</ele>
        <time>2021-08-22T13:32:33.000Z</time>
      </trkpt>
      <trkpt lat="42.65029764734208583831787109375" lon="0.06719134747982025146484375">
        <ele>1961</ele>
        <time>2021-08-22T13:33:18.000Z</time>
      </trkpt>
      <trkpt lat="42.6503046043217182159423828125" lon="0.06719495169818401336669921875">
        <ele>1961.4000244140625</ele>
        <time>2021-08-22T13:33:19.000Z</time>
      </trkpt>
      <trkpt lat="42.65030887909233570098876953125" lon="0.067194364964962005615234375">
        <ele>1961.4000244140625</ele>
        <time>2021-08-22T13:33:20.000Z</time>
      </trkpt>
      <trkpt lat="42.6503193564713001251220703125" lon="0.06719210185110569000244140625">
        <ele>1961.4000244140625</ele>
        <time>2021-08-22T13:33:22.000Z</time>
      </trkpt>
      <trkpt lat="42.650349028408527374267578125" lon="0.06720031611621379852294921875">
        <ele>1962.4000244140625</ele>
        <time>2021-08-22T13:33:27.000Z</time>
      </trkpt>
      <trkpt lat="42.65035967342555522918701171875" lon="0.06719964556396007537841796875">
        <ele>1962.4000244140625</ele>
        <time>2021-08-22T13:33:30.000Z</time>
      </trkpt>
      <trkpt lat="42.65044349245727062225341796875" lon="0.06719947792589664459228515625">
        <ele>1963.800048828125</ele>
        <time>2021-08-22T13:33:44.000Z</time>
      </trkpt>
      <trkpt lat="42.6505976356565952301025390625" lon="0.067213140428066253662109375">
        <ele>1970</ele>
        <time>2021-08-22T13:34:01.000Z</time>
      </trkpt>
      <trkpt lat="42.6506616733968257904052734375" lon="0.0672002322971820831298828125">
        <ele>1969.5999755859375</ele>
        <time>2021-08-22T13:34:16.000Z</time>
      </trkpt>
      <trkpt lat="42.65071808360517024993896484375" lon="0.067195035517215728759765625">
        <ele>1970</ele>
        <time>2021-08-22T13:34:21.000Z</time>
      </trkpt>
      <trkpt lat="42.6508155651390552520751953125" lon="0.06720148958265781402587890625">
        <ele>1972.800048828125</ele>
        <time>2021-08-22T13:34:36.000Z</time>
      </trkpt>
      <trkpt lat="42.6508340053260326385498046875" lon="0.06720635108649730682373046875">
        <ele>1973.4000244140625</ele>
        <time>2021-08-22T13:34:38.000Z</time>
      </trkpt>
      <trkpt lat="42.65101279132068157196044921875" lon="0.06732000969350337982177734375">
        <ele>1978.5999755859375</ele>
        <time>2021-08-22T13:35:02.000Z</time>
      </trkpt>
      <trkpt lat="42.65110650099813938140869140625" lon="0.067342221736907958984375">
        <ele>1979.5999755859375</ele>
        <time>2021-08-22T13:35:14.000Z</time>
      </trkpt>
      <trkpt lat="42.65124212019145488739013671875" lon="0.06736426614224910736083984375">
        <ele>1980.4000244140625</ele>
        <time>2021-08-22T13:35:31.000Z</time>
      </trkpt>
      <trkpt lat="42.65162131749093532562255859375" lon="0.06764858029782772064208984375">
        <ele>1983.4000244140625</ele>
        <time>2021-08-22T13:36:35.000Z</time>
      </trkpt>
      <trkpt lat="42.65165702439844608306884765625" lon="0.06771228276193141937255859375">
        <ele>1984.800048828125</ele>
        <time>2021-08-22T13:37:11.000Z</time>
      </trkpt>
      <trkpt lat="42.65170379541814327239990234375" lon="0.06773005239665508270263671875">
        <ele>1984.800048828125</ele>
        <time>2021-08-22T13:37:19.000Z</time>
      </trkpt>
      <trkpt lat="42.651771269738674163818359375" lon="0.06781160831451416015625">
        <ele>1988.199951171875</ele>
        <time>2021-08-22T13:37:36.000Z</time>
      </trkpt>
      <trkpt lat="42.6517861895263195037841796875" lon="0.06783952005207538604736328125">
        <ele>1989.199951171875</ele>
        <time>2021-08-22T13:37:39.000Z</time>
      </trkpt>
      <trkpt lat="42.65182860195636749267578125" lon="0.067886374890804290771484375">
        <ele>1991.4000244140625</ele>
        <time>2021-08-22T13:37:52.000Z</time>
      </trkpt>
      <trkpt lat="42.65185819007456302642822265625" lon="0.06793834269046783447265625">
        <ele>1993.4000244140625</ele>
        <time>2021-08-22T13:38:07.000Z</time>
      </trkpt>
      <trkpt lat="42.6519419252872467041015625" lon="0.067952759563922882080078125">
        <ele>1995.5999755859375</ele>
        <time>2021-08-22T13:38:23.000Z</time>
      </trkpt>
      <trkpt lat="42.6519588567316532135009765625" lon="0.06795418448746204376220703125">
        <ele>1996</ele>
        <time>2021-08-22T13:38:26.000Z</time>
      </trkpt>
      <trkpt lat="42.65197168104350566864013671875" lon="0.067953430116176605224609375">
        <ele>1996.199951171875</ele>
        <time>2021-08-22T13:38:30.000Z</time>
      </trkpt>
      <trkpt lat="42.65209673903882503509521484375" lon="0.06796960718929767608642578125">
        <ele>1998.4000244140625</ele>
        <time>2021-08-22T13:38:59.000Z</time>
      </trkpt>
      <trkpt lat="42.65212188474833965301513671875" lon="0.06795938126742839813232421875">
        <ele>1998.5999755859375</ele>
        <time>2021-08-22T13:39:03.000Z</time>
      </trkpt>
      <trkpt lat="42.652138061821460723876953125" lon="0.06795401684939861297607421875">
        <ele>1998.5999755859375</ele>
        <time>2021-08-22T13:39:07.000Z</time>
      </trkpt>
      <trkpt lat="42.6521613635122776031494140625" lon="0.067974217236042022705078125">
        <ele>1999.4000244140625</ele>
        <time>2021-08-22T13:39:12.000Z</time>
      </trkpt>
      <trkpt lat="42.6522183604538440704345703125" lon="0.06808812730014324188232421875">
        <ele>2003.199951171875</ele>
        <time>2021-08-22T13:39:43.000Z</time>
      </trkpt>
      <trkpt lat="42.65232305042445659637451171875" lon="0.06818871013820171356201171875">
        <ele>2006.4000244140625</ele>
        <time>2021-08-22T13:40:22.000Z</time>
      </trkpt>
      <trkpt lat="42.65264659188687801361083984375" lon="0.06834310479462146759033203125">
        <ele>2012.4000244140625</ele>
        <time>2021-08-22T13:41:13.000Z</time>
      </trkpt>
      <trkpt lat="42.6526719890534877777099609375" lon="0.06837059743702411651611328125">
        <ele>2013.4000244140625</ele>
        <time>2021-08-22T13:41:21.000Z</time>
      </trkpt>
      <trkpt lat="42.65276175923645496368408203125" lon="0.0684021972119808197021484375">
        <ele>2015.199951171875</ele>
        <time>2021-08-22T13:41:52.000Z</time>
      </trkpt>
      <trkpt lat="42.65277433209121227264404296875" lon="0.0684166140854358673095703125">
        <ele>2015.800048828125</ele>
        <time>2021-08-22T13:41:56.000Z</time>
      </trkpt>
      <trkpt lat="42.65281707979738712310791015625" lon="0.068448968231678009033203125">
        <ele>2017.4000244140625</ele>
        <time>2021-08-22T13:42:11.000Z</time>
      </trkpt>
      <trkpt lat="42.65288715250790119171142578125" lon="0.06847369484603404998779296875">
        <ele>2019.5999755859375</ele>
        <time>2021-08-22T13:42:26.000Z</time>
      </trkpt>
      <trkpt lat="42.65301874838769435882568359375" lon="0.0685607828199863433837890625">
        <ele>2025.4000244140625</ele>
        <time>2021-08-22T13:42:59.000Z</time>
      </trkpt>
      <trkpt lat="42.653066776692867279052734375" lon="0.06856488995254039764404296875">
        <ele>2026.4000244140625</ele>
        <time>2021-08-22T13:43:13.000Z</time>
      </trkpt>
      <trkpt lat="42.653100304305553436279296875" lon="0.06856354884803295135498046875">
        <ele>2027</ele>
        <time>2021-08-22T13:43:29.000Z</time>
      </trkpt>
      <trkpt lat="42.65314766205847263336181640625" lon="0.06868978030979633331298828125">
        <ele>2034</ele>
        <time>2021-08-22T13:43:54.000Z</time>
      </trkpt>
      <trkpt lat="42.65331052243709564208984375" lon="0.06879866123199462890625">
        <ele>2044.800048828125</ele>
        <time>2021-08-22T13:45:27.000Z</time>
      </trkpt>
      <trkpt lat="42.6533891446888446807861328125" lon="0.06886714138090610504150390625">
        <ele>2049</ele>
        <time>2021-08-22T13:45:40.000Z</time>
      </trkpt>
      <trkpt lat="42.653410099446773529052734375" lon="0.0689207017421722412109375">
        <ele>2050.39990234375</ele>
        <time>2021-08-22T13:45:53.000Z</time>
      </trkpt>
      <trkpt lat="42.6534116081893444061279296875" lon="0.06891257129609584808349609375">
        <ele>2050.39990234375</ele>
        <time>2021-08-22T13:45:59.000Z</time>
      </trkpt>
      <trkpt lat="42.65340037643909454345703125" lon="0.06893210113048553466796875">
        <ele>2050.39990234375</ele>
        <time>2021-08-22T13:46:02.000Z</time>
      </trkpt>
      <trkpt lat="42.653407752513885498046875" lon="0.06893612444400787353515625">
        <ele>2050.60009765625</ele>
        <time>2021-08-22T13:46:04.000Z</time>
      </trkpt>
      <trkpt lat="42.65341781079769134521484375" lon="0.06893210113048553466796875">
        <ele>2050.800048828125</ele>
        <time>2021-08-22T13:46:06.000Z</time>
      </trkpt>
      <trkpt lat="42.653426863253116607666015625" lon="0.06892933510243892669677734375">
        <ele>2051</ele>
        <time>2021-08-22T13:46:08.000Z</time>
      </trkpt>
      <trkpt lat="42.653449662029743194580078125" lon="0.0689287483692169189453125">
        <ele>2051.39990234375</ele>
        <time>2021-08-22T13:46:12.000Z</time>
      </trkpt>
      <trkpt lat="42.65345745719969272613525390625" lon="0.06892807781696319580078125">
        <ele>2051.60009765625</ele>
        <time>2021-08-22T13:46:13.000Z</time>
      </trkpt>
      <trkpt lat="42.65346332453191280364990234375" lon="0.068926401436328887939453125">
        <ele>2051.800048828125</ele>
        <time>2021-08-22T13:46:14.000Z</time>
      </trkpt>
      <trkpt lat="42.65347723849117755889892578125" lon="0.0689252279698848724365234375">
        <ele>2052</ele>
        <time>2021-08-22T13:46:17.000Z</time>
      </trkpt>
      <trkpt lat="42.6536513306200504302978515625" lon="0.06899915635585784912109375">
        <ele>2057.800048828125</ele>
        <time>2021-08-22T13:47:29.000Z</time>
      </trkpt>
      <trkpt lat="42.6537126861512660980224609375" lon="0.0689899362623691558837890625">
        <ele>2059.800048828125</ele>
        <time>2021-08-22T13:47:55.000Z</time>
      </trkpt>
      <trkpt lat="42.65370354987680912017822265625" lon="0.06897275336086750030517578125">
        <ele>2059.39990234375</ele>
        <time>2021-08-22T13:48:16.000Z</time>
      </trkpt>
      <trkpt lat="42.6537022925913333892822265625" lon="0.0689822249114513397216796875">
        <ele>2059.39990234375</ele>
        <time>2021-08-22T13:48:24.000Z</time>
      </trkpt>
      <trkpt lat="42.65370807610452175140380859375" lon="0.0689770281314849853515625">
        <ele>2059.60009765625</ele>
        <time>2021-08-22T13:48:31.000Z</time>
      </trkpt>
      <trkpt lat="42.65372416935861110687255859375" lon="0.06894148886203765869140625">
        <ele>2060</ele>
        <time>2021-08-22T13:48:40.000Z</time>
      </trkpt>
      <trkpt lat="42.65376406721770763397216796875" lon="0.06890620104968547821044921875">
        <ele>2061</ele>
        <time>2021-08-22T13:48:46.000Z</time>
      </trkpt>
      <trkpt lat="42.65379466116428375244140625" lon="0.068886838853359222412109375">
        <ele>2061.39990234375</ele>
        <time>2021-08-22T13:48:50.000Z</time>
      </trkpt>
      <trkpt lat="42.65380882658064365386962890625" lon="0.06888289935886859893798828125">
        <ele>2061.39990234375</ele>
        <time>2021-08-22T13:48:52.000Z</time>
      </trkpt>
      <trkpt lat="42.6538209803402423858642578125" lon="0.0688803009688854217529296875">
        <ele>2061.39990234375</ele>
        <time>2021-08-22T13:48:55.000Z</time>
      </trkpt>
      <trkpt lat="42.65382944606244564056396484375" lon="0.0688829831779003143310546875">
        <ele>2061.60009765625</ele>
        <time>2021-08-22T13:48:56.000Z</time>
      </trkpt>
      <trkpt lat="42.65384034253656864166259765625" lon="0.0688853301107883453369140625">
        <ele>2061.60009765625</ele>
        <time>2021-08-22T13:48:58.000Z</time>
      </trkpt>
      <trkpt lat="42.6538712717592716217041015625" lon="0.06888692267239093780517578125">
        <ele>2062</ele>
        <time>2021-08-22T13:49:04.000Z</time>
      </trkpt>
      <trkpt lat="42.653886862099170684814453125" lon="0.0688950531184673309326171875">
        <ele>2062.39990234375</ele>
        <time>2021-08-22T13:49:06.000Z</time>
      </trkpt>
      <trkpt lat="42.65388987958431243896484375" lon="0.06891324184834957122802734375">
        <ele>2062.800048828125</ele>
        <time>2021-08-22T13:49:08.000Z</time>
      </trkpt>
      <trkpt lat="42.65389784239232540130615234375" lon="0.06892598234117031097412109375">
        <ele>2063.199951171875</ele>
        <time>2021-08-22T13:49:10.000Z</time>
      </trkpt>
      <trkpt lat="42.65390555374324321746826171875" lon="0.06894023157656192779541015625">
        <ele>2063.800048828125</ele>
        <time>2021-08-22T13:49:12.000Z</time>
      </trkpt>
      <trkpt lat="42.65392617322504520416259765625" lon="0.06895355880260467529296875">
        <ele>2064.199951171875</ele>
        <time>2021-08-22T13:49:15.000Z</time>
      </trkpt>
      <trkpt lat="42.6539688371121883392333984375" lon="0.06896219216287136077880859375">
        <ele>2066.60009765625</ele>
        <time>2021-08-22T13:49:21.000Z</time>
      </trkpt>
      <trkpt lat="42.654006890952587127685546875" lon="0.0689681433141231536865234375">
        <ele>2068.800048828125</ele>
        <time>2021-08-22T13:49:29.000Z</time>
      </trkpt>
      <trkpt lat="42.654030025005340576171875" lon="0.06896906532347202301025390625">
        <ele>2070</ele>
        <time>2021-08-22T13:49:35.000Z</time>
      </trkpt>
      <trkpt lat="42.654035054147243499755859375" lon="0.068976022303104400634765625">
        <ele>2070.60009765625</ele>
        <time>2021-08-22T13:49:37.000Z</time>
      </trkpt>
      <trkpt lat="42.65407402999699115753173828125" lon="0.0689909420907497406005859375">
        <ele>2073</ele>
        <time>2021-08-22T13:49:46.000Z</time>
      </trkpt>
      <trkpt lat="42.6540992595255374908447265625" lon="0.0689909420907497406005859375">
        <ele>2074.39990234375</ele>
        <time>2021-08-22T13:49:51.000Z</time>
      </trkpt>
      <trkpt lat="42.65415499918162822723388671875" lon="0.06900024600327014923095703125">
        <ele>2077.800048828125</ele>
        <time>2021-08-22T13:50:02.000Z</time>
      </trkpt>
      <trkpt lat="42.65430402942001819610595703125" lon="0.06905011832714080810546875">
        <ele>2088.199951171875</ele>
        <time>2021-08-22T13:50:48.000Z</time>
      </trkpt>
      <trkpt lat="42.65452631749212741851806640625" lon="0.06897694431245326995849609375">
        <ele>2096.800048828125</ele>
        <time>2021-08-22T13:51:50.000Z</time>
      </trkpt>
      <trkpt lat="42.65454660169780254364013671875" lon="0.06896562874317169189453125">
        <ele>2096.800048828125</ele>
        <time>2021-08-22T13:51:52.000Z</time>
      </trkpt>
      <trkpt lat="42.65463695861399173736572265625" lon="0.06897560320794582366943359375">
        <ele>2100</ele>
        <time>2021-08-22T13:52:07.000Z</time>
      </trkpt>
      <trkpt lat="42.6546558178961277008056640625" lon="0.0689892657101154327392578125">
        <ele>2101.39990234375</ele>
        <time>2021-08-22T13:52:12.000Z</time>
      </trkpt>
      <trkpt lat="42.654629163444042205810546875" lon="0.0690160878002643585205078125">
        <ele>2102.199951171875</ele>
        <time>2021-08-22T13:52:49.000Z</time>
      </trkpt>
      <trkpt lat="42.65462606213986873626708984375" lon="0.06901835091412067413330078125">
        <ele>2102.199951171875</ele>
        <time>2021-08-22T13:52:59.000Z</time>
      </trkpt>
      <trkpt lat="42.65461885370314121246337890625" lon="0.06904047913849353790283203125">
        <ele>2103.39990234375</ele>
        <time>2021-08-22T13:53:06.000Z</time>
      </trkpt>
      <trkpt lat="42.65462187118828296661376953125" lon="0.0690237991511821746826171875">
        <ele>2102.39990234375</ele>
        <time>2021-08-22T13:53:17.000Z</time>
      </trkpt>
      <trkpt lat="42.65467585064470767974853515625" lon="0.068988092243671417236328125">
        <ele>2101.800048828125</ele>
        <time>2021-08-22T13:53:28.000Z</time>
      </trkpt>
      <trkpt lat="42.6547701470553874969482421875" lon="0.06899245083332061767578125">
        <ele>2106</ele>
        <time>2021-08-22T13:53:43.000Z</time>
      </trkpt>
      <trkpt lat="42.6547926105558872222900390625" lon="0.0689931213855743408203125">
        <ele>2106.199951171875</ele>
        <time>2021-08-22T13:53:48.000Z</time>
      </trkpt>
      <trkpt lat="42.6548053510487079620361328125" lon="0.06899303756654262542724609375">
        <ele>2106.39990234375</ele>
        <time>2021-08-22T13:53:51.000Z</time>
      </trkpt>
      <trkpt lat="42.65481314621865749359130859375" lon="0.068996809422969818115234375">
        <ele>2106.60009765625</ele>
        <time>2021-08-22T13:53:52.000Z</time>
      </trkpt>
      <trkpt lat="42.65482052229344844818115234375" lon="0.069002173840999603271484375">
        <ele>2106.800048828125</ele>
        <time>2021-08-22T13:53:53.000Z</time>
      </trkpt>
      <trkpt lat="42.65483108349144458770751953125" lon="0.06900829263031482696533203125">
        <ele>2107</ele>
        <time>2021-08-22T13:53:54.000Z</time>
      </trkpt>
      <trkpt lat="42.65483829192817211151123046875" lon="0.0690092146396636962890625">
        <ele>2107.199951171875</ele>
        <time>2021-08-22T13:53:55.000Z</time>
      </trkpt>
      <trkpt lat="42.6548459194600582122802734375" lon="0.06901131011545658111572265625">
        <ele>2107.199951171875</ele>
        <time>2021-08-22T13:53:56.000Z</time>
      </trkpt>
      <trkpt lat="42.65485220588743686676025390625" lon="0.0690172612667083740234375">
        <ele>2107.60009765625</ele>
        <time>2021-08-22T13:53:57.000Z</time>
      </trkpt>
      <trkpt lat="42.65486142598092555999755859375" lon="0.06901793181896209716796875">
        <ele>2107.60009765625</ele>
        <time>2021-08-22T13:54:00.000Z</time>
      </trkpt>
      <trkpt lat="42.65486477874219417572021484375" lon="0.06901927292346954345703125">
        <ele>2107.800048828125</ele>
        <time>2021-08-22T13:54:01.000Z</time>
      </trkpt>
      <trkpt lat="42.6548673771321773529052734375" lon="0.069021284580230712890625">
        <ele>2107.800048828125</ele>
        <time>2021-08-22T13:54:02.000Z</time>
      </trkpt>
      <trkpt lat="42.65489612706005573272705078125" lon="0.06903528235852718353271484375">
        <ele>2108.60009765625</ele>
        <time>2021-08-22T13:54:07.000Z</time>
      </trkpt>
      <trkpt lat="42.6549035869538784027099609375" lon="0.0690385513007640838623046875">
        <ele>2108.60009765625</ele>
        <time>2021-08-22T13:54:08.000Z</time>
      </trkpt>
      <trkpt lat="42.65492831356823444366455078125" lon="0.0690442509949207305908203125">
        <ele>2109</ele>
        <time>2021-08-22T13:54:11.000Z</time>
      </trkpt>
      <trkpt lat="42.65496066771447658538818359375" lon="0.06906218826770782470703125">
        <ele>2110</ele>
        <time>2021-08-22T13:54:17.000Z</time>
      </trkpt>
      <trkpt lat="42.65497860498726367950439453125" lon="0.069069229066371917724609375">
        <ele>2110.39990234375</ele>
        <time>2021-08-22T13:54:20.000Z</time>
      </trkpt>
      <trkpt lat="42.65498313121497631072998046875" lon="0.069071911275386810302734375">
        <ele>2110.39990234375</ele>
        <time>2021-08-22T13:54:21.000Z</time>
      </trkpt>
      <trkpt lat="42.6549880765378475189208984375" lon="0.06907367147505283355712890625">
        <ele>2110.60009765625</ele>
        <time>2021-08-22T13:54:22.000Z</time>
      </trkpt>
      <trkpt lat="42.65499360859394073486328125" lon="0.06911390461027622222900390625">
        <ele>2112</ele>
        <time>2021-08-22T13:54:40.000Z</time>
      </trkpt>
      <trkpt lat="42.6550640165805816650390625" lon="0.069138295948505401611328125">
        <ele>2113.199951171875</ele>
        <time>2021-08-22T13:54:57.000Z</time>
      </trkpt>
      <trkpt lat="42.655129395425319671630859375" lon="0.06919923238456249237060546875">
        <ele>2115.39990234375</ele>
        <time>2021-08-22T13:55:58.000Z</time>
      </trkpt>
      <trkpt lat="42.6551257073879241943359375" lon="0.0691924430429935455322265625">
        <ele>2115.199951171875</ele>
        <time>2021-08-22T13:56:02.000Z</time>
      </trkpt>
      <trkpt lat="42.655128724873065948486328125" lon="0.0691874139010906219482421875">
        <ele>2115</ele>
        <time>2021-08-22T13:56:09.000Z</time>
      </trkpt>
      <trkpt lat="42.655124366283416748046875" lon="0.0691897608339786529541015625">
        <ele>2115.199951171875</ele>
        <time>2021-08-22T13:56:14.000Z</time>
      </trkpt>
      <trkpt lat="42.6551184989511966705322265625" lon="0.0691968016326427459716796875">
        <ele>2115.39990234375</ele>
        <time>2021-08-22T13:56:19.000Z</time>
      </trkpt>
      <trkpt lat="42.6551265455782413482666015625" lon="0.069189928472042083740234375">
        <ele>2115.199951171875</ele>
        <time>2021-08-22T13:56:24.000Z</time>
      </trkpt>
      <trkpt lat="42.65513869933784008026123046875" lon="0.069193281233310699462890625">
        <ele>2115.199951171875</ele>
        <time>2021-08-22T13:56:35.000Z</time>
      </trkpt>
      <trkpt lat="42.65514875762164592742919921875" lon="0.06916369311511516571044921875">
        <ele>2114.199951171875</ele>
        <time>2021-08-22T13:56:49.000Z</time>
      </trkpt>
      <trkpt lat="42.6551892422139644622802734375" lon="0.06923854351043701171875">
        <ele>2116.800048828125</ele>
        <time>2021-08-22T13:57:28.000Z</time>
      </trkpt>
      <trkpt lat="42.6551858894526958465576171875" lon="0.06924047134816646575927734375">
        <ele>2117</ele>
        <time>2021-08-22T13:57:29.000Z</time>
      </trkpt>
      <trkpt lat="42.65518614090979099273681640625" lon="0.0692452490329742431640625">
        <ele>2117.199951171875</ele>
        <time>2021-08-22T13:57:32.000Z</time>
      </trkpt>
      <trkpt lat="42.655189074575901031494140625" lon="0.06924466229975223541259765625">
        <ele>2117.199951171875</ele>
        <time>2021-08-22T13:57:33.000Z</time>
      </trkpt>
      <trkpt lat="42.6551915891468524932861328125" lon="0.0692440755665302276611328125">
        <ele>2117</ele>
        <time>2021-08-22T13:57:34.000Z</time>
      </trkpt>
      <trkpt lat="42.65519502572715282440185546875" lon="0.0692423991858959197998046875">
        <ele>2117</ele>
        <time>2021-08-22T13:57:37.000Z</time>
      </trkpt>
      <trkpt lat="42.65519418753683567047119140625" lon="0.069242902100086212158203125">
        <ele>2117</ele>
        <time>2021-08-22T13:57:38.000Z</time>
      </trkpt>
      <trkpt lat="42.655192427337169647216796875" lon="0.0692427344620227813720703125">
        <ele>2117</ele>
        <time>2021-08-22T13:57:43.000Z</time>
      </trkpt>
      <trkpt lat="42.6552147231996059417724609375" lon="0.06935547105967998504638671875">
        <ele>2121.39990234375</ele>
        <time>2021-08-22T13:58:11.000Z</time>
      </trkpt>
      <trkpt lat="42.6552140526473522186279296875" lon="0.06936728954315185546875">
        <ele>2121.800048828125</ele>
        <time>2021-08-22T13:58:14.000Z</time>
      </trkpt>
      <trkpt lat="42.6552130468189716339111328125" lon="0.069389753043651580810546875">
        <ele>2122.800048828125</ele>
        <time>2021-08-22T13:58:18.000Z</time>
      </trkpt>
      <trkpt lat="42.65519267879426479339599609375" lon="0.069418251514434814453125">
        <ele>2124</ele>
        <time>2021-08-22T13:58:27.000Z</time>
      </trkpt>
      <trkpt lat="42.65519536100327968597412109375" lon="0.06942269392311573028564453125">
        <ele>2124.199951171875</ele>
        <time>2021-08-22T13:58:29.000Z</time>
      </trkpt>
      <trkpt lat="42.655199132859706878662109375" lon="0.06944281049072742462158203125">
        <ele>2125</ele>
        <time>2021-08-22T13:58:37.000Z</time>
      </trkpt>
      <trkpt lat="42.65520684421062469482421875" lon="0.06945152767002582550048828125">
        <ele>2125.39990234375</ele>
        <time>2021-08-22T13:58:46.000Z</time>
      </trkpt>
      <trkpt lat="42.65535897575318813323974609375" lon="0.0694973766803741455078125">
        <ele>2128.800048828125</ele>
        <time>2021-08-22T13:59:44.000Z</time>
      </trkpt>
      <trkpt lat="42.655478417873382568359375" lon="0.0695669464766979217529296875">
        <ele>2136.199951171875</ele>
        <time>2021-08-22T14:00:24.000Z</time>
      </trkpt>
      <trkpt lat="42.65550482086837291717529296875" lon="0.06960893981158733367919921875">
        <ele>2139</ele>
        <time>2021-08-22T14:00:32.000Z</time>
      </trkpt>
      <trkpt lat="42.65549275092780590057373046875" lon="0.0696393661201000213623046875">
        <ele>2140.39990234375</ele>
        <time>2021-08-22T14:00:35.000Z</time>
      </trkpt>
      <trkpt lat="42.655483447015285491943359375" lon="0.06965353153645992279052734375">
        <ele>2141</ele>
        <time>2021-08-22T14:00:38.000Z</time>
      </trkpt>
      <trkpt lat="42.65548571012914180755615234375" lon="0.06965487264096736907958984375">
        <ele>2141.199951171875</ele>
        <time>2021-08-22T14:00:39.000Z</time>
      </trkpt>
      <trkpt lat="42.65548537485301494598388671875" lon="0.06965654902160167694091796875">
        <ele>2141.199951171875</ele>
        <time>2021-08-22T14:00:40.000Z</time>
      </trkpt>
      <trkpt lat="42.655476741492748260498046875" lon="0.06967364810407161712646484375">
        <ele>2142</ele>
        <time>2021-08-22T14:00:48.000Z</time>
      </trkpt>
      <trkpt lat="42.655470706522464752197265625" lon="0.069691836833953857421875">
        <ele>2142.800048828125</ele>
        <time>2021-08-22T14:00:53.000Z</time>
      </trkpt>
      <trkpt lat="42.65547414310276508331298828125" lon="0.06973383016884326934814453125">
        <ele>2145.60009765625</ele>
        <time>2021-08-22T14:01:02.000Z</time>
      </trkpt>
      <trkpt lat="42.655478082597255706787109375" lon="0.0697650946676731109619140625">
        <ele>2147.60009765625</ele>
        <time>2021-08-22T14:01:07.000Z</time>
      </trkpt>
      <trkpt lat="42.655468694865703582763671875" lon="0.06975411437451839447021484375">
        <ele>2146.60009765625</ele>
        <time>2021-08-22T14:01:20.000Z</time>
      </trkpt>
      <trkpt lat="42.65546961687505245208740234375" lon="0.0697523541748523712158203125">
        <ele>2146.60009765625</ele>
        <time>2021-08-22T14:01:21.000Z</time>
      </trkpt>
      <trkpt lat="42.6554705388844013214111328125" lon="0.0697526894509792327880859375">
        <ele>2146.60009765625</ele>
        <time>2021-08-22T14:01:22.000Z</time>
      </trkpt>
      <trkpt lat="42.65547146089375019073486328125" lon="0.0697513483464717864990234375">
        <ele>2146.60009765625</ele>
        <time>2021-08-22T14:01:25.000Z</time>
      </trkpt>
      <trkpt lat="42.655468024313449859619140625" lon="0.0697419606149196624755859375">
        <ele>2145.800048828125</ele>
        <time>2021-08-22T14:01:30.000Z</time>
      </trkpt>
      <trkpt lat="42.65548855997622013092041015625" lon="0.0697560422122478485107421875">
        <ele>2147.39990234375</ele>
        <time>2021-08-22T14:01:34.000Z</time>
      </trkpt>
      <trkpt lat="42.65559081919491291046142578125" lon="0.0698039866983890533447265625">
        <ele>2154</ele>
        <time>2021-08-22T14:01:50.000Z</time>
      </trkpt>
      <trkpt lat="42.6556227542459964752197265625" lon="0.0698261149227619171142578125">
        <ele>2155.39990234375</ele>
        <time>2021-08-22T14:01:56.000Z</time>
      </trkpt>
      <trkpt lat="42.655806653201580047607421875" lon="0.06993918679654598236083984375">
        <ele>2159.800048828125</ele>
        <time>2021-08-22T14:02:28.000Z</time>
      </trkpt>
      <trkpt lat="42.65580522827804088592529296875" lon="0.0699059106409549713134765625">
        <ele>2158.60009765625</ele>
        <time>2021-08-22T14:03:06.000Z</time>
      </trkpt>
      <trkpt lat="42.6558054797351360321044921875" lon="0.0699152983725070953369140625">
        <ele>2158.800048828125</ele>
        <time>2021-08-22T14:03:16.000Z</time>
      </trkpt>
      <trkpt lat="42.6558034680783748626708984375" lon="0.0699206627905368804931640625">
        <ele>2159.199951171875</ele>
        <time>2021-08-22T14:03:23.000Z</time>
      </trkpt>
      <trkpt lat="42.65580363571643829345703125" lon="0.06992049515247344970703125">
        <ele>2159.199951171875</ele>
        <time>2021-08-22T14:03:28.000Z</time>
      </trkpt>
      <trkpt lat="42.65580623410642147064208984375" lon="0.06992074660956859588623046875">
        <ele>2159</ele>
        <time>2021-08-22T14:03:37.000Z</time>
      </trkpt>
      <trkpt lat="42.65581126324832439422607421875" lon="0.06991990841925144195556640625">
        <ele>2159</ele>
        <time>2021-08-22T14:03:45.000Z</time>
      </trkpt>
      <trkpt lat="42.6558205671608448028564453125" lon="0.06991353817284107208251953125">
        <ele>2158.800048828125</ele>
        <time>2021-08-22T14:04:08.000Z</time>
      </trkpt>
      <trkpt lat="42.6558346487581729888916015625" lon="0.06987581960856914520263671875">
        <ele>2157</ele>
        <time>2021-08-22T14:04:17.000Z</time>
      </trkpt>
      <trkpt lat="42.65583422966301441192626953125" lon="0.069874227046966552734375">
        <ele>2157</ele>
        <time>2021-08-22T14:04:20.000Z</time>
      </trkpt>
      <trkpt lat="42.65583288855850696563720703125" lon="0.06986425258219242095947265625">
        <ele>2156.39990234375</ele>
        <time>2021-08-22T14:04:26.000Z</time>
      </trkpt>
      <trkpt lat="42.65582375228404998779296875" lon="0.069852434098720550537109375">
        <ele>2155.60009765625</ele>
        <time>2021-08-22T14:04:32.000Z</time>
      </trkpt>
      <trkpt lat="42.65592039562761783599853515625" lon="0.06997019983828067779541015625">
        <ele>2160</ele>
        <time>2021-08-22T14:04:52.000Z</time>
      </trkpt>
      <trkpt lat="42.655930034816265106201171875" lon="0.06997958756983280181884765625">
        <ele>2160.199951171875</ele>
        <time>2021-08-22T14:04:56.000Z</time>
      </trkpt>
      <trkpt lat="42.65593514777719974517822265625" lon="0.0699840299785137176513671875">
        <ele>2160.199951171875</ele>
        <time>2021-08-22T14:04:57.000Z</time>
      </trkpt>
      <trkpt lat="42.6559412665665149688720703125" lon="0.06998646073043346405029296875">
        <ele>2160.199951171875</ele>
        <time>2021-08-22T14:04:58.000Z</time>
      </trkpt>
      <trkpt lat="42.65595761127769947052001953125" lon="0.06999023258686065673828125">
        <ele>2160.199951171875</ele>
        <time>2021-08-22T14:05:00.000Z</time>
      </trkpt>
      <trkpt lat="42.655963897705078125" lon="0.06999266333878040313720703125">
        <ele>2160.199951171875</ele>
        <time>2021-08-22T14:05:01.000Z</time>
      </trkpt>
      <trkpt lat="42.6559851877391338348388671875" lon="0.0700074993073940277099609375">
        <ele>2160.39990234375</ele>
        <time>2021-08-22T14:05:04.000Z</time>
      </trkpt>
      <trkpt lat="42.6559922285377979278564453125" lon="0.07001395337283611297607421875">
        <ele>2160.60009765625</ele>
        <time>2021-08-22T14:05:05.000Z</time>
      </trkpt>
      <trkpt lat="42.6560287736356258392333984375" lon="0.07004999555647373199462890625">
        <ele>2161.60009765625</ele>
        <time>2021-08-22T14:05:11.000Z</time>
      </trkpt>
      <trkpt lat="42.65603556297719478607177734375" lon="0.0700557790696620941162109375">
        <ele>2161.60009765625</ele>
        <time>2021-08-22T14:05:12.000Z</time>
      </trkpt>
      <trkpt lat="42.6560576073825359344482421875" lon="0.07008419372141361236572265625">
        <ele>2162.39990234375</ele>
        <time>2021-08-22T14:05:16.000Z</time>
      </trkpt>
      <trkpt lat="42.65606858767569065093994140625" lon="0.07010514847934246063232421875">
        <ele>2163.199951171875</ele>
        <time>2021-08-22T14:05:19.000Z</time>
      </trkpt>
      <trkpt lat="42.6560720242559909820556640625" lon="0.0701114349067211151123046875">
        <ele>2163.39990234375</ele>
        <time>2021-08-22T14:05:20.000Z</time>
      </trkpt>
      <trkpt lat="42.65608350746333599090576171875" lon="0.07013130001723766326904296875">
        <ele>2164</ele>
        <time>2021-08-22T14:05:22.000Z</time>
      </trkpt>
      <trkpt lat="42.65610479749739170074462890625" lon="0.07015862502157688140869140625">
        <ele>2164.800048828125</ele>
        <time>2021-08-22T14:05:28.000Z</time>
      </trkpt>
      <trkpt lat="42.65613891184329986572265625" lon="0.07016457617282867431640625">
        <ele>2164.39990234375</ele>
        <time>2021-08-22T14:05:32.000Z</time>
      </trkpt>
      <trkpt lat="42.6561789773404598236083984375" lon="0.0701872073113918304443359375">
        <ele>2164.800048828125</ele>
        <time>2021-08-22T14:05:37.000Z</time>
      </trkpt>
      <trkpt lat="42.6562011055648326873779296875" lon="0.0702100060880184173583984375">
        <ele>2165.60009765625</ele>
        <time>2021-08-22T14:05:40.000Z</time>
      </trkpt>
      <trkpt lat="42.65623203478753566741943359375" lon="0.0702385045588016510009765625">
        <ele>2166.39990234375</ele>
        <time>2021-08-22T14:05:45.000Z</time>
      </trkpt>
      <trkpt lat="42.65638810582458972930908203125" lon="0.07044620811939239501953125">
        <ele>2172.800048828125</ele>
        <time>2021-08-22T14:06:27.000Z</time>
      </trkpt>
      <trkpt lat="42.656451053917407989501953125" lon="0.0704986788332462310791015625">
        <ele>2174.199951171875</ele>
        <time>2021-08-22T14:06:51.000Z</time>
      </trkpt>
      <trkpt lat="42.65649430453777313232421875" lon="0.0704825855791568756103515625">
        <ele>2173.39990234375</ele>
        <time>2021-08-22T14:07:52.000Z</time>
      </trkpt>
      <trkpt lat="42.65651534311473369598388671875" lon="0.0704775564372539520263671875">
        <ele>2173.199951171875</ele>
        <time>2021-08-22T14:07:58.000Z</time>
      </trkpt>
      <trkpt lat="42.65658843331038951873779296875" lon="0.07047261111438274383544921875">
        <ele>2172.800048828125</ele>
        <time>2021-08-22T14:08:08.000Z</time>
      </trkpt>
      <trkpt lat="42.65672656707465648651123046875" lon="0.07047026418149471282958984375">
        <ele>2172.199951171875</ele>
        <time>2021-08-22T14:08:28.000Z</time>
      </trkpt>
      <trkpt lat="42.65674165450036525726318359375" lon="0.0704735331237316131591796875">
        <ele>2172.39990234375</ele>
        <time>2021-08-22T14:08:30.000Z</time>
      </trkpt>
      <trkpt lat="42.65676244162023067474365234375" lon="0.0704815797507762908935546875">
        <ele>2172.800048828125</ele>
        <time>2021-08-22T14:08:33.000Z</time>
      </trkpt>
      <trkpt lat="42.65680904500186443328857421875" lon="0.070484764873981475830078125">
        <ele>2173.199951171875</ele>
        <time>2021-08-22T14:08:38.000Z</time>
      </trkpt>
      <trkpt lat="42.65715018846094608306884765625" lon="0.070846192538738250732421875">
        <ele>2188.199951171875</ele>
        <time>2021-08-22T14:09:46.000Z</time>
      </trkpt>
      <trkpt lat="42.65720349736511707305908203125" lon="0.0709382258355617523193359375">
        <ele>2191.60009765625</ele>
        <time>2021-08-22T14:10:06.000Z</time>
      </trkpt>
      <trkpt lat="42.6574231870472431182861328125" lon="0.07096529938280582427978515625">
        <ele>2195.60009765625</ele>
        <time>2021-08-22T14:11:03.000Z</time>
      </trkpt>
      <trkpt lat="42.657656036317348480224609375" lon="0.0711843185126781463623046875">
        <ele>2204.39990234375</ele>
        <time>2021-08-22T14:12:09.000Z</time>
      </trkpt>
      <trkpt lat="42.65768998302519321441650390625" lon="0.07125380448997020721435546875">
        <ele>2206.60009765625</ele>
        <time>2021-08-22T14:12:17.000Z</time>
      </trkpt>
      <trkpt lat="42.65793423168361186981201171875" lon="0.07127442397177219390869140625">
        <ele>2211</ele>
        <time>2021-08-22T14:13:01.000Z</time>
      </trkpt>
      <trkpt lat="42.65798720531165599822998046875" lon="0.071249194443225860595703125">
        <ele>2211.800048828125</ele>
        <time>2021-08-22T14:13:17.000Z</time>
      </trkpt>
      <trkpt lat="42.65799273736774921417236328125" lon="0.0712778605520725250244140625">
        <ele>2212.39990234375</ele>
        <time>2021-08-22T14:13:50.000Z</time>
      </trkpt>
      <trkpt lat="42.6582094095647335052490234375" lon="0.07116747088730335235595703125">
        <ele>2216.800048828125</ele>
        <time>2021-08-22T14:28:42.000Z</time>
      </trkpt>
      <trkpt lat="42.658187784254550933837890625" lon="0.07119379006326198577880859375">
        <ele>2216.60009765625</ele>
        <time>2021-08-22T14:28:43.000Z</time>
      </trkpt>
      <trkpt lat="42.65815258026123046875" lon="0.0712329335510730743408203125">
        <ele>2216.199951171875</ele>
        <time>2021-08-22T14:28:48.000Z</time>
      </trkpt>
      <trkpt lat="42.65805509872734546661376953125" lon="0.07134550251066684722900390625">
        <ele>2215.199951171875</ele>
        <time>2021-08-22T14:28:56.000Z</time>
      </trkpt>
      <trkpt lat="42.65804462134838104248046875" lon="0.071359165012836456298828125">
        <ele>2215.199951171875</ele>
        <time>2021-08-22T14:28:59.000Z</time>
      </trkpt>
      <trkpt lat="42.65804721973836421966552734375" lon="0.07136226631700992584228515625">
        <ele>2215.39990234375</ele>
        <time>2021-08-22T14:29:00.000Z</time>
      </trkpt>
      <trkpt lat="42.658062390983104705810546875" lon="0.07138238288462162017822265625">
        <ele>2216</ele>
        <time>2021-08-22T14:29:06.000Z</time>
      </trkpt>
      <trkpt lat="42.65807454474270343780517578125" lon="0.07138372398912906646728515625">
        <ele>2216.39990234375</ele>
        <time>2021-08-22T14:29:09.000Z</time>
      </trkpt>
      <trkpt lat="42.65807722695171833038330078125" lon="0.07138389162719249725341796875">
        <ele>2216.39990234375</ele>
        <time>2021-08-22T14:29:10.000Z</time>
      </trkpt>
      <trkpt lat="42.65809047035872936248779296875" lon="0.07137735374271869659423828125">
        <ele>2216.800048828125</ele>
        <time>2021-08-22T14:29:13.000Z</time>
      </trkpt>
      <trkpt lat="42.6581081561744213104248046875" lon="0.07136696018278598785400390625">
        <ele>2217</ele>
        <time>2021-08-22T14:29:16.000Z</time>
      </trkpt>
      <trkpt lat="42.65816406346857547760009765625" lon="0.071370899677276611328125">
        <ele>2218.39990234375</ele>
        <time>2021-08-22T14:29:26.000Z</time>
      </trkpt>
      <trkpt lat="42.6581678353250026702880859375" lon="0.07138204760849475860595703125">
        <ele>2218.800048828125</ele>
        <time>2021-08-22T14:29:30.000Z</time>
      </trkpt>
      <trkpt lat="42.65816892497241497039794921875" lon="0.0713858194649219512939453125">
        <ele>2218.800048828125</ele>
        <time>2021-08-22T14:29:31.000Z</time>
      </trkpt>
      <trkpt lat="42.658171691000461578369140625" lon="0.07138892076909542083740234375">
        <ele>2219</ele>
        <time>2021-08-22T14:29:32.000Z</time>
      </trkpt>
      <trkpt lat="42.65817948617041110992431640625" lon="0.071391351521015167236328125">
        <ele>2219.199951171875</ele>
        <time>2021-08-22T14:29:33.000Z</time>
      </trkpt>
      <trkpt lat="42.6581725291907787322998046875" lon="0.0714044272899627685546875">
        <ele>2219.199951171875</ele>
        <time>2021-08-22T14:29:38.000Z</time>
      </trkpt>
      <trkpt lat="42.658155262470245361328125" lon="0.07143284194171428680419921875">
        <ele>2219.39990234375</ele>
        <time>2021-08-22T14:29:44.000Z</time>
      </trkpt>
      <trkpt lat="42.65815258026123046875" lon="0.0714421458542346954345703125">
        <ele>2219.39990234375</ele>
        <time>2021-08-22T14:29:45.000Z</time>
      </trkpt>
      <trkpt lat="42.65814788639545440673828125" lon="0.0714505277574062347412109375">
        <ele>2219.39990234375</ele>
        <time>2021-08-22T14:29:46.000Z</time>
      </trkpt>
      <trkpt lat="42.65813774429261684417724609375" lon="0.071461088955402374267578125">
        <ele>2219.39990234375</ele>
        <time>2021-08-22T14:29:48.000Z</time>
      </trkpt>
      <trkpt lat="42.65813187696039676666259765625" lon="0.0714750029146671295166015625">
        <ele>2219.60009765625</ele>
        <time>2021-08-22T14:29:50.000Z</time>
      </trkpt>
      <trkpt lat="42.65813053585588932037353515625" lon="0.07148045115172863006591796875">
        <ele>2219.60009765625</ele>
        <time>2021-08-22T14:29:51.000Z</time>
      </trkpt>
      <trkpt lat="42.65815283171832561492919921875" lon="0.07150157354772090911865234375">
        <ele>2220.60009765625</ele>
        <time>2021-08-22T14:29:55.000Z</time>
      </trkpt>
      <trkpt lat="42.65816490165889263153076171875" lon="0.07150526158511638641357421875">
        <ele>2220.800048828125</ele>
        <time>2021-08-22T14:29:57.000Z</time>
      </trkpt>
      <trkpt lat="42.6581700146198272705078125" lon="0.07150727324187755584716796875">
        <ele>2221</ele>
        <time>2021-08-22T14:29:58.000Z</time>
      </trkpt>
      <trkpt lat="42.6582048833370208740234375" lon="0.07152286358177661895751953125">
        <ele>2222.199951171875</ele>
        <time>2021-08-22T14:30:07.000Z</time>
      </trkpt>
      <trkpt lat="42.65823245979845523834228515625" lon="0.07155253551900386810302734375">
        <ele>2223.39990234375</ele>
        <time>2021-08-22T14:30:13.000Z</time>
      </trkpt>
      <trkpt lat="42.6583914645016193389892578125" lon="0.0716128014028072357177734375">
        <ele>2228.39990234375</ele>
        <time>2021-08-22T14:30:59.000Z</time>
      </trkpt>
      <trkpt lat="42.65843597240746021270751953125" lon="0.07164624519646167755126953125">
        <ele>2230.39990234375</ele>
        <time>2021-08-22T14:31:09.000Z</time>
      </trkpt>
      <trkpt lat="42.658620290458202362060546875" lon="0.07160131819546222686767578125">
        <ele>2236.39990234375</ele>
        <time>2021-08-22T14:32:16.000Z</time>
      </trkpt>
      <trkpt lat="42.65888214111328125" lon="0.07179125212132930755615234375">
        <ele>2251.800048828125</ele>
        <time>2021-08-22T14:33:51.000Z</time>
      </trkpt>
      <trkpt lat="42.6590509526431560516357421875" lon="0.071804411709308624267578125">
        <ele>2259.800048828125</ele>
        <time>2021-08-22T14:34:53.000Z</time>
      </trkpt>
      <trkpt lat="42.65909160487353801727294921875" lon="0.07180231623351573944091796875">
        <ele>2261.39990234375</ele>
        <time>2021-08-22T14:35:01.000Z</time>
      </trkpt>
      <trkpt lat="42.65913988463580608367919921875" lon="0.071772225201129913330078125">
        <ele>2263</ele>
        <time>2021-08-22T14:35:12.000Z</time>
      </trkpt>
      <trkpt lat="42.6593785174190998077392578125" lon="0.07170324213802814483642578125">
        <ele>2269.800048828125</ele>
        <time>2021-08-22T14:36:36.000Z</time>
      </trkpt>
      <trkpt lat="42.65936887823045253753662109375" lon="0.071687065064907073974609375">
        <ele>2269.199951171875</ele>
        <time>2021-08-22T14:36:46.000Z</time>
      </trkpt>
      <trkpt lat="42.65936669893562793731689453125" lon="0.07168379612267017364501953125">
        <ele>2269</ele>
        <time>2021-08-22T14:36:55.000Z</time>
      </trkpt>
      <trkpt lat="42.659394778311252593994140625" lon="0.07161565124988555908203125">
        <ele>2268.800048828125</ele>
        <time>2021-08-22T14:37:02.000Z</time>
      </trkpt>
      <trkpt lat="42.65942730009555816650390625" lon="0.07155303843319416046142578125">
        <ele>2268.800048828125</ele>
        <time>2021-08-22T14:37:12.000Z</time>
      </trkpt>
      <trkpt lat="42.65943802893161773681640625" lon="0.071531496942043304443359375">
        <ele>2269</ele>
        <time>2021-08-22T14:37:25.000Z</time>
      </trkpt>
      <trkpt lat="42.6595897413790225982666015625" lon="0.071361847221851348876953125">
        <ele>2272</ele>
        <time>2021-08-22T14:38:07.000Z</time>
      </trkpt>
      <trkpt lat="42.6596467383205890655517578125" lon="0.0713747553527355194091796875">
        <ele>2274.199951171875</ele>
        <time>2021-08-22T14:38:30.000Z</time>
      </trkpt>
      <trkpt lat="42.65965771861374378204345703125" lon="0.07136620581150054931640625">
        <ele>2274.39990234375</ele>
        <time>2021-08-22T14:38:37.000Z</time>
      </trkpt>
      <trkpt lat="42.65973349101841449737548828125" lon="0.0713992305099964141845703125">
        <ele>2277.60009765625</ele>
        <time>2021-08-22T14:38:49.000Z</time>
      </trkpt>
      <trkpt lat="42.65983524732291698455810546875" lon="0.07137953303754329681396484375">
        <ele>2281</ele>
        <time>2021-08-22T14:39:04.000Z</time>
      </trkpt>
      <trkpt lat="42.659869529306888580322265625" lon="0.07137693464756011962890625">
        <ele>2282.199951171875</ele>
        <time>2021-08-22T14:39:12.000Z</time>
      </trkpt>
      <trkpt lat="42.6599377579987049102783203125" lon="0.07142764516174793243408203125">
        <ele>2285.60009765625</ele>
        <time>2021-08-22T14:39:33.000Z</time>
      </trkpt>
      <trkpt lat="42.66003674827516078948974609375" lon="0.07139948196709156036376953125">
        <ele>2290.199951171875</ele>
        <time>2021-08-22T14:39:58.000Z</time>
      </trkpt>
      <trkpt lat="42.660322152078151702880859375" lon="0.071331001818180084228515625">
        <ele>2305.199951171875</ele>
        <time>2021-08-22T14:41:28.000Z</time>
      </trkpt>
      <trkpt lat="42.66036339104175567626953125" lon="0.07132806815207004547119140625">
        <ele>2307.60009765625</ele>
        <time>2021-08-22T14:41:36.000Z</time>
      </trkpt>
      <trkpt lat="42.66044008545577526092529296875" lon="0.07130585610866546630859375">
        <ele>2311</ele>
        <time>2021-08-22T14:42:30.000Z</time>
      </trkpt>
      <trkpt lat="42.660464979708194732666015625" lon="0.07129437290132045745849609375">
        <ele>2312</ele>
        <time>2021-08-22T14:42:40.000Z</time>
      </trkpt>
      <trkpt lat="42.660481743514537811279296875" lon="0.0712906010448932647705078125">
        <ele>2312.800048828125</ele>
        <time>2021-08-22T14:42:52.000Z</time>
      </trkpt>
      <trkpt lat="42.6604483835399150848388671875" lon="0.0712916068732738494873046875">
        <ele>2311.199951171875</ele>
        <time>2021-08-22T14:43:02.000Z</time>
      </trkpt>
      <trkpt lat="42.6604259200394153594970703125" lon="0.071292109787464141845703125">
        <ele>2310.199951171875</ele>
        <time>2021-08-22T14:43:10.000Z</time>
      </trkpt>
      <trkpt lat="42.660397253930568695068359375" lon="0.07129118777811527252197265625">
        <ele>2308.800048828125</ele>
        <time>2021-08-22T14:43:28.000Z</time>
      </trkpt>
      <trkpt lat="42.66038895584642887115478515625" lon="0.07129537872970104217529296875">
        <ele>2308.39990234375</ele>
        <time>2021-08-22T14:43:42.000Z</time>
      </trkpt>
      <trkpt lat="42.6603762991726398468017578125" lon="0.071301162242889404296875">
        <ele>2308</ele>
        <time>2021-08-22T14:44:01.000Z</time>
      </trkpt>
      <trkpt lat="42.66037571243941783905029296875" lon="0.07130158133804798126220703125">
        <ele>2308</ele>
        <time>2021-08-22T14:44:02.000Z</time>
      </trkpt>
      <trkpt lat="42.66037881374359130859375" lon="0.071302168071269989013671875">
        <ele>2308.199951171875</ele>
        <time>2021-08-22T14:44:10.000Z</time>
      </trkpt>
      <trkpt lat="42.66037889756262302398681640625" lon="0.0713006593286991119384765625">
        <ele>2308</ele>
        <time>2021-08-22T14:44:12.000Z</time>
      </trkpt>
      <trkpt lat="42.66038107685744762420654296875" lon="0.07130241952836513519287109375">
        <ele>2308.199951171875</ele>
        <time>2021-08-22T14:44:20.000Z</time>
      </trkpt>
      <trkpt lat="42.6603793166577816009521484375" lon="0.071304179728031158447265625">
        <ele>2308.199951171875</ele>
        <time>2021-08-22T14:44:23.000Z</time>
      </trkpt>
      <trkpt lat="42.66037923283874988555908203125" lon="0.0712996535003185272216796875">
        <ele>2308</ele>
        <time>2021-08-22T14:44:55.000Z</time>
      </trkpt>
      <trkpt lat="42.66040219925343990325927734375" lon="0.071308203041553497314453125">
        <ele>2309.199951171875</ele>
        <time>2021-08-22T14:45:07.000Z</time>
      </trkpt>
      <trkpt lat="42.6603974215686321258544921875" lon="0.071306526660919189453125">
        <ele>2309</ele>
        <time>2021-08-22T14:45:26.000Z</time>
      </trkpt>
      <trkpt lat="42.66039465554058551788330078125" lon="0.07131256163120269775390625">
        <ele>2309</ele>
        <time>2021-08-22T14:45:53.000Z</time>
      </trkpt>
      <trkpt lat="42.6603987626731395721435546875" lon="0.07130225189030170440673828125">
        <ele>2309</ele>
        <time>2021-08-22T14:46:16.000Z</time>
      </trkpt>
      <trkpt lat="42.6604118384420871734619140625" lon="0.0713087059557437896728515625">
        <ele>2309.800048828125</ele>
        <time>2021-08-22T14:46:29.000Z</time>
      </trkpt>
      <trkpt lat="42.66043304465711116790771484375" lon="0.07130560465157032012939453125">
        <ele>2310.60009765625</ele>
        <time>2021-08-22T14:46:32.000Z</time>
      </trkpt>
      <trkpt lat="42.66046204604208469390869140625" lon="0.07130711339414119720458984375">
        <ele>2312</ele>
        <time>2021-08-22T14:46:38.000Z</time>
      </trkpt>
      <trkpt lat="42.66046992503106594085693359375" lon="0.0713241286575794219970703125">
        <ele>2312.60009765625</ele>
        <time>2021-08-22T14:46:41.000Z</time>
      </trkpt>
      <trkpt lat="42.66046824865043163299560546875" lon="0.07134080864489078521728515625">
        <ele>2312.800048828125</ele>
        <time>2021-08-22T14:46:45.000Z</time>
      </trkpt>
      <trkpt lat="42.66047176904976367950439453125" lon="0.07135036401450634002685546875">
        <ele>2313.199951171875</ele>
        <time>2021-08-22T14:46:48.000Z</time>
      </trkpt>
      <trkpt lat="42.660472691059112548828125" lon="0.07136528380215167999267578125">
        <ele>2313.39990234375</ele>
        <time>2021-08-22T14:46:50.000Z</time>
      </trkpt>
      <trkpt lat="42.660488449037075042724609375" lon="0.07140970788896083831787109375">
        <ele>2314.800048828125</ele>
        <time>2021-08-22T14:46:57.000Z</time>
      </trkpt>
      <trkpt lat="42.6604996807873249053955078125" lon="0.071417503058910369873046875">
        <ele>2315.39990234375</ele>
        <time>2021-08-22T14:46:59.000Z</time>
      </trkpt>
      <trkpt lat="42.66054972074925899505615234375" lon="0.07140467874705791473388671875">
        <ele>2317.60009765625</ele>
        <time>2021-08-22T14:47:08.000Z</time>
      </trkpt>
      <trkpt lat="42.660554163157939910888671875" lon="0.0713928602635860443115234375">
        <ele>2317.60009765625</ele>
        <time>2021-08-22T14:47:09.000Z</time>
      </trkpt>
      <trkpt lat="42.66056589782238006591796875" lon="0.07136377505958080291748046875">
        <ele>2317.800048828125</ele>
        <time>2021-08-22T14:47:12.000Z</time>
      </trkpt>
      <trkpt lat="42.6605714298784732818603515625" lon="0.07134550251066684722900390625">
        <ele>2317.800048828125</ele>
        <time>2021-08-22T14:47:14.000Z</time>
      </trkpt>
      <trkpt lat="42.66059397719800472259521484375" lon="0.0713415630161762237548828125">
        <ele>2318.800048828125</ele>
        <time>2021-08-22T14:47:19.000Z</time>
      </trkpt>
      <trkpt lat="42.66060554422438144683837890625" lon="0.0713432393968105316162109375">
        <ele>2319.199951171875</ele>
        <time>2021-08-22T14:47:22.000Z</time>
      </trkpt>
      <trkpt lat="42.6606106571853160858154296875" lon="0.071351118385791778564453125">
        <ele>2319.60009765625</ele>
        <time>2021-08-22T14:47:24.000Z</time>
      </trkpt>
      <trkpt lat="42.66062088310718536376953125" lon="0.0713615119457244873046875">
        <ele>2320.199951171875</ele>
        <time>2021-08-22T14:47:27.000Z</time>
      </trkpt>
      <trkpt lat="42.66068525612354278564453125" lon="0.0714283995330333709716796875">
        <ele>2324</ele>
        <time>2021-08-22T14:47:41.000Z</time>
      </trkpt>
      <trkpt lat="42.6606911234557628631591796875" lon="0.07143083028495311737060546875">
        <ele>2324.199951171875</ele>
        <time>2021-08-22T14:47:42.000Z</time>
      </trkpt>
      <trkpt lat="42.6606974937021732330322265625" lon="0.07143250666558742523193359375">
        <ele>2324.60009765625</ele>
        <time>2021-08-22T14:47:43.000Z</time>
      </trkpt>
      <trkpt lat="42.66070595942437648773193359375" lon="0.0714330933988094329833984375">
        <ele>2325</ele>
        <time>2021-08-22T14:47:45.000Z</time>
      </trkpt>
      <trkpt lat="42.6607181131839752197265625" lon="0.07143703289330005645751953125">
        <ele>2325.60009765625</ele>
        <time>2021-08-22T14:47:48.000Z</time>
      </trkpt>
      <trkpt lat="42.66073076985776424407958984375" lon="0.071445666253566741943359375">
        <ele>2326.199951171875</ele>
        <time>2021-08-22T14:47:52.000Z</time>
      </trkpt>
      <trkpt lat="42.66076697967946529388427734375" lon="0.07145077921450138092041015625">
        <ele>2327.800048828125</ele>
        <time>2021-08-22T14:48:02.000Z</time>
      </trkpt>
      <trkpt lat="42.66079229302704334259033203125" lon="0.07144306786358356475830078125">
        <ele>2328.60009765625</ele>
        <time>2021-08-22T14:48:07.000Z</time>
      </trkpt>
      <trkpt lat="42.66081945039331912994384765625" lon="0.0714511983096599578857421875">
        <ele>2329.800048828125</ele>
        <time>2021-08-22T14:48:13.000Z</time>
      </trkpt>
      <trkpt lat="42.660833783447742462158203125" lon="0.0714646093547344207763671875">
        <ele>2330.60009765625</ele>
        <time>2021-08-22T14:48:16.000Z</time>
      </trkpt>
      <trkpt lat="42.6609502919018268585205078125" lon="0.0715296529233455657958984375">
        <ele>2336</ele>
        <time>2021-08-22T14:48:55.000Z</time>
      </trkpt>
      <trkpt lat="42.66097166575491428375244140625" lon="0.071521438658237457275390625">
        <ele>2336.39990234375</ele>
        <time>2021-08-22T14:49:05.000Z</time>
      </trkpt>
      <trkpt lat="42.6609908603131771087646484375" lon="0.07150836288928985595703125">
        <ele>2336.800048828125</ele>
        <time>2021-08-22T14:49:09.000Z</time>
      </trkpt>
      <trkpt lat="42.66104307956993579864501953125" lon="0.07147726602852344512939453125">
        <ele>2337.800048828125</ele>
        <time>2021-08-22T14:49:22.000Z</time>
      </trkpt>
      <trkpt lat="42.66104777343571186065673828125" lon="0.07147709839046001434326171875">
        <ele>2338</ele>
        <time>2021-08-22T14:49:23.000Z</time>
      </trkpt>
      <trkpt lat="42.66104576177895069122314453125" lon="0.0714817084372043609619140625">
        <ele>2338</ele>
        <time>2021-08-22T14:49:24.000Z</time>
      </trkpt>
      <trkpt lat="42.66104659996926784515380859375" lon="0.07148480974137783050537109375">
        <ele>2338.199951171875</ele>
        <time>2021-08-22T14:49:25.000Z</time>
      </trkpt>
      <trkpt lat="42.66107157804071903228759765625" lon="0.07145513780415058135986328125">
        <ele>2338.199951171875</ele>
        <time>2021-08-22T14:49:42.000Z</time>
      </trkpt>
      <trkpt lat="42.66117283143103122711181640625" lon="0.071463100612163543701171875">
        <ele>2342</ele>
        <time>2021-08-22T14:50:10.000Z</time>
      </trkpt>
      <trkpt lat="42.66132538206875324249267578125" lon="0.07134047336876392364501953125">
        <ele>2350.199951171875</ele>
        <time>2021-08-22T14:50:54.000Z</time>
      </trkpt>
      <trkpt lat="42.66133158467710018157958984375" lon="0.07133963517844676971435546875">
        <ele>2350.60009765625</ele>
        <time>2021-08-22T14:50:56.000Z</time>
      </trkpt>
      <trkpt lat="42.661338038742542266845703125" lon="0.07132806815207004547119140625">
        <ele>2350.60009765625</ele>
        <time>2021-08-22T14:50:58.000Z</time>
      </trkpt>
      <trkpt lat="42.66134440898895263671875" lon="0.0713157467544078826904296875">
        <ele>2350.60009765625</ele>
        <time>2021-08-22T14:51:00.000Z</time>
      </trkpt>
      <trkpt lat="42.66137215308845043182373046875" lon="0.0712996535003185272216796875">
        <ele>2351.800048828125</ele>
        <time>2021-08-22T14:51:11.000Z</time>
      </trkpt>
      <trkpt lat="42.6613928563892841339111328125" lon="0.07130828686058521270751953125">
        <ele>2353.800048828125</ele>
        <time>2021-08-22T14:51:16.000Z</time>
      </trkpt>
      <trkpt lat="42.661411464214324951171875" lon="0.07129839621484279632568359375">
        <ele>2354.60009765625</ele>
        <time>2021-08-22T14:51:22.000Z</time>
      </trkpt>
      <trkpt lat="42.66144675202667713165283203125" lon="0.071276687085628509521484375">
        <ele>2356.199951171875</ele>
        <time>2021-08-22T14:51:32.000Z</time>
      </trkpt>
      <trkpt lat="42.661470137536525726318359375" lon="0.07123016752302646636962890625">
        <ele>2356.800048828125</ele>
        <time>2021-08-22T14:51:48.000Z</time>
      </trkpt>
      <trkpt lat="42.66154364682734012603759765625" lon="0.07127643562853336334228515625">
        <ele>2363.60009765625</ele>
        <time>2021-08-22T14:52:35.000Z</time>
      </trkpt>
      <trkpt lat="42.661549262702465057373046875" lon="0.07127903401851654052734375">
        <ele>2364</ele>
        <time>2021-08-22T14:52:43.000Z</time>
      </trkpt>
      <trkpt lat="42.661557979881763458251953125" lon="0.07128439843654632568359375">
        <ele>2365</ele>
        <time>2021-08-22T14:52:50.000Z</time>
      </trkpt>
      <trkpt lat="42.661557979881763458251953125" lon="0.07128146477043628692626953125">
        <ele>2364.800048828125</ele>
        <time>2021-08-22T14:52:56.000Z</time>
      </trkpt>
      <trkpt lat="42.66155454330146312713623046875" lon="0.0712741725146770477294921875">
        <ele>2364.199951171875</ele>
        <time>2021-08-22T14:53:05.000Z</time>
      </trkpt>
      <trkpt lat="42.66153593547642230987548828125" lon="0.07127157412469387054443359375">
        <ele>2362.800048828125</ele>
        <time>2021-08-22T14:53:17.000Z</time>
      </trkpt>
      <trkpt lat="42.6615266315639019012451171875" lon="0.07127107121050357818603515625">
        <ele>2362</ele>
        <time>2021-08-22T14:53:25.000Z</time>
      </trkpt>
      <trkpt lat="42.6615826226770877838134765625" lon="0.071240477263927459716796875">
        <ele>2365.60009765625</ele>
        <time>2021-08-22T14:53:47.000Z</time>
      </trkpt>
      <trkpt lat="42.66162796877324581146240234375" lon="0.07117819972336292266845703125">
        <ele>2367.39990234375</ele>
        <time>2021-08-22T14:54:06.000Z</time>
      </trkpt>
      <trkpt lat="42.661636434495449066162109375" lon="0.0711648724973201751708984375">
        <ele>2367.60009765625</ele>
        <time>2021-08-22T14:54:08.000Z</time>
      </trkpt>
      <trkpt lat="42.6616407930850982666015625" lon="0.07115439511835575103759765625">
        <ele>2367.800048828125</ele>
        <time>2021-08-22T14:54:09.000Z</time>
      </trkpt>
      <trkpt lat="42.6616453193128108978271484375" lon="0.07114685140550136566162109375">
        <ele>2367.800048828125</ele>
        <time>2021-08-22T14:54:10.000Z</time>
      </trkpt>
      <trkpt lat="42.6616496779024600982666015625" lon="0.07114400155842304229736328125">
        <ele>2368.199951171875</ele>
        <time>2021-08-22T14:54:11.000Z</time>
      </trkpt>
      <trkpt lat="42.66165378503501415252685546875" lon="0.07114215753972530364990234375">
        <ele>2368.39990234375</ele>
        <time>2021-08-22T14:54:12.000Z</time>
      </trkpt>
      <trkpt lat="42.66167021356523036956787109375" lon="0.07113729603588581085205078125">
        <ele>2369.60009765625</ele>
        <time>2021-08-22T14:54:17.000Z</time>
      </trkpt>
      <trkpt lat="42.661663927137851715087890625" lon="0.07116026245057582855224609375">
        <ele>2369.60009765625</ele>
        <time>2021-08-22T14:54:24.000Z</time>
      </trkpt>
      <trkpt lat="42.6616640947759151458740234375" lon="0.0711683928966522216796875">
        <ele>2369.800048828125</ele>
        <time>2021-08-22T14:54:25.000Z</time>
      </trkpt>
      <trkpt lat="42.66166401095688343048095703125" lon="0.07117803208529949188232421875">
        <ele>2370</ele>
        <time>2021-08-22T14:54:27.000Z</time>
      </trkpt>
      <trkpt lat="42.6616657711565494537353515625" lon="0.07117979228496551513671875">
        <ele>2370.199951171875</ele>
        <time>2021-08-22T14:54:28.000Z</time>
      </trkpt>
      <trkpt lat="42.6616734825074672698974609375" lon="0.071193538606166839599609375">
        <ele>2371.199951171875</ele>
        <time>2021-08-22T14:54:31.000Z</time>
      </trkpt>
      <trkpt lat="42.6616865582764148712158203125" lon="0.07121642120182514190673828125">
        <ele>2372.800048828125</ele>
        <time>2021-08-22T14:54:36.000Z</time>
      </trkpt>
      <trkpt lat="42.66170457936823368072509765625" lon="0.0712359510362148284912109375">
        <ele>2374.60009765625</ele>
        <time>2021-08-22T14:54:44.000Z</time>
      </trkpt>
      <trkpt lat="42.66170977614820003509521484375" lon="0.07123419083654880523681640625">
        <ele>2375</ele>
        <time>2021-08-22T14:54:45.000Z</time>
      </trkpt>
      <trkpt lat="42.66171027906239032745361328125" lon="0.07122614420950412750244140625">
        <ele>2374.800048828125</ele>
        <time>2021-08-22T14:54:46.000Z</time>
      </trkpt>
      <trkpt lat="42.6617197506129741668701171875" lon="0.07118121720850467681884765625">
        <ele>2374</ele>
        <time>2021-08-22T14:54:50.000Z</time>
      </trkpt>
      <trkpt lat="42.66172570176422595977783203125" lon="0.07116529159247875213623046875">
        <ele>2373.60009765625</ele>
        <time>2021-08-22T14:54:52.000Z</time>
      </trkpt>
      <trkpt lat="42.661732323467731475830078125" lon="0.07114802487194538116455078125">
        <ele>2373.39990234375</ele>
        <time>2021-08-22T14:54:54.000Z</time>
      </trkpt>
      <trkpt lat="42.66173408366739749908447265625" lon="0.07114090025424957275390625">
        <ele>2373.199951171875</ele>
        <time>2021-08-22T14:54:55.000Z</time>
      </trkpt>
      <trkpt lat="42.6617395319044589996337890625" lon="0.0711360387504100799560546875">
        <ele>2373.199951171875</ele>
        <time>2021-08-22T14:54:56.000Z</time>
      </trkpt>
      <trkpt lat="42.66175956465303897857666015625" lon="0.071097314357757568359375">
        <ele>2372.60009765625</ele>
        <time>2021-08-22T14:55:01.000Z</time>
      </trkpt>
      <trkpt lat="42.661771215498447418212890625" lon="0.07107828743755817413330078125">
        <ele>2372.39990234375</ele>
        <time>2021-08-22T14:55:04.000Z</time>
      </trkpt>
      <trkpt lat="42.66177750192582607269287109375" lon="0.0710793770849704742431640625">
        <ele>2372.60009765625</ele>
        <time>2021-08-22T14:55:05.000Z</time>
      </trkpt>
      <trkpt lat="42.6617874763906002044677734375" lon="0.0710820592939853668212890625">
        <ele>2373</ele>
        <time>2021-08-22T14:55:07.000Z</time>
      </trkpt>
      <trkpt lat="42.6618116162717342376708984375" lon="0.07106722332537174224853515625">
        <ele>2373.60009765625</ele>
        <time>2021-08-22T14:55:16.000Z</time>
      </trkpt>
      <trkpt lat="42.6618129573762416839599609375" lon="0.07105967961251735687255859375">
        <ele>2373.60009765625</ele>
        <time>2021-08-22T14:55:17.000Z</time>
      </trkpt>
      <trkpt lat="42.66192116774618625640869140625" lon="0.07096429355442523956298828125">
        <ele>2376.800048828125</ele>
        <time>2021-08-22T14:55:48.000Z</time>
      </trkpt>
      <trkpt lat="42.66200196929275989532470703125" lon="0.0709751062095165252685546875">
        <ele>2380.39990234375</ele>
        <time>2021-08-22T14:56:18.000Z</time>
      </trkpt>
      <trkpt lat="42.66202376224100589752197265625" lon="0.0709502957761287689208984375">
        <ele>2381.199951171875</ele>
        <time>2021-08-22T14:56:29.000Z</time>
      </trkpt>
      <trkpt lat="42.66203172504901885986328125" lon="0.070962868630886077880859375">
        <ele>2381.60009765625</ele>
        <time>2021-08-22T14:56:32.000Z</time>
      </trkpt>
      <trkpt lat="42.66203708946704864501953125" lon="0.07097083143889904022216796875">
        <ele>2382</ele>
        <time>2021-08-22T14:56:36.000Z</time>
      </trkpt>
      <trkpt lat="42.6621370017528533935546875" lon="0.0709140859544277191162109375">
        <ele>2385.800048828125</ele>
        <time>2021-08-22T14:57:08.000Z</time>
      </trkpt>
      <trkpt lat="42.66215653158724308013916015625" lon="0.0708852522075176239013671875">
        <ele>2386.39990234375</ele>
        <time>2021-08-22T14:57:15.000Z</time>
      </trkpt>
      <trkpt lat="42.66216943971812725067138671875" lon="0.07087158970534801483154296875">
        <ele>2387</ele>
        <time>2021-08-22T14:57:18.000Z</time>
      </trkpt>
      <trkpt lat="42.66218201257288455963134765625" lon="0.070846863090991973876953125">
        <ele>2387.199951171875</ele>
        <time>2021-08-22T14:57:22.000Z</time>
      </trkpt>
      <trkpt lat="42.6622830145061016082763671875" lon="0.0707303546369075775146484375">
        <ele>2391.199951171875</ele>
        <time>2021-08-22T14:58:16.000Z</time>
      </trkpt>
      <trkpt lat="42.6622759737074375152587890625" lon="0.0707176141440868377685546875">
        <ele>2390.60009765625</ele>
        <time>2021-08-22T14:58:33.000Z</time>
      </trkpt>
      <trkpt lat="42.662273459136486053466796875" lon="0.07071979343891143798828125">
        <ele>2390.39990234375</ele>
        <time>2021-08-22T14:58:39.000Z</time>
      </trkpt>
      <trkpt lat="42.6622756384313106536865234375" lon="0.07072457112371921539306640625">
        <ele>2390.60009765625</ele>
        <time>2021-08-22T14:58:46.000Z</time>
      </trkpt>
      <trkpt lat="42.66227488406002521514892578125" lon="0.0707323662936687469482421875">
        <ele>2390.60009765625</ele>
        <time>2021-08-22T14:58:51.000Z</time>
      </trkpt>
      <trkpt lat="42.66227689571678638458251953125" lon="0.07074284367263317108154296875">
        <ele>2390.800048828125</ele>
        <time>2021-08-22T14:59:04.000Z</time>
      </trkpt>
      <trkpt lat="42.66229483298957347869873046875" lon="0.07073027081787586212158203125">
        <ele>2392</ele>
        <time>2021-08-22T14:59:11.000Z</time>
      </trkpt>
      <trkpt lat="42.66232366673648357391357421875" lon="0.070724822580814361572265625">
        <ele>2393.800048828125</ele>
        <time>2021-08-22T14:59:19.000Z</time>
      </trkpt>
      <trkpt lat="42.662352584302425384521484375" lon="0.0707058794796466827392578125">
        <ele>2395.39990234375</ele>
        <time>2021-08-22T14:59:24.000Z</time>
      </trkpt>
      <trkpt lat="42.66235970892012119293212890625" lon="0.0707025267183780670166015625">
        <ele>2395.800048828125</ele>
        <time>2021-08-22T14:59:25.000Z</time>
      </trkpt>
      <trkpt lat="42.66236624680459499359130859375" lon="0.0707043707370758056640625">
        <ele>2396.39990234375</ele>
        <time>2021-08-22T14:59:26.000Z</time>
      </trkpt>
      <trkpt lat="42.66237345524132251739501953125" lon="0.07070428691804409027099609375">
        <ele>2396.800048828125</ele>
        <time>2021-08-22T14:59:27.000Z</time>
      </trkpt>
      <trkpt lat="42.66238166950643062591552734375" lon="0.07070009596645832061767578125">
        <ele>2397.199951171875</ele>
        <time>2021-08-22T14:59:29.000Z</time>
      </trkpt>
      <trkpt lat="42.66238954849541187286376953125" lon="0.070691294968128204345703125">
        <ele>2397.60009765625</ele>
        <time>2021-08-22T14:59:33.000Z</time>
      </trkpt>
      <trkpt lat="42.662421651184558868408203125" lon="0.07068224251270294189453125">
        <ele>2399.60009765625</ele>
        <time>2021-08-22T14:59:40.000Z</time>
      </trkpt>
      <trkpt lat="42.6624275185167789459228515625" lon="0.070691294968128204345703125">
        <ele>2400.199951171875</ele>
        <time>2021-08-22T14:59:41.000Z</time>
      </trkpt>
      <trkpt lat="42.6624402590095996856689453125" lon="0.0707166083157062530517578125">
        <ele>2401.199951171875</ele>
        <time>2021-08-22T14:59:45.000Z</time>
      </trkpt>
      <trkpt lat="42.66244478523731231689453125" lon="0.0707370601594448089599609375">
        <ele>2401.800048828125</ele>
        <time>2021-08-22T14:59:48.000Z</time>
      </trkpt>
      <trkpt lat="42.66247102059423923492431640625" lon="0.07075793109834194183349609375">
        <ele>2403.60009765625</ele>
        <time>2021-08-22T14:59:56.000Z</time>
      </trkpt>
      <trkpt lat="42.6624704338610172271728515625" lon="0.0707930512726306915283203125">
        <ele>2404</ele>
        <time>2021-08-22T15:00:45.000Z</time>
      </trkpt>
      <trkpt lat="42.6624667458236217498779296875" lon="0.07085532881319522857666015625">
        <ele>2404.39990234375</ele>
        <time>2021-08-22T15:00:57.000Z</time>
      </trkpt>
      <trkpt lat="42.66240715049207210540771484375" lon="0.07101424969732761383056640625">
        <ele>2401.800048828125</ele>
        <time>2021-08-22T15:01:07.000Z</time>
      </trkpt>
      <trkpt lat="42.66237596981227397918701171875" lon="0.07114618085324764251708984375">
        <ele>2401.60009765625</ele>
        <time>2021-08-22T15:01:16.000Z</time>
      </trkpt>
      <trkpt lat="42.66235853545367717742919921875" lon="0.07119496352970600128173828125">
        <ele>2401.60009765625</ele>
        <time>2021-08-22T15:01:20.000Z</time>
      </trkpt>
      <trkpt lat="42.66232299618422985076904296875" lon="0.07126025855541229248046875">
        <ele>2401</ele>
        <time>2021-08-22T15:01:28.000Z</time>
      </trkpt>
      <trkpt lat="42.66231360845267772674560546875" lon="0.07127727381885051727294921875">
        <ele>2400.800048828125</ele>
        <time>2021-08-22T15:01:30.000Z</time>
      </trkpt>
      <trkpt lat="42.66225032508373260498046875" lon="0.07142060436308383941650390625">
        <ele>2402.39990234375</ele>
        <time>2021-08-22T15:01:45.000Z</time>
      </trkpt>
      <trkpt lat="42.6621898077428340911865234375" lon="0.071594528853893280029296875">
        <ele>2404.60009765625</ele>
        <time>2021-08-22T15:02:02.000Z</time>
      </trkpt>
      <trkpt lat="42.66208930872380733489990234375" lon="0.07180449552834033966064453125">
        <ele>2406.199951171875</ele>
        <time>2021-08-22T15:02:21.000Z</time>
      </trkpt>
      <trkpt lat="42.662045471370220184326171875" lon="0.07187322713434696197509765625">
        <ele>2406.199951171875</ele>
        <time>2021-08-22T15:02:27.000Z</time>
      </trkpt>
      <trkpt lat="42.661818824708461761474609375" lon="0.072295926511287689208984375">
        <ele>2412.800048828125</ele>
        <time>2021-08-22T15:03:02.000Z</time>
      </trkpt>
      <trkpt lat="42.66173408366739749908447265625" lon="0.0724234990775585174560546875">
        <ele>2418.199951171875</ele>
        <time>2021-08-22T15:03:18.000Z</time>
      </trkpt>
      <trkpt lat="42.6617319881916046142578125" lon="0.07242945022881031036376953125">
        <ele>2418.39990234375</ele>
        <time>2021-08-22T15:03:19.000Z</time>
      </trkpt>
      <trkpt lat="42.66173039563000202178955078125" lon="0.072436071932315826416015625">
        <ele>2418.60009765625</ele>
        <time>2021-08-22T15:03:20.000Z</time>
      </trkpt>
      <trkpt lat="42.6617170684039592742919921875" lon="0.07250740192830562591552734375">
        <ele>2420.199951171875</ele>
        <time>2021-08-22T15:03:26.000Z</time>
      </trkpt>
      <trkpt lat="42.66163215972483158111572265625" lon="0.0727044604718685150146484375">
        <ele>2422.800048828125</ele>
        <time>2021-08-22T15:03:42.000Z</time>
      </trkpt>
      <trkpt lat="42.6613806188106536865234375" lon="0.0732068717479705810546875">
        <ele>2419.39990234375</ele>
        <time>2021-08-22T15:04:25.000Z</time>
      </trkpt>
      <trkpt lat="42.66135069541633129119873046875" lon="0.07325925864279270172119140625">
        <ele>2420.60009765625</ele>
        <time>2021-08-22T15:04:29.000Z</time>
      </trkpt>
      <trkpt lat="42.6613385416567325592041015625" lon="0.0732844881713390350341796875">
        <ele>2421.199951171875</ele>
        <time>2021-08-22T15:04:31.000Z</time>
      </trkpt>
      <trkpt lat="42.66133074648678302764892578125" lon="0.07330804131925106048583984375">
        <ele>2421.800048828125</ele>
        <time>2021-08-22T15:04:33.000Z</time>
      </trkpt>
      <trkpt lat="42.6613234542310237884521484375" lon="0.07331608794629573822021484375">
        <ele>2421.800048828125</ele>
        <time>2021-08-22T15:04:35.000Z</time>
      </trkpt>
      <trkpt lat="42.66131884418427944183349609375" lon="0.07332153618335723876953125">
        <ele>2422</ele>
        <time>2021-08-22T15:04:37.000Z</time>
      </trkpt>
      <trkpt lat="42.661314569413661956787109375" lon="0.07333226501941680908203125">
        <ele>2422.199951171875</ele>
        <time>2021-08-22T15:04:38.000Z</time>
      </trkpt>
      <trkpt lat="42.661309540271759033203125" lon="0.07334307767450809478759765625">
        <ele>2422.39990234375</ele>
        <time>2021-08-22T15:04:39.000Z</time>
      </trkpt>
      <trkpt lat="42.6612976379692554473876953125" lon="0.073368139564990997314453125">
        <ele>2423</ele>
        <time>2021-08-22T15:04:41.000Z</time>
      </trkpt>
      <trkpt lat="42.6612832210958003997802734375" lon="0.07340862415730953216552734375">
        <ele>2423.800048828125</ele>
        <time>2021-08-22T15:04:44.000Z</time>
      </trkpt>
      <trkpt lat="42.66120317392051219940185546875" lon="0.0735922716557979583740234375">
        <ele>2426.60009765625</ele>
        <time>2021-08-22T15:04:58.000Z</time>
      </trkpt>
      <trkpt lat="42.66117702238261699676513671875" lon="0.07364281453192234039306640625">
        <ele>2426.60009765625</ele>
        <time>2021-08-22T15:05:03.000Z</time>
      </trkpt>
      <trkpt lat="42.661148272454738616943359375" lon="0.07368489168584346771240234375">
        <ele>2426.39990234375</ele>
        <time>2021-08-22T15:05:07.000Z</time>
      </trkpt>
      <trkpt lat="42.66114232130348682403564453125" lon="0.07370903156697750091552734375">
        <ele>2426.800048828125</ele>
        <time>2021-08-22T15:05:11.000Z</time>
      </trkpt>
      <trkpt lat="42.6611434109508991241455078125" lon="0.073708780109882354736328125">
        <ele>2426.800048828125</ele>
        <time>2021-08-22T15:05:15.000Z</time>
      </trkpt>
      <trkpt lat="42.6611098833382129669189453125" lon="0.0737615860998630523681640625">
        <ele>2426.800048828125</ele>
        <time>2021-08-22T15:05:34.000Z</time>
      </trkpt>
      <trkpt lat="42.6610855758190155029296875" lon="0.07376854307949542999267578125">
        <ele>2426</ele>
        <time>2021-08-22T15:05:45.000Z</time>
      </trkpt>
      <trkpt lat="42.66107409261167049407958984375" lon="0.07381799630820751190185546875">
        <ele>2426</ele>
        <time>2021-08-22T15:05:51.000Z</time>
      </trkpt>
      <trkpt lat="42.66091885976493358612060546875" lon="0.07411706261336803436279296875">
        <ele>2428.39990234375</ele>
        <time>2021-08-22T15:06:18.000Z</time>
      </trkpt>
      <trkpt lat="42.6608698256313800811767578125" lon="0.07439752109348773956298828125">
        <ele>2432.800048828125</ele>
        <time>2021-08-22T15:06:37.000Z</time>
      </trkpt>
      <trkpt lat="42.66077720560133457183837890625" lon="0.07499414496123790740966796875">
        <ele>2436.60009765625</ele>
        <time>2021-08-22T15:07:25.000Z</time>
      </trkpt>
      <trkpt lat="42.660666145384311676025390625" lon="0.075584314763545989990234375">
        <ele>2440</ele>
        <time>2021-08-22T15:08:23.000Z</time>
      </trkpt>
      <trkpt lat="42.6606188714504241943359375" lon="0.075675509870052337646484375">
        <ele>2439.199951171875</ele>
        <time>2021-08-22T15:08:35.000Z</time>
      </trkpt>
      <trkpt lat="42.66047026030719280242919921875" lon="0.07603752426803112030029296875">
        <ele>2439</ele>
        <time>2021-08-22T15:09:07.000Z</time>
      </trkpt>
      <trkpt lat="42.6604641415178775787353515625" lon="0.07604724727571010589599609375">
        <ele>2438.800048828125</ele>
        <time>2021-08-22T15:09:09.000Z</time>
      </trkpt>
      <trkpt lat="42.66049205325543880462646484375" lon="0.07605847902595996856689453125">
        <ele>2438.39990234375</ele>
        <time>2021-08-22T15:09:56.000Z</time>
      </trkpt>
      <trkpt lat="42.66048568300902843475341796875" lon="0.076057054102420806884765625">
        <ele>2438.39990234375</ele>
        <time>2021-08-22T15:10:10.000Z</time>
      </trkpt>
      <trkpt lat="42.6604752056300640106201171875" lon="0.076062418520450592041015625">
        <ele>2438.39990234375</ele>
        <time>2021-08-22T15:10:18.000Z</time>
      </trkpt>
      <trkpt lat="42.66047495417296886444091796875" lon="0.07606233470141887664794921875">
        <ele>2438.39990234375</ele>
        <time>2021-08-22T15:10:19.000Z</time>
      </trkpt>
      <trkpt lat="42.6604772172868251800537109375" lon="0.07606602273881435394287109375">
        <ele>2438.39990234375</ele>
        <time>2021-08-22T15:10:24.000Z</time>
      </trkpt>
      <trkpt lat="42.6604748703539371490478515625" lon="0.0760609097778797149658203125">
        <ele>2438.39990234375</ele>
        <time>2021-08-22T15:10:27.000Z</time>
      </trkpt>
      <trkpt lat="42.6604762114584445953369140625" lon="0.07606049068272113800048828125">
        <ele>2438.39990234375</ele>
        <time>2021-08-22T15:10:29.000Z</time>
      </trkpt>
      <trkpt lat="42.66047998331487178802490234375" lon="0.07605596445500850677490234375">
        <ele>2438.60009765625</ele>
        <time>2021-08-22T15:10:34.000Z</time>
      </trkpt>
      <trkpt lat="42.66048668883740901947021484375" lon="0.07605831138789653778076171875">
        <ele>2438.39990234375</ele>
        <time>2021-08-22T15:10:37.000Z</time>
      </trkpt>
      <trkpt lat="42.66048719175159931182861328125" lon="0.07605948485434055328369140625">
        <ele>2438.39990234375</ele>
        <time>2021-08-22T15:10:39.000Z</time>
      </trkpt>
      <trkpt lat="42.66048568300902843475341796875" lon="0.0760592333972454071044921875">
        <ele>2438.39990234375</ele>
        <time>2021-08-22T15:10:40.000Z</time>
      </trkpt>
      <trkpt lat="42.66048274934291839599609375" lon="0.07605562917888164520263671875">
        <ele>2438.60009765625</ele>
        <time>2021-08-22T15:10:48.000Z</time>
      </trkpt>
      <trkpt lat="42.66047696582973003387451171875" lon="0.0760448165237903594970703125">
        <ele>2438.800048828125</ele>
        <time>2021-08-22T15:11:18.000Z</time>
      </trkpt>
      <trkpt lat="42.660470344126224517822265625" lon="0.0760495103895664215087890625">
        <ele>2438.800048828125</ele>
        <time>2021-08-22T15:11:23.000Z</time>
      </trkpt>
      <trkpt lat="42.6604547537863254547119140625" lon="0.0760612450540065765380859375">
        <ele>2438.60009765625</ele>
        <time>2021-08-22T15:11:30.000Z</time>
      </trkpt>
      <trkpt lat="42.66044410876929759979248046875" lon="0.076083205640316009521484375">
        <ele>2438.199951171875</ele>
        <time>2021-08-22T15:11:35.000Z</time>
      </trkpt>
      <trkpt lat="42.66037621535360813140869140625" lon="0.0761400349438190460205078125">
        <ele>2439.39990234375</ele>
        <time>2021-08-22T15:11:45.000Z</time>
      </trkpt>
      <trkpt lat="42.660357691347599029541015625" lon="0.07615537382662296295166015625">
        <ele>2440</ele>
        <time>2021-08-22T15:11:47.000Z</time>
      </trkpt>
      <trkpt lat="42.66034905798733234405517578125" lon="0.0761628337204456329345703125">
        <ele>2440.199951171875</ele>
        <time>2021-08-22T15:11:48.000Z</time>
      </trkpt>
      <trkpt lat="42.6603333838284015655517578125" lon="0.0761812739074230194091796875">
        <ele>2440.60009765625</ele>
        <time>2021-08-22T15:11:50.000Z</time>
      </trkpt>
      <trkpt lat="42.66032709740102291107177734375" lon="0.07618789561092853546142578125">
        <ele>2440.800048828125</ele>
        <time>2021-08-22T15:11:51.000Z</time>
      </trkpt>
      <trkpt lat="42.66025518067181110382080078125" lon="0.07625025697052478790283203125">
        <ele>2441.60009765625</ele>
        <time>2021-08-22T15:12:00.000Z</time>
      </trkpt>
      <trkpt lat="42.66025350429117679595947265625" lon="0.0762513466179370880126953125">
        <ele>2441.60009765625</ele>
        <time>2021-08-22T15:12:02.000Z</time>
      </trkpt>
      <trkpt lat="42.660246379673480987548828125" lon="0.07626056671142578125">
        <ele>2442</ele>
        <time>2021-08-22T15:12:05.000Z</time>
      </trkpt>
      <trkpt lat="42.66023841686546802520751953125" lon="0.07625780068337917327880859375">
        <ele>2442</ele>
        <time>2021-08-22T15:12:09.000Z</time>
      </trkpt>
      <trkpt lat="42.66024042852222919464111328125" lon="0.07625914178788661956787109375">
        <ele>2442</ele>
        <time>2021-08-22T15:12:14.000Z</time>
      </trkpt>
      <trkpt lat="42.66023908741772174835205078125" lon="0.0762590579688549041748046875">
        <ele>2442</ele>
        <time>2021-08-22T15:12:15.000Z</time>
      </trkpt>
      <trkpt lat="42.66023858450353145599365234375" lon="0.07625897414982318878173828125">
        <ele>2442</ele>
        <time>2021-08-22T15:12:16.000Z</time>
      </trkpt>
      <trkpt lat="42.660236321389675140380859375" lon="0.076260901987552642822265625">
        <ele>2442</ele>
        <time>2021-08-22T15:12:19.000Z</time>
      </trkpt>
      <trkpt lat="42.66023104079067707061767578125" lon="0.07626031525433063507080078125">
        <ele>2442.199951171875</ele>
        <time>2021-08-22T15:12:35.000Z</time>
      </trkpt>
      <trkpt lat="42.66022567637264728546142578125" lon="0.07631831802427768707275390625">
        <ele>2441.800048828125</ele>
        <time>2021-08-22T15:12:48.000Z</time>
      </trkpt>
      <trkpt lat="42.6602835953235626220703125" lon="0.0763519294559955596923828125">
        <ele>2440.60009765625</ele>
        <time>2021-08-22T15:13:03.000Z</time>
      </trkpt>
      <trkpt lat="42.66028719954192638397216796875" lon="0.0763656757771968841552734375">
        <ele>2440.39990234375</ele>
        <time>2021-08-22T15:13:06.000Z</time>
      </trkpt>
      <trkpt lat="42.66029390506446361541748046875" lon="0.07636743597686290740966796875">
        <ele>2440.39990234375</ele>
        <time>2021-08-22T15:13:07.000Z</time>
      </trkpt>
      <trkpt lat="42.660322487354278564453125" lon="0.07636249065399169921875">
        <ele>2440</ele>
        <time>2021-08-22T15:13:11.000Z</time>
      </trkpt>
      <trkpt lat="42.66034168191254138946533203125" lon="0.07635419256985187530517578125">
        <ele>2439.199951171875</ele>
        <time>2021-08-22T15:13:15.000Z</time>
      </trkpt>
      <trkpt lat="42.66036070883274078369140625" lon="0.0763489119708538055419921875">
        <ele>2438.39990234375</ele>
        <time>2021-08-22T15:13:18.000Z</time>
      </trkpt>
      <trkpt lat="42.66036607325077056884765625" lon="0.076349079608917236328125">
        <ele>2438.199951171875</ele>
        <time>2021-08-22T15:13:19.000Z</time>
      </trkpt>
      <trkpt lat="42.6603712700307369232177734375" lon="0.07635553367435932159423828125">
        <ele>2437.800048828125</ele>
        <time>2021-08-22T15:13:20.000Z</time>
      </trkpt>
      <trkpt lat="42.6603773050010204315185546875" lon="0.0763804279267787933349609375">
        <ele>2437.199951171875</ele>
        <time>2021-08-22T15:13:23.000Z</time>
      </trkpt>
      <trkpt lat="42.6603846810758113861083984375" lon="0.07638788782060146331787109375">
        <ele>2436.800048828125</ele>
        <time>2021-08-22T15:13:25.000Z</time>
      </trkpt>
      <trkpt lat="42.6603997685015201568603515625" lon="0.07639157585799694061279296875">
        <ele>2436</ele>
        <time>2021-08-22T15:13:27.000Z</time>
      </trkpt>
      <trkpt lat="42.66044461168348789215087890625" lon="0.07638327777385711669921875">
        <ele>2434.199951171875</ele>
        <time>2021-08-22T15:13:31.000Z</time>
      </trkpt>
      <trkpt lat="42.66046288423240184783935546875" lon="0.07637414149940013885498046875">
        <ele>2434</ele>
        <time>2021-08-22T15:13:33.000Z</time>
      </trkpt>
      <trkpt lat="42.660487778484821319580078125" lon="0.076386630535125732421875">
        <ele>2433</ele>
        <time>2021-08-22T15:13:36.000Z</time>
      </trkpt>
      <trkpt lat="42.66049389727413654327392578125" lon="0.0763938389718532562255859375">
        <ele>2432.60009765625</ele>
        <time>2021-08-22T15:13:38.000Z</time>
      </trkpt>
      <trkpt lat="42.660495154559612274169921875" lon="0.07639945484697818756103515625">
        <ele>2432.39990234375</ele>
        <time>2021-08-22T15:13:39.000Z</time>
      </trkpt>
      <trkpt lat="42.66049238853156566619873046875" lon="0.07640448398888111114501953125">
        <ele>2432.199951171875</ele>
        <time>2021-08-22T15:13:40.000Z</time>
      </trkpt>
      <trkpt lat="42.66039918176829814910888671875" lon="0.0766360759735107421875">
        <ele>2431</ele>
        <time>2021-08-22T15:14:34.000Z</time>
      </trkpt>
      <trkpt lat="42.66034486703574657440185546875" lon="0.07674244232475757598876953125">
        <ele>2430</ele>
        <time>2021-08-22T15:14:51.000Z</time>
      </trkpt>
      <trkpt lat="42.6603055559098720550537109375" lon="0.0768347270786762237548828125">
        <ele>2428.60009765625</ele>
        <time>2021-08-22T15:15:32.000Z</time>
      </trkpt>
      <trkpt lat="42.66033313237130641937255859375" lon="0.0768142752349376678466796875">
        <ele>2428</ele>
        <time>2021-08-22T15:15:40.000Z</time>
      </trkpt>
      <trkpt lat="42.6603464595973491668701171875" lon="0.07687420584261417388916015625">
        <ele>2424.800048828125</ele>
        <time>2021-08-22T15:15:52.000Z</time>
      </trkpt>
      <trkpt lat="42.66033497639000415802001953125" lon="0.07694788277149200439453125">
        <ele>2422.199951171875</ele>
        <time>2021-08-22T15:16:02.000Z</time>
      </trkpt>
      <trkpt lat="42.6603518240153789520263671875" lon="0.0769487209618091583251953125">
        <ele>2421.39990234375</ele>
        <time>2021-08-22T15:16:05.000Z</time>
      </trkpt>
      <trkpt lat="42.6603977568447589874267578125" lon="0.0769145227968692779541015625">
        <ele>2420.60009765625</ele>
        <time>2021-08-22T15:16:11.000Z</time>
      </trkpt>
      <trkpt lat="42.66041946597397327423095703125" lon="0.0769094936549663543701171875">
        <ele>2419.800048828125</ele>
        <time>2021-08-22T15:16:13.000Z</time>
      </trkpt>
      <trkpt lat="42.66042851842939853668212890625" lon="0.0769078172743320465087890625">
        <ele>2419.39990234375</ele>
        <time>2021-08-22T15:16:14.000Z</time>
      </trkpt>
      <trkpt lat="42.66050144098699092864990234375" lon="0.0768729485571384429931640625">
        <ele>2417.199951171875</ele>
        <time>2021-08-22T15:16:23.000Z</time>
      </trkpt>
      <trkpt lat="42.660515606403350830078125" lon="0.07688124664127826690673828125">
        <ele>2416.199951171875</ele>
        <time>2021-08-22T15:16:26.000Z</time>
      </trkpt>
      <trkpt lat="42.66055374406278133392333984375" lon="0.0769941508769989013671875">
        <ele>2409.800048828125</ele>
        <time>2021-08-22T15:16:55.000Z</time>
      </trkpt>
      <trkpt lat="42.66053865663707256317138671875" lon="0.0769726932048797607421875">
        <ele>2411.39990234375</ele>
        <time>2021-08-22T15:17:17.000Z</time>
      </trkpt>
      <trkpt lat="42.660547457635402679443359375" lon="0.076976716518402099609375">
        <ele>2410.800048828125</ele>
        <time>2021-08-22T15:17:27.000Z</time>
      </trkpt>
      <trkpt lat="42.6605466194450855255126953125" lon="0.07697462104260921478271484375">
        <ele>2410.800048828125</ele>
        <time>2021-08-22T15:17:38.000Z</time>
      </trkpt>
      <trkpt lat="42.660544104874134063720703125" lon="0.07697210647165775299072265625">
        <ele>2411</ele>
        <time>2021-08-22T15:17:43.000Z</time>
      </trkpt>
      <trkpt lat="42.6605375669896602630615234375" lon="0.0769701786339282989501953125">
        <ele>2411.39990234375</ele>
        <time>2021-08-22T15:17:47.000Z</time>
      </trkpt>
      <trkpt lat="42.66053580678999423980712890625" lon="0.0769701786339282989501953125">
        <ele>2411.60009765625</ele>
        <time>2021-08-22T15:17:52.000Z</time>
      </trkpt>
      <trkpt lat="42.6605368964374065399169921875" lon="0.07696959190070629119873046875">
        <ele>2411.60009765625</ele>
        <time>2021-08-22T15:17:59.000Z</time>
      </trkpt>
      <trkpt lat="42.6605368964374065399169921875" lon="0.0769695080816745758056640625">
        <ele>2411.60009765625</ele>
        <time>2021-08-22T15:18:06.000Z</time>
      </trkpt>
      <trkpt lat="42.66053714789450168609619140625" lon="0.07696925662457942962646484375">
        <ele>2411.60009765625</ele>
        <time>2021-08-22T15:18:13.000Z</time>
      </trkpt>
      <trkpt lat="42.66053698025643825531005859375" lon="0.07696925662457942962646484375">
        <ele>2411.60009765625</ele>
        <time>2021-08-22T15:18:24.000Z</time>
      </trkpt>
      <trkpt lat="42.66053714789450168609619140625" lon="0.07696129381656646728515625">
        <ele>2411.800048828125</ele>
        <time>2021-08-22T15:19:46.000Z</time>
      </trkpt>
      <trkpt lat="42.6605335436761379241943359375" lon="0.0769547559320926666259765625">
        <ele>2412.199951171875</ele>
        <time>2021-08-22T15:20:38.000Z</time>
      </trkpt>
      <trkpt lat="42.66059112735092639923095703125" lon="0.07696456275880336761474609375">
        <ele>2409</ele>
        <time>2021-08-22T15:20:51.000Z</time>
      </trkpt>
      <trkpt lat="42.66062214039266109466552734375" lon="0.07698300294578075408935546875">
        <ele>2406.800048828125</ele>
        <time>2021-08-22T15:20:58.000Z</time>
      </trkpt>
      <trkpt lat="42.660623900592327117919921875" lon="0.07698434405028820037841796875">
        <ele>2406.800048828125</ele>
        <time>2021-08-22T15:20:59.000Z</time>
      </trkpt>
      <trkpt lat="42.66061509959399700164794921875" lon="0.07699658162891864776611328125">
        <ele>2406.60009765625</ele>
        <time>2021-08-22T15:21:07.000Z</time>
      </trkpt>
      <trkpt lat="42.6606130041182041168212890625" lon="0.07700010202825069427490234375">
        <ele>2406.60009765625</ele>
        <time>2021-08-22T15:21:08.000Z</time>
      </trkpt>
      <trkpt lat="42.66061275266110897064208984375" lon="0.07700555026531219482421875">
        <ele>2406.39990234375</ele>
        <time>2021-08-22T15:21:09.000Z</time>
      </trkpt>
      <trkpt lat="42.660612501204013824462890625" lon="0.0770177878439426422119140625">
        <ele>2406</ele>
        <time>2021-08-22T15:21:13.000Z</time>
      </trkpt>
      <trkpt lat="42.66061107628047466278076171875" lon="0.07702021859586238861083984375">
        <ele>2405.800048828125</ele>
        <time>2021-08-22T15:21:14.000Z</time>
      </trkpt>
      <trkpt lat="42.66061275266110897064208984375" lon="0.07705659605562686920166015625">
        <ele>2404.39990234375</ele>
        <time>2021-08-22T15:21:22.000Z</time>
      </trkpt>
      <trkpt lat="42.66062222421169281005859375" lon="0.0770553387701511383056640625">
        <ele>2404</ele>
        <time>2021-08-22T15:21:24.000Z</time>
      </trkpt>
      <trkpt lat="42.66064745374023914337158203125" lon="0.0770372338593006134033203125">
        <ele>2403.60009765625</ele>
        <time>2021-08-22T15:21:28.000Z</time>
      </trkpt>
      <trkpt lat="42.66066237352788448333740234375" lon="0.0770241580903530120849609375">
        <ele>2403.60009765625</ele>
        <time>2021-08-22T15:21:30.000Z</time>
      </trkpt>
      <trkpt lat="42.66067930497229099273681640625" lon="0.077011920511722564697265625">
        <ele>2403.199951171875</ele>
        <time>2021-08-22T15:21:32.000Z</time>
      </trkpt>
      <trkpt lat="42.6606847532093524932861328125" lon="0.0770073942840099334716796875">
        <ele>2403.199951171875</ele>
        <time>2021-08-22T15:21:34.000Z</time>
      </trkpt>
      <trkpt lat="42.66068651340901851654052734375" lon="0.07699876092374324798583984375">
        <ele>2403.39990234375</ele>
        <time>2021-08-22T15:21:36.000Z</time>
      </trkpt>
      <trkpt lat="42.66070277430117130279541015625" lon="0.07698602043092250823974609375">
        <ele>2403.199951171875</ele>
        <time>2021-08-22T15:21:43.000Z</time>
      </trkpt>
      <trkpt lat="42.6607212983071804046630859375" lon="0.0769919715821743011474609375">
        <ele>2402.199951171875</ele>
        <time>2021-08-22T15:21:52.000Z</time>
      </trkpt>
      <trkpt lat="42.66072842292487621307373046875" lon="0.07699306122958660125732421875">
        <ele>2401.800048828125</ele>
        <time>2021-08-22T15:21:53.000Z</time>
      </trkpt>
      <trkpt lat="42.6607353799045085906982421875" lon="0.076993145048618316650390625">
        <ele>2401.60009765625</ele>
        <time>2021-08-22T15:21:54.000Z</time>
      </trkpt>
      <trkpt lat="42.6607400737702846527099609375" lon="0.076992474496364593505859375">
        <ele>2401.39990234375</ele>
        <time>2021-08-22T15:21:55.000Z</time>
      </trkpt>
      <trkpt lat="42.66086923889815807342529296875" lon="0.07705592550337314605712890625">
        <ele>2393.199951171875</ele>
        <time>2021-08-22T15:22:44.000Z</time>
      </trkpt>
      <trkpt lat="42.66102815978229045867919921875" lon="0.077039413154125213623046875">
        <ele>2380.39990234375</ele>
        <time>2021-08-22T15:23:31.000Z</time>
      </trkpt>
      <trkpt lat="42.66105079092085361480712890625" lon="0.077040754258632659912109375">
        <ele>2378.39990234375</ele>
        <time>2021-08-22T15:23:43.000Z</time>
      </trkpt>
      <trkpt lat="42.66106621362268924713134765625" lon="0.0770261697471141815185546875">
        <ele>2377.60009765625</ele>
        <time>2021-08-22T15:23:52.000Z</time>
      </trkpt>
      <trkpt lat="42.661096639931201934814453125" lon="0.07700580172240734100341796875">
        <ele>2377</ele>
        <time>2021-08-22T15:24:09.000Z</time>
      </trkpt>
      <trkpt lat="42.66114525496959686279296875" lon="0.07698082365095615386962890625">
        <ele>2376</ele>
        <time>2021-08-22T15:24:22.000Z</time>
      </trkpt>
      <trkpt lat="42.66115388832986354827880859375" lon="0.0770087353885173797607421875">
        <ele>2373.60009765625</ele>
        <time>2021-08-22T15:24:26.000Z</time>
      </trkpt>
      <trkpt lat="42.661154977977275848388671875" lon="0.07701451890170574188232421875">
        <ele>2373.199951171875</ele>
        <time>2021-08-22T15:24:27.000Z</time>
      </trkpt>
      <trkpt lat="42.66115137375891208648681640625" lon="0.07701669819653034210205078125">
        <ele>2373.199951171875</ele>
        <time>2021-08-22T15:24:28.000Z</time>
      </trkpt>
      <trkpt lat="42.66115673817694187164306640625" lon="0.0770223140716552734375">
        <ele>2372.60009765625</ele>
        <time>2021-08-22T15:24:30.000Z</time>
      </trkpt>
      <trkpt lat="42.66115891747176647186279296875" lon="0.07702273316681385040283203125">
        <ele>2372.39990234375</ele>
        <time>2021-08-22T15:24:31.000Z</time>
      </trkpt>
      <trkpt lat="42.66118255443871021270751953125" lon="0.07702608592808246612548828125">
        <ele>2369.800048828125</ele>
        <time>2021-08-22T15:24:38.000Z</time>
      </trkpt>
      <trkpt lat="42.66119512729346752166748046875" lon="0.07703312672674655914306640625">
        <ele>2368</ele>
        <time>2021-08-22T15:24:40.000Z</time>
      </trkpt>
      <trkpt lat="42.66125966794788837432861328125" lon="0.07705626077950000762939453125">
        <ele>2360.199951171875</ele>
        <time>2021-08-22T15:24:55.000Z</time>
      </trkpt>
      <trkpt lat="42.6612506993114948272705078125" lon="0.07706112228333950042724609375">
        <ele>2360.800048828125</ele>
        <time>2021-08-22T15:24:59.000Z</time>
      </trkpt>
      <trkpt lat="42.6612470112740993499755859375" lon="0.07708735764026641845703125">
        <ele>2359.39990234375</ele>
        <time>2021-08-22T15:25:12.000Z</time>
      </trkpt>
      <trkpt lat="42.66121692024171352386474609375" lon="0.07713790051639080047607421875">
        <ele>2359</ele>
        <time>2021-08-22T15:25:33.000Z</time>
      </trkpt>
      <trkpt lat="42.6612148247659206390380859375" lon="0.07714745588600635528564453125">
        <ele>2358.60009765625</ele>
        <time>2021-08-22T15:25:36.000Z</time>
      </trkpt>
      <trkpt lat="42.66122530214488506317138671875" lon="0.0771639682352542877197265625">
        <ele>2356.39990234375</ele>
        <time>2021-08-22T15:25:41.000Z</time>
      </trkpt>
      <trkpt lat="42.66114433296024799346923828125" lon="0.07731609977781772613525390625">
        <ele>2352.800048828125</ele>
        <time>2021-08-22T15:26:16.000Z</time>
      </trkpt>
      <trkpt lat="42.66114550642669200897216796875" lon="0.0773356296122074127197265625">
        <ele>2351.199951171875</ele>
        <time>2021-08-22T15:26:20.000Z</time>
      </trkpt>
      <trkpt lat="42.6611470989882946014404296875" lon="0.07734057493507862091064453125">
        <ele>2350.800048828125</ele>
        <time>2021-08-22T15:26:23.000Z</time>
      </trkpt>
      <trkpt lat="42.66114802099764347076416015625" lon="0.077341832220554351806640625">
        <ele>2350.60009765625</ele>
        <time>2021-08-22T15:26:24.000Z</time>
      </trkpt>
      <trkpt lat="42.6611521281301975250244140625" lon="0.07734660990536212921142578125">
        <ele>2350</ele>
        <time>2021-08-22T15:26:26.000Z</time>
      </trkpt>
      <trkpt lat="42.6611534692347049713134765625" lon="0.07733655162155628204345703125">
        <ele>2350.60009765625</ele>
        <time>2021-08-22T15:26:31.000Z</time>
      </trkpt>
      <trkpt lat="42.66115673817694187164306640625" lon="0.07733621634542942047119140625">
        <ele>2350.199951171875</ele>
        <time>2021-08-22T15:26:32.000Z</time>
      </trkpt>
      <trkpt lat="42.66119915060698986053466796875" lon="0.07734057493507862091064453125">
        <ele>2346.199951171875</ele>
        <time>2021-08-22T15:26:38.000Z</time>
      </trkpt>
      <trkpt lat="42.661199904978275299072265625" lon="0.07733889855444431304931640625">
        <ele>2346.199951171875</ele>
        <time>2021-08-22T15:26:40.000Z</time>
      </trkpt>
      <trkpt lat="42.66123401932418346405029296875" lon="0.07729045115411281585693359375">
        <ele>2346.60009765625</ele>
        <time>2021-08-22T15:26:53.000Z</time>
      </trkpt>
      <trkpt lat="42.6612379588186740875244140625" lon="0.0772409141063690185546875">
        <ele>2349.800048828125</ele>
        <time>2021-08-22T15:26:57.000Z</time>
      </trkpt>
      <trkpt lat="42.66127475537359714508056640625" lon="0.07715248502790927886962890625">
        <ele>2352.39990234375</ele>
        <time>2021-08-22T15:27:04.000Z</time>
      </trkpt>
      <trkpt lat="42.66131733544170856475830078125" lon="0.07709029130637645721435546875">
        <ele>2352.39990234375</ele>
        <time>2021-08-22T15:27:10.000Z</time>
      </trkpt>
      <trkpt lat="42.6613854803144931793212890625" lon="0.07696129381656646728515625">
        <ele>2353.800048828125</ele>
        <time>2021-08-22T15:27:24.000Z</time>
      </trkpt>
      <trkpt lat="42.6613888330757617950439453125" lon="0.07682181894779205322265625">
        <ele>2362</ele>
        <time>2021-08-22T15:27:39.000Z</time>
      </trkpt>
      <trkpt lat="42.66162729822099208831787109375" lon="0.07643197663128376007080078125">
        <ele>2369</ele>
        <time>2021-08-22T15:28:51.000Z</time>
      </trkpt>
      <trkpt lat="42.66159209422767162322998046875" lon="0.0764290429651737213134765625">
        <ele>2371</ele>
        <time>2021-08-22T15:29:09.000Z</time>
      </trkpt>
      <trkpt lat="42.66160466708242893218994140625" lon="0.07643633522093296051025390625">
        <ele>2369.800048828125</ele>
        <time>2021-08-22T15:29:14.000Z</time>
      </trkpt>
      <trkpt lat="42.6616339199244976043701171875" lon="0.07641814649105072021484375">
        <ele>2369.800048828125</ele>
        <time>2021-08-22T15:29:22.000Z</time>
      </trkpt>
      <trkpt lat="42.6616811938583850860595703125" lon="0.07642426528036594390869140625">
        <ele>2366.800048828125</ele>
        <time>2021-08-22T15:29:31.000Z</time>
      </trkpt>
      <trkpt lat="42.66170508228242397308349609375" lon="0.0764240138232707977294921875">
        <ele>2365.60009765625</ele>
        <time>2021-08-22T15:29:37.000Z</time>
      </trkpt>
      <trkpt lat="42.6617234386503696441650390625" lon="0.07640414871275424957275390625">
        <ele>2366.800048828125</ele>
        <time>2021-08-22T15:29:45.000Z</time>
      </trkpt>
      <trkpt lat="42.66177163459360599517822265625" lon="0.0763867981731891632080078125">
        <ele>2367.39990234375</ele>
        <time>2021-08-22T15:29:52.000Z</time>
      </trkpt>
      <trkpt lat="42.66177582554519176483154296875" lon="0.07638738490641117095947265625">
        <ele>2367.199951171875</ele>
        <time>2021-08-22T15:29:53.000Z</time>
      </trkpt>
      <trkpt lat="42.66178688965737819671630859375" lon="0.07638973183929920196533203125">
        <ele>2366.800048828125</ele>
        <time>2021-08-22T15:29:56.000Z</time>
      </trkpt>
      <trkpt lat="42.66179745085537433624267578125" lon="0.07645972073078155517578125">
        <ele>2360.800048828125</ele>
        <time>2021-08-22T15:30:08.000Z</time>
      </trkpt>
      <trkpt lat="42.6618049107491970062255859375" lon="0.0765839405357837677001953125">
        <ele>2350.60009765625</ele>
        <time>2021-08-22T15:30:23.000Z</time>
      </trkpt>
      <trkpt lat="42.66182024963200092315673828125" lon="0.07664051838219165802001953125">
        <ele>2345.800048828125</ele>
        <time>2021-08-22T15:31:06.000Z</time>
      </trkpt>
      <trkpt lat="42.66184472478926181793212890625" lon="0.07665543816983699798583984375">
        <ele>2344.199951171875</ele>
        <time>2021-08-22T15:31:18.000Z</time>
      </trkpt>
      <trkpt lat="42.66183583997189998626708984375" lon="0.07666348479688167572021484375">
        <ele>2343.800048828125</ele>
        <time>2021-08-22T15:31:21.000Z</time>
      </trkpt>
      <trkpt lat="42.6618325710296630859375" lon="0.07666247896850109100341796875">
        <ele>2343.800048828125</ele>
        <time>2021-08-22T15:31:22.000Z</time>
      </trkpt>
      <trkpt lat="42.66182678751647472381591796875" lon="0.0766600482165813446044921875">
        <ele>2344.199951171875</ele>
        <time>2021-08-22T15:31:26.000Z</time>
      </trkpt>
      <trkpt lat="42.6618290506303310394287109375" lon="0.07665879093110561370849609375">
        <ele>2344.199951171875</ele>
        <time>2021-08-22T15:31:28.000Z</time>
      </trkpt>
      <trkpt lat="42.66182645224034786224365234375" lon="0.076657868921756744384765625">
        <ele>2344.39990234375</ele>
        <time>2021-08-22T15:31:30.000Z</time>
      </trkpt>
      <trkpt lat="42.6618535257875919342041015625" lon="0.07667706348001956939697265625">
        <ele>2342.39990234375</ele>
        <time>2021-08-22T15:31:36.000Z</time>
      </trkpt>
      <trkpt lat="42.6618607342243194580078125" lon="0.076688043773174285888671875">
        <ele>2341.39990234375</ele>
        <time>2021-08-22T15:31:44.000Z</time>
      </trkpt>
      <trkpt lat="42.66185176558792591094970703125" lon="0.07671746425330638885498046875">
        <ele>2339.60009765625</ele>
        <time>2021-08-22T15:31:48.000Z</time>
      </trkpt>
      <trkpt lat="42.66185243614017963409423828125" lon="0.0767391733825206756591796875">
        <ele>2338.199951171875</ele>
        <time>2021-08-22T15:31:59.000Z</time>
      </trkpt>
      <trkpt lat="42.6618491671979427337646484375" lon="0.07675099186599254608154296875">
        <ele>2337.60009765625</ele>
        <time>2021-08-22T15:32:04.000Z</time>
      </trkpt>
      <trkpt lat="42.6618957705795764923095703125" lon="0.07671025581657886505126953125">
        <ele>2339</ele>
        <time>2021-08-22T15:32:52.000Z</time>
      </trkpt>
      <trkpt lat="42.66189652495086193084716796875" lon="0.076738335192203521728515625">
        <ele>2336.800048828125</ele>
        <time>2021-08-22T15:32:57.000Z</time>
      </trkpt>
      <trkpt lat="42.66189384274184703826904296875" lon="0.07675736211240291595458984375">
        <ele>2335.60009765625</ele>
        <time>2021-08-22T15:33:08.000Z</time>
      </trkpt>
      <trkpt lat="42.6618969440460205078125" lon="0.0767607986927032470703125">
        <ele>2335.39990234375</ele>
        <time>2021-08-22T15:33:09.000Z</time>
      </trkpt>
      <trkpt lat="42.66189836896955966949462890625" lon="0.07676825858652591705322265625">
        <ele>2334.800048828125</ele>
        <time>2021-08-22T15:33:10.000Z</time>
      </trkpt>
      <trkpt lat="42.66191295348107814788818359375" lon="0.07681000046432018280029296875">
        <ele>2331.800048828125</ele>
        <time>2021-08-22T15:33:17.000Z</time>
      </trkpt>
      <trkpt lat="42.6619252748787403106689453125" lon="0.07680782116949558258056640625">
        <ele>2331.39990234375</ele>
        <time>2021-08-22T15:33:24.000Z</time>
      </trkpt>
      <trkpt lat="42.66192376613616943359375" lon="0.07681318558752536773681640625">
        <ele>2331.199951171875</ele>
        <time>2021-08-22T15:33:25.000Z</time>
      </trkpt>
      <trkpt lat="42.66192443668842315673828125" lon="0.0768169574439525604248046875">
        <ele>2331</ele>
        <time>2021-08-22T15:33:26.000Z</time>
      </trkpt>
      <trkpt lat="42.6619246043264865875244140625" lon="0.07683330215513706207275390625">
        <ele>2330</ele>
        <time>2021-08-22T15:33:30.000Z</time>
      </trkpt>
      <trkpt lat="42.6619527675211429595947265625" lon="0.07688107900321483612060546875">
        <ele>2326</ele>
        <time>2021-08-22T15:33:42.000Z</time>
      </trkpt>
      <trkpt lat="42.661926448345184326171875" lon="0.07696020416915416717529296875">
        <ele>2322.199951171875</ele>
        <time>2021-08-22T15:34:03.000Z</time>
      </trkpt>
      <trkpt lat="42.6619323156774044036865234375" lon="0.07705860771238803863525390625">
        <ele>2315.800048828125</ele>
        <time>2021-08-22T15:34:33.000Z</time>
      </trkpt>
      <trkpt lat="42.661918736994266510009765625" lon="0.0771190412342548370361328125">
        <ele>2313</ele>
        <time>2021-08-22T15:34:50.000Z</time>
      </trkpt>
      <trkpt lat="42.66202946193516254425048828125" lon="0.07714460603892803192138671875">
        <ele>2307</ele>
        <time>2021-08-22T15:35:35.000Z</time>
      </trkpt>
      <trkpt lat="42.66210355795919895172119140625" lon="0.07723814807832241058349609375">
        <ele>2298.60009765625</ele>
        <time>2021-08-22T15:36:11.000Z</time>
      </trkpt>
      <trkpt lat="42.66210137866437435150146484375" lon="0.0772516429424285888671875">
        <ele>2298.199951171875</ele>
        <time>2021-08-22T15:36:15.000Z</time>
      </trkpt>
      <trkpt lat="42.66208981163799762725830078125" lon="0.07729950360953807830810546875">
        <ele>2296.800048828125</ele>
        <time>2021-08-22T15:36:22.000Z</time>
      </trkpt>
      <trkpt lat="42.6620670966804027557373046875" lon="0.07734258659183979034423828125">
        <ele>2296.199951171875</ele>
        <time>2021-08-22T15:36:29.000Z</time>
      </trkpt>
      <trkpt lat="42.66204513609409332275390625" lon="0.07743411697447299957275390625">
        <ele>2293.199951171875</ele>
        <time>2021-08-22T15:37:00.000Z</time>
      </trkpt>
      <trkpt lat="42.66201831400394439697265625" lon="0.07751055993139743804931640625">
        <ele>2290.60009765625</ele>
        <time>2021-08-22T15:37:21.000Z</time>
      </trkpt>
      <trkpt lat="42.6620194874703884124755859375" lon="0.077513493597507476806640625">
        <ele>2290.39990234375</ele>
        <time>2021-08-22T15:37:24.000Z</time>
      </trkpt>
      <trkpt lat="42.66202158294618129730224609375" lon="0.07752397097647190093994140625">
        <ele>2289.60009765625</ele>
        <time>2021-08-22T15:37:26.000Z</time>
      </trkpt>
      <trkpt lat="42.66201957128942012786865234375" lon="0.07752749137580394744873046875">
        <ele>2289.60009765625</ele>
        <time>2021-08-22T15:37:27.000Z</time>
      </trkpt>
      <trkpt lat="42.66201990656554698944091796875" lon="0.07753721438348293304443359375">
        <ele>2289</ele>
        <time>2021-08-22T15:37:28.000Z</time>
      </trkpt>
      <trkpt lat="42.6620136201381683349609375" lon="0.07754333317279815673828125">
        <ele>2289</ele>
        <time>2021-08-22T15:37:29.000Z</time>
      </trkpt>
      <trkpt lat="42.6619956828653812408447265625" lon="0.0775575824081897735595703125">
        <ele>2289.199951171875</ele>
        <time>2021-08-22T15:37:33.000Z</time>
      </trkpt>
      <trkpt lat="42.6619658432900905609130859375" lon="0.07762245833873748779296875">
        <ele>2287</ele>
        <time>2021-08-22T15:37:48.000Z</time>
      </trkpt>
      <trkpt lat="42.66202962957322597503662109375" lon="0.07768188603222370147705078125">
        <ele>2280.800048828125</ele>
        <time>2021-08-22T15:38:13.000Z</time>
      </trkpt>
      <trkpt lat="42.662119567394256591796875" lon="0.07767803035676479339599609375">
        <ele>2276</ele>
        <time>2021-08-22T15:38:28.000Z</time>
      </trkpt>
      <trkpt lat="42.6622116006910800933837890625" lon="0.0776432454586029052734375">
        <ele>2273</ele>
        <time>2021-08-22T15:38:48.000Z</time>
      </trkpt>
      <trkpt lat="42.66227069310843944549560546875" lon="0.07771424017846584320068359375">
        <ele>2266.199951171875</ele>
        <time>2021-08-22T15:39:19.000Z</time>
      </trkpt>
      <trkpt lat="42.6622799970209598541259765625" lon="0.07772128097712993621826171875">
        <ele>2265.39990234375</ele>
        <time>2021-08-22T15:39:37.000Z</time>
      </trkpt>
      <trkpt lat="42.6622940786182880401611328125" lon="0.07775262929499149322509765625">
        <ele>2263.39990234375</ele>
        <time>2021-08-22T15:39:58.000Z</time>
      </trkpt>
      <trkpt lat="42.6623557694256305694580078125" lon="0.07779135368764400482177734375">
        <ele>2259.199951171875</ele>
        <time>2021-08-22T15:40:33.000Z</time>
      </trkpt>
      <trkpt lat="42.662460543215274810791015625" lon="0.077707953751087188720703125">
        <ele>2261.199951171875</ele>
        <time>2021-08-22T15:41:02.000Z</time>
      </trkpt>
      <trkpt lat="42.66248904168605804443359375" lon="0.077699236571788787841796875">
        <ele>2261</ele>
        <time>2021-08-22T15:41:09.000Z</time>
      </trkpt>
      <trkpt lat="42.66257244162261486053466796875" lon="0.077678449451923370361328125">
        <ele>2260.39990234375</ele>
        <time>2021-08-22T15:41:54.000Z</time>
      </trkpt>
      <trkpt lat="42.66257822513580322265625" lon="0.07767735980451107025146484375">
        <ele>2260.39990234375</ele>
        <time>2021-08-22T15:41:58.000Z</time>
      </trkpt>
      <trkpt lat="42.6625750400125980377197265625" lon="0.07768088020384311676025390625">
        <ele>2260.199951171875</ele>
        <time>2021-08-22T15:42:09.000Z</time>
      </trkpt>
      <trkpt lat="42.6625730283558368682861328125" lon="0.07770334370434284210205078125">
        <ele>2259</ele>
        <time>2021-08-22T15:42:23.000Z</time>
      </trkpt>
      <trkpt lat="42.66258669085800647735595703125" lon="0.07771105505526065826416015625">
        <ele>2258.39990234375</ele>
        <time>2021-08-22T15:42:30.000Z</time>
      </trkpt>
      <trkpt lat="42.66259088180959224700927734375" lon="0.07770066149532794952392578125">
        <ele>2259</ele>
        <time>2021-08-22T15:42:46.000Z</time>
      </trkpt>
      <trkpt lat="42.6626025326550006866455078125" lon="0.07770988158881664276123046875">
        <ele>2258.199951171875</ele>
        <time>2021-08-22T15:42:59.000Z</time>
      </trkpt>
      <trkpt lat="42.66260479576885700225830078125" lon="0.07770887576043605804443359375">
        <ele>2258.199951171875</ele>
        <time>2021-08-22T15:43:00.000Z</time>
      </trkpt>
      <trkpt lat="42.66260965727269649505615234375" lon="0.07771097123622894287109375">
        <ele>2258</ele>
        <time>2021-08-22T15:43:01.000Z</time>
      </trkpt>
      <trkpt lat="42.662623822689056396484375" lon="0.0777081213891506195068359375">
        <ele>2257.800048828125</ele>
        <time>2021-08-22T15:43:05.000Z</time>
      </trkpt>
      <trkpt lat="42.66264955513179302215576171875" lon="0.07769881747663021087646484375">
        <ele>2257.60009765625</ele>
        <time>2021-08-22T15:43:11.000Z</time>
      </trkpt>
      <trkpt lat="42.66264653764665126800537109375" lon="0.0776983983814716339111328125">
        <ele>2257.60009765625</ele>
        <time>2021-08-22T15:43:13.000Z</time>
      </trkpt>
      <trkpt lat="42.66264972276985645294189453125" lon="0.07769831456243991851806640625">
        <ele>2257.60009765625</ele>
        <time>2021-08-22T15:43:14.000Z</time>
      </trkpt>
      <trkpt lat="42.66265290789306163787841796875" lon="0.0776968896389007568359375">
        <ele>2257.60009765625</ele>
        <time>2021-08-22T15:43:15.000Z</time>
      </trkpt>
      <trkpt lat="42.66265533864498138427734375" lon="0.07769529707729816436767578125">
        <ele>2257.60009765625</ele>
        <time>2021-08-22T15:43:16.000Z</time>
      </trkpt>
      <trkpt lat="42.6626558415591716766357421875" lon="0.07769697345793247222900390625">
        <ele>2257.60009765625</ele>
        <time>2021-08-22T15:43:18.000Z</time>
      </trkpt>
      <trkpt lat="42.66265575774013996124267578125" lon="0.0776994042098522186279296875">
        <ele>2257.39990234375</ele>
        <time>2021-08-22T15:43:19.000Z</time>
      </trkpt>
      <trkpt lat="42.66265793703496456146240234375" lon="0.07770284079015254974365234375">
        <ele>2257.199951171875</ele>
        <time>2021-08-22T15:43:21.000Z</time>
      </trkpt>
      <trkpt lat="42.66266112215816974639892578125" lon="0.077706612646579742431640625">
        <ele>2257</ele>
        <time>2021-08-22T15:43:22.000Z</time>
      </trkpt>
      <trkpt lat="42.6626734435558319091796875" lon="0.0777185149490833282470703125">
        <ele>2256</ele>
        <time>2021-08-22T15:43:26.000Z</time>
      </trkpt>
      <trkpt lat="42.66269230283796787261962890625" lon="0.07773485966026782989501953125">
        <ele>2254.800048828125</ele>
        <time>2021-08-22T15:43:31.000Z</time>
      </trkpt>
      <trkpt lat="42.6627002656459808349609375" lon="0.07771474309265613555908203125">
        <ele>2255.60009765625</ele>
        <time>2021-08-22T15:43:40.000Z</time>
      </trkpt>
      <trkpt lat="42.6627024449408054351806640625" lon="0.0777128152549266815185546875">
        <ele>2255.60009765625</ele>
        <time>2021-08-22T15:43:43.000Z</time>
      </trkpt>
      <trkpt lat="42.6627158559858798980712890625" lon="0.07771893404424190521240234375">
        <ele>2255</ele>
        <time>2021-08-22T15:43:47.000Z</time>
      </trkpt>
      <trkpt lat="42.6627326197922229766845703125" lon="0.0777255557477474212646484375">
        <ele>2254.199951171875</ele>
        <time>2021-08-22T15:43:58.000Z</time>
      </trkpt>
      <trkpt lat="42.6627351343631744384765625" lon="0.077732093632221221923828125">
        <ele>2253.800048828125</ele>
        <time>2021-08-22T15:44:00.000Z</time>
      </trkpt>
      <trkpt lat="42.6627337932586669921875" lon="0.077741481363773345947265625">
        <ele>2253.39990234375</ele>
        <time>2021-08-22T15:44:02.000Z</time>
      </trkpt>
      <trkpt lat="42.6627326197922229766845703125" lon="0.0777667947113513946533203125">
        <ele>2252.39990234375</ele>
        <time>2021-08-22T15:44:10.000Z</time>
      </trkpt>
      <trkpt lat="42.66277964226901531219482421875" lon="0.07779906503856182098388671875">
        <ele>2249.60009765625</ele>
        <time>2021-08-22T15:44:25.000Z</time>
      </trkpt>
      <trkpt lat="42.662794478237628936767578125" lon="0.07778984494507312774658203125">
        <ele>2249.60009765625</ele>
        <time>2021-08-22T15:44:32.000Z</time>
      </trkpt>
      <trkpt lat="42.66281585209071636199951171875" lon="0.07778942584991455078125">
        <ele>2249.199951171875</ele>
        <time>2021-08-22T15:44:48.000Z</time>
      </trkpt>
      <trkpt lat="42.66281954012811183929443359375" lon="0.07782253436744213104248046875">
        <ele>2247.60009765625</ele>
        <time>2021-08-22T15:44:53.000Z</time>
      </trkpt>
      <trkpt lat="42.66282088123261928558349609375" lon="0.0778578221797943115234375">
        <ele>2245.800048828125</ele>
        <time>2021-08-22T15:45:00.000Z</time>
      </trkpt>
      <trkpt lat="42.66281551681458950042724609375" lon="0.077878274023532867431640625">
        <ele>2245</ele>
        <time>2021-08-22T15:45:07.000Z</time>
      </trkpt>
      <trkpt lat="42.66281627118587493896484375" lon="0.0778792798519134521484375">
        <ele>2245</ele>
        <time>2021-08-22T15:45:20.000Z</time>
      </trkpt>
      <trkpt lat="42.66281987540423870086669921875" lon="0.07789026014506816864013671875">
        <ele>2244.39990234375</ele>
        <time>2021-08-22T15:45:38.000Z</time>
      </trkpt>
      <trkpt lat="42.66284451819956302642822265625" lon="0.077934600412845611572265625">
        <ele>2242</ele>
        <time>2021-08-22T15:46:02.000Z</time>
      </trkpt>
      <trkpt lat="42.6628452725708484649658203125" lon="0.0779330916702747344970703125">
        <ele>2242</ele>
        <time>2021-08-22T15:46:03.000Z</time>
      </trkpt>
      <trkpt lat="42.66284577548503875732421875" lon="0.077935270965099334716796875">
        <ele>2241.800048828125</ele>
        <time>2021-08-22T15:46:05.000Z</time>
      </trkpt>
      <trkpt lat="42.6628469489514827728271484375" lon="0.077935941517353057861328125">
        <ele>2241.800048828125</ele>
        <time>2021-08-22T15:46:06.000Z</time>
      </trkpt>
      <trkpt lat="42.6628499664366245269775390625" lon="0.07793669588863849639892578125">
        <ele>2241.800048828125</ele>
        <time>2021-08-22T15:46:07.000Z</time>
      </trkpt>
      <trkpt lat="42.66285256482660770416259765625" lon="0.07795102894306182861328125">
        <ele>2241</ele>
        <time>2021-08-22T15:46:12.000Z</time>
      </trkpt>
      <trkpt lat="42.66280428506433963775634765625" lon="0.07800894789397716522216796875">
        <ele>2239.199951171875</ele>
        <time>2021-08-22T15:46:27.000Z</time>
      </trkpt>
      <trkpt lat="42.66279883682727813720703125" lon="0.0780095346271991729736328125">
        <ele>2239.199951171875</ele>
        <time>2021-08-22T15:46:28.000Z</time>
      </trkpt>
      <trkpt lat="42.662783749401569366455078125" lon="0.07803074084222316741943359375">
        <ele>2238.39990234375</ele>
        <time>2021-08-22T15:46:35.000Z</time>
      </trkpt>
      <trkpt lat="42.66277343966066837310791015625" lon="0.07804230786859989166259765625">
        <ele>2238</ele>
        <time>2021-08-22T15:46:38.000Z</time>
      </trkpt>
      <trkpt lat="42.662768326699733734130859375" lon="0.07804851047694683074951171875">
        <ele>2237.800048828125</ele>
        <time>2021-08-22T15:46:40.000Z</time>
      </trkpt>
      <trkpt lat="42.66276740469038486480712890625" lon="0.07805672474205493927001953125">
        <ele>2237.39990234375</ele>
        <time>2021-08-22T15:46:41.000Z</time>
      </trkpt>
      <trkpt lat="42.66276606358587741851806640625" lon="0.07807709276676177978515625">
        <ele>2236.60009765625</ele>
        <time>2021-08-22T15:46:45.000Z</time>
      </trkpt>
      <trkpt lat="42.66285918653011322021484375" lon="0.0780786015093326568603515625">
        <ele>2235.199951171875</ele>
        <time>2021-08-22T15:47:13.000Z</time>
      </trkpt>
      <trkpt lat="42.66286932863295078277587890625" lon="0.07809712551534175872802734375">
        <ele>2234.199951171875</ele>
        <time>2021-08-22T15:47:24.000Z</time>
      </trkpt>
      <trkpt lat="42.66290570609271526336669921875" lon="0.0781335867941379547119140625">
        <ele>2231.800048828125</ele>
        <time>2021-08-22T15:47:36.000Z</time>
      </trkpt>
      <trkpt lat="42.66291593201458454132080078125" lon="0.07816300727427005767822265625">
        <ele>2230.199951171875</ele>
        <time>2021-08-22T15:47:45.000Z</time>
      </trkpt>
      <trkpt lat="42.66297041438519954681396484375" lon="0.07817993871867656707763671875">
        <ele>2228.39990234375</ele>
        <time>2021-08-22T15:48:17.000Z</time>
      </trkpt>
      <trkpt lat="42.66299597918987274169921875" lon="0.07824900560081005096435546875">
        <ele>2224.199951171875</ele>
        <time>2021-08-22T15:49:03.000Z</time>
      </trkpt>
      <trkpt lat="42.6630518026649951934814453125" lon="0.07824682630598545074462890625">
        <ele>2223</ele>
        <time>2021-08-22T15:49:28.000Z</time>
      </trkpt>
      <trkpt lat="42.6630985736846923828125" lon="0.078287981450557708740234375">
        <ele>2219.39990234375</ele>
        <time>2021-08-22T15:49:45.000Z</time>
      </trkpt>
      <trkpt lat="42.66329194419085979461669921875" lon="0.07820491679012775421142578125">
        <ele>2216.39990234375</ele>
        <time>2021-08-22T15:50:45.000Z</time>
      </trkpt>
      <trkpt lat="42.66330217011272907257080078125" lon="0.07820508442819118499755859375">
        <ele>2216</ele>
        <time>2021-08-22T15:50:50.000Z</time>
      </trkpt>
      <trkpt lat="42.66331457532942295074462890625" lon="0.07821950130164623260498046875">
        <ele>2214.39990234375</ele>
        <time>2021-08-22T15:50:53.000Z</time>
      </trkpt>
      <trkpt lat="42.66331725753843784332275390625" lon="0.07821832783520221710205078125">
        <ele>2214.39990234375</ele>
        <time>2021-08-22T15:50:56.000Z</time>
      </trkpt>
      <trkpt lat="42.66332848928868770599365234375" lon="0.0782204233109951019287109375">
        <ele>2213.800048828125</ele>
        <time>2021-08-22T15:50:59.000Z</time>
      </trkpt>
      <trkpt lat="42.66338246874511241912841796875" lon="0.07828722707927227020263671875">
        <ele>2206</ele>
        <time>2021-08-22T15:51:20.000Z</time>
      </trkpt>
      <trkpt lat="42.663389928638935089111328125" lon="0.07829074747860431671142578125">
        <ele>2205.39990234375</ele>
        <time>2021-08-22T15:51:21.000Z</time>
      </trkpt>
      <trkpt lat="42.6633991487324237823486328125" lon="0.078299045562744140625">
        <ele>2204.39990234375</ele>
        <time>2021-08-22T15:51:23.000Z</time>
      </trkpt>
      <trkpt lat="42.66342571936547756195068359375" lon="0.0782977044582366943359375">
        <ele>2203.60009765625</ele>
        <time>2021-08-22T15:51:27.000Z</time>
      </trkpt>
      <trkpt lat="42.66348187811672687530517578125" lon="0.07831849157810211181640625">
        <ele>2199.800048828125</ele>
        <time>2021-08-22T15:51:39.000Z</time>
      </trkpt>
      <trkpt lat="42.66348137520253658294677734375" lon="0.07831740193068981170654296875">
        <ele>2200</ele>
        <time>2021-08-22T15:51:49.000Z</time>
      </trkpt>
      <trkpt lat="42.6635211892426013946533203125" lon="0.07832611910998821258544921875">
        <ele>2197.39990234375</ele>
        <time>2021-08-22T15:52:04.000Z</time>
      </trkpt>
      <trkpt lat="42.6635624282062053680419921875" lon="0.07830935530364513397216796875">
        <ele>2196.60009765625</ele>
        <time>2021-08-22T15:52:26.000Z</time>
      </trkpt>
      <trkpt lat="42.66358480788767337799072265625" lon="0.07836333476006984710693359375">
        <ele>2191.800048828125</ele>
        <time>2021-08-22T15:52:46.000Z</time>
      </trkpt>
      <trkpt lat="42.6635818742215633392333984375" lon="0.07836853154003620147705078125">
        <ele>2191.60009765625</ele>
        <time>2021-08-22T15:52:48.000Z</time>
      </trkpt>
      <trkpt lat="42.66357810236513614654541015625" lon="0.078367777168750762939453125">
        <ele>2191.800048828125</ele>
        <time>2021-08-22T15:52:49.000Z</time>
      </trkpt>
      <trkpt lat="42.663581371307373046875" lon="0.07836450822651386260986328125">
        <ele>2191.800048828125</ele>
        <time>2021-08-22T15:52:51.000Z</time>
      </trkpt>
      <trkpt lat="42.66358346678316593170166015625" lon="0.0783655978739261627197265625">
        <ele>2191.60009765625</ele>
        <time>2021-08-22T15:52:52.000Z</time>
      </trkpt>
      <trkpt lat="42.66370014287531375885009765625" lon="0.0783907435834407806396484375">
        <ele>2183.60009765625</ele>
        <time>2021-08-22T15:53:20.000Z</time>
      </trkpt>
      <trkpt lat="42.663745991885662078857421875" lon="0.078382194042205810546875">
        <ele>2181.199951171875</ele>
        <time>2021-08-22T15:53:38.000Z</time>
      </trkpt>
      <trkpt lat="42.66372210346162319183349609375" lon="0.078353695571422576904296875">
        <ele>2184.800048828125</ele>
        <time>2021-08-22T15:54:07.000Z</time>
      </trkpt>
      <trkpt lat="42.66372461803257465362548828125" lon="0.0783459842205047607421875">
        <ele>2185.199951171875</ele>
        <time>2021-08-22T15:54:11.000Z</time>
      </trkpt>
      <trkpt lat="42.6637248694896697998046875" lon="0.07834858261048793792724609375">
        <ele>2185</ele>
        <time>2021-08-22T15:54:14.000Z</time>
      </trkpt>
      <trkpt lat="42.6637384481728076934814453125" lon="0.0783474929630756378173828125">
        <ele>2184.199951171875</ele>
        <time>2021-08-22T15:54:20.000Z</time>
      </trkpt>
      <trkpt lat="42.6637595705687999725341796875" lon="0.078351013362407684326171875">
        <ele>2182.60009765625</ele>
        <time>2021-08-22T15:54:28.000Z</time>
      </trkpt>
      <trkpt lat="42.6637495122849941253662109375" lon="0.07835847325623035430908203125">
        <ele>2182.800048828125</ele>
        <time>2021-08-22T15:54:47.000Z</time>
      </trkpt>
      <trkpt lat="42.66375177539885044097900390625" lon="0.07835880853235721588134765625">
        <ele>2182.60009765625</ele>
        <time>2021-08-22T15:54:48.000Z</time>
      </trkpt>
      <trkpt lat="42.66375814564526081085205078125" lon="0.07835411466658115386962890625">
        <ele>2182.39990234375</ele>
        <time>2021-08-22T15:54:51.000Z</time>
      </trkpt>
      <trkpt lat="42.66376174986362457275390625" lon="0.07835243828594684600830078125">
        <ele>2182.39990234375</ele>
        <time>2021-08-22T15:54:52.000Z</time>
      </trkpt>
      <trkpt lat="42.6637699641287326812744140625" lon="0.0783513486385345458984375">
        <ele>2182</ele>
        <time>2021-08-22T15:54:55.000Z</time>
      </trkpt>
      <trkpt lat="42.66377273015677928924560546875" lon="0.07835042662918567657470703125">
        <ele>2181.800048828125</ele>
        <time>2021-08-22T15:54:56.000Z</time>
      </trkpt>
      <trkpt lat="42.6637756638228893280029296875" lon="0.07835428230464458465576171875">
        <ele>2181.39990234375</ele>
        <time>2021-08-22T15:54:57.000Z</time>
      </trkpt>
      <trkpt lat="42.6637850515544414520263671875" lon="0.07835428230464458465576171875">
        <ele>2180.800048828125</ele>
        <time>2021-08-22T15:54:58.000Z</time>
      </trkpt>
      <trkpt lat="42.6637984625995159149169921875" lon="0.07836132310330867767333984375">
        <ele>2179.39990234375</ele>
        <time>2021-08-22T15:55:00.000Z</time>
      </trkpt>
      <trkpt lat="42.66383551061153411865234375" lon="0.07835025899112224578857421875">
        <ele>2176.39990234375</ele>
        <time>2021-08-22T15:55:10.000Z</time>
      </trkpt>
      <trkpt lat="42.663900554180145263671875" lon="0.07838613353669643402099609375">
        <ele>2168.800048828125</ele>
        <time>2021-08-22T15:55:31.000Z</time>
      </trkpt>
      <trkpt lat="42.66394757665693759918212890625" lon="0.0784547813236713409423828125">
        <ele>2162.800048828125</ele>
        <time>2021-08-22T15:55:43.000Z</time>
      </trkpt>
      <trkpt lat="42.66407934017479419708251953125" lon="0.07845033891499042510986328125">
        <ele>2164</ele>
        <time>2021-08-22T15:56:04.000Z</time>
      </trkpt>
      <trkpt lat="42.6642256043851375579833984375" lon="0.07858260534703731536865234375">
        <ele>2159.800048828125</ele>
        <time>2021-08-22T15:56:53.000Z</time>
      </trkpt>
      <trkpt lat="42.66426273621618747711181640625" lon="0.07859685458242893218994140625">
        <ele>2157.800048828125</ele>
        <time>2021-08-22T15:56:58.000Z</time>
      </trkpt>
      <trkpt lat="42.66436398960649967193603515625" lon="0.07859400473535060882568359375">
        <ele>2156</ele>
        <time>2021-08-22T15:57:20.000Z</time>
      </trkpt>
      <trkpt lat="42.66442132182419300079345703125" lon="0.078633315861225128173828125">
        <ele>2153.199951171875</ele>
        <time>2021-08-22T15:57:52.000Z</time>
      </trkpt>
      <trkpt lat="42.664472199976444244384765625" lon="0.07866038940846920013427734375">
        <ele>2151.39990234375</ele>
        <time>2021-08-22T15:58:01.000Z</time>
      </trkpt>
      <trkpt lat="42.66451586969196796417236328125" lon="0.07865753956139087677001953125">
        <ele>2151</ele>
        <time>2021-08-22T15:58:09.000Z</time>
      </trkpt>
      <trkpt lat="42.66454285942018032073974609375" lon="0.0786505825817584991455078125">
        <ele>2150.60009765625</ele>
        <time>2021-08-22T15:58:19.000Z</time>
      </trkpt>
      <trkpt lat="42.6645799912512302398681640625" lon="0.0786717049777507781982421875">
        <ele>2148</ele>
        <time>2021-08-22T15:58:27.000Z</time>
      </trkpt>
      <trkpt lat="42.6646078191697597503662109375" lon="0.07866642437875270843505859375">
        <ele>2147.60009765625</ele>
        <time>2021-08-22T15:58:30.000Z</time>
      </trkpt>
      <trkpt lat="42.66463355161249637603759765625" lon="0.078652091324329376220703125">
        <ele>2148</ele>
        <time>2021-08-22T15:58:34.000Z</time>
      </trkpt>
      <trkpt lat="42.6647798158228397369384765625" lon="0.0786888040602207183837890625">
        <ele>2139.199951171875</ele>
        <time>2021-08-22T15:58:56.000Z</time>
      </trkpt>
      <trkpt lat="42.66493731178343296051025390625" lon="0.07880522869527339935302734375">
        <ele>2123.39990234375</ele>
        <time>2021-08-22T15:59:20.000Z</time>
      </trkpt>
      <trkpt lat="42.66494301147758960723876953125" lon="0.078786201775074005126953125">
        <ele>2124.800048828125</ele>
        <time>2021-08-22T15:59:36.000Z</time>
      </trkpt>
      <trkpt lat="42.6649575121700763702392578125" lon="0.0787773169577121734619140625">
        <ele>2125</ele>
        <time>2021-08-22T15:59:47.000Z</time>
      </trkpt>
      <trkpt lat="42.6650151796638965606689453125" lon="0.07879215292632579803466796875">
        <ele>2120.800048828125</ele>
        <time>2021-08-22T16:00:44.000Z</time>
      </trkpt>
      <trkpt lat="42.6650265790522098541259765625" lon="0.078870691359043121337890625">
        <ele>2113</ele>
        <time>2021-08-22T16:01:07.000Z</time>
      </trkpt>
      <trkpt lat="42.665044851601123809814453125" lon="0.07888552732765674591064453125">
        <ele>2110.800048828125</ele>
        <time>2021-08-22T16:01:14.000Z</time>
      </trkpt>
      <trkpt lat="42.6650795526802539825439453125" lon="0.0788931548595428466796875">
        <ele>2108</ele>
        <time>2021-08-22T16:01:20.000Z</time>
      </trkpt>
      <trkpt lat="42.66498961485922336578369140625" lon="0.0789734534919261932373046875">
        <ele>2105.60009765625</ele>
        <time>2021-08-22T16:01:51.000Z</time>
      </trkpt>
      <trkpt lat="42.665189690887928009033203125" lon="0.079024918377399444580078125">
        <ele>2089.39990234375</ele>
        <time>2021-08-22T16:03:47.000Z</time>
      </trkpt>
      <trkpt lat="42.6652740128338336944580078125" lon="0.0790338031947612762451171875">
        <ele>2083.39990234375</ele>
        <time>2021-08-22T16:04:20.000Z</time>
      </trkpt>
      <trkpt lat="42.66525766812264919281005859375" lon="0.0790701806545257568359375">
        <ele>2082.800048828125</ele>
        <time>2021-08-22T16:04:32.000Z</time>
      </trkpt>
      <trkpt lat="42.66524760983884334564208984375" lon="0.07910530082881450653076171875">
        <ele>2083.199951171875</ele>
        <time>2021-08-22T16:04:38.000Z</time>
      </trkpt>
      <trkpt lat="42.66525129787623882293701171875" lon="0.0791152752935886383056640625">
        <ele>2083</ele>
        <time>2021-08-22T16:04:41.000Z</time>
      </trkpt>
      <trkpt lat="42.6652564108371734619140625" lon="0.0791132636368274688720703125">
        <ele>2082.60009765625</ele>
        <time>2021-08-22T16:04:44.000Z</time>
      </trkpt>
      <trkpt lat="42.665306031703948974609375" lon="0.0791602022945880889892578125">
        <ele>2079.199951171875</ele>
        <time>2021-08-22T16:05:02.000Z</time>
      </trkpt>
      <trkpt lat="42.66544022597372531890869140625" lon="0.07939514704048633575439453125">
        <ele>2068</ele>
        <time>2021-08-22T16:07:00.000Z</time>
      </trkpt>
      <trkpt lat="42.6654441654682159423828125" lon="0.0793975777924060821533203125">
        <ele>2067.800048828125</ele>
        <time>2021-08-22T16:07:11.000Z</time>
      </trkpt>
      <trkpt lat="42.66544525511562824249267578125" lon="0.07941509597003459930419921875">
        <ele>2067.39990234375</ele>
        <time>2021-08-22T16:07:19.000Z</time>
      </trkpt>
      <trkpt lat="42.665441147983074188232421875" lon="0.07953755557537078857421875">
        <ele>2061.199951171875</ele>
        <time>2021-08-22T16:07:59.000Z</time>
      </trkpt>
      <trkpt lat="42.66542748548090457916259765625" lon="0.07957644760608673095703125">
        <ele>2059</ele>
        <time>2021-08-22T16:08:12.000Z</time>
      </trkpt>
      <trkpt lat="42.66557064838707447052001953125" lon="0.0797962211072444915771484375">
        <ele>2042.800048828125</ele>
        <time>2021-08-22T16:09:45.000Z</time>
      </trkpt>
      <trkpt lat="42.6655700616538524627685546875" lon="0.07983335293829441070556640625">
        <ele>2040.5999755859375</ele>
        <time>2021-08-22T16:09:51.000Z</time>
      </trkpt>
      <trkpt lat="42.665571905672550201416015625" lon="0.0798468478024005889892578125">
        <ele>2039.800048828125</ele>
        <time>2021-08-22T16:09:54.000Z</time>
      </trkpt>
      <trkpt lat="42.6655851490795612335205078125" lon="0.0798646174371242523193359375">
        <ele>2038.4000244140625</ele>
        <time>2021-08-22T16:09:59.000Z</time>
      </trkpt>
      <trkpt lat="42.665572576224803924560546875" lon="0.07990040816366672515869140625">
        <ele>2036.5999755859375</ele>
        <time>2021-08-22T16:10:13.000Z</time>
      </trkpt>
      <trkpt lat="42.66557886265218257904052734375" lon="0.0799105502665042877197265625">
        <ele>2036.199951171875</ele>
        <time>2021-08-22T16:10:18.000Z</time>
      </trkpt>
      <trkpt lat="42.66559344716370105743408203125" lon="0.0799856521189212799072265625">
        <ele>2032.5999755859375</ele>
        <time>2021-08-22T16:10:35.000Z</time>
      </trkpt>
      <trkpt lat="42.66566368751227855682373046875" lon="0.07999562658369541168212890625">
        <ele>2026.5999755859375</ele>
        <time>2021-08-22T16:11:05.000Z</time>
      </trkpt>
      <trkpt lat="42.6656967960298061370849609375" lon="0.0799400545656681060791015625">
        <ele>2027.5999755859375</ele>
        <time>2021-08-22T16:11:31.000Z</time>
      </trkpt>
      <trkpt lat="42.66573250293731689453125" lon="0.0799336843192577362060546875">
        <ele>2026.199951171875</ele>
        <time>2021-08-22T16:12:05.000Z</time>
      </trkpt>
      <trkpt lat="42.66575857065618038177490234375" lon="0.079937539994716644287109375">
        <ele>2024.5999755859375</ele>
        <time>2021-08-22T16:12:14.000Z</time>
      </trkpt>
      <trkpt lat="42.66572755761444568634033203125" lon="0.0800693035125732421875">
        <ele>2017.5999755859375</ele>
        <time>2021-08-22T16:12:46.000Z</time>
      </trkpt>
      <trkpt lat="42.6657179184257984161376953125" lon="0.0801278091967105865478515625">
        <ele>2016</ele>
        <time>2021-08-22T16:12:59.000Z</time>
      </trkpt>
      <trkpt lat="42.66569972969591617584228515625" lon="0.0801556371152400970458984375">
        <ele>2016.4000244140625</ele>
        <time>2021-08-22T16:13:06.000Z</time>
      </trkpt>
      <trkpt lat="42.66571129672229290008544921875" lon="0.080189667642116546630859375">
        <ele>2014.5999755859375</ele>
        <time>2021-08-22T16:13:15.000Z</time>
      </trkpt>
      <trkpt lat="42.665710709989070892333984375" lon="0.0803162343800067901611328125">
        <ele>2009.199951171875</ele>
        <time>2021-08-22T16:14:17.000Z</time>
      </trkpt>
      <trkpt lat="42.665769048035144805908203125" lon="0.08044280111789703369140625">
        <ele>1997.4000244140625</ele>
        <time>2021-08-22T16:14:55.000Z</time>
      </trkpt>
      <trkpt lat="42.66586686484515666961669921875" lon="0.08038069121539592742919921875">
        <ele>1996.4000244140625</ele>
        <time>2021-08-22T16:15:22.000Z</time>
      </trkpt>
      <trkpt lat="42.665866948664188385009765625" lon="0.08049652911722660064697265625">
        <ele>1992</ele>
        <time>2021-08-22T16:15:55.000Z</time>
      </trkpt>
      <trkpt lat="42.66586468555033206939697265625" lon="0.0804966129362583160400390625">
        <ele>1992</ele>
        <time>2021-08-22T16:15:57.000Z</time>
      </trkpt>
      <trkpt lat="42.6658666133880615234375" lon="0.080502144992351531982421875">
        <ele>1991.5999755859375</ele>
        <time>2021-08-22T16:16:00.000Z</time>
      </trkpt>
      <trkpt lat="42.6658694632351398468017578125" lon="0.08050457574427127838134765625">
        <ele>1991.4000244140625</ele>
        <time>2021-08-22T16:16:07.000Z</time>
      </trkpt>
      <trkpt lat="42.66588530503213405609130859375" lon="0.0805871374905109405517578125">
        <ele>1987.4000244140625</ele>
        <time>2021-08-22T16:16:30.000Z</time>
      </trkpt>
      <trkpt lat="42.66587004996836185455322265625" lon="0.0806069187819957733154296875">
        <ele>1987</ele>
        <time>2021-08-22T16:16:33.000Z</time>
      </trkpt>
      <trkpt lat="42.66586485318839550018310546875" lon="0.0806312263011932373046875">
        <ele>1986.199951171875</ele>
        <time>2021-08-22T16:16:37.000Z</time>
      </trkpt>
      <trkpt lat="42.66585789620876312255859375" lon="0.080732144415378570556640625">
        <ele>1981.4000244140625</ele>
        <time>2021-08-22T16:17:28.000Z</time>
      </trkpt>
      <trkpt lat="42.66589134000241756439208984375" lon="0.08073474280536174774169921875">
        <ele>1981</ele>
        <time>2021-08-22T16:17:34.000Z</time>
      </trkpt>
      <trkpt lat="42.66590408049523830413818359375" lon="0.08074094541370868682861328125">
        <ele>1980.199951171875</ele>
        <time>2021-08-22T16:17:37.000Z</time>
      </trkpt>
      <trkpt lat="42.66592562198638916015625" lon="0.08073960430920124053955078125">
        <ele>1979.5999755859375</ele>
        <time>2021-08-22T16:17:41.000Z</time>
      </trkpt>
      <trkpt lat="42.66594246961176395416259765625" lon="0.08073206059634685516357421875">
        <ele>1979.199951171875</ele>
        <time>2021-08-22T16:17:49.000Z</time>
      </trkpt>
      <trkpt lat="42.66590760089457035064697265625" lon="0.08085452020168304443359375">
        <ele>1977.5999755859375</ele>
        <time>2021-08-22T16:18:17.000Z</time>
      </trkpt>
      <trkpt lat="42.6659073494374752044677734375" lon="0.08090221323072910308837890625">
        <ele>1976.5999755859375</ele>
        <time>2021-08-22T16:18:27.000Z</time>
      </trkpt>
      <trkpt lat="42.66604891978204250335693359375" lon="0.080904476344585418701171875">
        <ele>1969.4000244140625</ele>
        <time>2021-08-22T16:19:13.000Z</time>
      </trkpt>
      <trkpt lat="42.66605503857135772705078125" lon="0.0810310430824756622314453125">
        <ele>1968.199951171875</ele>
        <time>2021-08-22T16:19:34.000Z</time>
      </trkpt>
      <trkpt lat="42.6660531945526599884033203125" lon="0.0810431130230426788330078125">
        <ele>1968.5999755859375</ele>
        <time>2021-08-22T16:19:35.000Z</time>
      </trkpt>
      <trkpt lat="42.66605260781943798065185546875" lon="0.081058703362941741943359375">
        <ele>1969.199951171875</ele>
        <time>2021-08-22T16:19:37.000Z</time>
      </trkpt>
      <trkpt lat="42.666045986115932464599609375" lon="0.0810711085796356201171875">
        <ele>1969.800048828125</ele>
        <time>2021-08-22T16:19:39.000Z</time>
      </trkpt>
      <trkpt lat="42.66603416763246059417724609375" lon="0.08108862675726413726806640625">
        <ele>1971</ele>
        <time>2021-08-22T16:19:42.000Z</time>
      </trkpt>
      <trkpt lat="42.6660101115703582763671875" lon="0.08116624318063259124755859375">
        <ele>1971.199951171875</ele>
        <time>2021-08-22T16:19:50.000Z</time>
      </trkpt>
      <trkpt lat="42.6660005562007427215576171875" lon="0.08120379410684108734130859375">
        <ele>1969.199951171875</ele>
        <time>2021-08-22T16:19:58.000Z</time>
      </trkpt>
      <trkpt lat="42.666002400219440460205078125" lon="0.08126355707645416259765625">
        <ele>1966.5999755859375</ele>
        <time>2021-08-22T16:20:08.000Z</time>
      </trkpt>
      <trkpt lat="42.66597448848187923431396484375" lon="0.081334300339221954345703125">
        <ele>1961.5999755859375</ele>
        <time>2021-08-22T16:20:18.000Z</time>
      </trkpt>
      <trkpt lat="42.66596778295934200286865234375" lon="0.0814320333302021026611328125">
        <ele>1955.199951171875</ele>
        <time>2021-08-22T16:20:28.000Z</time>
      </trkpt>
      <trkpt lat="42.66595051623880863189697265625" lon="0.08165289647877216339111328125">
        <ele>1939.4000244140625</ele>
        <time>2021-08-22T16:20:51.000Z</time>
      </trkpt>
      <trkpt lat="42.66598605550825595855712890625" lon="0.08174375630915164947509765625">
        <ele>1934</ele>
        <time>2021-08-22T16:22:00.000Z</time>
      </trkpt>
      <trkpt lat="42.6659864746034145355224609375" lon="0.08174124173820018768310546875">
        <ele>1934.199951171875</ele>
        <time>2021-08-22T16:22:09.000Z</time>
      </trkpt>
      <trkpt lat="42.6659834571182727813720703125" lon="0.08173638023436069488525390625">
        <ele>1934.4000244140625</ele>
        <time>2021-08-22T16:22:15.000Z</time>
      </trkpt>
      <trkpt lat="42.66598270274698734283447265625" lon="0.08173403330147266387939453125">
        <ele>1934.5999755859375</ele>
        <time>2021-08-22T16:22:20.000Z</time>
      </trkpt>
      <trkpt lat="42.66598320566117763519287109375" lon="0.08173101581633090972900390625">
        <ele>1934.800048828125</ele>
        <time>2021-08-22T16:22:28.000Z</time>
      </trkpt>
      <trkpt lat="42.6662895642220973968505859375" lon="0.082700215280055999755859375">
        <ele>1886.199951171875</ele>
        <time>2021-08-22T16:32:30.000Z</time>
      </trkpt>
      <trkpt lat="42.66625343821942806243896484375" lon="0.0828767381608486175537109375">
        <ele>1876.5999755859375</ele>
        <time>2021-08-22T16:32:43.000Z</time>
      </trkpt>
      <trkpt lat="42.66625620424747467041015625" lon="0.08288637734949588775634765625">
        <ele>1875.5999755859375</ele>
        <time>2021-08-22T16:32:45.000Z</time>
      </trkpt>
      <trkpt lat="42.6662528514862060546875" lon="0.08290129713714122772216796875">
        <ele>1875</ele>
        <time>2021-08-22T16:32:47.000Z</time>
      </trkpt>
      <trkpt lat="42.6662449724972248077392578125" lon="0.08292342536151409149169921875">
        <ele>1874.4000244140625</ele>
        <time>2021-08-22T16:32:52.000Z</time>
      </trkpt>
      <trkpt lat="42.66624153591692447662353515625" lon="0.08293448947370052337646484375">
        <ele>1874.199951171875</ele>
        <time>2021-08-22T16:32:55.000Z</time>
      </trkpt>
      <trkpt lat="42.6662583835422992706298828125" lon="0.0829350762069225311279296875">
        <ele>1872.4000244140625</ele>
        <time>2021-08-22T16:32:58.000Z</time>
      </trkpt>
      <trkpt lat="42.666285373270511627197265625" lon="0.08295158855617046356201171875">
        <ele>1868.5999755859375</ele>
        <time>2021-08-22T16:33:06.000Z</time>
      </trkpt>
      <trkpt lat="42.6662852056324481964111328125" lon="0.08295812644064426422119140625">
        <ele>1868</ele>
        <time>2021-08-22T16:33:07.000Z</time>
      </trkpt>
      <trkpt lat="42.66628679819405078887939453125" lon="0.08297824300825595855712890625">
        <ele>1866.199951171875</ele>
        <time>2021-08-22T16:33:10.000Z</time>
      </trkpt>
      <trkpt lat="42.6662660948932170867919921875" lon="0.08300825022161006927490234375">
        <ele>1865.800048828125</ele>
        <time>2021-08-22T16:33:17.000Z</time>
      </trkpt>
      <trkpt lat="42.666253186762332916259765625" lon="0.08302249945700168609619140625">
        <ele>1865.800048828125</ele>
        <time>2021-08-22T16:33:24.000Z</time>
      </trkpt>
      <trkpt lat="42.66626668162643909454345703125" lon="0.0830695219337940216064453125">
        <ele>1861.4000244140625</ele>
        <time>2021-08-22T16:33:32.000Z</time>
      </trkpt>
      <trkpt lat="42.66626148484647274017333984375" lon="0.0830805860459804534912109375">
        <ele>1861.5999755859375</ele>
        <time>2021-08-22T16:33:34.000Z</time>
      </trkpt>
      <trkpt lat="42.666257880628108978271484375" lon="0.0830849446356296539306640625">
        <ele>1862</ele>
        <time>2021-08-22T16:33:35.000Z</time>
      </trkpt>
      <trkpt lat="42.6662520132958889007568359375" lon="0.0830956734716892242431640625">
        <ele>1862.4000244140625</ele>
        <time>2021-08-22T16:33:37.000Z</time>
      </trkpt>
      <trkpt lat="42.666250504553318023681640625" lon="0.08309911005198955535888671875">
        <ele>1862.4000244140625</ele>
        <time>2021-08-22T16:33:38.000Z</time>
      </trkpt>
      <trkpt lat="42.66624270938336849212646484375" lon="0.0831503234803676605224609375">
        <ele>1861.199951171875</ele>
        <time>2021-08-22T16:33:53.000Z</time>
      </trkpt>
      <trkpt lat="42.6662543602287769317626953125" lon="0.08317236788570880889892578125">
        <ele>1858.5999755859375</ele>
        <time>2021-08-22T16:34:00.000Z</time>
      </trkpt>
      <trkpt lat="42.6662704534828662872314453125" lon="0.08315644226968288421630859375">
        <ele>1857.199951171875</ele>
        <time>2021-08-22T16:34:06.000Z</time>
      </trkpt>
      <trkpt lat="42.66630322672426700592041015625" lon="0.0831359066069126129150390625">
        <ele>1853.5999755859375</ele>
        <time>2021-08-22T16:34:11.000Z</time>
      </trkpt>
      <trkpt lat="42.66632552258670330047607421875" lon="0.0831007026135921478271484375">
        <ele>1852.4000244140625</ele>
        <time>2021-08-22T16:34:18.000Z</time>
      </trkpt>
      <trkpt lat="42.66650221310555934906005859375" lon="0.0832517445087432861328125">
        <ele>1825.4000244140625</ele>
        <time>2021-08-22T16:36:27.000Z</time>
      </trkpt>
      <trkpt lat="42.66653783619403839111328125" lon="0.083223246037960052490234375">
        <ele>1825.5999755859375</ele>
        <time>2021-08-22T16:36:40.000Z</time>
      </trkpt>
      <trkpt lat="42.66664839349687099456787109375" lon="0.0832881219685077667236328125">
        <ele>1813.800048828125</ele>
        <time>2021-08-22T16:37:09.000Z</time>
      </trkpt>
      <trkpt lat="42.6666010357439517974853515625" lon="0.08354318328201770782470703125">
        <ele>1798</ele>
        <time>2021-08-22T16:37:44.000Z</time>
      </trkpt>
      <trkpt lat="42.6665061526000499725341796875" lon="0.083747617900371551513671875">
        <ele>1795</ele>
        <time>2021-08-22T16:38:41.000Z</time>
      </trkpt>
      <trkpt lat="42.66653255559504032135009765625" lon="0.08376765064895153045654296875">
        <ele>1792.5999755859375</ele>
        <time>2021-08-22T16:38:53.000Z</time>
      </trkpt>
      <trkpt lat="42.6664387620985507965087890625" lon="0.08390813134610652923583984375">
        <ele>1807.199951171875</ele>
        <time>2021-08-22T16:39:20.000Z</time>
      </trkpt>
      <trkpt lat="42.6663995347917079925537109375" lon="0.083920620381832122802734375">
        <ele>1809.800048828125</ele>
        <time>2021-08-22T16:39:24.000Z</time>
      </trkpt>
      <trkpt lat="42.66637028194963932037353515625" lon="0.0839249789714813232421875">
        <ele>1811.199951171875</ele>
        <time>2021-08-22T16:39:27.000Z</time>
      </trkpt>
      <trkpt lat="42.66634496860206127166748046875" lon="0.08391684852540493011474609375">
        <ele>1811.5999755859375</ele>
        <time>2021-08-22T16:39:30.000Z</time>
      </trkpt>
      <trkpt lat="42.66631655395030975341796875" lon="0.0839211232960224151611328125">
        <ele>1813</ele>
        <time>2021-08-22T16:39:33.000Z</time>
      </trkpt>
      <trkpt lat="42.66625679098069667816162109375" lon="0.08390243165194988250732421875">
        <ele>1812.199951171875</ele>
        <time>2021-08-22T16:39:39.000Z</time>
      </trkpt>
      <trkpt lat="42.6659804396331310272216796875" lon="0.08389270864427089691162109375">
        <ele>1818.199951171875</ele>
        <time>2021-08-22T16:40:20.000Z</time>
      </trkpt>
      <trkpt lat="42.66592034138739109039306640625" lon="0.083832442760467529296875">
        <ele>1820.4000244140625</ele>
        <time>2021-08-22T16:40:44.000Z</time>
      </trkpt>
      <trkpt lat="42.66585580073297023773193359375" lon="0.08381676860153675079345703125">
        <ele>1819.4000244140625</ele>
        <time>2021-08-22T16:40:52.000Z</time>
      </trkpt>
      <trkpt lat="42.66582797281444072723388671875" lon="0.0838042795658111572265625">
        <ele>1819.199951171875</ele>
        <time>2021-08-22T16:40:55.000Z</time>
      </trkpt>
      <trkpt lat="42.6658181659877300262451171875" lon="0.08380268700420856475830078125">
        <ele>1819</ele>
        <time>2021-08-22T16:40:56.000Z</time>
      </trkpt>
      <trkpt lat="42.66580919735133647918701171875" lon="0.08380101062357425689697265625">
        <ele>1818.800048828125</ele>
        <time>2021-08-22T16:40:57.000Z</time>
      </trkpt>
      <trkpt lat="42.66580333001911640167236328125" lon="0.0837990827858448028564453125">
        <ele>1818.5999755859375</ele>
        <time>2021-08-22T16:40:58.000Z</time>
      </trkpt>
      <trkpt lat="42.6657450757920742034912109375" lon="0.08377611637115478515625">
        <ele>1818</ele>
        <time>2021-08-22T16:41:11.000Z</time>
      </trkpt>
      <trkpt lat="42.665733508765697479248046875" lon="0.08376597426831722259521484375">
        <ele>1818.199951171875</ele>
        <time>2021-08-22T16:41:12.000Z</time>
      </trkpt>
      <trkpt lat="42.66572378575801849365234375" lon="0.08375055156648159027099609375">
        <ele>1818.5999755859375</ele>
        <time>2021-08-22T16:41:13.000Z</time>
      </trkpt>
      <trkpt lat="42.66571708023548126220703125" lon="0.08373596705496311187744140625">
        <ele>1819</ele>
        <time>2021-08-22T16:41:14.000Z</time>
      </trkpt>
      <trkpt lat="42.66569067724049091339111328125" lon="0.08369489572942256927490234375">
        <ele>1820.199951171875</ele>
        <time>2021-08-22T16:41:17.000Z</time>
      </trkpt>
      <trkpt lat="42.6656830497086048126220703125" lon="0.0836817361414432525634765625">
        <ele>1820.5999755859375</ele>
        <time>2021-08-22T16:41:18.000Z</time>
      </trkpt>
      <trkpt lat="42.66566385515034198760986328125" lon="0.0836218893527984619140625">
        <ele>1822.800048828125</ele>
        <time>2021-08-22T16:41:22.000Z</time>
      </trkpt>
      <trkpt lat="42.66563384793698787689208984375" lon="0.08356866426765918731689453125">
        <ele>1824.4000244140625</ele>
        <time>2021-08-22T16:41:32.000Z</time>
      </trkpt>
      <trkpt lat="42.66564005054533481597900390625" lon="0.08355282247066497802734375">
        <ele>1825.4000244140625</ele>
        <time>2021-08-22T16:41:42.000Z</time>
      </trkpt>
      <trkpt lat="42.66562052071094512939453125" lon="0.0835412554442882537841796875">
        <ele>1825.4000244140625</ele>
        <time>2021-08-22T16:41:47.000Z</time>
      </trkpt>
      <trkpt lat="42.665571905672550201416015625" lon="0.083522982895374298095703125">
        <ele>1824.5999755859375</ele>
        <time>2021-08-22T16:41:52.000Z</time>
      </trkpt>
      <trkpt lat="42.66553066670894622802734375" lon="0.0835000164806842803955078125">
        <ele>1824.4000244140625</ele>
        <time>2021-08-22T16:41:59.000Z</time>
      </trkpt>
      <trkpt lat="42.665520273149013519287109375" lon="0.08350160904228687286376953125">
        <ele>1824</ele>
        <time>2021-08-22T16:42:04.000Z</time>
      </trkpt>
      <trkpt lat="42.6654822193086147308349609375" lon="0.08346070535480976104736328125">
        <ele>1825.800048828125</ele>
        <time>2021-08-22T16:42:13.000Z</time>
      </trkpt>
      <trkpt lat="42.66548381187021732330322265625" lon="0.08345215581357479095458984375">
        <ele>1826.5999755859375</ele>
        <time>2021-08-22T16:42:21.000Z</time>
      </trkpt>
      <trkpt lat="42.665432430803775787353515625" lon="0.08328904397785663604736328125">
        <ele>1837.800048828125</ele>
        <time>2021-08-22T16:43:01.000Z</time>
      </trkpt>
      <trkpt lat="42.66537887044250965118408203125" lon="0.08318225853145122528076171875">
        <ele>1844.800048828125</ele>
        <time>2021-08-22T16:43:15.000Z</time>
      </trkpt>
      <trkpt lat="42.6653638668358325958251953125" lon="0.08314110338687896728515625">
        <ele>1848</ele>
        <time>2021-08-22T16:43:24.000Z</time>
      </trkpt>
      <trkpt lat="42.66534165479242801666259765625" lon="0.0831355713307857513427734375">
        <ele>1847.5999755859375</ele>
        <time>2021-08-22T16:43:47.000Z</time>
      </trkpt>
      <trkpt lat="42.66532815992832183837890625" lon="0.08316968567669391632080078125">
        <ele>1844.199951171875</ele>
        <time>2021-08-22T16:44:19.000Z</time>
      </trkpt>
      <trkpt lat="42.6652793772518634796142578125" lon="0.0832284428179264068603515625">
        <ele>1838.4000244140625</ele>
        <time>2021-08-22T16:44:30.000Z</time>
      </trkpt>
      <trkpt lat="42.66514736227691173553466796875" lon="0.08327714167535305023193359375">
        <ele>1832.199951171875</ele>
        <time>2021-08-22T16:44:57.000Z</time>
      </trkpt>
      <trkpt lat="42.66496078111231327056884765625" lon="0.0833699293434619903564453125">
        <ele>1823.800048828125</ele>
        <time>2021-08-22T16:45:43.000Z</time>
      </trkpt>
      <trkpt lat="42.66494653187692165374755859375" lon="0.08335425518453121185302734375">
        <ele>1824.800048828125</ele>
        <time>2021-08-22T16:45:51.000Z</time>
      </trkpt>
      <trkpt lat="42.664903365075588226318359375" lon="0.08341510780155658721923828125">
        <ele>1821.4000244140625</ele>
        <time>2021-08-22T16:47:02.000Z</time>
      </trkpt>
      <trkpt lat="42.6649048738181591033935546875" lon="0.08341359905898571014404296875">
        <ele>1821.4000244140625</ele>
        <time>2021-08-22T16:47:09.000Z</time>
      </trkpt>
      <trkpt lat="42.6649092324078083038330078125" lon="0.083411671221256256103515625">
        <ele>1821.4000244140625</ele>
        <time>2021-08-22T16:47:17.000Z</time>
      </trkpt>
      <trkpt lat="42.6649025268852710723876953125" lon="0.08342147804796695709228515625">
        <ele>1821</ele>
        <time>2021-08-22T16:47:21.000Z</time>
      </trkpt>
      <trkpt lat="42.6648948155343532562255859375" lon="0.08341913111507892608642578125">
        <ele>1821.199951171875</ele>
        <time>2021-08-22T16:47:27.000Z</time>
      </trkpt>
      <trkpt lat="42.6648441888391971588134765625" lon="0.08351082913577556610107421875">
        <ele>1817.4000244140625</ele>
        <time>2021-08-22T16:47:44.000Z</time>
      </trkpt>
      <trkpt lat="42.664847709238529205322265625" lon="0.08351669646799564361572265625">
        <ele>1817.199951171875</ele>
        <time>2021-08-22T16:47:56.000Z</time>
      </trkpt>
      <trkpt lat="42.66484410502016544342041015625" lon="0.0835157744586467742919921875">
        <ele>1817.4000244140625</ele>
        <time>2021-08-22T16:47:59.000Z</time>
      </trkpt>
      <trkpt lat="42.664826251566410064697265625" lon="0.0835120864212512969970703125">
        <ele>1817.5999755859375</ele>
        <time>2021-08-22T16:48:10.000Z</time>
      </trkpt>
      <trkpt lat="42.6648250780999660491943359375" lon="0.0835144333541393280029296875">
        <ele>1817.5999755859375</ele>
        <time>2021-08-22T16:48:14.000Z</time>
      </trkpt>
      <trkpt lat="42.6648257486522197723388671875" lon="0.08351636119186878204345703125">
        <ele>1817.5999755859375</ele>
        <time>2021-08-22T16:48:15.000Z</time>
      </trkpt>
      <trkpt lat="42.66482901759445667266845703125" lon="0.0835172832012176513671875">
        <ele>1817.4000244140625</ele>
        <time>2021-08-22T16:48:17.000Z</time>
      </trkpt>
      <trkpt lat="42.6648133434355258941650390625" lon="0.08358232676982879638671875">
        <ele>1816.4000244140625</ele>
        <time>2021-08-22T16:48:28.000Z</time>
      </trkpt>
      <trkpt lat="42.6647861860692501068115234375" lon="0.08360470645129680633544921875">
        <ele>1817</ele>
        <time>2021-08-22T16:48:38.000Z</time>
      </trkpt>
      <trkpt lat="42.66478844918310642242431640625" lon="0.08359699510037899017333984375">
        <ele>1817</ele>
        <time>2021-08-22T16:48:54.000Z</time>
      </trkpt>
      <trkpt lat="42.66477855853736400604248046875" lon="0.08358710445463657379150390625">
        <ele>1817.4000244140625</ele>
        <time>2021-08-22T16:49:03.000Z</time>
      </trkpt>
      <trkpt lat="42.66477235592901706695556640625" lon="0.08359380997717380523681640625">
        <ele>1817.4000244140625</ele>
        <time>2021-08-22T16:49:22.000Z</time>
      </trkpt>
      <trkpt lat="42.6647717691957950592041015625" lon="0.0835918821394443511962890625">
        <ele>1817.5999755859375</ele>
        <time>2021-08-22T16:49:23.000Z</time>
      </trkpt>
      <trkpt lat="42.66477202065289020538330078125" lon="0.083590708673000335693359375">
        <ele>1817.5999755859375</ele>
        <time>2021-08-22T16:49:24.000Z</time>
      </trkpt>
      <trkpt lat="42.6647724397480487823486328125" lon="0.08358903229236602783203125">
        <ele>1817.5999755859375</ele>
        <time>2021-08-22T16:49:25.000Z</time>
      </trkpt>
      <trkpt lat="42.6647700928151607513427734375" lon="0.08358844555914402008056640625">
        <ele>1817.5999755859375</ele>
        <time>2021-08-22T16:49:26.000Z</time>
      </trkpt>
      <trkpt lat="42.66471435315907001495361328125" lon="0.08372473530471324920654296875">
        <ele>1817.5999755859375</ele>
        <time>2021-08-22T16:50:06.000Z</time>
      </trkpt>
      <trkpt lat="42.6647067256271839141845703125" lon="0.08373244665563106536865234375">
        <ele>1817.4000244140625</ele>
        <time>2021-08-22T16:50:15.000Z</time>
      </trkpt>
      <trkpt lat="42.6646839268505573272705078125" lon="0.0837578438222408294677734375">
        <ele>1817</ele>
        <time>2021-08-22T16:50:25.000Z</time>
      </trkpt>
      <trkpt lat="42.6646742038428783416748046875" lon="0.08377335034310817718505859375">
        <ele>1816.5999755859375</ele>
        <time>2021-08-22T16:50:32.000Z</time>
      </trkpt>
      <trkpt lat="42.664656937122344970703125" lon="0.08381165564060211181640625">
        <ele>1815.4000244140625</ele>
        <time>2021-08-22T16:50:36.000Z</time>
      </trkpt>
      <trkpt lat="42.66465299762785434722900390625" lon="0.0838295929133892059326171875">
        <ele>1814.5999755859375</ele>
        <time>2021-08-22T16:50:39.000Z</time>
      </trkpt>
      <trkpt lat="42.6646188832819461822509765625" lon="0.08385817520320415496826171875">
        <ele>1814</ele>
        <time>2021-08-22T16:50:55.000Z</time>
      </trkpt>
      <trkpt lat="42.66459315083920955657958984375" lon="0.08387125097215175628662109375">
        <ele>1814</ele>
        <time>2021-08-22T16:51:03.000Z</time>
      </trkpt>
      <trkpt lat="42.66444437205791473388671875" lon="0.083980970084667205810546875">
        <ele>1818.199951171875</ele>
        <time>2021-08-22T16:51:41.000Z</time>
      </trkpt>
      <trkpt lat="42.66444311477243900299072265625" lon="0.08400418795645236968994140625">
        <ele>1817.800048828125</ele>
        <time>2021-08-22T16:51:44.000Z</time>
      </trkpt>
      <trkpt lat="42.6644408516585826873779296875" lon="0.084036625921726226806640625">
        <ele>1815.199951171875</ele>
        <time>2021-08-22T16:51:47.000Z</time>
      </trkpt>
      <trkpt lat="42.66441646032035350799560546875" lon="0.0840880908071994781494140625">
        <ele>1812.5999755859375</ele>
        <time>2021-08-22T16:51:56.000Z</time>
      </trkpt>
      <trkpt lat="42.66433842480182647705078125" lon="0.08415271528065204620361328125">
        <ele>1810.199951171875</ele>
        <time>2021-08-22T16:52:10.000Z</time>
      </trkpt>
      <trkpt lat="42.66433398239314556121826171875" lon="0.08415841497480869293212890625">
        <ele>1810</ele>
        <time>2021-08-22T16:52:11.000Z</time>
      </trkpt>
      <trkpt lat="42.6643295399844646453857421875" lon="0.08416612632572650909423828125">
        <ele>1809.5999755859375</ele>
        <time>2021-08-22T16:52:12.000Z</time>
      </trkpt>
      <trkpt lat="42.66432425938546657562255859375" lon="0.0841776095330715179443359375">
        <ele>1809.4000244140625</ele>
        <time>2021-08-22T16:52:13.000Z</time>
      </trkpt>
      <trkpt lat="42.6643000356853008270263671875" lon="0.0842200219631195068359375">
        <ele>1808.5999755859375</ele>
        <time>2021-08-22T16:52:17.000Z</time>
      </trkpt>
      <trkpt lat="42.664255611598491668701171875" lon="0.08430409245193004608154296875">
        <ele>1807</ele>
        <time>2021-08-22T16:52:28.000Z</time>
      </trkpt>
      <trkpt lat="42.6641350798308849334716796875" lon="0.0845219381153583526611328125">
        <ele>1797.4000244140625</ele>
        <time>2021-08-22T16:53:02.000Z</time>
      </trkpt>
      <trkpt lat="42.66412929631769657135009765625" lon="0.084644146263599395751953125">
        <ele>1790.800048828125</ele>
        <time>2021-08-22T16:53:46.000Z</time>
      </trkpt>
      <trkpt lat="42.66401697881519794464111328125" lon="0.08482687175273895263671875">
        <ele>1782</ele>
        <time>2021-08-22T16:54:25.000Z</time>
      </trkpt>
      <trkpt lat="42.6639956049621105194091796875" lon="0.0848682783544063568115234375">
        <ele>1781</ele>
        <time>2021-08-22T16:54:30.000Z</time>
      </trkpt>
      <trkpt lat="42.6639892347157001495361328125" lon="0.084876157343387603759765625">
        <ele>1781</ele>
        <time>2021-08-22T16:54:31.000Z</time>
      </trkpt>
      <trkpt lat="42.66398680396378040313720703125" lon="0.0848800130188465118408203125">
        <ele>1780.800048828125</ele>
        <time>2021-08-22T16:54:32.000Z</time>
      </trkpt>
      <trkpt lat="42.663971297442913055419921875" lon="0.08489216677844524383544921875">
        <ele>1780.4000244140625</ele>
        <time>2021-08-22T16:54:36.000Z</time>
      </trkpt>
      <trkpt lat="42.66396584920585155487060546875" lon="0.0848994590342044830322265625">
        <ele>1779.800048828125</ele>
        <time>2021-08-22T16:54:39.000Z</time>
      </trkpt>
      <trkpt lat="42.6639627479016780853271484375" lon="0.08489853702485561370849609375">
        <ele>1780</ele>
        <time>2021-08-22T16:54:41.000Z</time>
      </trkpt>
      <trkpt lat="42.66393282450735569000244140625" lon="0.084920413792133331298828125">
        <ele>1780.199951171875</ele>
        <time>2021-08-22T16:54:48.000Z</time>
      </trkpt>
      <trkpt lat="42.66379502601921558380126953125" lon="0.08510858751833438873291015625">
        <ele>1777</ele>
        <time>2021-08-22T16:55:30.000Z</time>
      </trkpt>
      <trkpt lat="42.6637924276292324066162109375" lon="0.08510841988027095794677734375">
        <ele>1777</ele>
        <time>2021-08-22T16:55:31.000Z</time>
      </trkpt>
      <trkpt lat="42.66378580592572689056396484375" lon="0.08511093445122241973876953125">
        <ele>1777.199951171875</ele>
        <time>2021-08-22T16:55:32.000Z</time>
      </trkpt>
      <trkpt lat="42.66378966160118579864501953125" lon="0.08511629886925220489501953125">
        <ele>1776.800048828125</ele>
        <time>2021-08-22T16:55:34.000Z</time>
      </trkpt>
      <trkpt lat="42.66367516480386257171630859375" lon="0.0851730443537235260009765625">
        <ele>1778.800048828125</ele>
        <time>2021-08-22T16:55:55.000Z</time>
      </trkpt>
      <trkpt lat="42.66362227499485015869140625" lon="0.085200704634189605712890625">
        <ele>1780.5999755859375</ele>
        <time>2021-08-22T16:56:02.000Z</time>
      </trkpt>
      <trkpt lat="42.66349964775145053863525390625" lon="0.085307657718658447265625">
        <ele>1783.199951171875</ele>
        <time>2021-08-22T16:56:20.000Z</time>
      </trkpt>
      <trkpt lat="42.66338313929736614227294921875" lon="0.08550547063350677490234375">
        <ele>1772.800048828125</ele>
        <time>2021-08-22T16:56:43.000Z</time>
      </trkpt>
      <trkpt lat="42.6633408106863498687744140625" lon="0.085625834763050079345703125">
        <ele>1770.800048828125</ele>
        <time>2021-08-22T16:56:58.000Z</time>
      </trkpt>
      <trkpt lat="42.663112320005893707275390625" lon="0.08611424826085567474365234375">
        <ele>1762.4000244140625</ele>
        <time>2021-08-22T16:57:47.000Z</time>
      </trkpt>
      <trkpt lat="42.66309362836182117462158203125" lon="0.0862814672291278839111328125">
        <ele>1756</ele>
        <time>2021-08-22T16:57:58.000Z</time>
      </trkpt>
      <trkpt lat="42.66309413127601146697998046875" lon="0.08634424768388271331787109375">
        <ele>1752.800048828125</ele>
        <time>2021-08-22T16:58:03.000Z</time>
      </trkpt>
      <trkpt lat="42.6631017588078975677490234375" lon="0.08636109530925750732421875">
        <ele>1751.5999755859375</ele>
        <time>2021-08-22T16:58:05.000Z</time>
      </trkpt>
      <trkpt lat="42.66310393810272216796875" lon="0.08638297207653522491455078125">
        <ele>1750.4000244140625</ele>
        <time>2021-08-22T16:58:07.000Z</time>
      </trkpt>
      <trkpt lat="42.6631081290543079376220703125" lon="0.08641582913696765899658203125">
        <ele>1748.4000244140625</ele>
        <time>2021-08-22T16:58:10.000Z</time>
      </trkpt>
      <trkpt lat="42.6631077937781810760498046875" lon="0.0864890031516551971435546875">
        <ele>1744.800048828125</ele>
        <time>2021-08-22T16:58:17.000Z</time>
      </trkpt>
      <trkpt lat="42.66300595365464687347412109375" lon="0.08671288378536701202392578125">
        <ele>1740.4000244140625</ele>
        <time>2021-08-22T16:58:39.000Z</time>
      </trkpt>
      <trkpt lat="42.66295314766466617584228515625" lon="0.086740292608737945556640625">
        <ele>1740.5999755859375</ele>
        <time>2021-08-22T16:59:06.000Z</time>
      </trkpt>
      <trkpt lat="42.6629300974309444427490234375" lon="0.08677105419337749481201171875">
        <ele>1739.199951171875</ele>
        <time>2021-08-22T16:59:28.000Z</time>
      </trkpt>
      <trkpt lat="42.66288391314446926116943359375" lon="0.0868164002895355224609375">
        <ele>1737.4000244140625</ele>
        <time>2021-08-22T16:59:41.000Z</time>
      </trkpt>
      <trkpt lat="42.662856839597225189208984375" lon="0.0868651829659938812255859375">
        <ele>1735.199951171875</ele>
        <time>2021-08-22T16:59:50.000Z</time>
      </trkpt>
      <trkpt lat="42.6628268323838710784912109375" lon="0.08690952323377132415771484375">
        <ele>1734.5999755859375</ele>
        <time>2021-08-22T16:59:59.000Z</time>
      </trkpt>
      <trkpt lat="42.66277578659355640411376953125" lon="0.0870502553880214691162109375">
        <ele>1733.4000244140625</ele>
        <time>2021-08-22T17:00:35.000Z</time>
      </trkpt>
      <trkpt lat="42.66275784932076930999755859375" lon="0.08707263506948947906494140625">
        <ele>1733.199951171875</ele>
        <time>2021-08-22T17:00:54.000Z</time>
      </trkpt>
      <trkpt lat="42.66274410299956798553466796875" lon="0.08701832033693790435791015625">
        <ele>1737.4000244140625</ele>
        <time>2021-08-22T17:01:23.000Z</time>
      </trkpt>
      <trkpt lat="42.66273714601993560791015625" lon="0.08701664395630359649658203125">
        <ele>1738</ele>
        <time>2021-08-22T17:01:34.000Z</time>
      </trkpt>
      <trkpt lat="42.662730105221271514892578125" lon="0.08701396174728870391845703125">
        <ele>1738.800048828125</ele>
        <time>2021-08-22T17:01:40.000Z</time>
      </trkpt>
      <trkpt lat="42.6626927219331264495849609375" lon="0.08698739111423492431640625">
        <ele>1742.800048828125</ele>
        <time>2021-08-22T17:01:52.000Z</time>
      </trkpt>
      <trkpt lat="42.66269196756184101104736328125" lon="0.086979009211063385009765625">
        <ele>1743.4000244140625</ele>
        <time>2021-08-22T17:01:55.000Z</time>
      </trkpt>
      <trkpt lat="42.66269691288471221923828125" lon="0.08698328398168087005615234375">
        <ele>1742.800048828125</ele>
        <time>2021-08-22T17:01:57.000Z</time>
      </trkpt>
      <trkpt lat="42.662691883742809295654296875" lon="0.08701278828084468841552734375">
        <ele>1741</ele>
        <time>2021-08-22T17:02:00.000Z</time>
      </trkpt>
      <trkpt lat="42.662687189877033233642578125" lon="0.08705704472959041595458984375">
        <ele>1738.199951171875</ele>
        <time>2021-08-22T17:02:03.000Z</time>
      </trkpt>
      <trkpt lat="42.662667073309421539306640625" lon="0.0871060788631439208984375">
        <ele>1736</ele>
        <time>2021-08-22T17:02:17.000Z</time>
      </trkpt>
      <trkpt lat="42.66265131533145904541015625" lon="0.087153352797031402587890625">
        <ele>1734.800048828125</ele>
        <time>2021-08-22T17:02:25.000Z</time>
      </trkpt>
      <trkpt lat="42.6626508124172687530517578125" lon="0.08716282434761524200439453125">
        <ele>1734.4000244140625</ele>
        <time>2021-08-22T17:02:27.000Z</time>
      </trkpt>
      <trkpt lat="42.6626528240740299224853515625" lon="0.08716818876564502716064453125">
        <ele>1734</ele>
        <time>2021-08-22T17:02:29.000Z</time>
      </trkpt>
      <trkpt lat="42.66266849823296070098876953125" lon="0.08717154152691364288330078125">
        <ele>1733</ele>
        <time>2021-08-22T17:02:32.000Z</time>
      </trkpt>
      <trkpt lat="42.66267411410808563232421875" lon="0.08716282434761524200439453125">
        <ele>1733</ele>
        <time>2021-08-22T17:02:35.000Z</time>
      </trkpt>
      <trkpt lat="42.66266229562461376190185546875" lon="0.0870995409786701202392578125">
        <ele>1736.800048828125</ele>
        <time>2021-08-22T17:02:51.000Z</time>
      </trkpt>
      <trkpt lat="42.66266833059489727020263671875" lon="0.08721730671823024749755859375">
        <ele>1730.800048828125</ele>
        <time>2021-08-22T17:03:13.000Z</time>
      </trkpt>
      <trkpt lat="42.66267302446067333221435546875" lon="0.087237171828746795654296875">
        <ele>1729.5999755859375</ele>
        <time>2021-08-22T17:03:54.000Z</time>
      </trkpt>
      <trkpt lat="42.662657015025615692138671875" lon="0.0872470624744892120361328125">
        <ele>1729.4000244140625</ele>
        <time>2021-08-22T17:04:01.000Z</time>
      </trkpt>
      <trkpt lat="42.662568502128124237060546875" lon="0.0874415226280689239501953125">
        <ele>1719</ele>
        <time>2021-08-22T17:04:27.000Z</time>
      </trkpt>
      <trkpt lat="42.6624754630029201507568359375" lon="0.08758510462939739227294921875">
        <ele>1714.4000244140625</ele>
        <time>2021-08-22T17:05:26.000Z</time>
      </trkpt>
      <trkpt lat="42.662457190454006195068359375" lon="0.0875779800117015838623046875">
        <ele>1715.800048828125</ele>
        <time>2021-08-22T17:05:42.000Z</time>
      </trkpt>
      <trkpt lat="42.662467248737812042236328125" lon="0.08765433914959430694580078125">
        <ele>1709.800048828125</ele>
        <time>2021-08-22T17:05:58.000Z</time>
      </trkpt>
      <trkpt lat="42.6624261774122714996337890625" lon="0.08766875602304935455322265625">
        <ele>1711</ele>
        <time>2021-08-22T17:06:10.000Z</time>
      </trkpt>
      <trkpt lat="42.6624255068600177764892578125" lon="0.08767403662204742431640625">
        <ele>1710.5999755859375</ele>
        <time>2021-08-22T17:06:11.000Z</time>
      </trkpt>
      <trkpt lat="42.66242466866970062255859375" lon="0.0876742042601108551025390625">
        <ele>1710.5999755859375</ele>
        <time>2021-08-22T17:06:12.000Z</time>
      </trkpt>
      <trkpt lat="42.66240698285400867462158203125" lon="0.08771183900535106658935546875">
        <ele>1708.5999755859375</ele>
        <time>2021-08-22T17:06:19.000Z</time>
      </trkpt>
      <trkpt lat="42.662401534616947174072265625" lon="0.087714605033397674560546875">
        <ele>1708.5999755859375</ele>
        <time>2021-08-22T17:06:20.000Z</time>
      </trkpt>
      <trkpt lat="42.66237764619290828704833984375" lon="0.087783001363277435302734375">
        <ele>1704.5999755859375</ele>
        <time>2021-08-22T17:06:33.000Z</time>
      </trkpt>
      <trkpt lat="42.6623896323144435882568359375" lon="0.08778677321970462799072265625">
        <ele>1703.5999755859375</ele>
        <time>2021-08-22T17:06:39.000Z</time>
      </trkpt>
      <trkpt lat="42.6623698510229587554931640625" lon="0.08778425864875316619873046875">
        <ele>1704.800048828125</ele>
        <time>2021-08-22T17:06:46.000Z</time>
      </trkpt>
      <trkpt lat="42.6623681746423244476318359375" lon="0.08778425864875316619873046875">
        <ele>1705</ele>
        <time>2021-08-22T17:06:47.000Z</time>
      </trkpt>
      <trkpt lat="42.66225032508373260498046875" lon="0.0878934748470783233642578125">
        <ele>1702.800048828125</ele>
        <time>2021-08-22T17:07:21.000Z</time>
      </trkpt>
      <trkpt lat="42.66224470920860767364501953125" lon="0.08789322338998317718505859375">
        <ele>1703.199951171875</ele>
        <time>2021-08-22T17:07:24.000Z</time>
      </trkpt>
      <trkpt lat="42.66223062761127948760986328125" lon="0.087908394634723663330078125">
        <ele>1703</ele>
        <time>2021-08-22T17:07:31.000Z</time>
      </trkpt>
      <trkpt lat="42.662093080580234527587890625" lon="0.0881962291896343231201171875">
        <ele>1692.800048828125</ele>
        <time>2021-08-22T17:08:57.000Z</time>
      </trkpt>
      <trkpt lat="42.66208947636187076568603515625" lon="0.0881925411522388458251953125">
        <ele>1693.4000244140625</ele>
        <time>2021-08-22T17:08:58.000Z</time>
      </trkpt>
      <trkpt lat="42.662086375057697296142578125" lon="0.08819438517093658447265625">
        <ele>1693.5999755859375</ele>
        <time>2021-08-22T17:08:59.000Z</time>
      </trkpt>
      <trkpt lat="42.662081010639667510986328125" lon="0.08819304406642913818359375">
        <ele>1694.199951171875</ele>
        <time>2021-08-22T17:09:01.000Z</time>
      </trkpt>
      <trkpt lat="42.66208595596253871917724609375" lon="0.0881563313305377960205078125">
        <ele>1696.199951171875</ele>
        <time>2021-08-22T17:09:04.000Z</time>
      </trkpt>
      <trkpt lat="42.66210422851145267486572265625" lon="0.08811115287244319915771484375">
        <ele>1697.5999755859375</ele>
        <time>2021-08-22T17:09:10.000Z</time>
      </trkpt>
      <trkpt lat="42.66209349967539310455322265625" lon="0.088104195892810821533203125">
        <ele>1699.199951171875</ele>
        <time>2021-08-22T17:09:19.000Z</time>
      </trkpt>
      <trkpt lat="42.66208863817155361175537109375" lon="0.0880641303956508636474609375">
        <ele>1702.4000244140625</ele>
        <time>2021-08-22T17:09:35.000Z</time>
      </trkpt>
      <trkpt lat="42.66212451271712779998779296875" lon="0.08804912678897380828857421875">
        <ele>1700.4000244140625</ele>
        <time>2021-08-22T17:09:45.000Z</time>
      </trkpt>
      <trkpt lat="42.66212786547839641571044921875" lon="0.08805482648313045501708984375">
        <ele>1699.5999755859375</ele>
        <time>2021-08-22T17:09:51.000Z</time>
      </trkpt>
      <trkpt lat="42.66212820075452327728271484375" lon="0.08805801160633563995361328125">
        <ele>1699.4000244140625</ele>
        <time>2021-08-22T17:09:57.000Z</time>
      </trkpt>
      <trkpt lat="42.6621207408607006072998046875" lon="0.088063292205333709716796875">
        <ele>1699.4000244140625</ele>
        <time>2021-08-22T17:10:07.000Z</time>
      </trkpt>
      <trkpt lat="42.66211847774684429168701171875" lon="0.088064968585968017578125">
        <ele>1699.5999755859375</ele>
        <time>2021-08-22T17:10:09.000Z</time>
      </trkpt>
      <trkpt lat="42.66211546026170253753662109375" lon="0.0880648009479045867919921875">
        <ele>1699.800048828125</ele>
        <time>2021-08-22T17:10:10.000Z</time>
      </trkpt>
      <trkpt lat="42.66210456378757953643798828125" lon="0.08807192556560039520263671875">
        <ele>1700.199951171875</ele>
        <time>2021-08-22T17:10:18.000Z</time>
      </trkpt>
      <trkpt lat="42.66210054047405719757080078125" lon="0.0880919583141803741455078125">
        <ele>1699.199951171875</ele>
        <time>2021-08-22T17:10:22.000Z</time>
      </trkpt>
      <trkpt lat="42.662107162177562713623046875" lon="0.088116936385631561279296875">
        <ele>1697</ele>
        <time>2021-08-22T17:10:38.000Z</time>
      </trkpt>
      <trkpt lat="42.66213960014283657073974609375" lon="0.08823788724839687347412109375">
        <ele>1685.800048828125</ele>
        <time>2021-08-22T17:11:17.000Z</time>
      </trkpt>
      <trkpt lat="42.6621307991445064544677734375" lon="0.08823269046843051910400390625">
        <ele>1686.800048828125</ele>
        <time>2021-08-22T17:11:20.000Z</time>
      </trkpt>
      <trkpt lat="42.66210909001529216766357421875" lon="0.08825800381600856781005859375">
        <ele>1687.199951171875</ele>
        <time>2021-08-22T17:11:36.000Z</time>
      </trkpt>
      <trkpt lat="42.66195771284401416778564453125" lon="0.0885318405926227569580078125">
        <ele>1681.5999755859375</ele>
        <time>2021-08-22T17:12:51.000Z</time>
      </trkpt>
      <trkpt lat="42.66197808086872100830078125" lon="0.08863016031682491302490234375">
        <ele>1673.4000244140625</ele>
        <time>2021-08-22T17:13:06.000Z</time>
      </trkpt>
      <trkpt lat="42.6619846187531948089599609375" lon="0.088638961315155029296875">
        <ele>1672.199951171875</ele>
        <time>2021-08-22T17:13:07.000Z</time>
      </trkpt>
      <trkpt lat="42.66198688186705112457275390625" lon="0.0886807031929492950439453125">
        <ele>1669.4000244140625</ele>
        <time>2021-08-22T17:13:13.000Z</time>
      </trkpt>
      <trkpt lat="42.661989144980907440185546875" lon="0.088697634637355804443359375">
        <ele>1668</ele>
        <time>2021-08-22T17:13:15.000Z</time>
      </trkpt>
      <trkpt lat="42.66198956407606601715087890625" lon="0.08871716447174549102783203125">
        <ele>1666.800048828125</ele>
        <time>2021-08-22T17:13:18.000Z</time>
      </trkpt>
      <trkpt lat="42.6619581319391727447509765625" lon="0.0887802802026271820068359375">
        <ele>1665</ele>
        <time>2021-08-22T17:13:28.000Z</time>
      </trkpt>
      <trkpt lat="42.6619142107665538787841796875" lon="0.08879176340997219085693359375">
        <ele>1667.199951171875</ele>
        <time>2021-08-22T17:13:42.000Z</time>
      </trkpt>
      <trkpt lat="42.66189870424568653106689453125" lon="0.088833756744861602783203125">
        <ele>1665</ele>
        <time>2021-08-22T17:14:14.000Z</time>
      </trkpt>
      <trkpt lat="42.66189266927540302276611328125" lon="0.08884222246706485748291015625">
        <ele>1664.800048828125</ele>
        <time>2021-08-22T17:14:19.000Z</time>
      </trkpt>
      <trkpt lat="42.6619145460426807403564453125" lon="0.08886787109076976776123046875">
        <ele>1661</ele>
        <time>2021-08-22T17:14:35.000Z</time>
      </trkpt>
      <trkpt lat="42.6619145460426807403564453125" lon="0.0888627581298351287841796875">
        <ele>1661.4000244140625</ele>
        <time>2021-08-22T17:14:40.000Z</time>
      </trkpt>
      <trkpt lat="42.66191429458558559417724609375" lon="0.08886334486305713653564453125">
        <ele>1661.4000244140625</ele>
        <time>2021-08-22T17:14:49.000Z</time>
      </trkpt>
      <trkpt lat="42.66189836896955966949462890625" lon="0.088914893567562103271484375">
        <ele>1658.199951171875</ele>
        <time>2021-08-22T17:15:05.000Z</time>
      </trkpt>
      <trkpt lat="42.66190675087273120880126953125" lon="0.08893375284969806671142578125">
        <ele>1656</ele>
        <time>2021-08-22T17:15:10.000Z</time>
      </trkpt>
      <trkpt lat="42.66190968453884124755859375" lon="0.08893978781998157501220703125">
        <ele>1655.4000244140625</ele>
        <time>2021-08-22T17:15:13.000Z</time>
      </trkpt>
      <trkpt lat="42.66191010363399982452392578125" lon="0.08893995545804500579833984375">
        <ele>1655.4000244140625</ele>
        <time>2021-08-22T17:15:15.000Z</time>
      </trkpt>
      <trkpt lat="42.66192032955586910247802734375" lon="0.08895613253116607666015625">
        <ele>1653.199951171875</ele>
        <time>2021-08-22T17:15:24.000Z</time>
      </trkpt>
      <trkpt lat="42.661921083927154541015625" lon="0.08895822800695896148681640625">
        <ele>1653</ele>
        <time>2021-08-22T17:15:27.000Z</time>
      </trkpt>
      <trkpt lat="42.66193290241062641143798828125" lon="0.0889613293111324310302734375">
        <ele>1651.800048828125</ele>
        <time>2021-08-22T17:15:32.000Z</time>
      </trkpt>
      <trkpt lat="42.66193776391446590423583984375" lon="0.08896443061530590057373046875">
        <ele>1651.199951171875</ele>
        <time>2021-08-22T17:15:34.000Z</time>
      </trkpt>
      <trkpt lat="42.66194094903767108917236328125" lon="0.0889640115201473236083984375">
        <ele>1651</ele>
        <time>2021-08-22T17:15:36.000Z</time>
      </trkpt>
      <trkpt lat="42.66192846000194549560546875" lon="0.08899779058992862701416015625">
        <ele>1649.199951171875</ele>
        <time>2021-08-22T17:15:43.000Z</time>
      </trkpt>
      <trkpt lat="42.6617733947932720184326171875" lon="0.089313201606273651123046875">
        <ele>1630</ele>
        <time>2021-08-22T17:17:44.000Z</time>
      </trkpt>
      <trkpt lat="42.66175906173884868621826171875" lon="0.08940649218857288360595703125">
        <ele>1623</ele>
        <time>2021-08-22T17:17:58.000Z</time>
      </trkpt>
      <trkpt lat="42.66175604425370693206787109375" lon="0.089409761130809783935546875">
        <ele>1622.800048828125</ele>
        <time>2021-08-22T17:17:59.000Z</time>
      </trkpt>
      <trkpt lat="42.66175118274986743927001953125" lon="0.08941235952079296112060546875">
        <ele>1622.4000244140625</ele>
        <time>2021-08-22T17:18:01.000Z</time>
      </trkpt>
      <trkpt lat="42.6617453992366790771484375" lon="0.0894209928810596466064453125">
        <ele>1621.5999755859375</ele>
        <time>2021-08-22T17:18:04.000Z</time>
      </trkpt>
      <trkpt lat="42.66174313612282276153564453125" lon="0.08942493237555027008056640625">
        <ele>1621.199951171875</ele>
        <time>2021-08-22T17:18:05.000Z</time>
      </trkpt>
      <trkpt lat="42.66173810698091983795166015625" lon="0.08942778222262859344482421875">
        <ele>1621</ele>
        <time>2021-08-22T17:18:06.000Z</time>
      </trkpt>
      <trkpt lat="42.66173341311514377593994140625" lon="0.08942945860326290130615234375">
        <ele>1620.800048828125</ele>
        <time>2021-08-22T17:18:07.000Z</time>
      </trkpt>
      <trkpt lat="42.66171254217624664306640625" lon="0.08944923989474773406982421875">
        <ele>1618.800048828125</ele>
        <time>2021-08-22T17:18:14.000Z</time>
      </trkpt>
      <trkpt lat="42.6617080159485340118408203125" lon="0.08945041336119174957275390625">
        <ele>1619</ele>
        <time>2021-08-22T17:18:16.000Z</time>
      </trkpt>
      <trkpt lat="42.66169510781764984130859375" lon="0.0894905626773834228515625">
        <ele>1616</ele>
        <time>2021-08-22T17:18:24.000Z</time>
      </trkpt>
      <trkpt lat="42.661670632660388946533203125" lon="0.0894957594573497772216796875">
        <ele>1617</ele>
        <time>2021-08-22T17:18:44.000Z</time>
      </trkpt>
      <trkpt lat="42.66167004592716693878173828125" lon="0.0894910655915737152099609375">
        <ele>1617.5999755859375</ele>
        <time>2021-08-22T17:18:48.000Z</time>
      </trkpt>
      <trkpt lat="42.66166065819561481475830078125" lon="0.0894779898226261138916015625">
        <ele>1619.4000244140625</ele>
        <time>2021-08-22T17:18:53.000Z</time>
      </trkpt>
      <trkpt lat="42.66162000596523284912109375" lon="0.08956138975918292999267578125">
        <ele>1613.800048828125</ele>
        <time>2021-08-22T17:19:04.000Z</time>
      </trkpt>
      <trkpt lat="42.66159343533217906951904296875" lon="0.08958569727838039398193359375">
        <ele>1613</ele>
        <time>2021-08-22T17:19:15.000Z</time>
      </trkpt>
      <trkpt lat="42.66159720718860626220703125" lon="0.089599527418613433837890625">
        <ele>1611.4000244140625</ele>
        <time>2021-08-22T17:19:23.000Z</time>
      </trkpt>
      <trkpt lat="42.6615950278937816619873046875" lon="0.08960120379924774169921875">
        <ele>1611.4000244140625</ele>
        <time>2021-08-22T17:19:24.000Z</time>
      </trkpt>
      <trkpt lat="42.66159452497959136962890625" lon="0.089602880179882049560546875">
        <ele>1611.199951171875</ele>
        <time>2021-08-22T17:19:25.000Z</time>
      </trkpt>
      <trkpt lat="42.66161405481398105621337890625" lon="0.0896090827882289886474609375">
        <ele>1609.5999755859375</ele>
        <time>2021-08-22T17:19:31.000Z</time>
      </trkpt>
      <trkpt lat="42.6616184972226619720458984375" lon="0.08960480801761150360107421875">
        <ele>1609.5999755859375</ele>
        <time>2021-08-22T17:19:34.000Z</time>
      </trkpt>
      <trkpt lat="42.6616174913942813873291015625" lon="0.08959659375250339508056640625">
        <ele>1610.5999755859375</ele>
        <time>2021-08-22T17:19:38.000Z</time>
      </trkpt>
      <trkpt lat="42.66161791048943996429443359375" lon="0.0895933248102664947509765625">
        <ele>1610.800048828125</ele>
        <time>2021-08-22T17:19:40.000Z</time>
      </trkpt>
      <trkpt lat="42.6616228558123111724853515625" lon="0.089592151343822479248046875">
        <ele>1610.5999755859375</ele>
        <time>2021-08-22T17:19:41.000Z</time>
      </trkpt>
      <trkpt lat="42.66162428073585033416748046875" lon="0.0895919837057590484619140625">
        <ele>1610.5999755859375</ele>
        <time>2021-08-22T17:19:42.000Z</time>
      </trkpt>
      <trkpt lat="42.66162495128810405731201171875" lon="0.08959114551544189453125">
        <ele>1610.5999755859375</ele>
        <time>2021-08-22T17:19:43.000Z</time>
      </trkpt>
      <trkpt lat="42.66162713058292865753173828125" lon="0.08958955295383930206298828125">
        <ele>1610.5999755859375</ele>
        <time>2021-08-22T17:19:44.000Z</time>
      </trkpt>
      <trkpt lat="42.66163165681064128875732421875" lon="0.08959810249507427215576171875">
        <ele>1609.5999755859375</ele>
        <time>2021-08-22T17:19:47.000Z</time>
      </trkpt>
      <trkpt lat="42.66162134706974029541015625" lon="0.08959894068539142608642578125">
        <ele>1610.199951171875</ele>
        <time>2021-08-22T17:19:52.000Z</time>
      </trkpt>
      <trkpt lat="42.6616141386330127716064453125" lon="0.08959273807704448699951171875">
        <ele>1611.199951171875</ele>
        <time>2021-08-22T17:19:54.000Z</time>
      </trkpt>
      <trkpt lat="42.6615873165428638458251953125" lon="0.08959005586802959442138671875">
        <ele>1613</ele>
        <time>2021-08-22T17:20:05.000Z</time>
      </trkpt>
      <trkpt lat="42.66151003539562225341796875" lon="0.08972131647169589996337890625">
        <ele>1610.5999755859375</ele>
        <time>2021-08-22T17:20:35.000Z</time>
      </trkpt>
      <trkpt lat="42.6615065149962902069091796875" lon="0.0897351466119289398193359375">
        <ele>1609.800048828125</ele>
        <time>2021-08-22T17:20:39.000Z</time>
      </trkpt>
      <trkpt lat="42.66149788163602352142333984375" lon="0.0897569395601749420166015625">
        <ele>1608.4000244140625</ele>
        <time>2021-08-22T17:20:43.000Z</time>
      </trkpt>
      <trkpt lat="42.6614803634583950042724609375" lon="0.089769847691059112548828125">
        <ele>1608</ele>
        <time>2021-08-22T17:20:51.000Z</time>
      </trkpt>
      <trkpt lat="42.66149939037859439849853515625" lon="0.0898327119648456573486328125">
        <ele>1603.199951171875</ele>
        <time>2021-08-22T17:21:11.000Z</time>
      </trkpt>
      <trkpt lat="42.66150374896824359893798828125" lon="0.0898645631968975067138671875">
        <ele>1601</ele>
        <time>2021-08-22T17:21:23.000Z</time>
      </trkpt>
      <trkpt lat="42.66142479144036769866943359375" lon="0.09008123539388179779052734375">
        <ele>1595.199951171875</ele>
        <time>2021-08-22T17:22:46.000Z</time>
      </trkpt>
      <trkpt lat="42.66143820248544216156005859375" lon="0.0900875218212604522705078125">
        <ele>1594.4000244140625</ele>
        <time>2021-08-22T17:22:55.000Z</time>
      </trkpt>
      <trkpt lat="42.66144289635121822357177734375" lon="0.0901772081851959228515625">
        <ele>1591.4000244140625</ele>
        <time>2021-08-22T17:23:08.000Z</time>
      </trkpt>
      <trkpt lat="42.6613626815378665924072265625" lon="0.090388096868991851806640625">
        <ele>1584.5999755859375</ele>
        <time>2021-08-22T17:23:47.000Z</time>
      </trkpt>
      <trkpt lat="42.66133041121065616607666015625" lon="0.09048725478351116180419921875">
        <ele>1580</ele>
        <time>2021-08-22T17:24:12.000Z</time>
      </trkpt>
      <trkpt lat="42.661332003772258758544921875" lon="0.09048809297382831573486328125">
        <ele>1580</ele>
        <time>2021-08-22T17:24:14.000Z</time>
      </trkpt>
      <trkpt lat="42.66132990829646587371826171875" lon="0.09047971107065677642822265625">
        <ele>1580.4000244140625</ele>
        <time>2021-08-22T17:24:16.000Z</time>
      </trkpt>
      <trkpt lat="42.6613264717161655426025390625" lon="0.0904764421284198760986328125">
        <ele>1580.5999755859375</ele>
        <time>2021-08-22T17:24:17.000Z</time>
      </trkpt>
      <trkpt lat="42.66132538206875324249267578125" lon="0.090475268661975860595703125">
        <ele>1580.5999755859375</ele>
        <time>2021-08-22T17:24:18.000Z</time>
      </trkpt>
      <trkpt lat="42.66132487915456295013427734375" lon="0.0904937088489532470703125">
        <ele>1579.800048828125</ele>
        <time>2021-08-22T17:24:26.000Z</time>
      </trkpt>
      <trkpt lat="42.661327980458736419677734375" lon="0.09049530141055583953857421875">
        <ele>1579.5999755859375</ele>
        <time>2021-08-22T17:24:27.000Z</time>
      </trkpt>
      <trkpt lat="42.66132940538227558135986328125" lon="0.0904965586960315704345703125">
        <ele>1579.5999755859375</ele>
        <time>2021-08-22T17:24:28.000Z</time>
      </trkpt>
      <trkpt lat="42.66133342869579792022705078125" lon="0.0905022583901882171630859375">
        <ele>1579.199951171875</ele>
        <time>2021-08-22T17:24:31.000Z</time>
      </trkpt>
      <trkpt lat="42.66133560799062252044677734375" lon="0.09049915708601474761962890625">
        <ele>1579.4000244140625</ele>
        <time>2021-08-22T17:24:35.000Z</time>
      </trkpt>
      <trkpt lat="42.66134650446474552154541015625" lon="0.090485997498035430908203125">
        <ele>1579.800048828125</ele>
        <time>2021-08-22T17:24:39.000Z</time>
      </trkpt>
      <trkpt lat="42.66135136596858501434326171875" lon="0.0904978998005390167236328125">
        <ele>1579.199951171875</ele>
        <time>2021-08-22T17:24:41.000Z</time>
      </trkpt>
      <trkpt lat="42.661380954086780548095703125" lon="0.090512819588184356689453125">
        <ele>1578.199951171875</ele>
        <time>2021-08-22T17:24:44.000Z</time>
      </trkpt>
      <trkpt lat="42.66138724051415920257568359375" lon="0.0905126519501209259033203125">
        <ele>1578.199951171875</ele>
        <time>2021-08-22T17:24:45.000Z</time>
      </trkpt>
      <trkpt lat="42.66138799488544464111328125" lon="0.09055665694177150726318359375">
        <ele>1576.199951171875</ele>
        <time>2021-08-22T17:24:57.000Z</time>
      </trkpt>
      <trkpt lat="42.66138757579028606414794921875" lon="0.0905656255781650543212890625">
        <ele>1575.800048828125</ele>
        <time>2021-08-22T17:24:59.000Z</time>
      </trkpt>
      <trkpt lat="42.66139059327542781829833984375" lon="0.09056772105395793914794921875">
        <ele>1575.5999755859375</ele>
        <time>2021-08-22T17:25:00.000Z</time>
      </trkpt>
      <trkpt lat="42.661379277706146240234375" lon="0.09059202857315540313720703125">
        <ele>1574.5999755859375</ele>
        <time>2021-08-22T17:25:06.000Z</time>
      </trkpt>
      <trkpt lat="42.6613834686577320098876953125" lon="0.09060141630470752716064453125">
        <ele>1574</ele>
        <time>2021-08-22T17:25:08.000Z</time>
      </trkpt>
      <trkpt lat="42.661379612982273101806640625" lon="0.09064231999218463897705078125">
        <ele>1572.199951171875</ele>
        <time>2021-08-22T17:25:13.000Z</time>
      </trkpt>
      <trkpt lat="42.6613757573068141937255859375" lon="0.09065120480954647064208984375">
        <ele>1571.800048828125</ele>
        <time>2021-08-22T17:25:14.000Z</time>
      </trkpt>
      <trkpt lat="42.66137399710714817047119140625" lon="0.0906554795801639556884765625">
        <ele>1571.5999755859375</ele>
        <time>2021-08-22T17:25:15.000Z</time>
      </trkpt>
      <trkpt lat="42.661371566355228424072265625" lon="0.09065975435078144073486328125">
        <ele>1571.4000244140625</ele>
        <time>2021-08-22T17:25:17.000Z</time>
      </trkpt>
      <trkpt lat="42.66137030906975269317626953125" lon="0.090673752129077911376953125">
        <ele>1570.800048828125</ele>
        <time>2021-08-22T17:25:20.000Z</time>
      </trkpt>
      <trkpt lat="42.6613328419625759124755859375" lon="0.0907051004469394683837890625">
        <ele>1570</ele>
        <time>2021-08-22T17:26:05.000Z</time>
      </trkpt>
      <trkpt lat="42.6611635275185108184814453125" lon="0.09098145179450511932373046875">
        <ele>1560.5999755859375</ele>
        <time>2021-08-22T17:27:46.000Z</time>
      </trkpt>
      <trkpt lat="42.661161012947559356689453125" lon="0.0910081900656223297119140625">
        <ele>1559.5999755859375</ele>
        <time>2021-08-22T17:27:54.000Z</time>
      </trkpt>
      <trkpt lat="42.66123536042869091033935546875" lon="0.09106778539717197418212890625">
        <ele>1556</ele>
        <time>2021-08-22T17:28:18.000Z</time>
      </trkpt>
      <trkpt lat="42.661152295768260955810546875" lon="0.09113098494708538055419921875">
        <ele>1556.800048828125</ele>
        <time>2021-08-22T17:28:43.000Z</time>
      </trkpt>
      <trkpt lat="42.661022879183292388916015625" lon="0.0913280434906482696533203125">
        <ele>1552.800048828125</ele>
        <time>2021-08-22T17:29:12.000Z</time>
      </trkpt>
      <trkpt lat="42.66093914397060871124267578125" lon="0.09142552502453327178955078125">
        <ele>1550.199951171875</ele>
        <time>2021-08-22T17:30:15.000Z</time>
      </trkpt>
      <trkpt lat="42.66096261329948902130126953125" lon="0.09156583808362483978271484375">
        <ele>1544.199951171875</ele>
        <time>2021-08-22T17:31:09.000Z</time>
      </trkpt>
      <trkpt lat="42.660881392657756805419921875" lon="0.091682262718677520751953125">
        <ele>1538.5999755859375</ele>
        <time>2021-08-22T17:31:55.000Z</time>
      </trkpt>
      <trkpt lat="42.6608383096754550933837890625" lon="0.09176365099847316741943359375">
        <ele>1534.5999755859375</ele>
        <time>2021-08-22T17:32:23.000Z</time>
      </trkpt>
      <trkpt lat="42.66080721281468868255615234375" lon="0.09196498431265354156494140625">
        <ele>1524.5999755859375</ele>
        <time>2021-08-22T17:33:25.000Z</time>
      </trkpt>
      <trkpt lat="42.66080386005342006683349609375" lon="0.0920820794999599456787109375">
        <ele>1517.800048828125</ele>
        <time>2021-08-22T17:33:51.000Z</time>
      </trkpt>
      <trkpt lat="42.66081173904240131378173828125" lon="0.09220269508659839630126953125">
        <ele>1512</ele>
        <time>2021-08-22T17:34:19.000Z</time>
      </trkpt>
      <trkpt lat="42.66075071878731250762939453125" lon="0.0923000089824199676513671875">
        <ele>1508.199951171875</ele>
        <time>2021-08-22T17:34:34.000Z</time>
      </trkpt>
      <trkpt lat="42.66070981509983539581298828125" lon="0.09233512915670871734619140625">
        <ele>1507.4000244140625</ele>
        <time>2021-08-22T17:34:40.000Z</time>
      </trkpt>
      <trkpt lat="42.66068634577095508575439453125" lon="0.09242682717740535736083984375">
        <ele>1505</ele>
        <time>2021-08-22T17:34:48.000Z</time>
      </trkpt>
      <trkpt lat="42.66067209653556346893310546875" lon="0.09244644083082675933837890625">
        <ele>1504.800048828125</ele>
        <time>2021-08-22T17:34:51.000Z</time>
      </trkpt>
      <trkpt lat="42.6606190390884876251220703125" lon="0.09266830980777740478515625">
        <ele>1503.4000244140625</ele>
        <time>2021-08-22T17:35:13.000Z</time>
      </trkpt>
      <trkpt lat="42.6605865173041820526123046875" lon="0.092704854905605316162109375">
        <ele>1503.5999755859375</ele>
        <time>2021-08-22T17:35:19.000Z</time>
      </trkpt>
      <trkpt lat="42.66055089421570301055908203125" lon="0.09271214716136455535888671875">
        <ele>1504.5999755859375</ele>
        <time>2021-08-22T17:35:23.000Z</time>
      </trkpt>
      <trkpt lat="42.660505212843418121337890625" lon="0.092700161039829254150390625">
        <ele>1506</ele>
        <time>2021-08-22T17:35:27.000Z</time>
      </trkpt>
      <trkpt lat="42.66043086536228656768798828125" lon="0.09270259179174900054931640625">
        <ele>1508.199951171875</ele>
        <time>2021-08-22T17:35:38.000Z</time>
      </trkpt>
      <trkpt lat="42.66042717732489109039306640625" lon="0.09271097369492053985595703125">
        <ele>1508.199951171875</ele>
        <time>2021-08-22T17:35:47.000Z</time>
      </trkpt>
      <trkpt lat="42.660401947796344757080078125" lon="0.092790015041828155517578125">
        <ele>1508</ele>
        <time>2021-08-22T17:36:11.000Z</time>
      </trkpt>
      <trkpt lat="42.6603774726390838623046875" lon="0.09280937723815441131591796875">
        <ele>1508.800048828125</ele>
        <time>2021-08-22T17:36:18.000Z</time>
      </trkpt>
      <trkpt lat="42.66036598943173885345458984375" lon="0.09296276606619358062744140625">
        <ele>1507.5999755859375</ele>
        <time>2021-08-22T17:36:56.000Z</time>
      </trkpt>
      <trkpt lat="42.66036867164075374603271484375" lon="0.0929517857730388641357421875">
        <ele>1507.800048828125</ele>
        <time>2021-08-22T17:36:58.000Z</time>
      </trkpt>
      <trkpt lat="42.660376131534576416015625" lon="0.09293577633798122406005859375">
        <ele>1508</ele>
        <time>2021-08-22T17:37:01.000Z</time>
      </trkpt>
      <trkpt lat="42.66037805937230587005615234375" lon="0.09292974136769771575927734375">
        <ele>1507.800048828125</ele>
        <time>2021-08-22T17:37:03.000Z</time>
      </trkpt>
      <trkpt lat="42.660378478467464447021484375" lon="0.09291733615100383758544921875">
        <ele>1508</ele>
        <time>2021-08-22T17:37:06.000Z</time>
      </trkpt>
      <trkpt lat="42.660369090735912322998046875" lon="0.09289369918406009674072265625">
        <ele>1508.4000244140625</ele>
        <time>2021-08-22T17:37:11.000Z</time>
      </trkpt>
      <trkpt lat="42.660363726317882537841796875" lon="0.09288028813898563385009765625">
        <ele>1508.800048828125</ele>
        <time>2021-08-22T17:37:18.000Z</time>
      </trkpt>
      <trkpt lat="42.66037135384976863861083984375" lon="0.09291046299040317535400390625">
        <ele>1508.199951171875</ele>
        <time>2021-08-22T17:37:31.000Z</time>
      </trkpt>
      <trkpt lat="42.66037856228649616241455078125" lon="0.09292446076869964599609375">
        <ele>1508</ele>
        <time>2021-08-22T17:37:36.000Z</time>
      </trkpt>
      <trkpt lat="42.660393230617046356201171875" lon="0.0929299928247928619384765625">
        <ele>1507.199951171875</ele>
        <time>2021-08-22T17:37:41.000Z</time>
      </trkpt>
      <trkpt lat="42.66042214818298816680908203125" lon="0.0929439067840576171875">
        <ele>1506</ele>
        <time>2021-08-22T17:37:46.000Z</time>
      </trkpt>
      <trkpt lat="42.6604279316961765289306640625" lon="0.09295538999140262603759765625">
        <ele>1505.4000244140625</ele>
        <time>2021-08-22T17:37:50.000Z</time>
      </trkpt>
      <trkpt lat="42.66040764749050140380859375" lon="0.09298020042479038238525390625">
        <ele>1505.4000244140625</ele>
        <time>2021-08-22T17:37:59.000Z</time>
      </trkpt>
      <trkpt lat="42.6603980921208858489990234375" lon="0.09297399781644344329833984375">
        <ele>1506</ele>
        <time>2021-08-22T17:38:04.000Z</time>
      </trkpt>
      <trkpt lat="42.6604088209569454193115234375" lon="0.09310291148722171783447265625">
        <ele>1502.4000244140625</ele>
        <time>2021-08-22T17:38:16.000Z</time>
      </trkpt>
      <trkpt lat="42.6605223119258880615234375" lon="0.09345981292426586151123046875">
        <ele>1490.4000244140625</ele>
        <time>2021-08-22T17:39:13.000Z</time>
      </trkpt>
      <trkpt lat="42.6606052927672863006591796875" lon="0.0935924984514713287353515625">
        <ele>1484.4000244140625</ele>
        <time>2021-08-22T17:39:40.000Z</time>
      </trkpt>
      <trkpt lat="42.66062431968748569488525390625" lon="0.093669109046459197998046875">
        <ele>1483</ele>
        <time>2021-08-22T17:39:45.000Z</time>
      </trkpt>
      <trkpt lat="42.66062867827713489532470703125" lon="0.09373423643410205841064453125">
        <ele>1482.5999755859375</ele>
        <time>2021-08-22T17:39:49.000Z</time>
      </trkpt>
      <trkpt lat="42.66070780344307422637939453125" lon="0.0938892178237438201904296875">
        <ele>1477.4000244140625</ele>
        <time>2021-08-22T17:40:07.000Z</time>
      </trkpt>
      <trkpt lat="42.660773098468780517578125" lon="0.09399793110787868499755859375">
        <ele>1474</ele>
        <time>2021-08-22T17:40:22.000Z</time>
      </trkpt>
      <trkpt lat="42.66077301464974880218505859375" lon="0.09441283531486988067626953125">
        <ele>1476</ele>
        <time>2021-08-22T17:40:54.000Z</time>
      </trkpt>
      <trkpt lat="42.660745270550251007080078125" lon="0.094483830034732818603515625">
        <ele>1478</ele>
        <time>2021-08-22T17:41:05.000Z</time>
      </trkpt>
      <trkpt lat="42.660766057670116424560546875" lon="0.09458801709115505218505859375">
        <ele>1476.199951171875</ele>
        <time>2021-08-22T17:41:18.000Z</time>
      </trkpt>
      <trkpt lat="42.66077066771686077117919921875" lon="0.0946725904941558837890625">
        <ele>1475.199951171875</ele>
        <time>2021-08-22T17:41:27.000Z</time>
      </trkpt>
      <trkpt lat="42.6607833243906497955322265625" lon="0.0947267375886440277099609375">
        <ele>1473.800048828125</ele>
        <time>2021-08-22T17:41:31.000Z</time>
      </trkpt>
      <trkpt lat="42.6607876829802989959716796875" lon="0.0947388075292110443115234375">
        <ele>1473.4000244140625</ele>
        <time>2021-08-22T17:41:32.000Z</time>
      </trkpt>
      <trkpt lat="42.66079229302704334259033203125" lon="0.0947518832981586456298828125">
        <ele>1473</ele>
        <time>2021-08-22T17:41:33.000Z</time>
      </trkpt>
      <trkpt lat="42.6607967354357242584228515625" lon="0.09476705454289913177490234375">
        <ele>1472.5999755859375</ele>
        <time>2021-08-22T17:41:34.000Z</time>
      </trkpt>
      <trkpt lat="42.66079715453088283538818359375" lon="0.09478784166276454925537109375">
        <ele>1472.4000244140625</ele>
        <time>2021-08-22T17:41:36.000Z</time>
      </trkpt>
      <trkpt lat="42.660798914730548858642578125" lon="0.09479454718530178070068359375">
        <ele>1472.199951171875</ele>
        <time>2021-08-22T17:41:37.000Z</time>
      </trkpt>
      <trkpt lat="42.66079966910183429718017578125" lon="0.094810388982295989990234375">
        <ele>1472</ele>
        <time>2021-08-22T17:41:39.000Z</time>
      </trkpt>
      <trkpt lat="42.6608041115105152130126953125" lon="0.09483578614890575408935546875">
        <ele>1471.5999755859375</ele>
        <time>2021-08-22T17:41:42.000Z</time>
      </trkpt>
      <trkpt lat="42.6608161814510822296142578125" lon="0.094888173043727874755859375">
        <ele>1470.4000244140625</ele>
        <time>2021-08-22T17:41:48.000Z</time>
      </trkpt>
      <trkpt lat="42.660833112895488739013671875" lon="0.09495262987911701202392578125">
        <ele>1469</ele>
        <time>2021-08-22T17:41:54.000Z</time>
      </trkpt>
      <trkpt lat="42.66084006987512111663818359375" lon="0.0950301624834537506103515625">
        <ele>1468</ele>
        <time>2021-08-22T17:42:02.000Z</time>
      </trkpt>
      <trkpt lat="42.66081877984106540679931640625" lon="0.0951743312180042266845703125">
        <ele>1468.199951171875</ele>
        <time>2021-08-22T17:42:16.000Z</time>
      </trkpt>
      <trkpt lat="42.66085146926343441009521484375" lon="0.09519402869045734405517578125">
        <ele>1466.800048828125</ele>
        <time>2021-08-22T17:42:21.000Z</time>
      </trkpt>
      <trkpt lat="42.6608709990978240966796875" lon="0.09521431289613246917724609375">
        <ele>1466</ele>
        <time>2021-08-22T17:42:26.000Z</time>
      </trkpt>
      <trkpt lat="42.66101910732686519622802734375" lon="0.09541220963001251220703125">
        <ele>1462.5999755859375</ele>
        <time>2021-08-22T17:42:56.000Z</time>
      </trkpt>
      <trkpt lat="42.66135673038661479949951171875" lon="0.0957087613642215728759765625">
        <ele>1452.4000244140625</ele>
        <time>2021-08-22T17:44:40.000Z</time>
      </trkpt>
      <trkpt lat="42.66141657717525959014892578125" lon="0.0956772454082965850830078125">
        <ele>1449.199951171875</ele>
        <time>2021-08-22T17:45:03.000Z</time>
      </trkpt>
      <trkpt lat="42.66164003871381282806396484375" lon="0.09615174494683742523193359375">
        <ele>1435.4000244140625</ele>
        <time>2021-08-22T17:46:28.000Z</time>
      </trkpt>
      <trkpt lat="42.66165495850145816802978515625" lon="0.09645064361393451690673828125">
        <ele>1430.800048828125</ele>
        <time>2021-08-22T17:46:59.000Z</time>
      </trkpt>
      <trkpt lat="42.6617284677922725677490234375" lon="0.09669958613812923431396484375">
        <ele>1421.800048828125</ele>
        <time>2021-08-22T17:47:44.000Z</time>
      </trkpt>
      <trkpt lat="42.66173257492482662200927734375" lon="0.0967367179691791534423828125">
        <ele>1420.800048828125</ele>
        <time>2021-08-22T17:47:46.000Z</time>
      </trkpt>
      <trkpt lat="42.6617251150310039520263671875" lon="0.0968262366950511932373046875">
        <ele>1419.4000244140625</ele>
        <time>2021-08-22T17:47:53.000Z</time>
      </trkpt>
      <trkpt lat="42.66170206479728221893310546875" lon="0.09688046760857105255126953125">
        <ele>1419.800048828125</ele>
        <time>2021-08-22T17:47:59.000Z</time>
      </trkpt>
      <trkpt lat="42.661694101989269256591796875" lon="0.0969043560326099395751953125">
        <ele>1419.800048828125</ele>
        <time>2021-08-22T17:48:02.000Z</time>
      </trkpt>
      <trkpt lat="42.6616838760673999786376953125" lon="0.09694282896816730499267578125">
        <ele>1420</ele>
        <time>2021-08-22T17:48:05.000Z</time>
      </trkpt>
      <trkpt lat="42.6616676151752471923828125" lon="0.09698138572275638580322265625">
        <ele>1420.4000244140625</ele>
        <time>2021-08-22T17:48:08.000Z</time>
      </trkpt>
      <trkpt lat="42.66165412031114101409912109375" lon="0.0970297493040561676025390625">
        <ele>1420.4000244140625</ele>
        <time>2021-08-22T17:48:12.000Z</time>
      </trkpt>
      <trkpt lat="42.6616312377154827117919921875" lon="0.0970843993127346038818359375">
        <ele>1421.199951171875</ele>
        <time>2021-08-22T17:48:15.000Z</time>
      </trkpt>
      <trkpt lat="42.66160399653017520904541015625" lon="0.0971873290836811065673828125">
        <ele>1420.5999755859375</ele>
        <time>2021-08-22T17:48:22.000Z</time>
      </trkpt>
      <trkpt lat="42.661576755344867706298828125" lon="0.09722395800054073333740234375">
        <ele>1421.800048828125</ele>
        <time>2021-08-22T17:48:28.000Z</time>
      </trkpt>
      <trkpt lat="42.66155789606273174285888671875" lon="0.09724147617816925048828125">
        <ele>1423</ele>
        <time>2021-08-22T17:48:33.000Z</time>
      </trkpt>
      <trkpt lat="42.6615013182163238525390625" lon="0.0974176637828350067138671875">
        <ele>1422</ele>
        <time>2021-08-22T17:48:51.000Z</time>
      </trkpt>
      <trkpt lat="42.66147474758327007293701171875" lon="0.09753827936947345733642578125">
        <ele>1419.199951171875</ele>
        <time>2021-08-22T17:49:05.000Z</time>
      </trkpt>
      <trkpt lat="42.66143937595188617706298828125" lon="0.0977334938943386077880859375">
        <ele>1413.800048828125</ele>
        <time>2021-08-22T17:49:23.000Z</time>
      </trkpt>
      <trkpt lat="42.661450691521167755126953125" lon="0.097760818898677825927734375">
        <ele>1412.199951171875</ele>
        <time>2021-08-22T17:49:25.000Z</time>
      </trkpt>
      <trkpt lat="42.66145530156791210174560546875" lon="0.0978092662990093231201171875">
        <ele>1410.5999755859375</ele>
        <time>2021-08-22T17:49:28.000Z</time>
      </trkpt>
      <trkpt lat="42.6614585705101490020751953125" lon="0.0978241860866546630859375">
        <ele>1410</ele>
        <time>2021-08-22T17:49:29.000Z</time>
      </trkpt>
      <trkpt lat="42.66146443784236907958984375" lon="0.097838602960109710693359375">
        <ele>1409.199951171875</ele>
        <time>2021-08-22T17:49:30.000Z</time>
      </trkpt>
      <trkpt lat="42.6614669524133205413818359375" lon="0.0979571230709552764892578125">
        <ele>1405.5999755859375</ele>
        <time>2021-08-22T17:49:50.000Z</time>
      </trkpt>
      <trkpt lat="42.66145630739629268646240234375" lon="0.0980479829013347625732421875">
        <ele>1403.4000244140625</ele>
        <time>2021-08-22T17:50:05.000Z</time>
      </trkpt>
      <trkpt lat="42.66150928102433681488037109375" lon="0.09816139005124568939208984375">
        <ele>1397.199951171875</ele>
        <time>2021-08-22T17:50:27.000Z</time>
      </trkpt>
      <trkpt lat="42.66160382889211177825927734375" lon="0.0984821654856204986572265625">
        <ele>1383.800048828125</ele>
        <time>2021-08-22T17:51:14.000Z</time>
      </trkpt>
      <trkpt lat="42.6616355963051319122314453125" lon="0.09870135225355625152587890625">
        <ele>1379</ele>
        <time>2021-08-22T17:51:37.000Z</time>
      </trkpt>
      <trkpt lat="42.66171254217624664306640625" lon="0.099228322505950927734375">
        <ele>1367.199951171875</ele>
        <time>2021-08-22T17:52:55.000Z</time>
      </trkpt>
      <trkpt lat="42.66176442615687847137451171875" lon="0.0993133150041103363037109375">
        <ele>1362.800048828125</ele>
        <time>2021-08-22T17:53:12.000Z</time>
      </trkpt>
      <trkpt lat="42.66175436787307262420654296875" lon="0.09948589839041233062744140625">
        <ele>1359.800048828125</ele>
        <time>2021-08-22T17:53:27.000Z</time>
      </trkpt>
      <trkpt lat="42.66181002371013164520263671875" lon="0.0996274687349796295166015625">
        <ele>1354</ele>
        <time>2021-08-22T17:53:45.000Z</time>
      </trkpt>
      <trkpt lat="42.66177481971681118011474609375" lon="0.0997987948358058929443359375">
        <ele>1351.5999755859375</ele>
        <time>2021-08-22T17:54:05.000Z</time>
      </trkpt>
      <trkpt lat="42.66182444058358669281005859375" lon="0.10012275539338588714599609375">
        <ele>1340.4000244140625</ele>
        <time>2021-08-22T17:54:36.000Z</time>
      </trkpt>
      <trkpt lat="42.661882527172565460205078125" lon="0.10032174177467823028564453125">
        <ele>1332.800048828125</ele>
        <time>2021-08-22T17:55:54.000Z</time>
      </trkpt>
      <trkpt lat="42.6619718782603740692138671875" lon="0.100367255508899688720703125">
        <ele>1327.800048828125</ele>
        <time>2021-08-22T17:55:59.000Z</time>
      </trkpt>
      <trkpt lat="42.6620479859411716461181640625" lon="0.10039902292191982269287109375">
        <ele>1323.800048828125</ele>
        <time>2021-08-22T17:56:10.000Z</time>
      </trkpt>
      <trkpt lat="42.6620238460600376129150390625" lon="0.10036247782409191131591796875">
        <ele>1325.800048828125</ele>
        <time>2021-08-22T17:56:17.000Z</time>
      </trkpt>
      <trkpt lat="42.66193642280995845794677734375" lon="0.100333727896213531494140625">
        <ele>1330</ele>
        <time>2021-08-22T17:56:26.000Z</time>
      </trkpt>
      <trkpt lat="42.66188579611480236053466796875" lon="0.1003325544297695159912109375">
        <ele>1332.199951171875</ele>
        <time>2021-08-22T17:56:34.000Z</time>
      </trkpt>
      <trkpt lat="42.66183399595320224761962890625" lon="0.1004435308277606964111328125">
        <ele>1332.199951171875</ele>
        <time>2021-08-22T17:56:50.000Z</time>
      </trkpt>
      <trkpt lat="42.6618297211825847625732421875" lon="0.1004716940224170684814453125">
        <ele>1331.800048828125</ele>
        <time>2021-08-22T17:56:52.000Z</time>
      </trkpt>
      <trkpt lat="42.6618283800780773162841796875" lon="0.1005089096724987030029296875">
        <ele>1331</ele>
        <time>2021-08-22T17:56:55.000Z</time>
      </trkpt>
      <trkpt lat="42.661829888820648193359375" lon="0.10054436512291431427001953125">
        <ele>1330</ele>
        <time>2021-08-22T17:56:58.000Z</time>
      </trkpt>
      <trkpt lat="42.66187741421163082122802734375" lon="0.10066405870020389556884765625">
        <ele>1324.800048828125</ele>
        <time>2021-08-22T17:57:09.000Z</time>
      </trkpt>
      <trkpt lat="42.66187573783099651336669921875" lon="0.1006745360791683197021484375">
        <ele>1324.5999755859375</ele>
        <time>2021-08-22T17:57:10.000Z</time>
      </trkpt>
      <trkpt lat="42.66187406145036220550537109375" lon="0.1006856001913547515869140625">
        <ele>1324.4000244140625</ele>
        <time>2021-08-22T17:57:11.000Z</time>
      </trkpt>
      <trkpt lat="42.66184673644602298736572265625" lon="0.10080487467348575592041015625">
        <ele>1322.800048828125</ele>
        <time>2021-08-22T17:57:25.000Z</time>
      </trkpt>
      <trkpt lat="42.6618324033915996551513671875" lon="0.1008331216871738433837890625">
        <ele>1323</ele>
        <time>2021-08-22T17:57:29.000Z</time>
      </trkpt>
      <trkpt lat="42.6618287153542041778564453125" lon="0.10085382498800754547119140625">
        <ele>1322.800048828125</ele>
        <time>2021-08-22T17:57:31.000Z</time>
      </trkpt>
      <trkpt lat="42.66178353689610958099365234375" lon="0.1010949723422527313232421875">
        <ele>1320</ele>
        <time>2021-08-22T17:58:17.000Z</time>
      </trkpt>
      <trkpt lat="42.66178102232515811920166015625" lon="0.10111617855727672576904296875">
        <ele>1319.800048828125</ele>
        <time>2021-08-22T17:58:20.000Z</time>
      </trkpt>
      <trkpt lat="42.661781273782253265380859375" lon="0.10112053714692592620849609375">
        <ele>1319.5999755859375</ele>
        <time>2021-08-22T17:58:21.000Z</time>
      </trkpt>
      <trkpt lat="42.6617847941815853118896484375" lon="0.10113076306879520416259765625">
        <ele>1319.199951171875</ele>
        <time>2021-08-22T17:58:24.000Z</time>
      </trkpt>
      <trkpt lat="42.66200280748307704925537109375" lon="0.10119480080902576446533203125">
        <ele>1306.199951171875</ele>
        <time>2021-08-22T17:59:39.000Z</time>
      </trkpt>
      <trkpt lat="42.661926113069057464599609375" lon="0.10158933699131011962890625">
        <ele>1300.4000244140625</ele>
        <time>2021-08-22T18:00:35.000Z</time>
      </trkpt>
      <trkpt lat="42.66190423630177974700927734375" lon="0.10164859704673290252685546875">
        <ele>1299.199951171875</ele>
        <time>2021-08-22T18:00:43.000Z</time>
      </trkpt>
      <trkpt lat="42.66189535148441791534423828125" lon="0.1018282212316989898681640625">
        <ele>1293</ele>
        <time>2021-08-22T18:00:58.000Z</time>
      </trkpt>
      <trkpt lat="42.66186752356588840484619140625" lon="0.10204724036157131195068359375">
        <ele>1283.199951171875</ele>
        <time>2021-08-22T18:01:21.000Z</time>
      </trkpt>
      <trkpt lat="42.66184355132281780242919921875" lon="0.102115385234355926513671875">
        <ele>1282</ele>
        <time>2021-08-22T18:01:29.000Z</time>
      </trkpt>
      <trkpt lat="42.6617105305194854736328125" lon="0.1025926508009433746337890625">
        <ele>1272.5999755859375</ele>
        <time>2021-08-22T18:02:28.000Z</time>
      </trkpt>
      <trkpt lat="42.66167499125003814697265625" lon="0.10270387865602970123291015625">
        <ele>1272.199951171875</ele>
        <time>2021-08-22T18:03:05.000Z</time>
      </trkpt>
      <trkpt lat="42.66176040284335613250732421875" lon="0.10269616730511188507080078125">
        <ele>1267</ele>
        <time>2021-08-22T18:03:14.000Z</time>
      </trkpt>
      <trkpt lat="42.66187288798391819000244140625" lon="0.102698095142841339111328125">
        <ele>1260.199951171875</ele>
        <time>2021-08-22T18:03:24.000Z</time>
      </trkpt>
      <trkpt lat="42.66189434565603733062744140625" lon="0.10268501937389373779296875">
        <ele>1258.800048828125</ele>
        <time>2021-08-22T18:03:26.000Z</time>
      </trkpt>
      <trkpt lat="42.66206265427172183990478515625" lon="0.10260455310344696044921875">
        <ele>1253</ele>
        <time>2021-08-22T18:03:49.000Z</time>
      </trkpt>
      <trkpt lat="42.66210389323532581329345703125" lon="0.10257882066071033477783203125">
        <ele>1253</ele>
        <time>2021-08-22T18:03:55.000Z</time>
      </trkpt>
      <trkpt lat="42.662317715585231781005859375" lon="0.10254126973450183868408203125">
        <ele>1247.800048828125</ele>
        <time>2021-08-22T18:04:28.000Z</time>
      </trkpt>
      <trkpt lat="42.6625089906156063079833984375" lon="0.10289666242897510528564453125">
        <ele>1245.5999755859375</ele>
        <time>2021-08-22T18:04:54.000Z</time>
      </trkpt>
      <trkpt lat="42.66262223012745380401611328125" lon="0.1031431742012500762939453125">
        <ele>1244.5999755859375</ele>
        <time>2021-08-22T18:05:10.000Z</time>
      </trkpt>
      <trkpt lat="42.662634886801242828369140625" lon="0.10316488333046436309814453125">
        <ele>1244.4000244140625</ele>
        <time>2021-08-22T18:05:12.000Z</time>
      </trkpt>
      <trkpt lat="42.662735469639301300048828125" lon="0.1033486984670162200927734375">
        <ele>1243.800048828125</ele>
        <time>2021-08-22T18:05:26.000Z</time>
      </trkpt>
      <trkpt lat="42.66284787096083164215087890625" lon="0.1032846607267856597900390625">
        <ele>1241.800048828125</ele>
        <time>2021-08-22T18:05:38.000Z</time>
      </trkpt>
      <trkpt lat="42.66319219954311847686767578125" lon="0.10292063467204570770263671875">
        <ele>1238.5999755859375</ele>
        <time>2021-08-22T18:06:13.000Z</time>
      </trkpt>
      <trkpt lat="42.6632814668118953704833984375" lon="0.1029711775481700897216796875">
        <ele>1239.199951171875</ele>
        <time>2021-08-22T18:06:22.000Z</time>
      </trkpt>
      <trkpt lat="42.66368472017347812652587890625" lon="0.1028501428663730621337890625">
        <ele>1242.199951171875</ele>
        <time>2021-08-22T18:06:51.000Z</time>
      </trkpt>
      <trkpt lat="42.66374842263758182525634765625" lon="0.10292599909007549285888671875">
        <ele>1242.5999755859375</ele>
        <time>2021-08-22T18:06:58.000Z</time>
      </trkpt>
      <trkpt lat="42.66406039707362651824951171875" lon="0.10287554003298282623291015625">
        <ele>1244</ele>
        <time>2021-08-22T18:07:21.000Z</time>
      </trkpt>
      <trkpt lat="42.6644780673086643218994140625" lon="0.1026201434433460235595703125">
        <ele>1244.199951171875</ele>
        <time>2021-08-22T18:07:56.000Z</time>
      </trkpt>
      <trkpt lat="42.6649115793406963348388671875" lon="0.1024280302226543426513671875">
        <ele>1243.4000244140625</ele>
        <time>2021-08-22T18:08:26.000Z</time>
      </trkpt>
      <trkpt lat="42.665062285959720611572265625" lon="0.10241621173918247222900390625">
        <ele>1242.800048828125</ele>
        <time>2021-08-22T18:08:37.000Z</time>
      </trkpt>
      <trkpt lat="42.6654309220612049102783203125" lon="0.10263246484100818634033203125">
        <ele>1240.5999755859375</ele>
        <time>2021-08-22T18:09:05.000Z</time>
      </trkpt>
      <trkpt lat="42.66560132615268230438232421875" lon="0.10275869630277156829833984375">
        <ele>1241.5999755859375</ele>
        <time>2021-08-22T18:09:24.000Z</time>
      </trkpt>
      <trkpt lat="42.66583937220275402069091796875" lon="0.10294527746737003326416015625">
        <ele>1243.800048828125</ele>
        <time>2021-08-22T18:09:47.000Z</time>
      </trkpt>
      <trkpt lat="42.66596711240708827972412109375" lon="0.10306379757821559906005859375">
        <ele>1244.199951171875</ele>
        <time>2021-08-22T18:10:01.000Z</time>
      </trkpt>
      <trkpt lat="42.66610608436167240142822265625" lon="0.1034787856042385101318359375">
        <ele>1245.800048828125</ele>
        <time>2021-08-22T18:10:32.000Z</time>
      </trkpt>
      <trkpt lat="42.6661219261586666107177734375" lon="0.103722028434276580810546875">
        <ele>1251.4000244140625</ele>
        <time>2021-08-22T18:10:48.000Z</time>
      </trkpt>
      <trkpt lat="42.66616098582744598388671875" lon="0.1037024147808551788330078125">
        <ele>1251.199951171875</ele>
        <time>2021-08-22T18:10:57.000Z</time>
      </trkpt>
      <trkpt lat="42.6661469042301177978515625" lon="0.10373669676482677459716796875">
        <ele>1251.800048828125</ele>
        <time>2021-08-22T18:11:26.000Z</time>
      </trkpt>
      <trkpt lat="42.666186802089214324951171875" lon="0.10370333679020404815673828125">
        <ele>1251.5999755859375</ele>
        <time>2021-08-22T18:11:57.000Z</time>
      </trkpt>
      <trkpt lat="42.6666047237813472747802734375" lon="0.1024444587528705596923828125">
        <ele>1251</ele>
        <time>2021-08-23T06:05:27.000Z</time>
      </trkpt>
      <trkpt lat="42.66661855392158031463623046875" lon="0.102423168718814849853515625">
        <ele>1251.199951171875</ele>
        <time>2021-08-23T06:05:28.000Z</time>
      </trkpt>
      <trkpt lat="42.6666623912751674652099609375" lon="0.1023512519896030426025390625">
        <ele>1251.199951171875</ele>
        <time>2021-08-23T06:05:35.000Z</time>
      </trkpt>
      <trkpt lat="42.66668477095663547515869140625" lon="0.1023023016750812530517578125">
        <ele>1251</ele>
        <time>2021-08-23T06:05:39.000Z</time>
      </trkpt>
      <trkpt lat="42.6667284406721591949462890625" lon="0.10223231278359889984130859375">
        <ele>1251</ele>
        <time>2021-08-23T06:05:45.000Z</time>
      </trkpt>
      <trkpt lat="42.66673707403242588043212890625" lon="0.10221957229077816009521484375">
        <ele>1251</ele>
        <time>2021-08-23T06:05:46.000Z</time>
      </trkpt>
      <trkpt lat="42.6667468808591365814208984375" lon="0.10220490396022796630859375">
        <ele>1251</ele>
        <time>2021-08-23T06:05:47.000Z</time>
      </trkpt>
      <trkpt lat="42.66675769351422786712646484375" lon="0.1021919958293437957763671875">
        <ele>1250.800048828125</ele>
        <time>2021-08-23T06:05:48.000Z</time>
      </trkpt>
      <trkpt lat="42.66678367741405963897705078125" lon="0.1021105237305164337158203125">
        <ele>1250.199951171875</ele>
        <time>2021-08-23T06:05:53.000Z</time>
      </trkpt>
      <trkpt lat="42.66689850948750972747802734375" lon="0.10197649709880352020263671875">
        <ele>1250</ele>
        <time>2021-08-23T06:06:15.000Z</time>
      </trkpt>
      <trkpt lat="42.66687034629285335540771484375" lon="0.10194875299930572509765625">
        <ele>1249.5999755859375</ele>
        <time>2021-08-23T06:06:22.000Z</time>
      </trkpt>
      <trkpt lat="42.66688048839569091796875" lon="0.1019636727869510650634765625">
        <ele>1249.800048828125</ele>
        <time>2021-08-23T06:06:32.000Z</time>
      </trkpt>
      <trkpt lat="42.6669842563569545745849609375" lon="0.10207615792751312255859375">
        <ele>1251</ele>
        <time>2021-08-23T06:07:24.000Z</time>
      </trkpt>
      <trkpt lat="42.666940502822399139404296875" lon="0.1020525209605693817138671875">
        <ele>1250.4000244140625</ele>
        <time>2021-08-23T06:07:33.000Z</time>
      </trkpt>
      <trkpt lat="42.66693052835762500762939453125" lon="0.10202796198427677154541015625">
        <ele>1250.4000244140625</ele>
        <time>2021-08-23T06:07:38.000Z</time>
      </trkpt>
      <trkpt lat="42.6669232361018657684326171875" lon="0.102024860680103302001953125">
        <ele>1250.199951171875</ele>
        <time>2021-08-23T06:07:41.000Z</time>
      </trkpt>
      <trkpt lat="42.666921056807041168212890625" lon="0.10202125646173954010009765625">
        <ele>1250.199951171875</ele>
        <time>2021-08-23T06:07:43.000Z</time>
      </trkpt>
      <trkpt lat="42.66691661439836025238037109375" lon="0.10201723314821720123291015625">
        <ele>1250.199951171875</ele>
        <time>2021-08-23T06:07:44.000Z</time>
      </trkpt>
      <trkpt lat="42.666911669075489044189453125" lon="0.10201404802501201629638671875">
        <ele>1250.199951171875</ele>
        <time>2021-08-23T06:07:45.000Z</time>
      </trkpt>
      <trkpt lat="42.66691192053258419036865234375" lon="0.1020102761685848236083984375">
        <ele>1250.199951171875</ele>
        <time>2021-08-23T06:07:46.000Z</time>
      </trkpt>
      <trkpt lat="42.6669175364077091217041015625" lon="0.1020116172730922698974609375">
        <ele>1250.199951171875</ele>
        <time>2021-08-23T06:07:47.000Z</time>
      </trkpt>
      <trkpt lat="42.66688115894794464111328125" lon="0.1019680313766002655029296875">
        <ele>1249.800048828125</ele>
        <time>2021-08-23T06:07:57.000Z</time>
      </trkpt>
      <trkpt lat="42.66691326163709163665771484375" lon="0.10199611075222492218017578125">
        <ele>1250.199951171875</ele>
        <time>2021-08-23T06:08:36.000Z</time>
      </trkpt>
      <trkpt lat="42.666815780103206634521484375" lon="0.10190181434154510498046875">
        <ele>1249.199951171875</ele>
        <time>2021-08-23T06:08:59.000Z</time>
      </trkpt>
      <trkpt lat="42.66675115562975406646728515625" lon="0.10188261978328227996826171875">
        <ele>1248.4000244140625</ele>
        <time>2021-08-23T06:09:06.000Z</time>
      </trkpt>
      <trkpt lat="42.66662190668284893035888671875" lon="0.1018206775188446044921875">
        <ele>1247.4000244140625</ele>
        <time>2021-08-23T06:09:17.000Z</time>
      </trkpt>
      <trkpt lat="42.666641436517238616943359375" lon="0.1016937755048274993896484375">
        <ele>1247.800048828125</ele>
        <time>2021-08-23T06:09:26.000Z</time>
      </trkpt>
      <trkpt lat="42.66666524112224578857421875" lon="0.10167173109948635101318359375">
        <ele>1248</ele>
        <time>2021-08-23T06:09:28.000Z</time>
      </trkpt>
      <trkpt lat="42.666707150638103485107421875" lon="0.1016454957425594329833984375">
        <ele>1248.5999755859375</ele>
        <time>2021-08-23T06:09:31.000Z</time>
      </trkpt>
      <trkpt lat="42.66672466881573200225830078125" lon="0.101637281477451324462890625">
        <ele>1248.800048828125</ele>
        <time>2021-08-23T06:09:32.000Z</time>
      </trkpt>
      <trkpt lat="42.6667737029492855072021484375" lon="0.10151331312954425811767578125">
        <ele>1250</ele>
        <time>2021-08-23T06:09:42.000Z</time>
      </trkpt>
      <trkpt lat="42.6667978428304195404052734375" lon="0.1014228723943233489990234375">
        <ele>1250.800048828125</ele>
        <time>2021-08-23T06:09:48.000Z</time>
      </trkpt>
      <trkpt lat="42.66685090027749538421630859375" lon="0.10136579163372516632080078125">
        <ele>1251.5999755859375</ele>
        <time>2021-08-23T06:09:53.000Z</time>
      </trkpt>
      <trkpt lat="42.66687420196831226348876953125" lon="0.10134466923773288726806640625">
        <ele>1252</ele>
        <time>2021-08-23T06:09:55.000Z</time>
      </trkpt>
      <trkpt lat="42.66689054667949676513671875" lon="0.10132136754691600799560546875">
        <ele>1252.199951171875</ele>
        <time>2021-08-23T06:09:57.000Z</time>
      </trkpt>
      <trkpt lat="42.66690705902874469757080078125" lon="0.10127811692655086517333984375">
        <ele>1252.4000244140625</ele>
        <time>2021-08-23T06:10:00.000Z</time>
      </trkpt>
      <trkpt lat="42.66692809760570526123046875" lon="0.10121944360435009002685546875">
        <ele>1252.800048828125</ele>
        <time>2021-08-23T06:10:04.000Z</time>
      </trkpt>
      <trkpt lat="42.66694016754627227783203125" lon="0.10116294957697391510009765625">
        <ele>1252.800048828125</ele>
        <time>2021-08-23T06:10:08.000Z</time>
      </trkpt>
      <trkpt lat="42.66695760190486907958984375" lon="0.10112422518432140350341796875">
        <ele>1252.800048828125</ele>
        <time>2021-08-23T06:10:11.000Z</time>
      </trkpt>
      <trkpt lat="42.6670630462467670440673828125" lon="0.10075156576931476593017578125">
        <ele>1253.5999755859375</ele>
        <time>2021-08-23T06:10:35.000Z</time>
      </trkpt>
      <trkpt lat="42.66706597991287708282470703125" lon="0.10073597542941570281982421875">
        <ele>1253.5999755859375</ele>
        <time>2021-08-23T06:10:36.000Z</time>
      </trkpt>
      <trkpt lat="42.667111493647098541259765625" lon="0.1003027148544788360595703125">
        <ele>1253.4000244140625</ele>
        <time>2021-08-23T06:11:00.000Z</time>
      </trkpt>
      <trkpt lat="42.66714694909751415252685546875" lon="0.10011504404246807098388671875">
        <ele>1252.5999755859375</ele>
        <time>2021-08-23T06:11:13.000Z</time>
      </trkpt>
      <trkpt lat="42.66718064434826374053955078125" lon="0.100054107606410980224609375">
        <ele>1252.199951171875</ele>
        <time>2021-08-23T06:11:18.000Z</time>
      </trkpt>
      <trkpt lat="42.6673235557973384857177734375" lon="0.09985872544348239898681640625">
        <ele>1251</ele>
        <time>2021-08-23T06:11:34.000Z</time>
      </trkpt>
      <trkpt lat="42.6674573309719562530517578125" lon="0.0996026583015918731689453125">
        <ele>1250.5999755859375</ele>
        <time>2021-08-23T06:11:52.000Z</time>
      </trkpt>
      <trkpt lat="42.66768238507211208343505859375" lon="0.09926796890795230865478515625">
        <ele>1251</ele>
        <time>2021-08-23T06:12:20.000Z</time>
      </trkpt>
      <trkpt lat="42.6676864922046661376953125" lon="0.09924366138875484466552734375">
        <ele>1251</ele>
        <time>2021-08-23T06:12:22.000Z</time>
      </trkpt>
      <trkpt lat="42.66775011084973812103271484375" lon="0.099113993346691131591796875">
        <ele>1250.4000244140625</ele>
        <time>2021-08-23T06:12:36.000Z</time>
      </trkpt>
      <trkpt lat="42.66798698343336582183837890625" lon="0.098599009215831756591796875">
        <ele>1248.4000244140625</ele>
        <time>2021-08-23T06:13:10.000Z</time>
      </trkpt>
      <trkpt lat="42.66804951243102550506591796875" lon="0.09816859848797321319580078125">
        <ele>1249.199951171875</ele>
        <time>2021-08-23T06:13:37.000Z</time>
      </trkpt>
      <trkpt lat="42.66804180108010768890380859375" lon="0.09754766710102558135986328125">
        <ele>1252.199951171875</ele>
        <time>2021-08-23T06:14:14.000Z</time>
      </trkpt>
      <trkpt lat="42.66814984381198883056640625" lon="0.096986331045627593994140625">
        <ele>1253.4000244140625</ele>
        <time>2021-08-23T06:14:48.000Z</time>
      </trkpt>
      <trkpt lat="42.66816367395222187042236328125" lon="0.0969469361007213592529296875">
        <ele>1253.4000244140625</ele>
        <time>2021-08-23T06:14:53.000Z</time>
      </trkpt>
      <trkpt lat="42.6681895740330219268798828125" lon="0.09684107266366481781005859375">
        <ele>1254</ele>
        <time>2021-08-23T06:14:59.000Z</time>
      </trkpt>
      <trkpt lat="42.66822804696857929229736328125" lon="0.09675557725131511688232421875">
        <ele>1254.5999755859375</ele>
        <time>2021-08-23T06:15:04.000Z</time>
      </trkpt>
      <trkpt lat="42.66827817074954509735107421875" lon="0.0965985842049121856689453125">
        <ele>1255.800048828125</ele>
        <time>2021-08-23T06:15:13.000Z</time>
      </trkpt>
      <trkpt lat="42.66828261315822601318359375" lon="0.0965834967792034149169921875">
        <ele>1255.800048828125</ele>
        <time>2021-08-23T06:15:14.000Z</time>
      </trkpt>
      <trkpt lat="42.66828957013785839080810546875" lon="0.09657050482928752899169921875">
        <ele>1256</ele>
        <time>2021-08-23T06:15:15.000Z</time>
      </trkpt>
      <trkpt lat="42.668292336165904998779296875" lon="0.0965546630322933197021484375">
        <ele>1256</ele>
        <time>2021-08-23T06:15:16.000Z</time>
      </trkpt>
      <trkpt lat="42.66829870641231536865234375" lon="0.0965394079685211181640625">
        <ele>1256.199951171875</ele>
        <time>2021-08-23T06:15:17.000Z</time>
      </trkpt>
      <trkpt lat="42.66830742359161376953125" lon="0.09650789201259613037109375">
        <ele>1256.4000244140625</ele>
        <time>2021-08-23T06:15:19.000Z</time>
      </trkpt>
      <trkpt lat="42.66830742359161376953125" lon="0.09648869745433330535888671875">
        <ele>1256.4000244140625</ele>
        <time>2021-08-23T06:15:20.000Z</time>
      </trkpt>
      <trkpt lat="42.6683116145431995391845703125" lon="0.09647344239056110382080078125">
        <ele>1256.5999755859375</ele>
        <time>2021-08-23T06:15:21.000Z</time>
      </trkpt>
      <trkpt lat="42.6684520952403545379638671875" lon="0.09589207358658313751220703125">
        <ele>1258.5999755859375</ele>
        <time>2021-08-23T06:15:58.000Z</time>
      </trkpt>
      <trkpt lat="42.6685503311455249786376953125" lon="0.09531724266707897186279296875">
        <ele>1258</ele>
        <time>2021-08-23T06:16:35.000Z</time>
      </trkpt>
      <trkpt lat="42.66873565502464771270751953125" lon="0.0950975529849529266357421875">
        <ele>1258.5999755859375</ele>
        <time>2021-08-23T06:16:54.000Z</time>
      </trkpt>
      <trkpt lat="42.66883992590010166168212890625" lon="0.094910301268100738525390625">
        <ele>1258.4000244140625</ele>
        <time>2021-08-23T06:17:10.000Z</time>
      </trkpt>
      <trkpt lat="42.66911334358155727386474609375" lon="0.09472933597862720489501953125">
        <ele>1261</ele>
        <time>2021-08-23T06:17:50.000Z</time>
      </trkpt>
      <trkpt lat="42.66917855478823184967041015625" lon="0.09466119110584259033203125">
        <ele>1261.5999755859375</ele>
        <time>2021-08-23T06:17:59.000Z</time>
      </trkpt>
      <trkpt lat="42.6692232303321361541748046875" lon="0.0946251489222049713134765625">
        <ele>1262.199951171875</ele>
        <time>2021-08-23T06:18:04.000Z</time>
      </trkpt>
      <trkpt lat="42.66925767995417118072509765625" lon="0.094573684036731719970703125">
        <ele>1262.800048828125</ele>
        <time>2021-08-23T06:18:08.000Z</time>
      </trkpt>
      <trkpt lat="42.66930009238421916961669921875" lon="0.09451190941035747528076171875">
        <ele>1263.5999755859375</ele>
        <time>2021-08-23T06:18:14.000Z</time>
      </trkpt>
      <trkpt lat="42.66931031830608844757080078125" lon="0.09450620971620082855224609375">
        <ele>1263.800048828125</ele>
        <time>2021-08-23T06:18:15.000Z</time>
      </trkpt>
      <trkpt lat="42.66933697275817394256591796875" lon="0.0944950617849826812744140625">
        <ele>1264.199951171875</ele>
        <time>2021-08-23T06:18:17.000Z</time>
      </trkpt>
      <trkpt lat="42.66938407905399799346923828125" lon="0.0943666510283946990966796875">
        <ele>1264.4000244140625</ele>
        <time>2021-08-23T06:18:33.000Z</time>
      </trkpt>
      <trkpt lat="42.6693945564329624176025390625" lon="0.0943426787853240966796875">
        <ele>1264.4000244140625</ele>
        <time>2021-08-23T06:18:35.000Z</time>
      </trkpt>
      <trkpt lat="42.6694012619554996490478515625" lon="0.09433136321604251861572265625">
        <ele>1264.4000244140625</ele>
        <time>2021-08-23T06:18:36.000Z</time>
      </trkpt>
      <trkpt lat="42.6694579236209392547607421875" lon="0.09426900185644626617431640625">
        <ele>1265.199951171875</ele>
        <time>2021-08-23T06:18:43.000Z</time>
      </trkpt>
      <trkpt lat="42.66959513537585735321044921875" lon="0.09420253336429595947265625">
        <ele>1267.800048828125</ele>
        <time>2021-08-23T06:18:57.000Z</time>
      </trkpt>
      <trkpt lat="42.66958960331976413726806640625" lon="0.09395384229719638824462890625">
        <ele>1266.800048828125</ele>
        <time>2021-08-23T06:19:12.000Z</time>
      </trkpt>
      <trkpt lat="42.66971734352409839630126953125" lon="0.09383230470120906829833984375">
        <ele>1268.4000244140625</ele>
        <time>2021-08-23T06:19:26.000Z</time>
      </trkpt>
      <trkpt lat="42.6697351969778537750244140625" lon="0.0937769003212451934814453125">
        <ele>1268.4000244140625</ele>
        <time>2021-08-23T06:19:30.000Z</time>
      </trkpt>
      <trkpt lat="42.66980870626866817474365234375" lon="0.0936870463192462921142578125">
        <ele>1268.5999755859375</ele>
        <time>2021-08-23T06:19:39.000Z</time>
      </trkpt>
      <trkpt lat="42.6699061878025531768798828125" lon="0.09358269162476062774658203125">
        <ele>1269</ele>
        <time>2021-08-23T06:19:51.000Z</time>
      </trkpt>
      <trkpt lat="42.670010626316070556640625" lon="0.09344824589788913726806640625">
        <ele>1269.800048828125</ele>
        <time>2021-08-23T06:20:07.000Z</time>
      </trkpt>
      <trkpt lat="42.67009846866130828857421875" lon="0.0932572223246097564697265625">
        <ele>1270.199951171875</ele>
        <time>2021-08-23T06:20:26.000Z</time>
      </trkpt>
      <trkpt lat="42.67017717473208904266357421875" lon="0.09314280934631824493408203125">
        <ele>1270.5999755859375</ele>
        <time>2021-08-23T06:20:35.000Z</time>
      </trkpt>
      <trkpt lat="42.67030474729835987091064453125" lon="0.09309000335633754730224609375">
        <ele>1272.5999755859375</ele>
        <time>2021-08-23T06:20:47.000Z</time>
      </trkpt>
      <trkpt lat="42.67040717415511608123779296875" lon="0.093039460480213165283203125">
        <ele>1273.5999755859375</ele>
        <time>2021-08-23T06:20:56.000Z</time>
      </trkpt>
      <trkpt lat="42.6705170609056949615478515625" lon="0.09272455237805843353271484375">
        <ele>1273.5999755859375</ele>
        <time>2021-08-23T06:21:18.000Z</time>
      </trkpt>
      <trkpt lat="42.67055989243090152740478515625" lon="0.09269437752664089202880859375">
        <ele>1274.199951171875</ele>
        <time>2021-08-23T06:21:21.000Z</time>
      </trkpt>
      <trkpt lat="42.67057045362889766693115234375" lon="0.09266738779842853546142578125">
        <ele>1274.4000244140625</ele>
        <time>2021-08-23T06:21:23.000Z</time>
      </trkpt>
      <trkpt lat="42.6706639118492603302001953125" lon="0.09258784353733062744140625">
        <ele>1274.199951171875</ele>
        <time>2021-08-23T06:21:35.000Z</time>
      </trkpt>
      <trkpt lat="42.67073574475944042205810546875" lon="0.09255708195269107818603515625">
        <ele>1274.5999755859375</ele>
        <time>2021-08-23T06:21:43.000Z</time>
      </trkpt>
      <trkpt lat="42.6707359962165355682373046875" lon="0.09251383133232593536376953125">
        <ele>1273.5999755859375</ele>
        <time>2021-08-23T06:21:46.000Z</time>
      </trkpt>
      <trkpt lat="42.670850493013858795166015625" lon="0.09242825210094451904296875">
        <ele>1274.199951171875</ele>
        <time>2021-08-23T06:21:55.000Z</time>
      </trkpt>
      <trkpt lat="42.67097060568630695343017578125" lon="0.0923613645136356353759765625">
        <ele>1275.800048828125</ele>
        <time>2021-08-23T06:22:07.000Z</time>
      </trkpt>
      <trkpt lat="42.67105023376643657684326171875" lon="0.09222666732966899871826171875">
        <ele>1275.4000244140625</ele>
        <time>2021-08-23T06:22:18.000Z</time>
      </trkpt>
      <trkpt lat="42.67114595510065555572509765625" lon="0.0921149365603923797607421875">
        <ele>1275.800048828125</ele>
        <time>2021-08-23T06:22:29.000Z</time>
      </trkpt>
      <trkpt lat="42.6712456159293651580810546875" lon="0.0920264236629009246826171875">
        <ele>1277</ele>
        <time>2021-08-23T06:22:39.000Z</time>
      </trkpt>
      <trkpt lat="42.6713237352669239044189453125" lon="0.0919895432889461517333984375">
        <ele>1278.4000244140625</ele>
        <time>2021-08-23T06:22:48.000Z</time>
      </trkpt>
      <trkpt lat="42.671435214579105377197265625" lon="0.09189172647893428802490234375">
        <ele>1279</ele>
        <time>2021-08-23T06:22:59.000Z</time>
      </trkpt>
      <trkpt lat="42.67146077938377857208251953125" lon="0.0918252579867839813232421875">
        <ele>1278</ele>
        <time>2021-08-23T06:23:06.000Z</time>
      </trkpt>
      <trkpt lat="42.671491205692291259765625" lon="0.09173615835607051849365234375">
        <ele>1276.4000244140625</ele>
        <time>2021-08-23T06:23:15.000Z</time>
      </trkpt>
      <trkpt lat="42.671529762446880340576171875" lon="0.09168502874672412872314453125">
        <ele>1275.5999755859375</ele>
        <time>2021-08-23T06:23:21.000Z</time>
      </trkpt>
      <trkpt lat="42.671546526253223419189453125" lon="0.0916643254458904266357421875">
        <ele>1275.199951171875</ele>
        <time>2021-08-23T06:23:23.000Z</time>
      </trkpt>
      <trkpt lat="42.6715346239507198333740234375" lon="0.09162484668195247650146484375">
        <ele>1274.4000244140625</ele>
        <time>2021-08-23T06:23:25.000Z</time>
      </trkpt>
      <trkpt lat="42.6715641282498836517333984375" lon="0.0915583781898021697998046875">
        <ele>1274</ele>
        <time>2021-08-23T06:23:29.000Z</time>
      </trkpt>
      <trkpt lat="42.67159438692033290863037109375" lon="0.091502554714679718017578125">
        <ele>1273.5999755859375</ele>
        <time>2021-08-23T06:23:34.000Z</time>
      </trkpt>
      <trkpt lat="42.6716120727360248565673828125" lon="0.0914608128368854522705078125">
        <ele>1273.199951171875</ele>
        <time>2021-08-23T06:23:38.000Z</time>
      </trkpt>
      <trkpt lat="42.67181667499244213104248046875" lon="0.09112863801419734954833984375">
        <ele>1271.800048828125</ele>
        <time>2021-08-23T06:24:03.000Z</time>
      </trkpt>
      <trkpt lat="42.67190082930028438568115234375" lon="0.09107105433940887451171875">
        <ele>1272</ele>
        <time>2021-08-23T06:24:12.000Z</time>
      </trkpt>
      <trkpt lat="42.67195162363350391387939453125" lon="0.09109787642955780029296875">
        <ele>1273</ele>
        <time>2021-08-23T06:24:19.000Z</time>
      </trkpt>
      <trkpt lat="42.67202119342982769012451171875" lon="0.09107683785259723663330078125">
        <ele>1273.4000244140625</ele>
        <time>2021-08-23T06:24:27.000Z</time>
      </trkpt>
      <trkpt lat="42.672080956399440765380859375" lon="0.09100559167563915252685546875">
        <ele>1273.5999755859375</ele>
        <time>2021-08-23T06:24:35.000Z</time>
      </trkpt>
      <trkpt lat="42.6721052639186382293701171875" lon="0.0908988900482654571533203125">
        <ele>1273</ele>
        <time>2021-08-23T06:24:43.000Z</time>
      </trkpt>
      <trkpt lat="42.67213694751262664794921875" lon="0.09075078181922435760498046875">
        <ele>1272.4000244140625</ele>
        <time>2021-08-23T06:24:56.000Z</time>
      </trkpt>
      <trkpt lat="42.6722138933837413787841796875" lon="0.09071356616914272308349609375">
        <ele>1273.800048828125</ele>
        <time>2021-08-23T06:25:05.000Z</time>
      </trkpt>
      <trkpt lat="42.6722769252955913543701171875" lon="0.09060594253242015838623046875">
        <ele>1274.800048828125</ele>
        <time>2021-08-23T06:25:16.000Z</time>
      </trkpt>
      <trkpt lat="42.672231830656528472900390625" lon="0.09054844267666339874267578125">
        <ele>1273.4000244140625</ele>
        <time>2021-08-23T06:25:19.000Z</time>
      </trkpt>
      <trkpt lat="42.672116495668888092041015625" lon="0.09040695615112781524658203125">
        <ele>1270.199951171875</ele>
        <time>2021-08-23T06:25:33.000Z</time>
      </trkpt>
      <trkpt lat="42.67223694361746311187744140625" lon="0.09014845825731754302978515625">
        <ele>1273.199951171875</ele>
        <time>2021-08-23T06:25:51.000Z</time>
      </trkpt>
      <trkpt lat="42.6723567210137844085693359375" lon="0.0898933969438076019287109375">
        <ele>1273.5999755859375</ele>
        <time>2021-08-23T06:26:14.000Z</time>
      </trkpt>
      <trkpt lat="42.67273767851293087005615234375" lon="0.08952886797487735748291015625">
        <ele>1274.5999755859375</ele>
        <time>2021-08-23T06:26:55.000Z</time>
      </trkpt>
      <trkpt lat="42.67277053557336330413818359375" lon="0.08950556628406047821044921875">
        <ele>1274.4000244140625</ele>
        <time>2021-08-23T06:27:00.000Z</time>
      </trkpt>
      <trkpt lat="42.6728110201656818389892578125" lon="0.0894610583782196044921875">
        <ele>1274.4000244140625</ele>
        <time>2021-08-23T06:27:05.000Z</time>
      </trkpt>
      <trkpt lat="42.6729434542357921600341796875" lon="0.0893606431782245635986328125">
        <ele>1273.4000244140625</ele>
        <time>2021-08-23T06:27:18.000Z</time>
      </trkpt>
      <trkpt lat="42.673361040651798248291015625" lon="0.08912905119359493255615234375">
        <ele>1272.4000244140625</ele>
        <time>2021-08-23T06:28:03.000Z</time>
      </trkpt>
      <trkpt lat="42.67362297512590885162353515625" lon="0.089024864137172698974609375">
        <ele>1272.4000244140625</ele>
        <time>2021-08-23T06:28:25.000Z</time>
      </trkpt>
      <trkpt lat="42.673704363405704498291015625" lon="0.088966526091098785400390625">
        <ele>1272</ele>
        <time>2021-08-23T06:28:32.000Z</time>
      </trkpt>
      <trkpt lat="42.67407207749783992767333984375" lon="0.08881271816790103912353515625">
        <ele>1270.800048828125</ele>
        <time>2021-08-23T06:29:05.000Z</time>
      </trkpt>
      <trkpt lat="42.67422295175492763519287109375" lon="0.08869788609445095062255859375">
        <ele>1270.5999755859375</ele>
        <time>2021-08-23T06:29:19.000Z</time>
      </trkpt>
      <trkpt lat="42.6742364466190338134765625" lon="0.08869193494319915771484375">
        <ele>1270.5999755859375</ele>
        <time>2021-08-23T06:29:20.000Z</time>
      </trkpt>
      <trkpt lat="42.674519754946231842041015625" lon="0.0885472632944583892822265625">
        <ele>1271.800048828125</ele>
        <time>2021-08-23T06:29:45.000Z</time>
      </trkpt>
      <trkpt lat="42.6747344993054866790771484375" lon="0.0883447565138339996337890625">
        <ele>1272</ele>
        <time>2021-08-23T06:30:08.000Z</time>
      </trkpt>
      <trkpt lat="42.674755789339542388916015625" lon="0.08833427913486957550048828125">
        <ele>1272.199951171875</ele>
        <time>2021-08-23T06:30:11.000Z</time>
      </trkpt>
      <trkpt lat="42.6749738864600658416748046875" lon="0.0882522203028202056884765625">
        <ele>1273.5999755859375</ele>
        <time>2021-08-23T06:30:28.000Z</time>
      </trkpt>
      <trkpt lat="42.6750121079385280609130859375" lon="0.088228918612003326416015625">
        <ele>1273.800048828125</ele>
        <time>2021-08-23T06:30:32.000Z</time>
      </trkpt>
      <trkpt lat="42.67535886727273464202880859375" lon="0.08782817982137203216552734375">
        <ele>1274.800048828125</ele>
        <time>2021-08-23T06:31:13.000Z</time>
      </trkpt>
      <trkpt lat="42.6753591187298297882080078125" lon="0.08781041018664836883544921875">
        <ele>1274.5999755859375</ele>
        <time>2021-08-23T06:31:14.000Z</time>
      </trkpt>
      <trkpt lat="42.675482667982578277587890625" lon="0.0876530818641185760498046875">
        <ele>1275.199951171875</ele>
        <time>2021-08-23T06:31:33.000Z</time>
      </trkpt>
      <trkpt lat="42.67588608898222446441650390625" lon="0.087399445474147796630859375">
        <ele>1273.199951171875</ele>
        <time>2021-08-23T06:32:13.000Z</time>
      </trkpt>
      <trkpt lat="42.676007710397243499755859375" lon="0.08725552819669246673583984375">
        <ele>1272.5999755859375</ele>
        <time>2021-08-23T06:32:27.000Z</time>
      </trkpt>
      <trkpt lat="42.6762281544506549835205078125" lon="0.08707414381206035614013671875">
        <ele>1271.4000244140625</ele>
        <time>2021-08-23T06:32:49.000Z</time>
      </trkpt>
      <trkpt lat="42.67630870454013347625732421875" lon="0.08687473833560943603515625">
        <ele>1270.5999755859375</ele>
        <time>2021-08-23T06:33:08.000Z</time>
      </trkpt>
      <trkpt lat="42.676324546337127685546875" lon="0.08686560206115245819091796875">
        <ele>1270.199951171875</ele>
        <time>2021-08-23T06:33:29.000Z</time>
      </trkpt>
      <trkpt lat="42.6763473451137542724609375" lon="0.08688270114362239837646484375">
        <ele>1270</ele>
        <time>2021-08-23T06:33:44.000Z</time>
      </trkpt>
      <trkpt lat="42.6763394661247730255126953125" lon="0.086879096925258636474609375">
        <ele>1270.199951171875</ele>
        <time>2021-08-23T06:34:01.000Z</time>
      </trkpt>
      <trkpt lat="42.6763419806957244873046875" lon="0.08688412606716156005859375">
        <ele>1270.199951171875</ele>
        <time>2021-08-23T06:34:09.000Z</time>
      </trkpt>
      <trkpt lat="42.67634692601859569549560546875" lon="0.08688680827617645263671875">
        <ele>1270.199951171875</ele>
        <time>2021-08-23T06:34:15.000Z</time>
      </trkpt>
      <trkpt lat="42.676351033151149749755859375" lon="0.086892507970333099365234375">
        <ele>1270.199951171875</ele>
        <time>2021-08-23T06:34:21.000Z</time>
      </trkpt>
      <trkpt lat="42.6763626001775264739990234375" lon="0.086893849074840545654296875">
        <ele>1270</ele>
        <time>2021-08-23T06:34:29.000Z</time>
      </trkpt>
      <trkpt lat="42.6763847284018993377685546875" lon="0.086900554597377777099609375">
        <ele>1269.800048828125</ele>
        <time>2021-08-23T06:34:35.000Z</time>
      </trkpt>
      <trkpt lat="42.67635966651141643524169921875" lon="0.0869049131870269775390625">
        <ele>1270.199951171875</ele>
        <time>2021-08-23T06:34:52.000Z</time>
      </trkpt>
      <trkpt lat="42.67626486718654632568359375" lon="0.0868628360331058502197265625">
        <ele>1271</ele>
        <time>2021-08-23T06:35:03.000Z</time>
      </trkpt>
      <trkpt lat="42.67624567262828350067138671875" lon="0.0868303142488002777099609375">
        <ele>1270.800048828125</ele>
        <time>2021-08-23T06:35:06.000Z</time>
      </trkpt>
      <trkpt lat="42.6762318424880504608154296875" lon="0.08680776692926883697509765625">
        <ele>1271.199951171875</ele>
        <time>2021-08-23T06:35:08.000Z</time>
      </trkpt>
      <trkpt lat="42.67622329294681549072265625" lon="0.086796618998050689697265625">
        <ele>1271.4000244140625</ele>
        <time>2021-08-23T06:35:09.000Z</time>
      </trkpt>
      <trkpt lat="42.67620854079723358154296875" lon="0.0867736525833606719970703125">
        <ele>1271.800048828125</ele>
        <time>2021-08-23T06:35:11.000Z</time>
      </trkpt>
      <trkpt lat="42.67620158381760120391845703125" lon="0.086756385862827301025390625">
        <ele>1272</ele>
        <time>2021-08-23T06:35:12.000Z</time>
      </trkpt>
      <trkpt lat="42.67619638703763484954833984375" lon="0.0867421366274356842041015625">
        <ele>1272.199951171875</ele>
        <time>2021-08-23T06:35:13.000Z</time>
      </trkpt>
      <trkpt lat="42.67619152553379535675048828125" lon="0.08672663010656833648681640625">
        <ele>1272.199951171875</ele>
        <time>2021-08-23T06:35:14.000Z</time>
      </trkpt>
      <trkpt lat="42.6761761866509914398193359375" lon="0.0865503586828708648681640625">
        <ele>1273.800048828125</ele>
        <time>2021-08-23T06:35:25.000Z</time>
      </trkpt>
      <trkpt lat="42.6761765219271183013916015625" lon="0.08643695153295993804931640625">
        <ele>1275</ele>
        <time>2021-08-23T06:35:32.000Z</time>
      </trkpt>
      <trkpt lat="42.67618314363062381744384765625" lon="0.08639520965516567230224609375">
        <ele>1275.4000244140625</ele>
        <time>2021-08-23T06:35:35.000Z</time>
      </trkpt>
      <trkpt lat="42.6761922799050807952880859375" lon="0.08636780083179473876953125">
        <ele>1275.5999755859375</ele>
        <time>2021-08-23T06:35:37.000Z</time>
      </trkpt>
      <trkpt lat="42.6762154139578342437744140625" lon="0.086298398673534393310546875">
        <ele>1276.199951171875</ele>
        <time>2021-08-23T06:35:42.000Z</time>
      </trkpt>
      <trkpt lat="42.67622035928070545196533203125" lon="0.08628733456134796142578125">
        <ele>1276.4000244140625</ele>
        <time>2021-08-23T06:35:43.000Z</time>
      </trkpt>
      <trkpt lat="42.67623863182961940765380859375" lon="0.0862476043403148651123046875">
        <ele>1276.5999755859375</ele>
        <time>2021-08-23T06:35:46.000Z</time>
      </trkpt>
      <trkpt lat="42.6762673817574977874755859375" lon="0.086198486387729644775390625">
        <ele>1276.800048828125</ele>
        <time>2021-08-23T06:35:50.000Z</time>
      </trkpt>
      <trkpt lat="42.67631172202527523040771484375" lon="0.08597829379141330718994140625">
        <ele>1278</ele>
        <time>2021-08-23T06:36:04.000Z</time>
      </trkpt>
      <trkpt lat="42.67630384303629398345947265625" lon="0.0855230726301670074462890625">
        <ele>1281.199951171875</ele>
        <time>2021-08-23T06:36:31.000Z</time>
      </trkpt>
      <trkpt lat="42.67647944390773773193359375" lon="0.0849574618041515350341796875">
        <ele>1280.800048828125</ele>
        <time>2021-08-23T06:37:16.000Z</time>
      </trkpt>
      <trkpt lat="42.67656569369137287139892578125" lon="0.08483483456075191497802734375">
        <ele>1281.199951171875</ele>
        <time>2021-08-23T06:37:28.000Z</time>
      </trkpt>
      <trkpt lat="42.67663643695414066314697265625" lon="0.08483181707561016082763671875">
        <ele>1281.199951171875</ele>
        <time>2021-08-23T06:37:34.000Z</time>
      </trkpt>
      <trkpt lat="42.6767126284539699554443359375" lon="0.08483818732202053070068359375">
        <ele>1281.4000244140625</ele>
        <time>2021-08-23T06:37:42.000Z</time>
      </trkpt>
      <trkpt lat="42.67671707086265087127685546875" lon="0.08483332581818103790283203125">
        <ele>1281.4000244140625</ele>
        <time>2021-08-23T06:37:43.000Z</time>
      </trkpt>
      <trkpt lat="42.676723189651966094970703125" lon="0.0848334096372127532958984375">
        <ele>1281.4000244140625</ele>
        <time>2021-08-23T06:37:44.000Z</time>
      </trkpt>
      <trkpt lat="42.67715267837047576904296875" lon="0.08467574603855609893798828125">
        <ele>1281.800048828125</ele>
        <time>2021-08-23T06:38:21.000Z</time>
      </trkpt>
      <trkpt lat="42.67731361091136932373046875" lon="0.08460701443254947662353515625">
        <ele>1280.4000244140625</ele>
        <time>2021-08-23T06:38:37.000Z</time>
      </trkpt>
      <trkpt lat="42.6772346533834934234619140625" lon="0.08446686901152133941650390625">
        <ele>1282.199951171875</ele>
        <time>2021-08-23T06:39:32.000Z</time>
      </trkpt>
      <trkpt lat="42.67728519625961780548095703125" lon="0.08449251763522624969482421875">
        <ele>1281.5999755859375</ele>
        <time>2021-08-23T06:39:35.000Z</time>
      </trkpt>
      <trkpt lat="42.6776401698589324951171875" lon="0.08458488620817661285400390625">
        <ele>1276.5999755859375</ele>
        <time>2021-08-23T06:39:54.000Z</time>
      </trkpt>
      <trkpt lat="42.6776669919490814208984375" lon="0.08457046933472156524658203125">
        <ele>1276.4000244140625</ele>
        <time>2021-08-23T06:39:56.000Z</time>
      </trkpt>
      <trkpt lat="42.67769825644791126251220703125" lon="0.0845246203243732452392578125">
        <ele>1276.5999755859375</ele>
        <time>2021-08-23T06:40:00.000Z</time>
      </trkpt>
      <trkpt lat="42.6777449436485767364501953125" lon="0.0844895839691162109375">
        <ele>1276.4000244140625</ele>
        <time>2021-08-23T06:40:03.000Z</time>
      </trkpt>
      <trkpt lat="42.67783672548830509185791015625" lon="0.08443786762654781341552734375">
        <ele>1276.4000244140625</ele>
        <time>2021-08-23T06:40:10.000Z</time>
      </trkpt>
      <trkpt lat="42.6778384856879711151123046875" lon="0.0844019092619419097900390625">
        <ele>1276.5999755859375</ele>
        <time>2021-08-23T06:40:12.000Z</time>
      </trkpt>
      <trkpt lat="42.6779062114655971527099609375" lon="0.0843110494315624237060546875">
        <ele>1277.199951171875</ele>
        <time>2021-08-23T06:40:20.000Z</time>
      </trkpt>
      <trkpt lat="42.67791585065424442291259765625" lon="0.08428632281720638275146484375">
        <ele>1277.4000244140625</ele>
        <time>2021-08-23T06:40:22.000Z</time>
      </trkpt>
      <trkpt lat="42.67813009209930896759033203125" lon="0.08407451212406158447265625">
        <ele>1279.199951171875</ele>
        <time>2021-08-23T06:41:14.000Z</time>
      </trkpt>
      <trkpt lat="42.678317092359066009521484375" lon="0.0839472748339176177978515625">
        <ele>1283.199951171875</ele>
        <time>2021-08-23T06:41:32.000Z</time>
      </trkpt>
      <trkpt lat="42.6783786155283451080322265625" lon="0.08390964008867740631103515625">
        <ele>1284</ele>
        <time>2021-08-23T06:41:39.000Z</time>
      </trkpt>
      <trkpt lat="42.6783950440585613250732421875" lon="0.08387661539018154144287109375">
        <ele>1284.5999755859375</ele>
        <time>2021-08-23T06:41:42.000Z</time>
      </trkpt>
      <trkpt lat="42.67843787558376789093017578125" lon="0.0838235579431056976318359375">
        <ele>1285.5999755859375</ele>
        <time>2021-08-23T06:41:47.000Z</time>
      </trkpt>
      <trkpt lat="42.67847777344286441802978515625" lon="0.083801932632923126220703125">
        <ele>1286</ele>
        <time>2021-08-23T06:41:50.000Z</time>
      </trkpt>
      <trkpt lat="42.67859528772532939910888671875" lon="0.08375340141355991363525390625">
        <ele>1287</ele>
        <time>2021-08-23T06:41:59.000Z</time>
      </trkpt>
      <trkpt lat="42.67871280200779438018798828125" lon="0.08373814634978771209716796875">
        <ele>1287.5999755859375</ele>
        <time>2021-08-23T06:42:07.000Z</time>
      </trkpt>
      <trkpt lat="42.67880734987556934356689453125" lon="0.08366589434444904327392578125">
        <ele>1288.5999755859375</ele>
        <time>2021-08-23T06:42:16.000Z</time>
      </trkpt>
      <trkpt lat="42.6788423024117946624755859375" lon="0.08361828513443470001220703125">
        <ele>1289.199951171875</ele>
        <time>2021-08-23T06:42:20.000Z</time>
      </trkpt>
      <trkpt lat="42.6789170689880847930908203125" lon="0.08357168175280094146728515625">
        <ele>1289.4000244140625</ele>
        <time>2021-08-23T06:42:28.000Z</time>
      </trkpt>
      <trkpt lat="42.67913022078573703765869140625" lon="0.08337713778018951416015625">
        <ele>1289.800048828125</ele>
        <time>2021-08-23T06:42:54.000Z</time>
      </trkpt>
      <trkpt lat="42.67920196987688541412353515625" lon="0.0831825099885463714599609375">
        <ele>1293.4000244140625</ele>
        <time>2021-08-23T06:43:06.000Z</time>
      </trkpt>
      <trkpt lat="42.67923164181411266326904296875" lon="0.08313414640724658966064453125">
        <ele>1294.199951171875</ele>
        <time>2021-08-23T06:43:10.000Z</time>
      </trkpt>
      <trkpt lat="42.6793395169079303741455078125" lon="0.083046890795230865478515625">
        <ele>1295</ele>
        <time>2021-08-23T06:43:23.000Z</time>
      </trkpt>
      <trkpt lat="42.6795661635696887969970703125" lon="0.08285284973680973052978515625">
        <ele>1296.5999755859375</ele>
        <time>2021-08-23T06:43:48.000Z</time>
      </trkpt>
      <trkpt lat="42.67961838282644748687744140625" lon="0.082830972969532012939453125">
        <ele>1296</ele>
        <time>2021-08-23T06:43:56.000Z</time>
      </trkpt>
      <trkpt lat="42.6799527369439601898193359375" lon="0.08272879756987094879150390625">
        <ele>1296.199951171875</ele>
        <time>2021-08-23T06:44:25.000Z</time>
      </trkpt>
      <trkpt lat="42.6800595223903656005859375" lon="0.08270147256553173065185546875">
        <ele>1296.800048828125</ele>
        <time>2021-08-23T06:44:33.000Z</time>
      </trkpt>
      <trkpt lat="42.68019421957433223724365234375" lon="0.0826792605221271514892578125">
        <ele>1296.5999755859375</ele>
        <time>2021-08-23T06:44:43.000Z</time>
      </trkpt>
      <trkpt lat="42.68043377436697483062744140625" lon="0.0821552239358425140380859375">
        <ele>1297.5999755859375</ele>
        <time>2021-08-23T06:45:21.000Z</time>
      </trkpt>
      <trkpt lat="42.68058733083307743072509765625" lon="0.08158550597727298736572265625">
        <ele>1296.199951171875</ele>
        <time>2021-08-23T06:45:57.000Z</time>
      </trkpt>
      <trkpt lat="42.68057106994092464447021484375" lon="0.08145022206008434295654296875">
        <ele>1296</ele>
        <time>2021-08-23T06:46:08.000Z</time>
      </trkpt>
      <trkpt lat="42.680675089359283447265625" lon="0.0812600366771221160888671875">
        <ele>1294.5999755859375</ele>
        <time>2021-08-23T06:46:24.000Z</time>
      </trkpt>
      <trkpt lat="42.6807704754173755645751953125" lon="0.08120362646877765655517578125">
        <ele>1293.800048828125</ele>
        <time>2021-08-23T06:46:33.000Z</time>
      </trkpt>
      <trkpt lat="42.68085840158164501190185546875" lon="0.081187449395656585693359375">
        <ele>1293.199951171875</ele>
        <time>2021-08-23T06:46:40.000Z</time>
      </trkpt>
      <trkpt lat="42.68088706769049167633056640625" lon="0.0811732001602649688720703125">
        <ele>1293</ele>
        <time>2021-08-23T06:46:43.000Z</time>
      </trkpt>
      <trkpt lat="42.68109158612787723541259765625" lon="0.08063457906246185302734375">
        <ele>1295.800048828125</ele>
        <time>2021-08-23T06:47:22.000Z</time>
      </trkpt>
      <trkpt lat="42.681227959692478179931640625" lon="0.0800500251352787017822265625">
        <ele>1296</ele>
        <time>2021-08-23T06:47:58.000Z</time>
      </trkpt>
      <trkpt lat="42.681348659098148345947265625" lon="0.07980166934430599212646484375">
        <ele>1296</ele>
        <time>2021-08-23T06:48:24.000Z</time>
      </trkpt>
      <trkpt lat="42.6814108528196811676025390625" lon="0.07974182255566120147705078125">
        <ele>1295.5999755859375</ele>
        <time>2021-08-23T06:48:34.000Z</time>
      </trkpt>
      <trkpt lat="42.6816338114440441131591796875" lon="0.07956747896969318389892578125">
        <ele>1296.5999755859375</ele>
        <time>2021-08-23T06:49:30.000Z</time>
      </trkpt>
      <trkpt lat="42.6816391758620738983154296875" lon="0.07950411178171634674072265625">
        <ele>1297.199951171875</ele>
        <time>2021-08-23T06:49:35.000Z</time>
      </trkpt>
      <trkpt lat="42.681638337671756744384765625" lon="0.0794914551079273223876953125">
        <ele>1297.199951171875</ele>
        <time>2021-08-23T06:49:36.000Z</time>
      </trkpt>
      <trkpt lat="42.6816312968730926513671875" lon="0.0794639624655246734619140625">
        <ele>1297.4000244140625</ele>
        <time>2021-08-23T06:49:38.000Z</time>
      </trkpt>
      <trkpt lat="42.68166507594287395477294921875" lon="0.07921510376036167144775390625">
        <ele>1300.4000244140625</ele>
        <time>2021-08-23T06:49:56.000Z</time>
      </trkpt>
      <trkpt lat="42.68166591413319110870361328125" lon="0.07918358780443668365478515625">
        <ele>1300.800048828125</ele>
        <time>2021-08-23T06:49:59.000Z</time>
      </trkpt>
      <trkpt lat="42.68166817724704742431640625" lon="0.0791156105697154998779296875">
        <ele>1301.4000244140625</ele>
        <time>2021-08-23T06:50:05.000Z</time>
      </trkpt>
      <trkpt lat="42.68168569542467594146728515625" lon="0.07900287397205829620361328125">
        <ele>1302.800048828125</ele>
        <time>2021-08-23T06:50:17.000Z</time>
      </trkpt>
      <trkpt lat="42.68165401183068752288818359375" lon="0.0784018076956272125244140625">
        <ele>1310.5999755859375</ele>
        <time>2021-08-23T06:51:03.000Z</time>
      </trkpt>
      <trkpt lat="42.68162526190280914306640625" lon="0.07806024514138698577880859375">
        <ele>1315.199951171875</ele>
        <time>2021-08-23T06:51:21.000Z</time>
      </trkpt>
      <trkpt lat="42.681635320186614990234375" lon="0.0778539665043354034423828125">
        <ele>1318</ele>
        <time>2021-08-23T06:51:36.000Z</time>
      </trkpt>
      <trkpt lat="42.68158745951950550079345703125" lon="0.07755045779049396514892578125">
        <ele>1322.199951171875</ele>
        <time>2021-08-23T06:51:58.000Z</time>
      </trkpt>
      <trkpt lat="42.6815912313759326934814453125" lon="0.07739053107798099517822265625">
        <ele>1323.800048828125</ele>
        <time>2021-08-23T06:52:09.000Z</time>
      </trkpt>
      <trkpt lat="42.68155929632484912872314453125" lon="0.07712901569902896881103515625">
        <ele>1323.800048828125</ele>
        <time>2021-08-23T06:52:28.000Z</time>
      </trkpt>
      <trkpt lat="42.6815161295235157012939453125" lon="0.076899938285350799560546875">
        <ele>1324.199951171875</ele>
        <time>2021-08-23T06:52:51.000Z</time>
      </trkpt>
      <trkpt lat="42.68142702989280223846435546875" lon="0.07662576623260974884033203125">
        <ele>1326.4000244140625</ele>
        <time>2021-08-23T06:53:14.000Z</time>
      </trkpt>
      <trkpt lat="42.68139082007110118865966796875" lon="0.07655384950339794158935546875">
        <ele>1326.5999755859375</ele>
        <time>2021-08-23T06:53:18.000Z</time>
      </trkpt>
      <trkpt lat="42.68130079843103885650634765625" lon="0.076411105692386627197265625">
        <ele>1326.4000244140625</ele>
        <time>2021-08-23T06:53:30.000Z</time>
      </trkpt>
      <trkpt lat="42.68128235824406147003173828125" lon="0.0763127021491527557373046875">
        <ele>1327.199951171875</ele>
        <time>2021-08-23T06:53:38.000Z</time>
      </trkpt>
      <trkpt lat="42.6813065819442272186279296875" lon="0.07618236355483531951904296875">
        <ele>1328.800048828125</ele>
        <time>2021-08-23T06:53:48.000Z</time>
      </trkpt>
      <trkpt lat="42.68133197911083698272705078125" lon="0.0761091895401477813720703125">
        <ele>1329.800048828125</ele>
        <time>2021-08-23T06:53:53.000Z</time>
      </trkpt>
      <trkpt lat="42.68145754002034664154052734375" lon="0.07572236470878124237060546875">
        <ele>1334</ele>
        <time>2021-08-23T06:54:26.000Z</time>
      </trkpt>
      <trkpt lat="42.681557200849056243896484375" lon="0.075576603412628173828125">
        <ele>1334.4000244140625</ele>
        <time>2021-08-23T06:54:50.000Z</time>
      </trkpt>
      <trkpt lat="42.68155812285840511322021484375" lon="0.07554215379059314727783203125">
        <ele>1334.199951171875</ele>
        <time>2021-08-23T06:54:53.000Z</time>
      </trkpt>
      <trkpt lat="42.68157036043703556060791015625" lon="0.07544743828475475311279296875">
        <ele>1334</ele>
        <time>2021-08-23T06:55:02.000Z</time>
      </trkpt>
      <trkpt lat="42.6815825141966342926025390625" lon="0.07527125068008899688720703125">
        <ele>1334</ele>
        <time>2021-08-23T06:55:19.000Z</time>
      </trkpt>
      <trkpt lat="42.68156030215322971343994140625" lon="0.075224898755550384521484375">
        <ele>1333.5999755859375</ele>
        <time>2021-08-23T06:55:23.000Z</time>
      </trkpt>
      <trkpt lat="42.68156147561967372894287109375" lon="0.0750844180583953857421875">
        <ele>1333.4000244140625</ele>
        <time>2021-08-23T06:55:37.000Z</time>
      </trkpt>
      <trkpt lat="42.6815308816730976104736328125" lon="0.07487109862267971038818359375">
        <ele>1334.4000244140625</ele>
        <time>2021-08-23T06:56:00.000Z</time>
      </trkpt>
      <trkpt lat="42.68153398297727108001708984375" lon="0.07483522407710552215576171875">
        <ele>1334.800048828125</ele>
        <time>2021-08-23T06:56:03.000Z</time>
      </trkpt>
      <trkpt lat="42.68153096549212932586669921875" lon="0.07472860626876354217529296875">
        <ele>1336</ele>
        <time>2021-08-23T06:56:11.000Z</time>
      </trkpt>
      <trkpt lat="42.68150246702134609222412109375" lon="0.07457538507878780364990234375">
        <ele>1338</ele>
        <time>2021-08-23T06:56:26.000Z</time>
      </trkpt>
      <trkpt lat="42.681490816175937652587890625" lon="0.0745189748704433441162109375">
        <ele>1338.199951171875</ele>
        <time>2021-08-23T06:56:31.000Z</time>
      </trkpt>
      <trkpt lat="42.68146642483770847320556640625" lon="0.0744884647428989410400390625">
        <ele>1338</ele>
        <time>2021-08-23T06:56:35.000Z</time>
      </trkpt>
      <trkpt lat="42.6814408600330352783203125" lon="0.07446424104273319244384765625">
        <ele>1337.5999755859375</ele>
        <time>2021-08-23T06:56:38.000Z</time>
      </trkpt>
      <trkpt lat="42.68141680397093296051025390625" lon="0.07442233152687549591064453125">
        <ele>1337.800048828125</ele>
        <time>2021-08-23T06:56:42.000Z</time>
      </trkpt>
      <trkpt lat="42.68138931132853031158447265625" lon="0.074329040944576263427734375">
        <ele>1338.4000244140625</ele>
        <time>2021-08-23T06:56:48.000Z</time>
      </trkpt>
      <trkpt lat="42.68135092221200466156005859375" lon="0.074074566364288330078125">
        <ele>1342.5999755859375</ele>
        <time>2021-08-23T06:57:09.000Z</time>
      </trkpt>
      <trkpt lat="42.68134438432753086090087890625" lon="0.07376317866146564483642578125">
        <ele>1347.800048828125</ele>
        <time>2021-08-23T06:57:33.000Z</time>
      </trkpt>
      <trkpt lat="42.6813538558781147003173828125" lon="0.0736811198294162750244140625">
        <ele>1349.199951171875</ele>
        <time>2021-08-23T06:57:40.000Z</time>
      </trkpt>
      <trkpt lat="42.68135963939130306243896484375" lon="0.073637701570987701416015625">
        <ele>1350</ele>
        <time>2021-08-23T06:57:43.000Z</time>
      </trkpt>
      <trkpt lat="42.68132041208446025848388671875" lon="0.0734427385032176971435546875">
        <ele>1351.800048828125</ele>
        <time>2021-08-23T06:58:00.000Z</time>
      </trkpt>
      <trkpt lat="42.6813518442213535308837890625" lon="0.0730444304645061492919921875">
        <ele>1357.4000244140625</ele>
        <time>2021-08-23T06:58:40.000Z</time>
      </trkpt>
      <trkpt lat="42.681321837007999420166015625" lon="0.07290403358638286590576171875">
        <ele>1357.800048828125</ele>
        <time>2021-08-23T06:58:51.000Z</time>
      </trkpt>
      <trkpt lat="42.68132443539798259735107421875" lon="0.07278434000909328460693359375">
        <ele>1359.199951171875</ele>
        <time>2021-08-23T06:59:05.000Z</time>
      </trkpt>
      <trkpt lat="42.6813310571014881134033203125" lon="0.07273145020008087158203125">
        <ele>1359.800048828125</ele>
        <time>2021-08-23T06:59:09.000Z</time>
      </trkpt>
      <trkpt lat="42.68129727803170680999755859375" lon="0.0725981779396533966064453125">
        <ele>1361.199951171875</ele>
        <time>2021-08-23T06:59:22.000Z</time>
      </trkpt>
      <trkpt lat="42.68131169490516185760498046875" lon="0.07254763506352901458740234375">
        <ele>1362.5999755859375</ele>
        <time>2021-08-23T06:59:27.000Z</time>
      </trkpt>
      <trkpt lat="42.6813179813325405120849609375" lon="0.07249365560710430145263671875">
        <ele>1364</ele>
        <time>2021-08-23T06:59:32.000Z</time>
      </trkpt>
      <trkpt lat="42.68132879398763179779052734375" lon="0.07246683351695537567138671875">
        <ele>1364.800048828125</ele>
        <time>2021-08-23T06:59:35.000Z</time>
      </trkpt>
      <trkpt lat="42.681355364620685577392578125" lon="0.072433389723300933837890625">
        <ele>1366</ele>
        <time>2021-08-23T06:59:41.000Z</time>
      </trkpt>
      <trkpt lat="42.6813655905425548553466796875" lon="0.0723852775990962982177734375">
        <ele>1367.4000244140625</ele>
        <time>2021-08-23T06:59:50.000Z</time>
      </trkpt>
      <trkpt lat="42.6814044825732707977294921875" lon="0.07242157123982906341552734375">
        <ele>1367.4000244140625</ele>
        <time>2021-08-23T07:00:09.000Z</time>
      </trkpt>
      <trkpt lat="42.681411691009998321533203125" lon="0.07246314547955989837646484375">
        <ele>1366.5999755859375</ele>
        <time>2021-08-23T07:00:13.000Z</time>
      </trkpt>
      <trkpt lat="42.6814125292003154754638671875" lon="0.0724711082875728607177734375">
        <ele>1366.4000244140625</ele>
        <time>2021-08-23T07:00:19.000Z</time>
      </trkpt>
      <trkpt lat="42.6814182288944721221923828125" lon="0.07247772999107837677001953125">
        <ele>1366.4000244140625</ele>
        <time>2021-08-23T07:00:23.000Z</time>
      </trkpt>
      <trkpt lat="42.68142677843570709228515625" lon="0.072478987276554107666015625">
        <ele>1366.5999755859375</ele>
        <time>2021-08-23T07:00:28.000Z</time>
      </trkpt>
      <trkpt lat="42.6814068295061588287353515625" lon="0.07245643995702266693115234375">
        <ele>1366.5999755859375</ele>
        <time>2021-08-23T07:00:32.000Z</time>
      </trkpt>
      <trkpt lat="42.68141269683837890625" lon="0.07240329869091510772705078125">
        <ele>1368</ele>
        <time>2021-08-23T07:00:49.000Z</time>
      </trkpt>
      <trkpt lat="42.68141278065741062164306640625" lon="0.07240128703415393829345703125">
        <ele>1368</ele>
        <time>2021-08-23T07:00:51.000Z</time>
      </trkpt>
      <trkpt lat="42.6814007945358753204345703125" lon="0.07238946855068206787109375">
        <ele>1368</ele>
        <time>2021-08-23T07:00:52.000Z</time>
      </trkpt>
      <trkpt lat="42.6813898980617523193359375" lon="0.0723775662481784820556640625">
        <ele>1368</ele>
        <time>2021-08-23T07:00:53.000Z</time>
      </trkpt>
      <trkpt lat="42.6813763193786144256591796875" lon="0.0723232515156269073486328125">
        <ele>1368.4000244140625</ele>
        <time>2021-08-23T07:01:02.000Z</time>
      </trkpt>
      <trkpt lat="42.68135913647711277008056640625" lon="0.0723105110228061676025390625">
        <ele>1368.199951171875</ele>
        <time>2021-08-23T07:01:04.000Z</time>
      </trkpt>
      <trkpt lat="42.6813468150794506072998046875" lon="0.0723138637840747833251953125">
        <ele>1368</ele>
        <time>2021-08-23T07:01:06.000Z</time>
      </trkpt>
      <trkpt lat="42.681348659098148345947265625" lon="0.07226818241178989410400390625">
        <ele>1369</ele>
        <time>2021-08-23T07:01:09.000Z</time>
      </trkpt>
      <trkpt lat="42.68134941346943378448486328125" lon="0.07225711829960346221923828125">
        <ele>1369.4000244140625</ele>
        <time>2021-08-23T07:01:11.000Z</time>
      </trkpt>
      <trkpt lat="42.68143155612051486968994140625" lon="0.0723115168511867523193359375">
        <ele>1370.800048828125</ele>
        <time>2021-08-23T07:01:31.000Z</time>
      </trkpt>
      <trkpt lat="42.68137036822736263275146484375" lon="0.0722766481339931488037109375">
        <ele>1369.5999755859375</ele>
        <time>2021-08-23T07:01:51.000Z</time>
      </trkpt>
      <trkpt lat="42.68147832714021205902099609375" lon="0.07235049270093441009521484375">
        <ele>1371.199951171875</ele>
        <time>2021-08-23T07:02:25.000Z</time>
      </trkpt>
      <trkpt lat="42.68149727024137973785400390625" lon="0.07238519378006458282470703125">
        <ele>1370.800048828125</ele>
        <time>2021-08-23T07:02:39.000Z</time>
      </trkpt>
      <trkpt lat="42.68147447146475315093994140625" lon="0.0724298693239688873291015625">
        <ele>1369</ele>
        <time>2021-08-23T07:02:56.000Z</time>
      </trkpt>
      <trkpt lat="42.68149928189814090728759765625" lon="0.0724667496979236602783203125">
        <ele>1369</ele>
        <time>2021-08-23T07:03:00.000Z</time>
      </trkpt>
      <trkpt lat="42.681537084281444549560546875" lon="0.072531290352344512939453125">
        <ele>1369</ele>
        <time>2021-08-23T07:03:05.000Z</time>
      </trkpt>
      <trkpt lat="42.681575976312160491943359375" lon="0.07260446436703205108642578125">
        <ele>1368.5999755859375</ele>
        <time>2021-08-23T07:03:11.000Z</time>
      </trkpt>
      <trkpt lat="42.6815908960998058319091796875" lon="0.07265995256602764129638671875">
        <ele>1368</ele>
        <time>2021-08-23T07:03:15.000Z</time>
      </trkpt>
      <trkpt lat="42.68159802071750164031982421875" lon="0.07271979935467243194580078125">
        <ele>1367.800048828125</ele>
        <time>2021-08-23T07:03:18.000Z</time>
      </trkpt>
      <trkpt lat="42.68162392079830169677734375" lon="0.07285139523446559906005859375">
        <ele>1367.5999755859375</ele>
        <time>2021-08-23T07:03:35.000Z</time>
      </trkpt>
      <trkpt lat="42.6816661655902862548828125" lon="0.07290118373930454254150390625">
        <ele>1368.5999755859375</ele>
        <time>2021-08-23T07:03:43.000Z</time>
      </trkpt>
      <trkpt lat="42.68169860355556011199951171875" lon="0.0729116611182689666748046875">
        <ele>1369.5999755859375</ele>
        <time>2021-08-23T07:03:54.000Z</time>
      </trkpt>
      <trkpt lat="42.68168485723435878753662109375" lon="0.07285726256668567657470703125">
        <ele>1369.5999755859375</ele>
        <time>2021-08-23T07:04:00.000Z</time>
      </trkpt>
      <trkpt lat="42.6816824264824390411376953125" lon="0.07283077575266361236572265625">
        <ele>1369.5999755859375</ele>
        <time>2021-08-23T07:04:03.000Z</time>
      </trkpt>
      <trkpt lat="42.6816867850720882415771484375" lon="0.07277025841176509857177734375">
        <ele>1370.199951171875</ele>
        <time>2021-08-23T07:04:08.000Z</time>
      </trkpt>
      <trkpt lat="42.68172048032283782958984375" lon="0.07274293340742588043212890625">
        <ele>1371.5999755859375</ele>
        <time>2021-08-23T07:04:14.000Z</time>
      </trkpt>
      <trkpt lat="42.68190823495388031005859375" lon="0.07273153401911258697509765625">
        <ele>1381.800048828125</ele>
        <time>2021-08-23T07:04:48.000Z</time>
      </trkpt>
      <trkpt lat="42.68195928074419498443603515625" lon="0.0727668218314647674560546875">
        <ele>1384</ele>
        <time>2021-08-23T07:04:53.000Z</time>
      </trkpt>
      <trkpt lat="42.68211367540061473846435546875" lon="0.07276908494532108306884765625">
        <ele>1389.800048828125</ele>
        <time>2021-08-23T07:05:22.000Z</time>
      </trkpt>
      <trkpt lat="42.682172767817974090576171875" lon="0.072664059698581695556640625">
        <ele>1393</ele>
        <time>2021-08-23T07:05:41.000Z</time>
      </trkpt>
      <trkpt lat="42.6822537370026111602783203125" lon="0.0726380757987499237060546875">
        <ele>1395.800048828125</ele>
        <time>2021-08-23T07:05:49.000Z</time>
      </trkpt>
      <trkpt lat="42.68226790241897106170654296875" lon="0.072544701397418975830078125">
        <ele>1397.800048828125</ele>
        <time>2021-08-23T07:06:00.000Z</time>
      </trkpt>
      <trkpt lat="42.68229573033750057220458984375" lon="0.07252802141010761260986328125">
        <ele>1398.5999755859375</ele>
        <time>2021-08-23T07:06:03.000Z</time>
      </trkpt>
      <trkpt lat="42.68243453465402126312255859375" lon="0.07244981825351715087890625">
        <ele>1402.4000244140625</ele>
        <time>2021-08-23T07:06:27.000Z</time>
      </trkpt>
      <trkpt lat="42.682449705898761749267578125" lon="0.0723333097994327545166015625">
        <ele>1405.5999755859375</ele>
        <time>2021-08-23T07:06:39.000Z</time>
      </trkpt>
      <trkpt lat="42.68243386410176753997802734375" lon="0.07231830619275569915771484375">
        <ele>1405.800048828125</ele>
        <time>2021-08-23T07:06:42.000Z</time>
      </trkpt>
      <trkpt lat="42.68226765096187591552734375" lon="0.07211965508759021759033203125">
        <ele>1408.4000244140625</ele>
        <time>2021-08-23T07:07:07.000Z</time>
      </trkpt>
      <trkpt lat="42.6822530664503574371337890625" lon="0.0721090100705623626708984375">
        <ele>1408</ele>
        <time>2021-08-23T07:07:09.000Z</time>
      </trkpt>
      <trkpt lat="42.682204954326152801513671875" lon="0.07202334702014923095703125">
        <ele>1409</ele>
        <time>2021-08-23T07:07:20.000Z</time>
      </trkpt>
      <trkpt lat="42.68223471008241176605224609375" lon="0.07187523879110813140869140625">
        <ele>1416.199951171875</ele>
        <time>2021-08-23T07:07:55.000Z</time>
      </trkpt>
      <trkpt lat="42.682313583791255950927734375" lon="0.0718176551163196563720703125">
        <ele>1421.199951171875</ele>
        <time>2021-08-23T07:08:54.000Z</time>
      </trkpt>
      <trkpt lat="42.68246303312480449676513671875" lon="0.071762166917324066162109375">
        <ele>1426.800048828125</ele>
        <time>2021-08-23T07:09:24.000Z</time>
      </trkpt>
      <trkpt lat="42.68254484049975872039794921875" lon="0.07181690074503421783447265625">
        <ele>1427.199951171875</ele>
        <time>2021-08-23T07:09:35.000Z</time>
      </trkpt>
      <trkpt lat="42.68258641473948955535888671875" lon="0.07184506393969058990478515625">
        <ele>1427.199951171875</ele>
        <time>2021-08-23T07:09:45.000Z</time>
      </trkpt>
      <trkpt lat="42.68267291598021984100341796875" lon="0.07171179167926311492919921875">
        <ele>1437.5999755859375</ele>
        <time>2021-08-23T07:10:12.000Z</time>
      </trkpt>
      <trkpt lat="42.682715915143489837646484375" lon="0.071721263229846954345703125">
        <ele>1438.5999755859375</ele>
        <time>2021-08-23T07:10:22.000Z</time>
      </trkpt>
      <trkpt lat="42.682723961770534515380859375" lon="0.07172570563852787017822265625">
        <ele>1438.5999755859375</ele>
        <time>2021-08-23T07:10:23.000Z</time>
      </trkpt>
      <trkpt lat="42.68276444636285305023193359375" lon="0.0717170722782611846923828125">
        <ele>1440.199951171875</ele>
        <time>2021-08-23T07:10:29.000Z</time>
      </trkpt>
      <trkpt lat="42.6827804557979106903076171875" lon="0.07168999873101711273193359375">
        <ele>1442</ele>
        <time>2021-08-23T07:10:32.000Z</time>
      </trkpt>
      <trkpt lat="42.6827848143875598907470703125" lon="0.071682371199131011962890625">
        <ele>1442.4000244140625</ele>
        <time>2021-08-23T07:10:33.000Z</time>
      </trkpt>
      <trkpt lat="42.68279026262462139129638671875" lon="0.07167306728661060333251953125">
        <ele>1443</ele>
        <time>2021-08-23T07:10:34.000Z</time>
      </trkpt>
      <trkpt lat="42.68279864452779293060302734375" lon="0.071664936840534210205078125">
        <ele>1443.5999755859375</ele>
        <time>2021-08-23T07:10:35.000Z</time>
      </trkpt>
      <trkpt lat="42.68282898701727390289306640625" lon="0.071623362600803375244140625">
        <ele>1446.4000244140625</ele>
        <time>2021-08-23T07:10:43.000Z</time>
      </trkpt>
      <trkpt lat="42.6828277297317981719970703125" lon="0.071585141122341156005859375">
        <ele>1448.199951171875</ele>
        <time>2021-08-23T07:10:47.000Z</time>
      </trkpt>
      <trkpt lat="42.68282932229340076446533203125" lon="0.0715789385139942169189453125">
        <ele>1448.5999755859375</ele>
        <time>2021-08-23T07:10:48.000Z</time>
      </trkpt>
      <trkpt lat="42.68283233977854251861572265625" lon="0.07155236788094043731689453125">
        <ele>1449.800048828125</ele>
        <time>2021-08-23T07:10:49.000Z</time>
      </trkpt>
      <trkpt lat="42.68283233977854251861572265625" lon="0.07155236788094043731689453125">
        <ele>1449.800048828125</ele>
        <time>2021-08-23T07:10:50.000Z</time>
      </trkpt>
      <trkpt lat="42.68283535726368427276611328125" lon="0.07154524326324462890625">
        <ele>1450.199951171875</ele>
        <time>2021-08-23T07:10:51.000Z</time>
      </trkpt>
      <trkpt lat="42.6828498579561710357666015625" lon="0.0715519487857818603515625">
        <ele>1450.199951171875</ele>
        <time>2021-08-23T07:10:53.000Z</time>
      </trkpt>
      <trkpt lat="42.68287391401827335357666015625" lon="0.071559660136699676513671875">
        <ele>1450.199951171875</ele>
        <time>2021-08-23T07:10:57.000Z</time>
      </trkpt>
      <trkpt lat="42.6828807033598423004150390625" lon="0.07156142033636569976806640625">
        <ele>1450.199951171875</ele>
        <time>2021-08-23T07:10:58.000Z</time>
      </trkpt>
      <trkpt lat="42.682890929281711578369140625" lon="0.07156762294471263885498046875">
        <ele>1450.199951171875</ele>
        <time>2021-08-23T07:11:01.000Z</time>
      </trkpt>
      <trkpt lat="42.68293543718755245208740234375" lon="0.07157080806791782379150390625">
        <ele>1450.5999755859375</ele>
        <time>2021-08-23T07:11:06.000Z</time>
      </trkpt>
      <trkpt lat="42.6829501055181026458740234375" lon="0.0715561397373676300048828125">
        <ele>1451.4000244140625</ele>
        <time>2021-08-23T07:11:11.000Z</time>
      </trkpt>
      <trkpt lat="42.682952620089054107666015625" lon="0.07155588828027248382568359375">
        <ele>1451.4000244140625</ele>
        <time>2021-08-23T07:11:13.000Z</time>
      </trkpt>
      <trkpt lat="42.68295588903129100799560546875" lon="0.07156158797442913055419921875">
        <ele>1451.199951171875</ele>
        <time>2021-08-23T07:11:14.000Z</time>
      </trkpt>
      <trkpt lat="42.6829615049064159393310546875" lon="0.07157114334404468536376953125">
        <ele>1451</ele>
        <time>2021-08-23T07:11:15.000Z</time>
      </trkpt>
      <trkpt lat="42.682972066104412078857421875" lon="0.07159377448260784149169921875">
        <ele>1450.199951171875</ele>
        <time>2021-08-23T07:11:17.000Z</time>
      </trkpt>
      <trkpt lat="42.6829792745411396026611328125" lon="0.07160500623285770416259765625">
        <ele>1450</ele>
        <time>2021-08-23T07:11:18.000Z</time>
      </trkpt>
      <trkpt lat="42.68301204778254032135009765625" lon="0.07162294350564479827880859375">
        <ele>1449.5999755859375</ele>
        <time>2021-08-23T07:11:22.000Z</time>
      </trkpt>
      <trkpt lat="42.68303283490240573883056640625" lon="0.07164523936808109283447265625">
        <ele>1449</ele>
        <time>2021-08-23T07:11:24.000Z</time>
      </trkpt>
      <trkpt lat="42.68306820653378963470458984375" lon="0.07165865041315555572509765625">
        <ele>1449</ele>
        <time>2021-08-23T07:11:27.000Z</time>
      </trkpt>
      <trkpt lat="42.6830818690359592437744140625" lon="0.07166317664086818695068359375">
        <ele>1449</ele>
        <time>2021-08-23T07:11:28.000Z</time>
      </trkpt>
      <trkpt lat="42.68315722234547138214111328125" lon="0.0716946087777614593505859375">
        <ele>1449</ele>
        <time>2021-08-23T07:11:34.000Z</time>
      </trkpt>
      <trkpt lat="42.68316711299121379852294921875" lon="0.07169301621615886688232421875">
        <ele>1449.199951171875</ele>
        <time>2021-08-23T07:11:35.000Z</time>
      </trkpt>
      <trkpt lat="42.6831764169037342071533203125" lon="0.07168999873101711273193359375">
        <ele>1449.4000244140625</ele>
        <time>2021-08-23T07:11:36.000Z</time>
      </trkpt>
      <trkpt lat="42.68322260119020938873291015625" lon="0.07167072035372257232666015625">
        <ele>1450.800048828125</ele>
        <time>2021-08-23T07:11:41.000Z</time>
      </trkpt>
      <trkpt lat="42.6833008043467998504638671875" lon="0.071667619049549102783203125">
        <ele>1451.800048828125</ele>
        <time>2021-08-23T07:11:48.000Z</time>
      </trkpt>
      <trkpt lat="42.68336056731641292572021484375" lon="0.07162109948694705963134765625">
        <ele>1454.199951171875</ele>
        <time>2021-08-23T07:11:56.000Z</time>
      </trkpt>
      <trkpt lat="42.683389484882354736328125" lon="0.07150073535740375518798828125">
        <ele>1458.4000244140625</ele>
        <time>2021-08-23T07:12:04.000Z</time>
      </trkpt>
      <trkpt lat="42.683390490710735321044921875" lon="0.07145530544221401214599609375">
        <ele>1459.800048828125</ele>
        <time>2021-08-23T07:12:08.000Z</time>
      </trkpt>
      <trkpt lat="42.6833909936249256134033203125" lon="0.07140149362385272979736328125">
        <ele>1461.4000244140625</ele>
        <time>2021-08-23T07:12:20.000Z</time>
      </trkpt>
      <trkpt lat="42.68339744769036769866943359375" lon="0.071392357349395751953125">
        <ele>1461.800048828125</ele>
        <time>2021-08-23T07:12:25.000Z</time>
      </trkpt>
      <trkpt lat="42.68339292146265506744384765625" lon="0.0713918544352054595947265625">
        <ele>1461.5999755859375</ele>
        <time>2021-08-23T07:12:27.000Z</time>
      </trkpt>
      <trkpt lat="42.68353088758885860443115234375" lon="0.07139244116842746734619140625">
        <ele>1464.199951171875</ele>
        <time>2021-08-23T07:12:51.000Z</time>
      </trkpt>
      <trkpt lat="42.68355586566030979156494140625" lon="0.07137081585824489593505859375">
        <ele>1465.199951171875</ele>
        <time>2021-08-23T07:12:57.000Z</time>
      </trkpt>
      <trkpt lat="42.68358184956014156341552734375" lon="0.0713368691504001617431640625">
        <ele>1466.5999755859375</ele>
        <time>2021-08-23T07:13:03.000Z</time>
      </trkpt>
      <trkpt lat="42.683598697185516357421875" lon="0.07130292244255542755126953125">
        <ele>1468</ele>
        <time>2021-08-23T07:13:06.000Z</time>
      </trkpt>
      <trkpt lat="42.683624513447284698486328125" lon="0.0712275691330432891845703125">
        <ele>1470</ele>
        <time>2021-08-23T07:13:13.000Z</time>
      </trkpt>
      <trkpt lat="42.68373104743659496307373046875" lon="0.071124471724033355712890625">
        <ele>1473.5999755859375</ele>
        <time>2021-08-23T07:13:29.000Z</time>
      </trkpt>
      <trkpt lat="42.68383079208433628082275390625" lon="0.071046687662601470947265625">
        <ele>1476.4000244140625</ele>
        <time>2021-08-23T07:13:42.000Z</time>
      </trkpt>
      <trkpt lat="42.68385610543191432952880859375" lon="0.07096379064023494720458984375">
        <ele>1478</ele>
        <time>2021-08-23T07:13:49.000Z</time>
      </trkpt>
      <trkpt lat="42.68385954201221466064453125" lon="0.070953480899333953857421875">
        <ele>1478.199951171875</ele>
        <time>2021-08-23T07:13:50.000Z</time>
      </trkpt>
      <trkpt lat="42.6838650740683078765869140625" lon="0.07094551809132099151611328125">
        <ele>1478.4000244140625</ele>
        <time>2021-08-23T07:13:51.000Z</time>
      </trkpt>
      <trkpt lat="42.6838791556656360626220703125" lon="0.07092540152370929718017578125">
        <ele>1479</ele>
        <time>2021-08-23T07:13:53.000Z</time>
      </trkpt>
      <trkpt lat="42.68390723504126071929931640625" lon="0.07090620696544647216796875">
        <ele>1479.4000244140625</ele>
        <time>2021-08-23T07:13:56.000Z</time>
      </trkpt>
      <trkpt lat="42.6839287765324115753173828125" lon="0.07087846286594867706298828125">
        <ele>1479.800048828125</ele>
        <time>2021-08-23T07:13:59.000Z</time>
      </trkpt>
      <trkpt lat="42.68399407155811786651611328125" lon="0.07083714008331298828125">
        <ele>1481.4000244140625</ele>
        <time>2021-08-23T07:14:09.000Z</time>
      </trkpt>
      <trkpt lat="42.6840913854539394378662109375" lon="0.07071853615343570709228515625">
        <ele>1483.800048828125</ele>
        <time>2021-08-23T07:14:31.000Z</time>
      </trkpt>
      <trkpt lat="42.6841849274933338165283203125" lon="0.070669166743755340576171875">
        <ele>1485.800048828125</ele>
        <time>2021-08-23T07:14:43.000Z</time>
      </trkpt>
      <trkpt lat="42.68424485810101032257080078125" lon="0.070466659963130950927734375">
        <ele>1487.800048828125</ele>
        <time>2021-08-23T07:15:01.000Z</time>
      </trkpt>
      <trkpt lat="42.68429146148264408111572265625" lon="0.07033581845462322235107421875">
        <ele>1490</ele>
        <time>2021-08-23T07:15:16.000Z</time>
      </trkpt>
      <trkpt lat="42.6843133382499217987060546875" lon="0.07031612098217010498046875">
        <ele>1490.800048828125</ele>
        <time>2021-08-23T07:15:20.000Z</time>
      </trkpt>
      <trkpt lat="42.68437142483890056610107421875" lon="0.070201121270656585693359375">
        <ele>1493.800048828125</ele>
        <time>2021-08-23T07:15:31.000Z</time>
      </trkpt>
      <trkpt lat="42.68438567407429218292236328125" lon="0.0701572000980377197265625">
        <ele>1494.800048828125</ele>
        <time>2021-08-23T07:15:35.000Z</time>
      </trkpt>
      <trkpt lat="42.6845289207994937896728515625" lon="0.0697201676666736602783203125">
        <ele>1506.4000244140625</ele>
        <time>2021-08-23T07:16:19.000Z</time>
      </trkpt>
      <trkpt lat="42.6845741830766201019287109375" lon="0.06963978521525859832763671875">
        <ele>1508</ele>
        <time>2021-08-23T07:16:31.000Z</time>
      </trkpt>
      <trkpt lat="42.68458114005625247955322265625" lon="0.06959184072911739349365234375">
        <ele>1507.800048828125</ele>
        <time>2021-08-23T07:16:36.000Z</time>
      </trkpt>
      <trkpt lat="42.6846469379961490631103515625" lon="0.06943811662495136260986328125">
        <ele>1508.5999755859375</ele>
        <time>2021-08-23T07:16:54.000Z</time>
      </trkpt>
      <trkpt lat="42.68470016308128833770751953125" lon="0.0692479312419891357421875">
        <ele>1508.800048828125</ele>
        <time>2021-08-23T07:17:13.000Z</time>
      </trkpt>
      <trkpt lat="42.68489881418645381927490234375" lon="0.06912664510309696197509765625">
        <ele>1513.5999755859375</ele>
        <time>2021-08-23T07:17:51.000Z</time>
      </trkpt>
      <trkpt lat="42.68493703566491603851318359375" lon="0.06918380968272686004638671875">
        <ele>1514.800048828125</ele>
        <time>2021-08-23T07:18:49.000Z</time>
      </trkpt>
      <trkpt lat="42.68493787385523319244384765625" lon="0.0691820494830608367919921875">
        <ele>1515</ele>
        <time>2021-08-23T07:18:50.000Z</time>
      </trkpt>
      <trkpt lat="42.68493703566491603851318359375" lon="0.0691770203411579132080078125">
        <ele>1514.800048828125</ele>
        <time>2021-08-23T07:18:51.000Z</time>
      </trkpt>
      <trkpt lat="42.684913985431194305419921875" lon="0.0691688060760498046875">
        <ele>1514</ele>
        <time>2021-08-23T07:19:11.000Z</time>
      </trkpt>
      <trkpt lat="42.68493150360882282257080078125" lon="0.0691862404346466064453125">
        <ele>1514.5999755859375</ele>
        <time>2021-08-23T07:19:42.000Z</time>
      </trkpt>
      <trkpt lat="42.68497022800147533416748046875" lon="0.06915648467838764190673828125">
        <ele>1516</ele>
        <time>2021-08-23T07:19:57.000Z</time>
      </trkpt>
      <trkpt lat="42.68497710116207599639892578125" lon="0.06914391182363033294677734375">
        <ele>1516.4000244140625</ele>
        <time>2021-08-23T07:19:58.000Z</time>
      </trkpt>
      <trkpt lat="42.68501951359212398529052734375" lon="0.06909160874783992767333984375">
        <ele>1517.800048828125</ele>
        <time>2021-08-23T07:20:05.000Z</time>
      </trkpt>
      <trkpt lat="42.6850553043186664581298828125" lon="0.06901550106704235076904296875">
        <ele>1519.4000244140625</ele>
        <time>2021-08-23T07:20:15.000Z</time>
      </trkpt>
      <trkpt lat="42.685063518583774566650390625" lon="0.069000162184238433837890625">
        <ele>1520.199951171875</ele>
        <time>2021-08-23T07:20:17.000Z</time>
      </trkpt>
      <trkpt lat="42.68507047556340694427490234375" lon="0.06899504922330379486083984375">
        <ele>1520.5999755859375</ele>
        <time>2021-08-23T07:20:20.000Z</time>
      </trkpt>
      <trkpt lat="42.685090340673923492431640625" lon="0.06899823434650897979736328125">
        <ele>1522</ele>
        <time>2021-08-23T07:20:24.000Z</time>
      </trkpt>
      <trkpt lat="42.68509964458644390106201171875" lon="0.06895883940160274505615234375">
        <ele>1523</ele>
        <time>2021-08-23T07:20:28.000Z</time>
      </trkpt>
      <trkpt lat="42.6850841380655765533447265625" lon="0.06893654353916645050048828125">
        <ele>1522</ele>
        <time>2021-08-23T07:20:33.000Z</time>
      </trkpt>
      <trkpt lat="42.68513359129428863525390625" lon="0.06901164539158344268798828125">
        <ele>1524.800048828125</ele>
        <time>2021-08-23T07:20:42.000Z</time>
      </trkpt>
      <trkpt lat="42.685135938227176666259765625" lon="0.06901415996253490447998046875">
        <ele>1525</ele>
        <time>2021-08-23T07:20:45.000Z</time>
      </trkpt>
      <trkpt lat="42.68513702787458896636962890625" lon="0.0690160878002643585205078125">
        <ele>1525</ele>
        <time>2021-08-23T07:20:46.000Z</time>
      </trkpt>
      <trkpt lat="42.685157395899295806884765625" lon="0.06902690045535564422607421875">
        <ele>1526.4000244140625</ele>
        <time>2021-08-23T07:20:49.000Z</time>
      </trkpt>
      <trkpt lat="42.68516267649829387664794921875" lon="0.0690494477748870849609375">
        <ele>1526.5999755859375</ele>
        <time>2021-08-23T07:20:52.000Z</time>
      </trkpt>
      <trkpt lat="42.68516871146857738494873046875" lon="0.0690789520740509033203125">
        <ele>1527</ele>
        <time>2021-08-23T07:21:02.000Z</time>
      </trkpt>
      <trkpt lat="42.68514976836740970611572265625" lon="0.069088675081729888916015625">
        <ele>1525.800048828125</ele>
        <time>2021-08-23T07:21:08.000Z</time>
      </trkpt>
      <trkpt lat="42.68511121161282062530517578125" lon="0.069057829678058624267578125">
        <ele>1523</ele>
        <time>2021-08-23T07:21:14.000Z</time>
      </trkpt>
      <trkpt lat="42.685106433928012847900390625" lon="0.06903880275785923004150390625">
        <ele>1522.800048828125</ele>
        <time>2021-08-23T07:21:19.000Z</time>
      </trkpt>
      <trkpt lat="42.68509914167225360870361328125" lon="0.0689936242997646331787109375">
        <ele>1522.5999755859375</ele>
        <time>2021-08-23T07:21:24.000Z</time>
      </trkpt>
      <trkpt lat="42.68509612418711185455322265625" lon="0.0689770281314849853515625">
        <ele>1522.5999755859375</ele>
        <time>2021-08-23T07:21:30.000Z</time>
      </trkpt>
      <trkpt lat="42.6850462518632411956787109375" lon="0.06899102590978145599365234375">
        <ele>1519.199951171875</ele>
        <time>2021-08-23T07:21:58.000Z</time>
      </trkpt>
      <trkpt lat="42.68505153246223926544189453125" lon="0.06899404339492321014404296875">
        <ele>1519.4000244140625</ele>
        <time>2021-08-23T07:22:08.000Z</time>
      </trkpt>
      <trkpt lat="42.68511372618377208709716796875" lon="0.0689815543591976165771484375">
        <ele>1523.800048828125</ele>
        <time>2021-08-23T07:22:25.000Z</time>
      </trkpt>
      <trkpt lat="42.68513484857976436614990234375" lon="0.0689580850303173065185546875">
        <ele>1525.4000244140625</ele>
        <time>2021-08-23T07:22:28.000Z</time>
      </trkpt>
      <trkpt lat="42.68515261821448802947998046875" lon="0.06895733065903186798095703125">
        <ele>1526.5999755859375</ele>
        <time>2021-08-23T07:22:30.000Z</time>
      </trkpt>
      <trkpt lat="42.6851582340896129608154296875" lon="0.06895246915519237518310546875">
        <ele>1527</ele>
        <time>2021-08-23T07:22:31.000Z</time>
      </trkpt>
      <trkpt lat="42.68516569398343563079833984375" lon="0.068949200212955474853515625">
        <ele>1527.5999755859375</ele>
        <time>2021-08-23T07:22:32.000Z</time>
      </trkpt>
      <trkpt lat="42.68516133539378643035888671875" lon="0.06889815442264080047607421875">
        <ele>1527.5999755859375</ele>
        <time>2021-08-23T07:22:40.000Z</time>
      </trkpt>
      <trkpt lat="42.68515639007091522216796875" lon="0.0688836537301540374755859375">
        <ele>1527.4000244140625</ele>
        <time>2021-08-23T07:22:42.000Z</time>
      </trkpt>
      <trkpt lat="42.685151360929012298583984375" lon="0.0688722543418407440185546875">
        <ele>1527</ele>
        <time>2021-08-23T07:22:44.000Z</time>
      </trkpt>
      <trkpt lat="42.6851407997310161590576171875" lon="0.0688397325575351715087890625">
        <ele>1526.4000244140625</ele>
        <time>2021-08-23T07:22:46.000Z</time>
      </trkpt>
      <trkpt lat="42.68513568677008152008056640625" lon="0.068822801113128662109375">
        <ele>1526.199951171875</ele>
        <time>2021-08-23T07:22:47.000Z</time>
      </trkpt>
      <trkpt lat="42.68512428738176822662353515625" lon="0.06879472173750400543212890625">
        <ele>1525.4000244140625</ele>
        <time>2021-08-23T07:22:49.000Z</time>
      </trkpt>
      <trkpt lat="42.68512981943786144256591796875" lon="0.06867871619760990142822265625">
        <ele>1527.800048828125</ele>
        <time>2021-08-23T07:23:02.000Z</time>
      </trkpt>
      <trkpt lat="42.685131244361400604248046875" lon="0.06864015944302082061767578125">
        <ele>1528.5999755859375</ele>
        <time>2021-08-23T07:23:06.000Z</time>
      </trkpt>
      <trkpt lat="42.6851552166044712066650390625" lon="0.0685128383338451385498046875">
        <ele>1532.199951171875</ele>
        <time>2021-08-23T07:23:23.000Z</time>
      </trkpt>
      <trkpt lat="42.68517876975238323211669921875" lon="0.06840378977358341217041015625">
        <ele>1534.800048828125</ele>
        <time>2021-08-23T07:23:42.000Z</time>
      </trkpt>
      <trkpt lat="42.685184888541698455810546875" lon="0.0683834217488765716552734375">
        <ele>1535.4000244140625</ele>
        <time>2021-08-23T07:23:45.000Z</time>
      </trkpt>
      <trkpt lat="42.68518798984587192535400390625" lon="0.06837311200797557830810546875">
        <ele>1535.5999755859375</ele>
        <time>2021-08-23T07:23:46.000Z</time>
      </trkpt>
      <trkpt lat="42.6851937733590602874755859375" lon="0.0683696754276752471923828125">
        <ele>1536</ele>
        <time>2021-08-23T07:23:47.000Z</time>
      </trkpt>
      <trkpt lat="42.68524515442550182342529296875" lon="0.06828594021499156951904296875">
        <ele>1539.199951171875</ele>
        <time>2021-08-23T07:24:01.000Z</time>
      </trkpt>
      <trkpt lat="42.68527013249695301055908203125" lon="0.06823598407208919525146484375">
        <ele>1540.800048828125</ele>
        <time>2021-08-23T07:24:11.000Z</time>
      </trkpt>
      <trkpt lat="42.6852832920849323272705078125" lon="0.06820656359195709228515625">
        <ele>1541.800048828125</ele>
        <time>2021-08-23T07:24:19.000Z</time>
      </trkpt>
      <trkpt lat="42.6853919215500354766845703125" lon="0.06814889609813690185546875">
        <ele>1546.800048828125</ele>
        <time>2021-08-23T07:24:35.000Z</time>
      </trkpt>
      <trkpt lat="42.68546274863183498382568359375" lon="0.06818904541432857513427734375">
        <ele>1550.199951171875</ele>
        <time>2021-08-23T07:24:50.000Z</time>
      </trkpt>
      <trkpt lat="42.68555947579443454742431640625" lon="0.0682375766336917877197265625">
        <ele>1554.5999755859375</ele>
        <time>2021-08-23T07:25:14.000Z</time>
      </trkpt>
      <trkpt lat="42.6856393553316593170166015625" lon="0.06813640706241130828857421875">
        <ele>1557.5999755859375</ele>
        <time>2021-08-23T07:25:43.000Z</time>
      </trkpt>
      <trkpt lat="42.685672380030155181884765625" lon="0.0681594572961330413818359375">
        <ele>1559.4000244140625</ele>
        <time>2021-08-23T07:25:49.000Z</time>
      </trkpt>
      <trkpt lat="42.6857404410839080810546875" lon="0.06804923526942729949951171875">
        <ele>1561.5999755859375</ele>
        <time>2021-08-23T07:26:05.000Z</time>
      </trkpt>
      <trkpt lat="42.68578159622848033905029296875" lon="0.06800062023103237152099609375">
        <ele>1563.199951171875</ele>
        <time>2021-08-23T07:26:16.000Z</time>
      </trkpt>
      <trkpt lat="42.6857795007526874542236328125" lon="0.06799601018428802490234375">
        <ele>1563.199951171875</ele>
        <time>2021-08-23T07:26:17.000Z</time>
      </trkpt>
      <trkpt lat="42.68577891401946544647216796875" lon="0.06798653863370418548583984375">
        <ele>1563</ele>
        <time>2021-08-23T07:26:18.000Z</time>
      </trkpt>
      <trkpt lat="42.68577866256237030029296875" lon="0.0679800845682621002197265625">
        <ele>1563</ele>
        <time>2021-08-23T07:26:19.000Z</time>
      </trkpt>
      <trkpt lat="42.68577053211629390716552734375" lon="0.06792887113988399505615234375">
        <ele>1562.199951171875</ele>
        <time>2021-08-23T07:26:24.000Z</time>
      </trkpt>
      <trkpt lat="42.6857717894017696380615234375" lon="0.06790221668779850006103515625">
        <ele>1562.199951171875</ele>
        <time>2021-08-23T07:26:27.000Z</time>
      </trkpt>
      <trkpt lat="42.68576919101178646087646484375" lon="0.0676303915679454803466796875">
        <ele>1562</ele>
        <time>2021-08-23T07:26:56.000Z</time>
      </trkpt>
      <trkpt lat="42.6857362501323223114013671875" lon="0.06741128861904144287109375">
        <ele>1563.5999755859375</ele>
        <time>2021-08-23T07:27:07.000Z</time>
      </trkpt>
      <trkpt lat="42.68573465757071971893310546875" lon="0.06729268468916416168212890625">
        <ele>1564.199951171875</ele>
        <time>2021-08-23T07:27:16.000Z</time>
      </trkpt>
      <trkpt lat="42.68570884130895137786865234375" lon="0.06723023951053619384765625">
        <ele>1563.199951171875</ele>
        <time>2021-08-23T07:27:23.000Z</time>
      </trkpt>
      <trkpt lat="42.68570666201412677764892578125" lon="0.067049525678157806396484375">
        <ele>1564.800048828125</ele>
        <time>2021-08-23T07:27:37.000Z</time>
      </trkpt>
      <trkpt lat="42.685744799673557281494140625" lon="0.06692589260637760162353515625">
        <ele>1568.4000244140625</ele>
        <time>2021-08-23T07:27:50.000Z</time>
      </trkpt>
      <trkpt lat="42.685795091092586517333984375" lon="0.06692178547382354736328125">
        <ele>1571</ele>
        <time>2021-08-23T07:27:59.000Z</time>
      </trkpt>
      <trkpt lat="42.6858101785182952880859375" lon="0.0669239647686481475830078125">
        <ele>1571.800048828125</ele>
        <time>2021-08-23T07:28:01.000Z</time>
      </trkpt>
      <trkpt lat="42.68580137751996517181396484375" lon="0.0666081346571445465087890625">
        <ele>1575.800048828125</ele>
        <time>2021-08-23T07:28:50.000Z</time>
      </trkpt>
      <trkpt lat="42.685849405825138092041015625" lon="0.066503025591373443603515625">
        <ele>1579</ele>
        <time>2021-08-23T07:29:03.000Z</time>
      </trkpt>
      <trkpt lat="42.685960046947002410888671875" lon="0.06635039113461971282958984375">
        <ele>1585.800048828125</ele>
        <time>2021-08-23T07:29:34.000Z</time>
      </trkpt>
      <trkpt lat="42.68612190149724483489990234375" lon="0.06610044278204441070556640625">
        <ele>1593.5999755859375</ele>
        <time>2021-08-23T07:30:17.000Z</time>
      </trkpt>
      <trkpt lat="42.6861268468201160430908203125" lon="0.0660998560488224029541015625">
        <ele>1593.800048828125</ele>
        <time>2021-08-23T07:30:19.000Z</time>
      </trkpt>
      <trkpt lat="42.686145119369029998779296875" lon="0.0660515762865543365478515625">
        <ele>1594.4000244140625</ele>
        <time>2021-08-23T07:30:37.000Z</time>
      </trkpt>
      <trkpt lat="42.686158530414104461669921875" lon="0.06592140533030033111572265625">
        <ele>1594.5999755859375</ele>
        <time>2021-08-23T07:30:56.000Z</time>
      </trkpt>
      <trkpt lat="42.686160542070865631103515625" lon="0.06591889075934886932373046875">
        <ele>1594.5999755859375</ele>
        <time>2021-08-23T07:30:59.000Z</time>
      </trkpt>
      <trkpt lat="42.68615962006151676177978515625" lon="0.0659198127686977386474609375">
        <ele>1594.5999755859375</ele>
        <time>2021-08-23T07:31:01.000Z</time>
      </trkpt>
      <trkpt lat="42.686159871518611907958984375" lon="0.065920315682888031005859375">
        <ele>1594.5999755859375</ele>
        <time>2021-08-23T07:31:04.000Z</time>
      </trkpt>
      <trkpt lat="42.686156518757343292236328125" lon="0.0659157894551753997802734375">
        <ele>1594.5999755859375</ele>
        <time>2021-08-23T07:31:09.000Z</time>
      </trkpt>
      <trkpt lat="42.68613866530358791351318359375" lon="0.06590413860976696014404296875">
        <ele>1594</ele>
        <time>2021-08-23T07:31:19.000Z</time>
      </trkpt>
      <trkpt lat="42.68613950349390506744384765625" lon="0.065906234085559844970703125">
        <ele>1594</ele>
        <time>2021-08-23T07:31:25.000Z</time>
      </trkpt>
      <trkpt lat="42.68614117987453937530517578125" lon="0.065920986235141754150390625">
        <ele>1594</ele>
        <time>2021-08-23T07:31:30.000Z</time>
      </trkpt>
      <trkpt lat="42.68613363616168498992919921875" lon="0.06594202481210231781005859375">
        <ele>1593.800048828125</ele>
        <time>2021-08-23T07:31:33.000Z</time>
      </trkpt>
      <trkpt lat="42.68612994812428951263427734375" lon="0.06594487465918064117431640625">
        <ele>1593.800048828125</ele>
        <time>2021-08-23T07:31:34.000Z</time>
      </trkpt>
      <trkpt lat="42.68613162450492382049560546875" lon="0.0659501552581787109375">
        <ele>1593.800048828125</ele>
        <time>2021-08-23T07:31:38.000Z</time>
      </trkpt>
      <trkpt lat="42.6861325465142726898193359375" lon="0.06595258601009845733642578125">
        <ele>1593.800048828125</ele>
        <time>2021-08-23T07:31:43.000Z</time>
      </trkpt>
      <trkpt lat="42.686131037771701812744140625" lon="0.0659514963626861572265625">
        <ele>1593.800048828125</ele>
        <time>2021-08-23T07:31:44.000Z</time>
      </trkpt>
      <trkpt lat="42.686133719980716705322265625" lon="0.0659516640007495880126953125">
        <ele>1594</ele>
        <time>2021-08-23T07:31:46.000Z</time>
      </trkpt>
      <trkpt lat="42.686120979487895965576171875" lon="0.06594487465918064117431640625">
        <ele>1593.4000244140625</ele>
        <time>2021-08-23T07:31:55.000Z</time>
      </trkpt>
      <trkpt lat="42.68613212741911411285400390625" lon="0.06595459766685962677001953125">
        <ele>1593.800048828125</ele>
        <time>2021-08-23T07:32:00.000Z</time>
      </trkpt>
      <trkpt lat="42.68615995533764362335205078125" lon="0.06596616469323635101318359375">
        <ele>1594.800048828125</ele>
        <time>2021-08-23T07:32:36.000Z</time>
      </trkpt>
      <trkpt lat="42.686178646981716156005859375" lon="0.06595359183847904205322265625">
        <ele>1595.4000244140625</ele>
        <time>2021-08-23T07:32:46.000Z</time>
      </trkpt>
      <trkpt lat="42.68617093563079833984375" lon="0.0659784860908985137939453125">
        <ele>1595.199951171875</ele>
        <time>2021-08-23T07:32:51.000Z</time>
      </trkpt>
      <trkpt lat="42.686176635324954986572265625" lon="0.0659895502030849456787109375">
        <ele>1595.5999755859375</ele>
        <time>2021-08-23T07:32:53.000Z</time>
      </trkpt>
      <trkpt lat="42.6861838437616825103759765625" lon="0.06599348969757556915283203125">
        <ele>1595.800048828125</ele>
        <time>2021-08-23T07:32:55.000Z</time>
      </trkpt>
      <trkpt lat="42.68616213463246822357177734375" lon="0.06591486744582653045654296875">
        <ele>1594.800048828125</ele>
        <time>2021-08-23T07:33:24.000Z</time>
      </trkpt>
      <trkpt lat="42.6861751265823841094970703125" lon="0.06590279750525951385498046875">
        <ele>1595.199951171875</ele>
        <time>2021-08-23T07:33:28.000Z</time>
      </trkpt>
      <trkpt lat="42.68617856316268444061279296875" lon="0.06590179167687892913818359375">
        <ele>1595.4000244140625</ele>
        <time>2021-08-23T07:33:31.000Z</time>
      </trkpt>
      <trkpt lat="42.68618007190525531768798828125" lon="0.06590061821043491363525390625">
        <ele>1595.4000244140625</ele>
        <time>2021-08-23T07:33:34.000Z</time>
      </trkpt>
      <trkpt lat="42.68618023954331874847412109375" lon="0.06590112112462520599365234375">
        <ele>1595.4000244140625</ele>
        <time>2021-08-23T07:33:38.000Z</time>
      </trkpt>
      <trkpt lat="42.68618208356201648712158203125" lon="0.0659007020294666290283203125">
        <ele>1595.4000244140625</ele>
        <time>2021-08-23T07:33:45.000Z</time>
      </trkpt>
      <trkpt lat="42.68620236776769161224365234375" lon="0.0658953376114368438720703125">
        <ele>1596.199951171875</ele>
        <time>2021-08-23T07:33:53.000Z</time>
      </trkpt>
      <trkpt lat="42.6862800680100917816162109375" lon="0.06576617248356342315673828125">
        <ele>1598.4000244140625</ele>
        <time>2021-08-23T07:34:09.000Z</time>
      </trkpt>
      <trkpt lat="42.686283588409423828125" lon="0.0657052360475063323974609375">
        <ele>1597.800048828125</ele>
        <time>2021-08-23T07:34:13.000Z</time>
      </trkpt>
      <trkpt lat="42.68629456870257854461669921875" lon="0.06567447446286678314208984375">
        <ele>1598.199951171875</ele>
        <time>2021-08-23T07:34:16.000Z</time>
      </trkpt>
      <trkpt lat="42.6863105781376361846923828125" lon="0.0656334869563579559326171875">
        <ele>1598.5999755859375</ele>
        <time>2021-08-23T07:34:20.000Z</time>
      </trkpt>
      <trkpt lat="42.68636430613696575164794921875" lon="0.06554623134434223175048828125">
        <ele>1599.5999755859375</ele>
        <time>2021-08-23T07:34:30.000Z</time>
      </trkpt>
      <trkpt lat="42.68637436442077159881591796875" lon="0.0655422918498516082763671875">
        <ele>1599.800048828125</ele>
        <time>2021-08-23T07:34:31.000Z</time>
      </trkpt>
      <trkpt lat="42.6863786391913890838623046875" lon="0.06553432904183864593505859375">
        <ele>1600</ele>
        <time>2021-08-23T07:34:32.000Z</time>
      </trkpt>
      <trkpt lat="42.68639397807419300079345703125" lon="0.06548739038407802581787109375">
        <ele>1600</ele>
        <time>2021-08-23T07:34:37.000Z</time>
      </trkpt>
      <trkpt lat="42.68640537746250629425048828125" lon="0.06547096185386180877685546875">
        <ele>1600.199951171875</ele>
        <time>2021-08-23T07:34:39.000Z</time>
      </trkpt>
      <trkpt lat="42.6864530704915523529052734375" lon="0.06535612978041172027587890625">
        <ele>1601.800048828125</ele>
        <time>2021-08-23T07:34:50.000Z</time>
      </trkpt>
      <trkpt lat="42.68649422563612461090087890625" lon="0.0652904994785785675048828125">
        <ele>1603.800048828125</ele>
        <time>2021-08-23T07:35:03.000Z</time>
      </trkpt>
      <trkpt lat="42.68651895225048065185546875" lon="0.06521950475871562957763671875">
        <ele>1605</ele>
        <time>2021-08-23T07:35:10.000Z</time>
      </trkpt>
      <trkpt lat="42.6865947246551513671875" lon="0.06512026302516460418701171875">
        <ele>1607.199951171875</ele>
        <time>2021-08-23T07:35:24.000Z</time>
      </trkpt>
      <trkpt lat="42.68661660142242908477783203125" lon="0.06510936655104160308837890625">
        <ele>1608</ele>
        <time>2021-08-23T07:35:31.000Z</time>
      </trkpt>
      <trkpt lat="42.68663537688553333282470703125" lon="0.06510634906589984893798828125">
        <ele>1608.5999755859375</ele>
        <time>2021-08-23T07:35:40.000Z</time>
      </trkpt>
      <trkpt lat="42.6866200380027294158935546875" lon="0.0651446543633937835693359375">
        <ele>1607.800048828125</ele>
        <time>2021-08-23T07:37:33.000Z</time>
      </trkpt>
      <trkpt lat="42.68662531860172748565673828125" lon="0.065135098993778228759765625">
        <ele>1608.199951171875</ele>
        <time>2021-08-23T07:38:15.000Z</time>
      </trkpt>
      <trkpt lat="42.68662464804947376251220703125" lon="0.0651468336582183837890625">
        <ele>1608</ele>
        <time>2021-08-23T07:38:22.000Z</time>
      </trkpt>
      <trkpt lat="42.6866362988948822021484375" lon="0.06514339707791805267333984375">
        <ele>1608.4000244140625</ele>
        <time>2021-08-23T07:38:27.000Z</time>
      </trkpt>
      <trkpt lat="42.68664225004613399505615234375" lon="0.0651443190872669219970703125">
        <ele>1608.5999755859375</ele>
        <time>2021-08-23T07:38:32.000Z</time>
      </trkpt>
      <trkpt lat="42.68660285510122776031494140625" lon="0.06511531770229339599609375">
        <ele>1607.5999755859375</ele>
        <time>2021-08-23T07:39:00.000Z</time>
      </trkpt>
      <trkpt lat="42.686602771282196044921875" lon="0.065117664635181427001953125">
        <ele>1607.5999755859375</ele>
        <time>2021-08-23T07:39:01.000Z</time>
      </trkpt>
      <trkpt lat="42.6866052858531475067138671875" lon="0.06512361578643321990966796875">
        <ele>1607.5999755859375</ele>
        <time>2021-08-23T07:39:02.000Z</time>
      </trkpt>
      <trkpt lat="42.68660637550055980682373046875" lon="0.06512981839478015899658203125">
        <ele>1607.5999755859375</ele>
        <time>2021-08-23T07:39:05.000Z</time>
      </trkpt>
      <trkpt lat="42.68660453148186206817626953125" lon="0.06512965075671672821044921875">
        <ele>1607.5999755859375</ele>
        <time>2021-08-23T07:39:07.000Z</time>
      </trkpt>
      <trkpt lat="42.68660419620573520660400390625" lon="0.06512830965220928192138671875">
        <ele>1607.5999755859375</ele>
        <time>2021-08-23T07:39:10.000Z</time>
      </trkpt>
      <trkpt lat="42.6866066269576549530029296875" lon="0.06510986946523189544677734375">
        <ele>1607.800048828125</ele>
        <time>2021-08-23T07:39:30.000Z</time>
      </trkpt>
      <trkpt lat="42.68661014735698699951171875" lon="0.0651185028254985809326171875">
        <ele>1607.800048828125</ele>
        <time>2021-08-23T07:39:33.000Z</time>
      </trkpt>
      <trkpt lat="42.68661241047084331512451171875" lon="0.0651107914745807647705078125">
        <ele>1607.800048828125</ele>
        <time>2021-08-23T07:39:41.000Z</time>
      </trkpt>
      <trkpt lat="42.6866183616220951080322265625" lon="0.0651221908628940582275390625">
        <ele>1608</ele>
        <time>2021-08-23T07:40:35.000Z</time>
      </trkpt>
      <trkpt lat="42.68661375157535076141357421875" lon="0.0651325844228267669677734375">
        <ele>1607.800048828125</ele>
        <time>2021-08-23T07:40:48.000Z</time>
      </trkpt>
      <trkpt lat="42.68662012182176113128662109375" lon="0.065137781202793121337890625">
        <ele>1608</ele>
        <time>2021-08-23T07:40:59.000Z</time>
      </trkpt>
      <trkpt lat="42.686627246439456939697265625" lon="0.06513736210763454437255859375">
        <ele>1608.199951171875</ele>
        <time>2021-08-23T07:41:04.000Z</time>
      </trkpt>
      <trkpt lat="42.68661006353795528411865234375" lon="0.065120346844196319580078125">
        <ele>1607.800048828125</ele>
        <time>2021-08-23T07:41:09.000Z</time>
      </trkpt>
      <trkpt lat="42.686605788767337799072265625" lon="0.0651174969971179962158203125">
        <ele>1607.5999755859375</ele>
        <time>2021-08-23T07:41:11.000Z</time>
      </trkpt>
      <trkpt lat="42.68660687841475009918212890625" lon="0.06511640734970569610595703125">
        <ele>1607.5999755859375</ele>
        <time>2021-08-23T07:41:12.000Z</time>
      </trkpt>
      <trkpt lat="42.68660436384379863739013671875" lon="0.06511489860713481903076171875">
        <ele>1607.5999755859375</ele>
        <time>2021-08-23T07:41:26.000Z</time>
      </trkpt>
      <trkpt lat="42.686589024960994720458984375" lon="0.06513032130897045135498046875">
        <ele>1607</ele>
        <time>2021-08-23T07:42:08.000Z</time>
      </trkpt>
      <trkpt lat="42.68658961169421672821044921875" lon="0.06512713618576526641845703125">
        <ele>1607</ele>
        <time>2021-08-23T07:42:09.000Z</time>
      </trkpt>
      <trkpt lat="42.68659430555999279022216796875" lon="0.06511288695037364959716796875">
        <ele>1607.199951171875</ele>
        <time>2021-08-23T07:42:15.000Z</time>
      </trkpt>
      <trkpt lat="42.68660503439605236053466796875" lon="0.06510936655104160308837890625">
        <ele>1607.5999755859375</ele>
        <time>2021-08-23T07:42:21.000Z</time>
      </trkpt>
      <trkpt lat="42.6865979097783565521240234375" lon="0.0651037506759166717529296875">
        <ele>1607.4000244140625</ele>
        <time>2021-08-23T07:42:26.000Z</time>
      </trkpt>
      <trkpt lat="42.6865962333977222442626953125" lon="0.06510316394269466400146484375">
        <ele>1607.4000244140625</ele>
        <time>2021-08-23T07:42:28.000Z</time>
      </trkpt>
      <trkpt lat="42.68660436384379863739013671875" lon="0.06510098464787006378173828125">
        <ele>1607.800048828125</ele>
        <time>2021-08-23T07:42:33.000Z</time>
      </trkpt>
      <trkpt lat="42.6866166852414608001708984375" lon="0.064940638840198516845703125">
        <ele>1609.199951171875</ele>
        <time>2021-08-23T07:42:49.000Z</time>
      </trkpt>
      <trkpt lat="42.6866133324801921844482421875" lon="0.0648375414311885833740234375">
        <ele>1610.199951171875</ele>
        <time>2021-08-23T07:42:58.000Z</time>
      </trkpt>
      <trkpt lat="42.68661995418369770050048828125" lon="0.06474844180047512054443359375">
        <ele>1611.5999755859375</ele>
        <time>2021-08-23T07:43:06.000Z</time>
      </trkpt>
      <trkpt lat="42.686580307781696319580078125" lon="0.0644462741911411285400390625">
        <ele>1615.199951171875</ele>
        <time>2021-08-23T07:43:38.000Z</time>
      </trkpt>
      <trkpt lat="42.68655926920473575592041015625" lon="0.06430604495108127593994140625">
        <ele>1616.800048828125</ele>
        <time>2021-08-23T07:43:50.000Z</time>
      </trkpt>
      <trkpt lat="42.68657083623111248016357421875" lon="0.06407738663256168365478515625">
        <ele>1620</ele>
        <time>2021-08-23T07:44:13.000Z</time>
      </trkpt>
      <trkpt lat="42.6867829822003841400146484375" lon="0.06356961093842983245849609375">
        <ele>1630</ele>
        <time>2021-08-23T07:45:30.000Z</time>
      </trkpt>
      <trkpt lat="42.686788178980350494384765625" lon="0.06357531063258647918701171875">
        <ele>1630</ele>
        <time>2021-08-23T07:45:31.000Z</time>
      </trkpt>
      <trkpt lat="42.68679480068385601043701171875" lon="0.06356910802423954010009765625">
        <ele>1630.4000244140625</ele>
        <time>2021-08-23T07:45:33.000Z</time>
      </trkpt>
      <trkpt lat="42.68680016510188579559326171875" lon="0.063557960093021392822265625">
        <ele>1630.5999755859375</ele>
        <time>2021-08-23T07:45:35.000Z</time>
      </trkpt>
      <trkpt lat="42.686842493712902069091796875" lon="0.06350305862724781036376953125">
        <ele>1632.4000244140625</ele>
        <time>2021-08-23T07:45:50.000Z</time>
      </trkpt>
      <trkpt lat="42.6868543960154056549072265625" lon="0.06349802948534488677978515625">
        <ele>1632.800048828125</ele>
        <time>2021-08-23T07:45:52.000Z</time>
      </trkpt>
      <trkpt lat="42.6869261451065540313720703125" lon="0.06339124403893947601318359375">
        <ele>1636.199951171875</ele>
        <time>2021-08-23T07:46:11.000Z</time>
      </trkpt>
      <trkpt lat="42.68693008460104465484619140625" lon="0.0633787550032138824462890625">
        <ele>1636.5999755859375</ele>
        <time>2021-08-23T07:46:13.000Z</time>
      </trkpt>
      <trkpt lat="42.68693041987717151641845703125" lon="0.06337464787065982818603515625">
        <ele>1636.5999755859375</ele>
        <time>2021-08-23T07:46:14.000Z</time>
      </trkpt>
      <trkpt lat="42.68693326972424983978271484375" lon="0.06335704587399959564208984375">
        <ele>1636.800048828125</ele>
        <time>2021-08-23T07:46:17.000Z</time>
      </trkpt>
      <trkpt lat="42.6869348622858524322509765625" lon="0.06335436366498470306396484375">
        <ele>1637</ele>
        <time>2021-08-23T07:46:18.000Z</time>
      </trkpt>
      <trkpt lat="42.68693444319069385528564453125" lon="0.0633465684950351715087890625">
        <ele>1637</ele>
        <time>2021-08-23T07:46:19.000Z</time>
      </trkpt>
      <trkpt lat="42.6869402267038822174072265625" lon="0.06326459348201751708984375">
        <ele>1638</ele>
        <time>2021-08-23T07:46:29.000Z</time>
      </trkpt>
      <trkpt lat="42.68696688115596771240234375" lon="0.06318052299320697784423828125">
        <ele>1639.800048828125</ele>
        <time>2021-08-23T07:46:40.000Z</time>
      </trkpt>
      <trkpt lat="42.68699881620705127716064453125" lon="0.06308622658252716064453125">
        <ele>1641.4000244140625</ele>
        <time>2021-08-23T07:46:53.000Z</time>
      </trkpt>
      <trkpt lat="42.68712379038333892822265625" lon="0.0628309138119220733642578125">
        <ele>1649.4000244140625</ele>
        <time>2021-08-23T07:47:46.000Z</time>
      </trkpt>
      <trkpt lat="42.68714164383709430694580078125" lon="0.06277768872678279876708984375">
        <ele>1651.199951171875</ele>
        <time>2021-08-23T07:47:52.000Z</time>
      </trkpt>
      <trkpt lat="42.68718170933425426483154296875" lon="0.0626669637858867645263671875">
        <ele>1655.199951171875</ele>
        <time>2021-08-23T07:48:03.000Z</time>
      </trkpt>
      <trkpt lat="42.6872124709188938140869140625" lon="0.06259865127503871917724609375">
        <ele>1658</ele>
        <time>2021-08-23T07:48:12.000Z</time>
      </trkpt>
      <trkpt lat="42.6872879080474376678466796875" lon="0.06251064129173755645751953125">
        <ele>1661.5999755859375</ele>
        <time>2021-08-23T07:48:26.000Z</time>
      </trkpt>
      <trkpt lat="42.687134183943271636962890625" lon="0.0620356388390064239501953125">
        <ele>1664.800048828125</ele>
        <time>2021-08-23T07:49:32.000Z</time>
      </trkpt>
      <trkpt lat="42.68714583478868007659912109375" lon="0.0618787296116352081298828125">
        <ele>1667.5999755859375</ele>
        <time>2021-08-23T07:49:52.000Z</time>
      </trkpt>
      <trkpt lat="42.68714667297899723052978515625" lon="0.06187194027006626129150390625">
        <ele>1667.800048828125</ele>
        <time>2021-08-23T07:49:53.000Z</time>
      </trkpt>
      <trkpt lat="42.68715329468250274658203125" lon="0.06185098551213741302490234375">
        <ele>1668.199951171875</ele>
        <time>2021-08-23T07:49:57.000Z</time>
      </trkpt>
      <trkpt lat="42.68715974874794483184814453125" lon="0.0618431903421878814697265625">
        <ele>1668.5999755859375</ele>
        <time>2021-08-23T07:50:00.000Z</time>
      </trkpt>
      <trkpt lat="42.6871651969850063323974609375" lon="0.06183573044836521148681640625">
        <ele>1668.800048828125</ele>
        <time>2021-08-23T07:50:02.000Z</time>
      </trkpt>
      <trkpt lat="42.6871486008167266845703125" lon="0.06169608794152736663818359375">
        <ele>1671.5999755859375</ele>
        <time>2021-08-23T07:50:15.000Z</time>
      </trkpt>
      <trkpt lat="42.68714264966547489166259765625" lon="0.06166842766106128692626953125">
        <ele>1672</ele>
        <time>2021-08-23T07:50:17.000Z</time>
      </trkpt>
      <trkpt lat="42.6871252991259098052978515625" lon="0.06158058531582355499267578125">
        <ele>1673.4000244140625</ele>
        <time>2021-08-23T07:50:24.000Z</time>
      </trkpt>
      <trkpt lat="42.6871075294911861419677734375" lon="0.06147279404103755950927734375">
        <ele>1675.199951171875</ele>
        <time>2021-08-23T07:50:35.000Z</time>
      </trkpt>
      <trkpt lat="42.6871269755065441131591796875" lon="0.0613979436457157135009765625">
        <ele>1677.4000244140625</ele>
        <time>2021-08-23T07:50:42.000Z</time>
      </trkpt>
      <trkpt lat="42.6870991475880146026611328125" lon="0.060968957841396331787109375">
        <ele>1687.4000244140625</ele>
        <time>2021-08-23T07:51:23.000Z</time>
      </trkpt>
      <trkpt lat="42.68709403462707996368408203125" lon="0.06096015684306621551513671875">
        <ele>1687.4000244140625</ele>
        <time>2021-08-23T07:51:24.000Z</time>
      </trkpt>
      <trkpt lat="42.6870555616915225982666015625" lon="0.06090751849114894866943359375">
        <ele>1687.199951171875</ele>
        <time>2021-08-23T07:51:31.000Z</time>
      </trkpt>
      <trkpt lat="42.6869549788534641265869140625" lon="0.06072596646845340728759765625">
        <ele>1687.5999755859375</ele>
        <time>2021-08-23T07:51:52.000Z</time>
      </trkpt>
      <trkpt lat="42.6868604309856891632080078125" lon="0.060640387237071990966796875">
        <ele>1686.800048828125</ele>
        <time>2021-08-23T07:52:05.000Z</time>
      </trkpt>
      <trkpt lat="42.68654485233128070831298828125" lon="0.06038121879100799560546875">
        <ele>1687.800048828125</ele>
        <time>2021-08-23T07:52:49.000Z</time>
      </trkpt>
      <trkpt lat="42.68652708269655704498291015625" lon="0.0601745210587978363037109375">
        <ele>1693.800048828125</ele>
        <time>2021-08-23T07:53:20.000Z</time>
      </trkpt>
      <trkpt lat="42.6866374723613262176513671875" lon="0.06002322770655155181884765625">
        <ele>1703.199951171875</ele>
        <time>2021-08-23T07:54:01.000Z</time>
      </trkpt>
      <trkpt lat="42.68663587979972362518310546875" lon="0.06000981666147708892822265625">
        <ele>1704</ele>
        <time>2021-08-23T07:54:09.000Z</time>
      </trkpt>
      <trkpt lat="42.6866435073316097259521484375" lon="0.06004233844578266143798828125">
        <ele>1702.4000244140625</ele>
        <time>2021-08-23T07:54:13.000Z</time>
      </trkpt>
      <trkpt lat="42.686649374663829803466796875" lon="0.06006203591823577880859375">
        <ele>1701.5999755859375</ele>
        <time>2021-08-23T07:54:15.000Z</time>
      </trkpt>
      <trkpt lat="42.686664797365665435791015625" lon="0.060030519962310791015625">
        <ele>1704.4000244140625</ele>
        <time>2021-08-23T07:54:20.000Z</time>
      </trkpt>
      <trkpt lat="42.68676110543310642242431640625" lon="0.05989716388285160064697265625">
        <ele>1717.5999755859375</ele>
        <time>2021-08-23T07:54:50.000Z</time>
      </trkpt>
      <trkpt lat="42.6867849938571453094482421875" lon="0.05989682860672473907470703125">
        <ele>1718.5999755859375</ele>
        <time>2021-08-23T07:54:56.000Z</time>
      </trkpt>
      <trkpt lat="42.68679932691156864166259765625" lon="0.059875957667827606201171875">
        <ele>1719.800048828125</ele>
        <time>2021-08-23T07:55:00.000Z</time>
      </trkpt>
      <trkpt lat="42.68680804409086704254150390625" lon="0.05991183221340179443359375">
        <ele>1719.4000244140625</ele>
        <time>2021-08-23T07:55:12.000Z</time>
      </trkpt>
      <trkpt lat="42.6868198625743389129638671875" lon="0.05990940146148204803466796875">
        <ele>1720</ele>
        <time>2021-08-23T07:55:20.000Z</time>
      </trkpt>
      <trkpt lat="42.6868393085896968841552734375" lon="0.0597799010574817657470703125">
        <ele>1726.199951171875</ele>
        <time>2021-08-23T07:55:35.000Z</time>
      </trkpt>
      <trkpt lat="42.68684492446482181549072265625" lon="0.059767663478851318359375">
        <ele>1727</ele>
        <time>2021-08-23T07:55:37.000Z</time>
      </trkpt>
      <trkpt lat="42.68697618506848812103271484375" lon="0.059646628797054290771484375">
        <ele>1735</ele>
        <time>2021-08-23T07:56:36.000Z</time>
      </trkpt>
      <trkpt lat="42.68698205240070819854736328125" lon="0.05966850556433200836181640625">
        <ele>1734.5999755859375</ele>
        <time>2021-08-23T07:56:41.000Z</time>
      </trkpt>
      <trkpt lat="42.6869932003319263458251953125" lon="0.05967034958302974700927734375">
        <ele>1734.800048828125</ele>
        <time>2021-08-23T07:56:44.000Z</time>
      </trkpt>
      <trkpt lat="42.68707559444010257720947265625" lon="0.05966180004179477691650390625">
        <ele>1740.199951171875</ele>
        <time>2021-08-23T07:56:57.000Z</time>
      </trkpt>
      <trkpt lat="42.68711029551923274993896484375" lon="0.05965794436633586883544921875">
        <ele>1742.199951171875</ele>
        <time>2021-08-23T07:57:14.000Z</time>
      </trkpt>
      <trkpt lat="42.68712219782173633575439453125" lon="0.05964587442576885223388671875">
        <ele>1743</ele>
        <time>2021-08-23T07:57:23.000Z</time>
      </trkpt>
      <trkpt lat="42.68713720142841339111328125" lon="0.0596223212778568267822265625">
        <ele>1744.199951171875</ele>
        <time>2021-08-23T07:57:31.000Z</time>
      </trkpt>
      <trkpt lat="42.68720333464443683624267578125" lon="0.059661380946636199951171875">
        <ele>1747</ele>
        <time>2021-08-23T07:57:53.000Z</time>
      </trkpt>
      <trkpt lat="42.68729939125478267669677734375" lon="0.05975131876766681671142578125">
        <ele>1750.199951171875</ele>
        <time>2021-08-23T07:58:11.000Z</time>
      </trkpt>
      <trkpt lat="42.68735085614025592803955078125" lon="0.05982692353427410125732421875">
        <ele>1751</ele>
        <time>2021-08-23T07:58:25.000Z</time>
      </trkpt>
      <trkpt lat="42.68740064464509487152099609375" lon="0.0599485449492931365966796875">
        <ele>1750.4000244140625</ele>
        <time>2021-08-23T07:59:07.000Z</time>
      </trkpt>
      <trkpt lat="42.687433920800685882568359375" lon="0.06004384718835353851318359375">
        <ele>1749.800048828125</ele>
        <time>2021-08-23T07:59:27.000Z</time>
      </trkpt>
      <trkpt lat="42.68743903376162052154541015625" lon="0.06007720716297626495361328125">
        <ele>1749.199951171875</ele>
        <time>2021-08-23T07:59:29.000Z</time>
      </trkpt>
      <trkpt lat="42.6874210126698017120361328125" lon="0.0602228008210659027099609375">
        <ele>1744.4000244140625</ele>
        <time>2021-08-23T07:59:47.000Z</time>
      </trkpt>
      <trkpt lat="42.68742042593657970428466796875" lon="0.06022355519235134124755859375">
        <ele>1744.4000244140625</ele>
        <time>2021-08-23T07:59:48.000Z</time>
      </trkpt>
      <trkpt lat="42.68742143176496028900146484375" lon="0.06021953187882900238037109375">
        <ele>1744.5999755859375</ele>
        <time>2021-08-23T07:59:51.000Z</time>
      </trkpt>
      <trkpt lat="42.68742377869784832000732421875" lon="0.06042187102138996124267578125">
        <ele>1736</ele>
        <time>2021-08-23T08:00:13.000Z</time>
      </trkpt>
      <trkpt lat="42.68747272901237010955810546875" lon="0.0605486892163753509521484375">
        <ele>1730.199951171875</ele>
        <time>2021-08-23T08:00:35.000Z</time>
      </trkpt>
      <trkpt lat="42.68752201460301876068115234375" lon="0.0605463422834873199462890625">
        <ele>1732.800048828125</ele>
        <time>2021-08-23T08:00:49.000Z</time>
      </trkpt>
      <trkpt lat="42.6875321567058563232421875" lon="0.06051826290786266326904296875">
        <ele>1735.199951171875</ele>
        <time>2021-08-23T08:00:54.000Z</time>
      </trkpt>
      <trkpt lat="42.68753643147647380828857421875" lon="0.06047719158232212066650390625">
        <ele>1738.199951171875</ele>
        <time>2021-08-23T08:00:58.000Z</time>
      </trkpt>
      <trkpt lat="42.68753685057163238525390625" lon="0.060471408069133758544921875">
        <ele>1738.5999755859375</ele>
        <time>2021-08-23T08:01:00.000Z</time>
      </trkpt>
      <trkpt lat="42.687557972967624664306640625" lon="0.0604129023849964141845703125">
        <ele>1743.199951171875</ele>
        <time>2021-08-23T08:01:13.000Z</time>
      </trkpt>
      <trkpt lat="42.6875665225088596343994140625" lon="0.06039069034159183502197265625">
        <ele>1744.4000244140625</ele>
        <time>2021-08-23T08:01:16.000Z</time>
      </trkpt>
      <trkpt lat="42.68761337734758853912353515625" lon="0.06041952408850193023681640625">
        <ele>1746.199951171875</ele>
        <time>2021-08-23T08:01:30.000Z</time>
      </trkpt>
      <trkpt lat="42.6876660995185375213623046875" lon="0.0604253076016902923583984375">
        <ele>1749.199951171875</ele>
        <time>2021-08-23T08:01:55.000Z</time>
      </trkpt>
      <trkpt lat="42.68772569485008716583251953125" lon="0.0604283250868320465087890625">
        <ele>1752.800048828125</ele>
        <time>2021-08-23T08:02:19.000Z</time>
      </trkpt>
      <trkpt lat="42.68773340620100498199462890625" lon="0.06042840890586376190185546875">
        <ele>1753.199951171875</ele>
        <time>2021-08-23T08:02:21.000Z</time>
      </trkpt>
      <trkpt lat="42.68773810006678104400634765625" lon="0.06042857654392719268798828125">
        <ele>1753.5999755859375</ele>
        <time>2021-08-23T08:02:22.000Z</time>
      </trkpt>
      <trkpt lat="42.68779559992253780364990234375" lon="0.06048155017197132110595703125">
        <ele>1755.199951171875</ele>
        <time>2021-08-23T08:02:34.000Z</time>
      </trkpt>
      <trkpt lat="42.68784354440867900848388671875" lon="0.0604315102100372314453125">
        <ele>1760.199951171875</ele>
        <time>2021-08-23T08:02:55.000Z</time>
      </trkpt>
      <trkpt lat="42.68786584027111530303955078125" lon="0.0604444183409214019775390625">
        <ele>1761.5999755859375</ele>
        <time>2021-08-23T08:03:03.000Z</time>
      </trkpt>
      <trkpt lat="42.68790925852954387664794921875" lon="0.06047233007848262786865234375">
        <ele>1764.4000244140625</ele>
        <time>2021-08-23T08:03:14.000Z</time>
      </trkpt>
      <trkpt lat="42.68792820163071155548095703125" lon="0.0604722462594509124755859375">
        <ele>1765.800048828125</ele>
        <time>2021-08-23T08:03:19.000Z</time>
      </trkpt>
      <trkpt lat="42.68793054856359958648681640625" lon="0.06047132425010204315185546875">
        <ele>1766.199951171875</ele>
        <time>2021-08-23T08:03:22.000Z</time>
      </trkpt>
      <trkpt lat="42.6879291236400604248046875" lon="0.060468725860118865966796875">
        <ele>1766</ele>
        <time>2021-08-23T08:03:23.000Z</time>
      </trkpt>
      <trkpt lat="42.6879313029348850250244140625" lon="0.06046772003173828125">
        <ele>1766.199951171875</ele>
        <time>2021-08-23T08:03:24.000Z</time>
      </trkpt>
      <trkpt lat="42.6879376731812953948974609375" lon="0.060466714203357696533203125">
        <ele>1766.800048828125</ele>
        <time>2021-08-23T08:03:25.000Z</time>
      </trkpt>
      <trkpt lat="42.6879505813121795654296875" lon="0.060460679233074188232421875">
        <ele>1768.199951171875</ele>
        <time>2021-08-23T08:03:28.000Z</time>
      </trkpt>
      <trkpt lat="42.687954269349575042724609375" lon="0.06046126596629619598388671875">
        <ele>1768.4000244140625</ele>
        <time>2021-08-23T08:03:29.000Z</time>
      </trkpt>
      <trkpt lat="42.68795670010149478912353515625" lon="0.06046109832823276519775390625">
        <ele>1768.5999755859375</ele>
        <time>2021-08-23T08:03:30.000Z</time>
      </trkpt>
      <trkpt lat="42.68835031427443027496337890625" lon="0.06062571890652179718017578125">
        <ele>1781.800048828125</ele>
        <time>2021-08-23T08:04:53.000Z</time>
      </trkpt>
      <trkpt lat="42.688374035060405731201171875" lon="0.0606834702193737030029296875">
        <ele>1780.5999755859375</ele>
        <time>2021-08-23T08:04:59.000Z</time>
      </trkpt>
      <trkpt lat="42.68837378360331058502197265625" lon="0.0606985576450824737548828125">
        <ele>1780.199951171875</ele>
        <time>2021-08-23T08:05:01.000Z</time>
      </trkpt>
      <trkpt lat="42.688365988433361053466796875" lon="0.06069126538932323455810546875">
        <ele>1780.199951171875</ele>
        <time>2021-08-23T08:05:18.000Z</time>
      </trkpt>
      <trkpt lat="42.68842105753719806671142578125" lon="0.06060115993022918701171875">
        <ele>1784.800048828125</ele>
        <time>2021-08-23T08:06:20.000Z</time>
      </trkpt>
      <trkpt lat="42.6884590275585651397705078125" lon="0.060648433864116668701171875">
        <ele>1784.5999755859375</ele>
        <time>2021-08-23T08:06:38.000Z</time>
      </trkpt>
      <trkpt lat="42.6884593628346920013427734375" lon="0.0606445781886577606201171875">
        <ele>1784.800048828125</ele>
        <time>2021-08-23T08:06:39.000Z</time>
      </trkpt>
      <trkpt lat="42.68846011720597743988037109375" lon="0.06062823347747325897216796875">
        <ele>1785.4000244140625</ele>
        <time>2021-08-23T08:06:42.000Z</time>
      </trkpt>
      <trkpt lat="42.68846849910914897918701171875" lon="0.06057224236428737640380859375">
        <ele>1787.4000244140625</ele>
        <time>2021-08-23T08:06:49.000Z</time>
      </trkpt>
      <trkpt lat="42.68849649466574192047119140625" lon="0.060529075562953948974609375">
        <ele>1790</ele>
        <time>2021-08-23T08:07:03.000Z</time>
      </trkpt>
      <trkpt lat="42.68852096982300281524658203125" lon="0.06057391874492168426513671875">
        <ele>1789.4000244140625</ele>
        <time>2021-08-23T08:07:09.000Z</time>
      </trkpt>
      <trkpt lat="42.688528932631015777587890625" lon="0.0606211088597774505615234375">
        <ele>1788</ele>
        <time>2021-08-23T08:07:13.000Z</time>
      </trkpt>
      <trkpt lat="42.68857494927942752838134765625" lon="0.06070367060601711273193359375">
        <ele>1787</ele>
        <time>2021-08-23T08:07:27.000Z</time>
      </trkpt>
      <trkpt lat="42.6885743625462055206298828125" lon="0.060704089701175689697265625">
        <ele>1787</ele>
        <time>2021-08-23T08:07:28.000Z</time>
      </trkpt>
      <trkpt lat="42.68858115188777446746826171875" lon="0.060679279267787933349609375">
        <ele>1788</ele>
        <time>2021-08-23T08:07:34.000Z</time>
      </trkpt>
      <trkpt lat="42.68858534283936023712158203125" lon="0.0606382079422473907470703125">
        <ele>1789.5999755859375</ele>
        <time>2021-08-23T08:07:39.000Z</time>
      </trkpt>
      <trkpt lat="42.688596658408641815185546875" lon="0.06063963286578655242919921875">
        <ele>1790</ele>
        <time>2021-08-23T08:07:48.000Z</time>
      </trkpt>
      <trkpt lat="42.68860093317925930023193359375" lon="0.06065019406378269195556640625">
        <ele>1789.800048828125</ele>
        <time>2021-08-23T08:07:49.000Z</time>
      </trkpt>
      <trkpt lat="42.68865306861698627471923828125" lon="0.06074390374124050140380859375">
        <ele>1788.199951171875</ele>
        <time>2021-08-23T08:07:59.000Z</time>
      </trkpt>
      <trkpt lat="42.6887337863445281982421875" lon="0.06070987321436405181884765625">
        <ele>1795.5999755859375</ele>
        <time>2021-08-23T08:08:19.000Z</time>
      </trkpt>
      <trkpt lat="42.6887406595051288604736328125" lon="0.06068640388548374176025390625">
        <ele>1797</ele>
        <time>2021-08-23T08:08:23.000Z</time>
      </trkpt>
      <trkpt lat="42.688744850456714630126953125" lon="0.06067802198231220245361328125">
        <ele>1797.800048828125</ele>
        <time>2021-08-23T08:08:25.000Z</time>
      </trkpt>
      <trkpt lat="42.6887829042971134185791015625" lon="0.06057710386812686920166015625">
        <ele>1804.800048828125</ele>
        <time>2021-08-23T08:08:39.000Z</time>
      </trkpt>
      <trkpt lat="42.6888053677976131439208984375" lon="0.0605235435068607330322265625">
        <ele>1808</ele>
        <time>2021-08-23T08:08:50.000Z</time>
      </trkpt>
      <trkpt lat="42.6887725107371807098388671875" lon="0.06044416688382625579833984375">
        <ele>1807.800048828125</ele>
        <time>2021-08-23T08:09:02.000Z</time>
      </trkpt>
      <trkpt lat="42.68876790069043636322021484375" lon="0.06043679080903530120849609375">
        <ele>1807.5999755859375</ele>
        <time>2021-08-23T08:09:03.000Z</time>
      </trkpt>
      <trkpt lat="42.6887644641101360321044921875" lon="0.06042757071554660797119140625">
        <ele>1807.800048828125</ele>
        <time>2021-08-23T08:09:04.000Z</time>
      </trkpt>
      <trkpt lat="42.68877175636589527130126953125" lon="0.0603921152651309967041015625">
        <ele>1809.199951171875</ele>
        <time>2021-08-23T08:09:08.000Z</time>
      </trkpt>
      <trkpt lat="42.68880343995988368988037109375" lon="0.06041499786078929901123046875">
        <ele>1810.5999755859375</ele>
        <time>2021-08-23T08:09:16.000Z</time>
      </trkpt>
      <trkpt lat="42.6888184435665607452392578125" lon="0.06040594540536403656005859375">
        <ele>1811.800048828125</ele>
        <time>2021-08-23T08:09:20.000Z</time>
      </trkpt>
      <trkpt lat="42.68883529119193553924560546875" lon="0.0604008324444293975830078125">
        <ele>1813</ele>
        <time>2021-08-23T08:09:24.000Z</time>
      </trkpt>
      <trkpt lat="42.68881835974752902984619140625" lon="0.0603103078901767730712890625">
        <ele>1814.5999755859375</ele>
        <time>2021-08-23T08:09:37.000Z</time>
      </trkpt>
      <trkpt lat="42.6888469420373439788818359375" lon="0.0602955557405948638916015625">
        <ele>1816.5999755859375</ele>
        <time>2021-08-23T08:09:44.000Z</time>
      </trkpt>
      <trkpt lat="42.68887015990912914276123046875" lon="0.0603049434721469879150390625">
        <ele>1817.5999755859375</ele>
        <time>2021-08-23T08:09:51.000Z</time>
      </trkpt>
      <trkpt lat="42.688884325325489044189453125" lon="0.06030016578733921051025390625">
        <ele>1818.5999755859375</ele>
        <time>2021-08-23T08:09:54.000Z</time>
      </trkpt>
      <trkpt lat="42.68888960592448711395263671875" lon="0.06029530428349971771240234375">
        <ele>1819</ele>
        <time>2021-08-23T08:09:55.000Z</time>
      </trkpt>
      <trkpt lat="42.68893369473516941070556640625" lon="0.06031223572790622711181640625">
        <ele>1821.199951171875</ele>
        <time>2021-08-23T08:10:02.000Z</time>
      </trkpt>
      <trkpt lat="42.688990272581577301025390625" lon="0.060304440557956695556640625">
        <ele>1825.800048828125</ele>
        <time>2021-08-23T08:10:13.000Z</time>
      </trkpt>
      <trkpt lat="42.6889837346971035003662109375" lon="0.060265548527240753173828125">
        <ele>1826.199951171875</ele>
        <time>2021-08-23T08:10:19.000Z</time>
      </trkpt>
      <trkpt lat="42.6890336908400058746337890625" lon="0.06016722880303859710693359375">
        <ele>1831.5999755859375</ele>
        <time>2021-08-23T08:10:47.000Z</time>
      </trkpt>
      <trkpt lat="42.68902891315519809722900390625" lon="0.06016119383275508880615234375">
        <ele>1831.199951171875</ele>
        <time>2021-08-23T08:10:48.000Z</time>
      </trkpt>
      <trkpt lat="42.68900125287473201751708984375" lon="0.06013311445713043212890625">
        <ele>1829.5999755859375</ele>
        <time>2021-08-23T08:10:53.000Z</time>
      </trkpt>
      <trkpt lat="42.6889636181294918060302734375" lon="0.060061700642108917236328125">
        <ele>1828</ele>
        <time>2021-08-23T08:11:07.000Z</time>
      </trkpt>
      <trkpt lat="42.6889699883759021759033203125" lon="0.060061030089855194091796875">
        <ele>1828.4000244140625</ele>
        <time>2021-08-23T08:11:10.000Z</time>
      </trkpt>
      <trkpt lat="42.68900477327406406402587890625" lon="0.06004032678902149200439453125">
        <ele>1831.199951171875</ele>
        <time>2021-08-23T08:11:21.000Z</time>
      </trkpt>
      <trkpt lat="42.689010389149188995361328125" lon="0.06004133261740207672119140625">
        <ele>1831.5999755859375</ele>
        <time>2021-08-23T08:11:22.000Z</time>
      </trkpt>
      <trkpt lat="42.689016424119472503662109375" lon="0.06004082970321178436279296875">
        <ele>1832</ele>
        <time>2021-08-23T08:11:23.000Z</time>
      </trkpt>
      <trkpt lat="42.68902547657489776611328125" lon="0.0600508041679859161376953125">
        <ele>1832.5999755859375</ele>
        <time>2021-08-23T08:11:25.000Z</time>
      </trkpt>
      <trkpt lat="42.68907484598457813262939453125" lon="0.060057677328586578369140625">
        <ele>1836</ele>
        <time>2021-08-23T08:11:38.000Z</time>
      </trkpt>
      <trkpt lat="42.689070403575897216796875" lon="0.0599465332925319671630859375">
        <ele>1836.800048828125</ele>
        <time>2021-08-23T08:12:04.000Z</time>
      </trkpt>
      <trkpt lat="42.68907518126070499420166015625" lon="0.05994401872158050537109375">
        <ele>1837.199951171875</ele>
        <time>2021-08-23T08:12:05.000Z</time>
      </trkpt>
      <trkpt lat="42.689164616167545318603515625" lon="0.0598714314401149749755859375">
        <ele>1843.800048828125</ele>
        <time>2021-08-23T08:12:32.000Z</time>
      </trkpt>
      <trkpt lat="42.689162604510784149169921875" lon="0.05986514501273632049560546875">
        <ele>1844.199951171875</ele>
        <time>2021-08-23T08:12:33.000Z</time>
      </trkpt>
      <trkpt lat="42.68913678824901580810546875" lon="0.05972935818135738372802734375">
        <ele>1849.4000244140625</ele>
        <time>2021-08-23T08:13:00.000Z</time>
      </trkpt>
      <trkpt lat="42.68913938663899898529052734375" lon="0.0597068108618259429931640625">
        <ele>1850.4000244140625</ele>
        <time>2021-08-23T08:13:03.000Z</time>
      </trkpt>
      <trkpt lat="42.68913905136287212371826171875" lon="0.0597014464437961578369140625">
        <ele>1850.5999755859375</ele>
        <time>2021-08-23T08:13:04.000Z</time>
      </trkpt>
      <trkpt lat="42.689140141010284423828125" lon="0.05968225188553333282470703125">
        <ele>1851.4000244140625</ele>
        <time>2021-08-23T08:13:07.000Z</time>
      </trkpt>
      <trkpt lat="42.68913134001195430755615234375" lon="0.05966180004179477691650390625">
        <ele>1851.800048828125</ele>
        <time>2021-08-23T08:13:12.000Z</time>
      </trkpt>
      <trkpt lat="42.68910116516053676605224609375" lon="0.05955769680440425872802734375">
        <ele>1854.5999755859375</ele>
        <time>2021-08-23T08:13:40.000Z</time>
      </trkpt>
      <trkpt lat="42.689096890389919281005859375" lon="0.059536993503570556640625">
        <ele>1855.199951171875</ele>
        <time>2021-08-23T08:13:44.000Z</time>
      </trkpt>
      <trkpt lat="42.68905523233115673065185546875" lon="0.0593758933246135711669921875">
        <ele>1859.800048828125</ele>
        <time>2021-08-23T08:14:27.000Z</time>
      </trkpt>
      <trkpt lat="42.68906143493950366973876953125" lon="0.05935736931860446929931640625">
        <ele>1860.800048828125</ele>
        <time>2021-08-23T08:14:33.000Z</time>
      </trkpt>
      <trkpt lat="42.68895448185503482818603515625" lon="0.05934177897870540618896484375">
        <ele>1856.800048828125</ele>
        <time>2021-08-23T08:15:16.000Z</time>
      </trkpt>
      <trkpt lat="42.68895464949309825897216796875" lon="0.05934596993029117584228515625">
        <ele>1856.5999755859375</ele>
        <time>2021-08-23T08:15:19.000Z</time>
      </trkpt>
      <trkpt lat="42.68895481713116168975830078125" lon="0.0593544356524944305419921875">
        <ele>1856.199951171875</ele>
        <time>2021-08-23T08:15:25.000Z</time>
      </trkpt>
      <trkpt lat="42.68895934335887432098388671875" lon="0.05935686640441417694091796875">
        <ele>1856.4000244140625</ele>
        <time>2021-08-23T08:15:28.000Z</time>
      </trkpt>
      <trkpt lat="42.68894509412348270416259765625" lon="0.05931772291660308837890625">
        <ele>1857.4000244140625</ele>
        <time>2021-08-23T08:15:38.000Z</time>
      </trkpt>
      <trkpt lat="42.68890343606472015380859375" lon="0.0592823512852191925048828125">
        <ele>1858.4000244140625</ele>
        <time>2021-08-23T08:15:48.000Z</time>
      </trkpt>
      <trkpt lat="42.6889056153595447540283203125" lon="0.05921873264014720916748046875">
        <ele>1861.4000244140625</ele>
        <time>2021-08-23T08:15:58.000Z</time>
      </trkpt>
      <trkpt lat="42.68893159925937652587890625" lon="0.05915653891861438751220703125">
        <ele>1864.5999755859375</ele>
        <time>2021-08-23T08:16:13.000Z</time>
      </trkpt>
      <trkpt lat="42.68895171582698822021484375" lon="0.05915720947086811065673828125">
        <ele>1865.199951171875</ele>
        <time>2021-08-23T08:16:16.000Z</time>
      </trkpt>
      <trkpt lat="42.68898616544902324676513671875" lon="0.0591586343944072723388671875">
        <ele>1866.5999755859375</ele>
        <time>2021-08-23T08:16:22.000Z</time>
      </trkpt>
      <trkpt lat="42.68900259397923946380615234375" lon="0.0591536052525043487548828125">
        <ele>1867.5999755859375</ele>
        <time>2021-08-23T08:16:25.000Z</time>
      </trkpt>
      <trkpt lat="42.68903218209743499755859375" lon="0.05907238461077213287353515625">
        <ele>1871.800048828125</ele>
        <time>2021-08-23T08:16:42.000Z</time>
      </trkpt>
      <trkpt lat="42.6890256442129611968994140625" lon="0.05906199105083942413330078125">
        <ele>1871.800048828125</ele>
        <time>2021-08-23T08:16:45.000Z</time>
      </trkpt>
      <trkpt lat="42.68900058232247829437255859375" lon="0.05901354365050792694091796875">
        <ele>1873.199951171875</ele>
        <time>2021-08-23T08:16:53.000Z</time>
      </trkpt>
      <trkpt lat="42.6889693178236484527587890625" lon="0.0589616596698760986328125">
        <ele>1875</ele>
        <time>2021-08-23T08:17:02.000Z</time>
      </trkpt>
      <trkpt lat="42.6889669708907604217529296875" lon="0.0589316524565219879150390625">
        <ele>1876.4000244140625</ele>
        <time>2021-08-23T08:17:06.000Z</time>
      </trkpt>
      <trkpt lat="42.6889257319271564483642578125" lon="0.05885629914700984954833984375">
        <ele>1879.199951171875</ele>
        <time>2021-08-23T08:17:18.000Z</time>
      </trkpt>
      <trkpt lat="42.68890083767473697662353515625" lon="0.0587318278849124908447265625">
        <ele>1885.4000244140625</ele>
        <time>2021-08-23T08:18:03.000Z</time>
      </trkpt>
      <trkpt lat="42.6888392306864261627197265625" lon="0.0586845539510250091552734375">
        <ele>1887.199951171875</ele>
        <time>2021-08-23T08:18:21.000Z</time>
      </trkpt>
      <trkpt lat="42.6888680644333362579345703125" lon="0.05868882872164249420166015625">
        <ele>1887.4000244140625</ele>
        <time>2021-08-23T08:18:28.000Z</time>
      </trkpt>
      <trkpt lat="42.688890360295772552490234375" lon="0.05866100080311298370361328125">
        <ele>1889.4000244140625</ele>
        <time>2021-08-23T08:18:33.000Z</time>
      </trkpt>
      <trkpt lat="42.68887795507907867431640625" lon="0.05860115401446819305419921875">
        <ele>1892.5999755859375</ele>
        <time>2021-08-23T08:18:46.000Z</time>
      </trkpt>
      <trkpt lat="42.6888543181121349334716796875" lon="0.05856527946889400482177734375">
        <ele>1894.4000244140625</ele>
        <time>2021-08-23T08:18:54.000Z</time>
      </trkpt>
      <trkpt lat="42.68884241580963134765625" lon="0.0585467554628849029541015625">
        <ele>1895.199951171875</ele>
        <time>2021-08-23T08:18:57.000Z</time>
      </trkpt>
      <trkpt lat="42.68883495591580867767333984375" lon="0.05851498804986476898193359375">
        <ele>1897</ele>
        <time>2021-08-23T08:19:03.000Z</time>
      </trkpt>
      <trkpt lat="42.68880696035921573638916015625" lon="0.0584354437887668609619140625">
        <ele>1901.4000244140625</ele>
        <time>2021-08-23T08:19:15.000Z</time>
      </trkpt>
      <trkpt lat="42.68880679272115230560302734375" lon="0.0584225356578826904296875">
        <ele>1902</ele>
        <time>2021-08-23T08:19:16.000Z</time>
      </trkpt>
      <trkpt lat="42.68873454071581363677978515625" lon="0.05826093256473541259765625">
        <ele>1911.4000244140625</ele>
        <time>2021-08-23T08:19:36.000Z</time>
      </trkpt>
      <trkpt lat="42.68859523348510265350341796875" lon="0.05824190564453601837158203125">
        <ele>1909.199951171875</ele>
        <time>2021-08-23T08:20:08.000Z</time>
      </trkpt>
      <trkpt lat="42.68856874667108058929443359375" lon="0.05826638080179691314697265625">
        <ele>1906.800048828125</ele>
        <time>2021-08-23T08:20:13.000Z</time>
      </trkpt>
      <trkpt lat="42.688561789691448211669921875" lon="0.0582694821059703826904296875">
        <ele>1906.4000244140625</ele>
        <time>2021-08-23T08:20:14.000Z</time>
      </trkpt>
      <trkpt lat="42.6884895376861095428466796875" lon="0.058243162930011749267578125">
        <ele>1906</ele>
        <time>2021-08-23T08:20:30.000Z</time>
      </trkpt>
      <trkpt lat="42.68851761706173419952392578125" lon="0.05819312296807765960693359375">
        <ele>1909.4000244140625</ele>
        <time>2021-08-23T08:20:39.000Z</time>
      </trkpt>
      <trkpt lat="42.6884922198951244354248046875" lon="0.05823235027492046356201171875">
        <ele>1906.800048828125</ele>
        <time>2021-08-23T08:20:47.000Z</time>
      </trkpt>
      <trkpt lat="42.68847000785171985626220703125" lon="0.05828767083585262298583984375">
        <ele>1902.800048828125</ele>
        <time>2021-08-23T08:20:54.000Z</time>
      </trkpt>
      <trkpt lat="42.6884566806256771087646484375" lon="0.0583003275096416473388671875">
        <ele>1901.800048828125</ele>
        <time>2021-08-23T08:20:57.000Z</time>
      </trkpt>
      <trkpt lat="42.688445113599300384521484375" lon="0.058292113244533538818359375">
        <ele>1902.199951171875</ele>
        <time>2021-08-23T08:21:05.000Z</time>
      </trkpt>
      <trkpt lat="42.68844620324671268463134765625" lon="0.05826537497341632843017578125">
        <ele>1903.4000244140625</ele>
        <time>2021-08-23T08:21:40.000Z</time>
      </trkpt>
      <trkpt lat="42.68844871781766414642333984375" lon="0.058269314467906951904296875">
        <ele>1903.199951171875</ele>
        <time>2021-08-23T08:22:13.000Z</time>
      </trkpt>
      <trkpt lat="42.68845072947442531585693359375" lon="0.05826772190630435943603515625">
        <ele>1903.4000244140625</ele>
        <time>2021-08-23T08:22:18.000Z</time>
      </trkpt>
      <trkpt lat="42.6884516514837741851806640625" lon="0.0582678057253360748291015625">
        <ele>1903.4000244140625</ele>
        <time>2021-08-23T08:22:19.000Z</time>
      </trkpt>
      <trkpt lat="42.68845257349312305450439453125" lon="0.05826755426824092864990234375">
        <ele>1903.4000244140625</ele>
        <time>2021-08-23T08:22:20.000Z</time>
      </trkpt>
      <trkpt lat="42.68845324404537677764892578125" lon="0.058267302811145782470703125">
        <ele>1903.4000244140625</ele>
        <time>2021-08-23T08:22:21.000Z</time>
      </trkpt>
      <trkpt lat="42.68845341168344020843505859375" lon="0.05826755426824092864990234375">
        <ele>1903.4000244140625</ele>
        <time>2021-08-23T08:22:22.000Z</time>
      </trkpt>
      <trkpt lat="42.6884553395211696624755859375" lon="0.0582678057253360748291015625">
        <ele>1903.5999755859375</ele>
        <time>2021-08-23T08:22:24.000Z</time>
      </trkpt>
      <trkpt lat="42.68843245692551136016845703125" lon="0.058268643915653228759765625">
        <ele>1903</ele>
        <time>2021-08-23T08:22:39.000Z</time>
      </trkpt>
      <trkpt lat="42.68845081329345703125" lon="0.0582999922335147857666015625">
        <ele>1901.800048828125</ele>
        <time>2021-08-23T08:22:43.000Z</time>
      </trkpt>
      <trkpt lat="42.68847051076591014862060546875" lon="0.0583204440772533416748046875">
        <ele>1901.199951171875</ele>
        <time>2021-08-23T08:22:52.000Z</time>
      </trkpt>
      <trkpt lat="42.68847671337425708770751953125" lon="0.05831415764987468719482421875">
        <ele>1901.5999755859375</ele>
        <time>2021-08-23T08:22:53.000Z</time>
      </trkpt>
      <trkpt lat="42.6884151063859462738037109375" lon="0.05826671607792377471923828125">
        <ele>1902.800048828125</ele>
        <time>2021-08-23T08:23:25.000Z</time>
      </trkpt>
      <trkpt lat="42.688416950404644012451171875" lon="0.05827006883919239044189453125">
        <ele>1902.800048828125</ele>
        <time>2021-08-23T08:23:28.000Z</time>
      </trkpt>
      <trkpt lat="42.68841837532818317413330078125" lon="0.05827576853334903717041015625">
        <ele>1902.5999755859375</ele>
        <time>2021-08-23T08:23:31.000Z</time>
      </trkpt>
      <trkpt lat="42.68842893652617931365966796875" lon="0.05827509798109531402587890625">
        <ele>1902.5999755859375</ele>
        <time>2021-08-23T08:23:44.000Z</time>
      </trkpt>
      <trkpt lat="42.6884295232594013214111328125" lon="0.05827375687658786773681640625">
        <ele>1902.800048828125</ele>
        <time>2021-08-23T08:23:57.000Z</time>
      </trkpt>
      <trkpt lat="42.6884288527071475982666015625" lon="0.05827124230563640594482421875">
        <ele>1902.800048828125</ele>
        <time>2021-08-23T08:23:59.000Z</time>
      </trkpt>
      <trkpt lat="42.6884271763265132904052734375" lon="0.0582711584866046905517578125">
        <ele>1902.800048828125</ele>
        <time>2021-08-23T08:24:01.000Z</time>
      </trkpt>
      <trkpt lat="42.68842692486941814422607421875" lon="0.05827258341014385223388671875">
        <ele>1902.800048828125</ele>
        <time>2021-08-23T08:24:03.000Z</time>
      </trkpt>
      <trkpt lat="42.68842809833586215972900390625" lon="0.05827275104820728302001953125">
        <ele>1902.800048828125</ele>
        <time>2021-08-23T08:24:05.000Z</time>
      </trkpt>
      <trkpt lat="42.68842994235455989837646484375" lon="0.05827459506690502166748046875">
        <ele>1902.800048828125</ele>
        <time>2021-08-23T08:24:08.000Z</time>
      </trkpt>
      <trkpt lat="42.6884288527071475982666015625" lon="0.05827434360980987548828125">
        <ele>1902.800048828125</ele>
        <time>2021-08-23T08:24:10.000Z</time>
      </trkpt>
      <trkpt lat="42.68842960707843303680419921875" lon="0.0582761876285076141357421875">
        <ele>1902.5999755859375</ele>
        <time>2021-08-23T08:24:11.000Z</time>
      </trkpt>
      <trkpt lat="42.68843078054487705230712890625" lon="0.05827476270496845245361328125">
        <ele>1902.800048828125</ele>
        <time>2021-08-23T08:24:12.000Z</time>
      </trkpt>
      <trkpt lat="42.68843178637325763702392578125" lon="0.05827090702950954437255859375">
        <ele>1902.800048828125</ele>
        <time>2021-08-23T08:24:13.000Z</time>
      </trkpt>
      <trkpt lat="42.6884306967258453369140625" lon="0.05827040411531925201416015625">
        <ele>1903</ele>
        <time>2021-08-23T08:24:14.000Z</time>
      </trkpt>
      <trkpt lat="42.68843111582100391387939453125" lon="0.05827006883919239044189453125">
        <ele>1903</ele>
        <time>2021-08-23T08:24:15.000Z</time>
      </trkpt>
      <trkpt lat="42.68843195401132106781005859375" lon="0.0582701526582241058349609375">
        <ele>1903</ele>
        <time>2021-08-23T08:24:16.000Z</time>
      </trkpt>
      <trkpt lat="42.6884332112967967987060546875" lon="0.05827040411531925201416015625">
        <ele>1903</ele>
        <time>2021-08-23T08:24:17.000Z</time>
      </trkpt>
      <trkpt lat="42.6884338818490505218505859375" lon="0.0582696497440338134765625">
        <ele>1903</ele>
        <time>2021-08-23T08:24:18.000Z</time>
      </trkpt>
      <trkpt lat="42.688434384763240814208984375" lon="0.05826897919178009033203125">
        <ele>1903</ele>
        <time>2021-08-23T08:24:19.000Z</time>
      </trkpt>
      <trkpt lat="42.6884368993341922760009765625" lon="0.0582748465240001678466796875">
        <ele>1902.800048828125</ele>
        <time>2021-08-23T08:24:21.000Z</time>
      </trkpt>
      <trkpt lat="42.68843664787709712982177734375" lon="0.05827895365655422210693359375">
        <ele>1902.5999755859375</ele>
        <time>2021-08-23T08:24:23.000Z</time>
      </trkpt>
      <trkpt lat="42.68842927180230617523193359375" lon="0.0582825578749179840087890625">
        <ele>1902.4000244140625</ele>
        <time>2021-08-23T08:24:27.000Z</time>
      </trkpt>
      <trkpt lat="42.68841636367142200469970703125" lon="0.0582621060311794281005859375">
        <ele>1903.199951171875</ele>
        <time>2021-08-23T08:24:30.000Z</time>
      </trkpt>
      <trkpt lat="42.6884110830724239349365234375" lon="0.05825749598443508148193359375">
        <ele>1903.199951171875</ele>
        <time>2021-08-23T08:24:31.000Z</time>
      </trkpt>
      <trkpt lat="42.68839909695088863372802734375" lon="0.0582483597099781036376953125">
        <ele>1903.5999755859375</ele>
        <time>2021-08-23T08:24:33.000Z</time>
      </trkpt>
      <trkpt lat="42.6883738674223423004150390625" lon="0.05814165808260440826416015625">
        <ele>1907.199951171875</ele>
        <time>2021-08-23T08:24:44.000Z</time>
      </trkpt>
      <trkpt lat="42.68836825154721736907958984375" lon="0.05813109688460826873779296875">
        <ele>1907.4000244140625</ele>
        <time>2021-08-23T08:24:45.000Z</time>
      </trkpt>
      <trkpt lat="42.688359953463077545166015625" lon="0.05811735056340694427490234375">
        <ele>1907.5999755859375</ele>
        <time>2021-08-23T08:24:47.000Z</time>
      </trkpt>
      <trkpt lat="42.68835701979696750640869140625" lon="0.058110393583774566650390625">
        <ele>1907.800048828125</ele>
        <time>2021-08-23T08:24:48.000Z</time>
      </trkpt>
      <trkpt lat="42.6883433572947978973388671875" lon="0.05808667279779911041259765625">
        <ele>1908.199951171875</ele>
        <time>2021-08-23T08:24:52.000Z</time>
      </trkpt>
      <trkpt lat="42.6883421838283538818359375" lon="0.05808399058878421783447265625">
        <ele>1908.199951171875</ele>
        <time>2021-08-23T08:24:53.000Z</time>
      </trkpt>
      <trkpt lat="42.688341177999973297119140625" lon="0.0580823980271816253662109375">
        <ele>1908.4000244140625</ele>
        <time>2021-08-23T08:24:54.000Z</time>
      </trkpt>
      <trkpt lat="42.68833958543837070465087890625" lon="0.0580847449600696563720703125">
        <ele>1908.199951171875</ele>
        <time>2021-08-23T08:24:57.000Z</time>
      </trkpt>
      <trkpt lat="42.68833941780030727386474609375" lon="0.05808524787425994873046875">
        <ele>1908.199951171875</ele>
        <time>2021-08-23T08:24:58.000Z</time>
      </trkpt>
      <trkpt lat="42.6883376576006412506103515625" lon="0.05808834917843341827392578125">
        <ele>1908</ele>
        <time>2021-08-23T08:24:59.000Z</time>
      </trkpt>
      <trkpt lat="42.688336484134197235107421875" lon="0.05809052847325801849365234375">
        <ele>1907.800048828125</ele>
        <time>2021-08-23T08:25:00.000Z</time>
      </trkpt>
      <trkpt lat="42.68833707086741924285888671875" lon="0.05810536444187164306640625">
        <ele>1907.199951171875</ele>
        <time>2021-08-23T08:25:03.000Z</time>
      </trkpt>
      <trkpt lat="42.68833925016224384307861328125" lon="0.0581222958862781524658203125">
        <ele>1906.5999755859375</ele>
        <time>2021-08-23T08:25:09.000Z</time>
      </trkpt>
      <trkpt lat="42.68834360875189304351806640625" lon="0.058130510151386260986328125">
        <ele>1906.5999755859375</ele>
        <time>2021-08-23T08:25:14.000Z</time>
      </trkpt>
      <trkpt lat="42.68833757378160953521728515625" lon="0.0581196136772632598876953125">
        <ele>1906.800048828125</ele>
        <time>2021-08-23T08:25:20.000Z</time>
      </trkpt>
      <trkpt lat="42.68833489157259464263916015625" lon="0.0581119023263454437255859375">
        <ele>1906.800048828125</ele>
        <time>2021-08-23T08:25:21.000Z</time>
      </trkpt>
      <trkpt lat="42.688333131372928619384765625" lon="0.05810670554637908935546875">
        <ele>1907</ele>
        <time>2021-08-23T08:25:22.000Z</time>
      </trkpt>
      <trkpt lat="42.68833187408745288848876953125" lon="0.05810444243252277374267578125">
        <ele>1907</ele>
        <time>2021-08-23T08:25:23.000Z</time>
      </trkpt>
      <trkpt lat="42.68833086825907230377197265625" lon="0.0581015087664127349853515625">
        <ele>1907.199951171875</ele>
        <time>2021-08-23T08:25:24.000Z</time>
      </trkpt>
      <trkpt lat="42.688330113887786865234375" lon="0.05810092203319072723388671875">
        <ele>1907.199951171875</ele>
        <time>2021-08-23T08:25:26.000Z</time>
      </trkpt>
      <trkpt lat="42.68833019770681858062744140625" lon="0.0581005029380321502685546875">
        <ele>1907.199951171875</ele>
        <time>2021-08-23T08:25:28.000Z</time>
      </trkpt>
      <trkpt lat="42.68833019770681858062744140625" lon="0.0581006705760955810546875">
        <ele>1907.199951171875</ele>
        <time>2021-08-23T08:25:30.000Z</time>
      </trkpt>
      <trkpt lat="42.6883296109735965728759765625" lon="0.05809731781482696533203125">
        <ele>1907.199951171875</ele>
        <time>2021-08-23T08:25:33.000Z</time>
      </trkpt>
      <trkpt lat="42.6883282698690891265869140625" lon="0.0580991618335247039794921875">
        <ele>1907.199951171875</ele>
        <time>2021-08-23T08:25:36.000Z</time>
      </trkpt>
      <trkpt lat="42.68833053298294544219970703125" lon="0.05809941329061985015869140625">
        <ele>1907.199951171875</ele>
        <time>2021-08-23T08:25:38.000Z</time>
      </trkpt>
      <trkpt lat="42.68833070062100887298583984375" lon="0.0580998323857784271240234375">
        <ele>1907.199951171875</ele>
        <time>2021-08-23T08:25:40.000Z</time>
      </trkpt>
      <trkpt lat="42.6883341372013092041015625" lon="0.05809891037642955780029296875">
        <ele>1907.4000244140625</ele>
        <time>2021-08-23T08:25:46.000Z</time>
      </trkpt>
      <trkpt lat="42.68833740614354610443115234375" lon="0.05810326896607875823974609375">
        <ele>1907.4000244140625</ele>
        <time>2021-08-23T08:25:52.000Z</time>
      </trkpt>
      <trkpt lat="42.68833539448678493499755859375" lon="0.05810611881315708160400390625">
        <ele>1907.199951171875</ele>
        <time>2021-08-23T08:25:58.000Z</time>
      </trkpt>
      <trkpt lat="42.68833220936357975006103515625" lon="0.0581165961921215057373046875">
        <ele>1906.5999755859375</ele>
        <time>2021-08-23T08:26:03.000Z</time>
      </trkpt>
      <trkpt lat="42.68833120353519916534423828125" lon="0.058115758001804351806640625">
        <ele>1906.5999755859375</ele>
        <time>2021-08-23T08:26:04.000Z</time>
      </trkpt>
      <trkpt lat="42.688331119716167449951171875" lon="0.05811550654470920562744140625">
        <ele>1906.5999755859375</ele>
        <time>2021-08-23T08:26:05.000Z</time>
      </trkpt>
      <trkpt lat="42.68833078444004058837890625" lon="0.0581162609159946441650390625">
        <ele>1906.5999755859375</ele>
        <time>2021-08-23T08:26:06.000Z</time>
      </trkpt>
      <trkpt lat="42.6883306168019771575927734375" lon="0.0581169314682483673095703125">
        <ele>1906.5999755859375</ele>
        <time>2021-08-23T08:26:07.000Z</time>
      </trkpt>
      <trkpt lat="42.68833304755389690399169921875" lon="0.05812087096273899078369140625">
        <ele>1906.4000244140625</ele>
        <time>2021-08-23T08:26:20.000Z</time>
      </trkpt>
      <trkpt lat="42.6883386634290218353271484375" lon="0.05814023315906524658203125">
        <ele>1906</ele>
        <time>2021-08-23T08:26:45.000Z</time>
      </trkpt>
      <trkpt lat="42.68833941780030727386474609375" lon="0.05814132280647754669189453125">
        <ele>1906</ele>
        <time>2021-08-23T08:26:48.000Z</time>
      </trkpt>
      <trkpt lat="42.6883346401154994964599609375" lon="0.0581464357674121856689453125">
        <ele>1905.5999755859375</ele>
        <time>2021-08-23T08:26:52.000Z</time>
      </trkpt>
      <trkpt lat="42.68833489157259464263916015625" lon="0.05812539719045162200927734375">
        <ele>1906.4000244140625</ele>
        <time>2021-08-23T08:27:18.000Z</time>
      </trkpt>
      <trkpt lat="42.6883346401154994964599609375" lon="0.0581256486475467681884765625">
        <ele>1906.4000244140625</ele>
        <time>2021-08-23T08:27:20.000Z</time>
      </trkpt>
      <trkpt lat="42.68833455629646778106689453125" lon="0.05812623538076877593994140625">
        <ele>1906.4000244140625</ele>
        <time>2021-08-23T08:27:21.000Z</time>
      </trkpt>
      <trkpt lat="42.68832919187843799591064453125" lon="0.05813897587358951568603515625">
        <ele>1905.5999755859375</ele>
        <time>2021-08-23T08:27:51.000Z</time>
      </trkpt>
      <trkpt lat="42.6883287727832794189453125" lon="0.0581393949687480926513671875">
        <ele>1905.5999755859375</ele>
        <time>2021-08-23T08:27:53.000Z</time>
      </trkpt>
      <trkpt lat="42.6883265934884548187255859375" lon="0.0581380538642406463623046875">
        <ele>1905.5999755859375</ele>
        <time>2021-08-23T08:27:57.000Z</time>
      </trkpt>
      <trkpt lat="42.68829650245606899261474609375" lon="0.0579918734729290008544921875">
        <ele>1910.199951171875</ele>
        <time>2021-08-23T08:28:21.000Z</time>
      </trkpt>
      <trkpt lat="42.68829382024705410003662109375" lon="0.05798424594104290008544921875">
        <ele>1910.4000244140625</ele>
        <time>2021-08-23T08:28:22.000Z</time>
      </trkpt>
      <trkpt lat="42.68829147331416606903076171875" lon="0.05798072554171085357666015625">
        <ele>1910.4000244140625</ele>
        <time>2021-08-23T08:28:23.000Z</time>
      </trkpt>
      <trkpt lat="42.68829314969480037689208984375" lon="0.0579734332859516143798828125">
        <ele>1910.800048828125</ele>
        <time>2021-08-23T08:28:24.000Z</time>
      </trkpt>
      <trkpt lat="42.68829457461833953857421875" lon="0.05796832032501697540283203125">
        <ele>1911</ele>
        <time>2021-08-23T08:28:25.000Z</time>
      </trkpt>
      <trkpt lat="42.68829884938895702362060546875" lon="0.0579633750021457672119140625">
        <ele>1911.4000244140625</ele>
        <time>2021-08-23T08:28:27.000Z</time>
      </trkpt>
      <trkpt lat="42.6883158646523952484130859375" lon="0.05793898366391658782958984375">
        <ele>1913</ele>
        <time>2021-08-23T08:28:32.000Z</time>
      </trkpt>
      <trkpt lat="42.68830371089279651641845703125" lon="0.057924650609493255615234375">
        <ele>1913.199951171875</ele>
        <time>2021-08-23T08:28:36.000Z</time>
      </trkpt>
      <trkpt lat="42.68829985521733760833740234375" lon="0.057906210422515869140625">
        <ele>1914.199951171875</ele>
        <time>2021-08-23T08:28:41.000Z</time>
      </trkpt>
      <trkpt lat="42.68826800398528575897216796875" lon="0.05785784684121608734130859375">
        <ele>1916</ele>
        <time>2021-08-23T08:28:50.000Z</time>
      </trkpt>
      <trkpt lat="42.68818653188645839691162109375" lon="0.05782775580883026123046875">
        <ele>1914.5999755859375</ele>
        <time>2021-08-23T08:29:02.000Z</time>
      </trkpt>
      <trkpt lat="42.688172198832035064697265625" lon="0.0578109920024871826171875">
        <ele>1915</ele>
        <time>2021-08-23T08:29:03.000Z</time>
      </trkpt>
      <trkpt lat="42.6881609670817852020263671875" lon="0.0577927194535732269287109375">
        <ele>1915.5999755859375</ele>
        <time>2021-08-23T08:29:06.000Z</time>
      </trkpt>
      <trkpt lat="42.688140012323856353759765625" lon="0.057732202112674713134765625">
        <ele>1918.5999755859375</ele>
        <time>2021-08-23T08:29:11.000Z</time>
      </trkpt>
      <trkpt lat="42.6881354860961437225341796875" lon="0.0577109120786190032958984375">
        <ele>1919.5999755859375</ele>
        <time>2021-08-23T08:29:13.000Z</time>
      </trkpt>
      <trkpt lat="42.688131965696811676025390625" lon="0.0576995126903057098388671875">
        <ele>1920.199951171875</ele>
        <time>2021-08-23T08:29:14.000Z</time>
      </trkpt>
      <trkpt lat="42.68812819384038448333740234375" lon="0.05768836475908756256103515625">
        <ele>1920.800048828125</ele>
        <time>2021-08-23T08:29:15.000Z</time>
      </trkpt>
      <trkpt lat="42.6880855299532413482666015625" lon="0.0576071441173553466796875">
        <ele>1923.4000244140625</ele>
        <time>2021-08-23T08:29:24.000Z</time>
      </trkpt>
      <trkpt lat="42.6880650781095027923583984375" lon="0.05757923237979412078857421875">
        <ele>1924</ele>
        <time>2021-08-23T08:29:33.000Z</time>
      </trkpt>
      <trkpt lat="42.68806298263370990753173828125" lon="0.05755827762186527252197265625">
        <ele>1925</ele>
        <time>2021-08-23T08:29:36.000Z</time>
      </trkpt>
      <trkpt lat="42.68800799734890460968017578125" lon="0.0574078224599361419677734375">
        <ele>1930.199951171875</ele>
        <time>2021-08-23T08:29:58.000Z</time>
      </trkpt>
      <trkpt lat="42.6880214922130107879638671875" lon="0.05729843862354755401611328125">
        <ele>1935.199951171875</ele>
        <time>2021-08-23T08:30:28.000Z</time>
      </trkpt>
      <trkpt lat="42.6880536787211894989013671875" lon="0.0571023859083652496337890625">
        <ele>1946.800048828125</ele>
        <time>2021-08-23T08:31:15.000Z</time>
      </trkpt>
      <trkpt lat="42.68806549720466136932373046875" lon="0.057107247412204742431640625">
        <ele>1947.199951171875</ele>
        <time>2021-08-23T08:31:17.000Z</time>
      </trkpt>
      <trkpt lat="42.6880712807178497314453125" lon="0.05711026489734649658203125">
        <ele>1947.4000244140625</ele>
        <time>2021-08-23T08:31:18.000Z</time>
      </trkpt>
      <trkpt lat="42.68808209337294101715087890625" lon="0.05711521022021770477294921875">
        <ele>1947.800048828125</ele>
        <time>2021-08-23T08:31:20.000Z</time>
      </trkpt>
      <trkpt lat="42.68809952773153781890869140625" lon="0.05712493322789669036865234375">
        <ele>1948.199951171875</ele>
        <time>2021-08-23T08:31:24.000Z</time>
      </trkpt>
      <trkpt lat="42.688105143606662750244140625" lon="0.0571275316178798675537109375">
        <ele>1948.4000244140625</ele>
        <time>2021-08-23T08:31:25.000Z</time>
      </trkpt>
      <trkpt lat="42.68811143003404140472412109375" lon="0.05712510086596012115478515625">
        <ele>1949</ele>
        <time>2021-08-23T08:31:26.000Z</time>
      </trkpt>
      <trkpt lat="42.688115872442722320556640625" lon="0.05712174810469150543212890625">
        <ele>1949.4000244140625</ele>
        <time>2021-08-23T08:31:27.000Z</time>
      </trkpt>
      <trkpt lat="42.68813774921000003814697265625" lon="0.057110600173473358154296875">
        <ele>1951.4000244140625</ele>
        <time>2021-08-23T08:31:32.000Z</time>
      </trkpt>
      <trkpt lat="42.6882072351872920989990234375" lon="0.05713834427297115325927734375">
        <ele>1954.4000244140625</ele>
        <time>2021-08-23T08:31:47.000Z</time>
      </trkpt>
      <trkpt lat="42.6882109232246875762939453125" lon="0.05713733844459056854248046875">
        <ele>1954.5999755859375</ele>
        <time>2021-08-23T08:31:48.000Z</time>
      </trkpt>
      <trkpt lat="42.68820597790181636810302734375" lon="0.0571097619831562042236328125">
        <ele>1955.199951171875</ele>
        <time>2021-08-23T08:31:54.000Z</time>
      </trkpt>
      <trkpt lat="42.68821167759597301483154296875" lon="0.0570960156619548797607421875">
        <ele>1956</ele>
        <time>2021-08-23T08:31:59.000Z</time>
      </trkpt>
      <trkpt lat="42.688217461109161376953125" lon="0.05707615055143833160400390625">
        <ele>1956.5999755859375</ele>
        <time>2021-08-23T08:32:04.000Z</time>
      </trkpt>
      <trkpt lat="42.68821720965206623077392578125" lon="0.057072378695011138916015625">
        <ele>1956.5999755859375</ele>
        <time>2021-08-23T08:32:05.000Z</time>
      </trkpt>
      <trkpt lat="42.6882152818143367767333984375" lon="0.0570665113627910614013671875">
        <ele>1956.5999755859375</ele>
        <time>2021-08-23T08:32:06.000Z</time>
      </trkpt>
      <trkpt lat="42.68820480443537235260009765625" lon="0.05704723298549652099609375">
        <ele>1956.4000244140625</ele>
        <time>2021-08-23T08:32:10.000Z</time>
      </trkpt>
      <trkpt lat="42.68819424323737621307373046875" lon="0.05704379640519618988037109375">
        <ele>1955.800048828125</ele>
        <time>2021-08-23T08:32:12.000Z</time>
      </trkpt>
      <trkpt lat="42.68818938173353672027587890625" lon="0.05701839923858642578125">
        <ele>1955.800048828125</ele>
        <time>2021-08-23T08:32:17.000Z</time>
      </trkpt>
      <trkpt lat="42.68822995014488697052001953125" lon="0.05705184303224086761474609375">
        <ele>1957.800048828125</ele>
        <time>2021-08-23T08:32:27.000Z</time>
      </trkpt>
      <trkpt lat="42.68824637867510318756103515625" lon="0.057058297097682952880859375">
        <ele>1958.5999755859375</ele>
        <time>2021-08-23T08:32:33.000Z</time>
      </trkpt>
      <trkpt lat="42.6882447861135005950927734375" lon="0.056990571320056915283203125">
        <ele>1959.4000244140625</ele>
        <time>2021-08-23T08:32:48.000Z</time>
      </trkpt>
      <trkpt lat="42.68828577362000942230224609375" lon="0.05694908089935779571533203125">
        <ele>1962.4000244140625</ele>
        <time>2021-08-23T08:33:05.000Z</time>
      </trkpt>
      <trkpt lat="42.68829382024705410003662109375" lon="0.05681044422090053558349609375">
        <ele>1965.199951171875</ele>
        <time>2021-08-23T08:33:37.000Z</time>
      </trkpt>
      <trkpt lat="42.6883555948734283447265625" lon="0.05688764154911041259765625">
        <ele>1967.4000244140625</ele>
        <time>2021-08-23T08:33:54.000Z</time>
      </trkpt>
      <trkpt lat="42.6883966661989688873291015625" lon="0.056877247989177703857421875">
        <ele>1969.4000244140625</ele>
        <time>2021-08-23T08:34:02.000Z</time>
      </trkpt>
      <trkpt lat="42.68840110860764980316162109375" lon="0.05686978809535503387451171875">
        <ele>1969.4000244140625</ele>
        <time>2021-08-23T08:34:03.000Z</time>
      </trkpt>
      <trkpt lat="42.68840479664504528045654296875" lon="0.05685947835445404052734375">
        <ele>1969.5999755859375</ele>
        <time>2021-08-23T08:34:04.000Z</time>
      </trkpt>
      <trkpt lat="42.6884070597589015960693359375" lon="0.05685805343091487884521484375">
        <ele>1969.800048828125</ele>
        <time>2021-08-23T08:34:05.000Z</time>
      </trkpt>
      <trkpt lat="42.68840462900698184967041015625" lon="0.0568552874028682708740234375">
        <ele>1969.800048828125</ele>
        <time>2021-08-23T08:34:06.000Z</time>
      </trkpt>
      <trkpt lat="42.68840127624571323394775390625" lon="0.05684698931872844696044921875">
        <ele>1969.800048828125</ele>
        <time>2021-08-23T08:34:07.000Z</time>
      </trkpt>
      <trkpt lat="42.6883986778557300567626953125" lon="0.056841038167476654052734375">
        <ele>1969.800048828125</ele>
        <time>2021-08-23T08:34:08.000Z</time>
      </trkpt>
      <trkpt lat="42.6883845962584018707275390625" lon="0.05681522190570831298828125">
        <ele>1970.199951171875</ele>
        <time>2021-08-23T08:34:13.000Z</time>
      </trkpt>
      <trkpt lat="42.68834813497960567474365234375" lon="0.0566759146749973297119140625">
        <ele>1974</ele>
        <time>2021-08-23T08:34:31.000Z</time>
      </trkpt>
      <trkpt lat="42.6882923953235149383544921875" lon="0.0566142238676548004150390625">
        <ele>1973.199951171875</ele>
        <time>2021-08-23T08:34:50.000Z</time>
      </trkpt>
      <trkpt lat="42.68828812055289745330810546875" lon="0.0565879046916961669921875">
        <ele>1974.199951171875</ele>
        <time>2021-08-23T08:34:57.000Z</time>
      </trkpt>
      <trkpt lat="42.68833438865840435028076171875" lon="0.05657357163727283477783203125">
        <ele>1977.5999755859375</ele>
        <time>2021-08-23T08:35:08.000Z</time>
      </trkpt>
      <trkpt lat="42.68843379803001880645751953125" lon="0.05660776980221271514892578125">
        <ele>1980.800048828125</ele>
        <time>2021-08-23T08:35:22.000Z</time>
      </trkpt>
      <trkpt lat="42.6884563453495502471923828125" lon="0.05660290829837322235107421875">
        <ele>1981.800048828125</ele>
        <time>2021-08-23T08:35:26.000Z</time>
      </trkpt>
      <trkpt lat="42.68849465064704418182373046875" lon="0.0566182471811771392822265625">
        <ele>1982.4000244140625</ele>
        <time>2021-08-23T08:35:36.000Z</time>
      </trkpt>
      <trkpt lat="42.68859422765672206878662109375" lon="0.0565619207918643951416015625">
        <ele>1988</ele>
        <time>2021-08-23T08:36:05.000Z</time>
      </trkpt>
      <trkpt lat="42.68855935893952846527099609375" lon="0.05647550337016582489013671875">
        <ele>1990</ele>
        <time>2021-08-23T08:36:14.000Z</time>
      </trkpt>
      <trkpt lat="42.68850135616958141326904296875" lon="0.05639805458486080169677734375">
        <ele>1991</ele>
        <time>2021-08-23T08:36:25.000Z</time>
      </trkpt>
      <trkpt lat="42.6884778030216693878173828125" lon="0.05635966546833515167236328125">
        <ele>1991.5999755859375</ele>
        <time>2021-08-23T08:36:32.000Z</time>
      </trkpt>
      <trkpt lat="42.68843949772417545318603515625" lon="0.05629495717585086822509765625">
        <ele>1992.800048828125</ele>
        <time>2021-08-23T08:36:45.000Z</time>
      </trkpt>
      <trkpt lat="42.68841133452951908111572265625" lon="0.05626159720122814178466796875">
        <ele>1993</ele>
        <time>2021-08-23T08:36:53.000Z</time>
      </trkpt>
      <trkpt lat="42.68833556212484836578369140625" lon="0.0561746768653392791748046875">
        <ele>1993.199951171875</ele>
        <time>2021-08-23T08:37:09.000Z</time>
      </trkpt>
      <trkpt lat="42.6883135177195072174072265625" lon="0.05613067187368869781494140625">
        <ele>1993.800048828125</ele>
        <time>2021-08-23T08:37:15.000Z</time>
      </trkpt>
      <trkpt lat="42.68831578083336353302001953125" lon="0.05612413398921489715576171875">
        <ele>1994</ele>
        <time>2021-08-23T08:37:16.000Z</time>
      </trkpt>
      <trkpt lat="42.68831846304237842559814453125" lon="0.05611709319055080413818359375">
        <ele>1994.4000244140625</ele>
        <time>2021-08-23T08:37:17.000Z</time>
      </trkpt>
      <trkpt lat="42.6883299462497234344482421875" lon="0.056114830076694488525390625">
        <ele>1994.800048828125</ele>
        <time>2021-08-23T08:37:20.000Z</time>
      </trkpt>
      <trkpt lat="42.688361294567584991455078125" lon="0.0561220385134220123291015625">
        <ele>1995.800048828125</ele>
        <time>2021-08-23T08:37:28.000Z</time>
      </trkpt>
      <trkpt lat="42.68836565315723419189453125" lon="0.056118853390216827392578125">
        <ele>1996</ele>
        <time>2021-08-23T08:37:29.000Z</time>
      </trkpt>
      <trkpt lat="42.6883695088326930999755859375" lon="0.0561146624386310577392578125">
        <ele>1996.4000244140625</ele>
        <time>2021-08-23T08:37:30.000Z</time>
      </trkpt>
      <trkpt lat="42.68837294541299343109130859375" lon="0.05611508153378963470458984375">
        <ele>1996.4000244140625</ele>
        <time>2021-08-23T08:37:31.000Z</time>
      </trkpt>
      <trkpt lat="42.68847428262233734130859375" lon="0.0561149977147579193115234375">
        <ele>2000</ele>
        <time>2021-08-23T08:37:46.000Z</time>
      </trkpt>
      <trkpt lat="42.68847486935555934906005859375" lon="0.05611323751509189605712890625">
        <ele>2000.199951171875</ele>
        <time>2021-08-23T08:37:47.000Z</time>
      </trkpt>
      <trkpt lat="42.68846933729946613311767578125" lon="0.05609345622360706329345703125">
        <ele>2000.5999755859375</ele>
        <time>2021-08-23T08:37:52.000Z</time>
      </trkpt>
      <trkpt lat="42.68844285048544406890869140625" lon="0.05603712983429431915283203125">
        <ele>2001.4000244140625</ele>
        <time>2021-08-23T08:38:01.000Z</time>
      </trkpt>
      <trkpt lat="42.68840982578694820404052734375" lon="0.056018270552158355712890625">
        <ele>2000.800048828125</ele>
        <time>2021-08-23T08:38:10.000Z</time>
      </trkpt>
      <trkpt lat="42.68838099204003810882568359375" lon="0.05599672906100749969482421875">
        <ele>2000.5999755859375</ele>
        <time>2021-08-23T08:38:17.000Z</time>
      </trkpt>
      <trkpt lat="42.6883775554597377777099609375" lon="0.055991113185882568359375">
        <ele>2000.5999755859375</ele>
        <time>2021-08-23T08:38:18.000Z</time>
      </trkpt>
      <trkpt lat="42.688375376164913177490234375" lon="0.0559805519878864288330078125">
        <ele>2001</ele>
        <time>2021-08-23T08:38:19.000Z</time>
      </trkpt>
      <trkpt lat="42.68827688880264759063720703125" lon="0.05586278624832630157470703125">
        <ele>2002.4000244140625</ele>
        <time>2021-08-23T08:38:44.000Z</time>
      </trkpt>
      <trkpt lat="42.6882672496140003204345703125" lon="0.0558538176119327545166015625">
        <ele>2002.4000244140625</ele>
        <time>2021-08-23T08:38:46.000Z</time>
      </trkpt>
      <trkpt lat="42.6882628910243511199951171875" lon="0.0558471120893955230712890625">
        <ele>2002.4000244140625</ele>
        <time>2021-08-23T08:38:47.000Z</time>
      </trkpt>
      <trkpt lat="42.68825995735824108123779296875" lon="0.05583579652011394500732421875">
        <ele>2002.800048828125</ele>
        <time>2021-08-23T08:38:48.000Z</time>
      </trkpt>
      <trkpt lat="42.68824621103703975677490234375" lon="0.05577980540692806243896484375">
        <ele>2004.199951171875</ele>
        <time>2021-08-23T08:39:06.000Z</time>
      </trkpt>
      <trkpt lat="42.68827973864972591400146484375" lon="0.05573236383497714996337890625">
        <ele>2006.5999755859375</ele>
        <time>2021-08-23T08:39:16.000Z</time>
      </trkpt>
      <trkpt lat="42.68832701258361339569091796875" lon="0.05572197027504444122314453125">
        <ele>2008.199951171875</ele>
        <time>2021-08-23T08:39:32.000Z</time>
      </trkpt>
      <trkpt lat="42.68833857960999011993408203125" lon="0.05571325309574604034423828125">
        <ele>2008.800048828125</ele>
        <time>2021-08-23T08:39:35.000Z</time>
      </trkpt>
      <trkpt lat="42.6883587799966335296630859375" lon="0.055707804858684539794921875">
        <ele>2009.4000244140625</ele>
        <time>2021-08-23T08:39:52.000Z</time>
      </trkpt>
      <trkpt lat="42.68836607225239276885986328125" lon="0.0556617043912410736083984375">
        <ele>2011.199951171875</ele>
        <time>2021-08-23T08:39:59.000Z</time>
      </trkpt>
      <trkpt lat="42.68851426430046558380126953125" lon="0.05554092116653919219970703125">
        <ele>2020.800048828125</ele>
        <time>2021-08-23T08:41:00.000Z</time>
      </trkpt>
      <trkpt lat="42.68854402005672454833984375" lon="0.0553810782730579376220703125">
        <ele>2028.5999755859375</ele>
        <time>2021-08-23T08:41:30.000Z</time>
      </trkpt>
      <trkpt lat="42.68854309804737567901611328125" lon="0.0553173758089542388916015625">
        <ele>2031.5999755859375</ele>
        <time>2021-08-23T08:41:36.000Z</time>
      </trkpt>
      <trkpt lat="42.688543684780597686767578125" lon="0.055286698043346405029296875">
        <ele>2032.800048828125</ele>
        <time>2021-08-23T08:41:38.000Z</time>
      </trkpt>
      <trkpt lat="42.68855382688343524932861328125" lon="0.05524805746972560882568359375">
        <ele>2034.4000244140625</ele>
        <time>2021-08-23T08:41:42.000Z</time>
      </trkpt>
      <trkpt lat="42.68856036476790904998779296875" lon="0.055231712758541107177734375">
        <ele>2035.199951171875</ele>
        <time>2021-08-23T08:41:45.000Z</time>
      </trkpt>
      <trkpt lat="42.68855650909245014190673828125" lon="0.05512970499694347381591796875">
        <ele>2038.800048828125</ele>
        <time>2021-08-23T08:41:57.000Z</time>
      </trkpt>
      <trkpt lat="42.68855919130146503448486328125" lon="0.0549536012113094329833984375">
        <ele>2044.800048828125</ele>
        <time>2021-08-23T08:42:16.000Z</time>
      </trkpt>
      <trkpt lat="42.68853002227842807769775390625" lon="0.05493893288075923919677734375">
        <ele>2044.4000244140625</ele>
        <time>2021-08-23T08:42:49.000Z</time>
      </trkpt>
      <trkpt lat="42.6885123364627361297607421875" lon="0.05496273748576641082763671875">
        <ele>2043</ele>
        <time>2021-08-23T08:43:22.000Z</time>
      </trkpt>
      <trkpt lat="42.6885133422911167144775390625" lon="0.05495670251548290252685546875">
        <ele>2043.199951171875</ele>
        <time>2021-08-23T08:43:31.000Z</time>
      </trkpt>
      <trkpt lat="42.68851392902433872222900390625" lon="0.0549562834203243255615234375">
        <ele>2043.199951171875</ele>
        <time>2021-08-23T08:43:33.000Z</time>
      </trkpt>
      <trkpt lat="42.6885143481194972991943359375" lon="0.0549562834203243255615234375">
        <ele>2043.199951171875</ele>
        <time>2021-08-23T08:43:36.000Z</time>
      </trkpt>
      <trkpt lat="42.68851443193852901458740234375" lon="0.05495653487741947174072265625">
        <ele>2043.199951171875</ele>
        <time>2021-08-23T08:43:40.000Z</time>
      </trkpt>
      <trkpt lat="42.6885116659104824066162109375" lon="0.0549747236073017120361328125">
        <ele>2042.5999755859375</ele>
        <time>2021-08-23T08:43:50.000Z</time>
      </trkpt>
      <trkpt lat="42.68850185908377170562744140625" lon="0.0549881346523761749267578125">
        <ele>2041.800048828125</ele>
        <time>2021-08-23T08:44:02.000Z</time>
      </trkpt>
      <trkpt lat="42.68849951215088367462158203125" lon="0.05499509163200855255126953125">
        <ele>2041.4000244140625</ele>
        <time>2021-08-23T08:44:09.000Z</time>
      </trkpt>
      <trkpt lat="42.68849976360797882080078125" lon="0.05499425344169139862060546875">
        <ele>2041.4000244140625</ele>
        <time>2021-08-23T08:44:10.000Z</time>
      </trkpt>
      <trkpt lat="42.688504792749881744384765625" lon="0.05498955957591533660888671875">
        <ele>2041.800048828125</ele>
        <time>2021-08-23T08:44:18.000Z</time>
      </trkpt>
      <trkpt lat="42.68850403837859630584716796875" lon="0.05498989485204219818115234375">
        <ele>2041.800048828125</ele>
        <time>2021-08-23T08:44:22.000Z</time>
      </trkpt>
      <trkpt lat="42.68850437365472316741943359375" lon="0.05499173887073993682861328125">
        <ele>2041.5999755859375</ele>
        <time>2021-08-23T08:44:23.000Z</time>
      </trkpt>
      <trkpt lat="42.6885052956640720367431640625" lon="0.05499458871781826019287109375">
        <ele>2041.5999755859375</ele>
        <time>2021-08-23T08:44:25.000Z</time>
      </trkpt>
      <trkpt lat="42.6885042898356914520263671875" lon="0.05499542690813541412353515625">
        <ele>2041.5999755859375</ele>
        <time>2021-08-23T08:44:28.000Z</time>
      </trkpt>
      <trkpt lat="42.68850646913051605224609375" lon="0.05498955957591533660888671875">
        <ele>2041.800048828125</ele>
        <time>2021-08-23T08:44:32.000Z</time>
      </trkpt>
      <trkpt lat="42.6885227300226688385009765625" lon="0.05495133809745311737060546875">
        <ele>2043.800048828125</ele>
        <time>2021-08-23T08:45:05.000Z</time>
      </trkpt>
      <trkpt lat="42.68852331675589084625244140625" lon="0.05495133809745311737060546875">
        <ele>2043.800048828125</ele>
        <time>2021-08-23T08:45:06.000Z</time>
      </trkpt>
      <trkpt lat="42.68852415494620800018310546875" lon="0.05495108664035797119140625">
        <ele>2043.800048828125</ele>
        <time>2021-08-23T08:45:08.000Z</time>
      </trkpt>
      <trkpt lat="42.68852029927074909210205078125" lon="0.05498453043401241302490234375">
        <ele>2042.4000244140625</ele>
        <time>2021-08-23T08:45:37.000Z</time>
      </trkpt>
      <trkpt lat="42.68852398730814456939697265625" lon="0.05497262813150882720947265625">
        <ele>2043</ele>
        <time>2021-08-23T08:46:12.000Z</time>
      </trkpt>
      <trkpt lat="42.68852390348911285400390625" lon="0.05497246049344539642333984375">
        <ele>2043</ele>
        <time>2021-08-23T08:46:15.000Z</time>
      </trkpt>
      <trkpt lat="42.68851141445338726043701171875" lon="0.054996013641357421875">
        <ele>2041.800048828125</ele>
        <time>2021-08-23T08:46:35.000Z</time>
      </trkpt>
      <trkpt lat="42.6885111629962921142578125" lon="0.0549931637942790985107421875">
        <ele>2041.800048828125</ele>
        <time>2021-08-23T08:46:39.000Z</time>
      </trkpt>
      <trkpt lat="42.68852465786039829254150390625" lon="0.0549693591892719268798828125">
        <ele>2043.199951171875</ele>
        <time>2021-08-23T08:46:43.000Z</time>
      </trkpt>
      <trkpt lat="42.688536979258060455322265625" lon="0.05494111217558383941650390625">
        <ele>2044.5999755859375</ele>
        <time>2021-08-23T08:47:35.000Z</time>
      </trkpt>
      <trkpt lat="42.68852113746106624603271484375" lon="0.05494027398526668548583984375">
        <ele>2044</ele>
        <time>2021-08-23T08:48:18.000Z</time>
      </trkpt>
      <trkpt lat="42.68851895816624164581298828125" lon="0.05494127981364727020263671875">
        <ele>2044</ele>
        <time>2021-08-23T08:48:19.000Z</time>
      </trkpt>
      <trkpt lat="42.6885163597762584686279296875" lon="0.05494245328009128570556640625">
        <ele>2043.800048828125</ele>
        <time>2021-08-23T08:48:22.000Z</time>
      </trkpt>
      <trkpt lat="42.68850990571081638336181640625" lon="0.0549616478383541107177734375">
        <ele>2043</ele>
        <time>2021-08-23T08:48:38.000Z</time>
      </trkpt>
      <trkpt lat="42.68850353546440601348876953125" lon="0.05497698672115802764892578125">
        <ele>2042.199951171875</ele>
        <time>2021-08-23T08:49:12.000Z</time>
      </trkpt>
      <trkpt lat="42.68850588239729404449462890625" lon="0.054975561797618865966796875">
        <ele>2042.4000244140625</ele>
        <time>2021-08-23T08:49:15.000Z</time>
      </trkpt>
      <trkpt lat="42.68850420601665973663330078125" lon="0.05497732199728488922119140625">
        <ele>2042.199951171875</ele>
        <time>2021-08-23T08:49:19.000Z</time>
      </trkpt>
      <trkpt lat="42.6884969137609004974365234375" lon="0.05500816740095615386962890625">
        <ele>2041</ele>
        <time>2021-08-23T08:49:31.000Z</time>
      </trkpt>
      <trkpt lat="42.68845827318727970123291015625" lon="0.05498285405337810516357421875">
        <ele>2040.5999755859375</ele>
        <time>2021-08-23T08:49:53.000Z</time>
      </trkpt>
      <trkpt lat="42.68840529955923557281494140625" lon="0.05497983656823635101318359375">
        <ele>2039.199951171875</ele>
        <time>2021-08-23T08:50:00.000Z</time>
      </trkpt>
      <trkpt lat="42.6883641444146633148193359375" lon="0.05499576218426227569580078125">
        <ele>2037.5999755859375</ele>
        <time>2021-08-23T08:50:05.000Z</time>
      </trkpt>
      <trkpt lat="42.68833422102034091949462890625" lon="0.054986961185932159423828125">
        <ele>2037.4000244140625</ele>
        <time>2021-08-23T08:50:09.000Z</time>
      </trkpt>
      <trkpt lat="42.6883326284587383270263671875" lon="0.05497178994119167327880859375">
        <ele>2037.800048828125</ele>
        <time>2021-08-23T08:50:11.000Z</time>
      </trkpt>
      <trkpt lat="42.6883609592914581298828125" lon="0.0549294613301753997802734375">
        <ele>2039.800048828125</ele>
        <time>2021-08-23T08:50:18.000Z</time>
      </trkpt>
      <trkpt lat="42.68836925737559795379638671875" lon="0.0549177266657352447509765625">
        <ele>2040.4000244140625</ele>
        <time>2021-08-23T08:50:20.000Z</time>
      </trkpt>
      <trkpt lat="42.6883698441088199615478515625" lon="0.05490657873451709747314453125">
        <ele>2040.5999755859375</ele>
        <time>2021-08-23T08:50:22.000Z</time>
      </trkpt>
      <trkpt lat="42.68832114525139331817626953125" lon="0.054868943989276885986328125">
        <ele>2041</ele>
        <time>2021-08-23T08:50:35.000Z</time>
      </trkpt>
      <trkpt lat="42.6883178763091564178466796875" lon="0.0548647530376911163330078125">
        <ele>2041.199951171875</ele>
        <time>2021-08-23T08:50:36.000Z</time>
      </trkpt>
      <trkpt lat="42.6883155293762683868408203125" lon="0.05486014299094676971435546875">
        <ele>2041.4000244140625</ele>
        <time>2021-08-23T08:50:37.000Z</time>
      </trkpt>
      <trkpt lat="42.68831410445272922515869140625" lon="0.05485913716256618499755859375">
        <ele>2041.4000244140625</ele>
        <time>2021-08-23T08:50:38.000Z</time>
      </trkpt>
      <trkpt lat="42.6883111707866191864013671875" lon="0.05485494621098041534423828125">
        <ele>2041.5999755859375</ele>
        <time>2021-08-23T08:50:39.000Z</time>
      </trkpt>
      <trkpt lat="42.68830907531082630157470703125" lon="0.05484840832650661468505859375">
        <ele>2042</ele>
        <time>2021-08-23T08:50:40.000Z</time>
      </trkpt>
      <trkpt lat="42.68830924294888973236083984375" lon="0.0548325665295124053955078125">
        <ele>2042.800048828125</ele>
        <time>2021-08-23T08:50:44.000Z</time>
      </trkpt>
      <trkpt lat="42.688311673700809478759765625" lon="0.0548268668353557586669921875">
        <ele>2043.199951171875</ele>
        <time>2021-08-23T08:50:45.000Z</time>
      </trkpt>
      <trkpt lat="42.68831393681466579437255859375" lon="0.05482426844537258148193359375">
        <ele>2043.4000244140625</ele>
        <time>2021-08-23T08:50:46.000Z</time>
      </trkpt>
      <trkpt lat="42.688399516046047210693359375" lon="0.05476676858961582183837890625">
        <ele>2050.39990234375</ele>
        <time>2021-08-23T08:51:06.000Z</time>
      </trkpt>
      <trkpt lat="42.6882944069802761077880859375" lon="0.05459242500364780426025390625">
        <ele>2059</ele>
        <time>2021-08-23T08:51:56.000Z</time>
      </trkpt>
      <trkpt lat="42.68809877336025238037109375" lon="0.05428858101367950439453125">
        <ele>2067.199951171875</ele>
        <time>2021-08-23T08:53:01.000Z</time>
      </trkpt>
      <trkpt lat="42.6882035471498966217041015625" lon="0.05424566566944122314453125">
        <ele>2071</ele>
        <time>2021-08-23T08:53:28.000Z</time>
      </trkpt>
      <trkpt lat="42.68825107254087924957275390625" lon="0.0542377866804599761962890625">
        <ele>2072.39990234375</ele>
        <time>2021-08-23T08:53:44.000Z</time>
      </trkpt>
      <trkpt lat="42.68833422102034091949462890625" lon="0.05409638397395610809326171875">
        <ele>2082</ele>
        <time>2021-08-23T08:54:29.000Z</time>
      </trkpt>
      <trkpt lat="42.68829499371349811553955078125" lon="0.0540880858898162841796875">
        <ele>2081.800048828125</ele>
        <time>2021-08-23T08:54:35.000Z</time>
      </trkpt>
      <trkpt lat="42.68828745000064373016357421875" lon="0.05408045835793018341064453125">
        <ele>2082</ele>
        <time>2021-08-23T08:54:37.000Z</time>
      </trkpt>
      <trkpt lat="42.68823263235390186309814453125" lon="0.0539960525929927825927734375">
        <ele>2087.39990234375</ele>
        <time>2021-08-23T08:54:52.000Z</time>
      </trkpt>
      <trkpt lat="42.68823447637259960174560546875" lon="0.05399764515459537506103515625">
        <ele>2087.39990234375</ele>
        <time>2021-08-23T08:54:53.000Z</time>
      </trkpt>
      <trkpt lat="42.6882390864193439483642578125" lon="0.0540027581155300140380859375">
        <ele>2087</ele>
        <time>2021-08-23T08:54:54.000Z</time>
      </trkpt>
      <trkpt lat="42.6882456243038177490234375" lon="0.0540071167051792144775390625">
        <ele>2086.60009765625</ele>
        <time>2021-08-23T08:54:55.000Z</time>
      </trkpt>
      <trkpt lat="42.68825090490281581878662109375" lon="0.05401373840868473052978515625">
        <ele>2086.199951171875</ele>
        <time>2021-08-23T08:54:56.000Z</time>
      </trkpt>
      <trkpt lat="42.6882571913301944732666015625" lon="0.05401633679866790771484375">
        <ele>2086</ele>
        <time>2021-08-23T08:54:57.000Z</time>
      </trkpt>
      <trkpt lat="42.6883027888834476470947265625" lon="0.0540154986083507537841796875">
        <ele>2087</ele>
        <time>2021-08-23T08:55:07.000Z</time>
      </trkpt>
      <trkpt lat="42.6882571913301944732666015625" lon="0.05394316278398036956787109375">
        <ele>2092.60009765625</ele>
        <time>2021-08-23T08:55:20.000Z</time>
      </trkpt>
      <trkpt lat="42.68833505921065807342529296875" lon="0.0538547337055206298828125">
        <ele>2097.60009765625</ele>
        <time>2021-08-23T08:55:56.000Z</time>
      </trkpt>
      <trkpt lat="42.6882940717041492462158203125" lon="0.0538253970444202423095703125">
        <ele>2099.800048828125</ele>
        <time>2021-08-23T08:56:04.000Z</time>
      </trkpt>
      <trkpt lat="42.6882565207779407501220703125" lon="0.05369639955461025238037109375">
        <ele>2106.39990234375</ele>
        <time>2021-08-23T08:56:31.000Z</time>
      </trkpt>
      <trkpt lat="42.68825031816959381103515625" lon="0.0536964833736419677734375">
        <ele>2106.39990234375</ele>
        <time>2021-08-23T08:56:32.000Z</time>
      </trkpt>
      <trkpt lat="42.6882437802851200103759765625" lon="0.0536922924220561981201171875">
        <ele>2106.60009765625</ele>
        <time>2021-08-23T08:56:33.000Z</time>
      </trkpt>
      <trkpt lat="42.68823749385774135589599609375" lon="0.0536899454891681671142578125">
        <ele>2106.800048828125</ele>
        <time>2021-08-23T08:56:34.000Z</time>
      </trkpt>
      <trkpt lat="42.68829734064638614654541015625" lon="0.0535652227699756622314453125">
        <ele>2113.199951171875</ele>
        <time>2021-08-23T08:57:10.000Z</time>
      </trkpt>
      <trkpt lat="42.68830136395990848541259765625" lon="0.0535809807479381561279296875">
        <ele>2112.39990234375</ele>
        <time>2021-08-23T08:57:14.000Z</time>
      </trkpt>
      <trkpt lat="42.68828107975423336029052734375" lon="0.053419210016727447509765625">
        <ele>2122</ele>
        <time>2021-08-23T08:58:06.000Z</time>
      </trkpt>
      <trkpt lat="42.68835064955055713653564453125" lon="0.0533596985042095184326171875">
        <ele>2126.800048828125</ele>
        <time>2021-08-23T08:58:26.000Z</time>
      </trkpt>
      <trkpt lat="42.68826917745172977447509765625" lon="0.05331301130354404449462890625">
        <ele>2128.60009765625</ele>
        <time>2021-08-23T08:58:46.000Z</time>
      </trkpt>
      <trkpt lat="42.6883113384246826171875" lon="0.0530747137963771820068359375">
        <ele>2143.60009765625</ele>
        <time>2021-08-23T08:59:51.000Z</time>
      </trkpt>
      <trkpt lat="42.68842105753719806671142578125" lon="0.052957870066165924072265625">
        <ele>2153.60009765625</ele>
        <time>2021-08-23T09:00:29.000Z</time>
      </trkpt>
      <trkpt lat="42.688424326479434967041015625" lon="0.05295015871524810791015625">
        <ele>2154.199951171875</ele>
        <time>2021-08-23T09:00:30.000Z</time>
      </trkpt>
      <trkpt lat="42.6884258352220058441162109375" lon="0.0529436208307743072509765625">
        <ele>2154.800048828125</ele>
        <time>2021-08-23T09:00:31.000Z</time>
      </trkpt>
      <trkpt lat="42.6884251646697521209716796875" lon="0.05293565802276134490966796875">
        <ele>2155.199951171875</ele>
        <time>2021-08-23T09:00:32.000Z</time>
      </trkpt>
      <trkpt lat="42.68843027763068675994873046875" lon="0.05289039574563503265380859375">
        <ele>2158</ele>
        <time>2021-08-23T09:00:49.000Z</time>
      </trkpt>
      <trkpt lat="42.6884647272527217864990234375" lon="0.0528998672962188720703125">
        <ele>2158.800048828125</ele>
        <time>2021-08-23T09:00:58.000Z</time>
      </trkpt>
      <trkpt lat="42.6884928904473781585693359375" lon="0.0528945028781890869140625">
        <ele>2160.199951171875</ele>
        <time>2021-08-23T09:01:03.000Z</time>
      </trkpt>
      <trkpt lat="42.68849817104637622833251953125" lon="0.05289249122142791748046875">
        <ele>2160.60009765625</ele>
        <time>2021-08-23T09:01:04.000Z</time>
      </trkpt>
      <trkpt lat="42.688653655350208282470703125" lon="0.05274991504848003387451171875">
        <ele>2175.60009765625</ele>
        <time>2021-08-23T09:01:52.000Z</time>
      </trkpt>
      <trkpt lat="42.68874610774219036102294921875" lon="0.05283750593662261962890625">
        <ele>2174</ele>
        <time>2021-08-23T09:02:13.000Z</time>
      </trkpt>
      <trkpt lat="42.68875314854085445404052734375" lon="0.052849911153316497802734375">
        <ele>2173.60009765625</ele>
        <time>2021-08-23T09:02:15.000Z</time>
      </trkpt>
      <trkpt lat="42.6887740194797515869140625" lon="0.052840523421764373779296875">
        <ele>2175</ele>
        <time>2021-08-23T09:02:20.000Z</time>
      </trkpt>
      <trkpt lat="42.688801176846027374267578125" lon="0.0528623163700103759765625">
        <ele>2174.60009765625</ele>
        <time>2021-08-23T09:02:25.000Z</time>
      </trkpt>
      <trkpt lat="42.6888777874410152435302734375" lon="0.0529687665402889251708984375">
        <ele>2171</ele>
        <time>2021-08-23T09:02:39.000Z</time>
      </trkpt>
      <trkpt lat="42.68891911022365093231201171875" lon="0.05299399606883525848388671875">
        <ele>2171</ele>
        <time>2021-08-23T09:02:46.000Z</time>
      </trkpt>
      <trkpt lat="42.68892464227974414825439453125" lon="0.05299575626850128173828125">
        <ele>2171.199951171875</ele>
        <time>2021-08-23T09:02:47.000Z</time>
      </trkpt>
      <trkpt lat="42.6889180205762386322021484375" lon="0.0530026294291019439697265625">
        <ele>2170.39990234375</ele>
        <time>2021-08-23T09:02:53.000Z</time>
      </trkpt>
      <trkpt lat="42.68905908800661563873291015625" lon="0.05303791724145412445068359375">
        <ele>2174.60009765625</ele>
        <time>2021-08-23T09:03:20.000Z</time>
      </trkpt>
      <trkpt lat="42.6891399733722209930419921875" lon="0.053014196455478668212890625">
        <ele>2179.60009765625</ele>
        <time>2021-08-23T09:03:35.000Z</time>
      </trkpt>
      <trkpt lat="42.6891714893281459808349609375" lon="0.0530043058097362518310546875">
        <ele>2181.39990234375</ele>
        <time>2021-08-23T09:03:40.000Z</time>
      </trkpt>
      <trkpt lat="42.68913150765001773834228515625" lon="0.05288042128086090087890625">
        <ele>2187.39990234375</ele>
        <time>2021-08-23T09:04:14.000Z</time>
      </trkpt>
      <trkpt lat="42.68916855566203594207763671875" lon="0.05280087701976299285888671875">
        <ele>2195</ele>
        <time>2021-08-23T09:04:51.000Z</time>
      </trkpt>
      <trkpt lat="42.68924147821962833404541015625" lon="0.05273021757602691650390625">
        <ele>2203.800048828125</ele>
        <time>2021-08-23T09:05:11.000Z</time>
      </trkpt>
      <trkpt lat="42.68930182792246341705322265625" lon="0.05273424088954925537109375">
        <ele>2205</ele>
        <time>2021-08-23T09:05:24.000Z</time>
      </trkpt>
      <trkpt lat="42.6894219405949115753173828125" lon="0.05269124172627925872802734375">
        <ele>2213.60009765625</ele>
        <time>2021-08-23T09:05:55.000Z</time>
      </trkpt>
      <trkpt lat="42.68944683484733104705810546875" lon="0.05269241519272327423095703125">
        <ele>2214.60009765625</ele>
        <time>2021-08-23T09:06:03.000Z</time>
      </trkpt>
      <trkpt lat="42.68942914903163909912109375" lon="0.052690319716930389404296875">
        <ele>2214</ele>
        <time>2021-08-23T09:06:08.000Z</time>
      </trkpt>
      <trkpt lat="42.68936418928205966949462890625" lon="0.0526405312120914459228515625">
        <ele>2215.60009765625</ele>
        <time>2021-08-23T09:06:26.000Z</time>
      </trkpt>
      <trkpt lat="42.68935547210276126861572265625" lon="0.05263659171760082244873046875">
        <ele>2215.39990234375</ele>
        <time>2021-08-23T09:06:28.000Z</time>
      </trkpt>
      <trkpt lat="42.6892321743071079254150390625" lon="0.0525664351880550384521484375">
        <ele>2215.199951171875</ele>
        <time>2021-08-23T09:06:50.000Z</time>
      </trkpt>
      <trkpt lat="42.689214237034320831298828125" lon="0.0525543652474880218505859375">
        <ele>2215</ele>
        <time>2021-08-23T09:06:52.000Z</time>
      </trkpt>
      <trkpt lat="42.6892040111124515533447265625" lon="0.05252108909189701080322265625">
        <ele>2216.39990234375</ele>
        <time>2021-08-23T09:06:56.000Z</time>
      </trkpt>
      <trkpt lat="42.689135111868381500244140625" lon="0.0524680316448211669921875">
        <ele>2215</ele>
        <time>2021-08-23T09:07:14.000Z</time>
      </trkpt>
      <trkpt lat="42.68909999169409275054931640625" lon="0.05242737941443920135498046875">
        <ele>2215</ele>
        <time>2021-08-23T09:07:21.000Z</time>
      </trkpt>
      <trkpt lat="42.68907333724200725555419921875" lon="0.05241497419774532318115234375">
        <ele>2214</ele>
        <time>2021-08-23T09:07:27.000Z</time>
      </trkpt>
      <trkpt lat="42.6890672184526920318603515625" lon="0.0524132139980792999267578125">
        <ele>2213.60009765625</ele>
        <time>2021-08-23T09:07:28.000Z</time>
      </trkpt>
      <trkpt lat="42.68906160257756710052490234375" lon="0.0524115376174449920654296875">
        <ele>2213.39990234375</ele>
        <time>2021-08-23T09:07:29.000Z</time>
      </trkpt>
      <trkpt lat="42.68894123844802379608154296875" lon="0.05239871330559253692626953125">
        <ele>2205.800048828125</ele>
        <time>2021-08-23T09:07:54.000Z</time>
      </trkpt>
      <trkpt lat="42.68894861452281475067138671875" lon="0.05238966085016727447509765625">
        <ele>2206.800048828125</ele>
        <time>2021-08-23T09:08:05.000Z</time>
      </trkpt>
      <trkpt lat="42.68895716406404972076416015625" lon="0.0524192489683628082275390625">
        <ele>2205.800048828125</ele>
        <time>2021-08-23T09:08:39.000Z</time>
      </trkpt>
      <trkpt lat="42.68895381130278110504150390625" lon="0.05241564474999904632568359375">
        <ele>2205.800048828125</ele>
        <time>2021-08-23T09:08:41.000Z</time>
      </trkpt>
      <trkpt lat="42.68895439803600311279296875" lon="0.0524009764194488525390625">
        <ele>2206.39990234375</ele>
        <time>2021-08-23T09:08:46.000Z</time>
      </trkpt>
      <trkpt lat="42.6889569126069545745849609375" lon="0.0523956120014190673828125">
        <ele>2206.800048828125</ele>
        <time>2021-08-23T09:08:49.000Z</time>
      </trkpt>
      <trkpt lat="42.68895305693149566650390625" lon="0.052389912307262420654296875">
        <ele>2207</ele>
        <time>2021-08-23T09:08:52.000Z</time>
      </trkpt>
      <trkpt lat="42.68894509412348270416259765625" lon="0.05238312296569347381591796875">
        <ele>2206.800048828125</ele>
        <time>2021-08-23T09:09:00.000Z</time>
      </trkpt>
      <trkpt lat="42.688952721655368804931640625" lon="0.05240038968622684478759765625">
        <ele>2206.39990234375</ele>
        <time>2021-08-23T09:09:08.000Z</time>
      </trkpt>
      <trkpt lat="42.68895305693149566650390625" lon="0.05240323953330516815185546875">
        <ele>2206.199951171875</ele>
        <time>2021-08-23T09:09:14.000Z</time>
      </trkpt>
      <trkpt lat="42.68893872387707233428955078125" lon="0.05240139551460742950439453125">
        <ele>2205.60009765625</ele>
        <time>2021-08-23T09:09:30.000Z</time>
      </trkpt>
      <trkpt lat="42.688969485461711883544921875" lon="0.0523716397583484649658203125">
        <ele>2209.60009765625</ele>
        <time>2021-08-23T09:10:09.000Z</time>
      </trkpt>
      <trkpt lat="42.68895196728408336639404296875" lon="0.0523929297924041748046875">
        <ele>2206.800048828125</ele>
        <time>2021-08-23T09:10:19.000Z</time>
      </trkpt>
      <trkpt lat="42.68895347602665424346923828125" lon="0.05239167250692844390869140625">
        <ele>2206.800048828125</ele>
        <time>2021-08-23T09:10:28.000Z</time>
      </trkpt>
      <trkpt lat="42.68895414657890796661376953125" lon="0.05238781683146953582763671875">
        <ele>2207.199951171875</ele>
        <time>2021-08-23T09:10:32.000Z</time>
      </trkpt>
      <trkpt lat="42.68895615823566913604736328125" lon="0.05238463170826435089111328125">
        <ele>2207.39990234375</ele>
        <time>2021-08-23T09:10:36.000Z</time>
      </trkpt>
      <trkpt lat="42.68895096145570278167724609375" lon="0.052369795739650726318359375">
        <ele>2208.39990234375</ele>
        <time>2021-08-23T09:10:59.000Z</time>
      </trkpt>
      <trkpt lat="42.6889512129127979278564453125" lon="0.0523692928254604339599609375">
        <ele>2208.60009765625</ele>
        <time>2021-08-23T09:11:00.000Z</time>
      </trkpt>
      <trkpt lat="42.68895129673182964324951171875" lon="0.0523689575493335723876953125">
        <ele>2208.60009765625</ele>
        <time>2021-08-23T09:11:01.000Z</time>
      </trkpt>
      <trkpt lat="42.688951380550861358642578125" lon="0.05236837081611156463623046875">
        <ele>2208.60009765625</ele>
        <time>2021-08-23T09:11:02.000Z</time>
      </trkpt>
      <trkpt lat="42.688951380550861358642578125" lon="0.05236736498773097991943359375">
        <ele>2208.800048828125</ele>
        <time>2021-08-23T09:11:03.000Z</time>
      </trkpt>
      <trkpt lat="42.6889461837708950042724609375" lon="0.0523652695119380950927734375">
        <ele>2208.800048828125</ele>
        <time>2021-08-23T09:11:11.000Z</time>
      </trkpt>
      <trkpt lat="42.68894635140895843505859375" lon="0.0523741543292999267578125">
        <ele>2207.60009765625</ele>
        <time>2021-08-23T09:11:36.000Z</time>
      </trkpt>
      <trkpt lat="42.688949368894100189208984375" lon="0.0523645989596843719482421875">
        <ele>2209</ele>
        <time>2021-08-23T09:11:44.000Z</time>
      </trkpt>
      <trkpt lat="42.6889495365321636199951171875" lon="0.05235470831394195556640625">
        <ele>2210.39990234375</ele>
        <time>2021-08-23T09:11:50.000Z</time>
      </trkpt>
      <trkpt lat="42.6889364607632160186767578125" lon="0.05239804275333881378173828125">
        <ele>2205.800048828125</ele>
        <time>2021-08-23T09:12:09.000Z</time>
      </trkpt>
      <trkpt lat="42.688931263983249664306640625" lon="0.052395947277545928955078125">
        <ele>2205.60009765625</ele>
        <time>2021-08-23T09:12:11.000Z</time>
      </trkpt>
      <trkpt lat="42.688927911221981048583984375" lon="0.05239603109657764434814453125">
        <ele>2205.60009765625</ele>
        <time>2021-08-23T09:12:12.000Z</time>
      </trkpt>
      <trkpt lat="42.68892514519393444061279296875" lon="0.05239787511527538299560546875">
        <ele>2205.39990234375</ele>
        <time>2021-08-23T09:12:13.000Z</time>
      </trkpt>
      <trkpt lat="42.6889223791658878326416015625" lon="0.05239787511527538299560546875">
        <ele>2205.199951171875</ele>
        <time>2021-08-23T09:12:14.000Z</time>
      </trkpt>
      <trkpt lat="42.68891693092882633209228515625" lon="0.05239804275333881378173828125">
        <ele>2205</ele>
        <time>2021-08-23T09:12:16.000Z</time>
      </trkpt>
      <trkpt lat="42.6889351196587085723876953125" lon="0.05241380073130130767822265625">
        <ele>2204.800048828125</ele>
        <time>2021-08-23T09:12:36.000Z</time>
      </trkpt>
      <trkpt lat="42.68893838860094547271728515625" lon="0.0524142198264598846435546875">
        <ele>2205</ele>
        <time>2021-08-23T09:12:48.000Z</time>
      </trkpt>
      <trkpt lat="42.68893956206738948822021484375" lon="0.0524148903787136077880859375">
        <ele>2205</ele>
        <time>2021-08-23T09:12:58.000Z</time>
      </trkpt>
      <trkpt lat="42.68893335945904254913330078125" lon="0.05242285318672657012939453125">
        <ele>2204.39990234375</ele>
        <time>2021-08-23T09:13:05.000Z</time>
      </trkpt>
      <trkpt lat="42.6889317668974399566650390625" lon="0.05241296254098415374755859375">
        <ele>2204.800048828125</ele>
        <time>2021-08-23T09:13:14.000Z</time>
      </trkpt>
      <trkpt lat="42.68892380408942699432373046875" lon="0.0524252839386463165283203125">
        <ele>2204</ele>
        <time>2021-08-23T09:13:32.000Z</time>
      </trkpt>
      <trkpt lat="42.688941992819309234619140625" lon="0.05241983570158481597900390625">
        <ele>2204.800048828125</ele>
        <time>2021-08-23T09:14:10.000Z</time>
      </trkpt>
      <trkpt lat="42.68894073553383350372314453125" lon="0.052423439919948577880859375">
        <ele>2204.60009765625</ele>
        <time>2021-08-23T09:14:11.000Z</time>
      </trkpt>
      <trkpt lat="42.68893972970545291900634765625" lon="0.05242486484348773956298828125">
        <ele>2204.39990234375</ele>
        <time>2021-08-23T09:14:12.000Z</time>
      </trkpt>
      <trkpt lat="42.68894140608608722686767578125" lon="0.05239955149590969085693359375">
        <ele>2205.800048828125</ele>
        <time>2021-08-23T09:14:22.000Z</time>
      </trkpt>
      <trkpt lat="42.6889448426663875579833984375" lon="0.05239720456302165985107421875">
        <ele>2206.199951171875</ele>
        <time>2021-08-23T09:14:23.000Z</time>
      </trkpt>
      <trkpt lat="42.6889549009501934051513671875" lon="0.0523741543292999267578125">
        <ele>2208.199951171875</ele>
        <time>2021-08-23T09:14:26.000Z</time>
      </trkpt>
      <trkpt lat="42.68893369473516941070556640625" lon="0.05236619152128696441650390625">
        <ele>2207.800048828125</ele>
        <time>2021-08-23T09:14:32.000Z</time>
      </trkpt>
      <trkpt lat="42.6889354549348354339599609375" lon="0.05236409604549407958984375">
        <ele>2208.199951171875</ele>
        <time>2021-08-23T09:14:36.000Z</time>
      </trkpt>
      <trkpt lat="42.68893335945904254913330078125" lon="0.05240173079073429107666015625">
        <ele>2205.39990234375</ele>
        <time>2021-08-23T09:15:00.000Z</time>
      </trkpt>
      <trkpt lat="42.68894006498157978057861328125" lon="0.05240122787654399871826171875">
        <ele>2205.60009765625</ele>
        <time>2021-08-23T09:15:04.000Z</time>
      </trkpt>
      <trkpt lat="42.68894241191446781158447265625" lon="0.0523982942104339599609375">
        <ele>2206</ele>
        <time>2021-08-23T09:15:05.000Z</time>
      </trkpt>
      <trkpt lat="42.68894542939960956573486328125" lon="0.05239452235400676727294921875">
        <ele>2206.199951171875</ele>
        <time>2021-08-23T09:15:06.000Z</time>
      </trkpt>
      <trkpt lat="42.6889471895992755889892578125" lon="0.0523904152214527130126953125">
        <ele>2206.60009765625</ele>
        <time>2021-08-23T09:15:07.000Z</time>
      </trkpt>
      <trkpt lat="42.6889498718082904815673828125" lon="0.05236216820776462554931640625">
        <ele>2209.39990234375</ele>
        <time>2021-08-23T09:15:10.000Z</time>
      </trkpt>
      <trkpt lat="42.68895196728408336639404296875" lon="0.052354037761688232421875">
        <ele>2210.60009765625</ele>
        <time>2021-08-23T09:15:11.000Z</time>
      </trkpt>
      <trkpt lat="42.68895347602665424346923828125" lon="0.052346996963024139404296875">
        <ele>2211.60009765625</ele>
        <time>2021-08-23T09:15:12.000Z</time>
      </trkpt>
      <trkpt lat="42.6889518834650516510009765625" lon="0.0523327477276325225830078125">
        <ele>2213.39990234375</ele>
        <time>2021-08-23T09:15:15.000Z</time>
      </trkpt>
      <trkpt lat="42.68894811160862445831298828125" lon="0.0523511879146099090576171875">
        <ele>2210.800048828125</ele>
        <time>2021-08-23T09:15:21.000Z</time>
      </trkpt>
      <trkpt lat="42.688950709998607635498046875" lon="0.0523542053997516632080078125">
        <ele>2210.60009765625</ele>
        <time>2021-08-23T09:15:23.000Z</time>
      </trkpt>
      <trkpt lat="42.68895515240728855133056640625" lon="0.052359066903591156005859375">
        <ele>2210.199951171875</ele>
        <time>2021-08-23T09:15:25.000Z</time>
      </trkpt>
      <trkpt lat="42.68897325731813907623291015625" lon="0.0523900799453258514404296875">
        <ele>2208.39990234375</ele>
        <time>2021-08-23T09:15:28.000Z</time>
      </trkpt>
      <trkpt lat="42.68897409550845623016357421875" lon="0.05240525119006633758544921875">
        <ele>2207.39990234375</ele>
        <time>2021-08-23T09:15:29.000Z</time>
      </trkpt>
      <trkpt lat="42.68896303139626979827880859375" lon="0.0524195842444896697998046875">
        <ele>2206</ele>
        <time>2021-08-23T09:15:43.000Z</time>
      </trkpt>
      <trkpt lat="42.688952386379241943359375" lon="0.052467696368694305419921875">
        <ele>2203</ele>
        <time>2021-08-23T09:15:53.000Z</time>
      </trkpt>
      <trkpt lat="42.688936293125152587890625" lon="0.05250893533229827880859375">
        <ele>2200.199951171875</ele>
        <time>2021-08-23T09:16:03.000Z</time>
      </trkpt>
      <trkpt lat="42.6889096386730670928955078125" lon="0.05251723341643810272216796875">
        <ele>2198.800048828125</ele>
        <time>2021-08-23T09:16:13.000Z</time>
      </trkpt>
      <trkpt lat="42.6889183558523654937744140625" lon="0.052462331950664520263671875">
        <ele>2201.800048828125</ele>
        <time>2021-08-23T09:16:23.000Z</time>
      </trkpt>
      <trkpt lat="42.68890871666371822357177734375" lon="0.0524591468274593353271484375">
        <ele>2201.800048828125</ele>
        <time>2021-08-23T09:16:36.000Z</time>
      </trkpt>
      <trkpt lat="42.68891374580562114715576171875" lon="0.0524412095546722412109375">
        <ele>2202.800048828125</ele>
        <time>2021-08-23T09:16:43.000Z</time>
      </trkpt>
      <trkpt lat="42.6889215409755706787109375" lon="0.05241497419774532318115234375">
        <ele>2204.39990234375</ele>
        <time>2021-08-23T09:16:57.000Z</time>
      </trkpt>
      <trkpt lat="42.6889435015618801116943359375" lon="0.05242251791059970855712890625">
        <ele>2204.800048828125</ele>
        <time>2021-08-23T09:17:15.000Z</time>
      </trkpt>
      <trkpt lat="42.6889364607632160186767578125" lon="0.0524169020354747772216796875">
        <ele>2204.800048828125</ele>
        <time>2021-08-23T09:17:20.000Z</time>
      </trkpt>
      <trkpt lat="42.6889438368380069732666015625" lon="0.05237826146185398101806640625">
        <ele>2207</ele>
        <time>2021-08-23T09:17:23.000Z</time>
      </trkpt>
      <trkpt lat="42.688944675028324127197265625" lon="0.05237155593931674957275390625">
        <ele>2207.800048828125</ele>
        <time>2021-08-23T09:17:24.000Z</time>
      </trkpt>
      <trkpt lat="42.68894358538091182708740234375" lon="0.05236987955868244171142578125">
        <ele>2208</ele>
        <time>2021-08-23T09:17:25.000Z</time>
      </trkpt>
      <trkpt lat="42.688941992819309234619140625" lon="0.052370466291904449462890625">
        <ele>2207.800048828125</ele>
        <time>2021-08-23T09:17:26.000Z</time>
      </trkpt>
      <trkpt lat="42.6889451779425144195556640625" lon="0.05237750709056854248046875">
        <ele>2207.199951171875</ele>
        <time>2021-08-23T09:17:28.000Z</time>
      </trkpt>
      <trkpt lat="42.6889646239578723907470703125" lon="0.05235713906586170196533203125">
        <ele>2211.199951171875</ele>
        <time>2021-08-23T09:17:31.000Z</time>
      </trkpt>
      <trkpt lat="42.68896915018558502197265625" lon="0.05235068500041961669921875">
        <ele>2212.39990234375</ele>
        <time>2021-08-23T09:17:32.000Z</time>
      </trkpt>
      <trkpt lat="42.68897258676588535308837890625" lon="0.052359737455844879150390625">
        <ele>2211.39990234375</ele>
        <time>2021-08-23T09:17:38.000Z</time>
      </trkpt>
      <trkpt lat="42.6889733411371707916259765625" lon="0.05235864780843257904052734375">
        <ele>2211.60009765625</ele>
        <time>2021-08-23T09:17:42.000Z</time>
      </trkpt>
      <trkpt lat="42.6889813877642154693603515625" lon="0.052351690828800201416015625">
        <ele>2213</ele>
        <time>2021-08-23T09:17:55.000Z</time>
      </trkpt>
      <trkpt lat="42.688980214297771453857421875" lon="0.05235378630459308624267578125">
        <ele>2212.800048828125</ele>
        <time>2021-08-23T09:17:57.000Z</time>
      </trkpt>
      <trkpt lat="42.68897828646004199981689453125" lon="0.0523572228848934173583984375">
        <ele>2212.199951171875</ele>
        <time>2021-08-23T09:17:59.000Z</time>
      </trkpt>
      <trkpt lat="42.68896001391112804412841796875" lon="0.05238446407020092010498046875">
        <ele>2207.800048828125</ele>
        <time>2021-08-23T09:18:08.000Z</time>
      </trkpt>
      <trkpt lat="42.688952386379241943359375" lon="0.05240273661911487579345703125">
        <ele>2206.199951171875</ele>
        <time>2021-08-23T09:18:13.000Z</time>
      </trkpt>
      <trkpt lat="42.688944675028324127197265625" lon="0.052410028874874114990234375">
        <ele>2205.39990234375</ele>
        <time>2021-08-23T09:18:20.000Z</time>
      </trkpt>
      <trkpt lat="42.688941992819309234619140625" lon="0.05240843631327152252197265625">
        <ele>2205.39990234375</ele>
        <time>2021-08-23T09:18:28.000Z</time>
      </trkpt>
      <trkpt lat="42.68894794397056102752685546875" lon="0.0524071790277957916259765625">
        <ele>2205.800048828125</ele>
        <time>2021-08-23T09:18:36.000Z</time>
      </trkpt>
      <trkpt lat="42.68894777633249759674072265625" lon="0.05242520011961460113525390625">
        <ele>2204.800048828125</ele>
        <time>2021-08-23T09:18:48.000Z</time>
      </trkpt>
      <trkpt lat="42.6889403164386749267578125" lon="0.05243140272796154022216796875">
        <ele>2204.199951171875</ele>
        <time>2021-08-23T09:19:04.000Z</time>
      </trkpt>
      <trkpt lat="42.68894073553383350372314453125" lon="0.0524306483566761016845703125">
        <ele>2204.199951171875</ele>
        <time>2021-08-23T09:19:06.000Z</time>
      </trkpt>
      <trkpt lat="42.68893805332481861114501953125" lon="0.05243056453764438629150390625">
        <ele>2204.199951171875</ele>
        <time>2021-08-23T09:19:15.000Z</time>
      </trkpt>
      <trkpt lat="42.6889327727258205413818359375" lon="0.05243944935500621795654296875">
        <ele>2203.60009765625</ele>
        <time>2021-08-23T09:19:20.000Z</time>
      </trkpt>
      <trkpt lat="42.68892883323132991790771484375" lon="0.05243944935500621795654296875">
        <ele>2203.39990234375</ele>
        <time>2021-08-23T09:19:22.000Z</time>
      </trkpt>
      <trkpt lat="42.68892355263233184814453125" lon="0.05243475548923015594482421875">
        <ele>2203.39990234375</ele>
        <time>2021-08-23T09:19:24.000Z</time>
      </trkpt>
      <trkpt lat="42.68892363645136356353759765625" lon="0.0524323247373104095458984375">
        <ele>2203.60009765625</ele>
        <time>2021-08-23T09:19:25.000Z</time>
      </trkpt>
      <trkpt lat="42.68892380408942699432373046875" lon="0.05243073217570781707763671875">
        <ele>2203.60009765625</ele>
        <time>2021-08-23T09:19:26.000Z</time>
      </trkpt>
      <trkpt lat="42.688920199871063232421875" lon="0.0524440594017505645751953125">
        <ele>2202.800048828125</ele>
        <time>2021-08-23T09:19:44.000Z</time>
      </trkpt>
      <trkpt lat="42.6889242231845855712890625" lon="0.05245705135166645050048828125">
        <ele>2202.39990234375</ele>
        <time>2021-08-23T09:20:09.000Z</time>
      </trkpt>
      <trkpt lat="42.68892497755587100982666015625" lon="0.0524541176855564117431640625">
        <ele>2202.60009765625</ele>
        <time>2021-08-23T09:20:10.000Z</time>
      </trkpt>
      <trkpt lat="42.6889274083077907562255859375" lon="0.05244682542979717254638671875">
        <ele>2203</ele>
        <time>2021-08-23T09:20:12.000Z</time>
      </trkpt>
      <trkpt lat="42.688925229012966156005859375" lon="0.05243894644081592559814453125">
        <ele>2203.199951171875</ele>
        <time>2021-08-23T09:20:14.000Z</time>
      </trkpt>
      <trkpt lat="42.6889126561582088470458984375" lon="0.0524319894611835479736328125">
        <ele>2203.199951171875</ele>
        <time>2021-08-23T09:20:20.000Z</time>
      </trkpt>
      <trkpt lat="42.68891676329076290130615234375" lon="0.05244112573564052581787109375">
        <ele>2203</ele>
        <time>2021-08-23T09:20:25.000Z</time>
      </trkpt>
      <trkpt lat="42.68891793675720691680908203125" lon="0.0524412095546722412109375">
        <ele>2203</ele>
        <time>2021-08-23T09:20:27.000Z</time>
      </trkpt>
      <trkpt lat="42.688917182385921478271484375" lon="0.0524460710585117340087890625">
        <ele>2202.60009765625</ele>
        <time>2021-08-23T09:20:28.000Z</time>
      </trkpt>
      <trkpt lat="42.68892112188041210174560546875" lon="0.05240709520876407623291015625">
        <ele>2204.800048828125</ele>
        <time>2021-08-23T09:20:39.000Z</time>
      </trkpt>
      <trkpt lat="42.68892447464168071746826171875" lon="0.0524135492742061614990234375">
        <ele>2204.60009765625</ele>
        <time>2021-08-23T09:20:42.000Z</time>
      </trkpt>
      <trkpt lat="42.68891793675720691680908203125" lon="0.05245051346719264984130859375">
        <ele>2202.39990234375</ele>
        <time>2021-08-23T09:20:49.000Z</time>
      </trkpt>
      <trkpt lat="42.68889631144702434539794921875" lon="0.05246057175099849700927734375">
        <ele>2201.199951171875</ele>
        <time>2021-08-23T09:20:58.000Z</time>
      </trkpt>
      <trkpt lat="42.68895045854151248931884765625" lon="0.0523783452808856964111328125">
        <ele>2207.39990234375</ele>
        <time>2021-08-23T09:21:10.000Z</time>
      </trkpt>
      <trkpt lat="42.6889736764132976531982421875" lon="0.05230450071394443511962890625">
        <ele>2218.800048828125</ele>
        <time>2021-08-23T09:21:29.000Z</time>
      </trkpt>
      <trkpt lat="42.68898147158324718475341796875" lon="0.05225546658039093017578125">
        <ele>2225.800048828125</ele>
        <time>2021-08-23T09:21:42.000Z</time>
      </trkpt>
      <trkpt lat="42.68899555318057537078857421875" lon="0.05227533169090747833251953125">
        <ele>2224.199951171875</ele>
        <time>2021-08-23T09:21:49.000Z</time>
      </trkpt>
      <trkpt lat="42.6889988221228122711181640625" lon="0.0522760860621929168701171875">
        <ele>2224.39990234375</ele>
        <time>2021-08-23T09:21:51.000Z</time>
      </trkpt>
      <trkpt lat="42.68899974413216114044189453125" lon="0.05227558314800262451171875">
        <ele>2224.60009765625</ele>
        <time>2021-08-23T09:21:56.000Z</time>
      </trkpt>
      <trkpt lat="42.68900175578892230987548828125" lon="0.052275918424129486083984375">
        <ele>2224.60009765625</ele>
        <time>2021-08-23T09:21:58.000Z</time>
      </trkpt>
      <trkpt lat="42.68900326453149318695068359375" lon="0.05227625370025634765625">
        <ele>2224.60009765625</ele>
        <time>2021-08-23T09:21:59.000Z</time>
      </trkpt>
      <trkpt lat="42.6890048570930957794189453125" lon="0.05227625370025634765625">
        <ele>2224.800048828125</ele>
        <time>2021-08-23T09:22:02.000Z</time>
      </trkpt>
      <trkpt lat="42.68899287097156047821044921875" lon="0.05226728506386280059814453125">
        <ele>2225.199951171875</ele>
        <time>2021-08-23T09:22:21.000Z</time>
      </trkpt>
      <trkpt lat="42.68894861452281475067138671875" lon="0.05226192064583301544189453125">
        <ele>2222.60009765625</ele>
        <time>2021-08-23T09:23:00.000Z</time>
      </trkpt>
      <trkpt lat="42.68896772526204586029052734375" lon="0.05234272219240665435791015625">
        <ele>2213.199951171875</ele>
        <time>2021-08-23T09:23:53.000Z</time>
      </trkpt>
      <trkpt lat="42.6889740116894245147705078125" lon="0.05232260562479496002197265625">
        <ele>2216.39990234375</ele>
        <time>2021-08-23T09:23:59.000Z</time>
      </trkpt>
      <trkpt lat="42.6889706589281558990478515625" lon="0.05231388844549655914306640625">
        <ele>2217.39990234375</ele>
        <time>2021-08-23T09:24:03.000Z</time>
      </trkpt>
      <trkpt lat="42.68896646797657012939453125" lon="0.05232361145317554473876953125">
        <ele>2215.800048828125</ele>
        <time>2021-08-23T09:24:04.000Z</time>
      </trkpt>
      <trkpt lat="42.68896286375820636749267578125" lon="0.052330233156681060791015625">
        <ele>2214.60009765625</ele>
        <time>2021-08-23T09:24:05.000Z</time>
      </trkpt>
      <trkpt lat="42.68895984627306461334228515625" lon="0.05233719013631343841552734375">
        <ele>2213.39990234375</ele>
        <time>2021-08-23T09:24:06.000Z</time>
      </trkpt>
      <trkpt lat="42.688959427177906036376953125" lon="0.0523414649069309234619140625">
        <ele>2212.800048828125</ele>
        <time>2021-08-23T09:24:07.000Z</time>
      </trkpt>
      <trkpt lat="42.68894760869443416595458984375" lon="0.0523726455867290496826171875">
        <ele>2207.800048828125</ele>
        <time>2021-08-23T09:24:18.000Z</time>
      </trkpt>
      <trkpt lat="42.68894274719059467315673828125" lon="0.05237507633864879608154296875">
        <ele>2207.199951171875</ele>
        <time>2021-08-23T09:24:22.000Z</time>
      </trkpt>
      <trkpt lat="42.68894241191446781158447265625" lon="0.05237490870058536529541015625">
        <ele>2207.199951171875</ele>
        <time>2021-08-23T09:24:23.000Z</time>
      </trkpt>
      <trkpt lat="42.68892128951847553253173828125" lon="0.05243089981377124786376953125">
        <ele>2203.60009765625</ele>
        <time>2021-08-23T09:24:30.000Z</time>
      </trkpt>
      <trkpt lat="42.68892397172749042510986328125" lon="0.05243542604148387908935546875">
        <ele>2203.39990234375</ele>
        <time>2021-08-23T09:24:33.000Z</time>
      </trkpt>
      <trkpt lat="42.6889295876026153564453125" lon="0.0524420477449893951416015625">
        <ele>2203.199951171875</ele>
        <time>2021-08-23T09:24:36.000Z</time>
      </trkpt>
      <trkpt lat="42.68889748491346836090087890625" lon="0.0524385273456573486328125">
        <ele>2202.39990234375</ele>
        <time>2021-08-23T09:24:47.000Z</time>
      </trkpt>
      <trkpt lat="42.68889949657022953033447265625" lon="0.05245034582912921905517578125">
        <ele>2201.800048828125</ele>
        <time>2021-08-23T09:24:50.000Z</time>
      </trkpt>
      <trkpt lat="42.68890083767473697662353515625" lon="0.05245126783847808837890625">
        <ele>2201.800048828125</ele>
        <time>2021-08-23T09:24:51.000Z</time>
      </trkpt>
      <trkpt lat="42.68890335224568843841552734375" lon="0.052446238696575164794921875">
        <ele>2202.199951171875</ele>
        <time>2021-08-23T09:24:59.000Z</time>
      </trkpt>
      <trkpt lat="42.6889321021735668182373046875" lon="0.0523344241082668304443359375">
        <ele>2211.800048828125</ele>
        <time>2021-08-23T09:25:39.000Z</time>
      </trkpt>
      <trkpt lat="42.68894232809543609619140625" lon="0.05235395394265651702880859375">
        <ele>2210</ele>
        <time>2021-08-23T09:25:50.000Z</time>
      </trkpt>
      <trkpt lat="42.68892799504101276397705078125" lon="0.0523994676768779754638671875">
        <ele>2205.39990234375</ele>
        <time>2021-08-23T09:26:09.000Z</time>
      </trkpt>
      <trkpt lat="42.68892883323132991790771484375" lon="0.0523981265723705291748046875">
        <ele>2205.39990234375</ele>
        <time>2021-08-23T09:26:11.000Z</time>
      </trkpt>
      <trkpt lat="42.68892765976488590240478515625" lon="0.05239821039140224456787109375">
        <ele>2205.39990234375</ele>
        <time>2021-08-23T09:26:12.000Z</time>
      </trkpt>
      <trkpt lat="42.6889341138303279876708984375" lon="0.05240927450358867645263671875">
        <ele>2205</ele>
        <time>2021-08-23T09:26:16.000Z</time>
      </trkpt>
      <trkpt lat="42.6889401488006114959716796875" lon="0.0524239428341388702392578125">
        <ele>2204.60009765625</ele>
        <time>2021-08-23T09:26:27.000Z</time>
      </trkpt>
      <trkpt lat="42.6889307610690593719482421875" lon="0.0524038262665271759033203125">
        <ele>2205.199951171875</ele>
        <time>2021-08-23T09:26:30.000Z</time>
      </trkpt>
      <trkpt lat="42.6889243908226490020751953125" lon="0.05239837802946567535400390625">
        <ele>2205.39990234375</ele>
        <time>2021-08-23T09:26:32.000Z</time>
      </trkpt>
      <trkpt lat="42.68892162479460239410400390625" lon="0.0523991324007511138916015625">
        <ele>2205.199951171875</ele>
        <time>2021-08-23T09:26:33.000Z</time>
      </trkpt>
      <trkpt lat="42.68891810439527034759521484375" lon="0.05239267833530902862548828125">
        <ele>2205.39990234375</ele>
        <time>2021-08-23T09:26:35.000Z</time>
      </trkpt>
      <trkpt lat="42.6889180205762386322021484375" lon="0.05238957703113555908203125">
        <ele>2205.60009765625</ele>
        <time>2021-08-23T09:26:37.000Z</time>
      </trkpt>
      <trkpt lat="42.68896085210144519805908203125" lon="0.05235848017036914825439453125">
        <ele>2210.60009765625</ele>
        <time>2021-08-23T09:26:48.000Z</time>
      </trkpt>
      <trkpt lat="42.6889683119952678680419921875" lon="0.05231204442679882049560546875">
        <ele>2217.39990234375</ele>
        <time>2021-08-23T09:27:47.000Z</time>
      </trkpt>
      <trkpt lat="42.68898549489676952362060546875" lon="0.05231045186519622802734375">
        <ele>2218.800048828125</ele>
        <time>2021-08-23T09:27:58.000Z</time>
      </trkpt>
      <trkpt lat="42.68925270996987819671630859375" lon="0.05230248905718326568603515625">
        <ele>2234.39990234375</ele>
        <time>2021-08-23T09:29:40.000Z</time>
      </trkpt>
      <trkpt lat="42.6891654543578624725341796875" lon="0.05214222706854343414306640625">
        <ele>2243.199951171875</ele>
        <time>2021-08-23T09:30:14.000Z</time>
      </trkpt>
      <trkpt lat="42.688983567059040069580078125" lon="0.0520279817283153533935546875">
        <ele>2245.800048828125</ele>
        <time>2021-08-23T09:31:07.000Z</time>
      </trkpt>
      <trkpt lat="42.68897811882197856903076171875" lon="0.05199369974434375762939453125">
        <ele>2246.199951171875</ele>
        <time>2021-08-23T09:31:11.000Z</time>
      </trkpt>
      <trkpt lat="42.688977532088756561279296875" lon="0.0519934482872486114501953125">
        <ele>2246.199951171875</ele>
        <time>2021-08-23T09:31:12.000Z</time>
      </trkpt>
      <trkpt lat="42.68897744826972484588623046875" lon="0.051989592611789703369140625">
        <ele>2246.39990234375</ele>
        <time>2021-08-23T09:31:14.000Z</time>
      </trkpt>
      <trkpt lat="42.68896956928074359893798828125" lon="0.05195899866521358489990234375">
        <ele>2246.800048828125</ele>
        <time>2021-08-23T09:31:20.000Z</time>
      </trkpt>
      <trkpt lat="42.688957750797271728515625" lon="0.051930584013462066650390625">
        <ele>2247.199951171875</ele>
        <time>2021-08-23T09:31:23.000Z</time>
      </trkpt>
      <trkpt lat="42.688942663371562957763671875" lon="0.0519170053303241729736328125">
        <ele>2247.199951171875</ele>
        <time>2021-08-23T09:31:24.000Z</time>
      </trkpt>
      <trkpt lat="42.6889364607632160186767578125" lon="0.05191407166421413421630859375">
        <ele>2247.199951171875</ele>
        <time>2021-08-23T09:31:25.000Z</time>
      </trkpt>
      <trkpt lat="42.68892212770879268646240234375" lon="0.05188138224184513092041015625">
        <ele>2247.800048828125</ele>
        <time>2021-08-23T09:31:30.000Z</time>
      </trkpt>
      <trkpt lat="42.68892221152782440185546875" lon="0.05187987349927425384521484375">
        <ele>2247.800048828125</ele>
        <time>2021-08-23T09:31:31.000Z</time>
      </trkpt>
      <trkpt lat="42.6889260672032833099365234375" lon="0.05187668837606906890869140625">
        <ele>2248</ele>
        <time>2021-08-23T09:31:32.000Z</time>
      </trkpt>
      <trkpt lat="42.6889260672032833099365234375" lon="0.05187668837606906890869140625">
        <ele>2248</ele>
        <time>2021-08-23T09:31:33.000Z</time>
      </trkpt>
      <trkpt lat="42.6889284141361713409423828125" lon="0.0518807955086231231689453125">
        <ele>2247.800048828125</ele>
        <time>2021-08-23T09:31:34.000Z</time>
      </trkpt>
      <trkpt lat="42.688930593430995941162109375" lon="0.05188724957406520843505859375">
        <ele>2247.800048828125</ele>
        <time>2021-08-23T09:31:35.000Z</time>
      </trkpt>
      <trkpt lat="42.6889336109161376953125" lon="0.05189211107790470123291015625">
        <ele>2247.60009765625</ele>
        <time>2021-08-23T09:31:39.000Z</time>
      </trkpt>
      <trkpt lat="42.68894827924668788909912109375" lon="0.05189294926822185516357421875">
        <ele>2247.800048828125</ele>
        <time>2021-08-23T09:31:42.000Z</time>
      </trkpt>
      <trkpt lat="42.68895783461630344390869140625" lon="0.05189311690628528594970703125">
        <ele>2247.800048828125</ele>
        <time>2021-08-23T09:31:43.000Z</time>
      </trkpt>
      <trkpt lat="42.68895783461630344390869140625" lon="0.05189311690628528594970703125">
        <ele>2247.800048828125</ele>
        <time>2021-08-23T09:31:44.000Z</time>
      </trkpt>
      <trkpt lat="42.68896772526204586029052734375" lon="0.05191558040678501129150390625">
        <ele>2247.60009765625</ele>
        <time>2021-08-23T09:31:47.000Z</time>
      </trkpt>
      <trkpt lat="42.68897342495620250701904296875" lon="0.05192153155803680419921875">
        <ele>2247.60009765625</ele>
        <time>2021-08-23T09:31:48.000Z</time>
      </trkpt>
      <trkpt lat="42.6889979839324951171875" lon="0.051916502416133880615234375">
        <ele>2247.800048828125</ele>
        <time>2021-08-23T09:31:50.000Z</time>
      </trkpt>
      <trkpt lat="42.689038217067718505859375" lon="0.05191004835069179534912109375">
        <ele>2248.60009765625</ele>
        <time>2021-08-23T09:31:56.000Z</time>
      </trkpt>
      <trkpt lat="42.68906797282397747039794921875" lon="0.0518764369189739227294921875">
        <ele>2251.60009765625</ele>
        <time>2021-08-23T09:31:59.000Z</time>
      </trkpt>
      <trkpt lat="42.68907937221229076385498046875" lon="0.05187300033867359161376953125">
        <ele>2252.199951171875</ele>
        <time>2021-08-23T09:32:01.000Z</time>
      </trkpt>
      <trkpt lat="42.6890950463712215423583984375" lon="0.05187568254768848419189453125">
        <ele>2252.800048828125</ele>
        <time>2021-08-23T09:32:05.000Z</time>
      </trkpt>
      <trkpt lat="42.68909881822764873504638671875" lon="0.0518707372248172760009765625">
        <ele>2253.199951171875</ele>
        <time>2021-08-23T09:32:07.000Z</time>
      </trkpt>
      <trkpt lat="42.689104937016963958740234375" lon="0.0518670491874217987060546875">
        <ele>2253.60009765625</ele>
        <time>2021-08-23T09:32:09.000Z</time>
      </trkpt>
      <trkpt lat="42.68910862505435943603515625" lon="0.05186646245419979095458984375">
        <ele>2253.800048828125</ele>
        <time>2021-08-23T09:32:10.000Z</time>
      </trkpt>
      <trkpt lat="42.68911801278591156005859375" lon="0.051864869892597198486328125">
        <ele>2254.39990234375</ele>
        <time>2021-08-23T09:32:12.000Z</time>
      </trkpt>
      <trkpt lat="42.68912605941295623779296875" lon="0.051867552101612091064453125">
        <ele>2254.60009765625</ele>
        <time>2021-08-23T09:32:13.000Z</time>
      </trkpt>
      <trkpt lat="42.6891379617154598236083984375" lon="0.05187995731830596923828125">
        <ele>2254.39990234375</ele>
        <time>2021-08-23T09:32:15.000Z</time>
      </trkpt>
      <trkpt lat="42.689135782420635223388671875" lon="0.051881968975067138671875">
        <ele>2254.199951171875</ele>
        <time>2021-08-23T09:32:18.000Z</time>
      </trkpt>
      <trkpt lat="42.6892948709428310394287109375" lon="0.05183679051697254180908203125">
        <ele>2261.800048828125</ele>
        <time>2021-08-23T09:32:48.000Z</time>
      </trkpt>
      <trkpt lat="42.68934625200927257537841796875" lon="0.051852799952030181884765625">
        <ele>2262.199951171875</ele>
        <time>2021-08-23T09:32:54.000Z</time>
      </trkpt>
      <trkpt lat="42.68940509296953678131103515625" lon="0.0519154965877532958984375">
        <ele>2261</ele>
        <time>2021-08-23T09:33:09.000Z</time>
      </trkpt>
      <trkpt lat="42.68947969190776348114013671875" lon="0.0520219467580318450927734375">
        <ele>2258.39990234375</ele>
        <time>2021-08-23T09:33:33.000Z</time>
      </trkpt>
      <trkpt lat="42.689511962234973907470703125" lon="0.05210987292230129241943359375">
        <ele>2255.60009765625</ele>
        <time>2021-08-23T09:33:43.000Z</time>
      </trkpt>
      <trkpt lat="42.68954523839056491851806640625" lon="0.05211389623582363128662109375">
        <ele>2255.60009765625</ele>
        <time>2021-08-23T09:34:30.000Z</time>
      </trkpt>
      <trkpt lat="42.68957189284265041351318359375" lon="0.05211758427321910858154296875">
        <ele>2255.60009765625</ele>
        <time>2021-08-23T09:34:38.000Z</time>
      </trkpt>
      <trkpt lat="42.68958932720124721527099609375" lon="0.05216033197939395904541015625">
        <ele>2253.60009765625</ele>
        <time>2021-08-23T09:34:50.000Z</time>
      </trkpt>
      <trkpt lat="42.6896150596439838409423828125" lon="0.05225387401878833770751953125">
        <ele>2249.199951171875</ele>
        <time>2021-08-23T09:35:08.000Z</time>
      </trkpt>
      <trkpt lat="42.6897602342069149017333984375" lon="0.05234288983047008514404296875">
        <ele>2245.60009765625</ele>
        <time>2021-08-23T09:35:36.000Z</time>
      </trkpt>
      <trkpt lat="42.68977507017552852630615234375" lon="0.05235227756202220916748046875">
        <ele>2245.199951171875</ele>
        <time>2021-08-23T09:35:39.000Z</time>
      </trkpt>
      <trkpt lat="42.689780183136463165283203125" lon="0.0523580610752105712890625">
        <ele>2245</ele>
        <time>2021-08-23T09:35:42.000Z</time>
      </trkpt>
      <trkpt lat="42.6898028142750263214111328125" lon="0.05238345824182033538818359375">
        <ele>2244</ele>
        <time>2021-08-23T09:35:54.000Z</time>
      </trkpt>
      <trkpt lat="42.68983173184096813201904296875" lon="0.0523843802511692047119140625">
        <ele>2245</ele>
        <time>2021-08-23T09:35:59.000Z</time>
      </trkpt>
      <trkpt lat="42.68987037241458892822265625" lon="0.0523833744227886199951171875">
        <ele>2246.39990234375</ele>
        <time>2021-08-23T09:36:09.000Z</time>
      </trkpt>
      <trkpt lat="42.6899349130690097808837890625" lon="0.05230550654232501983642578125">
        <ele>2253.199951171875</ele>
        <time>2021-08-23T09:36:19.000Z</time>
      </trkpt>
      <trkpt lat="42.6900069974362850189208984375" lon="0.05225555039942264556884765625">
        <ele>2256.60009765625</ele>
        <time>2021-08-23T09:36:27.000Z</time>
      </trkpt>
      <trkpt lat="42.690083943307399749755859375" lon="0.05210199393332004547119140625">
        <ele>2263.199951171875</ele>
        <time>2021-08-23T09:36:42.000Z</time>
      </trkpt>
      <trkpt lat="42.690108083188533782958984375" lon="0.05205270834267139434814453125">
        <ele>2270.60009765625</ele>
        <time>2021-08-23T09:36:50.000Z</time>
      </trkpt>
      <trkpt lat="42.69018209539353847503662109375" lon="0.05204935558140277862548828125">
        <ele>2277.199951171875</ele>
        <time>2021-08-23T09:37:17.000Z</time>
      </trkpt>
      <trkpt lat="42.69015896134078502655029296875" lon="0.052070729434490203857421875">
        <ele>2272.800048828125</ele>
        <time>2021-08-23T09:37:39.000Z</time>
      </trkpt>
      <trkpt lat="42.6902450434863567352294921875" lon="0.0520896725356578826904296875">
        <ele>2277.800048828125</ele>
        <time>2021-08-23T09:37:53.000Z</time>
      </trkpt>
      <trkpt lat="42.69033749587833881378173828125" lon="0.0521107949316501617431640625">
        <ele>2283.39990234375</ele>
        <time>2021-08-23T09:38:07.000Z</time>
      </trkpt>
      <trkpt lat="42.69049742259085178375244140625" lon="0.05229947157204151153564453125">
        <ele>2275.60009765625</ele>
        <time>2021-08-23T09:38:52.000Z</time>
      </trkpt>
      <trkpt lat="42.690514437854290008544921875" lon="0.05230106413364410400390625">
        <ele>2276</ele>
        <time>2021-08-23T09:38:59.000Z</time>
      </trkpt>
      <trkpt lat="42.69050580449402332305908203125" lon="0.05226275883615016937255859375">
        <ele>2278.60009765625</ele>
        <time>2021-08-23T09:39:09.000Z</time>
      </trkpt>
      <trkpt lat="42.690454758703708648681640625" lon="0.052048601210117340087890625">
        <ele>2297.39990234375</ele>
        <time>2021-08-23T09:39:53.000Z</time>
      </trkpt>
      <trkpt lat="42.6903758011758327484130859375" lon="0.05180192179977893829345703125">
        <ele>2318.39990234375</ele>
        <time>2021-08-23T09:40:34.000Z</time>
      </trkpt>
      <trkpt lat="42.69037999212741851806640625" lon="0.0517362914979457855224609375">
        <ele>2320.199951171875</ele>
        <time>2021-08-23T09:40:58.000Z</time>
      </trkpt>
      <trkpt lat="42.69037957303225994110107421875" lon="0.051670409739017486572265625">
        <ele>2322.199951171875</ele>
        <time>2021-08-23T09:41:11.000Z</time>
      </trkpt>
      <trkpt lat="42.69057084806263446807861328125" lon="0.0515560805797576904296875">
        <ele>2328.199951171875</ele>
        <time>2021-08-23T09:42:52.000Z</time>
      </trkpt>
      <trkpt lat="42.690523825585842132568359375" lon="0.0513859279453754425048828125">
        <ele>2333.199951171875</ele>
        <time>2021-08-23T09:43:22.000Z</time>
      </trkpt>
      <trkpt lat="42.69051074981689453125" lon="0.051351897418498992919921875">
        <ele>2334.199951171875</ele>
        <time>2021-08-23T09:43:38.000Z</time>
      </trkpt>
      <trkpt lat="42.690628431737422943115234375" lon="0.0513956509530544281005859375">
        <ele>2333.199951171875</ele>
        <time>2021-08-23T09:43:59.000Z</time>
      </trkpt>
      <trkpt lat="42.69062968902289867401123046875" lon="0.05130336619913578033447265625">
        <ele>2335.60009765625</ele>
        <time>2021-08-23T09:44:24.000Z</time>
      </trkpt>
      <trkpt lat="42.690604962408542633056640625" lon="0.05124201066792011260986328125">
        <ele>2336.800048828125</ele>
        <time>2021-08-23T09:45:11.000Z</time>
      </trkpt>
      <trkpt lat="42.69059532321989536285400390625" lon="0.05120999179780483245849609375">
        <ele>2338.199951171875</ele>
        <time>2021-08-23T09:45:18.000Z</time>
      </trkpt>
      <trkpt lat="42.69059951417148113250732421875" lon="0.0511939823627471923828125">
        <ele>2338.800048828125</ele>
        <time>2021-08-23T09:45:24.000Z</time>
      </trkpt>
      <trkpt lat="42.6905856840312480926513671875" lon="0.05111695267260074615478515625">
        <ele>2341.800048828125</ele>
        <time>2021-08-23T09:45:35.000Z</time>
      </trkpt>
      <trkpt lat="42.690572440624237060546875" lon="0.05108334124088287353515625">
        <ele>2343</ele>
        <time>2021-08-23T09:45:40.000Z</time>
      </trkpt>
      <trkpt lat="42.690521813929080963134765625" lon="0.05105006508529186248779296875">
        <ele>2344.199951171875</ele>
        <time>2021-08-23T09:45:50.000Z</time>
      </trkpt>
      <trkpt lat="42.6904718577861785888671875" lon="0.05103179253637790679931640625">
        <ele>2344.800048828125</ele>
        <time>2021-08-23T09:45:56.000Z</time>
      </trkpt>
      <trkpt lat="42.69043841399252414703369140625" lon="0.051012597978115081787109375">
        <ele>2345.39990234375</ele>
        <time>2021-08-23T09:46:00.000Z</time>
      </trkpt>
      <trkpt lat="42.6903925649821758270263671875" lon="0.05097479559481143951416015625">
        <ele>2346.60009765625</ele>
        <time>2021-08-23T09:46:07.000Z</time>
      </trkpt>
      <trkpt lat="42.6904361508786678314208984375" lon="0.050832889974117279052734375">
        <ele>2351.39990234375</ele>
        <time>2021-08-23T09:47:07.000Z</time>
      </trkpt>
      <trkpt lat="42.69042290747165679931640625" lon="0.0508012063801288604736328125">
        <ele>2352.39990234375</ele>
        <time>2021-08-23T09:47:13.000Z</time>
      </trkpt>
      <trkpt lat="42.69042064435780048370361328125" lon="0.0507777370512485504150390625">
        <ele>2353.199951171875</ele>
        <time>2021-08-23T09:47:16.000Z</time>
      </trkpt>
      <trkpt lat="42.690426595509052276611328125" lon="0.0507606379687786102294921875">
        <ele>2354</ele>
        <time>2021-08-23T09:47:20.000Z</time>
      </trkpt>
      <trkpt lat="42.69042651169002056121826171875" lon="0.05075250752270221710205078125">
        <ele>2354.199951171875</ele>
        <time>2021-08-23T09:47:25.000Z</time>
      </trkpt>
      <trkpt lat="42.69055844284594058990478515625" lon="0.05081486888229846954345703125">
        <ele>2353.199951171875</ele>
        <time>2021-08-23T09:48:03.000Z</time>
      </trkpt>
      <trkpt lat="42.69059867598116397857666015625" lon="0.05078955553472042083740234375">
        <ele>2354.60009765625</ele>
        <time>2021-08-23T09:48:10.000Z</time>
      </trkpt>
      <trkpt lat="42.690647207200527191162109375" lon="0.0507763959467411041259765625">
        <ele>2357</ele>
        <time>2021-08-23T09:48:35.000Z</time>
      </trkpt>
      <trkpt lat="42.69064142368733882904052734375" lon="0.05077715031802654266357421875">
        <ele>2356.800048828125</ele>
        <time>2021-08-23T09:48:41.000Z</time>
      </trkpt>
      <trkpt lat="42.690605632960796356201171875" lon="0.05075317807495594024658203125">
        <ele>2356.199951171875</ele>
        <time>2021-08-23T09:49:06.000Z</time>
      </trkpt>
      <trkpt lat="42.690589539706707000732421875" lon="0.050741024315357208251953125">
        <ele>2356.60009765625</ele>
        <time>2021-08-23T09:49:11.000Z</time>
      </trkpt>
      <trkpt lat="42.69055793993175029754638671875" lon="0.0506821833550930023193359375">
        <ele>2358.199951171875</ele>
        <time>2021-08-23T09:49:17.000Z</time>
      </trkpt>
      <trkpt lat="42.69059549085795879364013671875" lon="0.05066885612905025482177734375">
        <ele>2359.39990234375</ele>
        <time>2021-08-23T09:49:26.000Z</time>
      </trkpt>
      <trkpt lat="42.69070814363658428192138671875" lon="0.05071512423455715179443359375">
        <ele>2362.39990234375</ele>
        <time>2021-08-23T09:49:37.000Z</time>
      </trkpt>
      <trkpt lat="42.69065818749368190765380859375" lon="0.0506315566599369049072265625">
        <ele>2364</ele>
        <time>2021-08-23T09:49:52.000Z</time>
      </trkpt>
      <trkpt lat="42.69074150361120700836181640625" lon="0.0504483282566070556640625">
        <ele>2377.199951171875</ele>
        <time>2021-08-23T09:51:11.000Z</time>
      </trkpt>
      <trkpt lat="42.69068132154643535614013671875" lon="0.05039057694375514984130859375">
        <ele>2377</ele>
        <time>2021-08-23T09:51:23.000Z</time>
      </trkpt>
      <trkpt lat="42.690678052604198455810546875" lon="0.05036677233874797821044921875">
        <ele>2378.199951171875</ele>
        <time>2021-08-23T09:51:28.000Z</time>
      </trkpt>
      <trkpt lat="42.69067964516580104827880859375" lon="0.0503616593778133392333984375">
        <ele>2378.60009765625</ele>
        <time>2021-08-23T09:51:29.000Z</time>
      </trkpt>
      <trkpt lat="42.69067813642323017120361328125" lon="0.0503552891314029693603515625">
        <ele>2378.800048828125</ele>
        <time>2021-08-23T09:51:30.000Z</time>
      </trkpt>
      <trkpt lat="42.69067528657615184783935546875" lon="0.05034749396145343780517578125">
        <ele>2379</ele>
        <time>2021-08-23T09:51:31.000Z</time>
      </trkpt>
      <trkpt lat="42.690658606588840484619140625" lon="0.0501728989183902740478515625">
        <ele>2387.60009765625</ele>
        <time>2021-08-23T09:52:00.000Z</time>
      </trkpt>
      <trkpt lat="42.6906366460025310516357421875" lon="0.05013811402022838592529296875">
        <ele>2388.39990234375</ele>
        <time>2021-08-23T09:52:19.000Z</time>
      </trkpt>
      <trkpt lat="42.69059398211538791656494140625" lon="0.05006921477615833282470703125">
        <ele>2391.199951171875</ele>
        <time>2021-08-23T09:52:52.000Z</time>
      </trkpt>
      <trkpt lat="42.6903860270977020263671875" lon="0.0499506108462810516357421875">
        <ele>2399.199951171875</ele>
        <time>2021-08-23T09:53:29.000Z</time>
      </trkpt>
      <trkpt lat="42.69039147533476352691650390625" lon="0.04981289617717266082763671875">
        <ele>2408</ele>
        <time>2021-08-23T09:54:07.000Z</time>
      </trkpt>
      <trkpt lat="42.690475881099700927734375" lon="0.04980334080755710601806640625">
        <ele>2407.800048828125</ele>
        <time>2021-08-23T09:54:28.000Z</time>
      </trkpt>
      <trkpt lat="42.69046674482524394989013671875" lon="0.0498101301491260528564453125">
        <ele>2407.60009765625</ele>
        <time>2021-08-23T09:54:32.000Z</time>
      </trkpt>
      <trkpt lat="42.6904572732746601104736328125" lon="0.04980132915079593658447265625">
        <ele>2408</ele>
        <time>2021-08-23T09:54:36.000Z</time>
      </trkpt>
      <trkpt lat="42.6904532499611377716064453125" lon="0.0497776083648204803466796875">
        <ele>2409.39990234375</ele>
        <time>2021-08-23T09:54:47.000Z</time>
      </trkpt>
      <trkpt lat="42.690440677106380462646484375" lon="0.04977249540388584136962890625">
        <ele>2409.800048828125</ele>
        <time>2021-08-23T09:54:51.000Z</time>
      </trkpt>
      <trkpt lat="42.69039901904761791229248046875" lon="0.04974081180989742279052734375">
        <ele>2411.800048828125</ele>
        <time>2021-08-23T09:55:01.000Z</time>
      </trkpt>
      <trkpt lat="42.690299190580844879150390625" lon="0.04965397529304027557373046875">
        <ele>2417</ele>
        <time>2021-08-23T09:55:33.000Z</time>
      </trkpt>
      <trkpt lat="42.6904381625354290008544921875" lon="0.04957971163094043731689453125">
        <ele>2421.60009765625</ele>
        <time>2021-08-23T09:56:01.000Z</time>
      </trkpt>
      <trkpt lat="42.69020925275981426239013671875" lon="0.0494949705898761749267578125">
        <ele>2428.800048828125</ele>
        <time>2021-08-23T09:56:46.000Z</time>
      </trkpt>
      <trkpt lat="42.69006793387234210968017578125" lon="0.0494027696549892425537109375">
        <ele>2437</ele>
        <time>2021-08-23T09:57:10.000Z</time>
      </trkpt>
      <trkpt lat="42.6903409324586391448974609375" lon="0.04926203750073909759521484375">
        <ele>2436.199951171875</ele>
        <time>2021-08-23T09:58:36.000Z</time>
      </trkpt>
      <trkpt lat="42.69035057164728641510009765625" lon="0.049269832670688629150390625">
        <ele>2436</ele>
        <time>2021-08-23T09:58:51.000Z</time>
      </trkpt>
      <trkpt lat="42.690202295780181884765625" lon="0.04903840832412242889404296875">
        <ele>2453.800048828125</ele>
        <time>2021-08-23T09:59:51.000Z</time>
      </trkpt>
      <trkpt lat="42.690124846994876861572265625" lon="0.0489752925932407379150390625">
        <ele>2458</ele>
        <time>2021-08-23T10:00:05.000Z</time>
      </trkpt>
      <trkpt lat="42.6901048980653285980224609375" lon="0.048963725566864013671875">
        <ele>2459</ele>
        <time>2021-08-23T10:00:08.000Z</time>
      </trkpt>
      <trkpt lat="42.69006659276783466339111328125" lon="0.04891267977654933929443359375">
        <ele>2461.800048828125</ele>
        <time>2021-08-23T10:00:27.000Z</time>
      </trkpt>
      <trkpt lat="42.6901303790509700775146484375" lon="0.0488851033151149749755859375">
        <ele>2461.60009765625</ele>
        <time>2021-08-23T10:00:39.000Z</time>
      </trkpt>
      <trkpt lat="42.6901669241487979888916015625" lon="0.048879571259021759033203125">
        <ele>2461</ele>
        <time>2021-08-23T10:00:45.000Z</time>
      </trkpt>
      <trkpt lat="42.6901768147945404052734375" lon="0.04875442944467067718505859375">
        <ele>2468.60009765625</ele>
        <time>2021-08-23T10:01:29.000Z</time>
      </trkpt>
      <trkpt lat="42.690100707113742828369140625" lon="0.04868251271545886993408203125">
        <ele>2473.800048828125</ele>
        <time>2021-08-23T10:01:44.000Z</time>
      </trkpt>
      <trkpt lat="42.6900877989828586578369140625" lon="0.04861042834818363189697265625">
        <ele>2479</ele>
        <time>2021-08-23T10:02:14.000Z</time>
      </trkpt>
      <trkpt lat="42.69014798104763031005859375" lon="0.048603303730487823486328125">
        <ele>2479.60009765625</ele>
        <time>2021-08-23T10:02:20.000Z</time>
      </trkpt>
      <trkpt lat="42.69026197493076324462890625" lon="0.04858746193349361419677734375">
        <ele>2481.39990234375</ele>
        <time>2021-08-23T10:02:32.000Z</time>
      </trkpt>
      <trkpt lat="42.69028770737349987030029296875" lon="0.04857656545937061309814453125">
        <ele>2482.39990234375</ele>
        <time>2021-08-23T10:02:36.000Z</time>
      </trkpt>
      <trkpt lat="42.69036381505429744720458984375" lon="0.04857547581195831298828125">
        <ele>2483.199951171875</ele>
        <time>2021-08-23T10:02:44.000Z</time>
      </trkpt>
      <trkpt lat="42.69029642455279827117919921875" lon="0.04850816912949085235595703125">
        <ele>2488</ele>
        <time>2021-08-23T10:03:19.000Z</time>
      </trkpt>
      <trkpt lat="42.69025267101824283599853515625" lon="0.04847497679293155670166015625">
        <ele>2489.60009765625</ele>
        <time>2021-08-23T10:03:30.000Z</time>
      </trkpt>
      <trkpt lat="42.69027127884328365325927734375" lon="0.0484608113765716552734375">
        <ele>2490.199951171875</ele>
        <time>2021-08-23T10:03:37.000Z</time>
      </trkpt>
      <trkpt lat="42.690293826162815093994140625" lon="0.04845150746405124664306640625">
        <ele>2490.39990234375</ele>
        <time>2021-08-23T10:03:41.000Z</time>
      </trkpt>
      <trkpt lat="42.69031159579753875732421875" lon="0.0484499149024486541748046875">
        <ele>2491.199951171875</ele>
        <time>2021-08-23T10:03:42.000Z</time>
      </trkpt>
      <trkpt lat="42.690322659909725189208984375" lon="0.0484348274767398834228515625">
        <ele>2492.199951171875</ele>
        <time>2021-08-23T10:03:48.000Z</time>
      </trkpt>
      <trkpt lat="42.690321318805217742919921875" lon="0.04843600094318389892578125">
        <ele>2492.199951171875</ele>
        <time>2021-08-23T10:03:49.000Z</time>
      </trkpt>
      <trkpt lat="42.690277062356472015380859375" lon="0.04847262986004352569580078125">
        <ele>2489.800048828125</ele>
        <time>2021-08-23T10:04:05.000Z</time>
      </trkpt>
      <trkpt lat="42.6902681775391101837158203125" lon="0.04849224351346492767333984375">
        <ele>2489</ele>
        <time>2021-08-23T10:04:08.000Z</time>
      </trkpt>
      <trkpt lat="42.69023925997316837310791015625" lon="0.048486627638339996337890625">
        <ele>2489.199951171875</ele>
        <time>2021-08-23T10:04:23.000Z</time>
      </trkpt>
      <trkpt lat="42.69023641012609004974365234375" lon="0.048473216593265533447265625">
        <ele>2489.60009765625</ele>
        <time>2021-08-23T10:04:30.000Z</time>
      </trkpt>
      <trkpt lat="42.69023238681256771087646484375" lon="0.0484727136790752410888671875">
        <ele>2489.60009765625</ele>
        <time>2021-08-23T10:04:36.000Z</time>
      </trkpt>
      <trkpt lat="42.69023339264094829559326171875" lon="0.04848335869610309600830078125">
        <ele>2489.39990234375</ele>
        <time>2021-08-23T10:04:45.000Z</time>
      </trkpt>
      <trkpt lat="42.69018687307834625244140625" lon="0.04843155853450298309326171875">
        <ele>2490.199951171875</ele>
        <time>2021-08-23T10:04:52.000Z</time>
      </trkpt>
      <trkpt lat="42.69018821418285369873046875" lon="0.04836400039494037628173828125">
        <ele>2491.60009765625</ele>
        <time>2021-08-23T10:05:05.000Z</time>
      </trkpt>
      <trkpt lat="42.6902098394930362701416015625" lon="0.04834421910345554351806640625">
        <ele>2492.800048828125</ele>
        <time>2021-08-23T10:05:10.000Z</time>
      </trkpt>
      <trkpt lat="42.6902054809033870697021484375" lon="0.04833315499126911163330078125">
        <ele>2493.199951171875</ele>
        <time>2021-08-23T10:05:11.000Z</time>
      </trkpt>
      <trkpt lat="42.69020858220756053924560546875" lon="0.04831018857657909393310546875">
        <ele>2494.39990234375</ele>
        <time>2021-08-23T10:05:13.000Z</time>
      </trkpt>
      <trkpt lat="42.690261639654636383056640625" lon="0.04828956909477710723876953125">
        <ele>2497.39990234375</ele>
        <time>2021-08-23T10:05:22.000Z</time>
      </trkpt>
      <trkpt lat="42.6902725361287593841552734375" lon="0.04829292185604572296142578125">
        <ele>2497.60009765625</ele>
        <time>2021-08-23T10:05:24.000Z</time>
      </trkpt>
      <trkpt lat="42.69027915783226490020751953125" lon="0.0482918322086334228515625">
        <ele>2498</ele>
        <time>2021-08-23T10:05:29.000Z</time>
      </trkpt>
      <trkpt lat="42.69028435461223125457763671875" lon="0.04828956909477710723876953125">
        <ele>2498.199951171875</ele>
        <time>2021-08-23T10:05:30.000Z</time>
      </trkpt>
      <trkpt lat="42.69030229188501834869384765625" lon="0.04823475144803524017333984375">
        <ele>2501.60009765625</ele>
        <time>2021-08-23T10:05:39.000Z</time>
      </trkpt>
      <trkpt lat="42.69028653390705585479736328125" lon="0.04819870926439762115478515625">
        <ele>2503</ele>
        <time>2021-08-23T10:05:45.000Z</time>
      </trkpt>
      <trkpt lat="42.69024479202926158905029296875" lon="0.048175491392612457275390625">
        <ele>2502.800048828125</ele>
        <time>2021-08-23T10:05:53.000Z</time>
      </trkpt>
      <trkpt lat="42.69012291915714740753173828125" lon="0.04808220081031322479248046875">
        <ele>2504.199951171875</ele>
        <time>2021-08-23T10:06:13.000Z</time>
      </trkpt>
      <trkpt lat="42.6899764873087406158447265625" lon="0.04799745976924896240234375">
        <ele>2502</ele>
        <time>2021-08-23T10:06:35.000Z</time>
      </trkpt>
      <trkpt lat="42.6899473182857036590576171875" lon="0.047973655164241790771484375">
        <ele>2501.39990234375</ele>
        <time>2021-08-23T10:06:39.000Z</time>
      </trkpt>
      <trkpt lat="42.689819745719432830810546875" lon="0.04787114448845386505126953125">
        <ele>2502.800048828125</ele>
        <time>2021-08-23T10:07:22.000Z</time>
      </trkpt>
      <trkpt lat="42.6897451467812061309814453125" lon="0.04786728881299495697021484375">
        <ele>2500.39990234375</ele>
        <time>2021-08-23T10:07:30.000Z</time>
      </trkpt>
      <trkpt lat="42.68949779681861400604248046875" lon="0.04766914062201976776123046875">
        <ele>2525.39990234375</ele>
        <time>2021-08-23T10:08:41.000Z</time>
      </trkpt>
      <trkpt lat="42.68940777517855167388916015625" lon="0.0477532111108303070068359375">
        <ele>2523</ele>
        <time>2021-08-23T10:08:58.000Z</time>
      </trkpt>
      <trkpt lat="42.689387239515781402587890625" lon="0.04781783558428287506103515625">
        <ele>2520.800048828125</ele>
        <time>2021-08-23T10:09:03.000Z</time>
      </trkpt>
      <trkpt lat="42.6891627721488475799560546875" lon="0.0483454763889312744140625">
        <ele>2513</ele>
        <time>2021-08-23T10:09:44.000Z</time>
      </trkpt>
      <trkpt lat="42.68912681378424167633056640625" lon="0.04846726544201374053955078125">
        <ele>2509</ele>
        <time>2021-08-23T10:09:55.000Z</time>
      </trkpt>
      <trkpt lat="42.689118683338165283203125" lon="0.0485466420650482177734375">
        <ele>2508.39990234375</ele>
        <time>2021-08-23T10:10:04.000Z</time>
      </trkpt>
      <trkpt lat="42.68902505747973918914794921875" lon="0.04864697344601154327392578125">
        <ele>2508.39990234375</ele>
        <time>2021-08-23T10:10:33.000Z</time>
      </trkpt>
      <trkpt lat="42.68902941606938838958740234375" lon="0.04864596761763095855712890625">
        <ele>2508.39990234375</ele>
        <time>2021-08-23T10:10:37.000Z</time>
      </trkpt>
      <trkpt lat="42.6890261471271514892578125" lon="0.04865057766437530517578125">
        <ele>2508.39990234375</ele>
        <time>2021-08-23T10:10:41.000Z</time>
      </trkpt>
      <trkpt lat="42.6890132389962673187255859375" lon="0.04864345304667949676513671875">
        <ele>2508.39990234375</ele>
        <time>2021-08-23T10:10:51.000Z</time>
      </trkpt>
      <trkpt lat="42.6890182681381702423095703125" lon="0.0486500747501850128173828125">
        <ele>2508.39990234375</ele>
        <time>2021-08-23T10:11:05.000Z</time>
      </trkpt>
      <trkpt lat="42.6890460960566997528076171875" lon="0.04869206808507442474365234375">
        <ele>2508.199951171875</ele>
        <time>2021-08-23T10:11:41.000Z</time>
      </trkpt>
      <trkpt lat="42.6890611834824085235595703125" lon="0.04864630289375782012939453125">
        <ele>2508.39990234375</ele>
        <time>2021-08-23T10:11:49.000Z</time>
      </trkpt>
      <trkpt lat="42.6890621893107891082763671875" lon="0.04864060319960117340087890625">
        <ele>2508.39990234375</ele>
        <time>2021-08-23T10:11:50.000Z</time>
      </trkpt>
      <trkpt lat="42.6890621893107891082763671875" lon="0.0486249290406703948974609375">
        <ele>2508.39990234375</ele>
        <time>2021-08-23T10:11:55.000Z</time>
      </trkpt>
      <trkpt lat="42.6890642009675502777099609375" lon="0.04862241446971893310546875">
        <ele>2508.60009765625</ele>
        <time>2021-08-23T10:12:00.000Z</time>
      </trkpt>
      <trkpt lat="42.68906436860561370849609375" lon="0.04862132482230663299560546875">
        <ele>2508.60009765625</ele>
        <time>2021-08-23T10:12:03.000Z</time>
      </trkpt>
      <trkpt lat="42.68906646408140659332275390625" lon="0.04862149246037006378173828125">
        <ele>2508.60009765625</ele>
        <time>2021-08-23T10:12:06.000Z</time>
      </trkpt>
      <trkpt lat="42.68906730227172374725341796875" lon="0.04862149246037006378173828125">
        <ele>2508.60009765625</ele>
        <time>2021-08-23T10:12:08.000Z</time>
      </trkpt>
      <trkpt lat="42.689067386090755462646484375" lon="0.04862166009843349456787109375">
        <ele>2508.60009765625</ele>
        <time>2021-08-23T10:12:09.000Z</time>
      </trkpt>
      <trkpt lat="42.68906746990978717803955078125" lon="0.0486232526600360870361328125">
        <ele>2508.60009765625</ele>
        <time>2021-08-23T10:12:10.000Z</time>
      </trkpt>
      <trkpt lat="42.68906705081462860107421875" lon="0.04862685687839984893798828125">
        <ele>2508.39990234375</ele>
        <time>2021-08-23T10:12:11.000Z</time>
      </trkpt>
      <trkpt lat="42.68906562589108943939208984375" lon="0.04863289184868335723876953125">
        <ele>2508.39990234375</ele>
        <time>2021-08-23T10:12:12.000Z</time>
      </trkpt>
      <trkpt lat="42.68904299475252628326416015625" lon="0.04868452437222003936767578125">
        <ele>2508.199951171875</ele>
        <time>2021-08-23T10:12:17.000Z</time>
      </trkpt>
      <trkpt lat="42.68903813324868679046630859375" lon="0.0487194769084453582763671875">
        <ele>2508.199951171875</ele>
        <time>2021-08-23T10:12:22.000Z</time>
      </trkpt>
      <trkpt lat="42.68905607052147388458251953125" lon="0.048669688403606414794921875">
        <ele>2508.39990234375</ele>
        <time>2021-08-23T10:12:30.000Z</time>
      </trkpt>
      <trkpt lat="42.689071409404277801513671875" lon="0.048605985939502716064453125">
        <ele>2508.60009765625</ele>
        <time>2021-08-23T10:12:50.000Z</time>
      </trkpt>
      <trkpt lat="42.68907107412815093994140625" lon="0.048605315387248992919921875">
        <ele>2508.60009765625</ele>
        <time>2021-08-23T10:12:56.000Z</time>
      </trkpt>
      <trkpt lat="42.68907107412815093994140625" lon="0.04860506393015384674072265625">
        <ele>2508.60009765625</ele>
        <time>2021-08-23T10:13:03.000Z</time>
      </trkpt>
      <trkpt lat="42.68907115794718265533447265625" lon="0.04860489629209041595458984375">
        <ele>2508.60009765625</ele>
        <time>2021-08-23T10:13:06.000Z</time>
      </trkpt>
      <trkpt lat="42.68907115794718265533447265625" lon="0.0486051477491855621337890625">
        <ele>2508.60009765625</ele>
        <time>2021-08-23T10:13:07.000Z</time>
      </trkpt>
      <trkpt lat="42.68907115794718265533447265625" lon="0.04860506393015384674072265625">
        <ele>2508.60009765625</ele>
        <time>2021-08-23T10:13:08.000Z</time>
      </trkpt>
      <trkpt lat="42.6890712417662143707275390625" lon="0.04860506393015384674072265625">
        <ele>2508.60009765625</ele>
        <time>2021-08-23T10:13:09.000Z</time>
      </trkpt>
      <trkpt lat="42.689071409404277801513671875" lon="0.04860472865402698516845703125">
        <ele>2508.60009765625</ele>
        <time>2021-08-23T10:13:10.000Z</time>
      </trkpt>
      <trkpt lat="42.6890636980533599853515625" lon="0.0486480630934238433837890625">
        <ele>2508.39990234375</ele>
        <time>2021-08-23T10:13:26.000Z</time>
      </trkpt>
      <trkpt lat="42.68906076438724994659423828125" lon="0.04876063205301761627197265625">
        <ele>2508</ele>
        <time>2021-08-23T10:13:41.000Z</time>
      </trkpt>
      <trkpt lat="42.68906462006270885467529296875" lon="0.04880555905401706695556640625">
        <ele>2507.60009765625</ele>
        <time>2021-08-23T10:13:44.000Z</time>
      </trkpt>
      <trkpt lat="42.68906612880527973175048828125" lon="0.04883757792413234710693359375">
        <ele>2507.199951171875</ele>
        <time>2021-08-23T10:13:46.000Z</time>
      </trkpt>
      <trkpt lat="42.6891004107892513275146484375" lon="0.04893111996352672576904296875">
        <ele>2506</ele>
        <time>2021-08-23T10:13:56.000Z</time>
      </trkpt>
      <trkpt lat="42.6891024224460124969482421875" lon="0.04893179051578044891357421875">
        <ele>2506</ele>
        <time>2021-08-23T10:13:57.000Z</time>
      </trkpt>
      <trkpt lat="42.6891007460653781890869140625" lon="0.04893279634416103363037109375">
        <ele>2506</ele>
        <time>2021-08-23T10:14:01.000Z</time>
      </trkpt>
      <trkpt lat="42.689102590084075927734375" lon="0.048927180469036102294921875">
        <ele>2506.199951171875</ele>
        <time>2021-08-23T10:14:07.000Z</time>
      </trkpt>
      <trkpt lat="42.68910250626504421234130859375" lon="0.04892592318356037139892578125">
        <ele>2506.199951171875</ele>
        <time>2021-08-23T10:14:08.000Z</time>
      </trkpt>
      <trkpt lat="42.68910384736955165863037109375" lon="0.0489275157451629638671875">
        <ele>2506.199951171875</ele>
        <time>2021-08-23T10:14:20.000Z</time>
      </trkpt>
      <trkpt lat="42.689090855419635772705078125" lon="0.0489355623722076416015625">
        <ele>2505.60009765625</ele>
        <time>2021-08-23T10:14:47.000Z</time>
      </trkpt>
      <trkpt lat="42.68909060396254062652587890625" lon="0.04893547855317592620849609375">
        <ele>2505.60009765625</ele>
        <time>2021-08-23T10:14:49.000Z</time>
      </trkpt>
      <trkpt lat="42.68908926285803318023681640625" lon="0.0489347241818904876708984375">
        <ele>2505.60009765625</ele>
        <time>2021-08-23T10:14:51.000Z</time>
      </trkpt>
      <trkpt lat="42.68908926285803318023681640625" lon="0.04893430508673191070556640625">
        <ele>2505.60009765625</ele>
        <time>2021-08-23T10:14:52.000Z</time>
      </trkpt>
      <trkpt lat="42.6890876702964305877685546875" lon="0.0489300303161144256591796875">
        <ele>2505.800048828125</ele>
        <time>2021-08-23T10:15:04.000Z</time>
      </trkpt>
      <trkpt lat="42.689087502658367156982421875" lon="0.04892944358289241790771484375">
        <ele>2505.800048828125</ele>
        <time>2021-08-23T10:15:15.000Z</time>
      </trkpt>
      <trkpt lat="42.68908959813416004180908203125" lon="0.04893355071544647216796875">
        <ele>2505.60009765625</ele>
        <time>2021-08-23T10:15:20.000Z</time>
      </trkpt>
      <trkpt lat="42.68909060396254062652587890625" lon="0.04893396981060504913330078125">
        <ele>2505.800048828125</ele>
        <time>2021-08-23T10:15:36.000Z</time>
      </trkpt>
      <trkpt lat="42.6890843175351619720458984375" lon="0.04893044941127300262451171875">
        <ele>2505.60009765625</ele>
        <time>2021-08-23T10:16:07.000Z</time>
      </trkpt>
      <trkpt lat="42.68908155150711536407470703125" lon="0.0489330478012561798095703125">
        <ele>2505.60009765625</ele>
        <time>2021-08-23T10:16:10.000Z</time>
      </trkpt>
      <trkpt lat="42.68908171914517879486083984375" lon="0.04893363453447818756103515625">
        <ele>2505.60009765625</ele>
        <time>2021-08-23T10:16:11.000Z</time>
      </trkpt>
      <trkpt lat="42.68908222205936908721923828125" lon="0.04893329925835132598876953125">
        <ele>2505.60009765625</ele>
        <time>2021-08-23T10:16:12.000Z</time>
      </trkpt>
      <trkpt lat="42.68908322788774967193603515625" lon="0.0489340536296367645263671875">
        <ele>2505.60009765625</ele>
        <time>2021-08-23T10:16:13.000Z</time>
      </trkpt>
      <trkpt lat="42.68908356316387653350830078125" lon="0.04893581382930278778076171875">
        <ele>2505.39990234375</ele>
        <time>2021-08-23T10:16:14.000Z</time>
      </trkpt>
      <trkpt lat="42.68908507190644741058349609375" lon="0.0489367358386516571044921875">
        <ele>2505.39990234375</ele>
        <time>2021-08-23T10:16:18.000Z</time>
      </trkpt>
      <trkpt lat="42.68908490426838397979736328125" lon="0.048936568200588226318359375">
        <ele>2505.39990234375</ele>
        <time>2021-08-23T10:16:21.000Z</time>
      </trkpt>
      <trkpt lat="42.68908440135419368743896484375" lon="0.04893749020993709564208984375">
        <ele>2505.39990234375</ele>
        <time>2021-08-23T10:16:22.000Z</time>
      </trkpt>
      <trkpt lat="42.689082808792591094970703125" lon="0.04893681965768337249755859375">
        <ele>2505.39990234375</ele>
        <time>2021-08-23T10:16:29.000Z</time>
      </trkpt>
      <trkpt lat="42.689080797135829925537109375" lon="0.04893614910542964935302734375">
        <ele>2505.39990234375</ele>
        <time>2021-08-23T10:16:34.000Z</time>
      </trkpt>
      <trkpt lat="42.6890809647738933563232421875" lon="0.04893564619123935699462890625">
        <ele>2505.39990234375</ele>
        <time>2021-08-23T10:16:36.000Z</time>
      </trkpt>
      <trkpt lat="42.68908071331679821014404296875" lon="0.0489367358386516571044921875">
        <ele>2505.39990234375</ele>
        <time>2021-08-23T10:16:37.000Z</time>
      </trkpt>
      <trkpt lat="42.68907836638391017913818359375" lon="0.04894134588539600372314453125">
        <ele>2505.199951171875</ele>
        <time>2021-08-23T10:16:38.000Z</time>
      </trkpt>
      <trkpt lat="42.68905632197856903076171875" lon="0.0489229895174503326416015625">
        <ele>2505.39990234375</ele>
        <time>2021-08-23T10:16:44.000Z</time>
      </trkpt>
      <trkpt lat="42.6890517957508563995361328125" lon="0.04890932701528072357177734375">
        <ele>2505.60009765625</ele>
        <time>2021-08-23T10:16:54.000Z</time>
      </trkpt>
      <trkpt lat="42.68905204720795154571533203125" lon="0.0489092431962490081787109375">
        <ele>2505.60009765625</ele>
        <time>2021-08-23T10:16:57.000Z</time>
      </trkpt>
      <trkpt lat="42.6890521310269832611083984375" lon="0.04890949465334415435791015625">
        <ele>2505.60009765625</ele>
        <time>2021-08-23T10:16:58.000Z</time>
      </trkpt>
      <trkpt lat="42.689058668911457061767578125" lon="0.04892340861260890960693359375">
        <ele>2505.39990234375</ele>
        <time>2021-08-23T10:17:41.000Z</time>
      </trkpt>
      <trkpt lat="42.688933946192264556884765625" lon="0.04851018078625202178955078125">
        <ele>2509</ele>
        <time>2021-08-23T10:29:21.000Z</time>
      </trkpt>
      <trkpt lat="42.6889284141361713409423828125" lon="0.0484983623027801513671875">
        <ele>2509.199951171875</ele>
        <time>2021-08-23T10:29:22.000Z</time>
      </trkpt>
      <trkpt lat="42.68889295868575572967529296875" lon="0.04841965623199939727783203125">
        <ele>2511.60009765625</ele>
        <time>2021-08-23T10:29:28.000Z</time>
      </trkpt>
      <trkpt lat="42.68888340331614017486572265625" lon="0.04839015193283557891845703125">
        <ele>2512.60009765625</ele>
        <time>2021-08-23T10:29:30.000Z</time>
      </trkpt>
      <trkpt lat="42.688870243728160858154296875" lon="0.04835612140595912933349609375">
        <ele>2514</ele>
        <time>2021-08-23T10:29:33.000Z</time>
      </trkpt>
      <trkpt lat="42.6888650469481945037841796875" lon="0.04827498458325862884521484375">
        <ele>2516.800048828125</ele>
        <time>2021-08-23T10:29:43.000Z</time>
      </trkpt>
      <trkpt lat="42.68886680714786052703857421875" lon="0.04825872369110584259033203125">
        <ele>2517.39990234375</ele>
        <time>2021-08-23T10:29:45.000Z</time>
      </trkpt>
      <trkpt lat="42.68886093981564044952392578125" lon="0.0482236035168170928955078125">
        <ele>2518.800048828125</ele>
        <time>2021-08-23T10:29:49.000Z</time>
      </trkpt>
      <trkpt lat="42.6888603530824184417724609375" lon="0.04821195267140865325927734375">
        <ele>2519.199951171875</ele>
        <time>2021-08-23T10:29:50.000Z</time>
      </trkpt>
      <trkpt lat="42.68878868781030178070068359375" lon="0.04794423468410968780517578125">
        <ele>2523.39990234375</ele>
        <time>2021-08-23T10:30:29.000Z</time>
      </trkpt>
      <trkpt lat="42.68878298811614513397216796875" lon="0.047681294381618499755859375">
        <ele>2525.39990234375</ele>
        <time>2021-08-23T10:30:53.000Z</time>
      </trkpt>
      <trkpt lat="42.68877259455621242523193359375" lon="0.0476442463696002960205078125">
        <ele>2525.800048828125</ele>
        <time>2021-08-23T10:30:58.000Z</time>
      </trkpt>
      <trkpt lat="42.68876890651881694793701171875" lon="0.04758398048579692840576171875">
        <ele>2525.800048828125</ele>
        <time>2021-08-23T10:31:04.000Z</time>
      </trkpt>
      <trkpt lat="42.68883311189711093902587890625" lon="0.04747853614389896392822265625">
        <ele>2527.199951171875</ele>
        <time>2021-08-23T10:31:21.000Z</time>
      </trkpt>
      <trkpt lat="42.68887233920395374298095703125" lon="0.0474001653492450714111328125">
        <ele>2529.199951171875</ele>
        <time>2021-08-23T10:31:28.000Z</time>
      </trkpt>
      <trkpt lat="42.68891676329076290130615234375" lon="0.0473089702427387237548828125">
        <ele>2531</ele>
        <time>2021-08-23T10:31:36.000Z</time>
      </trkpt>
      <trkpt lat="42.6889984868466854095458984375" lon="0.0471279211342334747314453125">
        <ele>2533.199951171875</ele>
        <time>2021-08-23T10:31:53.000Z</time>
      </trkpt>
      <trkpt lat="42.68901407718658447265625" lon="0.04706614650785923004150390625">
        <ele>2533.60009765625</ele>
        <time>2021-08-23T10:31:59.000Z</time>
      </trkpt>
      <trkpt lat="42.68901566974818706512451171875" lon="0.0470072217285633087158203125">
        <ele>2533.39990234375</ele>
        <time>2021-08-23T10:32:03.000Z</time>
      </trkpt>
      <trkpt lat="42.689066715538501739501953125" lon="0.04687168635427951812744140625">
        <ele>2534</ele>
        <time>2021-08-23T10:32:15.000Z</time>
      </trkpt>
      <trkpt lat="42.68907777965068817138671875" lon="0.04683866165578365325927734375">
        <ele>2534.39990234375</ele>
        <time>2021-08-23T10:32:19.000Z</time>
      </trkpt>
      <trkpt lat="42.68909546546638011932373046875" lon="0.04681670106947422027587890625">
        <ele>2534.800048828125</ele>
        <time>2021-08-23T10:32:35.000Z</time>
      </trkpt>
      <trkpt lat="42.68909362144768238067626953125" lon="0.04681569524109363555908203125">
        <ele>2534.800048828125</ele>
        <time>2021-08-23T10:32:36.000Z</time>
      </trkpt>
      <trkpt lat="42.68909362144768238067626953125" lon="0.04681552760303020477294921875">
        <ele>2534.800048828125</ele>
        <time>2021-08-23T10:32:38.000Z</time>
      </trkpt>
      <trkpt lat="42.689094208180904388427734375" lon="0.04681401886045932769775390625">
        <ele>2534.800048828125</ele>
        <time>2021-08-23T10:32:40.000Z</time>
      </trkpt>
      <trkpt lat="42.68909521400928497314453125" lon="0.04681183956563472747802734375">
        <ele>2534.60009765625</ele>
        <time>2021-08-23T10:32:42.000Z</time>
      </trkpt>
      <trkpt lat="42.68912010826170444488525390625" lon="0.04680613987147808074951171875">
        <ele>2535</ele>
        <time>2021-08-23T10:32:58.000Z</time>
      </trkpt>
      <trkpt lat="42.6891178451478481292724609375" lon="0.04680815152823925018310546875">
        <ele>2535</ele>
        <time>2021-08-23T10:33:01.000Z</time>
      </trkpt>
      <trkpt lat="42.689117677509784698486328125" lon="0.04680999554693698883056640625">
        <ele>2535</ele>
        <time>2021-08-23T10:33:05.000Z</time>
      </trkpt>
      <trkpt lat="42.6891118101775646209716796875" lon="0.046804882586002349853515625">
        <ele>2535</ele>
        <time>2021-08-23T10:33:08.000Z</time>
      </trkpt>
      <trkpt lat="42.68909513019025325775146484375" lon="0.0467822514474391937255859375">
        <ele>2534.39990234375</ele>
        <time>2021-08-23T10:33:12.000Z</time>
      </trkpt>
      <trkpt lat="42.689086161553859710693359375" lon="0.04673170857131481170654296875">
        <ele>2533.60009765625</ele>
        <time>2021-08-23T10:33:17.000Z</time>
      </trkpt>
      <trkpt lat="42.6890789531171321868896484375" lon="0.046702288091182708740234375">
        <ele>2533.199951171875</ele>
        <time>2021-08-23T10:33:19.000Z</time>
      </trkpt>
      <trkpt lat="42.68906713463366031646728515625" lon="0.04665710963308811187744140625">
        <ele>2532.60009765625</ele>
        <time>2021-08-23T10:33:22.000Z</time>
      </trkpt>
      <trkpt lat="42.68905422650277614593505859375" lon="0.04661017097532749176025390625">
        <ele>2532</ele>
        <time>2021-08-23T10:33:27.000Z</time>
      </trkpt>
      <trkpt lat="42.68905900418758392333984375" lon="0.046597681939601898193359375">
        <ele>2532</ele>
        <time>2021-08-23T10:33:31.000Z</time>
      </trkpt>
      <trkpt lat="42.68906579352915287017822265625" lon="0.0465871207416057586669921875">
        <ele>2532</ele>
        <time>2021-08-23T10:33:32.000Z</time>
      </trkpt>
      <trkpt lat="42.68908892758190631866455078125" lon="0.04654663614928722381591796875">
        <ele>2532.199951171875</ele>
        <time>2021-08-23T10:33:35.000Z</time>
      </trkpt>
      <trkpt lat="42.68910367973148822784423828125" lon="0.0465193949639797210693359375">
        <ele>2532.39990234375</ele>
        <time>2021-08-23T10:33:37.000Z</time>
      </trkpt>
      <trkpt lat="42.689114995300769805908203125" lon="0.0464888848364353179931640625">
        <ele>2532.39990234375</ele>
        <time>2021-08-23T10:33:39.000Z</time>
      </trkpt>
      <trkpt lat="42.68912714906036853790283203125" lon="0.04641017876565456390380859375">
        <ele>2532.199951171875</ele>
        <time>2021-08-23T10:33:44.000Z</time>
      </trkpt>
      <trkpt lat="42.68913402222096920013427734375" lon="0.0463809259235858917236328125">
        <ele>2532.199951171875</ele>
        <time>2021-08-23T10:33:47.000Z</time>
      </trkpt>
      <trkpt lat="42.68915078602731227874755859375" lon="0.04635435529053211212158203125">
        <ele>2532.60009765625</ele>
        <time>2021-08-23T10:33:50.000Z</time>
      </trkpt>
      <trkpt lat="42.68915019929409027099609375" lon="0.04634580574929714202880859375">
        <ele>2532.60009765625</ele>
        <time>2021-08-23T10:33:52.000Z</time>
      </trkpt>
      <trkpt lat="42.68914751708507537841796875" lon="0.0462927483022212982177734375">
        <ele>2532.39990234375</ele>
        <time>2021-08-23T10:34:01.000Z</time>
      </trkpt>
      <trkpt lat="42.68914693035185337066650390625" lon="0.0462820194661617279052734375">
        <ele>2532.199951171875</ele>
        <time>2021-08-23T10:34:05.000Z</time>
      </trkpt>
      <trkpt lat="42.68914391286671161651611328125" lon="0.046246983110904693603515625">
        <ele>2532</ele>
        <time>2021-08-23T10:34:08.000Z</time>
      </trkpt>
      <trkpt lat="42.68914307467639446258544921875" lon="0.04622988402843475341796875">
        <ele>2532</ele>
        <time>2021-08-23T10:34:09.000Z</time>
      </trkpt>
      <trkpt lat="42.68914458341896533966064453125" lon="0.04621521569788455963134765625">
        <ele>2532</ele>
        <time>2021-08-23T10:34:10.000Z</time>
      </trkpt>
      <trkpt lat="42.68914609216153621673583984375" lon="0.04618504084646701812744140625">
        <ele>2531.800048828125</ele>
        <time>2021-08-23T10:34:12.000Z</time>
      </trkpt>
      <trkpt lat="42.68914693035185337066650390625" lon="0.04615620709955692291259765625">
        <ele>2532</ele>
        <time>2021-08-23T10:34:14.000Z</time>
      </trkpt>
      <trkpt lat="42.68914617598056793212890625" lon="0.04612863063812255859375">
        <ele>2531.800048828125</ele>
        <time>2021-08-23T10:34:16.000Z</time>
      </trkpt>
      <trkpt lat="42.6891403086483478546142578125" lon="0.04609434865415096282958984375">
        <ele>2531.800048828125</ele>
        <time>2021-08-23T10:34:19.000Z</time>
      </trkpt>
      <trkpt lat="42.6891530491411685943603515625" lon="0.0460711307823657989501953125">
        <ele>2532</ele>
        <time>2021-08-23T10:34:31.000Z</time>
      </trkpt>
      <trkpt lat="42.6891802065074443817138671875" lon="0.04600432701408863067626953125">
        <ele>2532.800048828125</ele>
        <time>2021-08-23T10:34:51.000Z</time>
      </trkpt>
      <trkpt lat="42.6892211101949214935302734375" lon="0.0460221804678440093994140625">
        <ele>2534</ele>
        <time>2021-08-23T10:34:57.000Z</time>
      </trkpt>
      <trkpt lat="42.6892633549869060516357421875" lon="0.04604808054864406585693359375">
        <ele>2535.800048828125</ele>
        <time>2021-08-23T10:35:05.000Z</time>
      </trkpt>
      <trkpt lat="42.6893009059131145477294921875" lon="0.04601555876433849334716796875">
        <ele>2537</ele>
        <time>2021-08-23T10:35:16.000Z</time>
      </trkpt>
      <trkpt lat="42.6893022470176219940185546875" lon="0.04602829925715923309326171875">
        <ele>2537.199951171875</ele>
        <time>2021-08-23T10:35:22.000Z</time>
      </trkpt>
      <trkpt lat="42.68929562531411647796630859375" lon="0.0460640899837017059326171875">
        <ele>2537</ele>
        <time>2021-08-23T10:35:31.000Z</time>
      </trkpt>
      <trkpt lat="42.68930786289274692535400390625" lon="0.04610038362443447113037109375">
        <ele>2537.60009765625</ele>
        <time>2021-08-23T10:35:36.000Z</time>
      </trkpt>
      <trkpt lat="42.68934960477054119110107421875" lon="0.04615302197635173797607421875">
        <ele>2539.199951171875</ele>
        <time>2021-08-23T10:36:12.000Z</time>
      </trkpt>
      <trkpt lat="42.689402662217617034912109375" lon="0.046159811317920684814453125">
        <ele>2541.199951171875</ele>
        <time>2021-08-23T10:36:25.000Z</time>
      </trkpt>
      <trkpt lat="42.6894159056246280670166015625" lon="0.0461723841726779937744140625">
        <ele>2541.800048828125</ele>
        <time>2021-08-23T10:36:27.000Z</time>
      </trkpt>
      <trkpt lat="42.68942177295684814453125" lon="0.04617699421942234039306640625">
        <ele>2542</ele>
        <time>2021-08-23T10:36:28.000Z</time>
      </trkpt>
      <trkpt lat="42.68944482319056987762451171875" lon="0.04620373249053955078125">
        <ele>2543</ele>
        <time>2021-08-23T10:36:32.000Z</time>
      </trkpt>
      <trkpt lat="42.68948069773614406585693359375" lon="0.0462313927710056304931640625">
        <ele>2544.199951171875</ele>
        <time>2021-08-23T10:36:39.000Z</time>
      </trkpt>
      <trkpt lat="42.68949243240058422088623046875" lon="0.04624002613127231597900390625">
        <ele>2544.800048828125</ele>
        <time>2021-08-23T10:36:41.000Z</time>
      </trkpt>
      <trkpt lat="42.68949888646602630615234375" lon="0.0462437979876995086669921875">
        <ele>2545</ele>
        <time>2021-08-23T10:36:42.000Z</time>
      </trkpt>
      <trkpt lat="42.689518667757511138916015625" lon="0.04626433365046977996826171875">
        <ele>2545.60009765625</ele>
        <time>2021-08-23T10:36:46.000Z</time>
      </trkpt>
      <trkpt lat="42.68962050788104534149169921875" lon="0.04639685153961181640625">
        <ele>2549</ele>
        <time>2021-08-23T10:37:25.000Z</time>
      </trkpt>
      <trkpt lat="42.689636014401912689208984375" lon="0.0463641621172428131103515625">
        <ele>2549.39990234375</ele>
        <time>2021-08-23T10:37:28.000Z</time>
      </trkpt>
      <trkpt lat="42.68968186341226100921630859375" lon="0.04626986570656299591064453125">
        <ele>2550.39990234375</ele>
        <time>2021-08-23T10:37:41.000Z</time>
      </trkpt>
      <trkpt lat="42.68973969854414463043212890625" lon="0.04611966200172901153564453125">
        <ele>2550.60009765625</ele>
        <time>2021-08-23T10:38:10.000Z</time>
      </trkpt>
      <trkpt lat="42.6898008026182651519775390625" lon="0.046112872660160064697265625">
        <ele>2551.800048828125</ele>
        <time>2021-08-23T10:38:47.000Z</time>
      </trkpt>
      <trkpt lat="42.68979401327669620513916015625" lon="0.046112872660160064697265625">
        <ele>2551.800048828125</ele>
        <time>2021-08-23T10:38:59.000Z</time>
      </trkpt>
      <trkpt lat="42.68980055116117000579833984375" lon="0.04607758484780788421630859375">
        <ele>2551.39990234375</ele>
        <time>2021-08-23T10:39:14.000Z</time>
      </trkpt>
      <trkpt lat="42.68979258835315704345703125" lon="0.04605151712894439697265625">
        <ele>2551</ele>
        <time>2021-08-23T10:39:21.000Z</time>
      </trkpt>
      <trkpt lat="42.68977104686200618743896484375" lon="0.04597641527652740478515625">
        <ele>2549.800048828125</ele>
        <time>2021-08-23T10:39:27.000Z</time>
      </trkpt>
      <trkpt lat="42.6897746510803699493408203125" lon="0.04578907974064350128173828125">
        <ele>2547.199951171875</ele>
        <time>2021-08-23T10:39:41.000Z</time>
      </trkpt>
      <trkpt lat="42.6898004673421382904052734375" lon="0.0457231141626834869384765625">
        <ele>2546.800048828125</ele>
        <time>2021-08-23T10:39:46.000Z</time>
      </trkpt>
      <trkpt lat="42.68981262110173702239990234375" lon="0.0456983037292957305908203125">
        <ele>2546.800048828125</ele>
        <time>2021-08-23T10:39:48.000Z</time>
      </trkpt>
      <trkpt lat="42.6898336596786975860595703125" lon="0.04564407281577587127685546875">
        <ele>2546.800048828125</ele>
        <time>2021-08-23T10:39:52.000Z</time>
      </trkpt>
      <trkpt lat="42.68985486589372158050537109375" lon="0.04559076391160488128662109375">
        <ele>2546.800048828125</ele>
        <time>2021-08-23T10:39:56.000Z</time>
      </trkpt>
      <trkpt lat="42.689859978854656219482421875" lon="0.04557810723781585693359375">
        <ele>2547</ele>
        <time>2021-08-23T10:39:57.000Z</time>
      </trkpt>
      <trkpt lat="42.68986626528203487396240234375" lon="0.04556444473564624786376953125">
        <ele>2547</ele>
        <time>2021-08-23T10:39:58.000Z</time>
      </trkpt>
      <trkpt lat="42.68988244235515594482421875" lon="0.04552136175334453582763671875">
        <ele>2547</ele>
        <time>2021-08-23T10:40:01.000Z</time>
      </trkpt>
      <trkpt lat="42.68989308737218379974365234375" lon="0.0454733334481716156005859375">
        <ele>2547.39990234375</ele>
        <time>2021-08-23T10:40:05.000Z</time>
      </trkpt>
      <trkpt lat="42.689896188676357269287109375" lon="0.04539906978607177734375">
        <ele>2547.39990234375</ele>
        <time>2021-08-23T10:40:10.000Z</time>
      </trkpt>
      <trkpt lat="42.68992460332810878753662109375" lon="0.0452828966081142425537109375">
        <ele>2547.800048828125</ele>
        <time>2021-08-23T10:40:18.000Z</time>
      </trkpt>
      <trkpt lat="42.689951173961162567138671875" lon="0.0452285818755626678466796875">
        <ele>2548.39990234375</ele>
        <time>2021-08-23T10:40:22.000Z</time>
      </trkpt>
      <trkpt lat="42.68995645456016063690185546875" lon="0.0452151708304882049560546875">
        <ele>2548.39990234375</ele>
        <time>2021-08-23T10:40:23.000Z</time>
      </trkpt>
      <trkpt lat="42.68996290862560272216796875" lon="0.045200921595096588134765625">
        <ele>2548.60009765625</ele>
        <time>2021-08-23T10:40:24.000Z</time>
      </trkpt>
      <trkpt lat="42.68996969796717166900634765625" lon="0.045187510550022125244140625">
        <ele>2548.800048828125</ele>
        <time>2021-08-23T10:40:25.000Z</time>
      </trkpt>
      <trkpt lat="42.68998478539288043975830078125" lon="0.04514417611062526702880859375">
        <ele>2548.800048828125</ele>
        <time>2021-08-23T10:40:28.000Z</time>
      </trkpt>
      <trkpt lat="42.690032981336116790771484375" lon="0.0448477081954479217529296875">
        <ele>2544.199951171875</ele>
        <time>2021-08-23T10:40:49.000Z</time>
      </trkpt>
      <trkpt lat="42.6900204084813594818115234375" lon="0.04475944675505161285400390625">
        <ele>2543.199951171875</ele>
        <time>2021-08-23T10:40:56.000Z</time>
      </trkpt>
      <trkpt lat="42.68994455225765705108642578125" lon="0.04469943232834339141845703125">
        <ele>2540.199951171875</ele>
        <time>2021-08-23T10:41:04.000Z</time>
      </trkpt>
      <trkpt lat="42.68985151313245296478271484375" lon="0.04435007460415363311767578125">
        <ele>2537.800048828125</ele>
        <time>2021-08-23T10:41:36.000Z</time>
      </trkpt>
      <trkpt lat="42.68985771574079990386962890625" lon="0.0443087518215179443359375">
        <ele>2537.800048828125</ele>
        <time>2021-08-23T10:41:43.000Z</time>
      </trkpt>
      <trkpt lat="42.6898591406643390655517578125" lon="0.04429978318512439727783203125">
        <ele>2538</ele>
        <time>2021-08-23T10:41:44.000Z</time>
      </trkpt>
      <trkpt lat="42.6898614875972270965576171875" lon="0.04428771324455738067626953125">
        <ele>2538</ele>
        <time>2021-08-23T10:41:45.000Z</time>
      </trkpt>
      <trkpt lat="42.689872048795223236083984375" lon="0.04423088394105434417724609375">
        <ele>2538.800048828125</ele>
        <time>2021-08-23T10:41:49.000Z</time>
      </trkpt>
      <trkpt lat="42.68993969075381755828857421875" lon="0.0440588034689426422119140625">
        <ele>2540.800048828125</ele>
        <time>2021-08-23T10:42:07.000Z</time>
      </trkpt>
      <trkpt lat="42.69004396162927150726318359375" lon="0.04392829723656177520751953125">
        <ele>2543.60009765625</ele>
        <time>2021-08-23T10:42:22.000Z</time>
      </trkpt>
      <trkpt lat="42.6902198977768421173095703125" lon="0.04366259090602397918701171875">
        <ele>2546.800048828125</ele>
        <time>2021-08-23T10:42:52.000Z</time>
      </trkpt>
      <trkpt lat="42.69023071043193340301513671875" lon="0.043618418276309967041015625">
        <ele>2546.800048828125</ele>
        <time>2021-08-23T10:42:56.000Z</time>
      </trkpt>
      <trkpt lat="42.690241523087024688720703125" lon="0.04358866252005100250244140625">
        <ele>2546.800048828125</ele>
        <time>2021-08-23T10:42:58.000Z</time>
      </trkpt>
      <trkpt lat="42.69025216810405254364013671875" lon="0.04349612630903720855712890625">
        <ele>2546.39990234375</ele>
        <time>2021-08-23T10:43:06.000Z</time>
      </trkpt>
      <trkpt lat="42.69028301350772380828857421875" lon="0.0434429012238979339599609375">
        <ele>2546.800048828125</ele>
        <time>2021-08-23T10:43:15.000Z</time>
      </trkpt>
      <trkpt lat="42.69031989388167858123779296875" lon="0.0433617644011974334716796875">
        <ele>2546.199951171875</ele>
        <time>2021-08-23T10:43:26.000Z</time>
      </trkpt>
      <trkpt lat="42.69039181061089038848876953125" lon="0.043266378343105316162109375">
        <ele>2546.39990234375</ele>
        <time>2021-08-23T10:43:37.000Z</time>
      </trkpt>
      <trkpt lat="42.69049926660954952239990234375" lon="0.043117515742778778076171875">
        <ele>2546.800048828125</ele>
        <time>2021-08-23T10:43:52.000Z</time>
      </trkpt>
      <trkpt lat="42.69076145254075527191162109375" lon="0.0426741130650043487548828125">
        <ele>2548.39990234375</ele>
        <time>2021-08-23T10:44:39.000Z</time>
      </trkpt>
      <trkpt lat="42.69081509672105312347412109375" lon="0.04251779057085514068603515625">
        <ele>2550.39990234375</ele>
        <time>2021-08-23T10:44:59.000Z</time>
      </trkpt>
      <trkpt lat="42.690989859402179718017578125" lon="0.041978247463703155517578125">
        <ele>2557</ele>
        <time>2021-08-23T10:46:09.000Z</time>
      </trkpt>
      <trkpt lat="42.69101542420685291290283203125" lon="0.0418438017368316650390625">
        <ele>2557.800048828125</ele>
        <time>2021-08-23T10:46:25.000Z</time>
      </trkpt>
      <trkpt lat="42.69108784385025501251220703125" lon="0.0416330806910991668701171875">
        <ele>2559</ele>
        <time>2021-08-23T10:46:43.000Z</time>
      </trkpt>
      <trkpt lat="42.6912765204906463623046875" lon="0.04142009653151035308837890625">
        <ele>2563.800048828125</ele>
        <time>2021-08-23T10:47:26.000Z</time>
      </trkpt>
      <trkpt lat="42.69138623960316181182861328125" lon="0.04156694747507572174072265625">
        <ele>2566.60009765625</ele>
        <time>2021-08-23T10:47:49.000Z</time>
      </trkpt>
      <trkpt lat="42.69151465035974979400634765625" lon="0.04143820144236087799072265625">
        <ele>2569.800048828125</ele>
        <time>2021-08-23T10:48:29.000Z</time>
      </trkpt>
      <trkpt lat="42.691559493541717529296875" lon="0.04137617535889148712158203125">
        <ele>2570.800048828125</ele>
        <time>2021-08-23T10:48:40.000Z</time>
      </trkpt>
      <trkpt lat="42.69167290069162845611572265625" lon="0.0413705594837665557861328125">
        <ele>2573.199951171875</ele>
        <time>2021-08-23T10:49:04.000Z</time>
      </trkpt>
      <trkpt lat="42.6916890777647495269775390625" lon="0.041366033256053924560546875">
        <ele>2573.39990234375</ele>
        <time>2021-08-23T10:49:06.000Z</time>
      </trkpt>
      <trkpt lat="42.69176661036908626556396484375" lon="0.04132906906306743621826171875">
        <ele>2574.800048828125</ele>
        <time>2021-08-23T10:49:14.000Z</time>
      </trkpt>
      <trkpt lat="42.6919148862361907958984375" lon="0.04125195555388927459716796875">
        <ele>2577.199951171875</ele>
        <time>2021-08-23T10:49:36.000Z</time>
      </trkpt>
      <trkpt lat="42.69198068417608737945556640625" lon="0.041184313595294952392578125">
        <ele>2577.60009765625</ele>
        <time>2021-08-23T10:49:45.000Z</time>
      </trkpt>
      <trkpt lat="42.6920280419290065765380859375" lon="0.0411536358296871185302734375">
        <ele>2578.199951171875</ele>
        <time>2021-08-23T10:49:53.000Z</time>
      </trkpt>
      <trkpt lat="42.6921701990067958831787109375" lon="0.0411972217261791229248046875">
        <ele>2581.800048828125</ele>
        <time>2021-08-23T10:50:29.000Z</time>
      </trkpt>
      <trkpt lat="42.69222275353968143463134765625" lon="0.04119847901165485382080078125">
        <ele>2583</ele>
        <time>2021-08-23T10:50:35.000Z</time>
      </trkpt>
      <trkpt lat="42.69228729419410228729248046875" lon="0.0411643646657466888427734375">
        <ele>2583.60009765625</ele>
        <time>2021-08-23T10:50:41.000Z</time>
      </trkpt>
      <trkpt lat="42.69230707548558712005615234375" lon="0.04115321673452854156494140625">
        <ele>2583.60009765625</ele>
        <time>2021-08-23T10:50:43.000Z</time>
      </trkpt>
      <trkpt lat="42.69232031889259815216064453125" lon="0.04115288145840167999267578125">
        <ele>2583.800048828125</ele>
        <time>2021-08-23T10:50:45.000Z</time>
      </trkpt>
      <trkpt lat="42.692335657775402069091796875" lon="0.0411569885909557342529296875">
        <ele>2584</ele>
        <time>2021-08-23T10:50:48.000Z</time>
      </trkpt>
      <trkpt lat="42.692364491522312164306640625" lon="0.0411462597548961639404296875">
        <ele>2584</ele>
        <time>2021-08-23T10:50:52.000Z</time>
      </trkpt>
      <trkpt lat="42.6923696883022785186767578125" lon="0.04113947041332721710205078125">
        <ele>2584</ele>
        <time>2021-08-23T10:50:53.000Z</time>
      </trkpt>
      <trkpt lat="42.69237262196838855743408203125" lon="0.0411331839859485626220703125">
        <ele>2583.800048828125</ele>
        <time>2021-08-23T10:50:54.000Z</time>
      </trkpt>
      <trkpt lat="42.6923815906047821044921875" lon="0.04112404771149158477783203125">
        <ele>2583.800048828125</ele>
        <time>2021-08-23T10:50:56.000Z</time>
      </trkpt>
      <trkpt lat="42.6924005337059497833251953125" lon="0.04109387286007404327392578125">
        <ele>2583.39990234375</ele>
        <time>2021-08-23T10:50:59.000Z</time>
      </trkpt>
      <trkpt lat="42.69245476461946964263916015625" lon="0.04104073159396648406982421875">
        <ele>2582.199951171875</ele>
        <time>2021-08-23T10:51:12.000Z</time>
      </trkpt>
      <trkpt lat="42.692515365779399871826171875" lon="0.04102178849279880523681640625">
        <ele>2581.800048828125</ele>
        <time>2021-08-23T10:51:26.000Z</time>
      </trkpt>
      <trkpt lat="42.6926865242421627044677734375" lon="0.04090528003871440887451171875">
        <ele>2582</ele>
        <time>2021-08-23T10:51:43.000Z</time>
      </trkpt>
      <trkpt lat="42.6928581856191158294677734375" lon="0.04085465334355831146240234375">
        <ele>2583.60009765625</ele>
        <time>2021-08-23T10:52:14.000Z</time>
      </trkpt>
      <trkpt lat="42.6931361295282840728759765625" lon="0.04052189178764820098876953125">
        <ele>2588.60009765625</ele>
        <time>2021-08-23T10:52:55.000Z</time>
      </trkpt>
      <trkpt lat="42.6932316832244396209716796875" lon="0.040484257042407989501953125">
        <ele>2589.800048828125</ele>
        <time>2021-08-23T10:53:09.000Z</time>
      </trkpt>
      <trkpt lat="42.69327485002577304840087890625" lon="0.04050378687679767608642578125">
        <ele>2590.39990234375</ele>
        <time>2021-08-23T10:53:24.000Z</time>
      </trkpt>
      <trkpt lat="42.6932920329272747039794921875" lon="0.0405156053602695465087890625">
        <ele>2590.60009765625</ele>
        <time>2021-08-23T10:53:28.000Z</time>
      </trkpt>
      <trkpt lat="42.693305276334285736083984375" lon="0.04051635973155498504638671875">
        <ele>2590.800048828125</ele>
        <time>2021-08-23T10:53:30.000Z</time>
      </trkpt>
      <trkpt lat="42.6933109760284423828125" lon="0.0405172817409038543701171875">
        <ele>2591</ele>
        <time>2021-08-23T10:53:31.000Z</time>
      </trkpt>
      <trkpt lat="42.6933188550174236297607421875" lon="0.04052189178764820098876953125">
        <ele>2591</ele>
        <time>2021-08-23T10:53:33.000Z</time>
      </trkpt>
      <trkpt lat="42.6934315077960491180419921875" lon="0.040600597858428955078125">
        <ele>2591.800048828125</ele>
        <time>2021-08-23T10:53:55.000Z</time>
      </trkpt>
      <trkpt lat="42.6934502832591533660888671875" lon="0.0406037829816341400146484375">
        <ele>2591.800048828125</ele>
        <time>2021-08-23T10:53:57.000Z</time>
      </trkpt>
      <trkpt lat="42.69351658411324024200439453125" lon="0.04062951542437076568603515625">
        <ele>2591.60009765625</ele>
        <time>2021-08-23T10:54:08.000Z</time>
      </trkpt>
      <trkpt lat="42.69351423718035221099853515625" lon="0.0406326167285442352294921875">
        <ele>2591.60009765625</ele>
        <time>2021-08-23T10:54:14.000Z</time>
      </trkpt>
      <trkpt lat="42.6935227029025554656982421875" lon="0.04059364087879657745361328125">
        <ele>2591.60009765625</ele>
        <time>2021-08-23T10:54:35.000Z</time>
      </trkpt>
      <trkpt lat="42.69354089163243770599365234375" lon="0.04060906358063220977783203125">
        <ele>2591.39990234375</ele>
        <time>2021-08-23T10:55:29.000Z</time>
      </trkpt>
      <trkpt lat="42.69354005344212055206298828125" lon="0.0406316109001636505126953125">
        <ele>2591.39990234375</ele>
        <time>2021-08-23T10:55:34.000Z</time>
      </trkpt>
      <trkpt lat="42.69354323856532573699951171875" lon="0.04064275883138179779052734375">
        <ele>2591.39990234375</ele>
        <time>2021-08-23T10:55:43.000Z</time>
      </trkpt>
      <trkpt lat="42.6935669593513011932373046875" lon="0.04066304303705692291259765625">
        <ele>2591.39990234375</ele>
        <time>2021-08-23T10:55:48.000Z</time>
      </trkpt>
      <trkpt lat="42.69357726909220218658447265625" lon="0.0406637974083423614501953125">
        <ele>2591.39990234375</ele>
        <time>2021-08-23T10:55:49.000Z</time>
      </trkpt>
      <trkpt lat="42.69358414225280284881591796875" lon="0.0406641326844692230224609375">
        <ele>2591.199951171875</ele>
        <time>2021-08-23T10:55:50.000Z</time>
      </trkpt>
      <trkpt lat="42.693633846938610076904296875" lon="0.0406386516988277435302734375">
        <ele>2591.199951171875</ele>
        <time>2021-08-23T10:55:55.000Z</time>
      </trkpt>
      <trkpt lat="42.6936417259275913238525390625" lon="0.0406341254711151123046875">
        <ele>2591</ele>
        <time>2021-08-23T10:55:56.000Z</time>
      </trkpt>
      <trkpt lat="42.693650610744953155517578125" lon="0.04063035361468791961669921875">
        <ele>2591</ele>
        <time>2021-08-23T10:55:57.000Z</time>
      </trkpt>
      <trkpt lat="42.6936636865139007568359375" lon="0.04063471220433712005615234375">
        <ele>2591</ele>
        <time>2021-08-23T10:55:58.000Z</time>
      </trkpt>
      <trkpt lat="42.69368623383343219757080078125" lon="0.04066354595124721527099609375">
        <ele>2590.60009765625</ele>
        <time>2021-08-23T10:56:01.000Z</time>
      </trkpt>
      <trkpt lat="42.69370459020137786865234375" lon="0.04070587456226348876953125">
        <ele>2590.39990234375</ele>
        <time>2021-08-23T10:56:06.000Z</time>
      </trkpt>
      <trkpt lat="42.693720348179340362548828125" lon="0.04070595838129520416259765625">
        <ele>2590.199951171875</ele>
        <time>2021-08-23T10:56:08.000Z</time>
      </trkpt>
      <trkpt lat="42.69372780807316303253173828125" lon="0.0407047010958194732666015625">
        <ele>2590</ele>
        <time>2021-08-23T10:56:09.000Z</time>
      </trkpt>
      <trkpt lat="42.6937362737953662872314453125" lon="0.040700845420360565185546875">
        <ele>2590</ele>
        <time>2021-08-23T10:56:13.000Z</time>
      </trkpt>
      <trkpt lat="42.69373216666281223297119140625" lon="0.04069858230650424957275390625">
        <ele>2590</ele>
        <time>2021-08-23T10:56:20.000Z</time>
      </trkpt>
      <trkpt lat="42.693729735910892486572265625" lon="0.04069590009748935699462890625">
        <ele>2590</ele>
        <time>2021-08-23T10:56:21.000Z</time>
      </trkpt>
      <trkpt lat="42.6937280595302581787109375" lon="0.04069321788847446441650390625">
        <ele>2590</ele>
        <time>2021-08-23T10:56:22.000Z</time>
      </trkpt>
      <trkpt lat="42.69373199902474880218505859375" lon="0.04071501083672046661376953125">
        <ele>2590</ele>
        <time>2021-08-23T10:56:26.000Z</time>
      </trkpt>
      <trkpt lat="42.69378103315830230712890625" lon="0.040783993899822235107421875">
        <ele>2589.60009765625</ele>
        <time>2021-08-23T10:56:35.000Z</time>
      </trkpt>
      <trkpt lat="42.693812884390354156494140625" lon="0.0408197008073329925537109375">
        <ele>2589.199951171875</ele>
        <time>2021-08-23T10:56:43.000Z</time>
      </trkpt>
      <trkpt lat="42.69383140839636325836181640625" lon="0.040881223976612091064453125">
        <ele>2589.199951171875</ele>
        <time>2021-08-23T10:56:49.000Z</time>
      </trkpt>
      <trkpt lat="42.69381900317966938018798828125" lon="0.04097199998795986175537109375">
        <ele>2589.800048828125</ele>
        <time>2021-08-23T10:56:56.000Z</time>
      </trkpt>
      <trkpt lat="42.69382135011255741119384765625" lon="0.041087754070758819580078125">
        <ele>2590.199951171875</ele>
        <time>2021-08-23T10:57:21.000Z</time>
      </trkpt>
      <trkpt lat="42.6938606612384319305419921875" lon="0.041203759610652923583984375">
        <ele>2590</ele>
        <time>2021-08-23T10:57:35.000Z</time>
      </trkpt>
      <trkpt lat="42.69386929459869861602783203125" lon="0.041449852287769317626953125">
        <ele>2591</ele>
        <time>2021-08-23T10:58:01.000Z</time>
      </trkpt>
      <trkpt lat="42.69389360211789608001708984375" lon="0.04152621142566204071044921875">
        <ele>2590.60009765625</ele>
        <time>2021-08-23T10:58:10.000Z</time>
      </trkpt>
      <trkpt lat="42.69384347833693027496337890625" lon="0.0417316518723964691162109375">
        <ele>2589.60009765625</ele>
        <time>2021-08-23T10:58:24.000Z</time>
      </trkpt>
      <trkpt lat="42.6938348449766635894775390625" lon="0.04175922833383083343505859375">
        <ele>2589.39990234375</ele>
        <time>2021-08-23T10:58:26.000Z</time>
      </trkpt>
      <trkpt lat="42.69383241422474384307861328125" lon="0.04177481867372989654541015625">
        <ele>2589.199951171875</ele>
        <time>2021-08-23T10:58:27.000Z</time>
      </trkpt>
      <trkpt lat="42.693830318748950958251953125" lon="0.04180432297289371490478515625">
        <ele>2589</ele>
        <time>2021-08-23T10:58:29.000Z</time>
      </trkpt>
      <trkpt lat="42.69382671453058719635009765625" lon="0.04181538708508014678955078125">
        <ele>2588.800048828125</ele>
        <time>2021-08-23T10:58:30.000Z</time>
      </trkpt>
      <trkpt lat="42.6938247866928577423095703125" lon="0.04182863049209117889404296875">
        <ele>2588.60009765625</ele>
        <time>2021-08-23T10:58:31.000Z</time>
      </trkpt>
      <trkpt lat="42.69382084719836711883544921875" lon="0.041837431490421295166015625">
        <ele>2588.60009765625</ele>
        <time>2021-08-23T10:58:32.000Z</time>
      </trkpt>
      <trkpt lat="42.69381447695195674896240234375" lon="0.041870959103107452392578125">
        <ele>2588</ele>
        <time>2021-08-23T10:58:35.000Z</time>
      </trkpt>
      <trkpt lat="42.6938058435916900634765625" lon="0.0419579632580280303955078125">
        <ele>2586.39990234375</ele>
        <time>2021-08-23T10:58:42.000Z</time>
      </trkpt>
      <trkpt lat="42.69380726851522922515869140625" lon="0.04199274815618991851806640625">
        <ele>2586</ele>
        <time>2021-08-23T10:58:44.000Z</time>
      </trkpt>
      <trkpt lat="42.69380408339202404022216796875" lon="0.0420246832072734832763671875">
        <ele>2585.800048828125</ele>
        <time>2021-08-23T10:58:46.000Z</time>
      </trkpt>
      <trkpt lat="42.69379788078367710113525390625" lon="0.0420525111258029937744140625">
        <ele>2585.60009765625</ele>
        <time>2021-08-23T10:58:48.000Z</time>
      </trkpt>
      <trkpt lat="42.69378631375730037689208984375" lon="0.042099617421627044677734375">
        <ele>2585.199951171875</ele>
        <time>2021-08-23T10:58:52.000Z</time>
      </trkpt>
      <trkpt lat="42.69376686774194240570068359375" lon="0.0421775691211223602294921875">
        <ele>2585.199951171875</ele>
        <time>2021-08-23T10:58:58.000Z</time>
      </trkpt>
      <trkpt lat="42.69369930960237979888916015625" lon="0.04233037121593952178955078125">
        <ele>2585</ele>
        <time>2021-08-23T10:59:13.000Z</time>
      </trkpt>
      <trkpt lat="42.6936833001673221588134765625" lon="0.04234428517520427703857421875">
        <ele>2585</ele>
        <time>2021-08-23T10:59:21.000Z</time>
      </trkpt>
      <trkpt lat="42.69365740008652210235595703125" lon="0.04238602705299854278564453125">
        <ele>2585.39990234375</ele>
        <time>2021-08-23T10:59:25.000Z</time>
      </trkpt>
      <trkpt lat="42.69358347170054912567138671875" lon="0.042554251849651336669921875">
        <ele>2588.60009765625</ele>
        <time>2021-08-23T10:59:49.000Z</time>
      </trkpt>
      <trkpt lat="42.6935659535229206085205078125" lon="0.0425835885107517242431640625">
        <ele>2589.39990234375</ele>
        <time>2021-08-23T10:59:57.000Z</time>
      </trkpt>
      <trkpt lat="42.69351541064679622650146484375" lon="0.04265852272510528564453125">
        <ele>2591.39990234375</ele>
        <time>2021-08-23T11:00:21.000Z</time>
      </trkpt>
      <trkpt lat="42.6936742477118968963623046875" lon="0.0425245799124240875244140625">
        <ele>2585.39990234375</ele>
        <time>2021-08-23T11:01:01.000Z</time>
      </trkpt>
      <trkpt lat="42.69382554106414318084716796875" lon="0.04243950359523296356201171875">
        <ele>2583.60009765625</ele>
        <time>2021-08-23T11:01:18.000Z</time>
      </trkpt>
      <trkpt lat="42.6938274689018726348876953125" lon="0.04245333373546600341796875">
        <ele>2583.60009765625</ele>
        <time>2021-08-23T11:01:19.000Z</time>
      </trkpt>
      <trkpt lat="42.6938482560217380523681640625" lon="0.04249834455549716949462890625">
        <ele>2583.39990234375</ele>
        <time>2021-08-23T11:01:23.000Z</time>
      </trkpt>
      <trkpt lat="42.69391271285712718963623046875" lon="0.04246062599122524261474609375">
        <ele>2582.60009765625</ele>
        <time>2021-08-23T11:01:30.000Z</time>
      </trkpt>
      <trkpt lat="42.69393718801438808441162109375" lon="0.04239172674715518951416015625">
        <ele>2582.199951171875</ele>
        <time>2021-08-23T11:01:35.000Z</time>
      </trkpt>
      <trkpt lat="42.69394330680370330810546875" lon="0.04237831570208072662353515625">
        <ele>2582</ele>
        <time>2021-08-23T11:01:36.000Z</time>
      </trkpt>
      <trkpt lat="42.69397876225411891937255859375" lon="0.04231360740959644317626953125">
        <ele>2582</ele>
        <time>2021-08-23T11:01:41.000Z</time>
      </trkpt>
      <trkpt lat="42.6939914189279079437255859375" lon="0.04228728823363780975341796875">
        <ele>2582.199951171875</ele>
        <time>2021-08-23T11:01:44.000Z</time>
      </trkpt>
      <trkpt lat="42.69400558434426784515380859375" lon="0.04224571399390697479248046875">
        <ele>2582.199951171875</ele>
        <time>2021-08-23T11:01:48.000Z</time>
      </trkpt>
      <trkpt lat="42.69403710030019283294677734375" lon="0.0422097556293010711669921875">
        <ele>2582.199951171875</ele>
        <time>2021-08-23T11:01:52.000Z</time>
      </trkpt>
      <trkpt lat="42.6940433867275714874267578125" lon="0.04220254719257354736328125">
        <ele>2582.199951171875</ele>
        <time>2021-08-23T11:01:53.000Z</time>
      </trkpt>
      <trkpt lat="42.6940487511456012725830078125" lon="0.042170695960521697998046875">
        <ele>2582.60009765625</ele>
        <time>2021-08-23T11:01:56.000Z</time>
      </trkpt>
      <trkpt lat="42.69404212944209575653076171875" lon="0.04211445339024066925048828125">
        <ele>2583.199951171875</ele>
        <time>2021-08-23T11:02:02.000Z</time>
      </trkpt>
      <trkpt lat="42.69467152655124664306640625" lon="0.04264184273779392242431640625">
        <ele>2580.39990234375</ele>
        <time>2021-08-23T12:36:36.000Z</time>
      </trkpt>
      <trkpt lat="42.6942385174334049224853515625" lon="0.0424186326563358306884765625">
        <ele>2581.199951171875</ele>
        <time>2021-08-23T12:36:46.000Z</time>
      </trkpt>
      <trkpt lat="42.694115974009037017822265625" lon="0.04225292243063449859619140625">
        <ele>2582</ele>
        <time>2021-08-23T12:36:52.000Z</time>
      </trkpt>
      <trkpt lat="42.694119326770305633544921875" lon="0.0422674231231212615966796875">
        <ele>2581.800048828125</ele>
        <time>2021-08-23T12:36:53.000Z</time>
      </trkpt>
      <trkpt lat="42.69407649524509906768798828125" lon="0.04231561906635761260986328125">
        <ele>2581.800048828125</ele>
        <time>2021-08-23T12:37:03.000Z</time>
      </trkpt>
      <trkpt lat="42.69404766149818897247314453125" lon="0.04231025464832782745361328125">
        <ele>2581.800048828125</ele>
        <time>2021-08-23T12:37:05.000Z</time>
      </trkpt>
      <trkpt lat="42.69404162652790546417236328125" lon="0.04231260158121585845947265625">
        <ele>2581.800048828125</ele>
        <time>2021-08-23T12:37:06.000Z</time>
      </trkpt>
      <trkpt lat="42.69404699094593524932861328125" lon="0.04233556799590587615966796875">
        <ele>2581.800048828125</ele>
        <time>2021-08-23T12:37:08.000Z</time>
      </trkpt>
      <trkpt lat="42.69405822269618511199951171875" lon="0.04236892797052860260009765625">
        <ele>2581.60009765625</ele>
        <time>2021-08-23T12:37:10.000Z</time>
      </trkpt>
      <trkpt lat="42.69405939616262912750244140625" lon="0.04238971509039402008056640625">
        <ele>2581.60009765625</ele>
        <time>2021-08-23T12:37:12.000Z</time>
      </trkpt>
      <trkpt lat="42.69402788020670413970947265625" lon="0.04244319163262844085693359375">
        <ele>2582</ele>
        <time>2021-08-23T12:37:16.000Z</time>
      </trkpt>
      <trkpt lat="42.6940229348838329315185546875" lon="0.04247738979756832122802734375">
        <ele>2582</ele>
        <time>2021-08-23T12:37:18.000Z</time>
      </trkpt>
      <trkpt lat="42.69403357990086078643798828125" lon="0.04256154410541057586669921875">
        <ele>2582.39990234375</ele>
        <time>2021-08-23T12:37:23.000Z</time>
      </trkpt>
      <trkpt lat="42.69403710030019283294677734375" lon="0.04259725101292133331298828125">
        <ele>2582.39990234375</ele>
        <time>2021-08-23T12:37:25.000Z</time>
      </trkpt>
      <trkpt lat="42.6940380223095417022705078125" lon="0.04262876696884632110595703125">
        <ele>2582.60009765625</ele>
        <time>2021-08-23T12:37:27.000Z</time>
      </trkpt>
      <trkpt lat="42.694029472768306732177734375" lon="0.0426596961915493011474609375">
        <ele>2582.800048828125</ele>
        <time>2021-08-23T12:37:29.000Z</time>
      </trkpt>
      <trkpt lat="42.69402737729251384735107421875" lon="0.0426886975765228271484375">
        <ele>2583</ele>
        <time>2021-08-23T12:37:31.000Z</time>
      </trkpt>
      <trkpt lat="42.693973146378993988037109375" lon="0.042832195758819580078125">
        <ele>2583.60009765625</ele>
        <time>2021-08-23T12:37:42.000Z</time>
      </trkpt>
      <trkpt lat="42.6939803548157215118408203125" lon="0.04292598925530910491943359375">
        <ele>2584</ele>
        <time>2021-08-23T12:37:47.000Z</time>
      </trkpt>
      <trkpt lat="42.69398060627281665802001953125" lon="0.04294493235647678375244140625">
        <ele>2584</ele>
        <time>2021-08-23T12:37:48.000Z</time>
      </trkpt>
      <trkpt lat="42.693976499140262603759765625" lon="0.042961277067661285400390625">
        <ele>2584.199951171875</ele>
        <time>2021-08-23T12:37:49.000Z</time>
      </trkpt>
      <trkpt lat="42.693959735333919525146484375" lon="0.04302372224628925323486328125">
        <ele>2584</ele>
        <time>2021-08-23T12:37:53.000Z</time>
      </trkpt>
      <trkpt lat="42.69384942948818206787109375" lon="0.0432890094816684722900390625">
        <ele>2584.60009765625</ele>
        <time>2021-08-23T12:38:14.000Z</time>
      </trkpt>
      <trkpt lat="42.69380475394427776336669921875" lon="0.04361531697213649749755859375">
        <ele>2584.39990234375</ele>
        <time>2021-08-23T12:38:36.000Z</time>
      </trkpt>
      <trkpt lat="42.69376385025680065155029296875" lon="0.04387951456010341644287109375">
        <ele>2584.800048828125</ele>
        <time>2021-08-23T12:38:56.000Z</time>
      </trkpt>
      <trkpt lat="42.6937335915863513946533203125" lon="0.0444229133427143096923828125">
        <ele>2588.39990234375</ele>
        <time>2021-08-23T12:39:35.000Z</time>
      </trkpt>
      <trkpt lat="42.693800143897533416748046875" lon="0.04439734853804111480712890625">
        <ele>2588.800048828125</ele>
        <time>2021-08-23T12:39:46.000Z</time>
      </trkpt>
      <trkpt lat="42.69382419995963573455810546875" lon="0.0444011203944683074951171875">
        <ele>2589</ele>
        <time>2021-08-23T12:39:50.000Z</time>
      </trkpt>
      <trkpt lat="42.693845741450786590576171875" lon="0.044418387115001678466796875">
        <ele>2589.39990234375</ele>
        <time>2021-08-23T12:39:52.000Z</time>
      </trkpt>
      <trkpt lat="42.6938978768885135650634765625" lon="0.044423751533031463623046875">
        <ele>2589.800048828125</ele>
        <time>2021-08-23T12:39:57.000Z</time>
      </trkpt>
      <trkpt lat="42.69400575198233127593994140625" lon="0.04439466632902622222900390625">
        <ele>2590.60009765625</ele>
        <time>2021-08-23T12:40:11.000Z</time>
      </trkpt>
      <trkpt lat="42.69420683383941650390625" lon="0.044338591396808624267578125">
        <ele>2593</ele>
        <time>2021-08-23T12:40:32.000Z</time>
      </trkpt>
      <trkpt lat="42.694217897951602935791015625" lon="0.04427832551300525665283203125">
        <ele>2592.60009765625</ele>
        <time>2021-08-23T12:40:38.000Z</time>
      </trkpt>
      <trkpt lat="42.69427514635026454925537109375" lon="0.0441808439791202545166015625">
        <ele>2592.60009765625</ele>
        <time>2021-08-23T12:40:47.000Z</time>
      </trkpt>
      <trkpt lat="42.694368772208690643310546875" lon="0.044124014675617218017578125">
        <ele>2592.800048828125</ele>
        <time>2021-08-23T12:41:01.000Z</time>
      </trkpt>
      <trkpt lat="42.6945258490741252899169921875" lon="0.0438780896365642547607421875">
        <ele>2590.800048828125</ele>
        <time>2021-08-23T12:41:35.000Z</time>
      </trkpt>
      <trkpt lat="42.694567926228046417236328125" lon="0.04383877851068973541259765625">
        <ele>2591.39990234375</ele>
        <time>2021-08-23T12:41:42.000Z</time>
      </trkpt>
      <trkpt lat="42.69476934336125850677490234375" lon="0.04364767111837863922119140625">
        <ele>2591.60009765625</ele>
        <time>2021-08-23T12:42:39.000Z</time>
      </trkpt>
      <trkpt lat="42.69480538554489612579345703125" lon="0.0435977987945079803466796875">
        <ele>2592.60009765625</ele>
        <time>2021-08-23T12:42:48.000Z</time>
      </trkpt>
      <trkpt lat="42.69481368362903594970703125" lon="0.04358388483524322509765625">
        <ele>2592.800048828125</ele>
        <time>2021-08-23T12:43:28.000Z</time>
      </trkpt>
      <trkpt lat="42.69481175579130649566650390625" lon="0.04359888844192028045654296875">
        <ele>2592.800048828125</ele>
        <time>2021-08-23T12:43:37.000Z</time>
      </trkpt>
      <trkpt lat="42.69483488984405994415283203125" lon="0.04357206635177135467529296875">
        <ele>2593.60009765625</ele>
        <time>2021-08-23T12:43:47.000Z</time>
      </trkpt>
      <trkpt lat="42.69487998448312282562255859375" lon="0.0435475073754787445068359375">
        <ele>2595</ele>
        <time>2021-08-23T12:43:55.000Z</time>
      </trkpt>
      <trkpt lat="42.69489691592752933502197265625" lon="0.043533258140087127685546875">
        <ele>2595.39990234375</ele>
        <time>2021-08-23T12:43:57.000Z</time>
      </trkpt>
      <trkpt lat="42.69491619430482387542724609375" lon="0.0434992276132106781005859375">
        <ele>2595.39990234375</ele>
        <time>2021-08-23T12:44:00.000Z</time>
      </trkpt>
      <trkpt lat="42.69491619430482387542724609375" lon="0.0434992276132106781005859375">
        <ele>2595.39990234375</ele>
        <time>2021-08-23T12:44:01.000Z</time>
      </trkpt>
      <trkpt lat="42.69492289982736110687255859375" lon="0.0434905104339122772216796875">
        <ele>2595.39990234375</ele>
        <time>2021-08-23T12:44:02.000Z</time>
      </trkpt>
      <trkpt lat="42.6949486322700977325439453125" lon="0.04346075467765331268310546875">
        <ele>2595.800048828125</ele>
        <time>2021-08-23T12:44:06.000Z</time>
      </trkpt>
      <trkpt lat="42.694964893162250518798828125" lon="0.04341884516179561614990234375">
        <ele>2595.800048828125</ele>
        <time>2021-08-23T12:44:17.000Z</time>
      </trkpt>
      <trkpt lat="42.69498978741466999053955078125" lon="0.04335933364927768707275390625">
        <ele>2595.39990234375</ele>
        <time>2021-08-23T12:44:23.000Z</time>
      </trkpt>
      <trkpt lat="42.69501828588545322418212890625" lon="0.04329680465161800384521484375">
        <ele>2595</ele>
        <time>2021-08-23T12:44:28.000Z</time>
      </trkpt>
      <trkpt lat="42.6950569264590740203857421875" lon="0.04320745356380939483642578125">
        <ele>2594.199951171875</ele>
        <time>2021-08-23T12:44:41.000Z</time>
      </trkpt>
      <trkpt lat="42.6950790546834468841552734375" lon="0.04314425401389598846435546875">
        <ele>2594</ele>
        <time>2021-08-23T12:44:47.000Z</time>
      </trkpt>
      <trkpt lat="42.6951394043862819671630859375" lon="0.04296605475246906280517578125">
        <ele>2592.60009765625</ele>
        <time>2021-08-23T12:45:06.000Z</time>
      </trkpt>
      <trkpt lat="42.6951563358306884765625" lon="0.04287938587367534637451171875">
        <ele>2591.39990234375</ele>
        <time>2021-08-23T12:45:23.000Z</time>
      </trkpt>
      <trkpt lat="42.695172764360904693603515625" lon="0.04279254935681819915771484375">
        <ele>2590.60009765625</ele>
        <time>2021-08-23T12:45:31.000Z</time>
      </trkpt>
      <trkpt lat="42.69537426531314849853515625" lon="0.0425577722489833831787109375">
        <ele>2592.800048828125</ele>
        <time>2021-08-23T12:46:16.000Z</time>
      </trkpt>
      <trkpt lat="42.6954327709972858428955078125" lon="0.04248945973813533782958984375">
        <ele>2594.39990234375</ele>
        <time>2021-08-23T12:46:27.000Z</time>
      </trkpt>
      <trkpt lat="42.69556445069611072540283203125" lon="0.04222207702696323394775390625">
        <ele>2593.60009765625</ele>
        <time>2021-08-23T12:46:52.000Z</time>
      </trkpt>
      <trkpt lat="42.69560015760362148284912109375" lon="0.0421088375151157379150390625">
        <ele>2593</ele>
        <time>2021-08-23T12:47:04.000Z</time>
      </trkpt>
      <trkpt lat="42.69560937769711017608642578125" lon="0.04202510230243206024169921875">
        <ele>2592.39990234375</ele>
        <time>2021-08-23T12:47:11.000Z</time>
      </trkpt>
      <trkpt lat="42.6956631056964397430419921875" lon="0.04189702682197093963623046875">
        <ele>2594</ele>
        <time>2021-08-23T12:47:30.000Z</time>
      </trkpt>
      <trkpt lat="42.6957214437425136566162109375" lon="0.04175185225903987884521484375">
        <ele>2594.800048828125</ele>
        <time>2021-08-23T12:47:44.000Z</time>
      </trkpt>
      <trkpt lat="42.69580786116421222686767578125" lon="0.04156124778091907501220703125">
        <ele>2594</ele>
        <time>2021-08-23T12:48:09.000Z</time>
      </trkpt>
      <trkpt lat="42.69598622806370258331298828125" lon="0.04141238518059253692626953125">
        <ele>2594.800048828125</ele>
        <time>2021-08-23T12:48:30.000Z</time>
      </trkpt>
      <trkpt lat="42.6960588991641998291015625" lon="0.04120887257158756256103515625">
        <ele>2591.60009765625</ele>
        <time>2021-08-23T12:48:45.000Z</time>
      </trkpt>
      <trkpt lat="42.6962666027247905731201171875" lon="0.04105330444872379302978515625">
        <ele>2593.39990234375</ele>
        <time>2021-08-23T12:49:21.000Z</time>
      </trkpt>
      <trkpt lat="42.696271799504756927490234375" lon="0.04105028696358203887939453125">
        <ele>2593.60009765625</ele>
        <time>2021-08-23T12:49:33.000Z</time>
      </trkpt>
      <trkpt lat="42.696275822818279266357421875" lon="0.04105053842067718505859375">
        <ele>2593.60009765625</ele>
        <time>2021-08-23T12:49:43.000Z</time>
      </trkpt>
      <trkpt lat="42.696275822818279266357421875" lon="0.04105933941900730133056640625">
        <ele>2593.800048828125</ele>
        <time>2021-08-23T12:49:47.000Z</time>
      </trkpt>
      <trkpt lat="42.69628361798822879791259765625" lon="0.0410527177155017852783203125">
        <ele>2594</ele>
        <time>2021-08-23T12:49:57.000Z</time>
      </trkpt>
      <trkpt lat="42.6963145472109317779541015625" lon="0.04101592116057872772216796875">
        <ele>2594.199951171875</ele>
        <time>2021-08-23T12:50:01.000Z</time>
      </trkpt>
      <trkpt lat="42.69636391662061214447021484375" lon="0.04085741937160491943359375">
        <ele>2593.39990234375</ele>
        <time>2021-08-23T12:50:12.000Z</time>
      </trkpt>
      <trkpt lat="42.69636676646769046783447265625" lon="0.0408458523452281951904296875">
        <ele>2593.199951171875</ele>
        <time>2021-08-23T12:50:13.000Z</time>
      </trkpt>
      <trkpt lat="42.69637179560959339141845703125" lon="0.0408250652253627777099609375">
        <ele>2592.800048828125</ele>
        <time>2021-08-23T12:50:15.000Z</time>
      </trkpt>
      <trkpt lat="42.69641362130641937255859375" lon="0.04068248905241489410400390625">
        <ele>2590.199951171875</ele>
        <time>2021-08-23T12:50:37.000Z</time>
      </trkpt>
      <trkpt lat="42.6964171417057514190673828125" lon="0.04067502915859222412109375">
        <ele>2590.39990234375</ele>
        <time>2021-08-23T12:50:38.000Z</time>
      </trkpt>
      <trkpt lat="42.69642175175249576568603515625" lon="0.04066790454089641571044921875">
        <ele>2590.39990234375</ele>
        <time>2021-08-23T12:50:39.000Z</time>
      </trkpt>
      <trkpt lat="42.69642435014247894287109375" lon="0.0406614504754543304443359375">
        <ele>2590.39990234375</ele>
        <time>2021-08-23T12:50:40.000Z</time>
      </trkpt>
      <trkpt lat="42.6966022141277790069580078125" lon="0.0405709259212017059326171875">
        <ele>2601.60009765625</ele>
        <time>2021-08-23T12:51:15.000Z</time>
      </trkpt>
      <trkpt lat="42.69674126990139484405517578125" lon="0.04045818932354450225830078125">
        <ele>2607.199951171875</ele>
        <time>2021-08-23T12:51:33.000Z</time>
      </trkpt>
      <trkpt lat="42.6969341374933719635009765625" lon="0.04032357595860958099365234375">
        <ele>2620</ele>
        <time>2021-08-23T12:52:03.000Z</time>
      </trkpt>
      <trkpt lat="42.696983255445957183837890625" lon="0.0402976758778095245361328125">
        <ele>2622.199951171875</ele>
        <time>2021-08-23T12:52:10.000Z</time>
      </trkpt>
      <trkpt lat="42.696987949311733245849609375" lon="0.0402854382991790771484375">
        <ele>2622.199951171875</ele>
        <time>2021-08-23T12:52:11.000Z</time>
      </trkpt>
      <trkpt lat="42.69705492071807384490966796875" lon="0.04021913744509220123291015625">
        <ele>2625.39990234375</ele>
        <time>2021-08-23T12:52:24.000Z</time>
      </trkpt>
      <trkpt lat="42.69708610139787197113037109375" lon="0.0401729531586170196533203125">
        <ele>2628</ele>
        <time>2021-08-23T12:52:38.000Z</time>
      </trkpt>
      <trkpt lat="42.697149552404880523681640625" lon="0.04009307362139225006103515625">
        <ele>2632.60009765625</ele>
        <time>2021-08-23T12:53:59.000Z</time>
      </trkpt>
      <trkpt lat="42.69716271199285984039306640625" lon="0.04008603282272815704345703125">
        <ele>2633.60009765625</ele>
        <time>2021-08-23T12:54:11.000Z</time>
      </trkpt>
      <trkpt lat="42.6971453614532947540283203125" lon="0.04007966257631778717041015625">
        <ele>2631.800048828125</ele>
        <time>2021-08-23T12:54:23.000Z</time>
      </trkpt>
      <trkpt lat="42.6971570961177349090576171875" lon="0.04009030759334564208984375">
        <ele>2633.199951171875</ele>
        <time>2021-08-23T12:54:32.000Z</time>
      </trkpt>
      <trkpt lat="42.6971591077744960784912109375" lon="0.040097348392009735107421875">
        <ele>2633.60009765625</ele>
        <time>2021-08-23T12:54:47.000Z</time>
      </trkpt>
      <trkpt lat="42.6971674896776676177978515625" lon="0.0401072390377521514892578125">
        <ele>2634.800048828125</ele>
        <time>2021-08-23T12:55:08.000Z</time>
      </trkpt>
      <trkpt lat="42.69735868088901042938232421875" lon="0.03999383188784122467041015625">
        <ele>2652.800048828125</ele>
        <time>2021-08-23T12:57:36.000Z</time>
      </trkpt>
      <trkpt lat="42.69740377552807331085205078125" lon="0.0401739589869976043701171875">
        <ele>2660</ele>
        <time>2021-08-23T12:58:24.000Z</time>
      </trkpt>
      <trkpt lat="42.69735616631805896759033203125" lon="0.04016666673123836517333984375">
        <ele>2655</ele>
        <time>2021-08-23T12:58:45.000Z</time>
      </trkpt>
      <trkpt lat="42.6973254047334194183349609375" lon="0.04018644802272319793701171875">
        <ele>2651.60009765625</ele>
        <time>2021-08-23T12:58:55.000Z</time>
      </trkpt>
      <trkpt lat="42.69732632674276828765869140625" lon="0.04018728621304035186767578125">
        <ele>2651.800048828125</ele>
        <time>2021-08-23T12:58:57.000Z</time>
      </trkpt>
      <trkpt lat="42.69732900895178318023681640625" lon="0.04018225707113742828369140625">
        <ele>2652</ele>
        <time>2021-08-23T12:59:00.000Z</time>
      </trkpt>
      <trkpt lat="42.6973356306552886962890625" lon="0.04018862731754779815673828125">
        <ele>2652.800048828125</ele>
        <time>2021-08-23T12:59:01.000Z</time>
      </trkpt>
      <trkpt lat="42.69733923487365245819091796875" lon="0.04019533284008502960205078125">
        <ele>2653</ele>
        <time>2021-08-23T12:59:05.000Z</time>
      </trkpt>
      <trkpt lat="42.69734309054911136627197265625" lon="0.04018443636596202850341796875">
        <ele>2653.60009765625</ele>
        <time>2021-08-23T12:59:11.000Z</time>
      </trkpt>
      <trkpt lat="42.69733688794076442718505859375" lon="0.04013380967080593109130859375">
        <ele>2653</ele>
        <time>2021-08-23T12:59:30.000Z</time>
      </trkpt>
      <trkpt lat="42.69747166894376277923583984375" lon="0.040042363107204437255859375">
        <ele>2665.199951171875</ele>
        <time>2021-08-23T13:00:10.000Z</time>
      </trkpt>
      <trkpt lat="42.6974697411060333251953125" lon="0.0400381721556186676025390625">
        <ele>2665</ele>
        <time>2021-08-23T13:00:13.000Z</time>
      </trkpt>
      <trkpt lat="42.697475440800189971923828125" lon="0.04003440029919147491455078125">
        <ele>2665.39990234375</ele>
        <time>2021-08-23T13:00:15.000Z</time>
      </trkpt>
      <trkpt lat="42.69746831618249416351318359375" lon="0.0400306284427642822265625">
        <ele>2664.60009765625</ele>
        <time>2021-08-23T13:00:18.000Z</time>
      </trkpt>
      <trkpt lat="42.697459347546100616455078125" lon="0.04003020934760570526123046875">
        <ele>2663.60009765625</ele>
        <time>2021-08-23T13:00:22.000Z</time>
      </trkpt>
      <trkpt lat="42.6974571682512760162353515625" lon="0.0400284491479396820068359375">
        <ele>2663.39990234375</ele>
        <time>2021-08-23T13:00:23.000Z</time>
      </trkpt>
      <trkpt lat="42.69745423458516597747802734375" lon="0.04002861678600311279296875">
        <ele>2663.199951171875</ele>
        <time>2021-08-23T13:00:24.000Z</time>
      </trkpt>
      <trkpt lat="42.69745138473808765411376953125" lon="0.04002853296697139739990234375">
        <ele>2662.800048828125</ele>
        <time>2021-08-23T13:00:25.000Z</time>
      </trkpt>
      <trkpt lat="42.6974504627287387847900390625" lon="0.04003004170954227447509765625">
        <ele>2662.800048828125</ele>
        <time>2021-08-23T13:00:26.000Z</time>
      </trkpt>
      <trkpt lat="42.69745037890970706939697265625" lon="0.04003674723207950592041015625">
        <ele>2663</ele>
        <time>2021-08-23T13:00:30.000Z</time>
      </trkpt>
      <trkpt lat="42.6974474452435970306396484375" lon="0.0400388427078723907470703125">
        <ele>2662.800048828125</ele>
        <time>2021-08-23T13:00:32.000Z</time>
      </trkpt>
      <trkpt lat="42.69745004363358020782470703125" lon="0.04003155045211315155029296875">
        <ele>2662.800048828125</ele>
        <time>2021-08-23T13:00:41.000Z</time>
      </trkpt>
      <trkpt lat="42.69745054654777050018310546875" lon="0.0400740467011928558349609375">
        <ele>2663.800048828125</ele>
        <time>2021-08-23T13:01:08.000Z</time>
      </trkpt>
      <trkpt lat="42.69747837446630001068115234375" lon="0.0400807522237300872802734375">
        <ele>2666.800048828125</ele>
        <time>2021-08-23T13:01:15.000Z</time>
      </trkpt>
      <trkpt lat="42.69748055376112461090087890625" lon="0.04008083604276180267333984375">
        <ele>2667</ele>
        <time>2021-08-23T13:01:16.000Z</time>
      </trkpt>
      <trkpt lat="42.69749580882489681243896484375" lon="0.040081925690174102783203125">
        <ele>2668.60009765625</ele>
        <time>2021-08-23T13:01:21.000Z</time>
      </trkpt>
      <trkpt lat="42.69750033505260944366455078125" lon="0.04007823765277862548828125">
        <ele>2668.800048828125</ele>
        <time>2021-08-23T13:01:22.000Z</time>
      </trkpt>
      <trkpt lat="42.69751131534576416015625" lon="0.04006172530353069305419921875">
        <ele>2669.60009765625</ele>
        <time>2021-08-23T13:01:24.000Z</time>
      </trkpt>
      <trkpt lat="42.697515003383159637451171875" lon="0.04005015827715396881103515625">
        <ele>2669.60009765625</ele>
        <time>2021-08-23T13:01:26.000Z</time>
      </trkpt>
      <trkpt lat="42.697530090808868408203125" lon="0.0400529243052005767822265625">
        <ele>2671.199951171875</ele>
        <time>2021-08-23T13:01:29.000Z</time>
      </trkpt>
      <trkpt lat="42.6975460164248943328857421875" lon="0.04005485214293003082275390625">
        <ele>2672.800048828125</ele>
        <time>2021-08-23T13:01:33.000Z</time>
      </trkpt>
      <trkpt lat="42.6975396461784839630126953125" lon="0.04004881717264652252197265625">
        <ele>2672</ele>
        <time>2021-08-23T13:01:39.000Z</time>
      </trkpt>
      <trkpt lat="42.697540819644927978515625" lon="0.0400478951632976531982421875">
        <ele>2672</ele>
        <time>2021-08-23T13:01:40.000Z</time>
      </trkpt>
      <trkpt lat="42.69753889180719852447509765625" lon="0.04004697315394878387451171875">
        <ele>2671.800048828125</ele>
        <time>2021-08-23T13:01:41.000Z</time>
      </trkpt>
      <trkpt lat="42.69753922708332538604736328125" lon="0.040047727525234222412109375">
        <ele>2672</ele>
        <time>2021-08-23T13:01:42.000Z</time>
      </trkpt>
      <trkpt lat="42.69753972999751567840576171875" lon="0.0400492362678050994873046875">
        <ele>2672</ele>
        <time>2021-08-23T13:01:43.000Z</time>
      </trkpt>
      <trkpt lat="42.69754190929234027862548828125" lon="0.04005518741905689239501953125">
        <ele>2672.39990234375</ele>
        <time>2021-08-23T13:01:44.000Z</time>
      </trkpt>
      <trkpt lat="42.69754174165427684783935546875" lon="0.0400716997683048248291015625">
        <ele>2672.800048828125</ele>
        <time>2021-08-23T13:01:46.000Z</time>
      </trkpt>
      <trkpt lat="42.69753972999751567840576171875" lon="0.04007614217698574066162109375">
        <ele>2672.60009765625</ele>
        <time>2021-08-23T13:01:47.000Z</time>
      </trkpt>
      <trkpt lat="42.697539143264293670654296875" lon="0.040103383362293243408203125">
        <ele>2673.199951171875</ele>
        <time>2021-08-23T13:01:51.000Z</time>
      </trkpt>
      <trkpt lat="42.69758918322622776031494140625" lon="0.04011218436062335968017578125">
        <ele>2676.800048828125</ele>
        <time>2021-08-23T13:02:03.000Z</time>
      </trkpt>
      <trkpt lat="42.69763729535043239593505859375" lon="0.04006139002740383148193359375">
        <ele>2678</ele>
        <time>2021-08-23T13:02:12.000Z</time>
      </trkpt>
      <trkpt lat="42.6976442523300647735595703125" lon="0.04006071947515010833740234375">
        <ele>2678.199951171875</ele>
        <time>2021-08-23T13:02:14.000Z</time>
      </trkpt>
      <trkpt lat="42.6976506225764751434326171875" lon="0.040080249309539794921875">
        <ele>2679</ele>
        <time>2021-08-23T13:02:18.000Z</time>
      </trkpt>
      <trkpt lat="42.6977029256522655487060546875" lon="0.04009743221104145050048828125">
        <ele>2682.199951171875</ele>
        <time>2021-08-23T13:04:05.000Z</time>
      </trkpt>
      <trkpt lat="42.69763159565627574920654296875" lon="0.04012727178633213043212890625">
        <ele>2679.199951171875</ele>
        <time>2021-08-23T13:04:12.000Z</time>
      </trkpt>
      <trkpt lat="42.69762103445827960968017578125" lon="0.0401151180267333984375">
        <ele>2678.39990234375</ele>
        <time>2021-08-23T13:04:13.000Z</time>
      </trkpt>
      <trkpt lat="42.69761466421186923980712890625" lon="0.04010698758065700531005859375">
        <ele>2678</ele>
        <time>2021-08-23T13:04:14.000Z</time>
      </trkpt>
      <trkpt lat="42.69760376773774623870849609375" lon="0.04010179080069065093994140625">
        <ele>2677.199951171875</ele>
        <time>2021-08-23T13:04:20.000Z</time>
      </trkpt>
      <trkpt lat="42.69762673415243625640869140625" lon="0.0401102565228939056396484375">
        <ele>2678.60009765625</ele>
        <time>2021-08-23T13:04:43.000Z</time>
      </trkpt>
      <trkpt lat="42.6976735889911651611328125" lon="0.04007379524409770965576171875">
        <ele>2680</ele>
        <time>2021-08-23T13:04:51.000Z</time>
      </trkpt>
      <trkpt lat="42.69768557511270046234130859375" lon="0.04006943665444850921630859375">
        <ele>2680.60009765625</ele>
        <time>2021-08-23T13:04:52.000Z</time>
      </trkpt>
      <trkpt lat="42.69771642051637172698974609375" lon="0.0400482304394245147705078125">
        <ele>2681.60009765625</ele>
        <time>2021-08-23T13:04:55.000Z</time>
      </trkpt>
      <trkpt lat="42.69772999919950962066650390625" lon="0.03993649967014789581298828125">
        <ele>2680.60009765625</ele>
        <time>2021-08-23T13:04:59.000Z</time>
      </trkpt>
      <trkpt lat="42.69773460924625396728515625" lon="0.04003725014626979827880859375">
        <ele>2682.39990234375</ele>
        <time>2021-08-23T13:05:10.000Z</time>
      </trkpt>
      <trkpt lat="42.697710134088993072509765625" lon="0.04007228650152683258056640625">
        <ele>2681.800048828125</ele>
        <time>2021-08-23T13:05:12.000Z</time>
      </trkpt>
      <trkpt lat="42.6977069489657878875732421875" lon="0.0400923192501068115234375">
        <ele>2682.199951171875</ele>
        <time>2021-08-23T13:05:13.000Z</time>
      </trkpt>
      <trkpt lat="42.69770602695643901824951171875" lon="0.04012660123407840728759765625">
        <ele>2683</ele>
        <time>2021-08-23T13:05:16.000Z</time>
      </trkpt>
      <trkpt lat="42.69770116545259952545166015625" lon="0.0401310436427593231201171875">
        <ele>2682.800048828125</ele>
        <time>2021-08-23T13:05:17.000Z</time>
      </trkpt>
      <trkpt lat="42.69769798032939434051513671875" lon="0.040134228765964508056640625">
        <ele>2682.800048828125</ele>
        <time>2021-08-23T13:05:18.000Z</time>
      </trkpt>
      <trkpt lat="42.69769714213907718658447265625" lon="0.040140934288501739501953125">
        <ele>2683</ele>
        <time>2021-08-23T13:05:19.000Z</time>
      </trkpt>
      <trkpt lat="42.6976908557116985321044921875" lon="0.04015560261905193328857421875">
        <ele>2682.800048828125</ele>
        <time>2021-08-23T13:05:21.000Z</time>
      </trkpt>
      <trkpt lat="42.69765137694776058197021484375" lon="0.0401820056140422821044921875">
        <ele>2680.39990234375</ele>
        <time>2021-08-23T13:05:32.000Z</time>
      </trkpt>
      <trkpt lat="42.6976227946579456329345703125" lon="0.0401400960981845855712890625">
        <ele>2679.199951171875</ele>
        <time>2021-08-23T13:05:59.000Z</time>
      </trkpt>
      <trkpt lat="42.697616927325725555419921875" lon="0.04014118574559688568115234375">
        <ele>2679</ele>
        <time>2021-08-23T13:06:03.000Z</time>
      </trkpt>
      <trkpt lat="42.69760594703257083892822265625" lon="0.0401380844414234161376953125">
        <ele>2678.199951171875</ele>
        <time>2021-08-23T13:06:10.000Z</time>
      </trkpt>
      <trkpt lat="42.69763578660786151885986328125" lon="0.0400965102016925811767578125">
        <ele>2678.800048828125</ele>
        <time>2021-08-23T13:06:18.000Z</time>
      </trkpt>
      <trkpt lat="42.69767451100051403045654296875" lon="0.040110759437084197998046875">
        <ele>2681</ele>
        <time>2021-08-23T13:06:21.000Z</time>
      </trkpt>
      <trkpt lat="42.6977143250405788421630859375" lon="0.0401387549936771392822265625">
        <ele>2683.800048828125</ele>
        <time>2021-08-23T13:06:25.000Z</time>
      </trkpt>
      <trkpt lat="42.6977361179888248443603515625" lon="0.04014403559267520904541015625">
        <ele>2685</ele>
        <time>2021-08-23T13:06:38.000Z</time>
      </trkpt>
      <trkpt lat="42.69773502834141254425048828125" lon="0.0401454605162143707275390625">
        <ele>2685</ele>
        <time>2021-08-23T13:06:39.000Z</time>
      </trkpt>
      <trkpt lat="42.69774726592004299163818359375" lon="0.040137581527233123779296875">
        <ele>2685.39990234375</ele>
        <time>2021-08-23T13:06:45.000Z</time>
      </trkpt>
      <trkpt lat="42.69774173386394977569580078125" lon="0.04014805890619754791259765625">
        <ele>2685.39990234375</ele>
        <time>2021-08-23T13:06:54.000Z</time>
      </trkpt>
      <trkpt lat="42.69775732420384883880615234375" lon="0.04017479717731475830078125">
        <ele>2685.800048828125</ele>
        <time>2021-08-23T13:07:21.000Z</time>
      </trkpt>
      <trkpt lat="42.6977634429931640625" lon="0.0401514954864978790283203125">
        <ele>2686.39990234375</ele>
        <time>2021-08-23T13:07:33.000Z</time>
      </trkpt>
      <trkpt lat="42.6977753452956676483154296875" lon="0.04011587239801883697509765625">
        <ele>2686.199951171875</ele>
        <time>2021-08-23T13:07:57.000Z</time>
      </trkpt>
      <trkpt lat="42.6977760158479213714599609375" lon="0.0400918163359165191650390625">
        <ele>2685.60009765625</ele>
        <time>2021-08-23T13:08:18.000Z</time>
      </trkpt>
      <trkpt lat="42.6977843977510929107666015625" lon="0.04012651741504669189453125">
        <ele>2687</ele>
        <time>2021-08-23T13:08:38.000Z</time>
      </trkpt>
      <trkpt lat="42.697753049433231353759765625" lon="0.04015342332422733306884765625">
        <ele>2686</ele>
        <time>2021-08-23T13:08:52.000Z</time>
      </trkpt>
      <trkpt lat="42.6977498643100261688232421875" lon="0.04014302976429462432861328125">
        <ele>2685.60009765625</ele>
        <time>2021-08-23T13:08:59.000Z</time>
      </trkpt>
      <trkpt lat="42.697749696671962738037109375" lon="0.0401441194117069244384765625">
        <ele>2685.60009765625</ele>
        <time>2021-08-23T13:09:00.000Z</time>
      </trkpt>
      <trkpt lat="42.69775028340518474578857421875" lon="0.04014085046947002410888671875">
        <ele>2685.60009765625</ele>
        <time>2021-08-23T13:09:01.000Z</time>
      </trkpt>
      <trkpt lat="42.69775380380451679229736328125" lon="0.0401354022324085235595703125">
        <ele>2685.60009765625</ele>
        <time>2021-08-23T13:09:02.000Z</time>
      </trkpt>
      <trkpt lat="42.6977341063320636749267578125" lon="0.04016096703708171844482421875">
        <ele>2684.800048828125</ele>
        <time>2021-08-23T13:09:11.000Z</time>
      </trkpt>
      <trkpt lat="42.69771994091570377349853515625" lon="0.04015929065644741058349609375">
        <ele>2684.199951171875</ele>
        <time>2021-08-23T13:09:16.000Z</time>
      </trkpt>
      <trkpt lat="42.6977217011153697967529296875" lon="0.04015862010419368743896484375">
        <ele>2684.199951171875</ele>
        <time>2021-08-23T13:09:18.000Z</time>
      </trkpt>
      <trkpt lat="42.69772144965827465057373046875" lon="0.04017773084342479705810546875">
        <ele>2684</ele>
        <time>2021-08-23T13:09:23.000Z</time>
      </trkpt>
      <trkpt lat="42.6977314241230487823486328125" lon="0.0402094982564449310302734375">
        <ele>2684</ele>
        <time>2021-08-23T13:09:29.000Z</time>
      </trkpt>
      <trkpt lat="42.69773519597947597503662109375" lon="0.04020857624709606170654296875">
        <ele>2684.199951171875</ele>
        <time>2021-08-23T13:09:30.000Z</time>
      </trkpt>
      <trkpt lat="42.69773938693106174468994140625" lon="0.04020161926746368408203125">
        <ele>2684.60009765625</ele>
        <time>2021-08-23T13:09:31.000Z</time>
      </trkpt>
      <trkpt lat="42.69774123094975948333740234375" lon="0.040200613439083099365234375">
        <ele>2684.60009765625</ele>
        <time>2021-08-23T13:09:32.000Z</time>
      </trkpt>
      <trkpt lat="42.69774424843490123748779296875" lon="0.0401970930397510528564453125">
        <ele>2684.800048828125</ele>
        <time>2021-08-23T13:09:34.000Z</time>
      </trkpt>
      <trkpt lat="42.69774936139583587646484375" lon="0.0401900522410869598388671875">
        <ele>2685.199951171875</ele>
        <time>2021-08-23T13:09:35.000Z</time>
      </trkpt>
      <trkpt lat="42.69774190150201320648193359375" lon="0.0401794910430908203125">
        <ele>2685</ele>
        <time>2021-08-23T13:09:39.000Z</time>
      </trkpt>
      <trkpt lat="42.6977404765784740447998046875" lon="0.04016046412289142608642578125">
        <ele>2685.199951171875</ele>
        <time>2021-08-23T13:09:42.000Z</time>
      </trkpt>
      <trkpt lat="42.697749026119709014892578125" lon="0.04013867117464542388916015625">
        <ele>2685.39990234375</ele>
        <time>2021-08-23T13:09:47.000Z</time>
      </trkpt>
      <trkpt lat="42.6977538876235485076904296875" lon="0.04014068283140659332275390625">
        <ele>2685.800048828125</ele>
        <time>2021-08-23T13:09:48.000Z</time>
      </trkpt>
      <trkpt lat="42.697779871523380279541015625" lon="0.040132217109203338623046875">
        <ele>2686.800048828125</ele>
        <time>2021-08-23T13:10:02.000Z</time>
      </trkpt>
      <trkpt lat="42.69779051654040813446044921875" lon="0.0401343964040279388427734375">
        <ele>2687.39990234375</ele>
        <time>2021-08-23T13:10:08.000Z</time>
      </trkpt>
      <trkpt lat="42.69779906608164310455322265625" lon="0.040134899318218231201171875">
        <ele>2688</ele>
        <time>2021-08-23T13:10:14.000Z</time>
      </trkpt>
      <trkpt lat="42.69780166447162628173828125" lon="0.040144957602024078369140625">
        <ele>2688.39990234375</ele>
        <time>2021-08-23T13:10:18.000Z</time>
      </trkpt>
      <trkpt lat="42.697799317538738250732421875" lon="0.0401486456394195556640625">
        <ele>2688.199951171875</ele>
        <time>2021-08-23T13:10:19.000Z</time>
      </trkpt>
      <trkpt lat="42.6977991499006748199462890625" lon="0.04015333950519561767578125">
        <ele>2688.199951171875</ele>
        <time>2021-08-23T13:10:20.000Z</time>
      </trkpt>
      <trkpt lat="42.69779898226261138916015625" lon="0.04015593789517879486083984375">
        <ele>2688.199951171875</ele>
        <time>2021-08-23T13:10:21.000Z</time>
      </trkpt>
      <trkpt lat="42.69779504276812076568603515625" lon="0.04015711136162281036376953125">
        <ele>2688</ele>
        <time>2021-08-23T13:10:25.000Z</time>
      </trkpt>
      <trkpt lat="42.69779571332037448883056640625" lon="0.0401588715612888336181640625">
        <ele>2688</ele>
        <time>2021-08-23T13:10:27.000Z</time>
      </trkpt>
      <trkpt lat="42.69779571332037448883056640625" lon="0.04015862010419368743896484375">
        <ele>2688</ele>
        <time>2021-08-23T13:10:28.000Z</time>
      </trkpt>
      <trkpt lat="42.69779202528297901153564453125" lon="0.04016381688416004180908203125">
        <ele>2687.800048828125</ele>
        <time>2021-08-23T13:10:33.000Z</time>
      </trkpt>
      <trkpt lat="42.697788588702678680419921875" lon="0.04016616381704807281494140625">
        <ele>2687.60009765625</ele>
        <time>2021-08-23T13:10:36.000Z</time>
      </trkpt>
      <trkpt lat="42.6977830566465854644775390625" lon="0.04017345607280731201171875">
        <ele>2687.199951171875</ele>
        <time>2021-08-23T13:10:40.000Z</time>
      </trkpt>
      <trkpt lat="42.69778431393206119537353515625" lon="0.04018418490886688232421875">
        <ele>2687</ele>
        <time>2021-08-23T13:10:44.000Z</time>
      </trkpt>
      <trkpt lat="42.69778314046561717987060546875" lon="0.04019164480268955230712890625">
        <ele>2687</ele>
        <time>2021-08-23T13:10:47.000Z</time>
      </trkpt>
      <trkpt lat="42.69778230227530002593994140625" lon="0.040195249021053314208984375">
        <ele>2686.800048828125</ele>
        <time>2021-08-23T13:10:48.000Z</time>
      </trkpt>
      <trkpt lat="42.697782553732395172119140625" lon="0.0401977635920047760009765625">
        <ele>2686.800048828125</ele>
        <time>2021-08-23T13:10:49.000Z</time>
      </trkpt>
      <trkpt lat="42.69778246991336345672607421875" lon="0.04019684158265590667724609375">
        <ele>2686.800048828125</ele>
        <time>2021-08-23T13:10:51.000Z</time>
      </trkpt>
      <trkpt lat="42.69778314046561717987060546875" lon="0.04020036198198795318603515625">
        <ele>2686.800048828125</ele>
        <time>2021-08-23T13:10:53.000Z</time>
      </trkpt>
      <trkpt lat="42.697827816009521484375" lon="0.04039398394525051116943359375">
        <ele>2686.199951171875</ele>
        <time>2021-08-23T13:12:55.000Z</time>
      </trkpt>
      <trkpt lat="42.69792764447629451751708984375" lon="0.04039649851620197296142578125">
        <ele>2683.800048828125</ele>
        <time>2021-08-23T13:13:26.000Z</time>
      </trkpt>
      <trkpt lat="42.697899900376796722412109375" lon="0.0403999350965023040771484375">
        <ele>2684.39990234375</ele>
        <time>2021-08-23T13:13:31.000Z</time>
      </trkpt>
      <trkpt lat="42.69789612852036952972412109375" lon="0.04040320403873920440673828125">
        <ele>2684.60009765625</ele>
        <time>2021-08-23T13:13:33.000Z</time>
      </trkpt>
      <trkpt lat="42.6978930272161960601806640625" lon="0.04040278494358062744140625">
        <ele>2684.60009765625</ele>
        <time>2021-08-23T13:13:34.000Z</time>
      </trkpt>
      <trkpt lat="42.69789663143455982208251953125" lon="0.04040068946778774261474609375">
        <ele>2684.60009765625</ele>
        <time>2021-08-23T13:13:37.000Z</time>
      </trkpt>
      <trkpt lat="42.69791406579315662384033203125" lon="0.0404250808060169219970703125">
        <ele>2683.60009765625</ele>
        <time>2021-08-23T13:13:46.000Z</time>
      </trkpt>
      <trkpt lat="42.69792797975242137908935546875" lon="0.04041778855025768280029296875">
        <ele>2683.39990234375</ele>
        <time>2021-08-23T13:13:52.000Z</time>
      </trkpt>
      <trkpt lat="42.69791607744991779327392578125" lon="0.04048601724207401275634765625">
        <ele>2683.60009765625</ele>
        <time>2021-08-23T13:14:22.000Z</time>
      </trkpt>
      <trkpt lat="42.69788322038948535919189453125" lon="0.04047931171953678131103515625">
        <ele>2684.60009765625</ele>
        <time>2021-08-23T13:15:00.000Z</time>
      </trkpt>
      <trkpt lat="42.6978611759841442108154296875" lon="0.04052993841469287872314453125">
        <ele>2684.199951171875</ele>
        <time>2021-08-23T13:15:18.000Z</time>
      </trkpt>
      <trkpt lat="42.6979302428662776947021484375" lon="0.0405689142644405364990234375">
        <ele>2682.60009765625</ele>
        <time>2021-08-23T13:15:30.000Z</time>
      </trkpt>
      <trkpt lat="42.69794591702520847320556640625" lon="0.04056078381836414337158203125">
        <ele>2682.39990234375</ele>
        <time>2021-08-23T13:15:34.000Z</time>
      </trkpt>
      <trkpt lat="42.69794382154941558837890625" lon="0.04055139608681201934814453125">
        <ele>2682.60009765625</ele>
        <time>2021-08-23T13:15:36.000Z</time>
      </trkpt>
      <trkpt lat="42.69794918596744537353515625" lon="0.04054368473589420318603515625">
        <ele>2682.60009765625</ele>
        <time>2021-08-23T13:15:38.000Z</time>
      </trkpt>
      <trkpt lat="42.6979708112776279449462890625" lon="0.04053815267980098724365234375">
        <ele>2682</ele>
        <time>2021-08-23T13:15:44.000Z</time>
      </trkpt>
      <trkpt lat="42.697977013885974884033203125" lon="0.040519125759601593017578125">
        <ele>2681.800048828125</ele>
        <time>2021-08-23T13:15:49.000Z</time>
      </trkpt>
      <trkpt lat="42.697980701923370361328125" lon="0.0405134260654449462890625">
        <ele>2681.800048828125</ele>
        <time>2021-08-23T13:15:51.000Z</time>
      </trkpt>
      <trkpt lat="42.697983719408512115478515625" lon="0.04050797782838344573974609375">
        <ele>2681.60009765625</ele>
        <time>2021-08-23T13:15:53.000Z</time>
      </trkpt>
      <trkpt lat="42.69798539578914642333984375" lon="0.04050739109516143798828125">
        <ele>2681.60009765625</ele>
        <time>2021-08-23T13:15:54.000Z</time>
      </trkpt>
      <trkpt lat="42.69798296503722667694091796875" lon="0.040510408580303192138671875">
        <ele>2681.60009765625</ele>
        <time>2021-08-23T13:15:57.000Z</time>
      </trkpt>
      <trkpt lat="42.69797600805759429931640625" lon="0.04051275551319122314453125">
        <ele>2681.800048828125</ele>
        <time>2021-08-23T13:16:00.000Z</time>
      </trkpt>
      <trkpt lat="42.69796737469732761383056640625" lon="0.040511749684810638427734375">
        <ele>2682.199951171875</ele>
        <time>2021-08-23T13:16:02.000Z</time>
      </trkpt>
      <trkpt lat="42.6979366131126880645751953125" lon="0.0404988415539264678955078125">
        <ele>2683</ele>
        <time>2021-08-23T13:16:10.000Z</time>
      </trkpt>
      <trkpt lat="42.69800291396677494049072265625" lon="0.04051434807479381561279296875">
        <ele>2681</ele>
        <time>2021-08-23T13:16:51.000Z</time>
      </trkpt>
      <trkpt lat="42.6979919336736202239990234375" lon="0.0404921360313892364501953125">
        <ele>2681.39990234375</ele>
        <time>2021-08-23T13:16:58.000Z</time>
      </trkpt>
      <trkpt lat="42.697991430759429931640625" lon="0.04048115573823451995849609375">
        <ele>2681.39990234375</ele>
        <time>2021-08-23T13:17:00.000Z</time>
      </trkpt>
      <trkpt lat="42.69799436442553997039794921875" lon="0.04046187736093997955322265625">
        <ele>2681.39990234375</ele>
        <time>2021-08-23T13:17:06.000Z</time>
      </trkpt>
      <trkpt lat="42.6979962922632694244384765625" lon="0.04045148380100727081298828125">
        <ele>2681.199951171875</ele>
        <time>2021-08-23T13:17:08.000Z</time>
      </trkpt>
      <trkpt lat="42.69799922592937946319580078125" lon="0.040447711944580078125">
        <ele>2681.199951171875</ele>
        <time>2021-08-23T13:17:15.000Z</time>
      </trkpt>
      <trkpt lat="42.698001824319362640380859375" lon="0.04045450128614902496337890625">
        <ele>2681.199951171875</ele>
        <time>2021-08-23T13:17:17.000Z</time>
      </trkpt>
      <trkpt lat="42.69806846044957637786865234375" lon="0.0405239872634410858154296875">
        <ele>2679.199951171875</ele>
        <time>2021-08-23T13:17:56.000Z</time>
      </trkpt>
      <trkpt lat="42.69805647432804107666015625" lon="0.0405643880367279052734375">
        <ele>2679.60009765625</ele>
        <time>2021-08-23T13:18:02.000Z</time>
      </trkpt>
      <trkpt lat="42.6980464160442352294921875" lon="0.040599592030048370361328125">
        <ele>2679.800048828125</ele>
        <time>2021-08-23T13:18:06.000Z</time>
      </trkpt>
      <trkpt lat="42.69804574549198150634765625" lon="0.040601603686809539794921875">
        <ele>2679.800048828125</ele>
        <time>2021-08-23T13:18:10.000Z</time>
      </trkpt>
      <trkpt lat="42.69804549403488636016845703125" lon="0.04060202278196811676025390625">
        <ele>2679.800048828125</ele>
        <time>2021-08-23T13:18:11.000Z</time>
      </trkpt>
      <trkpt lat="42.69805991090834140777587890625" lon="0.04059397615492343902587890625">
        <ele>2679.39990234375</ele>
        <time>2021-08-23T13:18:47.000Z</time>
      </trkpt>
      <trkpt lat="42.69806359894573688507080078125" lon="0.04057955928146839141845703125">
        <ele>2679.39990234375</ele>
        <time>2021-08-23T13:18:53.000Z</time>
      </trkpt>
      <trkpt lat="42.69806385040283203125" lon="0.04059699364006519317626953125">
        <ele>2679.39990234375</ele>
        <time>2021-08-23T13:19:01.000Z</time>
      </trkpt>
      <trkpt lat="42.698060832917690277099609375" lon="0.04059934057295322418212890625">
        <ele>2679.39990234375</ele>
        <time>2021-08-23T13:19:09.000Z</time>
      </trkpt>
      <trkpt lat="42.69805706106126308441162109375" lon="0.04059053957462310791015625">
        <ele>2679.60009765625</ele>
        <time>2021-08-23T13:19:27.000Z</time>
      </trkpt>
      <trkpt lat="42.6980667002499103546142578125" lon="0.0405675731599330902099609375">
        <ele>2679.199951171875</ele>
        <time>2021-08-23T13:19:34.000Z</time>
      </trkpt>
      <trkpt lat="42.698078267276287078857421875" lon="0.04055156372487545013427734375">
        <ele>2679</ele>
        <time>2021-08-23T13:19:37.000Z</time>
      </trkpt>
      <trkpt lat="42.69810467027127742767333984375" lon="0.04052943550050258636474609375">
        <ele>2678.199951171875</ele>
        <time>2021-08-23T13:19:51.000Z</time>
      </trkpt>
      <trkpt lat="42.69809695892035961151123046875" lon="0.04052658565342426300048828125">
        <ele>2678.39990234375</ele>
        <time>2021-08-23T13:20:02.000Z</time>
      </trkpt>
      <trkpt lat="42.69807164557278156280517578125" lon="0.0405648909509181976318359375">
        <ele>2679.199951171875</ele>
        <time>2021-08-23T13:20:14.000Z</time>
      </trkpt>
      <trkpt lat="42.6980864815413951873779296875" lon="0.04062381573021411895751953125">
        <ele>2678.60009765625</ele>
        <time>2021-08-23T13:20:35.000Z</time>
      </trkpt>
      <trkpt lat="42.698090337216854095458984375" lon="0.0406228937208652496337890625">
        <ele>2678.60009765625</ele>
        <time>2021-08-23T13:20:39.000Z</time>
      </trkpt>
      <trkpt lat="42.6980908401310443878173828125" lon="0.0406238995492458343505859375">
        <ele>2678.60009765625</ele>
        <time>2021-08-23T13:20:42.000Z</time>
      </trkpt>
      <trkpt lat="42.69810743629932403564453125" lon="0.0406128354370594024658203125">
        <ele>2678</ele>
        <time>2021-08-23T13:20:44.000Z</time>
      </trkpt>
      <trkpt lat="42.69811908714473247528076171875" lon="0.04059012047946453094482421875">
        <ele>2677.199951171875</ele>
        <time>2021-08-23T13:20:55.000Z</time>
      </trkpt>
      <trkpt lat="42.69812780432403087615966796875" lon="0.04058760590851306915283203125">
        <ele>2676.39990234375</ele>
        <time>2021-08-23T13:21:01.000Z</time>
      </trkpt>
      <trkpt lat="42.6981156505644321441650390625" lon="0.0405997596681118011474609375">
        <ele>2677.60009765625</ele>
        <time>2021-08-23T13:21:08.000Z</time>
      </trkpt>
      <trkpt lat="42.69811187870800495147705078125" lon="0.04061199724674224853515625">
        <ele>2677.800048828125</ele>
        <time>2021-08-23T13:21:10.000Z</time>
      </trkpt>
      <trkpt lat="42.69810651428997516632080078125" lon="0.04065214656293392181396484375">
        <ele>2678.199951171875</ele>
        <time>2021-08-23T13:21:19.000Z</time>
      </trkpt>
      <trkpt lat="42.6980630122125148773193359375" lon="0.040788017213344573974609375">
        <ele>2676.39990234375</ele>
        <time>2021-08-23T13:21:44.000Z</time>
      </trkpt>
      <trkpt lat="42.69803828559815883636474609375" lon="0.040763206779956817626953125">
        <ele>2677.39990234375</ele>
        <time>2021-08-23T13:22:10.000Z</time>
      </trkpt>
      <trkpt lat="42.698041386902332305908203125" lon="0.04075189121067523956298828125">
        <ele>2677.60009765625</ele>
        <time>2021-08-23T13:22:17.000Z</time>
      </trkpt>
      <trkpt lat="42.698080949485301971435546875" lon="0.0406721793115139007568359375">
        <ele>2678.800048828125</ele>
        <time>2021-08-23T13:22:24.000Z</time>
      </trkpt>
      <trkpt lat="42.69808472134172916412353515625" lon="0.04060587845742702484130859375">
        <ele>2678.800048828125</ele>
        <time>2021-08-23T13:22:40.000Z</time>
      </trkpt>
      <trkpt lat="42.6980740763247013092041015625" lon="0.04060068167746067047119140625">
        <ele>2679</ele>
        <time>2021-08-23T13:22:54.000Z</time>
      </trkpt>
      <trkpt lat="42.69807399250566959381103515625" lon="0.04059322178363800048828125">
        <ele>2679</ele>
        <time>2021-08-23T13:23:40.000Z</time>
      </trkpt>
      <trkpt lat="42.6980968751013278961181640625" lon="0.0406336225569248199462890625">
        <ele>2678.39990234375</ele>
        <time>2021-08-23T13:24:49.000Z</time>
      </trkpt>
      <trkpt lat="42.698097042739391326904296875" lon="0.0406316109001636505126953125">
        <ele>2678.39990234375</ele>
        <time>2021-08-23T13:24:50.000Z</time>
      </trkpt>
      <trkpt lat="42.69809595309197902679443359375" lon="0.04063622094690799713134765625">
        <ele>2678.39990234375</ele>
        <time>2021-08-23T13:24:52.000Z</time>
      </trkpt>
      <trkpt lat="42.69809528253972530364990234375" lon="0.04063555039465427398681640625">
        <ele>2678.39990234375</ele>
        <time>2021-08-23T13:24:53.000Z</time>
      </trkpt>
      <trkpt lat="42.698097713291645050048828125" lon="0.0406314432621002197265625">
        <ele>2678.39990234375</ele>
        <time>2021-08-23T13:24:54.000Z</time>
      </trkpt>
      <trkpt lat="42.6980921812355518341064453125" lon="0.04064158536493778228759765625">
        <ele>2678.60009765625</ele>
        <time>2021-08-23T13:24:57.000Z</time>
      </trkpt>
      <trkpt lat="42.69809670746326446533203125" lon="0.04062264226377010345458984375">
        <ele>2678.39990234375</ele>
        <time>2021-08-23T13:25:04.000Z</time>
      </trkpt>
      <trkpt lat="42.69809897057712078094482421875" lon="0.04061627201735973358154296875">
        <ele>2678.39990234375</ele>
        <time>2021-08-23T13:25:05.000Z</time>
      </trkpt>
      <trkpt lat="42.6980945281684398651123046875" lon="0.04063270054757595062255859375">
        <ele>2678.39990234375</ele>
        <time>2021-08-23T13:25:10.000Z</time>
      </trkpt>
      <trkpt lat="42.6981027424335479736328125" lon="0.04066086374223232269287109375">
        <ele>2678.199951171875</ele>
        <time>2021-08-23T13:25:16.000Z</time>
      </trkpt>
      <trkpt lat="42.6981112919747829437255859375" lon="0.04067829810082912445068359375">
        <ele>2678</ele>
        <time>2021-08-23T13:25:22.000Z</time>
      </trkpt>
      <trkpt lat="42.69811355508863925933837890625" lon="0.04068852402269840240478515625">
        <ele>2677.800048828125</ele>
        <time>2021-08-23T13:25:25.000Z</time>
      </trkpt>
      <trkpt lat="42.6981149800121784210205078125" lon="0.04071752540767192840576171875">
        <ele>2677.39990234375</ele>
        <time>2021-08-23T13:25:31.000Z</time>
      </trkpt>
      <trkpt lat="42.698099054396152496337890625" lon="0.04072641022503376007080078125">
        <ele>2677.60009765625</ele>
        <time>2021-08-23T13:25:44.000Z</time>
      </trkpt>
      <trkpt lat="42.69808338023722171783447265625" lon="0.0408165156841278076171875">
        <ele>2675.199951171875</ele>
        <time>2021-08-23T13:26:11.000Z</time>
      </trkpt>
      <trkpt lat="42.6980844698846340179443359375" lon="0.0408126600086688995361328125">
        <ele>2675.199951171875</ele>
        <time>2021-08-23T13:26:12.000Z</time>
      </trkpt>
      <trkpt lat="42.69809293560683727264404296875" lon="0.0407789647579193115234375">
        <ele>2676.199951171875</ele>
        <time>2021-08-23T13:26:15.000Z</time>
      </trkpt>
      <trkpt lat="42.69809494726359844207763671875" lon="0.04077083431184291839599609375">
        <ele>2676.39990234375</ele>
        <time>2021-08-23T13:26:16.000Z</time>
      </trkpt>
      <trkpt lat="42.6980985514819622039794921875" lon="0.04075859673321247100830078125">
        <ele>2676.60009765625</ele>
        <time>2021-08-23T13:26:17.000Z</time>
      </trkpt>
      <trkpt lat="42.69809938967227935791015625" lon="0.04073537886142730712890625">
        <ele>2677.39990234375</ele>
        <time>2021-08-23T13:26:24.000Z</time>
      </trkpt>
      <trkpt lat="42.69810584373772144317626953125" lon="0.04072330892086029052734375">
        <ele>2677.60009765625</ele>
        <time>2021-08-23T13:26:32.000Z</time>
      </trkpt>
      <trkpt lat="42.69811104051768779754638671875" lon="0.0407462753355503082275390625">
        <ele>2676.800048828125</ele>
        <time>2021-08-23T13:26:46.000Z</time>
      </trkpt>
      <trkpt lat="42.698103077709674835205078125" lon="0.04076622426509857177734375">
        <ele>2676.39990234375</ele>
        <time>2021-08-23T13:26:54.000Z</time>
      </trkpt>
      <trkpt lat="42.69808975048363208770751953125" lon="0.04080084152519702911376953125">
        <ele>2675.60009765625</ele>
        <time>2021-08-23T13:26:59.000Z</time>
      </trkpt>
      <trkpt lat="42.69808036275207996368408203125" lon="0.04078709520399570465087890625">
        <ele>2676</ele>
        <time>2021-08-23T13:27:07.000Z</time>
      </trkpt>
      <trkpt lat="42.6980705559253692626953125" lon="0.0408240593969821929931640625">
        <ele>2675.199951171875</ele>
        <time>2021-08-23T13:27:43.000Z</time>
      </trkpt>
      <trkpt lat="42.6980770938098430633544921875" lon="0.04082783125340938568115234375">
        <ele>2675</ele>
        <time>2021-08-23T13:27:50.000Z</time>
      </trkpt>
      <trkpt lat="42.69809612073004245758056640625" lon="0.0408126600086688995361328125">
        <ele>2675.199951171875</ele>
        <time>2021-08-23T13:28:01.000Z</time>
      </trkpt>
      <trkpt lat="42.6980972103774547576904296875" lon="0.04084979183971881866455078125">
        <ele>2674</ele>
        <time>2021-08-23T13:28:22.000Z</time>
      </trkpt>
      <trkpt lat="42.6981267146766185760498046875" lon="0.0408138334751129150390625">
        <ele>2674.199951171875</ele>
        <time>2021-08-23T13:28:30.000Z</time>
      </trkpt>
      <trkpt lat="42.69816778600215911865234375" lon="0.04073194228112697601318359375">
        <ele>2673.199951171875</ele>
        <time>2021-08-23T13:28:38.000Z</time>
      </trkpt>
      <trkpt lat="42.698176838457584381103515625" lon="0.04071819595992565155029296875">
        <ele>2672.199951171875</ele>
        <time>2021-08-23T13:28:42.000Z</time>
      </trkpt>
      <trkpt lat="42.69817910157144069671630859375" lon="0.04071819595992565155029296875">
        <ele>2672</ele>
        <time>2021-08-23T13:28:45.000Z</time>
      </trkpt>
      <trkpt lat="42.69818094559013843536376953125" lon="0.0407157652080059051513671875">
        <ele>2671.800048828125</ele>
        <time>2021-08-23T13:28:46.000Z</time>
      </trkpt>
      <trkpt lat="42.69817491061985492706298828125" lon="0.04071936942636966705322265625">
        <ele>2672.39990234375</ele>
        <time>2021-08-23T13:28:48.000Z</time>
      </trkpt>
      <trkpt lat="42.698169462382793426513671875" lon="0.04084442742168903350830078125">
        <ele>2671.199951171875</ele>
        <time>2021-08-23T13:29:15.000Z</time>
      </trkpt>
      <trkpt lat="42.69821497611701488494873046875" lon="0.04085347987711429595947265625">
        <ele>2668.800048828125</ele>
        <time>2021-08-23T13:29:33.000Z</time>
      </trkpt>
      <trkpt lat="42.69821547903120517730712890625" lon="0.04085934720933437347412109375">
        <ele>2668.60009765625</ele>
        <time>2021-08-23T13:29:34.000Z</time>
      </trkpt>
      <trkpt lat="42.69821941852569580078125" lon="0.04085607826709747314453125">
        <ele>2668.60009765625</ele>
        <time>2021-08-23T13:29:35.000Z</time>
      </trkpt>
      <trkpt lat="42.69822277128696441650390625" lon="0.040853060781955718994140625">
        <ele>2668.60009765625</ele>
        <time>2021-08-23T13:29:36.000Z</time>
      </trkpt>
      <trkpt lat="42.6982484199106693267822265625" lon="0.0408411584794521331787109375">
        <ele>2667.60009765625</ele>
        <time>2021-08-23T13:29:43.000Z</time>
      </trkpt>
      <trkpt lat="42.69825738854706287384033203125" lon="0.04081391729414463043212890625">
        <ele>2666.39990234375</ele>
        <time>2021-08-23T13:29:47.000Z</time>
      </trkpt>
      <trkpt lat="42.6983634196221828460693359375" lon="0.04075624980032444000244140625">
        <ele>2656</ele>
        <time>2021-08-23T13:30:57.000Z</time>
      </trkpt>
      <trkpt lat="42.69836090505123138427734375" lon="0.04074937663972377777099609375">
        <ele>2656.199951171875</ele>
        <time>2021-08-23T13:31:00.000Z</time>
      </trkpt>
      <trkpt lat="42.69835880957543849945068359375" lon="0.04074568860232830047607421875">
        <ele>2656.199951171875</ele>
        <time>2021-08-23T13:31:02.000Z</time>
      </trkpt>
      <trkpt lat="42.6983610726892948150634765625" lon="0.04073764197528362274169921875">
        <ele>2656</ele>
        <time>2021-08-23T13:31:04.000Z</time>
      </trkpt>
      <trkpt lat="42.698354534804821014404296875" lon="0.04073194228112697601318359375">
        <ele>2656.39990234375</ele>
        <time>2021-08-23T13:31:06.000Z</time>
      </trkpt>
      <trkpt lat="42.69835109822452068328857421875" lon="0.04073965363204479217529296875">
        <ele>2656.800048828125</ele>
        <time>2021-08-23T13:31:08.000Z</time>
      </trkpt>
      <trkpt lat="42.69835713319480419158935546875" lon="0.04076966084539890289306640625">
        <ele>2656.800048828125</ele>
        <time>2021-08-23T13:31:27.000Z</time>
      </trkpt>
      <trkpt lat="42.69837942905724048614501953125" lon="0.04076530225574970245361328125">
        <ele>2654.60009765625</ele>
        <time>2021-08-23T13:31:38.000Z</time>
      </trkpt>
      <trkpt lat="42.69853684119880199432373046875" lon="0.0407388992607593536376953125">
        <ele>2652.199951171875</ele>
        <time>2021-08-23T13:33:43.000Z</time>
      </trkpt>
      <trkpt lat="42.69854237325489521026611328125" lon="0.04070176742970943450927734375">
        <ele>2655.39990234375</ele>
        <time>2021-08-23T13:33:47.000Z</time>
      </trkpt>
      <trkpt lat="42.69855293445289134979248046875" lon="0.0406751967966556549072265625">
        <ele>2656</ele>
        <time>2021-08-23T13:33:48.000Z</time>
      </trkpt>
      <trkpt lat="42.69855930469930171966552734375" lon="0.04065357148647308349609375">
        <ele>2656.60009765625</ele>
        <time>2021-08-23T13:33:49.000Z</time>
      </trkpt>
      <trkpt lat="42.6985635794699192047119140625" lon="0.04064326174557209014892578125">
        <ele>2656.800048828125</ele>
        <time>2021-08-23T13:33:50.000Z</time>
      </trkpt>
      <trkpt lat="42.69856433384120464324951171875" lon="0.040637142956256866455078125">
        <ele>2657</ele>
        <time>2021-08-23T13:33:51.000Z</time>
      </trkpt>
      <trkpt lat="42.6985639147460460662841796875" lon="0.0406339578330516815185546875">
        <ele>2657</ele>
        <time>2021-08-23T13:33:52.000Z</time>
      </trkpt>
      <trkpt lat="42.69856936298310756683349609375" lon="0.04064862616360187530517578125">
        <ele>2656.800048828125</ele>
        <time>2021-08-23T13:33:58.000Z</time>
      </trkpt>
      <trkpt lat="42.6985748112201690673828125" lon="0.04065298475325107574462890625">
        <ele>2656.800048828125</ele>
        <time>2021-08-23T13:34:00.000Z</time>
      </trkpt>
      <trkpt lat="42.69857347011566162109375" lon="0.04065365530550479888916015625">
        <ele>2656.800048828125</ele>
        <time>2021-08-23T13:34:02.000Z</time>
      </trkpt>
      <trkpt lat="42.69857455976307392120361328125" lon="0.0406544096767902374267578125">
        <ele>2656.800048828125</ele>
        <time>2021-08-23T13:34:03.000Z</time>
      </trkpt>
      <trkpt lat="42.6985733024775981903076171875" lon="0.04065784625709056854248046875">
        <ele>2656.60009765625</ele>
        <time>2021-08-23T13:34:04.000Z</time>
      </trkpt>
      <trkpt lat="42.69857254810631275177001953125" lon="0.04066203720867633819580078125">
        <ele>2656.60009765625</ele>
        <time>2021-08-23T13:34:05.000Z</time>
      </trkpt>
      <trkpt lat="42.69857305102050304412841796875" lon="0.04067662172019481658935546875">
        <ele>2656.199951171875</ele>
        <time>2021-08-23T13:34:06.000Z</time>
      </trkpt>
      <trkpt lat="42.6985746435821056365966796875" lon="0.04068835638463497161865234375">
        <ele>2656</ele>
        <time>2021-08-23T13:34:08.000Z</time>
      </trkpt>
      <trkpt lat="42.698575146496295928955078125" lon="0.04069221206009387969970703125">
        <ele>2656</ele>
        <time>2021-08-23T13:34:09.000Z</time>
      </trkpt>
      <trkpt lat="42.69857724197208881378173828125" lon="0.04071132279932498931884765625">
        <ele>2655.199951171875</ele>
        <time>2021-08-23T13:34:11.000Z</time>
      </trkpt>
      <trkpt lat="42.69858361221849918365478515625" lon="0.04071517847478389739990234375">
        <ele>2655</ele>
        <time>2021-08-23T13:34:13.000Z</time>
      </trkpt>
      <trkpt lat="42.6985850371420383453369140625" lon="0.0407177768647670745849609375">
        <ele>2654.800048828125</ele>
        <time>2021-08-23T13:34:14.000Z</time>
      </trkpt>
      <trkpt lat="42.6985853724181652069091796875" lon="0.04071752540767192840576171875">
        <ele>2654.800048828125</ele>
        <time>2021-08-23T13:34:16.000Z</time>
      </trkpt>
      <trkpt lat="42.6985860429704189300537109375" lon="0.04072322510182857513427734375">
        <ele>2654.199951171875</ele>
        <time>2021-08-23T13:34:17.000Z</time>
      </trkpt>
      <trkpt lat="42.69858243875205516815185546875" lon="0.0407335348427295684814453125">
        <ele>2653.199951171875</ele>
        <time>2021-08-23T13:34:20.000Z</time>
      </trkpt>
      <trkpt lat="42.69856785424053668975830078125" lon="0.04069288261234760284423828125">
        <ele>2655.800048828125</ele>
        <time>2021-08-23T13:34:27.000Z</time>
      </trkpt>
      <trkpt lat="42.69857573322951793670654296875" lon="0.0406839139759540557861328125">
        <ele>2656.199951171875</ele>
        <time>2021-08-23T13:34:30.000Z</time>
      </trkpt>
      <trkpt lat="42.698576487600803375244140625" lon="0.040681399405002593994140625">
        <ele>2656.199951171875</ele>
        <time>2021-08-23T13:34:31.000Z</time>
      </trkpt>
      <trkpt lat="42.6985783316195011138916015625" lon="0.04067276604473590850830078125">
        <ele>2656.39990234375</ele>
        <time>2021-08-23T13:34:34.000Z</time>
      </trkpt>
      <trkpt lat="42.6985877193510532379150390625" lon="0.04067444242537021636962890625">
        <ele>2656.60009765625</ele>
        <time>2021-08-23T13:34:37.000Z</time>
      </trkpt>
      <trkpt lat="42.69859065301716327667236328125" lon="0.04067628644406795501708984375">
        <ele>2656.60009765625</ele>
        <time>2021-08-23T13:34:38.000Z</time>
      </trkpt>
      <trkpt lat="42.69859752617776393890380859375" lon="0.040676034986972808837890625">
        <ele>2656.60009765625</ele>
        <time>2021-08-23T13:34:40.000Z</time>
      </trkpt>
      <trkpt lat="42.6986051537096500396728515625" lon="0.04068047739565372467041015625">
        <ele>2656.60009765625</ele>
        <time>2021-08-23T13:34:42.000Z</time>
      </trkpt>
      <trkpt lat="42.69859970547258853912353515625" lon="0.040670000016689300537109375">
        <ele>2656.800048828125</ele>
        <time>2021-08-23T13:34:47.000Z</time>
      </trkpt>
      <trkpt lat="42.69861378706991672515869140625" lon="0.04076513461768627166748046875">
        <ele>2651</ele>
        <time>2021-08-23T13:34:56.000Z</time>
      </trkpt>
      <trkpt lat="42.69862149842083454132080078125" lon="0.0408619455993175506591796875">
        <ele>2642.39990234375</ele>
        <time>2021-08-23T13:35:05.000Z</time>
      </trkpt>
      <trkpt lat="42.6985944248735904693603515625" lon="0.04094861447811126708984375">
        <ele>2638</ele>
        <time>2021-08-23T13:35:15.000Z</time>
      </trkpt>
      <trkpt lat="42.6985773257911205291748046875" lon="0.0409856624901294708251953125">
        <ele>2640</ele>
        <time>2021-08-23T13:35:20.000Z</time>
      </trkpt>
      <trkpt lat="42.69856207072734832763671875" lon="0.04101558588445186614990234375">
        <ele>2641</ele>
        <time>2021-08-23T13:35:23.000Z</time>
      </trkpt>
      <trkpt lat="42.69855444319546222686767578125" lon="0.04103536717593669891357421875">
        <ele>2641.60009765625</ele>
        <time>2021-08-23T13:35:27.000Z</time>
      </trkpt>
      <trkpt lat="42.69854522310197353363037109375" lon="0.04106017760932445526123046875">
        <ele>2642</ele>
        <time>2021-08-23T13:35:29.000Z</time>
      </trkpt>
      <trkpt lat="42.69853197969496250152587890625" lon="0.04112572409212589263916015625">
        <ele>2642.60009765625</ele>
        <time>2021-08-23T13:35:36.000Z</time>
      </trkpt>
      <trkpt lat="42.69854907877743244171142578125" lon="0.04111968912184238433837890625">
        <ele>2641</ele>
        <time>2021-08-23T13:35:40.000Z</time>
      </trkpt>
      <trkpt lat="42.698536254465579986572265625" lon="0.04114567302167415618896484375">
        <ele>2642</ele>
        <time>2021-08-23T13:35:50.000Z</time>
      </trkpt>
      <trkpt lat="42.6985417865216732025146484375" lon="0.0411529652774333953857421875">
        <ele>2641.39990234375</ele>
        <time>2021-08-23T13:35:56.000Z</time>
      </trkpt>
      <trkpt lat="42.69854128360748291015625" lon="0.0411449186503887176513671875">
        <ele>2641.60009765625</ele>
        <time>2021-08-23T13:36:00.000Z</time>
      </trkpt>
      <trkpt lat="42.6985426247119903564453125" lon="0.04108850844204425811767578125">
        <ele>2642</ele>
        <time>2021-08-23T13:36:11.000Z</time>
      </trkpt>
      <trkpt lat="42.6985582150518894195556640625" lon="0.04106604494154453277587890625">
        <ele>2640.800048828125</ele>
        <time>2021-08-23T13:36:15.000Z</time>
      </trkpt>
      <trkpt lat="42.69855863414704799652099609375" lon="0.041073672473430633544921875">
        <ele>2640.800048828125</ele>
        <time>2021-08-23T13:36:19.000Z</time>
      </trkpt>
      <trkpt lat="42.69856215454638004302978515625" lon="0.04109404049813747406005859375">
        <ele>2640.199951171875</ele>
        <time>2021-08-23T13:36:23.000Z</time>
      </trkpt>
      <trkpt lat="42.698566429316997528076171875" lon="0.04109974019229412078857421875">
        <ele>2639.800048828125</ele>
        <time>2021-08-23T13:36:24.000Z</time>
      </trkpt>
      <trkpt lat="42.6985823549330234527587890625" lon="0.0410901010036468505859375">
        <ele>2638.39990234375</ele>
        <time>2021-08-23T13:36:26.000Z</time>
      </trkpt>
      <trkpt lat="42.69862510263919830322265625" lon="0.041135363280773162841796875">
        <ele>2634</ele>
        <time>2021-08-23T13:36:36.000Z</time>
      </trkpt>
      <trkpt lat="42.6986373402178287506103515625" lon="0.04111030139029026031494140625">
        <ele>2633.199951171875</ele>
        <time>2021-08-23T13:36:40.000Z</time>
      </trkpt>
      <trkpt lat="42.69864295609295368194580078125" lon="0.0411006622016429901123046875">
        <ele>2632.800048828125</ele>
        <time>2021-08-23T13:36:42.000Z</time>
      </trkpt>
      <trkpt lat="42.698648907244205474853515625" lon="0.04108414985239505767822265625">
        <ele>2632.39990234375</ele>
        <time>2021-08-23T13:36:43.000Z</time>
      </trkpt>
      <trkpt lat="42.69864697940647602081298828125" lon="0.0410740077495574951171875">
        <ele>2632.800048828125</ele>
        <time>2021-08-23T13:36:44.000Z</time>
      </trkpt>
      <trkpt lat="42.69864127971231937408447265625" lon="0.04107425920665264129638671875">
        <ele>2633.199951171875</ele>
        <time>2021-08-23T13:36:47.000Z</time>
      </trkpt>
      <trkpt lat="42.6986470632255077362060546875" lon="0.04104995168745517730712890625">
        <ele>2633</ele>
        <time>2021-08-23T13:36:49.000Z</time>
      </trkpt>
      <trkpt lat="42.6987017132341861724853515625" lon="0.04093310795724391937255859375">
        <ele>2632.800048828125</ele>
        <time>2021-08-23T13:36:56.000Z</time>
      </trkpt>
      <trkpt lat="42.69870012067258358001708984375" lon="0.0409264862537384033203125">
        <ele>2633.60009765625</ele>
        <time>2021-08-23T13:36:57.000Z</time>
      </trkpt>
      <trkpt lat="42.69870062358677387237548828125" lon="0.04092087037861347198486328125">
        <ele>2634</ele>
        <time>2021-08-23T13:36:58.000Z</time>
      </trkpt>
      <trkpt lat="42.69870431162416934967041015625" lon="0.04091366194188594818115234375">
        <ele>2634.39990234375</ele>
        <time>2021-08-23T13:37:00.000Z</time>
      </trkpt>
      <trkpt lat="42.69870531745254993438720703125" lon="0.04090125672519207000732421875">
        <ele>2635.39990234375</ele>
        <time>2021-08-23T13:37:02.000Z</time>
      </trkpt>
      <trkpt lat="42.69870632328093051910400390625" lon="0.0408961437642574310302734375">
        <ele>2635.60009765625</ele>
        <time>2021-08-23T13:37:03.000Z</time>
      </trkpt>
      <trkpt lat="42.6987043954432010650634765625" lon="0.04089036025106906890869140625">
        <ele>2636.39990234375</ele>
        <time>2021-08-23T13:37:04.000Z</time>
      </trkpt>
      <trkpt lat="42.69870364107191562652587890625" lon="0.04088365472853183746337890625">
        <ele>2637</ele>
        <time>2021-08-23T13:37:05.000Z</time>
      </trkpt>
      <trkpt lat="42.698703221976757049560546875" lon="0.04088382236659526824951171875">
        <ele>2637.199951171875</ele>
        <time>2021-08-23T13:37:06.000Z</time>
      </trkpt>
      <trkpt lat="42.6986956782639026641845703125" lon="0.04088533110916614532470703125">
        <ele>2637.800048828125</ele>
        <time>2021-08-23T13:37:08.000Z</time>
      </trkpt>
      <trkpt lat="42.69868637435138225555419921875" lon="0.04089287482202053070068359375">
        <ele>2638</ele>
        <time>2021-08-23T13:37:11.000Z</time>
      </trkpt>
      <trkpt lat="42.69863725639879703521728515625" lon="0.04098993726074695587158203125">
        <ele>2634.60009765625</ele>
        <time>2021-08-23T13:37:22.000Z</time>
      </trkpt>
      <trkpt lat="42.69863893277943134307861328125" lon="0.0410198606550693511962890625">
        <ele>2634</ele>
        <time>2021-08-23T13:37:27.000Z</time>
      </trkpt>
      <trkpt lat="42.6986718736588954925537109375" lon="0.04103469662368297576904296875">
        <ele>2630.800048828125</ele>
        <time>2021-08-23T13:37:32.000Z</time>
      </trkpt>
      <trkpt lat="42.69866466522216796875" lon="0.0410667993128299713134765625">
        <ele>2631.199951171875</ele>
        <time>2021-08-23T13:37:36.000Z</time>
      </trkpt>
      <trkpt lat="42.69866592250764369964599609375" lon="0.0410959683358669281005859375">
        <ele>2630.800048828125</ele>
        <time>2021-08-23T13:37:40.000Z</time>
      </trkpt>
      <trkpt lat="42.6986514218151569366455078125" lon="0.04115941934287548065185546875">
        <ele>2631.39990234375</ele>
        <time>2021-08-23T13:37:46.000Z</time>
      </trkpt>
      <trkpt lat="42.6986418664455413818359375" lon="0.04121591337025165557861328125">
        <ele>2631.60009765625</ele>
        <time>2021-08-23T13:37:58.000Z</time>
      </trkpt>
      <trkpt lat="42.69862242043018341064453125" lon="0.0412481836974620819091796875">
        <ele>2633.39990234375</ele>
        <time>2021-08-23T13:38:04.000Z</time>
      </trkpt>
      <trkpt lat="42.6986400224268436431884765625" lon="0.04125036299228668212890625">
        <ele>2631.60009765625</ele>
        <time>2021-08-23T13:38:12.000Z</time>
      </trkpt>
      <trkpt lat="42.69872610457241535186767578125" lon="0.04116595722734928131103515625">
        <ele>2623.39990234375</ele>
        <time>2021-08-23T13:38:25.000Z</time>
      </trkpt>
      <trkpt lat="42.69877438433468341827392578125" lon="0.04105598665773868560791015625">
        <ele>2619.39990234375</ele>
        <time>2021-08-23T13:38:30.000Z</time>
      </trkpt>
      <trkpt lat="42.69881243817508220672607421875" lon="0.04106889478862285614013671875">
        <ele>2615.199951171875</ele>
        <time>2021-08-23T13:39:07.000Z</time>
      </trkpt>
      <trkpt lat="42.69900136627256870269775390625" lon="0.04109387286007404327392578125">
        <ele>2596.800048828125</ele>
        <time>2021-08-23T13:39:36.000Z</time>
      </trkpt>
      <trkpt lat="42.69900589250028133392333984375" lon="0.041091442108154296875">
        <ele>2596.60009765625</ele>
        <time>2021-08-23T13:39:37.000Z</time>
      </trkpt>
      <trkpt lat="42.69901058636605739593505859375" lon="0.04109504632651805877685546875">
        <ele>2596.199951171875</ele>
        <time>2021-08-23T13:39:39.000Z</time>
      </trkpt>
      <trkpt lat="42.6990225724875926971435546875" lon="0.0410755164921283721923828125">
        <ele>2595.800048828125</ele>
        <time>2021-08-23T13:39:42.000Z</time>
      </trkpt>
      <trkpt lat="42.6990393362939357757568359375" lon="0.0411107204854488372802734375">
        <ele>2593.800048828125</ele>
        <time>2021-08-23T13:40:03.000Z</time>
      </trkpt>
      <trkpt lat="42.699053920805454254150390625" lon="0.0411023385822772979736328125">
        <ele>2593</ele>
        <time>2021-08-23T13:40:09.000Z</time>
      </trkpt>
      <trkpt lat="42.69905970431864261627197265625" lon="0.04110409878194332122802734375">
        <ele>2592.60009765625</ele>
        <time>2021-08-23T13:40:17.000Z</time>
      </trkpt>
      <trkpt lat="42.69902634434401988983154296875" lon="0.04117199219763278961181640625">
        <ele>2593.60009765625</ele>
        <time>2021-08-23T13:40:28.000Z</time>
      </trkpt>
      <trkpt lat="42.699009664356708526611328125" lon="0.041303336620330810546875">
        <ele>2590.800048828125</ele>
        <time>2021-08-23T13:40:57.000Z</time>
      </trkpt>
      <trkpt lat="42.6990185491740703582763671875" lon="0.0413346849381923675537109375">
        <ele>2588.199951171875</ele>
        <time>2021-08-23T13:41:03.000Z</time>
      </trkpt>
      <trkpt lat="42.69902332685887813568115234375" lon="0.04132890142500400543212890625">
        <ele>2588.199951171875</ele>
        <time>2021-08-23T13:41:06.000Z</time>
      </trkpt>
      <trkpt lat="42.69902751781046390533447265625" lon="0.041319765150547027587890625">
        <ele>2588.39990234375</ele>
        <time>2021-08-23T13:41:07.000Z</time>
      </trkpt>
      <trkpt lat="42.69901997409760951995849609375" lon="0.04132370464503765106201171875">
        <ele>2588.800048828125</ele>
        <time>2021-08-23T13:41:09.000Z</time>
      </trkpt>
      <trkpt lat="42.69902047701179981231689453125" lon="0.04132504574954509735107421875">
        <ele>2588.60009765625</ele>
        <time>2021-08-23T13:41:10.000Z</time>
      </trkpt>
      <trkpt lat="42.699035145342350006103515625" lon="0.0413341820240020751953125">
        <ele>2587</ele>
        <time>2021-08-23T13:41:12.000Z</time>
      </trkpt>
      <trkpt lat="42.69906699657440185546875" lon="0.04131817258894443511962890625">
        <ele>2585.60009765625</ele>
        <time>2021-08-23T13:41:18.000Z</time>
      </trkpt>
      <trkpt lat="42.6990790665149688720703125" lon="0.04131280817091464996337890625">
        <ele>2585.199951171875</ele>
        <time>2021-08-23T13:41:21.000Z</time>
      </trkpt>
      <trkpt lat="42.6990852691233158111572265625" lon="0.04130442626774311065673828125">
        <ele>2585.199951171875</ele>
        <time>2021-08-23T13:41:22.000Z</time>
      </trkpt>
      <trkpt lat="42.69913882948458194732666015625" lon="0.04131230525672435760498046875">
        <ele>2580.800048828125</ele>
        <time>2021-08-23T13:41:32.000Z</time>
      </trkpt>
      <trkpt lat="42.699141092598438262939453125" lon="0.04133158363401889801025390625">
        <ele>2579.60009765625</ele>
        <time>2021-08-23T13:41:40.000Z</time>
      </trkpt>
      <trkpt lat="42.699153162539005279541015625" lon="0.04131901077926158905029296875">
        <ele>2579.39990234375</ele>
        <time>2021-08-23T13:41:44.000Z</time>
      </trkpt>
      <trkpt lat="42.69905149005353450775146484375" lon="0.04144356586039066314697265625">
        <ele>2581.60009765625</ele>
        <time>2021-08-23T13:42:04.000Z</time>
      </trkpt>
      <trkpt lat="42.69910848699510097503662109375" lon="0.04145178012549877166748046875">
        <ele>2575.39990234375</ele>
        <time>2021-08-23T13:42:13.000Z</time>
      </trkpt>
      <trkpt lat="42.69922994077205657958984375" lon="0.04142076708376407623291015625">
        <ele>2567.60009765625</ele>
        <time>2021-08-23T13:42:35.000Z</time>
      </trkpt>
      <trkpt lat="42.69926606677472591400146484375" lon="0.04140534438192844390869140625">
        <ele>2565.199951171875</ele>
        <time>2021-08-23T13:42:58.000Z</time>
      </trkpt>
      <trkpt lat="42.699262462556362152099609375" lon="0.0414919294416904449462890625">
        <ele>2560.199951171875</ele>
        <time>2021-08-23T13:43:03.000Z</time>
      </trkpt>
      <trkpt lat="42.6992589421570301055908203125" lon="0.04151321947574615478515625">
        <ele>2559.199951171875</ele>
        <time>2021-08-23T13:43:19.000Z</time>
      </trkpt>
      <trkpt lat="42.69926036708056926727294921875" lon="0.041514895856380462646484375">
        <ele>2559</ele>
        <time>2021-08-23T13:43:23.000Z</time>
      </trkpt>
      <trkpt lat="42.6993191242218017578125" lon="0.041532330214977264404296875">
        <ele>2552.60009765625</ele>
        <time>2021-08-23T13:43:44.000Z</time>
      </trkpt>
      <trkpt lat="42.6994041167199611663818359375" lon="0.0414664484560489654541015625">
        <ele>2549</ele>
        <time>2021-08-23T13:43:59.000Z</time>
      </trkpt>
      <trkpt lat="42.6994946412742137908935546875" lon="0.04149377346038818359375">
        <ele>2539.800048828125</ele>
        <time>2021-08-23T13:44:24.000Z</time>
      </trkpt>
      <trkpt lat="42.69952624104917049407958984375" lon="0.0415814481675624847412109375">
        <ele>2528.60009765625</ele>
        <time>2021-08-23T13:44:47.000Z</time>
      </trkpt>
      <trkpt lat="42.6995412446558475494384765625" lon="0.0415894947946071624755859375">
        <ele>2526</ele>
        <time>2021-08-23T13:44:59.000Z</time>
      </trkpt>
      <trkpt lat="42.69953847862780094146728515625" lon="0.0416843779385089874267578125">
        <ele>2516</ele>
        <time>2021-08-23T13:45:30.000Z</time>
      </trkpt>
      <trkpt lat="42.699523977935314178466796875" lon="0.0417480804026126861572265625">
        <ele>2510.800048828125</ele>
        <time>2021-08-23T13:45:52.000Z</time>
      </trkpt>
      <trkpt lat="42.69957954995334148406982421875" lon="0.0417450629174709320068359375">
        <ele>2504.800048828125</ele>
        <time>2021-08-23T13:46:05.000Z</time>
      </trkpt>
      <trkpt lat="42.69968901760876178741455078125" lon="0.0417633354663848876953125">
        <ele>2490.800048828125</ele>
        <time>2021-08-23T13:46:32.000Z</time>
      </trkpt>
      <trkpt lat="42.699712403118610382080078125" lon="0.04174657166004180908203125">
        <ele>2490</ele>
        <time>2021-08-23T13:46:34.000Z</time>
      </trkpt>
      <trkpt lat="42.69970812834799289703369140625" lon="0.041736848652362823486328125">
        <ele>2491.60009765625</ele>
        <time>2021-08-23T13:46:50.000Z</time>
      </trkpt>
      <trkpt lat="42.69970946945250034332275390625" lon="0.0417494215071201324462890625">
        <ele>2490</ele>
        <time>2021-08-23T13:46:53.000Z</time>
      </trkpt>
      <trkpt lat="42.6997112296521663665771484375" lon="0.041750259697437286376953125">
        <ele>2489.60009765625</ele>
        <time>2021-08-23T13:46:54.000Z</time>
      </trkpt>
      <trkpt lat="42.6997174322605133056640625" lon="0.0417472422122955322265625">
        <ele>2489.39990234375</ele>
        <time>2021-08-23T13:46:55.000Z</time>
      </trkpt>
      <trkpt lat="42.69972522743046283721923828125" lon="0.041738189756870269775390625">
        <ele>2489.800048828125</ele>
        <time>2021-08-23T13:46:56.000Z</time>
      </trkpt>
      <trkpt lat="42.69972975365817546844482421875" lon="0.041735172271728515625">
        <ele>2489.800048828125</ele>
        <time>2021-08-23T13:46:57.000Z</time>
      </trkpt>
      <trkpt lat="42.69973562099039554595947265625" lon="0.04172938875854015350341796875">
        <ele>2490</ele>
        <time>2021-08-23T13:46:58.000Z</time>
      </trkpt>
      <trkpt lat="42.699742577970027923583984375" lon="0.04172620363533496856689453125">
        <ele>2489.800048828125</ele>
        <time>2021-08-23T13:46:59.000Z</time>
      </trkpt>
      <trkpt lat="42.69975556991994380950927734375" lon="0.04171840846538543701171875">
        <ele>2489.60009765625</ele>
        <time>2021-08-23T13:47:00.000Z</time>
      </trkpt>
      <trkpt lat="42.69977183081209659576416015625" lon="0.041717402637004852294921875">
        <ele>2488.199951171875</ele>
        <time>2021-08-23T13:47:03.000Z</time>
      </trkpt>
      <trkpt lat="42.699766717851161956787109375" lon="0.041738189756870269775390625">
        <ele>2486</ele>
        <time>2021-08-23T13:47:07.000Z</time>
      </trkpt>
      <trkpt lat="42.69976998679339885711669921875" lon="0.0417350046336650848388671875">
        <ele>2486</ele>
        <time>2021-08-23T13:47:08.000Z</time>
      </trkpt>
      <trkpt lat="42.699779458343982696533203125" lon="0.04173542372882366180419921875">
        <ele>2485.39990234375</ele>
        <time>2021-08-23T13:47:12.000Z</time>
      </trkpt>
      <trkpt lat="42.699788175523281097412109375" lon="0.0417242757976055145263671875">
        <ele>2487.60009765625</ele>
        <time>2021-08-23T13:47:14.000Z</time>
      </trkpt>
      <trkpt lat="42.69979194737970829010009765625" lon="0.0417192466557025909423828125">
        <ele>2488.60009765625</ele>
        <time>2021-08-23T13:47:15.000Z</time>
      </trkpt>
      <trkpt lat="42.6997638680040836334228515625" lon="0.04182863049209117889404296875">
        <ele>2476.199951171875</ele>
        <time>2021-08-23T13:47:30.000Z</time>
      </trkpt>
      <trkpt lat="42.69976579584181308746337890625" lon="0.041828043758869171142578125">
        <ele>2476</ele>
        <time>2021-08-23T13:47:31.000Z</time>
      </trkpt>
      <trkpt lat="42.6997682265937328338623046875" lon="0.0418261997401714324951171875">
        <ele>2475.800048828125</ele>
        <time>2021-08-23T13:47:32.000Z</time>
      </trkpt>
      <trkpt lat="42.69978574477136135101318359375" lon="0.041823685169219970703125">
        <ele>2474.39990234375</ele>
        <time>2021-08-23T13:47:43.000Z</time>
      </trkpt>
      <trkpt lat="42.6997856609523296356201171875" lon="0.04182511009275913238525390625">
        <ele>2474</ele>
        <time>2021-08-23T13:47:46.000Z</time>
      </trkpt>
      <trkpt lat="42.69978247582912445068359375" lon="0.04182829521596431732177734375">
        <ele>2474.199951171875</ele>
        <time>2021-08-23T13:47:47.000Z</time>
      </trkpt>
      <trkpt lat="42.69976948387920856475830078125" lon="0.04184656776487827301025390625">
        <ele>2474.800048828125</ele>
        <time>2021-08-23T13:47:50.000Z</time>
      </trkpt>
      <trkpt lat="42.6997571624815464019775390625" lon="0.04186819307506084442138671875">
        <ele>2475.39990234375</ele>
        <time>2021-08-23T13:47:52.000Z</time>
      </trkpt>
      <trkpt lat="42.6997444219887256622314453125" lon="0.04194228909909725189208984375">
        <ele>2474.199951171875</ele>
        <time>2021-08-23T13:48:02.000Z</time>
      </trkpt>
      <trkpt lat="42.6997269876301288604736328125" lon="0.0419737212359905242919921875">
        <ele>2475</ele>
        <time>2021-08-23T13:48:03.000Z</time>
      </trkpt>
      <trkpt lat="42.699772752821445465087890625" lon="0.0419001281261444091796875">
        <ele>2472.60009765625</ele>
        <time>2021-08-23T13:48:08.000Z</time>
      </trkpt>
      <trkpt lat="42.69978172145783901214599609375" lon="0.04187942482531070709228515625">
        <ele>2472.39990234375</ele>
        <time>2021-08-23T13:48:11.000Z</time>
      </trkpt>
      <trkpt lat="42.69979077391326427459716796875" lon="0.04185880534350872039794921875">
        <ele>2472.39990234375</ele>
        <time>2021-08-23T13:48:12.000Z</time>
      </trkpt>
      <trkpt lat="42.69979991018772125244140625" lon="0.04184036515653133392333984375">
        <ele>2472.199951171875</ele>
        <time>2021-08-23T13:48:13.000Z</time>
      </trkpt>
      <trkpt lat="42.69980703480541706085205078125" lon="0.041828714311122894287109375">
        <ele>2475</ele>
        <time>2021-08-23T13:48:14.000Z</time>
      </trkpt>
      <trkpt lat="42.6998165063560009002685546875" lon="0.04183282144367694854736328125">
        <ele>2475</ele>
        <time>2021-08-23T13:48:18.000Z</time>
      </trkpt>
      <trkpt lat="42.6998126506805419921875" lon="0.041845142841339111328125">
        <ele>2472.199951171875</ele>
        <time>2021-08-23T13:48:19.000Z</time>
      </trkpt>
      <trkpt lat="42.6998113095760345458984375" lon="0.04185344092547893524169921875">
        <ele>2470.800048828125</ele>
        <time>2021-08-23T13:48:20.000Z</time>
      </trkpt>
      <trkpt lat="42.6997538097202777862548828125" lon="0.0419559516012668609619140625">
        <ele>2472.60009765625</ele>
        <time>2021-08-23T13:48:21.000Z</time>
      </trkpt>
      <trkpt lat="42.6997469365596771240234375" lon="0.04204119555652141571044921875">
        <ele>2470.39990234375</ele>
        <time>2021-08-23T13:48:28.000Z</time>
      </trkpt>
      <trkpt lat="42.70002244971692562103271484375" lon="0.04173978231847286224365234375">
        <ele>2502</ele>
        <time>2021-08-23T13:48:40.000Z</time>
      </trkpt>
      <trkpt lat="42.70009939558804035186767578125" lon="0.04171832464635372161865234375">
        <ele>2496.199951171875</ele>
        <time>2021-08-23T13:48:47.000Z</time>
      </trkpt>
      <trkpt lat="42.700126804411411285400390625" lon="0.04170642234385013580322265625">
        <ele>2492.39990234375</ele>
        <time>2021-08-23T13:48:51.000Z</time>
      </trkpt>
      <trkpt lat="42.70013242028653621673583984375" lon="0.04170374013483524322509765625">
        <ele>2491.60009765625</ele>
        <time>2021-08-23T13:48:54.000Z</time>
      </trkpt>
      <trkpt lat="42.7001313306391239166259765625" lon="0.04169703461229801177978515625">
        <ele>2492.199951171875</ele>
        <time>2021-08-23T13:48:57.000Z</time>
      </trkpt>
      <trkpt lat="42.70013309083878993988037109375" lon="0.04168110899627208709716796875">
        <ele>2492.800048828125</ele>
        <time>2021-08-23T13:49:00.000Z</time>
      </trkpt>
      <trkpt lat="42.70013376139104366302490234375" lon="0.04167876206338405609130859375">
        <ele>2492.800048828125</ele>
        <time>2021-08-23T13:49:01.000Z</time>
      </trkpt>
      <trkpt lat="42.70011884160339832305908203125" lon="0.04162159748375415802001953125">
        <ele>2498.60009765625</ele>
        <time>2021-08-23T13:49:14.000Z</time>
      </trkpt>
      <trkpt lat="42.70014348439872264862060546875" lon="0.04158555530011653900146484375">
        <ele>2498.199951171875</ele>
        <time>2021-08-23T13:49:27.000Z</time>
      </trkpt>
      <trkpt lat="42.70014801062643527984619140625" lon="0.04156686365604400634765625">
        <ele>2499.60009765625</ele>
        <time>2021-08-23T13:49:31.000Z</time>
      </trkpt>
      <trkpt lat="42.700162343680858612060546875" lon="0.0415737368166446685791015625">
        <ele>2497</ele>
        <time>2021-08-23T13:49:36.000Z</time>
      </trkpt>
      <trkpt lat="42.7002101205289363861083984375" lon="0.04154616035521030426025390625">
        <ele>2493.800048828125</ele>
        <time>2021-08-23T13:49:46.000Z</time>
      </trkpt>
      <trkpt lat="42.70035772584378719329833984375" lon="0.04139763303101062774658203125">
        <ele>2484.60009765625</ele>
        <time>2021-08-23T13:49:58.000Z</time>
      </trkpt>
      <trkpt lat="42.7003663592040538787841796875" lon="0.0414563901722431182861328125">
        <ele>2480</ele>
        <time>2021-08-23T13:50:13.000Z</time>
      </trkpt>
      <trkpt lat="42.70036451518535614013671875" lon="0.04149620421230792999267578125">
        <ele>2477.800048828125</ele>
        <time>2021-08-23T13:50:19.000Z</time>
      </trkpt>
      <trkpt lat="42.7003945223987102508544921875" lon="0.0414895825088024139404296875">
        <ele>2474.39990234375</ele>
        <time>2021-08-23T13:50:24.000Z</time>
      </trkpt>
      <trkpt lat="42.70041556097567081451416015625" lon="0.04149318672716617584228515625">
        <ele>2471.39990234375</ele>
        <time>2021-08-23T13:50:28.000Z</time>
      </trkpt>
      <trkpt lat="42.700482867658138275146484375" lon="0.0415673665702342987060546875">
        <ele>2459.199951171875</ele>
        <time>2021-08-23T13:50:52.000Z</time>
      </trkpt>
      <trkpt lat="42.7004984579980373382568359375" lon="0.04158538766205310821533203125">
        <ele>2456.60009765625</ele>
        <time>2021-08-23T13:51:01.000Z</time>
      </trkpt>
      <trkpt lat="42.70051245577633380889892578125" lon="0.0415683723986148834228515625">
        <ele>2455.39990234375</ele>
        <time>2021-08-23T13:51:08.000Z</time>
      </trkpt>
      <trkpt lat="42.7005423791706562042236328125" lon="0.0415516085922718048095703125">
        <ele>2452.199951171875</ele>
        <time>2021-08-23T13:51:14.000Z</time>
      </trkpt>
      <trkpt lat="42.70056207664310932159423828125" lon="0.041520260274410247802734375">
        <ele>2451.39990234375</ele>
        <time>2021-08-23T13:51:22.000Z</time>
      </trkpt>
      <trkpt lat="42.70057062618434429168701171875" lon="0.041510872542858123779296875">
        <ele>2450.800048828125</ele>
        <time>2021-08-23T13:51:23.000Z</time>
      </trkpt>
      <trkpt lat="42.70057565532624721527099609375" lon="0.04151053726673126220703125">
        <ele>2450.199951171875</ele>
        <time>2021-08-23T13:51:24.000Z</time>
      </trkpt>
      <trkpt lat="42.70057640969753265380859375" lon="0.041509531438350677490234375">
        <ele>2450.199951171875</ele>
        <time>2021-08-23T13:51:25.000Z</time>
      </trkpt>
      <trkpt lat="42.700589485466480255126953125" lon="0.0414959527552127838134765625">
        <ele>2449</ele>
        <time>2021-08-23T13:51:33.000Z</time>
      </trkpt>
      <trkpt lat="42.70068914629518985748291015625" lon="0.04147927276790142059326171875">
        <ele>2443.39990234375</ele>
        <time>2021-08-23T13:51:50.000Z</time>
      </trkpt>
      <trkpt lat="42.70071630366146564483642578125" lon="0.0414775125682353973388671875">
        <ele>2442.39990234375</ele>
        <time>2021-08-23T13:51:55.000Z</time>
      </trkpt>
      <trkpt lat="42.70074832253158092498779296875" lon="0.0414620898663997650146484375">
        <ele>2441.60009765625</ele>
        <time>2021-08-23T13:51:59.000Z</time>
      </trkpt>
      <trkpt lat="42.70078025758266448974609375" lon="0.0414677895605564117431640625">
        <ele>2440</ele>
        <time>2021-08-23T13:52:07.000Z</time>
      </trkpt>
      <trkpt lat="42.7008223347365856170654296875" lon="0.04144038073718547821044921875">
        <ele>2438.39990234375</ele>
        <time>2021-08-23T13:52:12.000Z</time>
      </trkpt>
      <trkpt lat="42.70087958313524723052978515625" lon="0.04142512567341327667236328125">
        <ele>2434</ele>
        <time>2021-08-23T13:52:29.000Z</time>
      </trkpt>
      <trkpt lat="42.7009029686450958251953125" lon="0.04140182398259639739990234375">
        <ele>2433.39990234375</ele>
        <time>2021-08-23T13:52:39.000Z</time>
      </trkpt>
      <trkpt lat="42.700960300862789154052734375" lon="0.04150844179093837738037109375">
        <ele>2431.60009765625</ele>
        <time>2021-08-23T13:52:55.000Z</time>
      </trkpt>
      <trkpt lat="42.70115266554057598114013671875" lon="0.041535682976245880126953125">
        <ele>2429.199951171875</ele>
        <time>2021-08-23T13:53:19.000Z</time>
      </trkpt>
      <trkpt lat="42.70121418870985507965087890625" lon="0.04147189669311046600341796875">
        <ele>2424.199951171875</ele>
        <time>2021-08-23T13:54:23.000Z</time>
      </trkpt>
      <trkpt lat="42.70119507797062397003173828125" lon="0.0414751656353473663330078125">
        <ele>2425.199951171875</ele>
        <time>2021-08-23T13:54:36.000Z</time>
      </trkpt>
      <trkpt lat="42.70119130611419677734375" lon="0.04147524945437908172607421875">
        <ele>2425.199951171875</ele>
        <time>2021-08-23T13:54:42.000Z</time>
      </trkpt>
      <trkpt lat="42.70118216983973979949951171875" lon="0.041480027139186859130859375">
        <ele>2425.800048828125</ele>
        <time>2021-08-23T13:54:50.000Z</time>
      </trkpt>
      <trkpt lat="42.70118870772421360015869140625" lon="0.0414765067398548126220703125">
        <ele>2425.39990234375</ele>
        <time>2021-08-23T13:54:56.000Z</time>
      </trkpt>
      <trkpt lat="42.70118870772421360015869140625" lon="0.04147206433117389678955078125">
        <ele>2425.199951171875</ele>
        <time>2021-08-23T13:55:05.000Z</time>
      </trkpt>
      <trkpt lat="42.7011881209909915924072265625" lon="0.0414711423218250274658203125">
        <ele>2425.199951171875</ele>
        <time>2021-08-23T13:55:07.000Z</time>
      </trkpt>
      <trkpt lat="42.70118820481002330780029296875" lon="0.04147072322666645050048828125">
        <ele>2425.199951171875</ele>
        <time>2021-08-23T13:55:08.000Z</time>
      </trkpt>
      <trkpt lat="42.701188288629055023193359375" lon="0.04146971739828586578369140625">
        <ele>2425.199951171875</ele>
        <time>2021-08-23T13:55:10.000Z</time>
      </trkpt>
      <trkpt lat="42.70118854008615016937255859375" lon="0.041469633579254150390625">
        <ele>2425.199951171875</ele>
        <time>2021-08-23T13:55:15.000Z</time>
      </trkpt>
      <trkpt lat="42.7011872828006744384765625" lon="0.04147055558860301971435546875">
        <ele>2425.199951171875</ele>
        <time>2021-08-23T13:55:40.000Z</time>
      </trkpt>
      <trkpt lat="42.70118837244808673858642578125" lon="0.04147030413150787353515625">
        <ele>2425.199951171875</ele>
        <time>2021-08-23T13:55:41.000Z</time>
      </trkpt>
      <trkpt lat="42.701198346912860870361328125" lon="0.04147709347307682037353515625">
        <ele>2425</ele>
        <time>2021-08-23T13:55:46.000Z</time>
      </trkpt>
      <trkpt lat="42.701199688017368316650390625" lon="0.04147742874920368194580078125">
        <ele>2425</ele>
        <time>2021-08-23T13:55:47.000Z</time>
      </trkpt>
      <trkpt lat="42.70121150650084018707275390625" lon="0.04148094914853572845458984375">
        <ele>2424.800048828125</ele>
        <time>2021-08-23T13:55:58.000Z</time>
      </trkpt>
      <trkpt lat="42.70121016539633274078369140625" lon="0.04148044623434543609619140625">
        <ele>2424.800048828125</ele>
        <time>2021-08-23T13:55:59.000Z</time>
      </trkpt>
      <trkpt lat="42.7012099139392375946044921875" lon="0.04147692583501338958740234375">
        <ele>2424.60009765625</ele>
        <time>2021-08-23T13:56:00.000Z</time>
      </trkpt>
      <trkpt lat="42.7012193016707897186279296875" lon="0.04150140099227428436279296875">
        <ele>2425.199951171875</ele>
        <time>2021-08-23T13:56:37.000Z</time>
      </trkpt>
      <trkpt lat="42.70124000497162342071533203125" lon="0.04154733382165431976318359375">
        <ele>2426.39990234375</ele>
        <time>2021-08-23T13:56:55.000Z</time>
      </trkpt>
      <trkpt lat="42.70125006325542926788330078125" lon="0.04155856557190418243408203125">
        <ele>2426.39990234375</ele>
        <time>2021-08-23T13:56:59.000Z</time>
      </trkpt>
      <trkpt lat="42.701256684958934783935546875" lon="0.041560828685760498046875">
        <ele>2426.199951171875</ele>
        <time>2021-08-23T13:57:00.000Z</time>
      </trkpt>
      <trkpt lat="42.70126280374825000762939453125" lon="0.0415594875812530517578125">
        <ele>2426</ele>
        <time>2021-08-23T13:57:01.000Z</time>
      </trkpt>
      <trkpt lat="42.701266743242740631103515625" lon="0.04155504517257213592529296875">
        <ele>2425.60009765625</ele>
        <time>2021-08-23T13:57:02.000Z</time>
      </trkpt>
      <trkpt lat="42.70127135328948497772216796875" lon="0.04154968075454235076904296875">
        <ele>2425.199951171875</ele>
        <time>2021-08-23T13:57:04.000Z</time>
      </trkpt>
      <trkpt lat="42.70128526724874973297119140625" lon="0.0415299832820892333984375">
        <ele>2424</ele>
        <time>2021-08-23T13:57:13.000Z</time>
      </trkpt>
      <trkpt lat="42.7012752927839756011962890625" lon="0.04150860942900180816650390625">
        <ele>2423.39990234375</ele>
        <time>2021-08-23T13:57:18.000Z</time>
      </trkpt>
      <trkpt lat="42.7012930624186992645263671875" lon="0.0414966233074665069580078125">
        <ele>2422.199951171875</ele>
        <time>2021-08-23T13:57:22.000Z</time>
      </trkpt>
      <trkpt lat="42.70129599608480930328369140625" lon="0.0414922647178173065185546875">
        <ele>2421.800048828125</ele>
        <time>2021-08-23T13:57:24.000Z</time>
      </trkpt>
      <trkpt lat="42.70129281096160411834716796875" lon="0.041488744318485260009765625">
        <ele>2421.800048828125</ele>
        <time>2021-08-23T13:57:27.000Z</time>
      </trkpt>
      <trkpt lat="42.7012932300567626953125" lon="0.041484050452709197998046875">
        <ele>2421.60009765625</ele>
        <time>2021-08-23T13:57:29.000Z</time>
      </trkpt>
      <trkpt lat="42.70129264332354068756103515625" lon="0.04147776402533054351806640625">
        <ele>2421.39990234375</ele>
        <time>2021-08-23T13:57:31.000Z</time>
      </trkpt>
      <trkpt lat="42.70126883871853351593017578125" lon="0.0414111278951168060302734375">
        <ele>2419.39990234375</ele>
        <time>2021-08-23T13:57:44.000Z</time>
      </trkpt>
      <trkpt lat="42.70126464776694774627685546875" lon="0.04133493639528751373291015625">
        <ele>2416.60009765625</ele>
        <time>2021-08-23T13:58:09.000Z</time>
      </trkpt>
      <trkpt lat="42.7012581937015056610107421875" lon="0.04130073823034763336181640625">
        <ele>2415.60009765625</ele>
        <time>2021-08-23T13:58:14.000Z</time>
      </trkpt>
      <trkpt lat="42.7012588642537593841552734375" lon="0.04129671491682529449462890625">
        <ele>2415.39990234375</ele>
        <time>2021-08-23T13:58:15.000Z</time>
      </trkpt>
      <trkpt lat="42.70126163028180599212646484375" lon="0.0412910990417003631591796875">
        <ele>2415.199951171875</ele>
        <time>2021-08-23T13:58:16.000Z</time>
      </trkpt>
      <trkpt lat="42.701365314424037933349609375" lon="0.0412994809448719024658203125">
        <ele>2412.60009765625</ele>
        <time>2021-08-23T13:58:45.000Z</time>
      </trkpt>
      <trkpt lat="42.7014479599893093109130859375" lon="0.04121147096157073974609375">
        <ele>2409.60009765625</ele>
        <time>2021-08-23T13:59:25.000Z</time>
      </trkpt>
      <trkpt lat="42.70156824029982089996337890625" lon="0.041073672473430633544921875">
        <ele>2409.39990234375</ele>
        <time>2021-08-23T14:00:11.000Z</time>
      </trkpt>
      <trkpt lat="42.7016809768974781036376953125" lon="0.041009970009326934814453125">
        <ele>2407</ele>
        <time>2021-08-23T14:00:58.000Z</time>
      </trkpt>
      <trkpt lat="42.7017067931592464447021484375" lon="0.04099982790648937225341796875">
        <ele>2406.39990234375</ele>
        <time>2021-08-23T14:01:12.000Z</time>
      </trkpt>
      <trkpt lat="42.70184182561933994293212890625" lon="0.04087527282536029815673828125">
        <ele>2404.199951171875</ele>
        <time>2021-08-23T14:02:18.000Z</time>
      </trkpt>
      <trkpt lat="42.7018841542303562164306640625" lon="0.0407529808580875396728515625">
        <ele>2403.199951171875</ele>
        <time>2021-08-23T14:02:34.000Z</time>
      </trkpt>
      <trkpt lat="42.7019076235592365264892578125" lon="0.04071383737027645111083984375">
        <ele>2402.39990234375</ele>
        <time>2021-08-23T14:02:38.000Z</time>
      </trkpt>
      <trkpt lat="42.7020165883004665374755859375" lon="0.0405823253095149993896484375">
        <ele>2400.60009765625</ele>
        <time>2021-08-23T14:03:03.000Z</time>
      </trkpt>
      <trkpt lat="42.7022090367972850799560546875" lon="0.04051811993122100830078125">
        <ele>2393.800048828125</ele>
        <time>2021-08-23T14:04:01.000Z</time>
      </trkpt>
      <trkpt lat="42.7022092044353485107421875" lon="0.04051485098898410797119140625">
        <ele>2393.800048828125</ele>
        <time>2021-08-23T14:04:02.000Z</time>
      </trkpt>
      <trkpt lat="42.70220878534018993377685546875" lon="0.0405105762183666229248046875">
        <ele>2393.800048828125</ele>
        <time>2021-08-23T14:04:04.000Z</time>
      </trkpt>
      <trkpt lat="42.70221230573952198028564453125" lon="0.04050227813422679901123046875">
        <ele>2393.800048828125</ele>
        <time>2021-08-23T14:04:06.000Z</time>
      </trkpt>
      <trkpt lat="42.70221180282533168792724609375" lon="0.04050202667713165283203125">
        <ele>2393.800048828125</ele>
        <time>2021-08-23T14:04:08.000Z</time>
      </trkpt>
      <trkpt lat="42.70226980559527873992919921875" lon="0.04051904194056987762451171875">
        <ele>2391.39990234375</ele>
        <time>2021-08-23T14:04:23.000Z</time>
      </trkpt>
      <trkpt lat="42.70229981280863285064697265625" lon="0.0405179522931575775146484375">
        <ele>2389.199951171875</ele>
        <time>2021-08-23T14:04:31.000Z</time>
      </trkpt>
      <trkpt lat="42.70232026465237140655517578125" lon="0.040478892624378204345703125">
        <ele>2387.800048828125</ele>
        <time>2021-08-23T14:04:43.000Z</time>
      </trkpt>
      <trkpt lat="42.7023230306804180145263671875" lon="0.04048450849950313568115234375">
        <ele>2387.60009765625</ele>
        <time>2021-08-23T14:04:44.000Z</time>
      </trkpt>
      <trkpt lat="42.7025845460593700408935546875" lon="0.0406202115118503570556640625">
        <ele>2365.39990234375</ele>
        <time>2021-08-23T14:06:42.000Z</time>
      </trkpt>
      <trkpt lat="42.70258395932614803314208984375" lon="0.0406215526163578033447265625">
        <ele>2365.39990234375</ele>
        <time>2021-08-23T14:06:43.000Z</time>
      </trkpt>
      <trkpt lat="42.70259183831512928009033203125" lon="0.04063420929014682769775390625">
        <ele>2364.800048828125</ele>
        <time>2021-08-23T14:06:46.000Z</time>
      </trkpt>
      <trkpt lat="42.702605836093425750732421875" lon="0.0406421720981597900390625">
        <ele>2364.199951171875</ele>
        <time>2021-08-23T14:06:49.000Z</time>
      </trkpt>
      <trkpt lat="42.70262469537556171417236328125" lon="0.040658600628376007080078125">
        <ele>2363.199951171875</ele>
        <time>2021-08-23T14:06:53.000Z</time>
      </trkpt>
      <trkpt lat="42.7026249468326568603515625" lon="0.04066857509315013885498046875">
        <ele>2363</ele>
        <time>2021-08-23T14:06:54.000Z</time>
      </trkpt>
      <trkpt lat="42.70262201316654682159423828125" lon="0.04067813046276569366455078125">
        <ele>2362.800048828125</ele>
        <time>2021-08-23T14:06:55.000Z</time>
      </trkpt>
      <trkpt lat="42.702623270452022552490234375" lon="0.04068567417562007904052734375">
        <ele>2362.800048828125</ele>
        <time>2021-08-23T14:06:56.000Z</time>
      </trkpt>
      <trkpt lat="42.70262888632714748382568359375" lon="0.040691457688808441162109375">
        <ele>2362.39990234375</ele>
        <time>2021-08-23T14:06:57.000Z</time>
      </trkpt>
      <trkpt lat="42.70264430902898311614990234375" lon="0.04069925285875797271728515625">
        <ele>2361.60009765625</ele>
        <time>2021-08-23T14:06:59.000Z</time>
      </trkpt>
      <trkpt lat="42.7026502601802349090576171875" lon="0.040712244808673858642578125">
        <ele>2361</ele>
        <time>2021-08-23T14:07:02.000Z</time>
      </trkpt>
      <trkpt lat="42.7026505954563617706298828125" lon="0.04071517847478389739990234375">
        <ele>2361</ele>
        <time>2021-08-23T14:07:03.000Z</time>
      </trkpt>
      <trkpt lat="42.70265151746571063995361328125" lon="0.04071660339832305908203125">
        <ele>2360.800048828125</ele>
        <time>2021-08-23T14:07:04.000Z</time>
      </trkpt>
      <trkpt lat="42.70265118218958377838134765625" lon="0.040718279778957366943359375">
        <ele>2360.800048828125</ele>
        <time>2021-08-23T14:07:05.000Z</time>
      </trkpt>
      <trkpt lat="42.70265101455152034759521484375" lon="0.0407174415886402130126953125">
        <ele>2360.800048828125</ele>
        <time>2021-08-23T14:07:06.000Z</time>
      </trkpt>
      <trkpt lat="42.70264950580894947052001953125" lon="0.04071517847478389739990234375">
        <ele>2361</ele>
        <time>2021-08-23T14:07:08.000Z</time>
      </trkpt>
      <trkpt lat="42.70265403203666210174560546875" lon="0.0407159328460693359375">
        <ele>2360.800048828125</ele>
        <time>2021-08-23T14:07:10.000Z</time>
      </trkpt>
      <trkpt lat="42.70267699845135211944580078125" lon="0.04072255454957485198974609375">
        <ele>2359.60009765625</ele>
        <time>2021-08-23T14:07:16.000Z</time>
      </trkpt>
      <trkpt lat="42.70267616026103496551513671875" lon="0.0407207943499088287353515625">
        <ele>2359.800048828125</ele>
        <time>2021-08-23T14:07:17.000Z</time>
      </trkpt>
      <trkpt lat="42.7026831172406673431396484375" lon="0.040728338062763214111328125">
        <ele>2359.199951171875</ele>
        <time>2021-08-23T14:07:21.000Z</time>
      </trkpt>
      <trkpt lat="42.70274891518056392669677734375" lon="0.04074183292686939239501953125">
        <ele>2356.199951171875</ele>
        <time>2021-08-23T14:07:30.000Z</time>
      </trkpt>
      <trkpt lat="42.70277875475585460662841796875" lon="0.04070109687745571136474609375">
        <ele>2356.199951171875</ele>
        <time>2021-08-23T14:07:35.000Z</time>
      </trkpt>
      <trkpt lat="42.70278411917388439178466796875" lon="0.040694139897823333740234375">
        <ele>2356.199951171875</ele>
        <time>2021-08-23T14:07:36.000Z</time>
      </trkpt>
      <trkpt lat="42.7027907408773899078369140625" lon="0.04068567417562007904052734375">
        <ele>2356</ele>
        <time>2021-08-23T14:07:37.000Z</time>
      </trkpt>
      <trkpt lat="42.70279669202864170074462890625" lon="0.04068173468112945556640625">
        <ele>2356</ele>
        <time>2021-08-23T14:07:38.000Z</time>
      </trkpt>
      <trkpt lat="42.70279618911445140838623046875" lon="0.04068181850016117095947265625">
        <ele>2356</ele>
        <time>2021-08-23T14:07:40.000Z</time>
      </trkpt>
      <trkpt lat="42.702800296247005462646484375" lon="0.040672011673450469970703125">
        <ele>2356</ele>
        <time>2021-08-23T14:07:42.000Z</time>
      </trkpt>
      <trkpt lat="42.7028031460940837860107421875" lon="0.0406678207218647003173828125">
        <ele>2356</ele>
        <time>2021-08-23T14:07:43.000Z</time>
      </trkpt>
      <trkpt lat="42.70280423574149608612060546875" lon="0.04066698253154754638671875">
        <ele>2356</ele>
        <time>2021-08-23T14:07:44.000Z</time>
      </trkpt>
      <trkpt lat="42.70280322991311550140380859375" lon="0.0406664796173572540283203125">
        <ele>2356</ele>
        <time>2021-08-23T14:07:45.000Z</time>
      </trkpt>
      <trkpt lat="42.7028044871985912322998046875" lon="0.04066170193254947662353515625">
        <ele>2356</ele>
        <time>2021-08-23T14:07:50.000Z</time>
      </trkpt>
      <trkpt lat="42.7028571255505084991455078125" lon="0.04064661450684070587158203125">
        <ele>2354.39990234375</ele>
        <time>2021-08-23T14:08:02.000Z</time>
      </trkpt>
      <trkpt lat="42.70287447609007358551025390625" lon="0.04064242355525493621826171875">
        <ele>2353.800048828125</ele>
        <time>2021-08-23T14:08:13.000Z</time>
      </trkpt>
      <trkpt lat="42.7028960175812244415283203125" lon="0.04068047739565372467041015625">
        <ele>2352</ele>
        <time>2021-08-23T14:08:25.000Z</time>
      </trkpt>
      <trkpt lat="42.7030163817107677459716796875" lon="0.040708221495151519775390625">
        <ele>2346.60009765625</ele>
        <time>2021-08-23T14:08:44.000Z</time>
      </trkpt>
      <trkpt lat="42.7030378393828868865966796875" lon="0.0407333672046661376953125">
        <ele>2345</ele>
        <time>2021-08-23T14:08:52.000Z</time>
      </trkpt>
      <trkpt lat="42.70308234728872776031494140625" lon="0.040779300034046173095703125">
        <ele>2341.60009765625</ele>
        <time>2021-08-23T14:09:01.000Z</time>
      </trkpt>
      <trkpt lat="42.70311101339757442474365234375" lon="0.04079396836459636688232421875">
        <ele>2339.800048828125</ele>
        <time>2021-08-23T14:09:06.000Z</time>
      </trkpt>
      <trkpt lat="42.70312660373747348785400390625" lon="0.04080268554389476776123046875">
        <ele>2339</ele>
        <time>2021-08-23T14:09:08.000Z</time>
      </trkpt>
      <trkpt lat="42.7031679265201091766357421875" lon="0.04078960977494716644287109375">
        <ele>2337.800048828125</ele>
        <time>2021-08-23T14:09:13.000Z</time>
      </trkpt>
      <trkpt lat="42.70322869531810283660888671875" lon="0.04076764918863773345947265625">
        <ele>2336.800048828125</ele>
        <time>2021-08-23T14:09:19.000Z</time>
      </trkpt>
      <trkpt lat="42.70326071418821811676025390625" lon="0.04072389565408229827880859375">
        <ele>2337.800048828125</ele>
        <time>2021-08-23T14:09:24.000Z</time>
      </trkpt>
      <trkpt lat="42.703319974243640899658203125" lon="0.0406815670430660247802734375">
        <ele>2338</ele>
        <time>2021-08-23T14:09:33.000Z</time>
      </trkpt>
      <trkpt lat="42.70334537141025066375732421875" lon="0.040680728852748870849609375">
        <ele>2337.199951171875</ele>
        <time>2021-08-23T14:09:39.000Z</time>
      </trkpt>
      <trkpt lat="42.7033392526209354400634765625" lon="0.04070411436259746551513671875">
        <ele>2336.60009765625</ele>
        <time>2021-08-23T14:09:44.000Z</time>
      </trkpt>
      <trkpt lat="42.70335777662694454193115234375" lon="0.04071366973221302032470703125">
        <ele>2335.60009765625</ele>
        <time>2021-08-23T14:09:52.000Z</time>
      </trkpt>
      <trkpt lat="42.7033804915845394134521484375" lon="0.040710903704166412353515625">
        <ele>2335</ele>
        <time>2021-08-23T14:09:55.000Z</time>
      </trkpt>
      <trkpt lat="42.70339666865766048431396484375" lon="0.04070478491485118865966796875">
        <ele>2334.60009765625</ele>
        <time>2021-08-23T14:09:57.000Z</time>
      </trkpt>
      <trkpt lat="42.70340069197118282318115234375" lon="0.04070528782904148101806640625">
        <ele>2334.39990234375</ele>
        <time>2021-08-23T14:09:58.000Z</time>
      </trkpt>
      <trkpt lat="42.70341745577752590179443359375" lon="0.0407073833048343658447265625">
        <ele>2333.39990234375</ele>
        <time>2021-08-23T14:10:02.000Z</time>
      </trkpt>
      <trkpt lat="42.70341846160590648651123046875" lon="0.04070713184773921966552734375">
        <ele>2333.39990234375</ele>
        <time>2021-08-23T14:10:03.000Z</time>
      </trkpt>
      <trkpt lat="42.703420557081699371337890625" lon="0.04070721566677093505859375">
        <ele>2333.199951171875</ele>
        <time>2021-08-23T14:10:04.000Z</time>
      </trkpt>
      <trkpt lat="42.7034217305481433868408203125" lon="0.040707550942897796630859375">
        <ele>2333.199951171875</ele>
        <time>2021-08-23T14:10:05.000Z</time>
      </trkpt>
      <trkpt lat="42.70344126038253307342529296875" lon="0.04069338552653789520263671875">
        <ele>2332.800048828125</ele>
        <time>2021-08-23T14:10:37.000Z</time>
      </trkpt>
      <trkpt lat="42.7034441940486431121826171875" lon="0.04069112241268157958984375">
        <ele>2332.60009765625</ele>
        <time>2021-08-23T14:10:51.000Z</time>
      </trkpt>
      <trkpt lat="42.70346472971141338348388671875" lon="0.0406644679605960845947265625">
        <ele>2332.800048828125</ele>
        <time>2021-08-23T14:11:13.000Z</time>
      </trkpt>
      <trkpt lat="42.70349800586700439453125" lon="0.04067528061568737030029296875">
        <ele>2330.39990234375</ele>
        <time>2021-08-23T14:11:17.000Z</time>
      </trkpt>
      <trkpt lat="42.70358794368803501129150390625" lon="0.04090276546776294708251953125">
        <ele>2316.60009765625</ele>
        <time>2021-08-23T14:12:11.000Z</time>
      </trkpt>
      <trkpt lat="42.70369003526866436004638671875" lon="0.04092388786375522613525390625">
        <ele>2310.60009765625</ele>
        <time>2021-08-23T14:12:54.000Z</time>
      </trkpt>
      <trkpt lat="42.7036943100392818450927734375" lon="0.04094752483069896697998046875">
        <ele>2309.60009765625</ele>
        <time>2021-08-23T14:13:04.000Z</time>
      </trkpt>
      <trkpt lat="42.703708223998546600341796875" lon="0.040955655276775360107421875">
        <ele>2308.800048828125</ele>
        <time>2021-08-23T14:13:09.000Z</time>
      </trkpt>
      <trkpt lat="42.703717611730098724365234375" lon="0.0409732572734355926513671875">
        <ele>2307.800048828125</ele>
        <time>2021-08-23T14:13:13.000Z</time>
      </trkpt>
      <trkpt lat="42.70381492562592029571533203125" lon="0.04094953648746013641357421875">
        <ele>2305.60009765625</ele>
        <time>2021-08-23T14:13:42.000Z</time>
      </trkpt>
      <trkpt lat="42.70383185707032680511474609375" lon="0.040936879813671112060546875">
        <ele>2305.60009765625</ele>
        <time>2021-08-23T14:13:48.000Z</time>
      </trkpt>
      <trkpt lat="42.7041425742208957672119140625" lon="0.04071702249348163604736328125">
        <ele>2298.39990234375</ele>
        <time>2021-08-23T14:14:56.000Z</time>
      </trkpt>
      <trkpt lat="42.7041469328105449676513671875" lon="0.04070989787578582763671875">
        <ele>2298.199951171875</ele>
        <time>2021-08-23T14:14:57.000Z</time>
      </trkpt>
      <trkpt lat="42.70415036939084529876708984375" lon="0.04070193506777286529541015625">
        <ele>2298.199951171875</ele>
        <time>2021-08-23T14:14:58.000Z</time>
      </trkpt>
      <trkpt lat="42.7042267285287380218505859375" lon="0.0405759550631046295166015625">
        <ele>2296.800048828125</ele>
        <time>2021-08-23T14:15:22.000Z</time>
      </trkpt>
      <trkpt lat="42.7042543888092041015625" lon="0.04057846963405609130859375">
        <ele>2295.60009765625</ele>
        <time>2021-08-23T14:15:35.000Z</time>
      </trkpt>
      <trkpt lat="42.7042884193360805511474609375" lon="0.04057033918797969818115234375">
        <ele>2294.39990234375</ele>
        <time>2021-08-23T14:15:43.000Z</time>
      </trkpt>
      <trkpt lat="42.70436008460819721221923828125" lon="0.0405176170170307159423828125">
        <ele>2291.39990234375</ele>
        <time>2021-08-23T14:15:57.000Z</time>
      </trkpt>
      <trkpt lat="42.7044624276459217071533203125" lon="0.040417872369289398193359375">
        <ele>2285.199951171875</ele>
        <time>2021-08-23T14:16:18.000Z</time>
      </trkpt>
      <trkpt lat="42.70458824001252651214599609375" lon="0.0402666628360748291015625">
        <ele>2279</ele>
        <time>2021-08-23T14:16:49.000Z</time>
      </trkpt>
      <trkpt lat="42.70459125749766826629638671875" lon="0.0402601249516010284423828125">
        <ele>2278.800048828125</ele>
        <time>2021-08-23T14:16:50.000Z</time>
      </trkpt>
      <trkpt lat="42.7045975439250469207763671875" lon="0.04025568254292011260986328125">
        <ele>2278.39990234375</ele>
        <time>2021-08-23T14:16:51.000Z</time>
      </trkpt>
      <trkpt lat="42.70460248924791812896728515625" lon="0.04025719128549098968505859375">
        <ele>2278.199951171875</ele>
        <time>2021-08-23T14:16:52.000Z</time>
      </trkpt>
      <trkpt lat="42.70461045205593109130859375" lon="0.04025937058031558990478515625">
        <ele>2277.800048828125</ele>
        <time>2021-08-23T14:16:54.000Z</time>
      </trkpt>
      <trkpt lat="42.70462495274841785430908203125" lon="0.0402450375258922576904296875">
        <ele>2277.199951171875</ele>
        <time>2021-08-23T14:16:58.000Z</time>
      </trkpt>
      <trkpt lat="42.70474255084991455078125" lon="0.0403050519526004791259765625">
        <ele>2271.800048828125</ele>
        <time>2021-08-23T14:17:17.000Z</time>
      </trkpt>
      <trkpt lat="42.70484455861151218414306640625" lon="0.0402867794036865234375">
        <ele>2268.60009765625</ele>
        <time>2021-08-23T14:17:32.000Z</time>
      </trkpt>
      <trkpt lat="42.7048630826175212860107421875" lon="0.040279068052768707275390625">
        <ele>2268.199951171875</ele>
        <time>2021-08-23T14:17:34.000Z</time>
      </trkpt>
      <trkpt lat="42.7049542777240276336669921875" lon="0.04021125845611095428466796875">
        <ele>2265.39990234375</ele>
        <time>2021-08-23T14:17:43.000Z</time>
      </trkpt>
      <trkpt lat="42.7050642482936382293701171875" lon="0.04020153544843196868896484375">
        <ele>2262.199951171875</ele>
        <time>2021-08-23T14:17:53.000Z</time>
      </trkpt>
      <trkpt lat="42.7051081694662570953369140625" lon="0.0401996076107025146484375">
        <ele>2261</ele>
        <time>2021-08-23T14:17:59.000Z</time>
      </trkpt>
      <trkpt lat="42.70511663518846035003662109375" lon="0.04020120017230510711669921875">
        <ele>2260.800048828125</ele>
        <time>2021-08-23T14:18:00.000Z</time>
      </trkpt>
      <trkpt lat="42.70513306371867656707763671875" lon="0.0402041338384151458740234375">
        <ele>2260.199951171875</ele>
        <time>2021-08-23T14:18:02.000Z</time>
      </trkpt>
      <trkpt lat="42.7051433734595775604248046875" lon="0.04020723514258861541748046875">
        <ele>2260</ele>
        <time>2021-08-23T14:18:03.000Z</time>
      </trkpt>
      <trkpt lat="42.7053995244204998016357421875" lon="0.03993700258433818817138671875">
        <ele>2247.60009765625</ele>
        <time>2021-08-23T14:18:43.000Z</time>
      </trkpt>
      <trkpt lat="42.70539390854537487030029296875" lon="0.03989928402006626129150390625">
        <ele>2247.800048828125</ele>
        <time>2021-08-23T14:18:46.000Z</time>
      </trkpt>
      <trkpt lat="42.70555584691464900970458984375" lon="0.03947281278669834136962890625">
        <ele>2241.60009765625</ele>
        <time>2021-08-23T14:19:25.000Z</time>
      </trkpt>
      <trkpt lat="42.70563329569995403289794921875" lon="0.03940441645681858062744140625">
        <ele>2239.60009765625</ele>
        <time>2021-08-23T14:19:35.000Z</time>
      </trkpt>
      <trkpt lat="42.70565450191497802734375" lon="0.03936099819839000701904296875">
        <ele>2239.199951171875</ele>
        <time>2021-08-23T14:19:38.000Z</time>
      </trkpt>
      <trkpt lat="42.7059192024171352386474609375" lon="0.039233677089214324951171875">
        <ele>2239.199951171875</ele>
        <time>2021-08-23T14:20:15.000Z</time>
      </trkpt>
      <trkpt lat="42.70593814551830291748046875" lon="0.03922001458704471588134765625">
        <ele>2239.60009765625</ele>
        <time>2021-08-23T14:20:37.000Z</time>
      </trkpt>
      <trkpt lat="42.70595147274434566497802734375" lon="0.03922202624380588531494140625">
        <ele>2239.60009765625</ele>
        <time>2021-08-23T14:20:38.000Z</time>
      </trkpt>
      <trkpt lat="42.70601467229425907135009765625" lon="0.03922152332961559295654296875">
        <ele>2239.800048828125</ele>
        <time>2021-08-23T14:20:44.000Z</time>
      </trkpt>
      <trkpt lat="42.7061693184077739715576171875" lon="0.0393025763332843780517578125">
        <ele>2239.199951171875</ele>
        <time>2021-08-23T14:21:03.000Z</time>
      </trkpt>
      <trkpt lat="42.7062665484845638275146484375" lon="0.03934339620172977447509765625">
        <ele>2238.60009765625</ele>
        <time>2021-08-23T14:21:24.000Z</time>
      </trkpt>
      <trkpt lat="42.70644131116569042205810546875" lon="0.03938647918403148651123046875">
        <ele>2238</ele>
        <time>2021-08-23T14:21:40.000Z</time>
      </trkpt>
      <trkpt lat="42.70646478049457073211669921875" lon="0.03939653746783733367919921875">
        <ele>2237.199951171875</ele>
        <time>2021-08-23T14:21:42.000Z</time>
      </trkpt>
      <trkpt lat="42.70655228756368160247802734375" lon="0.03938983194530010223388671875">
        <ele>2234.39990234375</ele>
        <time>2021-08-23T14:22:00.000Z</time>
      </trkpt>
      <trkpt lat="42.70655564032495021820068359375" lon="0.03939427435398101806640625">
        <ele>2234.199951171875</ele>
        <time>2021-08-23T14:22:20.000Z</time>
      </trkpt>
      <trkpt lat="42.70654507912695407867431640625" lon="0.03939452581107616424560546875">
        <ele>2234.60009765625</ele>
        <time>2021-08-23T14:22:32.000Z</time>
      </trkpt>
      <trkpt lat="42.7065428160130977630615234375" lon="0.03941145725548267364501953125">
        <ele>2234.199951171875</ele>
        <time>2021-08-23T14:24:14.000Z</time>
      </trkpt>
      <trkpt lat="42.706541977822780609130859375" lon="0.03940994851291179656982421875">
        <ele>2234.199951171875</ele>
        <time>2021-08-23T14:24:25.000Z</time>
      </trkpt>
      <trkpt lat="42.70654004998505115509033203125" lon="0.03940911032259464263916015625">
        <ele>2234.39990234375</ele>
        <time>2021-08-23T14:24:26.000Z</time>
      </trkpt>
      <trkpt lat="42.7065867371857166290283203125" lon="0.03945269621908664703369140625">
        <ele>2232</ele>
        <time>2021-08-23T14:25:04.000Z</time>
      </trkpt>
      <trkpt lat="42.70657709799706935882568359375" lon="0.0394432246685028076171875">
        <ele>2232.60009765625</ele>
        <time>2021-08-23T14:25:15.000Z</time>
      </trkpt>
      <trkpt lat="42.7065770141780376434326171875" lon="0.03944297321140766143798828125">
        <ele>2232.60009765625</ele>
        <time>2021-08-23T14:25:16.000Z</time>
      </trkpt>
      <trkpt lat="42.70657693035900592803955078125" lon="0.0394427217543125152587890625">
        <ele>2232.60009765625</ele>
        <time>2021-08-23T14:25:17.000Z</time>
      </trkpt>
      <trkpt lat="42.70657693035900592803955078125" lon="0.03944213502109050750732421875">
        <ele>2232.60009765625</ele>
        <time>2021-08-23T14:25:18.000Z</time>
      </trkpt>
      <trkpt lat="42.7065770141780376434326171875" lon="0.039441883563995361328125">
        <ele>2232.60009765625</ele>
        <time>2021-08-23T14:25:19.000Z</time>
      </trkpt>
      <trkpt lat="42.70657642744481563568115234375" lon="0.03943610005080699920654296875">
        <ele>2232.800048828125</ele>
        <time>2021-08-23T14:25:25.000Z</time>
      </trkpt>
      <trkpt lat="42.70657709799706935882568359375" lon="0.03943291492760181427001953125">
        <ele>2232.800048828125</ele>
        <time>2021-08-23T14:25:27.000Z</time>
      </trkpt>
      <trkpt lat="42.70656771026551723480224609375" lon="0.03943392075598239898681640625">
        <ele>2233</ele>
        <time>2021-08-23T14:26:07.000Z</time>
      </trkpt>
      <trkpt lat="42.7065612562000751495361328125" lon="0.03944280557334423065185546875">
        <ele>2233</ele>
        <time>2021-08-23T14:26:21.000Z</time>
      </trkpt>
      <trkpt lat="42.7065589092671871185302734375" lon="0.039440207183361053466796875">
        <ele>2233.199951171875</ele>
        <time>2021-08-23T14:26:26.000Z</time>
      </trkpt>
      <trkpt lat="42.70654843188822269439697265625" lon="0.03945739008486270904541015625">
        <ele>2233.199951171875</ele>
        <time>2021-08-23T14:26:58.000Z</time>
      </trkpt>
      <trkpt lat="42.70654943771660327911376953125" lon="0.03944766707718372344970703125">
        <ele>2233.39990234375</ele>
        <time>2021-08-23T14:27:06.000Z</time>
      </trkpt>
      <trkpt lat="42.70654910244047641754150390625" lon="0.03944532014429569244384765625">
        <ele>2233.39990234375</ele>
        <time>2021-08-23T14:27:08.000Z</time>
      </trkpt>
      <trkpt lat="42.7065490186214447021484375" lon="0.0394423864781856536865234375">
        <ele>2233.39990234375</ele>
        <time>2021-08-23T14:27:12.000Z</time>
      </trkpt>
      <trkpt lat="42.7065488509833812713623046875" lon="0.03944255411624908447265625">
        <ele>2233.39990234375</ele>
        <time>2021-08-23T14:27:14.000Z</time>
      </trkpt>
      <trkpt lat="42.70654876716434955596923828125" lon="0.03944263793528079986572265625">
        <ele>2233.39990234375</ele>
        <time>2021-08-23T14:27:15.000Z</time>
      </trkpt>
      <trkpt lat="42.70654893480241298675537109375" lon="0.03944196738302707672119140625">
        <ele>2233.39990234375</ele>
        <time>2021-08-23T14:27:17.000Z</time>
      </trkpt>
      <trkpt lat="42.7065490186214447021484375" lon="0.03944213502109050750732421875">
        <ele>2233.39990234375</ele>
        <time>2021-08-23T14:27:36.000Z</time>
      </trkpt>
      <trkpt lat="42.7065317519009113311767578125" lon="0.0394061766564846038818359375">
        <ele>2234.60009765625</ele>
        <time>2021-08-23T14:28:10.000Z</time>
      </trkpt>
      <trkpt lat="42.70652965642511844635009765625" lon="0.03940726630389690399169921875">
        <ele>2234.60009765625</ele>
        <time>2021-08-23T14:28:15.000Z</time>
      </trkpt>
      <trkpt lat="42.706529237329959869384765625" lon="0.03940274007618427276611328125">
        <ele>2234.800048828125</ele>
        <time>2021-08-23T14:28:19.000Z</time>
      </trkpt>
      <trkpt lat="42.7065277285873889923095703125" lon="0.03940123133361339569091796875">
        <ele>2234.800048828125</ele>
        <time>2021-08-23T14:28:21.000Z</time>
      </trkpt>
      <trkpt lat="42.7065257169306278228759765625" lon="0.0394055061042308807373046875">
        <ele>2234.800048828125</ele>
        <time>2021-08-23T14:28:23.000Z</time>
      </trkpt>
      <trkpt lat="42.7065193466842174530029296875" lon="0.0394182465970516204833984375">
        <ele>2235</ele>
        <time>2021-08-23T14:28:30.000Z</time>
      </trkpt>
      <trkpt lat="42.70651725120842456817626953125" lon="0.03941950388252735137939453125">
        <ele>2235</ele>
        <time>2021-08-23T14:28:34.000Z</time>
      </trkpt>
      <trkpt lat="42.7065163291990756988525390625" lon="0.03941933624446392059326171875">
        <ele>2235</ele>
        <time>2021-08-23T14:28:39.000Z</time>
      </trkpt>
      <trkpt lat="42.70654432475566864013671875" lon="0.03939955495297908782958984375">
        <ele>2234.39990234375</ele>
        <time>2021-08-23T14:28:52.000Z</time>
      </trkpt>
      <trkpt lat="42.70654725842177867889404296875" lon="0.03939771093428134918212890625">
        <ele>2234.39990234375</ele>
        <time>2021-08-23T14:28:53.000Z</time>
      </trkpt>
      <trkpt lat="42.70656351931393146514892578125" lon="0.03937994129955768585205078125">
        <ele>2234.39990234375</ele>
        <time>2021-08-23T14:28:57.000Z</time>
      </trkpt>
      <trkpt lat="42.7066440694034099578857421875" lon="0.03927533514797687530517578125">
        <ele>2234.39990234375</ele>
        <time>2021-08-23T14:29:10.000Z</time>
      </trkpt>
      <trkpt lat="42.70693165250122547149658203125" lon="0.03893427550792694091796875">
        <ele>2230.39990234375</ele>
        <time>2021-08-23T14:29:50.000Z</time>
      </trkpt>
      <trkpt lat="42.70694053731858730316162109375" lon="0.03892698325216770172119140625">
        <ele>2230.199951171875</ele>
        <time>2021-08-23T14:29:51.000Z</time>
      </trkpt>
      <trkpt lat="42.70694942213594913482666015625" lon="0.03891927190124988555908203125">
        <ele>2230</ele>
        <time>2021-08-23T14:29:52.000Z</time>
      </trkpt>
      <trkpt lat="42.7070410363376140594482421875" lon="0.038812570273876190185546875">
        <ele>2228.800048828125</ele>
        <time>2021-08-23T14:30:03.000Z</time>
      </trkpt>
      <trkpt lat="42.70716383121907711029052734375" lon="0.03866328857839107513427734375">
        <ele>2225.199951171875</ele>
        <time>2021-08-23T14:30:18.000Z</time>
      </trkpt>
      <trkpt lat="42.70732694305479526519775390625" lon="0.03840981982648372650146484375">
        <ele>2224.800048828125</ele>
        <time>2021-08-23T14:30:41.000Z</time>
      </trkpt>
      <trkpt lat="42.7076542563736438751220703125" lon="0.0379983521997928619384765625">
        <ele>2226.199951171875</ele>
        <time>2021-08-23T14:31:29.000Z</time>
      </trkpt>
      <trkpt lat="42.70777319557964801788330078125" lon="0.03794311545789241790771484375">
        <ele>2224.800048828125</ele>
        <time>2021-08-23T14:31:45.000Z</time>
      </trkpt>
      <trkpt lat="42.70813755691051483154296875" lon="0.0376593880355358123779296875">
        <ele>2218.60009765625</ele>
        <time>2021-08-23T14:32:26.000Z</time>
      </trkpt>
      <trkpt lat="42.708193548023700714111328125" lon="0.03771227784454822540283203125">
        <ele>2217.39990234375</ele>
        <time>2021-08-23T14:32:47.000Z</time>
      </trkpt>
      <trkpt lat="42.70826236344873905181884765625" lon="0.0376815162599086761474609375">
        <ele>2216.199951171875</ele>
        <time>2021-08-23T14:33:28.000Z</time>
      </trkpt>
      <trkpt lat="42.7083341963589191436767578125" lon="0.0376640819013118743896484375">
        <ele>2215</ele>
        <time>2021-08-23T14:33:37.000Z</time>
      </trkpt>
      <trkpt lat="42.70862110890448093414306640625" lon="0.0372087769210338592529296875">
        <ele>2211</ele>
        <time>2021-08-23T14:34:19.000Z</time>
      </trkpt>
      <trkpt lat="42.70875714719295501708984375" lon="0.037137530744075775146484375">
        <ele>2209.199951171875</ele>
        <time>2021-08-23T14:34:35.000Z</time>
      </trkpt>
      <trkpt lat="42.70918898284435272216796875" lon="0.03729737363755702972412109375">
        <ele>2192.60009765625</ele>
        <time>2021-08-23T14:35:21.000Z</time>
      </trkpt>
      <trkpt lat="42.70925260148942470550537109375" lon="0.0373120419681072235107421875">
        <ele>2190.60009765625</ele>
        <time>2021-08-23T14:35:29.000Z</time>
      </trkpt>
      <trkpt lat="42.70945460535585880279541015625" lon="0.03733609803020954132080078125">
        <ele>2185.39990234375</ele>
        <time>2021-08-23T14:36:00.000Z</time>
      </trkpt>
      <trkpt lat="42.7096568606793880462646484375" lon="0.0370050966739654541015625">
        <ele>2199.39990234375</ele>
        <time>2021-08-23T14:36:23.000Z</time>
      </trkpt>
      <trkpt lat="42.71000093780457973480224609375" lon="0.03667074255645275115966796875">
        <ele>2202.800048828125</ele>
        <time>2021-08-23T14:37:00.000Z</time>
      </trkpt>
      <trkpt lat="42.710258178412914276123046875" lon="0.036369748413562774658203125">
        <ele>2198.199951171875</ele>
        <time>2021-08-23T14:37:35.000Z</time>
      </trkpt>
      <trkpt lat="42.7102878503501415252685546875" lon="0.0363270007073879241943359375">
        <ele>2197</ele>
        <time>2021-08-23T14:37:39.000Z</time>
      </trkpt>
      <trkpt lat="42.71060778759419918060302734375" lon="0.03596884198486804962158203125">
        <ele>2192</ele>
        <time>2021-08-23T14:38:21.000Z</time>
      </trkpt>
      <trkpt lat="42.7106152474880218505859375" lon="0.03594352863729000091552734375">
        <ele>2193</ele>
        <time>2021-08-23T14:38:23.000Z</time>
      </trkpt>
      <trkpt lat="42.7106187678873538970947265625" lon="0.03593028523027896881103515625">
        <ele>2193.60009765625</ele>
        <time>2021-08-23T14:38:24.000Z</time>
      </trkpt>
      <trkpt lat="42.7106237970292568206787109375" lon="0.03591871820390224456787109375">
        <ele>2194.199951171875</ele>
        <time>2021-08-23T14:38:25.000Z</time>
      </trkpt>
      <trkpt lat="42.7106313407421112060546875" lon="0.03589575178921222686767578125">
        <ele>2195.199951171875</ele>
        <time>2021-08-23T14:38:26.000Z</time>
      </trkpt>
      <trkpt lat="42.7107776887714862823486328125" lon="0.0356862880289554595947265625">
        <ele>2198.800048828125</ele>
        <time>2021-08-23T14:38:51.000Z</time>
      </trkpt>
      <trkpt lat="42.71084725856781005859375" lon="0.0356470607221126556396484375">
        <ele>2197.60009765625</ele>
        <time>2021-08-23T14:39:00.000Z</time>
      </trkpt>
      <trkpt lat="42.71089880727231502532958984375" lon="0.03564714454114437103271484375">
        <ele>2194.60009765625</ele>
        <time>2021-08-23T14:39:07.000Z</time>
      </trkpt>
      <trkpt lat="42.71090718917548656463623046875" lon="0.03564546816051006317138671875">
        <ele>2194.60009765625</ele>
        <time>2021-08-23T14:39:08.000Z</time>
      </trkpt>
      <trkpt lat="42.71097667515277862548828125" lon="0.0356242619454860687255859375">
        <ele>2195.199951171875</ele>
        <time>2021-08-23T14:39:16.000Z</time>
      </trkpt>
      <trkpt lat="42.71101833321154117584228515625" lon="0.0356148742139339447021484375">
        <ele>2195.199951171875</ele>
        <time>2021-08-23T14:39:20.000Z</time>
      </trkpt>
      <trkpt lat="42.71121270954608917236328125" lon="0.0355957634747028350830078125">
        <ele>2193.199951171875</ele>
        <time>2021-08-23T14:39:38.000Z</time>
      </trkpt>
      <trkpt lat="42.7113044075667858123779296875" lon="0.0355984456837177276611328125">
        <ele>2192.39990234375</ele>
        <time>2021-08-23T14:39:46.000Z</time>
      </trkpt>
      <trkpt lat="42.71163515746593475341796875" lon="0.03563825972378253936767578125">
        <ele>2188</ele>
        <time>2021-08-23T14:40:20.000Z</time>
      </trkpt>
      <trkpt lat="42.71182400174438953399658203125" lon="0.03562468104064464569091796875">
        <ele>2186.800048828125</ele>
        <time>2021-08-23T14:40:39.000Z</time>
      </trkpt>
      <trkpt lat="42.71196783520281314849853515625" lon="0.03561059944331645965576171875">
        <ele>2185.60009765625</ele>
        <time>2021-08-23T14:40:52.000Z</time>
      </trkpt>
      <trkpt lat="42.712153829634189605712890625" lon="0.0354794226586818695068359375">
        <ele>2184.199951171875</ele>
        <time>2021-08-23T14:41:14.000Z</time>
      </trkpt>
      <trkpt lat="42.7125006727874279022216796875" lon="0.0351034104824066162109375">
        <ele>2183.800048828125</ele>
        <time>2021-08-23T14:41:59.000Z</time>
      </trkpt>
      <trkpt lat="42.71250477991998195648193359375" lon="0.0350737385451793670654296875">
        <ele>2185</ele>
        <time>2021-08-23T14:42:01.000Z</time>
      </trkpt>
      <trkpt lat="42.7126217074692249298095703125" lon="0.03494507633149623870849609375">
        <ele>2186</ele>
        <time>2021-08-23T14:42:28.000Z</time>
      </trkpt>
      <trkpt lat="42.71276327781379222869873046875" lon="0.03489017486572265625">
        <ele>2182.199951171875</ele>
        <time>2021-08-23T14:42:41.000Z</time>
      </trkpt>
      <trkpt lat="42.71321170963346958160400390625" lon="0.03478816710412502288818359375">
        <ele>2177.60009765625</ele>
        <time>2021-08-23T14:43:20.000Z</time>
      </trkpt>
      <trkpt lat="42.713631056249141693115234375" lon="0.034576356410980224609375">
        <ele>2182.800048828125</ele>
        <time>2021-08-23T14:44:09.000Z</time>
      </trkpt>
      <trkpt lat="42.71372803486883640289306640625" lon="0.034561939537525177001953125">
        <ele>2181.60009765625</ele>
        <time>2021-08-23T14:44:28.000Z</time>
      </trkpt>
      <trkpt lat="42.71374127827584743499755859375" lon="0.034559257328510284423828125">
        <ele>2181.60009765625</ele>
        <time>2021-08-23T14:44:29.000Z</time>
      </trkpt>
      <trkpt lat="42.7141477167606353759765625" lon="0.0343041121959686279296875">
        <ele>2184.60009765625</ele>
        <time>2021-08-23T14:45:21.000Z</time>
      </trkpt>
      <trkpt lat="42.71419507451355457305908203125" lon="0.0342818163335323333740234375">
        <ele>2184</ele>
        <time>2021-08-23T14:45:29.000Z</time>
      </trkpt>
      <trkpt lat="42.71431208588182926177978515625" lon="0.03417871892452239990234375">
        <ele>2188.199951171875</ele>
        <time>2021-08-23T14:46:00.000Z</time>
      </trkpt>
      <trkpt lat="42.71444049663841724395751953125" lon="0.0340206362307071685791015625">
        <ele>2194</ele>
        <time>2021-08-23T14:46:34.000Z</time>
      </trkpt>
      <trkpt lat="42.71458164788782596588134765625" lon="0.03403932787477970123291015625">
        <ele>2194</ele>
        <time>2021-08-23T14:47:04.000Z</time>
      </trkpt>
      <trkpt lat="42.7146484516561031341552734375" lon="0.03405022434890270233154296875">
        <ele>2194.60009765625</ele>
        <time>2021-08-23T14:47:12.000Z</time>
      </trkpt>
      <trkpt lat="42.7147879265248775482177734375" lon="0.034171678125858306884765625">
        <ele>2192.199951171875</ele>
        <time>2021-08-23T14:47:31.000Z</time>
      </trkpt>
      <trkpt lat="42.71480812691152095794677734375" lon="0.03418433479964733123779296875">
        <ele>2192.199951171875</ele>
        <time>2021-08-23T14:47:33.000Z</time>
      </trkpt>
      <trkpt lat="42.71486495621502399444580078125" lon="0.03421568311750888824462890625">
        <ele>2192.39990234375</ele>
        <time>2021-08-23T14:47:38.000Z</time>
      </trkpt>
      <trkpt lat="42.71491658873856067657470703125" lon="0.03424443304538726806640625">
        <ele>2192.39990234375</ele>
        <time>2021-08-23T14:47:42.000Z</time>
      </trkpt>
      <trkpt lat="42.7150249667465686798095703125" lon="0.03431827761232852935791015625">
        <ele>2192.199951171875</ele>
        <time>2021-08-23T14:47:57.000Z</time>
      </trkpt>
      <trkpt lat="42.71510065533220767974853515625" lon="0.03436957485973834991455078125">
        <ele>2191.39990234375</ele>
        <time>2021-08-23T14:48:10.000Z</time>
      </trkpt>
      <trkpt lat="42.71518447436392307281494140625" lon="0.034190118312835693359375">
        <ele>2198.800048828125</ele>
        <time>2021-08-23T14:48:35.000Z</time>
      </trkpt>
      <trkpt lat="42.71518640220165252685546875" lon="0.03417897038161754608154296875">
        <ele>2199.199951171875</ele>
        <time>2021-08-23T14:48:36.000Z</time>
      </trkpt>
      <trkpt lat="42.71518078632652759552001953125" lon="0.03399859182536602020263671875">
        <ele>2209.39990234375</ele>
        <time>2021-08-23T14:49:11.000Z</time>
      </trkpt>
      <trkpt lat="42.7152221091091632843017578125" lon="0.0339934788644313812255859375">
        <ele>2211</ele>
        <time>2021-08-23T14:49:16.000Z</time>
      </trkpt>
      <trkpt lat="42.715252451598644256591796875" lon="0.033990629017353057861328125">
        <ele>2212.199951171875</ele>
        <time>2021-08-23T14:49:19.000Z</time>
      </trkpt>
      <trkpt lat="42.71551036275923252105712890625" lon="0.03386649303138256072998046875">
        <ele>2222</ele>
        <time>2021-08-23T14:49:52.000Z</time>
      </trkpt>
      <trkpt lat="42.71560885012149810791015625" lon="0.03395182080566883087158203125">
        <ele>2220.60009765625</ele>
        <time>2021-08-23T14:50:07.000Z</time>
      </trkpt>
      <trkpt lat="42.71595996804535388946533203125" lon="0.0338134355843067169189453125">
        <ele>2229.800048828125</ele>
        <time>2021-08-23T14:50:46.000Z</time>
      </trkpt>
      <trkpt lat="42.71596550010144710540771484375" lon="0.033813603222370147705078125">
        <ele>2229.800048828125</ele>
        <time>2021-08-23T14:50:47.000Z</time>
      </trkpt>
      <trkpt lat="42.71597237326204776763916015625" lon="0.03381469286978244781494140625">
        <ele>2229.800048828125</ele>
        <time>2021-08-23T14:50:48.000Z</time>
      </trkpt>
      <trkpt lat="42.71598192863166332244873046875" lon="0.03381687216460704803466796875">
        <ele>2229.800048828125</ele>
        <time>2021-08-23T14:50:49.000Z</time>
      </trkpt>
      <trkpt lat="42.7159930765628814697265625" lon="0.03382332623004913330078125">
        <ele>2229.60009765625</ele>
        <time>2021-08-23T14:50:50.000Z</time>
      </trkpt>
      <trkpt lat="42.71600221283733844757080078125" lon="0.03382910974323749542236328125">
        <ele>2229.39990234375</ele>
        <time>2021-08-23T14:50:51.000Z</time>
      </trkpt>
      <trkpt lat="42.7161692641675472259521484375" lon="0.0340243242681026458740234375">
        <ele>2225.199951171875</ele>
        <time>2021-08-23T14:51:16.000Z</time>
      </trkpt>
      <trkpt lat="42.71617990918457508087158203125" lon="0.0340300239622592926025390625">
        <ele>2225.39990234375</ele>
        <time>2021-08-23T14:51:22.000Z</time>
      </trkpt>
      <trkpt lat="42.7161835134029388427734375" lon="0.03402407281100749969482421875">
        <ele>2225.60009765625</ele>
        <time>2021-08-23T14:51:34.000Z</time>
      </trkpt>
      <trkpt lat="42.71618544124066829681396484375" lon="0.0340209715068340301513671875">
        <ele>2225.60009765625</ele>
        <time>2021-08-23T14:51:40.000Z</time>
      </trkpt>
      <trkpt lat="42.716196589171886444091796875" lon="0.03401904366910457611083984375">
        <ele>2226</ele>
        <time>2021-08-23T14:51:45.000Z</time>
      </trkpt>
      <trkpt lat="42.71622701548039913177490234375" lon="0.0340732745826244354248046875">
        <ele>2225</ele>
        <time>2021-08-23T14:51:52.000Z</time>
      </trkpt>
      <trkpt lat="42.7162587828934192657470703125" lon="0.03417092375457286834716796875">
        <ele>2222</ele>
        <time>2021-08-23T14:52:04.000Z</time>
      </trkpt>
      <trkpt lat="42.71632843650877475738525390625" lon="0.034249126911163330078125">
        <ele>2220.800048828125</ele>
        <time>2021-08-23T14:52:14.000Z</time>
      </trkpt>
      <trkpt lat="42.716355510056018829345703125" lon="0.03430101089179515838623046875">
        <ele>2219.39990234375</ele>
        <time>2021-08-23T14:52:19.000Z</time>
      </trkpt>
      <trkpt lat="42.716394402086734771728515625" lon="0.03439505584537982940673828125">
        <ele>2217.60009765625</ele>
        <time>2021-08-23T14:52:27.000Z</time>
      </trkpt>
      <trkpt lat="42.71667100489139556884765625" lon="0.0344920344650745391845703125">
        <ele>2226.60009765625</ele>
        <time>2021-08-23T14:52:59.000Z</time>
      </trkpt>
      <trkpt lat="42.71677401848137378692626953125" lon="0.0344910286366939544677734375">
        <ele>2231.800048828125</ele>
        <time>2021-08-23T14:53:09.000Z</time>
      </trkpt>
      <trkpt lat="42.716973088681697845458984375" lon="0.03454123623669147491455078125">
        <ele>2238.39990234375</ele>
        <time>2021-08-23T14:53:27.000Z</time>
      </trkpt>
      <trkpt lat="42.71701038815081119537353515625" lon="0.0345289148390293121337890625">
        <ele>2240.199951171875</ele>
        <time>2021-08-23T14:53:31.000Z</time>
      </trkpt>
      <trkpt lat="42.71692589856684207916259765625" lon="0.0343430042266845703125">
        <ele>2243</ele>
        <time>2021-08-23T14:54:09.000Z</time>
      </trkpt>
      <trkpt lat="42.71686202846467494964599609375" lon="0.03421015106141567230224609375">
        <ele>2244.39990234375</ele>
        <time>2021-08-23T14:54:20.000Z</time>
      </trkpt>
      <trkpt lat="42.71679664961993694305419921875" lon="0.033810250461101531982421875">
        <ele>2255.800048828125</ele>
        <time>2021-08-23T14:54:53.000Z</time>
      </trkpt>
      <trkpt lat="42.71670377813279628753662109375" lon="0.0335428677499294281005859375">
        <ele>2258.199951171875</ele>
        <time>2021-08-23T14:55:22.000Z</time>
      </trkpt>
      <trkpt lat="42.71665650419890880584716796875" lon="0.03294481895864009857177734375">
        <ele>2268.199951171875</ele>
        <time>2021-08-23T14:56:19.000Z</time>
      </trkpt>
      <trkpt lat="42.716600596904754638671875" lon="0.032581128180027008056640625">
        <ele>2279</ele>
        <time>2021-08-23T14:56:58.000Z</time>
      </trkpt>
      <trkpt lat="42.7165410853922367095947265625" lon="0.0321776233613491058349609375">
        <ele>2288.60009765625</ele>
        <time>2021-08-23T14:57:58.000Z</time>
      </trkpt>
      <trkpt lat="42.71665717475116252899169921875" lon="0.03222816623747348785400390625">
        <ele>2291.800048828125</ele>
        <time>2021-08-23T14:58:14.000Z</time>
      </trkpt>
      <trkpt lat="42.71677971817553043365478515625" lon="0.03221534192562103271484375">
        <ele>2296.39990234375</ele>
        <time>2021-08-23T14:58:40.000Z</time>
      </trkpt>
      <trkpt lat="42.71675323136150836944580078125" lon="0.0321457721292972564697265625">
        <ele>2299</ele>
        <time>2021-08-23T14:58:46.000Z</time>
      </trkpt>
      <trkpt lat="42.716737724840641021728515625" lon="0.03209405578672885894775390625">
        <ele>2301.199951171875</ele>
        <time>2021-08-23T14:58:51.000Z</time>
      </trkpt>
      <trkpt lat="42.71671702153980731964111328125" lon="0.03207159228622913360595703125">
        <ele>2301.199951171875</ele>
        <time>2021-08-23T14:59:07.000Z</time>
      </trkpt>
      <trkpt lat="42.71670143119990825653076171875" lon="0.03208584152162075042724609375">
        <ele>2300</ele>
        <time>2021-08-23T14:59:18.000Z</time>
      </trkpt>
      <trkpt lat="42.71669707261025905609130859375" lon="0.03208902664482593536376953125">
        <ele>2299.800048828125</ele>
        <time>2021-08-23T14:59:32.000Z</time>
      </trkpt>
      <trkpt lat="42.71669740788638591766357421875" lon="0.0320894457399845123291015625">
        <ele>2299.800048828125</ele>
        <time>2021-08-23T14:59:35.000Z</time>
      </trkpt>
      <trkpt lat="42.716697156429290771484375" lon="0.0320894457399845123291015625">
        <ele>2299.800048828125</ele>
        <time>2021-08-23T14:59:36.000Z</time>
      </trkpt>
      <trkpt lat="42.7166966535151004791259765625" lon="0.032089613378047943115234375">
        <ele>2299.60009765625</ele>
        <time>2021-08-23T14:59:37.000Z</time>
      </trkpt>
      <trkpt lat="42.7166956476867198944091796875" lon="0.03209020011126995086669921875">
        <ele>2299.60009765625</ele>
        <time>2021-08-23T14:59:38.000Z</time>
      </trkpt>
      <trkpt lat="42.7166949771344661712646484375" lon="0.03209120593965053558349609375">
        <ele>2299.60009765625</ele>
        <time>2021-08-23T14:59:39.000Z</time>
      </trkpt>
      <trkpt lat="42.71669405512511730194091796875" lon="0.0320917926728725433349609375">
        <ele>2299.39990234375</ele>
        <time>2021-08-23T14:59:43.000Z</time>
      </trkpt>
      <trkpt lat="42.71669422276318073272705078125" lon="0.0320914573967456817626953125">
        <ele>2299.60009765625</ele>
        <time>2021-08-23T14:59:47.000Z</time>
      </trkpt>
      <trkpt lat="42.7166973240673542022705078125" lon="0.03208517096936702728271484375">
        <ele>2299.800048828125</ele>
        <time>2021-08-23T15:00:29.000Z</time>
      </trkpt>
      <trkpt lat="42.71669782698154449462890625" lon="0.0320874340832233428955078125">
        <ele>2299.800048828125</ele>
        <time>2021-08-23T15:01:25.000Z</time>
      </trkpt>
      <trkpt lat="42.71669774316251277923583984375" lon="0.0320877693593502044677734375">
        <ele>2299.800048828125</ele>
        <time>2021-08-23T15:01:34.000Z</time>
      </trkpt>
      <trkpt lat="42.71669782698154449462890625" lon="0.0320917926728725433349609375">
        <ele>2299.60009765625</ele>
        <time>2021-08-23T15:02:10.000Z</time>
      </trkpt>
      <trkpt lat="42.71669782698154449462890625" lon="0.03209170885384082794189453125">
        <ele>2299.60009765625</ele>
        <time>2021-08-23T15:02:24.000Z</time>
      </trkpt>
      <trkpt lat="42.71669757552444934844970703125" lon="0.0320931337773799896240234375">
        <ele>2299.60009765625</ele>
        <time>2021-08-23T15:02:32.000Z</time>
      </trkpt>
      <trkpt lat="42.716697156429290771484375" lon="0.03209355287253856658935546875">
        <ele>2299.60009765625</ele>
        <time>2021-08-23T15:02:37.000Z</time>
      </trkpt>
      <trkpt lat="42.71669690497219562530517578125" lon="0.03209338523447513580322265625">
        <ele>2299.60009765625</ele>
        <time>2021-08-23T15:02:40.000Z</time>
      </trkpt>
      <trkpt lat="42.71669757552444934844970703125" lon="0.032093636691570281982421875">
        <ele>2299.60009765625</ele>
        <time>2021-08-23T15:02:46.000Z</time>
      </trkpt>
      <trkpt lat="42.7166976593434810638427734375" lon="0.032093636691570281982421875">
        <ele>2299.60009765625</ele>
        <time>2021-08-23T15:02:47.000Z</time>
      </trkpt>
      <trkpt lat="42.716697491705417633056640625" lon="0.03209388814866542816162109375">
        <ele>2299.60009765625</ele>
        <time>2021-08-23T15:02:49.000Z</time>
      </trkpt>
      <trkpt lat="42.71669514477252960205078125" lon="0.03209732472896575927734375">
        <ele>2299.199951171875</ele>
        <time>2021-08-23T15:03:04.000Z</time>
      </trkpt>
      <trkpt lat="42.71669271402060985565185546875" lon="0.0320993363857269287109375">
        <ele>2299</ele>
        <time>2021-08-23T15:03:08.000Z</time>
      </trkpt>
      <trkpt lat="42.7166912890970706939697265625" lon="0.0321008451282978057861328125">
        <ele>2299</ele>
        <time>2021-08-23T15:03:10.000Z</time>
      </trkpt>
      <trkpt lat="42.716691456735134124755859375" lon="0.03210176713764667510986328125">
        <ele>2299</ele>
        <time>2021-08-23T15:03:11.000Z</time>
      </trkpt>
      <trkpt lat="42.71669120527803897857666015625" lon="0.032103359699249267578125">
        <ele>2298.800048828125</ele>
        <time>2021-08-23T15:03:13.000Z</time>
      </trkpt>
      <trkpt lat="42.7166912890970706939697265625" lon="0.03210377879440784454345703125">
        <ele>2298.800048828125</ele>
        <time>2021-08-23T15:03:16.000Z</time>
      </trkpt>
      <trkpt lat="42.71669120527803897857666015625" lon="0.0321058742702007293701171875">
        <ele>2298.800048828125</ele>
        <time>2021-08-23T15:03:24.000Z</time>
      </trkpt>
      <trkpt lat="42.7166909538209438323974609375" lon="0.032105706632137298583984375">
        <ele>2298.800048828125</ele>
        <time>2021-08-23T15:03:27.000Z</time>
      </trkpt>
      <trkpt lat="42.71669170819222927093505859375" lon="0.0321073830127716064453125">
        <ele>2298.800048828125</ele>
        <time>2021-08-23T15:03:32.000Z</time>
      </trkpt>
      <trkpt lat="42.71669405512511730194091796875" lon="0.03210411407053470611572265625">
        <ele>2299</ele>
        <time>2021-08-23T15:03:34.000Z</time>
      </trkpt>
      <trkpt lat="42.71669472567737102508544921875" lon="0.03210411407053470611572265625">
        <ele>2299</ele>
        <time>2021-08-23T15:03:35.000Z</time>
      </trkpt>
      <trkpt lat="42.71669439040124416351318359375" lon="0.03210403025150299072265625">
        <ele>2299</ele>
        <time>2021-08-23T15:03:39.000Z</time>
      </trkpt>
      <trkpt lat="42.71669439040124416351318359375" lon="0.032103694975376129150390625">
        <ele>2299</ele>
        <time>2021-08-23T15:03:42.000Z</time>
      </trkpt>
      <trkpt lat="42.7166943065822124481201171875" lon="0.03209925256669521331787109375">
        <ele>2299.199951171875</ele>
        <time>2021-08-23T15:03:57.000Z</time>
      </trkpt>
      <trkpt lat="42.71669439040124416351318359375" lon="0.0320984981954097747802734375">
        <ele>2299.199951171875</ele>
        <time>2021-08-23T15:04:06.000Z</time>
      </trkpt>
      <trkpt lat="42.7166946418583393096923828125" lon="0.032099001109600067138671875">
        <ele>2299.199951171875</ele>
        <time>2021-08-23T15:04:26.000Z</time>
      </trkpt>
      <trkpt lat="42.7166936360299587249755859375" lon="0.0321092270314693450927734375">
        <ele>2298.800048828125</ele>
        <time>2021-08-23T15:04:40.000Z</time>
      </trkpt>
      <trkpt lat="42.7166943065822124481201171875" lon="0.0321073830127716064453125">
        <ele>2298.800048828125</ele>
        <time>2021-08-23T15:05:07.000Z</time>
      </trkpt>
      <trkpt lat="42.716692797839641571044921875" lon="0.03210646100342273712158203125">
        <ele>2298.800048828125</ele>
        <time>2021-08-23T15:05:20.000Z</time>
      </trkpt>
      <trkpt lat="42.7166755311191082000732421875" lon="0.03207343630492687225341796875">
        <ele>2299.199951171875</ele>
        <time>2021-08-23T15:05:31.000Z</time>
      </trkpt>
      <trkpt lat="42.71666295826435089111328125" lon="0.03203085623681545257568359375">
        <ele>2300</ele>
        <time>2021-08-23T15:05:36.000Z</time>
      </trkpt>
      <trkpt lat="42.716655917465686798095703125" lon="0.03199137747287750244140625">
        <ele>2301</ele>
        <time>2021-08-23T15:05:40.000Z</time>
      </trkpt>
      <trkpt lat="42.7166517265141010284423828125" lon="0.03197017125785350799560546875">
        <ele>2301.39990234375</ele>
        <time>2021-08-23T15:05:43.000Z</time>
      </trkpt>
      <trkpt lat="42.7166503854095935821533203125" lon="0.0319687463343143463134765625">
        <ele>2301.39990234375</ele>
        <time>2021-08-23T15:05:44.000Z</time>
      </trkpt>
      <trkpt lat="42.71665013395249843597412109375" lon="0.03196463920176029205322265625">
        <ele>2301.60009765625</ele>
        <time>2021-08-23T15:05:45.000Z</time>
      </trkpt>
      <trkpt lat="42.71665013395249843597412109375" lon="0.03196463920176029205322265625">
        <ele>2301.60009765625</ele>
        <time>2021-08-23T15:05:46.000Z</time>
      </trkpt>
      <trkpt lat="42.716649882495403289794921875" lon="0.0319640524685382843017578125">
        <ele>2301.60009765625</ele>
        <time>2021-08-23T15:05:47.000Z</time>
      </trkpt>
      <trkpt lat="42.71664979867637157440185546875" lon="0.03196363337337970733642578125">
        <ele>2301.60009765625</ele>
        <time>2021-08-23T15:05:48.000Z</time>
      </trkpt>
      <trkpt lat="42.71660168655216693878173828125" lon="0.0318847596645355224609375">
        <ele>2301.800048828125</ele>
        <time>2021-08-23T15:06:03.000Z</time>
      </trkpt>
      <trkpt lat="42.71657804958522319793701171875" lon="0.03185969777405261993408203125">
        <ele>2301.60009765625</ele>
        <time>2021-08-23T15:06:06.000Z</time>
      </trkpt>
      <trkpt lat="42.71654049865901470184326171875" lon="0.031757019460201263427734375">
        <ele>2303</ele>
        <time>2021-08-23T15:06:14.000Z</time>
      </trkpt>
      <trkpt lat="42.7165337093174457550048828125" lon="0.0317380763590335845947265625">
        <ele>2303.199951171875</ele>
        <time>2021-08-23T15:06:16.000Z</time>
      </trkpt>
      <trkpt lat="42.7165142633020877838134765625" lon="0.03168183378875255584716796875">
        <ele>2303.800048828125</ele>
        <time>2021-08-23T15:06:21.000Z</time>
      </trkpt>
      <trkpt lat="42.7165082283318042755126953125" lon="0.031677223742008209228515625">
        <ele>2303.800048828125</ele>
        <time>2021-08-23T15:06:22.000Z</time>
      </trkpt>
      <trkpt lat="42.71649087779223918914794921875" lon="0.03163305111229419708251953125">
        <ele>2304.199951171875</ele>
        <time>2021-08-23T15:06:26.000Z</time>
      </trkpt>
      <trkpt lat="42.7164810709655284881591796875" lon="0.03154487349092960357666015625">
        <ele>2306.199951171875</ele>
        <time>2021-08-23T15:06:33.000Z</time>
      </trkpt>
      <trkpt lat="42.7162758819758892059326171875" lon="0.0310728885233402252197265625">
        <ele>2324</ele>
        <time>2021-08-23T15:07:26.000Z</time>
      </trkpt>
      <trkpt lat="42.71629549562931060791015625" lon="0.03102670423686504364013671875">
        <ele>2326.60009765625</ele>
        <time>2021-08-23T15:07:52.000Z</time>
      </trkpt>
      <trkpt lat="42.716423906385898590087890625" lon="0.03101865760982036590576171875">
        <ele>2329.60009765625</ele>
        <time>2021-08-23T15:08:23.000Z</time>
      </trkpt>
      <trkpt lat="42.71624897606670856475830078125" lon="0.03045321442186832427978515625">
        <ele>2343.60009765625</ele>
        <time>2021-08-23T15:09:14.000Z</time>
      </trkpt>
      <trkpt lat="42.7162467129528522491455078125" lon="0.03044147975742816925048828125">
        <ele>2343.800048828125</ele>
        <time>2021-08-23T15:09:15.000Z</time>
      </trkpt>
      <trkpt lat="42.71621293388307094573974609375" lon="0.03031876869499683380126953125">
        <ele>2347.60009765625</ele>
        <time>2021-08-23T15:09:28.000Z</time>
      </trkpt>
      <trkpt lat="42.716158367693424224853515625" lon="0.0302357040345668792724609375">
        <ele>2348.60009765625</ele>
        <time>2021-08-23T15:09:37.000Z</time>
      </trkpt>
      <trkpt lat="42.71600623615086078643798828125" lon="0.03001391887664794921875">
        <ele>2352</ele>
        <time>2021-08-23T15:10:01.000Z</time>
      </trkpt>
      <trkpt lat="42.7159637399017810821533203125" lon="0.02999589778482913970947265625">
        <ele>2351</ele>
        <time>2021-08-23T15:10:06.000Z</time>
      </trkpt>
      <trkpt lat="42.71593800745904445648193359375" lon="0.029953904449939727783203125">
        <ele>2351.800048828125</ele>
        <time>2021-08-23T15:10:14.000Z</time>
      </trkpt>
      <trkpt lat="42.7158712036907672882080078125" lon="0.029856003820896148681640625">
        <ele>2355</ele>
        <time>2021-08-23T15:10:26.000Z</time>
      </trkpt>
      <trkpt lat="42.7157753147184848785400390625" lon="0.0296285189688205718994140625">
        <ele>2372.199951171875</ele>
        <time>2021-08-23T15:10:55.000Z</time>
      </trkpt>
      <trkpt lat="42.71574698388576507568359375" lon="0.02953941933810710906982421875">
        <ele>2376.60009765625</ele>
        <time>2021-08-23T15:11:03.000Z</time>
      </trkpt>
      <trkpt lat="42.71563508547842502593994140625" lon="0.0292828492820262908935546875">
        <ele>2386.199951171875</ele>
        <time>2021-08-23T15:11:33.000Z</time>
      </trkpt>
      <trkpt lat="42.7155412919819355010986328125" lon="0.0290464796125888824462890625">
        <ele>2391.60009765625</ele>
        <time>2021-08-23T15:11:57.000Z</time>
      </trkpt>
      <trkpt lat="42.71555252373218536376953125" lon="0.0289918296039104461669921875">
        <ele>2394.800048828125</ele>
        <time>2021-08-23T15:12:23.000Z</time>
      </trkpt>
      <trkpt lat="42.71583256311714649200439453125" lon="0.029060058295726776123046875">
        <ele>2409.199951171875</ele>
        <time>2021-08-23T15:13:05.000Z</time>
      </trkpt>
      <trkpt lat="42.7157971076667308807373046875" lon="0.02897649072110652923583984375">
        <ele>2409.199951171875</ele>
        <time>2021-08-23T15:13:13.000Z</time>
      </trkpt>
      <trkpt lat="42.7156643383204936981201171875" lon="0.02864741720259189605712890625">
        <ele>2412.199951171875</ele>
        <time>2021-08-23T15:13:49.000Z</time>
      </trkpt>
      <trkpt lat="42.71560273133218288421630859375" lon="0.02849302254617214202880859375">
        <ele>2420.800048828125</ele>
        <time>2021-08-23T15:15:05.000Z</time>
      </trkpt>
      <trkpt lat="42.7157089300453662872314453125" lon="0.02822161652147769927978515625">
        <ele>2425.60009765625</ele>
        <time>2021-08-23T15:16:41.000Z</time>
      </trkpt>
      <trkpt lat="42.7156120352447032928466796875" lon="0.028128325939178466796875">
        <ele>2425</ele>
        <time>2021-08-23T15:17:10.000Z</time>
      </trkpt>
      <trkpt lat="42.71553500555455684661865234375" lon="0.02815942279994487762451171875">
        <ele>2426.60009765625</ele>
        <time>2021-08-23T15:17:47.000Z</time>
      </trkpt>
      <trkpt lat="42.715524695813655853271484375" lon="0.02814249135553836822509765625">
        <ele>2426.39990234375</ele>
        <time>2021-08-23T15:19:54.000Z</time>
      </trkpt>
      <trkpt lat="42.7155272103846073150634765625" lon="0.028144083917140960693359375">
        <ele>2426.39990234375</ele>
        <time>2021-08-23T15:20:16.000Z</time>
      </trkpt>
      <trkpt lat="42.715518660843372344970703125" lon="0.02813511528074741363525390625">
        <ele>2426.199951171875</ele>
        <time>2021-08-23T15:20:58.000Z</time>
      </trkpt>
      <trkpt lat="42.7155184932053089141845703125" lon="0.02813033759593963623046875">
        <ele>2426.199951171875</ele>
        <time>2021-08-23T15:21:35.000Z</time>
      </trkpt>
      <trkpt lat="42.71551899611949920654296875" lon="0.02812857739627361297607421875">
        <ele>2426.199951171875</ele>
        <time>2021-08-23T15:22:00.000Z</time>
      </trkpt>
      <trkpt lat="42.7155218459665775299072265625" lon="0.02813410945236682891845703125">
        <ele>2426.199951171875</ele>
        <time>2021-08-23T15:22:12.000Z</time>
      </trkpt>
      <trkpt lat="42.71552545018494129180908203125" lon="0.02813033759593963623046875">
        <ele>2426.199951171875</ele>
        <time>2021-08-23T15:22:27.000Z</time>
      </trkpt>
      <trkpt lat="42.71551757119596004486083984375" lon="0.0281345285475254058837890625">
        <ele>2426.199951171875</ele>
        <time>2021-08-23T15:22:45.000Z</time>
      </trkpt>
      <trkpt lat="42.715515978634357452392578125" lon="0.02813360653817653656005859375">
        <ele>2426.199951171875</ele>
        <time>2021-08-23T15:22:58.000Z</time>
      </trkpt>
      <trkpt lat="42.71551690064370632171630859375" lon="0.02812807448208332061767578125">
        <ele>2426.199951171875</ele>
        <time>2021-08-23T15:23:05.000Z</time>
      </trkpt>
      <trkpt lat="42.7155308984220027923583984375" lon="0.02812840975821018218994140625">
        <ele>2426.199951171875</ele>
        <time>2021-08-23T15:23:11.000Z</time>
      </trkpt>
      <trkpt lat="42.7155365981161594390869140625" lon="0.02813511528074741363525390625">
        <ele>2426.199951171875</ele>
        <time>2021-08-23T15:23:14.000Z</time>
      </trkpt>
      <trkpt lat="42.71554036997258663177490234375" lon="0.0281512923538684844970703125">
        <ele>2426.39990234375</ele>
        <time>2021-08-23T15:23:20.000Z</time>
      </trkpt>
      <trkpt lat="42.715540789067745208740234375" lon="0.02815372310578823089599609375">
        <ele>2426.39990234375</ele>
        <time>2021-08-23T15:23:36.000Z</time>
      </trkpt>
      <trkpt lat="42.71553416736423969268798828125" lon="0.02815850079059600830078125">
        <ele>2426.60009765625</ele>
        <time>2021-08-23T15:23:57.000Z</time>
      </trkpt>
      <trkpt lat="42.71553416736423969268798828125" lon="0.02815942279994487762451171875">
        <ele>2426.60009765625</ele>
        <time>2021-08-23T15:24:04.000Z</time>
      </trkpt>
      <trkpt lat="42.7155332453548908233642578125" lon="0.0281538069248199462890625">
        <ele>2426.39990234375</ele>
        <time>2021-08-23T15:24:21.000Z</time>
      </trkpt>
      <trkpt lat="42.7155344188213348388671875" lon="0.02815808169543743133544921875">
        <ele>2426.60009765625</ele>
        <time>2021-08-23T15:24:36.000Z</time>
      </trkpt>
      <trkpt lat="42.7155359275639057159423828125" lon="0.02816126681864261627197265625">
        <ele>2426.60009765625</ele>
        <time>2021-08-23T15:24:43.000Z</time>
      </trkpt>
      <trkpt lat="42.71554422564804553985595703125" lon="0.02816227264702320098876953125">
        <ele>2426.60009765625</ele>
        <time>2021-08-23T15:25:21.000Z</time>
      </trkpt>
      <trkpt lat="42.71553450264036655426025390625" lon="0.02815590240061283111572265625">
        <ele>2426.39990234375</ele>
        <time>2021-08-23T15:25:47.000Z</time>
      </trkpt>
      <trkpt lat="42.7155282162129878997802734375" lon="0.02816126681864261627197265625">
        <ele>2426.60009765625</ele>
        <time>2021-08-23T15:25:55.000Z</time>
      </trkpt>
      <trkpt lat="42.7155312336981296539306640625" lon="0.0281408987939357757568359375">
        <ele>2426.39990234375</ele>
        <time>2021-08-23T15:26:07.000Z</time>
      </trkpt>
      <trkpt lat="42.71552980877459049224853515625" lon="0.0281385518610477447509765625">
        <ele>2426.39990234375</ele>
        <time>2021-08-23T15:26:09.000Z</time>
      </trkpt>
      <trkpt lat="42.71553114987909793853759765625" lon="0.02813830040395259857177734375">
        <ele>2426.39990234375</ele>
        <time>2021-08-23T15:26:11.000Z</time>
      </trkpt>
      <trkpt lat="42.7155312336981296539306640625" lon="0.02813813276588916778564453125">
        <ele>2426.39990234375</ele>
        <time>2021-08-23T15:26:13.000Z</time>
      </trkpt>
      <trkpt lat="42.7155312336981296539306640625" lon="0.02813796512782573699951171875">
        <ele>2426.39990234375</ele>
        <time>2021-08-23T15:26:22.000Z</time>
      </trkpt>
      <trkpt lat="42.71553064696490764617919921875" lon="0.02813570201396942138671875">
        <ele>2426.199951171875</ele>
        <time>2021-08-23T15:26:38.000Z</time>
      </trkpt>
      <trkpt lat="42.71552477963268756866455078125" lon="0.02813025377690792083740234375">
        <ele>2426.199951171875</ele>
        <time>2021-08-23T15:26:48.000Z</time>
      </trkpt>
      <trkpt lat="42.71554204635322093963623046875" lon="0.0281502865254878997802734375">
        <ele>2426.39990234375</ele>
        <time>2021-08-23T15:27:20.000Z</time>
      </trkpt>
      <trkpt lat="42.71555495448410511016845703125" lon="0.02814433537423610687255859375">
        <ele>2426.39990234375</ele>
        <time>2021-08-23T15:27:23.000Z</time>
      </trkpt>
      <trkpt lat="42.7155567146837711334228515625" lon="0.02814383246004581451416015625">
        <ele>2426.39990234375</ele>
        <time>2021-08-23T15:27:24.000Z</time>
      </trkpt>
      <trkpt lat="42.71557523868978023529052734375" lon="0.0281318463385105133056640625">
        <ele>2425.60009765625</ele>
        <time>2021-08-23T15:27:30.000Z</time>
      </trkpt>
      <trkpt lat="42.71562418900430202484130859375" lon="0.0281248055398464202880859375">
        <ele>2424.60009765625</ele>
        <time>2021-08-23T15:27:38.000Z</time>
      </trkpt>
      <trkpt lat="42.71563860587775707244873046875" lon="0.02812539227306842803955078125">
        <ele>2424.60009765625</ele>
        <time>2021-08-23T15:27:40.000Z</time>
      </trkpt>
      <trkpt lat="42.71565847098827362060546875" lon="0.02812170423567295074462890625">
        <ele>2424.199951171875</ele>
        <time>2021-08-23T15:27:43.000Z</time>
      </trkpt>
      <trkpt lat="42.715674228966236114501953125" lon="0.02811164595186710357666015625">
        <ele>2423.800048828125</ele>
        <time>2021-08-23T15:27:47.000Z</time>
      </trkpt>
      <trkpt lat="42.7156911604106426239013671875" lon="0.02809035591781139373779296875">
        <ele>2423</ele>
        <time>2021-08-23T15:27:51.000Z</time>
      </trkpt>
      <trkpt lat="42.7157287113368511199951171875" lon="0.02809370867908000946044921875">
        <ele>2422.60009765625</ele>
        <time>2021-08-23T15:27:58.000Z</time>
      </trkpt>
      <trkpt lat="42.71580808795988559722900390625" lon="0.0281070359051227569580078125">
        <ele>2422</ele>
        <time>2021-08-23T15:28:10.000Z</time>
      </trkpt>
      <trkpt lat="42.7159744687378406524658203125" lon="0.02814081497490406036376953125">
        <ele>2419.39990234375</ele>
        <time>2021-08-23T15:28:36.000Z</time>
      </trkpt>
      <trkpt lat="42.71602861583232879638671875" lon="0.028179623186588287353515625">
        <ele>2420</ele>
        <time>2021-08-23T15:28:42.000Z</time>
      </trkpt>
      <trkpt lat="42.71611436270177364349365234375" lon="0.02826302312314510345458984375">
        <ele>2422</ele>
        <time>2021-08-23T15:28:53.000Z</time>
      </trkpt>
      <trkpt lat="42.71618829108774662017822265625" lon="0.02835036255419254302978515625">
        <ele>2424.60009765625</ele>
        <time>2021-08-23T15:29:13.000Z</time>
      </trkpt>
      <trkpt lat="42.71657721139490604400634765625" lon="0.02863517962396144866943359375">
        <ele>2428.39990234375</ele>
        <time>2021-08-23T15:30:09.000Z</time>
      </trkpt>
      <trkpt lat="42.71695355884730815887451171875" lon="0.028746239840984344482421875">
        <ele>2422.800048828125</ele>
        <time>2021-08-23T15:30:55.000Z</time>
      </trkpt>
      <trkpt lat="42.717013657093048095703125" lon="0.02861958928406238555908203125">
        <ele>2413.800048828125</ele>
        <time>2021-08-23T15:31:25.000Z</time>
      </trkpt>
      <trkpt lat="42.71693193353712558746337890625" lon="0.02857424318790435791015625">
        <ele>2414</ele>
        <time>2021-08-23T15:31:34.000Z</time>
      </trkpt>
      <trkpt lat="42.7168264053761959075927734375" lon="0.0285211019217967987060546875">
        <ele>2414.800048828125</ele>
        <time>2021-08-23T15:31:43.000Z</time>
      </trkpt>
      <trkpt lat="42.716769911348819732666015625" lon="0.02847877331078052520751953125">
        <ele>2414.39990234375</ele>
        <time>2021-08-23T15:31:52.000Z</time>
      </trkpt>
      <trkpt lat="42.716963030397891998291015625" lon="0.02845044247806072235107421875">
        <ele>2405.800048828125</ele>
        <time>2021-08-23T15:32:16.000Z</time>
      </trkpt>
      <trkpt lat="42.7170096337795257568359375" lon="0.0284597463905811309814453125">
        <ele>2404.60009765625</ele>
        <time>2021-08-23T15:32:21.000Z</time>
      </trkpt>
      <trkpt lat="42.71715757437050342559814453125" lon="0.0283779390156269073486328125">
        <ele>2396.199951171875</ele>
        <time>2021-08-23T15:32:41.000Z</time>
      </trkpt>
      <trkpt lat="42.7172884158790111541748046875" lon="0.02834198065102100372314453125">
        <ele>2391</ele>
        <time>2021-08-23T15:33:01.000Z</time>
      </trkpt>
      <trkpt lat="42.717622183263301849365234375" lon="0.0282798707485198974609375">
        <ele>2384.60009765625</ele>
        <time>2021-08-23T15:33:31.000Z</time>
      </trkpt>
      <trkpt lat="42.717685885727405548095703125" lon="0.0282723270356655120849609375">
        <ele>2385.39990234375</ele>
        <time>2021-08-23T15:33:40.000Z</time>
      </trkpt>
      <trkpt lat="42.71791194565594196319580078125" lon="0.028173923492431640625">
        <ele>2384</ele>
        <time>2021-08-23T15:34:25.000Z</time>
      </trkpt>
      <trkpt lat="42.71831628866493701934814453125" lon="0.02791785635054111480712890625">
        <ele>2372</ele>
        <time>2021-08-23T15:35:12.000Z</time>
      </trkpt>
      <trkpt lat="42.7187270857393741607666015625" lon="0.02765935845673084259033203125">
        <ele>2353</ele>
        <time>2021-08-23T15:35:57.000Z</time>
      </trkpt>
      <trkpt lat="42.718778885900974273681640625" lon="0.02764611504971981048583984375">
        <ele>2350.199951171875</ele>
        <time>2021-08-23T15:36:03.000Z</time>
      </trkpt>
      <trkpt lat="42.71888793446123600006103515625" lon="0.02756330184638500213623046875">
        <ele>2340.60009765625</ele>
        <time>2021-08-23T15:36:17.000Z</time>
      </trkpt>
      <trkpt lat="42.7193168364465236663818359375" lon="0.0274805724620819091796875">
        <ele>2344.60009765625</ele>
        <time>2021-08-23T15:37:03.000Z</time>
      </trkpt>
      <trkpt lat="42.7195039205253124237060546875" lon="0.027104727923870086669921875">
        <ele>2336.60009765625</ele>
        <time>2021-08-23T15:37:50.000Z</time>
      </trkpt>
      <trkpt lat="42.7195243723690509796142578125" lon="0.0270767323672771453857421875">
        <ele>2335.800048828125</ele>
        <time>2021-08-23T15:37:53.000Z</time>
      </trkpt>
      <trkpt lat="42.71961607038974761962890625" lon="0.02699517644941806793212890625">
        <ele>2334.60009765625</ele>
        <time>2021-08-23T15:38:03.000Z</time>
      </trkpt>
      <trkpt lat="42.7197131328284740447998046875" lon="0.02689777873456478118896484375">
        <ele>2332.800048828125</ele>
        <time>2021-08-23T15:38:16.000Z</time>
      </trkpt>
      <trkpt lat="42.71971941925585269927978515625" lon="0.02689258195459842681884765625">
        <ele>2332.800048828125</ele>
        <time>2021-08-23T15:38:17.000Z</time>
      </trkpt>
      <trkpt lat="42.7197258733212947845458984375" lon="0.02688721753656864166259765625">
        <ele>2332.60009765625</ele>
        <time>2021-08-23T15:38:18.000Z</time>
      </trkpt>
      <trkpt lat="42.71986593492329120635986328125" lon="0.02676014788448810577392578125">
        <ele>2328.39990234375</ele>
        <time>2021-08-23T15:38:36.000Z</time>
      </trkpt>
      <trkpt lat="42.719907425343990325927734375" lon="0.0267510116100311279296875">
        <ele>2328</ele>
        <time>2021-08-23T15:38:41.000Z</time>
      </trkpt>
      <trkpt lat="42.7199394442141056060791015625" lon="0.02674774266779422760009765625">
        <ele>2328</ele>
        <time>2021-08-23T15:38:45.000Z</time>
      </trkpt>
      <trkpt lat="42.71998009644448757171630859375" lon="0.02672628499567508697509765625">
        <ele>2327</ele>
        <time>2021-08-23T15:38:51.000Z</time>
      </trkpt>
      <trkpt lat="42.720060311257839202880859375" lon="0.02662771381437778472900390625">
        <ele>2322</ele>
        <time>2021-08-23T15:39:03.000Z</time>
      </trkpt>
      <trkpt lat="42.72010062821209430694580078125" lon="0.02658270299434661865234375">
        <ele>2320.39990234375</ele>
        <time>2021-08-23T15:39:09.000Z</time>
      </trkpt>
      <trkpt lat="42.7203867025673389434814453125" lon="0.02630685456097126007080078125">
        <ele>2310</ele>
        <time>2021-08-23T15:39:53.000Z</time>
      </trkpt>
      <trkpt lat="42.720463983714580535888671875" lon="0.02623938024044036865234375">
        <ele>2309</ele>
        <time>2021-08-23T15:40:04.000Z</time>
      </trkpt>
      <trkpt lat="42.720635645091533660888671875" lon="0.026123709976673126220703125">
        <ele>2306.800048828125</ele>
        <time>2021-08-23T15:40:27.000Z</time>
      </trkpt>
      <trkpt lat="42.72098709829151630401611328125" lon="0.02576370723545551300048828125">
        <ele>2290.199951171875</ele>
        <time>2021-08-23T15:41:27.000Z</time>
      </trkpt>
      <trkpt lat="42.721302174031734466552734375" lon="0.02533354796469211578369140625">
        <ele>2279.60009765625</ele>
        <time>2021-08-23T15:42:31.000Z</time>
      </trkpt>
      <trkpt lat="42.7213251404464244842529296875" lon="0.02531695179641246795654296875">
        <ele>2279.39990234375</ele>
        <time>2021-08-23T15:42:34.000Z</time>
      </trkpt>
      <trkpt lat="42.7214245498180389404296875" lon="0.0251726992428302764892578125">
        <ele>2280.39990234375</ele>
        <time>2021-08-23T15:42:54.000Z</time>
      </trkpt>
      <trkpt lat="42.72142966277897357940673828125" lon="0.0251703523099422454833984375">
        <ele>2280.60009765625</ele>
        <time>2021-08-23T15:42:55.000Z</time>
      </trkpt>
      <trkpt lat="42.721471823751926422119140625" lon="0.02506935037672519683837890625">
        <ele>2278</ele>
        <time>2021-08-23T15:43:08.000Z</time>
      </trkpt>
      <trkpt lat="42.72150057367980480194091796875" lon="0.02501704730093479156494140625">
        <ele>2276.39990234375</ele>
        <time>2021-08-23T15:43:14.000Z</time>
      </trkpt>
      <trkpt lat="42.721531502902507781982421875" lon="0.02494345419108867645263671875">
        <ele>2273.800048828125</ele>
        <time>2021-08-23T15:43:21.000Z</time>
      </trkpt>
      <trkpt lat="42.72170693613588809967041015625" lon="0.02459996379911899566650390625">
        <ele>2268.60009765625</ele>
        <time>2021-08-23T15:44:06.000Z</time>
      </trkpt>
      <trkpt lat="42.721677683293819427490234375" lon="0.02455185167491436004638671875">
        <ele>2266.199951171875</ele>
        <time>2021-08-23T15:44:41.000Z</time>
      </trkpt>
      <trkpt lat="42.7216094546020030975341796875" lon="0.02458806149661540985107421875">
        <ele>2264.60009765625</ele>
        <time>2021-08-23T15:44:59.000Z</time>
      </trkpt>
      <trkpt lat="42.72116295062005519866943359375" lon="0.0246761552989482879638671875">
        <ele>2248.60009765625</ele>
        <time>2021-08-23T15:45:35.000Z</time>
      </trkpt>
      <trkpt lat="42.720827758312225341796875" lon="0.024641789495944976806640625">
        <ele>2245</ele>
        <time>2021-08-23T15:46:01.000Z</time>
      </trkpt>
      <trkpt lat="42.72078149020671844482421875" lon="0.02462024800479412078857421875">
        <ele>2244.39990234375</ele>
        <time>2021-08-23T15:46:07.000Z</time>
      </trkpt>
      <trkpt lat="42.72083337418735027313232421875" lon="0.02451228909194469451904296875">
        <ele>2240.800048828125</ele>
        <time>2021-08-23T15:46:15.000Z</time>
      </trkpt>
      <trkpt lat="42.72093010134994983673095703125" lon="0.02434465102851390838623046875">
        <ele>2237.199951171875</ele>
        <time>2021-08-23T15:46:37.000Z</time>
      </trkpt>
      <trkpt lat="42.72094803862273693084716796875" lon="0.0241993926465511322021484375">
        <ele>2234</ele>
        <time>2021-08-23T15:46:50.000Z</time>
      </trkpt>
      <trkpt lat="42.72111550904810428619384765625" lon="0.0239472649991512298583984375">
        <ele>2233.60009765625</ele>
        <time>2021-08-23T15:47:10.000Z</time>
      </trkpt>
      <trkpt lat="42.72112322039902210235595703125" lon="0.02393410541117191314697265625">
        <ele>2233.800048828125</ele>
        <time>2021-08-23T15:47:11.000Z</time>
      </trkpt>
      <trkpt lat="42.721173427999019622802734375" lon="0.02384006045758724212646484375">
        <ele>2234.39990234375</ele>
        <time>2021-08-23T15:47:19.000Z</time>
      </trkpt>
      <trkpt lat="42.72123704664409160614013671875" lon="0.02369723282754421234130859375">
        <ele>2235.60009765625</ele>
        <time>2021-08-23T15:47:28.000Z</time>
      </trkpt>
      <trkpt lat="42.7213013358414173126220703125" lon="0.0233943946659564971923828125">
        <ele>2232.60009765625</ele>
        <time>2021-08-23T15:47:45.000Z</time>
      </trkpt>
      <trkpt lat="42.72133662365376949310302734375" lon="0.02327981404960155487060546875">
        <ele>2230.60009765625</ele>
        <time>2021-08-23T15:47:54.000Z</time>
      </trkpt>
      <trkpt lat="42.721510045230388641357421875" lon="0.0230602920055389404296875">
        <ele>2224.800048828125</ele>
        <time>2021-08-23T15:48:16.000Z</time>
      </trkpt>
      <trkpt lat="42.721569053828716278076171875" lon="0.02288050018250942230224609375">
        <ele>2220.199951171875</ele>
        <time>2021-08-23T15:48:30.000Z</time>
      </trkpt>
      <trkpt lat="42.72162160836160182952880859375" lon="0.022792406380176544189453125">
        <ele>2218.199951171875</ele>
        <time>2021-08-23T15:48:38.000Z</time>
      </trkpt>
      <trkpt lat="42.7216577343642711639404296875" lon="0.0227124430239200592041015625">
        <ele>2217.39990234375</ele>
        <time>2021-08-23T15:48:50.000Z</time>
      </trkpt>
      <trkpt lat="42.72169067524373531341552734375" lon="0.02234053798019886016845703125">
        <ele>2213.39990234375</ele>
        <time>2021-08-23T15:49:22.000Z</time>
      </trkpt>
      <trkpt lat="42.721699140965938568115234375" lon="0.02225286327302455902099609375">
        <ele>2212.199951171875</ele>
        <time>2021-08-23T15:49:32.000Z</time>
      </trkpt>
      <trkpt lat="42.7217211015522480010986328125" lon="0.022139288485050201416015625">
        <ele>2210.60009765625</ele>
        <time>2021-08-23T15:49:44.000Z</time>
      </trkpt>
      <trkpt lat="42.7216981351375579833984375" lon="0.0219480134546756744384765625">
        <ele>2206.800048828125</ele>
        <time>2021-08-23T15:49:57.000Z</time>
      </trkpt>
      <trkpt lat="42.72168673574924468994140625" lon="0.02180560491979122161865234375">
        <ele>2203.199951171875</ele>
        <time>2021-08-23T15:50:09.000Z</time>
      </trkpt>
      <trkpt lat="42.72167139686644077301025390625" lon="0.0215792097151279449462890625">
        <ele>2197.39990234375</ele>
        <time>2021-08-23T15:50:36.000Z</time>
      </trkpt>
      <trkpt lat="42.721648514270782470703125" lon="0.02152799628674983978271484375">
        <ele>2196</ele>
        <time>2021-08-23T15:50:46.000Z</time>
      </trkpt>
      <trkpt lat="42.72162848152220249176025390625" lon="0.0214799679815769195556640625">
        <ele>2194.39990234375</ele>
        <time>2021-08-23T15:50:55.000Z</time>
      </trkpt>
      <trkpt lat="42.7217103727161884307861328125" lon="0.02139690332114696502685546875">
        <ele>2191.199951171875</ele>
        <time>2021-08-23T15:51:08.000Z</time>
      </trkpt>
      <trkpt lat="42.72176594473421573638916015625" lon="0.02130604349076747894287109375">
        <ele>2186.800048828125</ele>
        <time>2021-08-23T15:51:19.000Z</time>
      </trkpt>
      <trkpt lat="42.72165413014590740203857421875" lon="0.021126084029674530029296875">
        <ele>2183</ele>
        <time>2021-08-23T15:51:45.000Z</time>
      </trkpt>
      <trkpt lat="42.72162110544741153717041015625" lon="0.0210806541144847869873046875">
        <ele>2182</ele>
        <time>2021-08-23T15:51:51.000Z</time>
      </trkpt>
      <trkpt lat="42.7216198481619358062744140625" lon="0.02102189697325229644775390625">
        <ele>2180.39990234375</ele>
        <time>2021-08-23T15:51:55.000Z</time>
      </trkpt>
      <trkpt lat="42.721621692180633544921875" lon="0.02098903991281986236572265625">
        <ele>2179.60009765625</ele>
        <time>2021-08-23T15:51:57.000Z</time>
      </trkpt>
      <trkpt lat="42.721621692180633544921875" lon="0.02097227610647678375244140625">
        <ele>2179.199951171875</ele>
        <time>2021-08-23T15:51:58.000Z</time>
      </trkpt>
      <trkpt lat="42.72162194363772869110107421875" lon="0.020954422652721405029296875">
        <ele>2178.800048828125</ele>
        <time>2021-08-23T15:51:59.000Z</time>
      </trkpt>
      <trkpt lat="42.7216242067515850067138671875" lon="0.02093665301799774169921875">
        <ele>2178.39990234375</ele>
        <time>2021-08-23T15:52:00.000Z</time>
      </trkpt>
      <trkpt lat="42.7216258831322193145751953125" lon="0.02091879956424236297607421875">
        <ele>2178</ele>
        <time>2021-08-23T15:52:01.000Z</time>
      </trkpt>
      <trkpt lat="42.7216275595128536224365234375" lon="0.02090421505272388458251953125">
        <ele>2177.800048828125</ele>
        <time>2021-08-23T15:52:02.000Z</time>
      </trkpt>
      <trkpt lat="42.721660248935222625732421875" lon="0.0206919014453887939453125">
        <ele>2173</ele>
        <time>2021-08-23T15:52:14.000Z</time>
      </trkpt>
      <trkpt lat="42.7216731570661067962646484375" lon="0.02058670856058597564697265625">
        <ele>2171.199951171875</ele>
        <time>2021-08-23T15:52:20.000Z</time>
      </trkpt>
      <trkpt lat="42.7216781862080097198486328125" lon="0.02054102718830108642578125">
        <ele>2170.60009765625</ele>
        <time>2021-08-23T15:52:23.000Z</time>
      </trkpt>
      <trkpt lat="42.72169117815792560577392578125" lon="0.02042544074356555938720703125">
        <ele>2169</ele>
        <time>2021-08-23T15:52:30.000Z</time>
      </trkpt>
      <trkpt lat="42.72169285453855991363525390625" lon="0.0204087607562541961669921875">
        <ele>2168.60009765625</ele>
        <time>2021-08-23T15:52:31.000Z</time>
      </trkpt>
      <trkpt lat="42.72169285453855991363525390625" lon="0.02039157785475254058837890625">
        <ele>2168.199951171875</ele>
        <time>2021-08-23T15:52:32.000Z</time>
      </trkpt>
      <trkpt lat="42.7216922678053379058837890625" lon="0.02037338912487030029296875">
        <ele>2167.800048828125</ele>
        <time>2021-08-23T15:52:33.000Z</time>
      </trkpt>
      <trkpt lat="42.72169017232954502105712890625" lon="0.02035670913755893707275390625">
        <ele>2167.60009765625</ele>
        <time>2021-08-23T15:52:34.000Z</time>
      </trkpt>
      <trkpt lat="42.72167843766510486602783203125" lon="0.02023031003773212432861328125">
        <ele>2165.199951171875</ele>
        <time>2021-08-23T15:52:42.000Z</time>
      </trkpt>
      <trkpt lat="42.72167625837028026580810546875" lon="0.02019912935793399810791015625">
        <ele>2164.60009765625</ele>
        <time>2021-08-23T15:52:44.000Z</time>
      </trkpt>
      <trkpt lat="42.7216681279242038726806640625" lon="0.0201646797358989715576171875">
        <ele>2164</ele>
        <time>2021-08-23T15:52:46.000Z</time>
      </trkpt>
      <trkpt lat="42.72166259586811065673828125" lon="0.02014162950217723846435546875">
        <ele>2163.39990234375</ele>
        <time>2021-08-23T15:52:48.000Z</time>
      </trkpt>
      <trkpt lat="42.72166133858263492584228515625" lon="0.020137019455432891845703125">
        <ele>2163.39990234375</ele>
        <time>2021-08-23T15:52:49.000Z</time>
      </trkpt>
      <trkpt lat="42.72165781818330287933349609375" lon="0.02012939192354679107666015625">
        <ele>2163.199951171875</ele>
        <time>2021-08-23T15:52:50.000Z</time>
      </trkpt>
      <trkpt lat="42.721648178994655609130859375" lon="0.02011011354625225067138671875">
        <ele>2163</ele>
        <time>2021-08-23T15:52:52.000Z</time>
      </trkpt>
      <trkpt lat="42.72138674743473529815673828125" lon="0.01971624791622161865234375">
        <ele>2155.199951171875</ele>
        <time>2021-08-23T15:53:24.000Z</time>
      </trkpt>
      <trkpt lat="42.72127442993223667144775390625" lon="0.01944358460605144500732421875">
        <ele>2148.39990234375</ele>
        <time>2021-08-23T15:53:46.000Z</time>
      </trkpt>
      <trkpt lat="42.7212661318480968475341796875" lon="0.01942212693393230438232421875">
        <ele>2147.800048828125</ele>
        <time>2021-08-23T15:53:48.000Z</time>
      </trkpt>
      <trkpt lat="42.72124391980469226837158203125" lon="0.01934476196765899658203125">
        <ele>2145.800048828125</ele>
        <time>2021-08-23T15:53:53.000Z</time>
      </trkpt>
      <trkpt lat="42.721251212060451507568359375" lon="0.01920838840305805206298828125">
        <ele>2143</ele>
        <time>2021-08-23T15:54:04.000Z</time>
      </trkpt>
      <trkpt lat="42.7212822251021862030029296875" lon="0.01886338926851749420166015625">
        <ele>2136.199951171875</ele>
        <time>2021-08-23T15:54:25.000Z</time>
      </trkpt>
      <trkpt lat="42.7212366275489330291748046875" lon="0.01871368847787380218505859375">
        <ele>2132.39990234375</ele>
        <time>2021-08-23T15:54:38.000Z</time>
      </trkpt>
      <trkpt lat="42.72108365781605243682861328125" lon="0.0185808353126049041748046875">
        <ele>2129.800048828125</ele>
        <time>2021-08-23T15:54:58.000Z</time>
      </trkpt>
      <trkpt lat="42.72107359953224658966064453125" lon="0.0185781531035900115966796875">
        <ele>2129.800048828125</ele>
        <time>2021-08-23T15:54:59.000Z</time>
      </trkpt>
      <trkpt lat="42.720989026129245758056640625" lon="0.01838562078773975372314453125">
        <ele>2126.60009765625</ele>
        <time>2021-08-23T15:55:24.000Z</time>
      </trkpt>
      <trkpt lat="42.72098743356764316558837890625" lon="0.01837338320910930633544921875">
        <ele>2126.39990234375</ele>
        <time>2021-08-23T15:55:25.000Z</time>
      </trkpt>
      <trkpt lat="42.7209878526628017425537109375" lon="0.01834438182413578033447265625">
        <ele>2126</ele>
        <time>2021-08-23T15:55:27.000Z</time>
      </trkpt>
      <trkpt lat="42.72098533809185028076171875" lon="0.01833264715969562530517578125">
        <ele>2125.800048828125</ele>
        <time>2021-08-23T15:55:28.000Z</time>
      </trkpt>
      <trkpt lat="42.72098156623542308807373046875" lon="0.0183193199336528778076171875">
        <ele>2125.60009765625</ele>
        <time>2021-08-23T15:55:29.000Z</time>
      </trkpt>
      <trkpt lat="42.720937393605709075927734375" lon="0.01819543540477752685546875">
        <ele>2124</ele>
        <time>2021-08-23T15:55:39.000Z</time>
      </trkpt>
      <trkpt lat="42.72091132588684558868408203125" lon="0.017899386584758758544921875">
        <ele>2120</ele>
        <time>2021-08-23T15:55:58.000Z</time>
      </trkpt>
      <trkpt lat="42.72068627178668975830078125" lon="0.01738280989229679107666015625">
        <ele>2114</ele>
        <time>2021-08-23T15:56:40.000Z</time>
      </trkpt>
      <trkpt lat="42.7206788957118988037109375" lon="0.01737040467560291290283203125">
        <ele>2113.800048828125</ele>
        <time>2021-08-23T15:56:41.000Z</time>
      </trkpt>
      <trkpt lat="42.7206716872751712799072265625" lon="0.01735732890665531158447265625">
        <ele>2113.39990234375</ele>
        <time>2021-08-23T15:56:42.000Z</time>
      </trkpt>
      <trkpt lat="42.7206654846668243408203125" lon="0.017346851527690887451171875">
        <ele>2113.199951171875</ele>
        <time>2021-08-23T15:56:43.000Z</time>
      </trkpt>
      <trkpt lat="42.7206589467823505401611328125" lon="0.0173369608819484710693359375">
        <ele>2113</ele>
        <time>2021-08-23T15:56:44.000Z</time>
      </trkpt>
      <trkpt lat="42.7206509001553058624267578125" lon="0.017328076064586639404296875">
        <ele>2112.60009765625</ele>
        <time>2021-08-23T15:56:45.000Z</time>
      </trkpt>
      <trkpt lat="42.72064268589019775390625" lon="0.01732061617076396942138671875">
        <ele>2112.39990234375</ele>
        <time>2021-08-23T15:56:46.000Z</time>
      </trkpt>
      <trkpt lat="42.72062064148485660552978515625" lon="0.017297565937042236328125">
        <ele>2111.800048828125</ele>
        <time>2021-08-23T15:56:49.000Z</time>
      </trkpt>
      <trkpt lat="42.72060924209654331207275390625" lon="0.0172859989106655120849609375">
        <ele>2111.39990234375</ele>
        <time>2021-08-23T15:56:51.000Z</time>
      </trkpt>
      <trkpt lat="42.720572948455810546875" lon="0.01722514629364013671875">
        <ele>2109.39990234375</ele>
        <time>2021-08-23T15:56:57.000Z</time>
      </trkpt>
      <trkpt lat="42.720561213791370391845703125" lon="0.01719254069030284881591796875">
        <ele>2108.39990234375</ele>
        <time>2021-08-23T15:57:00.000Z</time>
      </trkpt>
      <trkpt lat="42.7205499820411205291748046875" lon="0.017149038612842559814453125">
        <ele>2107.39990234375</ele>
        <time>2021-08-23T15:57:04.000Z</time>
      </trkpt>
      <trkpt lat="42.7205342240631580352783203125" lon="0.0171287544071674346923828125">
        <ele>2106.60009765625</ele>
        <time>2021-08-23T15:57:06.000Z</time>
      </trkpt>
      <trkpt lat="42.72051268257200717926025390625" lon="0.01709581352770328521728515625">
        <ele>2105.60009765625</ele>
        <time>2021-08-23T15:57:09.000Z</time>
      </trkpt>
      <trkpt lat="42.72050228901207447052001953125" lon="0.01707804389297962188720703125">
        <ele>2104.800048828125</ele>
        <time>2021-08-23T15:57:11.000Z</time>
      </trkpt>
      <trkpt lat="42.72049793042242527008056640625" lon="0.0170575082302093505859375">
        <ele>2104.199951171875</ele>
        <time>2021-08-23T15:57:13.000Z</time>
      </trkpt>
      <trkpt lat="42.7204933203756809234619140625" lon="0.0170459412038326263427734375">
        <ele>2103.800048828125</ele>
        <time>2021-08-23T15:57:14.000Z</time>
      </trkpt>
      <trkpt lat="42.720488794147968292236328125" lon="0.0170207954943180084228515625">
        <ele>2103</ele>
        <time>2021-08-23T15:57:16.000Z</time>
      </trkpt>
      <trkpt lat="42.7204842679202556610107421875" lon="0.01699221320450305938720703125">
        <ele>2102.199951171875</ele>
        <time>2021-08-23T15:57:18.000Z</time>
      </trkpt>
      <trkpt lat="42.72047680802643299102783203125" lon="0.016972683370113372802734375">
        <ele>2101.60009765625</ele>
        <time>2021-08-23T15:57:20.000Z</time>
      </trkpt>
      <trkpt lat="42.72046155296266078948974609375" lon="0.0169540755450725555419921875">
        <ele>2100.800048828125</ele>
        <time>2021-08-23T15:57:23.000Z</time>
      </trkpt>
      <trkpt lat="42.720451243221759796142578125" lon="0.01693789847195148468017578125">
        <ele>2100</ele>
        <time>2021-08-23T15:57:25.000Z</time>
      </trkpt>
      <trkpt lat="42.7204500697553157806396484375" lon="0.0169249065220355987548828125">
        <ele>2099.60009765625</ele>
        <time>2021-08-23T15:57:26.000Z</time>
      </trkpt>
      <trkpt lat="42.72044956684112548828125" lon="0.01691409386694431304931640625">
        <ele>2099.39990234375</ele>
        <time>2021-08-23T15:57:27.000Z</time>
      </trkpt>
      <trkpt lat="42.7204509079456329345703125" lon="0.0169051252305507659912109375">
        <ele>2099.199951171875</ele>
        <time>2021-08-23T15:57:28.000Z</time>
      </trkpt>
      <trkpt lat="42.7204520814120769500732421875" lon="0.0168994255363941192626953125">
        <ele>2099</ele>
        <time>2021-08-23T15:57:29.000Z</time>
      </trkpt>
      <trkpt lat="42.7204678393900394439697265625" lon="0.01686640083789825439453125">
        <ele>2098.39990234375</ele>
        <time>2021-08-23T15:57:32.000Z</time>
      </trkpt>
      <trkpt lat="42.7204805798828601837158203125" lon="0.01684117130935192108154296875">
        <ele>2098</ele>
        <time>2021-08-23T15:57:34.000Z</time>
      </trkpt>
      <trkpt lat="42.7204852737486362457275390625" lon="0.01683178357779979705810546875">
        <ele>2097.800048828125</ele>
        <time>2021-08-23T15:57:35.000Z</time>
      </trkpt>
      <trkpt lat="42.720491476356983184814453125" lon="0.016820132732391357421875">
        <ele>2097.60009765625</ele>
        <time>2021-08-23T15:57:36.000Z</time>
      </trkpt>
      <trkpt lat="42.720496840775012969970703125" lon="0.01680781133472919464111328125">
        <ele>2097.39990234375</ele>
        <time>2021-08-23T15:57:37.000Z</time>
      </trkpt>
      <trkpt lat="42.720503546297550201416015625" lon="0.016795657575130462646484375">
        <ele>2097.39990234375</ele>
        <time>2021-08-23T15:57:38.000Z</time>
      </trkpt>
      <trkpt lat="42.7205405943095684051513671875" lon="0.01648443751037120819091796875">
        <ele>2092.39990234375</ele>
        <time>2021-08-23T15:58:02.000Z</time>
      </trkpt>
      <trkpt lat="42.72053699009120464324951171875" lon="0.01635015942156314849853515625">
        <ele>2091.199951171875</ele>
        <time>2021-08-23T15:58:10.000Z</time>
      </trkpt>
      <trkpt lat="42.72053263150155544281005859375" lon="0.01613616943359375">
        <ele>2089</ele>
        <time>2021-08-23T15:58:23.000Z</time>
      </trkpt>
      <trkpt lat="42.72054067812860012054443359375" lon="0.01595872454345226287841796875">
        <ele>2086.60009765625</ele>
        <time>2021-08-23T15:58:36.000Z</time>
      </trkpt>
      <trkpt lat="42.7205452881753444671630859375" lon="0.0159257836639881134033203125">
        <ele>2085.800048828125</ele>
        <time>2021-08-23T15:58:39.000Z</time>
      </trkpt>
      <trkpt lat="42.72055744193494319915771484375" lon="0.015878342092037200927734375">
        <ele>2085</ele>
        <time>2021-08-23T15:58:43.000Z</time>
      </trkpt>
      <trkpt lat="42.72058711387217044830322265625" lon="0.01578086055815219879150390625">
        <ele>2083.39990234375</ele>
        <time>2021-08-23T15:58:52.000Z</time>
      </trkpt>
      <trkpt lat="42.72060488350689411163330078125" lon="0.0155868194997310638427734375">
        <ele>2078.60009765625</ele>
        <time>2021-08-23T15:59:07.000Z</time>
      </trkpt>
      <trkpt lat="42.720686607062816619873046875" lon="0.0153061933815479278564453125">
        <ele>2072.199951171875</ele>
        <time>2021-08-23T15:59:27.000Z</time>
      </trkpt>
      <trkpt lat="42.7208290994167327880859375" lon="0.01516395248472690582275390625">
        <ele>2069.800048828125</ele>
        <time>2021-08-23T15:59:44.000Z</time>
      </trkpt>
      <trkpt lat="42.7209600247442722320556640625" lon="0.0150487013161182403564453125">
        <ele>2067</ele>
        <time>2021-08-23T16:00:10.000Z</time>
      </trkpt>
      <trkpt lat="42.7210304327309131622314453125" lon="0.0150527246296405792236328125">
        <ele>2066</ele>
        <time>2021-08-23T16:00:34.000Z</time>
      </trkpt>
      <trkpt lat="42.72104979492723941802978515625" lon="0.01505213789641857147216796875">
        <ele>2065.800048828125</ele>
        <time>2021-08-23T16:00:36.000Z</time>
      </trkpt>
      <trkpt lat="42.721144258975982666015625" lon="0.0149725936353206634521484375">
        <ele>2063.800048828125</ele>
        <time>2021-08-23T16:00:51.000Z</time>
      </trkpt>
      <trkpt lat="42.72113026119768619537353515625" lon="0.01492892391979694366455078125">
        <ele>2063.199951171875</ele>
        <time>2021-08-23T16:00:54.000Z</time>
      </trkpt>
      <trkpt lat="42.721018530428409576416015625" lon="0.0147731043398380279541015625">
        <ele>2060.800048828125</ele>
        <time>2021-08-23T16:01:15.000Z</time>
      </trkpt>
      <trkpt lat="42.72099673748016357421875" lon="0.0146822445094585418701171875">
        <ele>2058.60009765625</ele>
        <time>2021-08-23T16:01:25.000Z</time>
      </trkpt>
      <trkpt lat="42.72093035280704498291015625" lon="0.01442248933017253875732421875">
        <ele>2051.60009765625</ele>
        <time>2021-08-23T16:01:44.000Z</time>
      </trkpt>
      <trkpt lat="42.7208832465112209320068359375" lon="0.014185868203639984130859375">
        <ele>2045.199951171875</ele>
        <time>2021-08-23T16:02:02.000Z</time>
      </trkpt>
      <trkpt lat="42.720812670886516571044921875" lon="0.0138376839458942413330078125">
        <ele>2039</ele>
        <time>2021-08-23T16:02:20.000Z</time>
      </trkpt>
      <trkpt lat="42.720724828541278839111328125" lon="0.01366962678730487823486328125">
        <ele>2036.800048828125</ele>
        <time>2021-08-23T16:02:32.000Z</time>
      </trkpt>
      <trkpt lat="42.72067763842642307281494140625" lon="0.01361514441668987274169921875">
        <ele>2036.199951171875</ele>
        <time>2021-08-23T16:02:37.000Z</time>
      </trkpt>
      <trkpt lat="42.720656432211399078369140625" lon="0.01359016634523868560791015625">
        <ele>2035.800048828125</ele>
        <time>2021-08-23T16:02:39.000Z</time>
      </trkpt>
      <trkpt lat="42.72060622461140155792236328125" lon="0.01354943029582500457763671875">
        <ele>2035.199951171875</ele>
        <time>2021-08-23T16:02:43.000Z</time>
      </trkpt>
      <trkpt lat="42.7205761335790157318115234375" lon="0.0135238654911518096923828125">
        <ele>2034.800048828125</ele>
        <time>2021-08-23T16:02:46.000Z</time>
      </trkpt>
      <trkpt lat="42.72046004422008991241455078125" lon="0.01343895681202411651611328125">
        <ele>2033.4000244140625</ele>
        <time>2021-08-23T16:02:58.000Z</time>
      </trkpt>
      <trkpt lat="42.72039365954697132110595703125" lon="0.01333703286945819854736328125">
        <ele>2031.800048828125</ele>
        <time>2021-08-23T16:03:08.000Z</time>
      </trkpt>
      <trkpt lat="42.720385529100894927978515625" lon="0.01326880417764186859130859375">
        <ele>2031</ele>
        <time>2021-08-23T16:03:17.000Z</time>
      </trkpt>
      <trkpt lat="42.7201808430254459381103515625" lon="0.01292263157665729522705078125">
        <ele>2025.800048828125</ele>
        <time>2021-08-23T16:03:51.000Z</time>
      </trkpt>
      <trkpt lat="42.7200886420905590057373046875" lon="0.012834034860134124755859375">
        <ele>2024.800048828125</ele>
        <time>2021-08-23T16:04:12.000Z</time>
      </trkpt>
      <trkpt lat="42.71998219192028045654296875" lon="0.01266078092157840728759765625">
        <ele>2023.800048828125</ele>
        <time>2021-08-23T16:04:37.000Z</time>
      </trkpt>
      <trkpt lat="42.7199723012745380401611328125" lon="0.012634880840778350830078125">
        <ele>2023.800048828125</ele>
        <time>2021-08-23T16:04:39.000Z</time>
      </trkpt>
      <trkpt lat="42.71989644505083560943603515625" lon="0.01241049729287624359130859375">
        <ele>2023.4000244140625</ele>
        <time>2021-08-23T16:04:59.000Z</time>
      </trkpt>
      <trkpt lat="42.72002183832228183746337890625" lon="0.0124818272888660430908203125">
        <ele>2023.199951171875</ele>
        <time>2021-08-24T06:46:00.000Z</time>
      </trkpt>
      <trkpt lat="42.72003038786351680755615234375" lon="0.0124902091920375823974609375">
        <ele>2023.199951171875</ele>
        <time>2021-08-24T06:46:01.000Z</time>
      </trkpt>
      <trkpt lat="42.7200463972985744476318359375" lon="0.012498088181018829345703125">
        <ele>2023</ele>
        <time>2021-08-24T06:46:03.000Z</time>
      </trkpt>
      <trkpt lat="42.72006559185683727264404296875" lon="0.012509487569332122802734375">
        <ele>2023</ele>
        <time>2021-08-24T06:46:05.000Z</time>
      </trkpt>
      <trkpt lat="42.72016215138137340545654296875" lon="0.01251996494829654693603515625">
        <ele>2022.800048828125</ele>
        <time>2021-08-24T06:46:14.000Z</time>
      </trkpt>
      <trkpt lat="42.7201966010034084320068359375" lon="0.01250001601874828338623046875">
        <ele>2022.4000244140625</ele>
        <time>2021-08-24T06:46:17.000Z</time>
      </trkpt>
      <trkpt lat="42.7203005366027355194091796875" lon="0.01247269101440906524658203125">
        <ele>2020.800048828125</ele>
        <time>2021-08-24T06:46:32.000Z</time>
      </trkpt>
      <trkpt lat="42.72035594098269939422607421875" lon="0.0124546699225902557373046875">
        <ele>2020</ele>
        <time>2021-08-24T06:46:38.000Z</time>
      </trkpt>
      <trkpt lat="42.720365412533283233642578125" lon="0.01244612038135528564453125">
        <ele>2020</ele>
        <time>2021-08-24T06:46:39.000Z</time>
      </trkpt>
      <trkpt lat="42.72041427902877330780029296875" lon="0.01241636462509632110595703125">
        <ele>2019.800048828125</ele>
        <time>2021-08-24T06:46:44.000Z</time>
      </trkpt>
      <trkpt lat="42.7204455435276031494140625" lon="0.0123953260481357574462890625">
        <ele>2019.800048828125</ele>
        <time>2021-08-24T06:46:47.000Z</time>
      </trkpt>
      <trkpt lat="42.72046725265681743621826171875" lon="0.0123765505850315093994140625">
        <ele>2019.5999755859375</ele>
        <time>2021-08-24T06:46:49.000Z</time>
      </trkpt>
      <trkpt lat="42.720566578209400177001953125" lon="0.01226565800607204437255859375">
        <ele>2017.800048828125</ele>
        <time>2021-08-24T06:47:19.000Z</time>
      </trkpt>
      <trkpt lat="42.7206804044544696807861328125" lon="0.012093745172023773193359375">
        <ele>2018.199951171875</ele>
        <time>2021-08-24T06:47:59.000Z</time>
      </trkpt>
      <trkpt lat="42.720701359212398529052734375" lon="0.01200632192194461822509765625">
        <ele>2016.800048828125</ele>
        <time>2021-08-24T06:48:07.000Z</time>
      </trkpt>
      <trkpt lat="42.7207112498581409454345703125" lon="0.011911354959011077880859375">
        <ele>2014.5999755859375</ele>
        <time>2021-08-24T06:48:16.000Z</time>
      </trkpt>
      <trkpt lat="42.72071468643844127655029296875" lon="0.01189760863780975341796875">
        <ele>2014.4000244140625</ele>
        <time>2021-08-24T06:48:17.000Z</time>
      </trkpt>
      <trkpt lat="42.720784842967987060546875" lon="0.01175335608422756195068359375">
        <ele>2012.800048828125</ele>
        <time>2021-08-24T06:48:34.000Z</time>
      </trkpt>
      <trkpt lat="42.720721475780010223388671875" lon="0.01167456619441509246826171875">
        <ele>2008.5999755859375</ele>
        <time>2021-08-24T06:48:48.000Z</time>
      </trkpt>
      <trkpt lat="42.720701694488525390625" lon="0.01167624257504940032958984375">
        <ele>2008</ele>
        <time>2021-08-24T06:48:50.000Z</time>
      </trkpt>
      <trkpt lat="42.720607481896877288818359375" lon="0.0116308964788913726806640625">
        <ele>2003.5999755859375</ele>
        <time>2021-08-24T06:49:07.000Z</time>
      </trkpt>
      <trkpt lat="42.720629274845123291015625" lon="0.01158035360276699066162109375">
        <ele>2002.800048828125</ele>
        <time>2021-08-24T06:49:12.000Z</time>
      </trkpt>
      <trkpt lat="42.7207397483289241790771484375" lon="0.011315904557704925537109375">
        <ele>1995.4000244140625</ele>
        <time>2021-08-24T06:49:38.000Z</time>
      </trkpt>
      <trkpt lat="42.72091534920036792755126953125" lon="0.01105061732232570648193359375">
        <ele>1984</ele>
        <time>2021-08-24T06:50:08.000Z</time>
      </trkpt>
      <trkpt lat="42.7209442667663097381591796875" lon="0.010983310639858245849609375">
        <ele>1981.800048828125</ele>
        <time>2021-08-24T06:50:16.000Z</time>
      </trkpt>
      <trkpt lat="42.72094183601438999176025390625" lon="0.010921955108642578125">
        <ele>1979.4000244140625</ele>
        <time>2021-08-24T06:50:21.000Z</time>
      </trkpt>
      <trkpt lat="42.72093865089118480682373046875" lon="0.0108805485069751739501953125">
        <ele>1977.800048828125</ele>
        <time>2021-08-24T06:50:24.000Z</time>
      </trkpt>
      <trkpt lat="42.72094300948083400726318359375" lon="0.0107865035533905029296875">
        <ele>1974.5999755859375</ele>
        <time>2021-08-24T06:50:31.000Z</time>
      </trkpt>
      <trkpt lat="42.720946110785007476806640625" lon="0.0107729248702526092529296875">
        <ele>1974.199951171875</ele>
        <time>2021-08-24T06:50:32.000Z</time>
      </trkpt>
      <trkpt lat="42.72095977328717708587646484375" lon="0.01072414219379425048828125">
        <ele>1973.199951171875</ele>
        <time>2021-08-24T06:50:36.000Z</time>
      </trkpt>
      <trkpt lat="42.7209685742855072021484375" lon="0.01070695929229259490966796875">
        <ele>1973</ele>
        <time>2021-08-24T06:50:38.000Z</time>
      </trkpt>
      <trkpt lat="42.72104359231889247894287109375" lon="0.01058408059179782867431640625">
        <ele>1975.800048828125</ele>
        <time>2021-08-24T06:50:52.000Z</time>
      </trkpt>
      <trkpt lat="42.72109338082373142242431640625" lon="0.0104983337223529815673828125">
        <ele>1975.800048828125</ele>
        <time>2021-08-24T06:51:01.000Z</time>
      </trkpt>
      <trkpt lat="42.7210140042006969451904296875" lon="0.01046597957611083984375">
        <ele>1973.800048828125</ele>
        <time>2021-08-24T06:51:09.000Z</time>
      </trkpt>
      <trkpt lat="42.72103403694927692413330078125" lon="0.01040588133037090301513671875">
        <ele>1973.5999755859375</ele>
        <time>2021-08-24T06:51:16.000Z</time>
      </trkpt>
      <trkpt lat="42.7210758626461029052734375" lon="0.0101882033050060272216796875">
        <ele>1974.4000244140625</ele>
        <time>2021-08-24T06:51:37.000Z</time>
      </trkpt>
      <trkpt lat="42.72115725092589855194091796875" lon="0.00993196852505207061767578125">
        <ele>1972.4000244140625</ele>
        <time>2021-08-24T06:52:07.000Z</time>
      </trkpt>
      <trkpt lat="42.721235454082489013671875" lon="0.009840689599514007568359375">
        <ele>1970</ele>
        <time>2021-08-24T06:52:22.000Z</time>
      </trkpt>
      <trkpt lat="42.7214776910841464996337890625" lon="0.00961127690970897674560546875">
        <ele>1959.4000244140625</ele>
        <time>2021-08-24T06:52:56.000Z</time>
      </trkpt>
      <trkpt lat="42.72151180543005466461181640625" lon="0.00953684560954570770263671875">
        <ele>1957.5999755859375</ele>
        <time>2021-08-24T06:53:04.000Z</time>
      </trkpt>
      <trkpt lat="42.721616663038730621337890625" lon="0.009355880320072174072265625">
        <ele>1954.5999755859375</ele>
        <time>2021-08-24T06:53:29.000Z</time>
      </trkpt>
      <trkpt lat="42.72167072631418704986572265625" lon="0.00919871963560581207275390625">
        <ele>1950.4000244140625</ele>
        <time>2021-08-24T06:53:43.000Z</time>
      </trkpt>
      <trkpt lat="42.72183702327311038970947265625" lon="0.00885321758687496185302734375">
        <ele>1935.5999755859375</ele>
        <time>2021-08-24T06:54:15.000Z</time>
      </trkpt>
      <trkpt lat="42.7218619175255298614501953125" lon="0.0087941251695156097412109375">
        <ele>1931.800048828125</ele>
        <time>2021-08-24T06:54:21.000Z</time>
      </trkpt>
      <trkpt lat="42.72203215397894382476806640625" lon="0.0082372315227985382080078125">
        <ele>1907.5999755859375</ele>
        <time>2021-08-24T06:55:08.000Z</time>
      </trkpt>
      <trkpt lat="42.72224639542400836944580078125" lon="0.00783137977123260498046875">
        <ele>1904.4000244140625</ele>
        <time>2021-08-24T06:55:44.000Z</time>
      </trkpt>
      <trkpt lat="42.72229333408176898956298828125" lon="0.0077829323709011077880859375">
        <ele>1905.4000244140625</ele>
        <time>2021-08-24T06:55:49.000Z</time>
      </trkpt>
      <trkpt lat="42.722418308258056640625" lon="0.00756039284169673919677734375">
        <ele>1906.5999755859375</ele>
        <time>2021-08-24T06:56:09.000Z</time>
      </trkpt>
      <trkpt lat="42.72256515920162200927734375" lon="0.00729535706341266632080078125">
        <ele>1906.5999755859375</ele>
        <time>2021-08-24T06:56:31.000Z</time>
      </trkpt>
      <trkpt lat="42.72263464517891407012939453125" lon="0.0071593187749385833740234375">
        <ele>1904.199951171875</ele>
        <time>2021-08-24T06:56:42.000Z</time>
      </trkpt>
      <trkpt lat="42.72284100763499736785888671875" lon="0.00679797492921352386474609375">
        <ele>1896.800048828125</ele>
        <time>2021-08-24T06:57:14.000Z</time>
      </trkpt>
      <trkpt lat="42.7229445241391658782958984375" lon="0.00664182007312774658203125">
        <ele>1893.5999755859375</ele>
        <time>2021-08-24T06:57:31.000Z</time>
      </trkpt>
      <trkpt lat="42.72317946888506412506103515625" lon="0.00628801994025707244873046875">
        <ele>1894</ele>
        <time>2021-08-24T06:58:03.000Z</time>
      </trkpt>
      <trkpt lat="42.72327753715217113494873046875" lon="0.00611518509685993194580078125">
        <ele>1893.800048828125</ele>
        <time>2021-08-24T06:58:21.000Z</time>
      </trkpt>
      <trkpt lat="42.72332313470542430877685546875" lon="0.0060384906828403472900390625">
        <ele>1891.5999755859375</ele>
        <time>2021-08-24T06:58:30.000Z</time>
      </trkpt>
      <trkpt lat="42.72330905310809612274169921875" lon="0.00591452233493328094482421875">
        <ele>1887.4000244140625</ele>
        <time>2021-08-24T06:58:42.000Z</time>
      </trkpt>
      <trkpt lat="42.72317812778055667877197265625" lon="0.00585325062274932861328125">
        <ele>1884.5999755859375</ele>
        <time>2021-08-24T06:58:54.000Z</time>
      </trkpt>
      <trkpt lat="42.72313890047371387481689453125" lon="0.00585190951824188232421875">
        <ele>1884.199951171875</ele>
        <time>2021-08-24T06:58:58.000Z</time>
      </trkpt>
      <trkpt lat="42.72310235537588596343994140625" lon="0.005862973630428314208984375">
        <ele>1883.800048828125</ele>
        <time>2021-08-24T06:59:01.000Z</time>
      </trkpt>
      <trkpt lat="42.72303521633148193359375" lon="0.00589557923376560211181640625">
        <ele>1882.5999755859375</ele>
        <time>2021-08-24T06:59:07.000Z</time>
      </trkpt>
      <trkpt lat="42.723025493323802947998046875" lon="0.005904547870159149169921875">
        <ele>1882.4000244140625</ele>
        <time>2021-08-24T06:59:08.000Z</time>
      </trkpt>
      <trkpt lat="42.7230045385658740997314453125" lon="0.00591871328651905059814453125">
        <ele>1882.199951171875</ele>
        <time>2021-08-24T06:59:10.000Z</time>
      </trkpt>
      <trkpt lat="42.72299489937722682952880859375" lon="0.00592391006648540496826171875">
        <ele>1882</ele>
        <time>2021-08-24T06:59:11.000Z</time>
      </trkpt>
      <trkpt lat="42.7229440212249755859375" lon="0.005953498184680938720703125">
        <ele>1881</ele>
        <time>2021-08-24T06:59:16.000Z</time>
      </trkpt>
      <trkpt lat="42.72282457910478115081787109375" lon="0.0059694238007068634033203125">
        <ele>1877.199951171875</ele>
        <time>2021-08-24T06:59:27.000Z</time>
      </trkpt>
      <trkpt lat="42.7228013612329959869384765625" lon="0.0059737823903560638427734375">
        <ele>1876</ele>
        <time>2021-08-24T06:59:29.000Z</time>
      </trkpt>
      <trkpt lat="42.7227896265685558319091796875" lon="0.0059741176664829254150390625">
        <ele>1875.4000244140625</ele>
        <time>2021-08-24T06:59:30.000Z</time>
      </trkpt>
      <trkpt lat="42.72248997353017330169677734375" lon="0.005935393273830413818359375">
        <ele>1862.800048828125</ele>
        <time>2021-08-24T07:00:00.000Z</time>
      </trkpt>
      <trkpt lat="42.722143717110157012939453125" lon="0.00594486482441425323486328125">
        <ele>1861.800048828125</ele>
        <time>2021-08-24T07:00:32.000Z</time>
      </trkpt>
      <trkpt lat="42.72204053588211536407470703125" lon="0.00600689090788364410400390625">
        <ele>1864.4000244140625</ele>
        <time>2021-08-24T07:00:46.000Z</time>
      </trkpt>
      <trkpt lat="42.72158908657729625701904296875" lon="0.006069839000701904296875">
        <ele>1861.4000244140625</ele>
        <time>2021-08-24T07:01:32.000Z</time>
      </trkpt>
      <trkpt lat="42.721444331109523773193359375" lon="0.0060391612350940704345703125">
        <ele>1855.5999755859375</ele>
        <time>2021-08-24T07:01:45.000Z</time>
      </trkpt>
      <trkpt lat="42.7213509567081928253173828125" lon="0.00599331222474575042724609375">
        <ele>1851.4000244140625</ele>
        <time>2021-08-24T07:01:54.000Z</time>
      </trkpt>
      <trkpt lat="42.72121810354292392730712890625" lon="0.00594218261539936065673828125">
        <ele>1845.5999755859375</ele>
        <time>2021-08-24T07:02:05.000Z</time>
      </trkpt>
      <trkpt lat="42.72079783491790294647216796875" lon="0.00579365529119968414306640625">
        <ele>1832.4000244140625</ele>
        <time>2021-08-24T07:02:47.000Z</time>
      </trkpt>
      <trkpt lat="42.7204267680644989013671875" lon="0.0060622952878475189208984375">
        <ele>1831.4000244140625</ele>
        <time>2021-08-24T07:03:27.000Z</time>
      </trkpt>
      <trkpt lat="42.7202985249459743499755859375" lon="0.00628232024610042572021484375">
        <ele>1830.4000244140625</ele>
        <time>2021-08-24T07:03:44.000Z</time>
      </trkpt>
      <trkpt lat="42.72018377669155597686767578125" lon="0.00647610984742641448974609375">
        <ele>1830</ele>
        <time>2021-08-24T07:03:58.000Z</time>
      </trkpt>
      <trkpt lat="42.72016516886651515960693359375" lon="0.0064827315509319305419921875">
        <ele>1829.4000244140625</ele>
        <time>2021-08-24T07:04:00.000Z</time>
      </trkpt>
      <trkpt lat="42.72000272758305072784423828125" lon="0.00691817142069339752197265625">
        <ele>1830.4000244140625</ele>
        <time>2021-08-24T07:04:31.000Z</time>
      </trkpt>
      <trkpt lat="42.7199505083262920379638671875" lon="0.0068867392838001251220703125">
        <ele>1828.199951171875</ele>
        <time>2021-08-24T07:04:39.000Z</time>
      </trkpt>
      <trkpt lat="42.71985788829624652862548828125" lon="0.0068223662674427032470703125">
        <ele>1823.800048828125</ele>
        <time>2021-08-24T07:04:52.000Z</time>
      </trkpt>
      <trkpt lat="42.71982201375067234039306640625" lon="0.0066728331148624420166015625">
        <ele>1821.800048828125</ele>
        <time>2021-08-24T07:05:20.000Z</time>
      </trkpt>
      <trkpt lat="42.7196333371102809906005859375" lon="0.00611384399235248565673828125">
        <ele>1810.800048828125</ele>
        <time>2021-08-24T07:06:01.000Z</time>
      </trkpt>
      <trkpt lat="42.7195874042809009552001953125" lon="0.0059087388217449188232421875">
        <ele>1806.199951171875</ele>
        <time>2021-08-24T07:06:15.000Z</time>
      </trkpt>
      <trkpt lat="42.719597630202770233154296875" lon="0.005696006119251251220703125">
        <ele>1802.5999755859375</ele>
        <time>2021-08-24T07:06:28.000Z</time>
      </trkpt>
      <trkpt lat="42.7194905094802379608154296875" lon="0.0051027350127696990966796875">
        <ele>1792.199951171875</ele>
        <time>2021-08-24T07:07:07.000Z</time>
      </trkpt>
      <trkpt lat="42.71939235739409923553466796875" lon="0.0045220367610454559326171875">
        <ele>1781</ele>
        <time>2021-08-24T07:07:49.000Z</time>
      </trkpt>
      <trkpt lat="42.71971304900944232940673828125" lon="0.0041156820952892303466796875">
        <ele>1782.5999755859375</ele>
        <time>2021-08-24T07:08:34.000Z</time>
      </trkpt>
      <trkpt lat="42.7200443856418132781982421875" lon="0.0037591159343719482421875">
        <ele>1772.4000244140625</ele>
        <time>2021-08-24T07:09:20.000Z</time>
      </trkpt>
      <trkpt lat="42.720077075064182281494140625" lon="0.00341520644724369049072265625">
        <ele>1764.4000244140625</ele>
        <time>2021-08-24T07:09:44.000Z</time>
      </trkpt>
      <trkpt lat="42.720022760331630706787109375" lon="0.00326617620885372161865234375">
        <ele>1761.5999755859375</ele>
        <time>2021-08-24T07:09:55.000Z</time>
      </trkpt>
      <trkpt lat="42.71997657604515552520751953125" lon="0.00269134528934955596923828125">
        <ele>1754.5999755859375</ele>
        <time>2021-08-24T07:10:37.000Z</time>
      </trkpt>
      <trkpt lat="42.72016600705683231353759765625" lon="0.00215054489672183990478515625">
        <ele>1744.199951171875</ele>
        <time>2021-08-24T07:11:16.000Z</time>
      </trkpt>
      <trkpt lat="42.72020992822945117950439453125" lon="0.00191803090274333953857421875">
        <ele>1741.4000244140625</ele>
        <time>2021-08-24T07:11:46.000Z</time>
      </trkpt>
      <trkpt lat="42.72018411196768283843994140625" lon="0.0018787197768688201904296875">
        <ele>1741.5999755859375</ele>
        <time>2021-08-24T07:12:09.000Z</time>
      </trkpt>
      <trkpt lat="42.72021797485649585723876953125" lon="0.001891963183879852294921875">
        <ele>1740.800048828125</ele>
        <time>2021-08-24T07:12:47.000Z</time>
      </trkpt>
      <trkpt lat="42.72021043114364147186279296875" lon="0.00189120881259441375732421875">
        <ele>1741</ele>
        <time>2021-08-24T07:12:53.000Z</time>
      </trkpt>
      <trkpt lat="42.7201955951750278472900390625" lon="0.00188601203262805938720703125">
        <ele>1741.199951171875</ele>
        <time>2021-08-24T07:13:06.000Z</time>
      </trkpt>
      <trkpt lat="42.7201939187943935394287109375" lon="0.0018896162509918212890625">
        <ele>1741.4000244140625</ele>
        <time>2021-08-24T07:13:13.000Z</time>
      </trkpt>
      <trkpt lat="42.72019366733729839324951171875" lon="0.0018896162509918212890625">
        <ele>1741.4000244140625</ele>
        <time>2021-08-24T07:13:21.000Z</time>
      </trkpt>
      <trkpt lat="42.7201862074434757232666015625" lon="0.0018964894115924835205078125">
        <ele>1741.5999755859375</ele>
        <time>2021-08-24T07:13:43.000Z</time>
      </trkpt>
      <trkpt lat="42.7201912365853786468505859375" lon="0.0019025243818759918212890625">
        <ele>1741.5999755859375</ele>
        <time>2021-08-24T07:13:48.000Z</time>
      </trkpt>
      <trkpt lat="42.7201909013092517852783203125" lon="0.00191040337085723876953125">
        <ele>1741.800048828125</ele>
        <time>2021-08-24T07:13:55.000Z</time>
      </trkpt>
      <trkpt lat="42.7201905660331249237060546875" lon="0.001910738646984100341796875">
        <ele>1741.800048828125</ele>
        <time>2021-08-24T07:13:56.000Z</time>
      </trkpt>
      <trkpt lat="42.72019165568053722381591796875" lon="0.00191484577953815460205078125">
        <ele>1741.800048828125</ele>
        <time>2021-08-24T07:14:04.000Z</time>
      </trkpt>
      <trkpt lat="42.7201925776898860931396484375" lon="0.00191576778888702392578125">
        <ele>1741.800048828125</ele>
        <time>2021-08-24T07:14:05.000Z</time>
      </trkpt>
      <trkpt lat="42.72019132040441036224365234375" lon="0.00191601924598217010498046875">
        <ele>1741.800048828125</ele>
        <time>2021-08-24T07:14:07.000Z</time>
      </trkpt>
      <trkpt lat="42.72019140422344207763671875" lon="0.0019149295985698699951171875">
        <ele>1741.800048828125</ele>
        <time>2021-08-24T07:14:18.000Z</time>
      </trkpt>
      <trkpt lat="42.72018595598638057708740234375" lon="0.001895986497402191162109375">
        <ele>1741.5999755859375</ele>
        <time>2021-08-24T07:14:24.000Z</time>
      </trkpt>
      <trkpt lat="42.7201748080551624298095703125" lon="0.001892633736133575439453125">
        <ele>1742</ele>
        <time>2021-08-24T07:14:28.000Z</time>
      </trkpt>
      <trkpt lat="42.7201667614281177520751953125" lon="0.0018750317394733428955078125">
        <ele>1742</ele>
        <time>2021-08-24T07:14:44.000Z</time>
      </trkpt>
      <trkpt lat="42.72017472423613071441650390625" lon="0.00188282690942287445068359375">
        <ele>1741.800048828125</ele>
        <time>2021-08-24T07:14:49.000Z</time>
      </trkpt>
      <trkpt lat="42.72023976780474185943603515625" lon="0.0019018538296222686767578125">
        <ele>1740.199951171875</ele>
        <time>2021-08-24T07:15:12.000Z</time>
      </trkpt>
      <trkpt lat="42.72022132761776447296142578125" lon="0.00190746970474720001220703125">
        <ele>1740.800048828125</ele>
        <time>2021-08-24T07:15:41.000Z</time>
      </trkpt>
      <trkpt lat="42.72021814249455928802490234375" lon="0.0018971599638462066650390625">
        <ele>1740.800048828125</ele>
        <time>2021-08-24T07:15:48.000Z</time>
      </trkpt>
      <trkpt lat="42.7202106826007366180419921875" lon="0.0018907897174358367919921875">
        <ele>1741</ele>
        <time>2021-08-24T07:15:54.000Z</time>
      </trkpt>
      <trkpt lat="42.72020288743078708648681640625" lon="0.0018914602696895599365234375">
        <ele>1741.199951171875</ele>
        <time>2021-08-24T07:16:06.000Z</time>
      </trkpt>
      <trkpt lat="42.7202036418020725250244140625" lon="0.001895315945148468017578125">
        <ele>1741.199951171875</ele>
        <time>2021-08-24T07:16:14.000Z</time>
      </trkpt>
      <trkpt lat="42.7201989479362964630126953125" lon="0.001899339258670806884765625">
        <ele>1741.4000244140625</ele>
        <time>2021-08-24T07:16:16.000Z</time>
      </trkpt>
      <trkpt lat="42.72019676864147186279296875" lon="0.001901350915431976318359375">
        <ele>1741.4000244140625</ele>
        <time>2021-08-24T07:16:19.000Z</time>
      </trkpt>
      <trkpt lat="42.72019651718437671661376953125" lon="0.00190160237252712249755859375">
        <ele>1741.4000244140625</ele>
        <time>2021-08-24T07:16:21.000Z</time>
      </trkpt>
      <trkpt lat="42.7201960980892181396484375" lon="0.00190026126801967620849609375">
        <ele>1741.4000244140625</ele>
        <time>2021-08-24T07:16:23.000Z</time>
      </trkpt>
      <trkpt lat="42.7201773226261138916015625" lon="0.00191568396985530853271484375">
        <ele>1742.199951171875</ele>
        <time>2021-08-24T07:16:52.000Z</time>
      </trkpt>
      <trkpt lat="42.72017958573997020721435546875" lon="0.00191199593245983123779296875">
        <ele>1742.199951171875</ele>
        <time>2021-08-24T07:17:02.000Z</time>
      </trkpt>
      <trkpt lat="42.72018293850123882293701171875" lon="0.0019129179418087005615234375">
        <ele>1742</ele>
        <time>2021-08-24T07:17:10.000Z</time>
      </trkpt>
      <trkpt lat="42.72019282914698123931884765625" lon="0.0019204616546630859375">
        <ele>1741.800048828125</ele>
        <time>2021-08-24T07:17:40.000Z</time>
      </trkpt>
      <trkpt lat="42.7202012948691844940185546875" lon="0.001912415027618408203125">
        <ele>1741.4000244140625</ele>
        <time>2021-08-24T07:18:09.000Z</time>
      </trkpt>
      <trkpt lat="42.72019819356501102447509765625" lon="0.0019139237701892852783203125">
        <ele>1741.5999755859375</ele>
        <time>2021-08-24T07:18:28.000Z</time>
      </trkpt>
      <trkpt lat="42.72019903175532817840576171875" lon="0.00191249884665012359619140625">
        <ele>1741.5999755859375</ele>
        <time>2021-08-24T07:18:36.000Z</time>
      </trkpt>
      <trkpt lat="42.72018930874764919281005859375" lon="0.00195206142961978912353515625">
        <ele>1742.199951171875</ele>
        <time>2021-08-24T07:19:15.000Z</time>
      </trkpt>
      <trkpt lat="42.72021495737135410308837890625" lon="0.001951642334461212158203125">
        <ele>1741.5999755859375</ele>
        <time>2021-08-24T07:21:15.000Z</time>
      </trkpt>
      <trkpt lat="42.72021847777068614959716796875" lon="0.00195172615349292755126953125">
        <ele>1741.5999755859375</ele>
        <time>2021-08-24T07:21:17.000Z</time>
      </trkpt>
      <trkpt lat="42.720225937664508819580078125" lon="0.0019486248493194580078125">
        <ele>1741.4000244140625</ele>
        <time>2021-08-24T07:21:29.000Z</time>
      </trkpt>
      <trkpt lat="42.7202331461012363433837890625" lon="0.00194652937352657318115234375">
        <ele>1741</ele>
        <time>2021-08-24T07:21:39.000Z</time>
      </trkpt>
      <trkpt lat="42.72023700177669525146484375" lon="0.00194535590708255767822265625">
        <ele>1741</ele>
        <time>2021-08-24T07:21:59.000Z</time>
      </trkpt>
      <trkpt lat="42.7202371694147586822509765625" lon="0.00194904394447803497314453125">
        <ele>1741</ele>
        <time>2021-08-24T07:22:02.000Z</time>
      </trkpt>
      <trkpt lat="42.720238007605075836181640625" lon="0.00194719992578029632568359375">
        <ele>1741</ele>
        <time>2021-08-24T07:22:10.000Z</time>
      </trkpt>
      <trkpt lat="42.72023792378604412078857421875" lon="0.0019454397261142730712890625">
        <ele>1741</ele>
        <time>2021-08-24T07:22:11.000Z</time>
      </trkpt>
      <trkpt lat="42.72020749747753143310546875" lon="0.001851730048656463623046875">
        <ele>1740.4000244140625</ele>
        <time>2021-08-24T07:23:14.000Z</time>
      </trkpt>
      <trkpt lat="42.72015611641108989715576171875" lon="0.00178844667971134185791015625">
        <ele>1741.199951171875</ele>
        <time>2021-08-24T07:23:21.000Z</time>
      </trkpt>
      <trkpt lat="42.72013868205249309539794921875" lon="0.00175843946635723114013671875">
        <ele>1741.5999755859375</ele>
        <time>2021-08-24T07:23:23.000Z</time>
      </trkpt>
      <trkpt lat="42.7201315574347972869873046875" lon="0.0017442740499973297119140625">
        <ele>1741.800048828125</ele>
        <time>2021-08-24T07:23:24.000Z</time>
      </trkpt>
      <trkpt lat="42.72011320106685161590576171875" lon="0.00169993378221988677978515625">
        <ele>1742.199951171875</ele>
        <time>2021-08-24T07:23:27.000Z</time>
      </trkpt>
      <trkpt lat="42.720109932124614715576171875" lon="0.001686103641986846923828125">
        <ele>1742.199951171875</ele>
        <time>2021-08-24T07:23:28.000Z</time>
      </trkpt>
      <trkpt lat="42.720058970153331756591796875" lon="0.00161645002663135528564453125">
        <ele>1743.4000244140625</ele>
        <time>2021-08-24T07:23:34.000Z</time>
      </trkpt>
      <trkpt lat="42.7199922502040863037109375" lon="0.0015806593000888824462890625">
        <ele>1744.4000244140625</ele>
        <time>2021-08-24T07:23:39.000Z</time>
      </trkpt>
      <trkpt lat="42.7198827825486660003662109375" lon="0.00156481750309467315673828125">
        <ele>1746.4000244140625</ele>
        <time>2021-08-24T07:23:49.000Z</time>
      </trkpt>
      <trkpt lat="42.71979737095534801483154296875" lon="0.0015467964112758636474609375">
        <ele>1747.800048828125</ele>
        <time>2021-08-24T07:23:59.000Z</time>
      </trkpt>
      <trkpt lat="42.7197744883596897125244140625" lon="0.00152550637722015380859375">
        <ele>1748.199951171875</ele>
        <time>2021-08-24T07:24:02.000Z</time>
      </trkpt>
      <trkpt lat="42.719745151698589324951171875" lon="0.0014941580593585968017578125">
        <ele>1749.199951171875</ele>
        <time>2021-08-24T07:24:05.000Z</time>
      </trkpt>
      <trkpt lat="42.7197255380451679229736328125" lon="0.00145870260894298553466796875">
        <ele>1750</ele>
        <time>2021-08-24T07:24:08.000Z</time>
      </trkpt>
      <trkpt lat="42.71971187554299831390380859375" lon="0.00139835290610790252685546875">
        <ele>1751</ele>
        <time>2021-08-24T07:24:13.000Z</time>
      </trkpt>
      <trkpt lat="42.71971271373331546783447265625" lon="0.00136063434183597564697265625">
        <ele>1751.4000244140625</ele>
        <time>2021-08-24T07:24:16.000Z</time>
      </trkpt>
      <trkpt lat="42.7197454869747161865234375" lon="0.0012673437595367431640625">
        <ele>1751.5999755859375</ele>
        <time>2021-08-24T07:24:23.000Z</time>
      </trkpt>
      <trkpt lat="42.7197912521660327911376953125" lon="0.0011649169027805328369140625">
        <ele>1751</ele>
        <time>2021-08-24T07:24:31.000Z</time>
      </trkpt>
      <trkpt lat="42.719751857221126556396484375" lon="0.000766776502132415771484375">
        <ele>1753</ele>
        <time>2021-08-24T07:25:40.000Z</time>
      </trkpt>
      <trkpt lat="42.71966175176203250885009765625" lon="0.000714473426342010498046875">
        <ele>1756</ele>
        <time>2021-08-24T07:25:50.000Z</time>
      </trkpt>
      <trkpt lat="42.71966175176203250885009765625" lon="0.000701732933521270751953125">
        <ele>1756</ele>
        <time>2021-08-24T07:25:52.000Z</time>
      </trkpt>
      <trkpt lat="42.71966342814266681671142578125" lon="0.00069804489612579345703125">
        <ele>1755.800048828125</ele>
        <time>2021-08-24T07:25:54.000Z</time>
      </trkpt>
      <trkpt lat="42.719728387892246246337890625" lon="0.00063342042267322540283203125">
        <ele>1753.5999755859375</ele>
        <time>2021-08-24T07:26:12.000Z</time>
      </trkpt>
      <trkpt lat="42.719817571341991424560546875" lon="0.000254809856414794921875">
        <ele>1751.800048828125</ele>
        <time>2021-08-24T07:26:42.000Z</time>
      </trkpt>
      <trkpt lat="42.7197562158107757568359375" lon="-0.00000427477061748504638671875">
        <ele>1741.800048828125</ele>
        <time>2021-08-24T07:27:00.000Z</time>
      </trkpt>
      <trkpt lat="42.7196864783763885498046875" lon="-0.00020208768546581268310546875">
        <ele>1738.800048828125</ele>
        <time>2021-08-24T07:27:20.000Z</time>
      </trkpt>
      <trkpt lat="42.7196826227009296417236328125" lon="-0.00019253231585025787353515625">
        <ele>1739.4000244140625</ele>
        <time>2021-08-24T07:27:27.000Z</time>
      </trkpt>
      <trkpt lat="42.7196095325052738189697265625" lon="-0.0002858228981494903564453125">
        <ele>1741.4000244140625</ele>
        <time>2021-08-24T07:27:52.000Z</time>
      </trkpt>
      <trkpt lat="42.71955706179141998291015625" lon="-0.00037173740565776824951171875">
        <ele>1741.800048828125</ele>
        <time>2021-08-24T07:27:58.000Z</time>
      </trkpt>
      <trkpt lat="42.71950283087790012359619140625" lon="-0.00047265551984310150146484375">
        <ele>1738.800048828125</ele>
        <time>2021-08-24T07:28:05.000Z</time>
      </trkpt>
      <trkpt lat="42.71949210204184055328369140625" lon="-0.0004863180220127105712890625">
        <ele>1738.4000244140625</ele>
        <time>2021-08-24T07:28:06.000Z</time>
      </trkpt>
      <trkpt lat="42.71950266323983669281005859375" lon="-0.00051238574087619781494140625">
        <ele>1735</ele>
        <time>2021-08-24T07:28:10.000Z</time>
      </trkpt>
      <trkpt lat="42.71951372735202312469482421875" lon="-0.00051707960665225982666015625">
        <ele>1733.4000244140625</ele>
        <time>2021-08-24T07:28:12.000Z</time>
      </trkpt>
      <trkpt lat="42.71951951086521148681640625" lon="-0.000517666339874267578125">
        <ele>1732.800048828125</ele>
        <time>2021-08-24T07:28:14.000Z</time>
      </trkpt>
      <trkpt lat="42.71952210925519466400146484375" lon="-0.0005121342837810516357421875">
        <ele>1733.199951171875</ele>
        <time>2021-08-24T07:28:15.000Z</time>
      </trkpt>
      <trkpt lat="42.71953451447188854217529296875" lon="-0.00049847178161144256591796875">
        <ele>1733.199951171875</ele>
        <time>2021-08-24T07:28:17.000Z</time>
      </trkpt>
      <trkpt lat="42.71954893134534358978271484375" lon="-0.0004886649549007415771484375">
        <ele>1732.800048828125</ele>
        <time>2021-08-24T07:28:19.000Z</time>
      </trkpt>
      <trkpt lat="42.71956468932330608367919921875" lon="-0.000485479831695556640625">
        <ele>1731.5999755859375</ele>
        <time>2021-08-24T07:28:21.000Z</time>
      </trkpt>
      <trkpt lat="42.71957055665552616119384765625" lon="-0.00047952868044376373291015625">
        <ele>1731.5999755859375</ele>
        <time>2021-08-24T07:28:22.000Z</time>
      </trkpt>
      <trkpt lat="42.71958966739475727081298828125" lon="-0.00046737492084503173828125">
        <ele>1730.800048828125</ele>
        <time>2021-08-24T07:28:25.000Z</time>
      </trkpt>
      <trkpt lat="42.71962621249258518218994140625" lon="-0.0004846416413784027099609375">
        <ele>1725.5999755859375</ele>
        <time>2021-08-24T07:28:31.000Z</time>
      </trkpt>
      <trkpt lat="42.71959234960377216339111328125" lon="-0.00068739987909793853759765625">
        <ele>1713.800048828125</ele>
        <time>2021-08-24T07:28:54.000Z</time>
      </trkpt>
      <trkpt lat="42.71948522888123989105224609375" lon="-0.00074439682066440582275390625">
        <ele>1714.4000244140625</ele>
        <time>2021-08-24T07:29:10.000Z</time>
      </trkpt>
      <trkpt lat="42.71945572458207607269287109375" lon="-0.00074691139161586761474609375">
        <ele>1716.199951171875</ele>
        <time>2021-08-24T07:29:12.000Z</time>
      </trkpt>
      <trkpt lat="42.719383724033832550048828125" lon="-0.000764764845371246337890625">
        <ele>1720.800048828125</ele>
        <time>2021-08-24T07:29:16.000Z</time>
      </trkpt>
      <trkpt lat="42.71936201490461826324462890625" lon="-0.0007713027298450469970703125">
        <ele>1722.199951171875</ele>
        <time>2021-08-24T07:29:17.000Z</time>
      </trkpt>
      <trkpt lat="42.71934206597506999969482421875" lon="-0.00078027136623859405517578125">
        <ele>1723</ele>
        <time>2021-08-24T07:29:18.000Z</time>
      </trkpt>
      <trkpt lat="42.7191951312124729156494140625" lon="-0.00076241791248321533203125">
        <ele>1735.800048828125</ele>
        <time>2021-08-24T07:29:33.000Z</time>
      </trkpt>
      <trkpt lat="42.71914106793701648712158203125" lon="-0.000728555023670196533203125">
        <ele>1739</ele>
        <time>2021-08-24T07:29:39.000Z</time>
      </trkpt>
      <trkpt lat="42.7189802192151546478271484375" lon="-0.00074355863034725189208984375">
        <ele>1736.800048828125</ele>
        <time>2021-08-24T07:29:54.000Z</time>
      </trkpt>
      <trkpt lat="42.718660198152065277099609375" lon="-0.0009523518383502960205078125">
        <ele>1733.5999755859375</ele>
        <time>2021-08-24T07:30:28.000Z</time>
      </trkpt>
      <trkpt lat="42.71868609823286533355712890625" lon="-0.00094883143901824951171875">
        <ele>1733</ele>
        <time>2021-08-24T07:30:43.000Z</time>
      </trkpt>
      <trkpt lat="42.71861501969397068023681640625" lon="-0.00103273428976535797119140625">
        <ele>1730.5999755859375</ele>
        <time>2021-08-24T07:31:06.000Z</time>
      </trkpt>
      <trkpt lat="42.71849867887794971466064453125" lon="-0.00103374011814594268798828125">
        <ele>1735.5999755859375</ele>
        <time>2021-08-24T07:31:13.000Z</time>
      </trkpt>
      <trkpt lat="42.71844905801117420196533203125" lon="-0.00106978230178356170654296875">
        <ele>1735.4000244140625</ele>
        <time>2021-08-24T07:31:17.000Z</time>
      </trkpt>
      <trkpt lat="42.71837647072970867156982421875" lon="-0.0011359155178070068359375">
        <ele>1733.5999755859375</ele>
        <time>2021-08-24T07:31:23.000Z</time>
      </trkpt>
      <trkpt lat="42.718326933681964874267578125" lon="-0.00115142203867435455322265625">
        <ele>1733.4000244140625</ele>
        <time>2021-08-24T07:31:27.000Z</time>
      </trkpt>
      <trkpt lat="42.7183036319911479949951171875" lon="-0.00118008814752101898193359375">
        <ele>1731.800048828125</ele>
        <time>2021-08-24T07:31:29.000Z</time>
      </trkpt>
      <trkpt lat="42.71829164586961269378662109375" lon="-0.0011940859258174896240234375">
        <ele>1731.199951171875</ele>
        <time>2021-08-24T07:31:30.000Z</time>
      </trkpt>
      <trkpt lat="42.71822341717779636383056640625" lon="-0.00126742757856845855712890625">
        <ele>1727</ele>
        <time>2021-08-24T07:31:34.000Z</time>
      </trkpt>
      <trkpt lat="42.71817304193973541259765625" lon="-0.00133079476654529571533203125">
        <ele>1722</ele>
        <time>2021-08-24T07:31:37.000Z</time>
      </trkpt>
      <trkpt lat="42.71801504306495189666748046875" lon="-0.001337416470050811767578125">
        <ele>1721.199951171875</ele>
        <time>2021-08-24T07:31:52.000Z</time>
      </trkpt>
      <trkpt lat="42.7177403680980205535888671875" lon="-0.0014224089682102203369140625">
        <ele>1707.4000244140625</ele>
        <time>2021-08-24T07:32:21.000Z</time>
      </trkpt>
      <trkpt lat="42.7174178324639797210693359375" lon="-0.0013898871839046478271484375">
        <ele>1704</ele>
        <time>2021-08-24T07:32:50.000Z</time>
      </trkpt>
      <trkpt lat="42.71713209338486194610595703125" lon="-0.00154369510710239410400390625">
        <ele>1696.800048828125</ele>
        <time>2021-08-24T07:33:29.000Z</time>
      </trkpt>
      <trkpt lat="42.71711826324462890625" lon="-0.001531541347503662109375">
        <ele>1697.4000244140625</ele>
        <time>2021-08-24T07:33:31.000Z</time>
      </trkpt>
      <trkpt lat="42.71711164154112339019775390625" lon="-0.001525171101093292236328125">
        <ele>1697.800048828125</ele>
        <time>2021-08-24T07:33:32.000Z</time>
      </trkpt>
      <trkpt lat="42.71710409782826900482177734375" lon="-0.00151821412146091461181640625">
        <ele>1698.199951171875</ele>
        <time>2021-08-24T07:33:33.000Z</time>
      </trkpt>
      <trkpt lat="42.7170932851731777191162109375" lon="-0.00151033513247966766357421875">
        <ele>1698.5999755859375</ele>
        <time>2021-08-24T07:33:34.000Z</time>
      </trkpt>
      <trkpt lat="42.7170637808740139007568359375" lon="-0.00150245614349842071533203125">
        <ele>1699</ele>
        <time>2021-08-24T07:33:36.000Z</time>
      </trkpt>
      <trkpt lat="42.71700954996049404144287109375" lon="-0.0015001930296421051025390625">
        <ele>1699.199951171875</ele>
        <time>2021-08-24T07:33:40.000Z</time>
      </trkpt>
      <trkpt lat="42.71699429489672183990478515625" lon="-0.00150396488606929779052734375">
        <ele>1698.800048828125</ele>
        <time>2021-08-24T07:33:41.000Z</time>
      </trkpt>
      <trkpt lat="42.71698021329939365386962890625" lon="-0.0015042163431644439697265625">
        <ele>1698.5999755859375</ele>
        <time>2021-08-24T07:33:42.000Z</time>
      </trkpt>
      <trkpt lat="42.716954648494720458984375" lon="-0.00149575062096118927001953125">
        <ele>1698.800048828125</ele>
        <time>2021-08-24T07:33:44.000Z</time>
      </trkpt>
      <trkpt lat="42.7169444225728511810302734375" lon="-0.00149206258356571197509765625">
        <ele>1698.800048828125</ele>
        <time>2021-08-24T07:33:45.000Z</time>
      </trkpt>
      <trkpt lat="42.71686621941626071929931640625" lon="-0.0014550983905792236328125">
        <ele>1699.4000244140625</ele>
        <time>2021-08-24T07:33:51.000Z</time>
      </trkpt>
      <trkpt lat="42.71679145283997058868408203125" lon="-0.00142760574817657470703125">
        <ele>1700</ele>
        <time>2021-08-24T07:33:56.000Z</time>
      </trkpt>
      <trkpt lat="42.716591544449329376220703125" lon="-0.0012463890016078948974609375">
        <ele>1711.5999755859375</ele>
        <time>2021-08-24T07:34:21.000Z</time>
      </trkpt>
      <trkpt lat="42.71658224053680896759033203125" lon="-0.00123876146972179412841796875">
        <ele>1712.4000244140625</ele>
        <time>2021-08-24T07:34:24.000Z</time>
      </trkpt>
      <trkpt lat="42.71656380034983158111572265625" lon="-0.00124387443065643310546875">
        <ele>1712.5999755859375</ele>
        <time>2021-08-24T07:34:28.000Z</time>
      </trkpt>
      <trkpt lat="42.71653999574482440948486328125" lon="-0.00119182281196117401123046875">
        <ele>1716.199951171875</ele>
        <time>2021-08-24T07:34:35.000Z</time>
      </trkpt>
      <trkpt lat="42.716535218060016632080078125" lon="-0.00115930102765560150146484375">
        <ele>1718.199951171875</ele>
        <time>2021-08-24T07:34:42.000Z</time>
      </trkpt>
      <trkpt lat="42.71653312258422374725341796875" lon="-0.00114153139293193817138671875">
        <ele>1719</ele>
        <time>2021-08-24T07:34:48.000Z</time>
      </trkpt>
      <trkpt lat="42.71653077565133571624755859375" lon="-0.00114119611680507659912109375">
        <ele>1719</ele>
        <time>2021-08-24T07:34:51.000Z</time>
      </trkpt>
      <trkpt lat="42.71651334129273891448974609375" lon="-0.00116072595119476318359375">
        <ele>1718.4000244140625</ele>
        <time>2021-08-24T07:35:02.000Z</time>
      </trkpt>
      <trkpt lat="42.71658441983163356781005859375" lon="-0.0011739693582057952880859375">
        <ele>1716.199951171875</ele>
        <time>2021-08-24T07:35:14.000Z</time>
      </trkpt>
      <trkpt lat="42.71661199629306793212890625" lon="-0.00143640674650669097900390625">
        <ele>1701.4000244140625</ele>
        <time>2021-08-24T07:36:03.000Z</time>
      </trkpt>
      <trkpt lat="42.7166446857154369354248046875" lon="-0.00151771120727062225341796875">
        <ele>1697</ele>
        <time>2021-08-24T07:36:17.000Z</time>
      </trkpt>
      <trkpt lat="42.71664418280124664306640625" lon="-0.00135250389575958251953125">
        <ele>1704.800048828125</ele>
        <time>2021-08-24T07:36:32.000Z</time>
      </trkpt>
      <trkpt lat="42.71664225496351718902587890625" lon="-0.00134906731545925140380859375">
        <ele>1705</ele>
        <time>2021-08-24T07:36:36.000Z</time>
      </trkpt>
      <trkpt lat="42.716633118689060211181640625" lon="-0.0013268552720546722412109375">
        <ele>1706.199951171875</ele>
        <time>2021-08-24T07:36:45.000Z</time>
      </trkpt>
      <trkpt lat="42.71663739345967769622802734375" lon="-0.0013134442269802093505859375">
        <ele>1706.800048828125</ele>
        <time>2021-08-24T07:36:51.000Z</time>
      </trkpt>
      <trkpt lat="42.71660286001861095428466796875" lon="-0.0013934075832366943359375">
        <ele>1703.5999755859375</ele>
        <time>2021-08-24T07:36:59.000Z</time>
      </trkpt>
      <trkpt lat="42.71659590303897857666015625" lon="-0.001451410353183746337890625">
        <ele>1701</ele>
        <time>2021-08-24T07:37:01.000Z</time>
      </trkpt>
      <trkpt lat="42.71658877842128276824951171875" lon="-0.00152994878590106964111328125">
        <ele>1697.4000244140625</ele>
        <time>2021-08-24T07:37:03.000Z</time>
      </trkpt>
      <trkpt lat="42.71658659912645816802978515625" lon="-0.00156012363731861114501953125">
        <ele>1695.4000244140625</ele>
        <time>2021-08-24T07:37:04.000Z</time>
      </trkpt>
      <trkpt lat="42.71657285280525684356689453125" lon="-0.00152911059558391571044921875">
        <ele>1697.800048828125</ele>
        <time>2021-08-24T07:37:05.000Z</time>
      </trkpt>
      <trkpt lat="42.71655692718923091888427734375" lon="-0.00149776227772235870361328125">
        <ele>1699.4000244140625</ele>
        <time>2021-08-24T07:37:06.000Z</time>
      </trkpt>
      <trkpt lat="42.71632969379425048828125" lon="-0.00141997821629047393798828125">
        <ele>1711.4000244140625</ele>
        <time>2021-08-24T07:37:12.000Z</time>
      </trkpt>
      <trkpt lat="42.7162413485348224639892578125" lon="-0.00146783888339996337890625">
        <ele>1713</ele>
        <time>2021-08-24T07:37:16.000Z</time>
      </trkpt>
      <trkpt lat="42.71619197912514209747314453125" lon="-0.001482926309108734130859375">
        <ele>1714</ele>
        <time>2021-08-24T07:37:19.000Z</time>
      </trkpt>
      <trkpt lat="42.71610631607472896575927734375" lon="-0.001548640429973602294921875">
        <ele>1708.4000244140625</ele>
        <time>2021-08-24T07:37:25.000Z</time>
      </trkpt>
      <trkpt lat="42.7160837687551975250244140625" lon="-0.00156448222696781158447265625">
        <ele>1706.4000244140625</ele>
        <time>2021-08-24T07:37:27.000Z</time>
      </trkpt>
      <trkpt lat="42.7156873047351837158203125" lon="-0.00170730985701084136962890625">
        <ele>1695.5999755859375</ele>
        <time>2021-08-24T07:38:09.000Z</time>
      </trkpt>
      <trkpt lat="42.71562636829912662506103515625" lon="-0.0017003528773784637451171875">
        <ele>1698.800048828125</ele>
        <time>2021-08-24T07:38:14.000Z</time>
      </trkpt>
      <trkpt lat="42.7155855484306812286376953125" lon="-0.00170060433447360992431640625">
        <ele>1700</ele>
        <time>2021-08-24T07:38:17.000Z</time>
      </trkpt>
      <trkpt lat="42.71539821289479732513427734375" lon="-0.00172692351043224334716796875">
        <ele>1702.199951171875</ele>
        <time>2021-08-24T07:38:31.000Z</time>
      </trkpt>
      <trkpt lat="42.71510048769414424896240234375" lon="-0.0018197111785411834716796875">
        <ele>1703.199951171875</ele>
        <time>2021-08-24T07:38:50.000Z</time>
      </trkpt>
      <trkpt lat="42.714951373636722564697265625" lon="-0.00185617245733737945556640625">
        <ele>1703.199951171875</ele>
        <time>2021-08-24T07:39:02.000Z</time>
      </trkpt>
      <trkpt lat="42.71481349132955074310302734375" lon="-0.00191803090274333953857421875">
        <ele>1700.800048828125</ele>
        <time>2021-08-24T07:39:16.000Z</time>
      </trkpt>
      <trkpt lat="42.7146293409168720245361328125" lon="-0.00219748355448246002197265625">
        <ele>1693.199951171875</ele>
        <time>2021-08-24T07:39:29.000Z</time>
      </trkpt>
      <trkpt lat="42.7145394869148731231689453125" lon="-0.0021254830062389373779296875">
        <ele>1700.5999755859375</ele>
        <time>2021-08-24T07:39:38.000Z</time>
      </trkpt>
      <trkpt lat="42.71435223519802093505859375" lon="-0.00183739699423313140869140625">
        <ele>1719.800048828125</ele>
        <time>2021-08-24T07:40:00.000Z</time>
      </trkpt>
      <trkpt lat="42.714148052036762237548828125" lon="-0.00201542861759662628173828125">
        <ele>1717</ele>
        <time>2021-08-24T07:40:22.000Z</time>
      </trkpt>
      <trkpt lat="42.71384018473327159881591796875" lon="-0.00224391929805278778076171875">
        <ele>1704</ele>
        <time>2021-08-24T07:40:52.000Z</time>
      </trkpt>
      <trkpt lat="42.713811099529266357421875" lon="-0.00224609859287738800048828125">
        <ele>1702.800048828125</ele>
        <time>2021-08-24T07:40:55.000Z</time>
      </trkpt>
      <trkpt lat="42.713447995483875274658203125" lon="-0.00217485241591930389404296875">
        <ele>1692.5999755859375</ele>
        <time>2021-08-24T07:41:36.000Z</time>
      </trkpt>
      <trkpt lat="42.7132490091025829315185546875" lon="-0.0021068751811981201171875">
        <ele>1692.199951171875</ele>
        <time>2021-08-24T07:41:56.000Z</time>
      </trkpt>
      <trkpt lat="42.71313459612429141998291015625" lon="-0.00207393430173397064208984375">
        <ele>1691.800048828125</ele>
        <time>2021-08-24T07:42:08.000Z</time>
      </trkpt>
      <trkpt lat="42.7127098850905895233154296875" lon="-0.0018827430903911590576171875">
        <ele>1708.199951171875</ele>
        <time>2021-08-24T07:42:46.000Z</time>
      </trkpt>
      <trkpt lat="42.7125831507146358489990234375" lon="-0.001879893243312835693359375">
        <ele>1705.5999755859375</ele>
        <time>2021-08-24T07:42:55.000Z</time>
      </trkpt>
      <trkpt lat="42.71246840246021747589111328125" lon="-0.00183119438588619232177734375">
        <ele>1712</ele>
        <time>2021-08-24T07:43:04.000Z</time>
      </trkpt>
      <trkpt lat="42.71235072053968906402587890625" lon="-0.00178836286067962646484375">
        <ele>1718.199951171875</ele>
        <time>2021-08-24T07:43:15.000Z</time>
      </trkpt>
      <trkpt lat="42.71234468556940555572509765625" lon="-0.00175349414348602294921875">
        <ele>1720.5999755859375</ele>
        <time>2021-08-24T07:43:20.000Z</time>
      </trkpt>
      <trkpt lat="42.71231367252767086029052734375" lon="-0.00172977335751056671142578125">
        <ele>1723.4000244140625</ele>
        <time>2021-08-24T07:43:33.000Z</time>
      </trkpt>
      <trkpt lat="42.712176628410816192626953125" lon="-0.0017932243645191192626953125">
        <ele>1724.199951171875</ele>
        <time>2021-08-24T07:43:46.000Z</time>
      </trkpt>
      <trkpt lat="42.71205224096775054931640625" lon="-0.00187478028237819671630859375">
        <ele>1724.199951171875</ele>
        <time>2021-08-24T07:43:58.000Z</time>
      </trkpt>
      <trkpt lat="42.71201862953603267669677734375" lon="-0.00188383273780345916748046875">
        <ele>1725</ele>
        <time>2021-08-24T07:44:04.000Z</time>
      </trkpt>
      <trkpt lat="42.71202147938311100006103515625" lon="-0.0018569268286228179931640625">
        <ele>1726.4000244140625</ele>
        <time>2021-08-24T07:44:07.000Z</time>
      </trkpt>
      <trkpt lat="42.71197739057242870330810546875" lon="-0.0020788796246051788330078125">
        <ele>1715.5999755859375</ele>
        <time>2021-08-24T07:44:17.000Z</time>
      </trkpt>
      <trkpt lat="42.711957357823848724365234375" lon="-0.00232321210205554962158203125">
        <ele>1703</ele>
        <time>2021-08-24T07:44:34.000Z</time>
      </trkpt>
      <trkpt lat="42.71203807555139064788818359375" lon="-0.00229060649871826171875">
        <ele>1701.4000244140625</ele>
        <time>2021-08-24T07:44:57.000Z</time>
      </trkpt>
      <trkpt lat="42.712027095258235931396484375" lon="-0.00233947299420833587646484375">
        <ele>1699.199951171875</ele>
        <time>2021-08-24T07:45:00.000Z</time>
      </trkpt>
      <trkpt lat="42.71193615160882472991943359375" lon="-0.002477355301380157470703125">
        <ele>1703.800048828125</ele>
        <time>2021-08-24T07:45:11.000Z</time>
      </trkpt>
      <trkpt lat="42.71191704086959362030029296875" lon="-0.00249537639319896697998046875">
        <ele>1704.5999755859375</ele>
        <time>2021-08-24T07:45:17.000Z</time>
      </trkpt>
      <trkpt lat="42.71186775527894496917724609375" lon="-0.002550780773162841796875">
        <ele>1707</ele>
        <time>2021-08-24T07:45:28.000Z</time>
      </trkpt>
      <trkpt lat="42.7117074094712734222412109375" lon="-0.00263451598584651947021484375">
        <ele>1710.4000244140625</ele>
        <time>2021-08-24T07:45:44.000Z</time>
      </trkpt>
      <trkpt lat="42.7116323076188564300537109375" lon="-0.00267843715846538543701171875">
        <ele>1707</ele>
        <time>2021-08-24T07:45:55.000Z</time>
      </trkpt>
      <trkpt lat="42.7113295532763004302978515625" lon="-0.0027946941554546356201171875">
        <ele>1699.5999755859375</ele>
        <time>2021-08-24T07:46:32.000Z</time>
      </trkpt>
      <trkpt lat="42.7108856476843357086181640625" lon="-0.00289703719317913055419921875">
        <ele>1710.5999755859375</ele>
        <time>2021-08-24T07:47:10.000Z</time>
      </trkpt>
      <trkpt lat="42.7108088694512844085693359375" lon="-0.0029120407998561859130859375">
        <ele>1711</ele>
        <time>2021-08-24T07:47:16.000Z</time>
      </trkpt>
      <trkpt lat="42.710685320198535919189453125" lon="-0.00298487953841686248779296875">
        <ele>1703.5999755859375</ele>
        <time>2021-08-24T07:47:29.000Z</time>
      </trkpt>
      <trkpt lat="42.71060644648969173431396484375" lon="-0.00297565944492816925048828125">
        <ele>1705.4000244140625</ele>
        <time>2021-08-24T07:47:37.000Z</time>
      </trkpt>
      <trkpt lat="42.710482142865657806396484375" lon="-0.00273560173809528350830078125">
        <ele>1714</ele>
        <time>2021-08-24T07:47:57.000Z</time>
      </trkpt>
      <trkpt lat="42.7102155983448028564453125" lon="-0.00281841494143009185791015625">
        <ele>1706</ele>
        <time>2021-08-24T07:48:24.000Z</time>
      </trkpt>
      <trkpt lat="42.710092552006244659423828125" lon="-0.00289167277514934539794921875">
        <ele>1707.5999755859375</ele>
        <time>2021-08-24T07:48:56.000Z</time>
      </trkpt>
      <trkpt lat="42.71003656089305877685546875" lon="-0.00288748182356357574462890625">
        <ele>1709.800048828125</ele>
        <time>2021-08-24T07:49:12.000Z</time>
      </trkpt>
      <trkpt lat="42.70998283289372920989990234375" lon="-0.002921931445598602294921875">
        <ele>1710.4000244140625</ele>
        <time>2021-08-24T07:49:37.000Z</time>
      </trkpt>
      <trkpt lat="42.70988903939723968505859375" lon="-0.003084875643253326416015625">
        <ele>1703.199951171875</ele>
        <time>2021-08-24T07:50:04.000Z</time>
      </trkpt>
      <trkpt lat="42.70986489951610565185546875" lon="-0.00317330472171306610107421875">
        <ele>1698</ele>
        <time>2021-08-24T07:50:11.000Z</time>
      </trkpt>
      <trkpt lat="42.70985844545066356658935546875" lon="-0.0032922439277172088623046875">
        <ele>1690.4000244140625</ele>
        <time>2021-08-24T07:50:19.000Z</time>
      </trkpt>
      <trkpt lat="42.70975300110876560211181640625" lon="-0.00346315093338489532470703125">
        <ele>1683.199951171875</ele>
        <time>2021-08-24T07:50:35.000Z</time>
      </trkpt>
      <trkpt lat="42.7096494846045970916748046875" lon="-0.0035069882869720458984375">
        <ele>1683.4000244140625</ele>
        <time>2021-08-24T07:50:44.000Z</time>
      </trkpt>
      <trkpt lat="42.709541358053684234619140625" lon="-0.00354629941284656524658203125">
        <ele>1684.199951171875</ele>
        <time>2021-08-24T07:50:55.000Z</time>
      </trkpt>
      <trkpt lat="42.70936508662998676300048828125" lon="-0.00355049036443233489990234375">
        <ele>1685.4000244140625</ele>
        <time>2021-08-24T07:51:12.000Z</time>
      </trkpt>
      <trkpt lat="42.70932418294250965118408203125" lon="-0.00368141569197177886962890625">
        <ele>1679.199951171875</ele>
        <time>2021-08-24T07:51:21.000Z</time>
      </trkpt>
      <trkpt lat="42.70916291512548923492431640625" lon="-0.00391962938010692596435546875">
        <ele>1669</ele>
        <time>2021-08-24T07:51:50.000Z</time>
      </trkpt>
      <trkpt lat="42.70894716493785381317138671875" lon="-0.0041265785694122314453125">
        <ele>1665.4000244140625</ele>
        <time>2021-08-24T07:52:29.000Z</time>
      </trkpt>
      <trkpt lat="42.7086104638874530792236328125" lon="-0.00441768206655979156494140625">
        <ele>1667</ele>
        <time>2021-08-24T07:53:14.000Z</time>
      </trkpt>
      <trkpt lat="42.70859210751950740814208984375" lon="-0.0044281594455242156982421875">
        <ele>1667.4000244140625</ele>
        <time>2021-08-24T07:53:16.000Z</time>
      </trkpt>
      <trkpt lat="42.70854349248111248016357421875" lon="-0.0044538080692291259765625">
        <ele>1668.5999755859375</ele>
        <time>2021-08-24T07:53:21.000Z</time>
      </trkpt>
      <trkpt lat="42.708514072000980377197265625" lon="-0.0044838152825832366943359375">
        <ele>1668.4000244140625</ele>
        <time>2021-08-24T07:53:23.000Z</time>
      </trkpt>
      <trkpt lat="42.7085051871836185455322265625" lon="-0.00449496321380138397216796875">
        <ele>1668.199951171875</ele>
        <time>2021-08-24T07:53:24.000Z</time>
      </trkpt>
      <trkpt lat="42.708505690097808837890625" lon="-0.00449328683316707611083984375">
        <ele>1668.199951171875</ele>
        <time>2021-08-24T07:53:25.000Z</time>
      </trkpt>
      <trkpt lat="42.7086255513131618499755859375" lon="-0.00447819940745830535888671875">
        <ele>1662</ele>
        <time>2021-08-24T07:53:29.000Z</time>
      </trkpt>
      <trkpt lat="42.70856997929513454437255859375" lon="-0.00457727350294589996337890625">
        <ele>1658.5999755859375</ele>
        <time>2021-08-24T07:53:37.000Z</time>
      </trkpt>
      <trkpt lat="42.70857207477092742919921875" lon="-0.00455682165920734405517578125">
        <ele>1659.800048828125</ele>
        <time>2021-08-24T07:53:45.000Z</time>
      </trkpt>
      <trkpt lat="42.70856360904872417449951171875" lon="-0.00457056798040866851806640625">
        <ele>1659.4000244140625</ele>
        <time>2021-08-24T07:53:46.000Z</time>
      </trkpt>
      <trkpt lat="42.70856176503002643585205078125" lon="-0.00457257963716983795166015625">
        <ele>1659.4000244140625</ele>
        <time>2021-08-24T07:53:47.000Z</time>
      </trkpt>
      <trkpt lat="42.70854701288044452667236328125" lon="-0.00460057519376277923583984375">
        <ele>1658.199951171875</ele>
        <time>2021-08-24T07:53:49.000Z</time>
      </trkpt>
      <trkpt lat="42.708538882434368133544921875" lon="-0.00458188354969024658203125">
        <ele>1660.199951171875</ele>
        <time>2021-08-24T07:53:54.000Z</time>
      </trkpt>
      <trkpt lat="42.70852605812251567840576171875" lon="-0.00460602343082427978515625">
        <ele>1659.199951171875</ele>
        <time>2021-08-24T07:54:31.000Z</time>
      </trkpt>
      <trkpt lat="42.7085258066654205322265625" lon="-0.0046071968972682952880859375">
        <ele>1659</ele>
        <time>2021-08-24T07:54:32.000Z</time>
      </trkpt>
      <trkpt lat="42.70849118940532207489013671875" lon="-0.00462270341813564300537109375">
        <ele>1660</ele>
        <time>2021-08-24T07:54:37.000Z</time>
      </trkpt>
      <trkpt lat="42.70843184553086757659912109375" lon="-0.00474088825285434722900390625">
        <ele>1654.800048828125</ele>
        <time>2021-08-24T07:54:51.000Z</time>
      </trkpt>
      <trkpt lat="42.7083680592477321624755859375" lon="-0.0047235377132892608642578125">
        <ele>1660.5999755859375</ele>
        <time>2021-08-24T07:55:06.000Z</time>
      </trkpt>
      <trkpt lat="42.70807343535125255584716796875" lon="-0.00508622266352176666259765625">
        <ele>1658.5999755859375</ele>
        <time>2021-08-24T07:55:24.000Z</time>
      </trkpt>
      <trkpt lat="42.708011157810688018798828125" lon="-0.00518697313964366912841796875">
        <ele>1656.800048828125</ele>
        <time>2021-08-24T07:55:32.000Z</time>
      </trkpt>
      <trkpt lat="42.70799514837563037872314453125" lon="-0.00521765090525150299072265625">
        <ele>1656.199951171875</ele>
        <time>2021-08-24T07:55:35.000Z</time>
      </trkpt>
      <trkpt lat="42.70784662105143070220947265625" lon="-0.0053950957953929901123046875">
        <ele>1658.4000244140625</ele>
        <time>2021-08-24T07:55:44.000Z</time>
      </trkpt>
      <trkpt lat="42.7078158594667911529541015625" lon="-0.00548805110156536102294921875">
        <ele>1653.199951171875</ele>
        <time>2021-08-24T07:55:48.000Z</time>
      </trkpt>
      <trkpt lat="42.70770127885043621063232421875" lon="-0.00573967583477497100830078125">
        <ele>1640.5999755859375</ele>
        <time>2021-08-24T07:55:59.000Z</time>
      </trkpt>
      <trkpt lat="42.70769977010786533355712890625" lon="-0.00591360032558441162109375">
        <ele>1626.4000244140625</ele>
        <time>2021-08-24T07:56:11.000Z</time>
      </trkpt>
      <trkpt lat="42.7075439505279064178466796875" lon="-0.00603002496063709259033203125">
        <ele>1634.199951171875</ele>
        <time>2021-08-24T07:56:21.000Z</time>
      </trkpt>
      <trkpt lat="42.70744060166180133819580078125" lon="-0.00614829361438751220703125">
        <ele>1637.199951171875</ele>
        <time>2021-08-24T07:56:32.000Z</time>
      </trkpt>
      <trkpt lat="42.70729090087115764617919921875" lon="-0.00631995499134063720703125">
        <ele>1639.800048828125</ele>
        <time>2021-08-24T07:56:49.000Z</time>
      </trkpt>
      <trkpt lat="42.70722669549286365509033203125" lon="-0.006395392119884490966796875">
        <ele>1636.199951171875</ele>
        <time>2021-08-24T07:56:58.000Z</time>
      </trkpt>
      <trkpt lat="42.7068549580872058868408203125" lon="-0.00668473541736602783203125">
        <ele>1621</ele>
        <time>2021-08-24T07:57:30.000Z</time>
      </trkpt>
      <trkpt lat="42.70681246183812618255615234375" lon="-0.006740055978298187255859375">
        <ele>1617.5999755859375</ele>
        <time>2021-08-24T07:57:36.000Z</time>
      </trkpt>
      <trkpt lat="42.70649470388889312744140625" lon="-0.00695991329848766326904296875">
        <ele>1607.5999755859375</ele>
        <time>2021-08-24T07:58:04.000Z</time>
      </trkpt>
      <trkpt lat="42.706446759402751922607421875" lon="-0.00699327327311038970947265625">
        <ele>1606.4000244140625</ele>
        <time>2021-08-24T07:58:11.000Z</time>
      </trkpt>
      <trkpt lat="42.7063939534127712249755859375" lon="-0.0070530362427234649658203125">
        <ele>1605.199951171875</ele>
        <time>2021-08-24T07:58:23.000Z</time>
      </trkpt>
      <trkpt lat="42.706328742206096649169921875" lon="-0.007094442844390869140625">
        <ele>1605</ele>
        <time>2021-08-24T07:58:30.000Z</time>
      </trkpt>
      <trkpt lat="42.7061720006167888641357421875" lon="-0.0072210095822811126708984375">
        <ele>1601.199951171875</ele>
        <time>2021-08-24T07:58:50.000Z</time>
      </trkpt>
      <trkpt lat="42.7057914622128009796142578125" lon="-0.00710257329046726226806640625">
        <ele>1614.199951171875</ele>
        <time>2021-08-24T07:59:22.000Z</time>
      </trkpt>
      <trkpt lat="42.70576422102749347686767578125" lon="-0.0070882402360439300537109375">
        <ele>1614.4000244140625</ele>
        <time>2021-08-24T07:59:26.000Z</time>
      </trkpt>
      <trkpt lat="42.705595158040523529052734375" lon="-0.0069802813231945037841796875">
        <ele>1615.199951171875</ele>
        <time>2021-08-24T07:59:48.000Z</time>
      </trkpt>
      <trkpt lat="42.7055470459163188934326171875" lon="-0.00700534321367740631103515625">
        <ele>1613.800048828125</ele>
        <time>2021-08-24T07:59:58.000Z</time>
      </trkpt>
      <trkpt lat="42.7055205591022968292236328125" lon="-0.00705596990883350372314453125">
        <ele>1612.4000244140625</ele>
        <time>2021-08-24T08:00:05.000Z</time>
      </trkpt>
      <trkpt lat="42.7055446989834308624267578125" lon="-0.0071459077298641204833984375">
        <ele>1610.800048828125</ele>
        <time>2021-08-24T08:00:15.000Z</time>
      </trkpt>
      <trkpt lat="42.7055453695356845855712890625" lon="-0.00722251832485198974609375">
        <ele>1608.5999755859375</ele>
        <time>2021-08-24T08:00:21.000Z</time>
      </trkpt>
      <trkpt lat="42.70552198402583599090576171875" lon="-0.00731145031750202178955078125">
        <ele>1605.5999755859375</ele>
        <time>2021-08-24T08:00:28.000Z</time>
      </trkpt>
      <trkpt lat="42.7055319584906101226806640625" lon="-0.0073997117578983306884765625">
        <ele>1603</ele>
        <time>2021-08-24T08:00:44.000Z</time>
      </trkpt>
      <trkpt lat="42.70553137175738811492919921875" lon="-0.00742041505873203277587890625">
        <ele>1602.199951171875</ele>
        <time>2021-08-24T08:00:50.000Z</time>
      </trkpt>
      <trkpt lat="42.7055195532739162445068359375" lon="-0.0075852870941162109375">
        <ele>1596</ele>
        <time>2021-08-24T08:01:13.000Z</time>
      </trkpt>
      <trkpt lat="42.7056275121867656707763671875" lon="-0.00765091739594936370849609375">
        <ele>1595.4000244140625</ele>
        <time>2021-08-24T08:01:25.000Z</time>
      </trkpt>
      <trkpt lat="42.7056794799864292144775390625" lon="-0.00770665705204010009765625">
        <ele>1592.5999755859375</ele>
        <time>2021-08-24T08:01:42.000Z</time>
      </trkpt>
      <trkpt lat="42.705639414489269256591796875" lon="-0.00776625238358974456787109375">
        <ele>1591.199951171875</ele>
        <time>2021-08-24T08:01:49.000Z</time>
      </trkpt>
      <trkpt lat="42.705628015100955963134765625" lon="-0.00778368674218654632568359375">
        <ele>1590.5999755859375</ele>
        <time>2021-08-24T08:01:52.000Z</time>
      </trkpt>
      <trkpt lat="42.70562072284519672393798828125" lon="-0.00779290683567523956298828125">
        <ele>1590.4000244140625</ele>
        <time>2021-08-24T08:01:53.000Z</time>
      </trkpt>
      <trkpt lat="42.7056097425520420074462890625" lon="-0.007802210748195648193359375">
        <ele>1590.199951171875</ele>
        <time>2021-08-24T08:01:54.000Z</time>
      </trkpt>
      <trkpt lat="42.70559976808726787567138671875" lon="-0.0078114308416843414306640625">
        <ele>1589.800048828125</ele>
        <time>2021-08-24T08:01:55.000Z</time>
      </trkpt>
      <trkpt lat="42.7055852673947811126708984375" lon="-0.0078298710286617279052734375">
        <ele>1589</ele>
        <time>2021-08-24T08:01:57.000Z</time>
      </trkpt>
      <trkpt lat="42.7055148594081401824951171875" lon="-0.00790203921496868133544921875">
        <ele>1586</ele>
        <time>2021-08-24T08:02:07.000Z</time>
      </trkpt>
      <trkpt lat="42.70547010004520416259765625" lon="-0.0079338066279888153076171875">
        <ele>1584.5999755859375</ele>
        <time>2021-08-24T08:02:11.000Z</time>
      </trkpt>
      <trkpt lat="42.705431543290615081787109375" lon="-0.00795031897723674774169921875">
        <ele>1583.800048828125</ele>
        <time>2021-08-24T08:02:15.000Z</time>
      </trkpt>
      <trkpt lat="42.70538963377475738525390625" lon="-0.007941015064716339111328125">
        <ele>1583.800048828125</ele>
        <time>2021-08-24T08:02:19.000Z</time>
      </trkpt>
      <trkpt lat="42.7053673379123210906982421875" lon="-0.00793120823800563812255859375">
        <ele>1583.800048828125</ele>
        <time>2021-08-24T08:02:22.000Z</time>
      </trkpt>
      <trkpt lat="42.70535903982818126678466796875" lon="-0.00793439336121082305908203125">
        <ele>1583.800048828125</ele>
        <time>2021-08-24T08:02:23.000Z</time>
      </trkpt>
      <trkpt lat="42.70532433874905109405517578125" lon="-0.0079487264156341552734375">
        <ele>1583</ele>
        <time>2021-08-24T08:02:26.000Z</time>
      </trkpt>
      <trkpt lat="42.705260552465915679931640625" lon="-0.0079170428216457366943359375">
        <ele>1583.5999755859375</ele>
        <time>2021-08-24T08:02:35.000Z</time>
      </trkpt>
      <trkpt lat="42.70522962324321269989013671875" lon="-0.0078818388283252716064453125">
        <ele>1584</ele>
        <time>2021-08-24T08:02:40.000Z</time>
      </trkpt>
      <trkpt lat="42.7051799185574054718017578125" lon="-0.00787027180194854736328125">
        <ele>1584</ele>
        <time>2021-08-24T08:02:45.000Z</time>
      </trkpt>
      <trkpt lat="42.70513557828962802886962890625" lon="-0.00788628123700618743896484375">
        <ele>1583.199951171875</ele>
        <time>2021-08-24T08:02:51.000Z</time>
      </trkpt>
      <trkpt lat="42.7050766535103321075439453125" lon="-0.00791042111814022064208984375">
        <ele>1582.4000244140625</ele>
        <time>2021-08-24T08:03:02.000Z</time>
      </trkpt>
      <trkpt lat="42.7051219157874584197998046875" lon="-0.008022487163543701171875">
        <ele>1579.199951171875</ele>
        <time>2021-08-24T08:03:18.000Z</time>
      </trkpt>
      <trkpt lat="42.70512786693871021270751953125" lon="-0.00806749798357486724853515625">
        <ele>1577.5999755859375</ele>
        <time>2021-08-24T08:03:31.000Z</time>
      </trkpt>
      <trkpt lat="42.7050697803497314453125" lon="-0.00809415243566036224365234375">
        <ele>1576.4000244140625</ele>
        <time>2021-08-24T08:03:40.000Z</time>
      </trkpt>
      <trkpt lat="42.7050216682255268096923828125" lon="-0.008105970919132232666015625">
        <ele>1575.4000244140625</ele>
        <time>2021-08-24T08:03:46.000Z</time>
      </trkpt>
      <trkpt lat="42.70499157719314098358154296875" lon="-0.00814310275018215179443359375">
        <ele>1573.800048828125</ele>
        <time>2021-08-24T08:03:53.000Z</time>
      </trkpt>
      <trkpt lat="42.7049262821674346923828125" lon="-0.00812449492514133453369140625">
        <ele>1573.4000244140625</ele>
        <time>2021-08-24T08:04:01.000Z</time>
      </trkpt>
      <trkpt lat="42.70470340736210346221923828125" lon="-0.008060373365879058837890625">
        <ele>1572.199951171875</ele>
        <time>2021-08-24T08:04:23.000Z</time>
      </trkpt>
      <trkpt lat="42.70431498996913433074951171875" lon="-0.00788510777056217193603515625">
        <ele>1572.199951171875</ele>
        <time>2021-08-24T08:04:59.000Z</time>
      </trkpt>
      <trkpt lat="42.70426570437848567962646484375" lon="-0.00783666037023067474365234375">
        <ele>1574</ele>
        <time>2021-08-24T08:05:06.000Z</time>
      </trkpt>
      <trkpt lat="42.70423703826963901519775390625" lon="-0.0078456290066242218017578125">
        <ele>1573.5999755859375</ele>
        <time>2021-08-24T08:05:08.000Z</time>
      </trkpt>
      <trkpt lat="42.70411835052073001861572265625" lon="-0.00790740363299846649169921875">
        <ele>1568.4000244140625</ele>
        <time>2021-08-24T08:05:17.000Z</time>
      </trkpt>
      <trkpt lat="42.70404777489602565765380859375" lon="-0.00789969228208065032958984375">
        <ele>1566.5999755859375</ele>
        <time>2021-08-24T08:05:25.000Z</time>
      </trkpt>
      <trkpt lat="42.704009301960468292236328125" lon="-0.00788209028542041778564453125">
        <ele>1566.199951171875</ele>
        <time>2021-08-24T08:05:30.000Z</time>
      </trkpt>
      <trkpt lat="42.7040071226656436920166015625" lon="-0.00789701007306575775146484375">
        <ele>1565.5999755859375</ele>
        <time>2021-08-24T08:05:32.000Z</time>
      </trkpt>
      <trkpt lat="42.70403889007866382598876953125" lon="-0.007912851870059967041015625">
        <ele>1566</ele>
        <time>2021-08-24T08:05:37.000Z</time>
      </trkpt>
      <trkpt lat="42.70407845266163349151611328125" lon="-0.00795149244368076324462890625">
        <ele>1566.5999755859375</ele>
        <time>2021-08-24T08:05:43.000Z</time>
      </trkpt>
      <trkpt lat="42.70408616401255130767822265625" lon="-0.00797362066805362701416015625">
        <ele>1566.5999755859375</ele>
        <time>2021-08-24T08:05:45.000Z</time>
      </trkpt>
      <trkpt lat="42.704084403812885284423828125" lon="-0.00803464092314243316650390625">
        <ele>1566.199951171875</ele>
        <time>2021-08-24T08:05:49.000Z</time>
      </trkpt>
      <trkpt lat="42.70407225005328655242919921875" lon="-0.00806950964033603668212890625">
        <ele>1565.5999755859375</ele>
        <time>2021-08-24T08:05:52.000Z</time>
      </trkpt>
      <trkpt lat="42.7040657959878444671630859375" lon="-0.0081084854900836944580078125">
        <ele>1564.199951171875</ele>
        <time>2021-08-24T08:06:17.000Z</time>
      </trkpt>
      <trkpt lat="42.70406437106430530548095703125" lon="-0.008108317852020263671875">
        <ele>1564.199951171875</ele>
        <time>2021-08-24T08:06:18.000Z</time>
      </trkpt>
      <trkpt lat="42.70416243933141231536865234375" lon="-0.0081798993051052093505859375">
        <ele>1561.5999755859375</ele>
        <time>2021-08-24T08:42:01.000Z</time>
      </trkpt>
      <trkpt lat="42.7041616849601268768310546875" lon="-0.008183084428310394287109375">
        <ele>1561.4000244140625</ele>
        <time>2021-08-24T08:42:03.000Z</time>
      </trkpt>
      <trkpt lat="42.70416595973074436187744140625" lon="-0.008184425532817840576171875">
        <ele>1561.4000244140625</ele>
        <time>2021-08-24T08:42:04.000Z</time>
      </trkpt>
      <trkpt lat="42.70423921756446361541748046875" lon="-0.00826715491712093353271484375">
        <ele>1559.800048828125</ele>
        <time>2021-08-24T08:42:15.000Z</time>
      </trkpt>
      <trkpt lat="42.70432421006262302398681640625" lon="-0.00846396200358867645263671875">
        <ele>1557</ele>
        <time>2021-08-24T08:42:33.000Z</time>
      </trkpt>
      <trkpt lat="42.7043615095317363739013671875" lon="-0.00851668417453765869140625">
        <ele>1556.5999755859375</ele>
        <time>2021-08-24T08:42:38.000Z</time>
      </trkpt>
      <trkpt lat="42.704370059072971343994140625" lon="-0.00852867029607295989990234375">
        <ele>1556.5999755859375</ele>
        <time>2021-08-24T08:42:39.000Z</time>
      </trkpt>
      <trkpt lat="42.70437818951904773712158203125" lon="-0.00853889621794223785400390625">
        <ele>1556.5999755859375</ele>
        <time>2021-08-24T08:42:40.000Z</time>
      </trkpt>
      <trkpt lat="42.70438707433640956878662109375" lon="-0.008549205958843231201171875">
        <ele>1556.5999755859375</ele>
        <time>2021-08-24T08:42:41.000Z</time>
      </trkpt>
      <trkpt lat="42.70441372878849506378173828125" lon="-0.008567981421947479248046875">
        <ele>1556.5999755859375</ele>
        <time>2021-08-24T08:42:44.000Z</time>
      </trkpt>
      <trkpt lat="42.70445764996111392974853515625" lon="-0.008590780198574066162109375">
        <ele>1556.5999755859375</ele>
        <time>2021-08-24T08:42:50.000Z</time>
      </trkpt>
      <trkpt lat="42.70453778095543384552001953125" lon="-0.00866395421326160430908203125">
        <ele>1556.4000244140625</ele>
        <time>2021-08-24T08:43:00.000Z</time>
      </trkpt>
      <trkpt lat="42.70455722697079181671142578125" lon="-0.0086700730025768280029296875">
        <ele>1556.5999755859375</ele>
        <time>2021-08-24T08:43:02.000Z</time>
      </trkpt>
      <trkpt lat="42.70456560887396335601806640625" lon="-0.0086744315922260284423828125">
        <ele>1556.800048828125</ele>
        <time>2021-08-24T08:43:03.000Z</time>
      </trkpt>
      <trkpt lat="42.70457281731069087982177734375" lon="-0.00867937691509723663330078125">
        <ele>1556.800048828125</ele>
        <time>2021-08-24T08:43:04.000Z</time>
      </trkpt>
      <trkpt lat="42.704579941928386688232421875" lon="-0.008682645857334136962890625">
        <ele>1556.800048828125</ele>
        <time>2021-08-24T08:43:05.000Z</time>
      </trkpt>
      <trkpt lat="42.704595029354095458984375" lon="-0.00868340022861957550048828125">
        <ele>1557</ele>
        <time>2021-08-24T08:43:07.000Z</time>
      </trkpt>
      <trkpt lat="42.70460374653339385986328125" lon="-0.00868775881826877593994140625">
        <ele>1557</ele>
        <time>2021-08-24T08:43:08.000Z</time>
      </trkpt>
      <trkpt lat="42.70462294109165668487548828125" lon="-0.0087010860443115234375">
        <ele>1557</ele>
        <time>2021-08-24T08:43:10.000Z</time>
      </trkpt>
      <trkpt lat="42.70470567047595977783203125" lon="-0.00872195698320865631103515625">
        <ele>1557.5999755859375</ele>
        <time>2021-08-24T08:43:18.000Z</time>
      </trkpt>
      <trkpt lat="42.70474481396377086639404296875" lon="-0.008714832365512847900390625">
        <ele>1558.199951171875</ele>
        <time>2021-08-24T08:43:24.000Z</time>
      </trkpt>
      <trkpt lat="42.70478605292737483978271484375" lon="-0.00869731418788433074951171875">
        <ele>1558.800048828125</ele>
        <time>2021-08-24T08:43:30.000Z</time>
      </trkpt>
      <trkpt lat="42.704798541963100433349609375" lon="-0.00869295559823513031005859375">
        <ele>1559</ele>
        <time>2021-08-24T08:43:32.000Z</time>
      </trkpt>
      <trkpt lat="42.70481924526393413543701171875" lon="-0.0086831487715244293212890625">
        <ele>1559.199951171875</ele>
        <time>2021-08-24T08:43:35.000Z</time>
      </trkpt>
      <trkpt lat="42.70483667962253093719482421875" lon="-0.0086729228496551513671875">
        <ele>1559.4000244140625</ele>
        <time>2021-08-24T08:43:37.000Z</time>
      </trkpt>
      <trkpt lat="42.704856880009174346923828125" lon="-0.0086630322039127349853515625">
        <ele>1559.5999755859375</ele>
        <time>2021-08-24T08:43:39.000Z</time>
      </trkpt>
      <trkpt lat="42.704919241368770599365234375" lon="-0.00860846601426601409912109375">
        <ele>1560.5999755859375</ele>
        <time>2021-08-24T08:43:49.000Z</time>
      </trkpt>
      <trkpt lat="42.70495872013270854949951171875" lon="-0.0085875950753688812255859375">
        <ele>1560.800048828125</ele>
        <time>2021-08-24T08:43:57.000Z</time>
      </trkpt>
      <trkpt lat="42.70502996630966663360595703125" lon="-0.00857342965900897979736328125">
        <ele>1560.199951171875</ele>
        <time>2021-08-24T08:44:03.000Z</time>
      </trkpt>
      <trkpt lat="42.7050833590328693389892578125" lon="-0.0085751898586750030517578125">
        <ele>1560</ele>
        <time>2021-08-24T08:44:07.000Z</time>
      </trkpt>
      <trkpt lat="42.705170698463916778564453125" lon="-0.008598156273365020751953125">
        <ele>1559.800048828125</ele>
        <time>2021-08-24T08:44:13.000Z</time>
      </trkpt>
      <trkpt lat="42.70521872676908969879150390625" lon="-0.0086328573524951934814453125">
        <ele>1558.5999755859375</ele>
        <time>2021-08-24T08:44:17.000Z</time>
      </trkpt>
      <trkpt lat="42.7052768133580684661865234375" lon="-0.00869630835950374603271484375">
        <ele>1555.5999755859375</ele>
        <time>2021-08-24T08:44:23.000Z</time>
      </trkpt>
      <trkpt lat="42.70534512586891651153564453125" lon="-0.0088472664356231689453125">
        <ele>1549.800048828125</ele>
        <time>2021-08-24T08:44:34.000Z</time>
      </trkpt>
      <trkpt lat="42.7053505741059780120849609375" lon="-0.008900575339794158935546875">
        <ele>1548</ele>
        <time>2021-08-24T08:44:39.000Z</time>
      </trkpt>
      <trkpt lat="42.7053851075470447540283203125" lon="-0.0089818798005580902099609375">
        <ele>1545</ele>
        <time>2021-08-24T08:44:46.000Z</time>
      </trkpt>
      <trkpt lat="42.70545207895338535308837890625" lon="-0.0091669522225856781005859375">
        <ele>1542.800048828125</ele>
        <time>2021-08-24T08:44:59.000Z</time>
      </trkpt>
      <trkpt lat="42.70546750165522098541259765625" lon="-0.00926460139453411102294921875">
        <ele>1541.800048828125</ele>
        <time>2021-08-24T08:45:06.000Z</time>
      </trkpt>
      <trkpt lat="42.705466747283935546875" lon="-0.0095649249851703643798828125">
        <ele>1538.5999755859375</ele>
        <time>2021-08-24T08:45:25.000Z</time>
      </trkpt>
      <trkpt lat="42.7054726146161556243896484375" lon="-0.009739436209201812744140625">
        <ele>1536.199951171875</ele>
        <time>2021-08-24T08:45:36.000Z</time>
      </trkpt>
      <trkpt lat="42.7054776437580585479736328125" lon="-0.00976768322288990020751953125">
        <ele>1535.800048828125</ele>
        <time>2021-08-24T08:45:38.000Z</time>
      </trkpt>
      <trkpt lat="42.7057059668004512786865234375" lon="-0.00991973094642162322998046875">
        <ele>1535.199951171875</ele>
        <time>2021-08-24T08:46:02.000Z</time>
      </trkpt>
      <trkpt lat="42.70577453076839447021484375" lon="-0.0099281966686248779296875">
        <ele>1535.199951171875</ele>
        <time>2021-08-24T08:46:07.000Z</time>
      </trkpt>
      <trkpt lat="42.705787606537342071533203125" lon="-0.009925849735736846923828125">
        <ele>1535.199951171875</ele>
        <time>2021-08-24T08:46:08.000Z</time>
      </trkpt>
      <trkpt lat="42.705893218517303466796875" lon="-0.009942613542079925537109375">
        <ele>1534.800048828125</ele>
        <time>2021-08-24T08:46:18.000Z</time>
      </trkpt>
      <trkpt lat="42.7059426717460155487060546875" lon="-0.00996197573840618133544921875">
        <ele>1534</ele>
        <time>2021-08-24T08:46:22.000Z</time>
      </trkpt>
      <trkpt lat="42.70596320740878582000732421875" lon="-0.009974129498004913330078125">
        <ele>1533.5999755859375</ele>
        <time>2021-08-24T08:46:24.000Z</time>
      </trkpt>
      <trkpt lat="42.70597360096871852874755859375" lon="-0.00997907482087612152099609375">
        <ele>1533.4000244140625</ele>
        <time>2021-08-24T08:46:25.000Z</time>
      </trkpt>
      <trkpt lat="42.70598483271896839141845703125" lon="-0.0099823437631130218505859375">
        <ele>1533.199951171875</ele>
        <time>2021-08-24T08:46:26.000Z</time>
      </trkpt>
      <trkpt lat="42.70599891431629657745361328125" lon="-0.00998427160084247589111328125">
        <ele>1533.199951171875</ele>
        <time>2021-08-24T08:46:27.000Z</time>
      </trkpt>
      <trkpt lat="42.706011235713958740234375" lon="-0.0099836848676204681396484375">
        <ele>1533.199951171875</ele>
        <time>2021-08-24T08:46:28.000Z</time>
      </trkpt>
      <trkpt lat="42.706098072230815887451171875" lon="-0.0099605508148670196533203125">
        <ele>1533.5999755859375</ele>
        <time>2021-08-24T08:46:34.000Z</time>
      </trkpt>
      <trkpt lat="42.7061639539897441864013671875" lon="-0.0099444575607776641845703125">
        <ele>1534.199951171875</ele>
        <time>2021-08-24T08:46:39.000Z</time>
      </trkpt>
      <trkpt lat="42.706189267337322235107421875" lon="-0.009937919676303863525390625">
        <ele>1534.199951171875</ele>
        <time>2021-08-24T08:46:41.000Z</time>
      </trkpt>
      <trkpt lat="42.7062105573713779449462890625" lon="-0.00993012450635433197021484375">
        <ele>1534.199951171875</ele>
        <time>2021-08-24T08:46:43.000Z</time>
      </trkpt>
      <trkpt lat="42.70622036419808864593505859375" lon="-0.00992844812572002410888671875">
        <ele>1534</ele>
        <time>2021-08-24T08:46:44.000Z</time>
      </trkpt>
      <trkpt lat="42.70624148659408092498779296875" lon="-0.00991838984191417694091796875">
        <ele>1534</ele>
        <time>2021-08-24T08:46:46.000Z</time>
      </trkpt>
      <trkpt lat="42.70632304251194000244140625" lon="-0.00989911146461963653564453125">
        <ele>1533.5999755859375</ele>
        <time>2021-08-24T08:46:52.000Z</time>
      </trkpt>
      <trkpt lat="42.70633636973798274993896484375" lon="-0.00989735126495361328125">
        <ele>1533.4000244140625</ele>
        <time>2021-08-24T08:46:53.000Z</time>
      </trkpt>
      <trkpt lat="42.7063496969640254974365234375" lon="-0.0098955072462558746337890625">
        <ele>1533.4000244140625</ele>
        <time>2021-08-24T08:46:54.000Z</time>
      </trkpt>
      <trkpt lat="42.70636436529457569122314453125" lon="-0.00989642925560474395751953125">
        <ele>1533.199951171875</ele>
        <time>2021-08-24T08:46:55.000Z</time>
      </trkpt>
      <trkpt lat="42.7063792012631893157958984375" lon="-0.00989592634141445159912109375">
        <ele>1533</ele>
        <time>2021-08-24T08:46:56.000Z</time>
      </trkpt>
      <trkpt lat="42.7063956297934055328369140625" lon="-0.00989844091236591339111328125">
        <ele>1532.800048828125</ele>
        <time>2021-08-24T08:46:57.000Z</time>
      </trkpt>
      <trkpt lat="42.7064861543476581573486328125" lon="-0.0098841078579425811767578125">
        <ele>1531.4000244140625</ele>
        <time>2021-08-24T08:47:04.000Z</time>
      </trkpt>
      <trkpt lat="42.70662219263613224029541015625" lon="-0.00988435931503772735595703125">
        <ele>1527.4000244140625</ele>
        <time>2021-08-24T08:47:17.000Z</time>
      </trkpt>
      <trkpt lat="42.7066536247730255126953125" lon="-0.00994957052171230316162109375">
        <ele>1525.199951171875</ele>
        <time>2021-08-24T08:47:22.000Z</time>
      </trkpt>
      <trkpt lat="42.7065753377974033355712890625" lon="-0.01022902317345142364501953125">
        <ele>1522.199951171875</ele>
        <time>2021-08-24T08:47:41.000Z</time>
      </trkpt>
      <trkpt lat="42.7065263874828815460205078125" lon="-0.01063923351466655731201171875">
        <ele>1517.800048828125</ele>
        <time>2021-08-24T08:48:08.000Z</time>
      </trkpt>
      <trkpt lat="42.7065807022154331207275390625" lon="-0.01083855517208576202392578125">
        <ele>1516.5999755859375</ele>
        <time>2021-08-24T08:48:23.000Z</time>
      </trkpt>
      <trkpt lat="42.70667080767452716827392578125" lon="-0.01085498370230197906494140625">
        <ele>1516.4000244140625</ele>
        <time>2021-08-24T08:48:33.000Z</time>
      </trkpt>
      <trkpt lat="42.7067045867443084716796875" lon="-0.01086722128093242645263671875">
        <ele>1516.4000244140625</ele>
        <time>2021-08-24T08:48:38.000Z</time>
      </trkpt>
      <trkpt lat="42.70672445185482501983642578125" lon="-0.010876357555389404296875">
        <ele>1516.4000244140625</ele>
        <time>2021-08-24T08:48:41.000Z</time>
      </trkpt>
      <trkpt lat="42.706967107951641082763671875" lon="-0.010845176875591278076171875">
        <ele>1513.4000244140625</ele>
        <time>2021-08-24T08:49:05.000Z</time>
      </trkpt>
      <trkpt lat="42.70703558810055255889892578125" lon="-0.01087727956473827362060546875">
        <ele>1512.5999755859375</ele>
        <time>2021-08-24T08:49:12.000Z</time>
      </trkpt>
      <trkpt lat="42.7072061598300933837890625" lon="-0.0108852423727512359619140625">
        <ele>1509.199951171875</ele>
        <time>2021-08-24T08:49:27.000Z</time>
      </trkpt>
      <trkpt lat="42.70723901689052581787109375" lon="-0.01077988184988498687744140625">
        <ele>1509.199951171875</ele>
        <time>2021-08-24T08:49:36.000Z</time>
      </trkpt>
      <trkpt lat="42.707368433475494384765625" lon="-0.01070578582584857940673828125">
        <ele>1506.800048828125</ele>
        <time>2021-08-24T08:49:49.000Z</time>
      </trkpt>
      <trkpt lat="42.70753146149218082427978515625" lon="-0.0106577575206756591796875">
        <ele>1502.5999755859375</ele>
        <time>2021-08-24T08:49:59.000Z</time>
      </trkpt>
      <trkpt lat="42.70761997438967227935791015625" lon="-0.0106116570532321929931640625">
        <ele>1498.800048828125</ele>
        <time>2021-08-24T08:50:06.000Z</time>
      </trkpt>
      <trkpt lat="42.70789540372788906097412109375" lon="-0.01014218665659427642822265625">
        <ele>1489.800048828125</ele>
        <time>2021-08-24T08:50:38.000Z</time>
      </trkpt>
      <trkpt lat="42.70790060050785541534423828125" lon="-0.0101067312061786651611328125">
        <ele>1489.800048828125</ele>
        <time>2021-08-24T08:50:40.000Z</time>
      </trkpt>
      <trkpt lat="42.70796782337129116058349609375" lon="-0.00991067849099636077880859375">
        <ele>1490.199951171875</ele>
        <time>2021-08-24T08:50:52.000Z</time>
      </trkpt>
      <trkpt lat="42.70803672261536121368408203125" lon="-0.0098173879086971282958984375">
        <ele>1489.4000244140625</ele>
        <time>2021-08-24T08:51:00.000Z</time>
      </trkpt>
      <trkpt lat="42.70826973952353000640869140625" lon="-0.009290166199207305908203125">
        <ele>1485.800048828125</ele>
        <time>2021-08-24T08:51:37.000Z</time>
      </trkpt>
      <trkpt lat="42.708469144999980926513671875" lon="-0.00871676020324230194091796875">
        <ele>1476.4000244140625</ele>
        <time>2021-08-24T08:52:14.000Z</time>
      </trkpt>
      <trkpt lat="42.70863167010247707366943359375" lon="-0.00838525593280792236328125">
        <ele>1476.800048828125</ele>
        <time>2021-08-24T08:52:41.000Z</time>
      </trkpt>
      <trkpt lat="42.708668299019336700439453125" lon="-0.0083914585411548614501953125">
        <ele>1475.800048828125</ele>
        <time>2021-08-24T08:52:44.000Z</time>
      </trkpt>
      <trkpt lat="42.70874750800430774688720703125" lon="-0.008384250104427337646484375">
        <ele>1474.199951171875</ele>
        <time>2021-08-24T08:52:49.000Z</time>
      </trkpt>
      <trkpt lat="42.7090394496917724609375" lon="-0.0084910355508327484130859375">
        <ele>1466</ele>
        <time>2021-08-24T08:53:10.000Z</time>
      </trkpt>
      <trkpt lat="42.70904657430946826934814453125" lon="-0.00848927535116672515869140625">
        <ele>1466</ele>
        <time>2021-08-24T08:53:11.000Z</time>
      </trkpt>
      <trkpt lat="42.70905562676489353179931640625" lon="-0.00848558731377124786376953125">
        <ele>1465.800048828125</ele>
        <time>2021-08-24T08:53:12.000Z</time>
      </trkpt>
      <trkpt lat="42.70912502892315387725830078125" lon="-0.00845474191009998321533203125">
        <ele>1465.199951171875</ele>
        <time>2021-08-24T08:53:20.000Z</time>
      </trkpt>
      <trkpt lat="42.70930993370711803436279296875" lon="-0.0084662251174449920654296875">
        <ele>1462</ele>
        <time>2021-08-24T08:53:35.000Z</time>
      </trkpt>
      <trkpt lat="42.70935234613716602325439453125" lon="-0.00846312381327152252197265625">
        <ele>1461</ele>
        <time>2021-08-24T08:53:39.000Z</time>
      </trkpt>
      <trkpt lat="42.70950824953615665435791015625" lon="-0.00840545631945133209228515625">
        <ele>1457.800048828125</ele>
        <time>2021-08-24T08:53:50.000Z</time>
      </trkpt>
      <trkpt lat="42.7096605487167835235595703125" lon="-0.00831107608973979949951171875">
        <ele>1456</ele>
        <time>2021-08-24T08:54:01.000Z</time>
      </trkpt>
      <trkpt lat="42.70970857702195644378662109375" lon="-0.00827654264867305755615234375">
        <ele>1455.4000244140625</ele>
        <time>2021-08-24T08:54:05.000Z</time>
      </trkpt>
      <trkpt lat="42.70973506383597850799560546875" lon="-0.00826447270810604095458984375">
        <ele>1455.199951171875</ele>
        <time>2021-08-24T08:54:07.000Z</time>
      </trkpt>
      <trkpt lat="42.70976088009774684906005859375" lon="-0.0082499720156192779541015625">
        <ele>1455</ele>
        <time>2021-08-24T08:54:09.000Z</time>
      </trkpt>
      <trkpt lat="42.709771692752838134765625" lon="-0.00824083574116230010986328125">
        <ele>1455</ele>
        <time>2021-08-24T08:54:10.000Z</time>
      </trkpt>
      <trkpt lat="42.70979105494916439056396484375" lon="-0.00821552239358425140380859375">
        <ele>1454.800048828125</ele>
        <time>2021-08-24T08:54:12.000Z</time>
      </trkpt>
      <trkpt lat="42.709811590611934661865234375" lon="-0.00819456763565540313720703125">
        <ele>1454.4000244140625</ele>
        <time>2021-08-24T08:54:14.000Z</time>
      </trkpt>
      <trkpt lat="42.7098228223621845245361328125" lon="-0.0081847608089447021484375">
        <ele>1454</ele>
        <time>2021-08-24T08:54:15.000Z</time>
      </trkpt>
      <trkpt lat="42.7098345570266246795654296875" lon="-0.008175037801265716552734375">
        <ele>1453.800048828125</ele>
        <time>2021-08-24T08:54:16.000Z</time>
      </trkpt>
      <trkpt lat="42.70993690006434917449951171875" lon="-0.0081410072743892669677734375">
        <ele>1451.5999755859375</ele>
        <time>2021-08-24T08:54:21.000Z</time>
      </trkpt>
      <trkpt lat="42.7099743671715259552001953125" lon="-0.008128099143505096435546875">
        <ele>1450.800048828125</ele>
        <time>2021-08-24T08:54:23.000Z</time>
      </trkpt>
      <trkpt lat="42.7099928073585033416748046875" lon="-0.00812030397355556488037109375">
        <ele>1450.4000244140625</ele>
        <time>2021-08-24T08:54:24.000Z</time>
      </trkpt>
      <trkpt lat="42.71000814624130725860595703125" lon="-0.00811309553682804107666015625">
        <ele>1450</ele>
        <time>2021-08-24T08:54:25.000Z</time>
      </trkpt>
      <trkpt lat="42.7103428356349468231201171875" lon="-0.008110664784908294677734375">
        <ele>1447.4000244140625</ele>
        <time>2021-08-24T08:54:52.000Z</time>
      </trkpt>
      <trkpt lat="42.71049496717751026153564453125" lon="-0.00817730091512203216552734375">
        <ele>1446.5999755859375</ele>
        <time>2021-08-24T08:55:04.000Z</time>
      </trkpt>
      <trkpt lat="42.71074022166430950164794921875" lon="-0.00821971334517002105712890625">
        <ele>1445.800048828125</ele>
        <time>2021-08-24T08:55:25.000Z</time>
      </trkpt>
      <trkpt lat="42.71094272844493389129638671875" lon="-0.00825089402496814727783203125">
        <ele>1445.5999755859375</ele>
        <time>2021-08-24T08:55:42.000Z</time>
      </trkpt>
      <trkpt lat="42.7114011347293853759765625" lon="-0.00823505222797393798828125">
        <ele>1444</ele>
        <time>2021-08-24T08:56:14.000Z</time>
      </trkpt>
      <trkpt lat="42.7118436992168426513671875" lon="-0.0080960802733898162841796875">
        <ele>1439.800048828125</ele>
        <time>2021-08-24T08:56:46.000Z</time>
      </trkpt>
      <trkpt lat="42.711928524076938629150390625" lon="-0.00806632451713085174560546875">
        <ele>1439.199951171875</ele>
        <time>2021-08-24T08:56:52.000Z</time>
      </trkpt>
      <trkpt lat="42.7122341282665729522705078125" lon="-0.00794813968241214752197265625">
        <ele>1436.4000244140625</ele>
        <time>2021-08-24T08:57:15.000Z</time>
      </trkpt>
      <trkpt lat="42.71267543546855449676513671875" lon="-0.00782274641096591949462890625">
        <ele>1436.800048828125</ele>
        <time>2021-08-24T08:57:47.000Z</time>
      </trkpt>
      <trkpt lat="42.71313157863914966583251953125" lon="-0.00783381052315235137939453125">
        <ele>1436.800048828125</ele>
        <time>2021-08-24T08:58:22.000Z</time>
      </trkpt>
      <trkpt lat="42.71330424584448337554931640625" lon="-0.00783012248575687408447265625">
        <ele>1435</ele>
        <time>2021-08-24T08:58:33.000Z</time>
      </trkpt>
      <trkpt lat="42.71375385113060474395751953125" lon="-0.0078422762453556060791015625">
        <ele>1433.199951171875</ele>
        <time>2021-08-24T08:59:07.000Z</time>
      </trkpt>
      <trkpt lat="42.71387522108852863311767578125" lon="-0.007828362286090850830078125">
        <ele>1433.4000244140625</ele>
        <time>2021-08-24T08:59:16.000Z</time>
      </trkpt>
      <trkpt lat="42.71396440453827381134033203125" lon="-0.00780715607106685638427734375">
        <ele>1433.4000244140625</ele>
        <time>2021-08-24T08:59:22.000Z</time>
      </trkpt>
      <trkpt lat="42.714076302945613861083984375" lon="-0.00778838060796260833740234375">
        <ele>1433</ele>
        <time>2021-08-24T08:59:29.000Z</time>
      </trkpt>
      <trkpt lat="42.71418593823909759521484375" lon="-0.00779340974986553192138671875">
        <ele>1432.199951171875</ele>
        <time>2021-08-24T08:59:37.000Z</time>
      </trkpt>
      <trkpt lat="42.714213766157627105712890625" lon="-0.0077958405017852783203125">
        <ele>1432</ele>
        <time>2021-08-24T08:59:39.000Z</time>
      </trkpt>
      <trkpt lat="42.71432650275528430938720703125" lon="-0.00780011527240276336669921875">
        <ele>1431.4000244140625</ele>
        <time>2021-08-24T08:59:47.000Z</time>
      </trkpt>
      <trkpt lat="42.71446631290018558502197265625" lon="-0.0077671743929386138916015625">
        <ele>1431.800048828125</ele>
        <time>2021-08-24T08:59:57.000Z</time>
      </trkpt>
      <trkpt lat="42.7144784666597843170166015625" lon="-0.0077628158032894134521484375">
        <ele>1432</ele>
        <time>2021-08-24T08:59:58.000Z</time>
      </trkpt>
      <trkpt lat="42.71463294513523578643798828125" lon="-0.00762619078159332275390625">
        <ele>1432</ele>
        <time>2021-08-24T09:00:12.000Z</time>
      </trkpt>
      <trkpt lat="42.71468893624842166900634765625" lon="-0.0075437128543853759765625">
        <ele>1432</ele>
        <time>2021-08-24T09:00:18.000Z</time>
      </trkpt>
      <trkpt lat="42.71507400088012218475341796875" lon="-0.00748805701732635498046875">
        <ele>1429.4000244140625</ele>
        <time>2021-08-24T09:00:47.000Z</time>
      </trkpt>
      <trkpt lat="42.71540257148444652557373046875" lon="-0.00744774006307125091552734375">
        <ele>1429.199951171875</ele>
        <time>2021-08-24T09:01:10.000Z</time>
      </trkpt>
      <trkpt lat="42.71586089394986629486083984375" lon="-0.00735352747142314910888671875">
        <ele>1429</ele>
        <time>2021-08-24T09:01:42.000Z</time>
      </trkpt>
      <trkpt lat="42.716047056019306182861328125" lon="-0.00732117332518100738525390625">
        <ele>1426.5999755859375</ele>
        <time>2021-08-24T09:01:55.000Z</time>
      </trkpt>
      <trkpt lat="42.71607312373816967010498046875" lon="-0.007316730916500091552734375">
        <ele>1426</ele>
        <time>2021-08-24T09:01:57.000Z</time>
      </trkpt>
      <trkpt lat="42.716348133981227874755859375" lon="-0.0072367675602436065673828125">
        <ele>1425.199951171875</ele>
        <time>2021-08-24T09:02:15.000Z</time>
      </trkpt>
      <trkpt lat="42.71673001348972320556640625" lon="-0.00713224522769451141357421875">
        <ele>1427</ele>
        <time>2021-08-24T09:02:43.000Z</time>
      </trkpt>
      <trkpt lat="42.71685205399990081787109375" lon="-0.0071143917739391326904296875">
        <ele>1427.4000244140625</ele>
        <time>2021-08-24T09:03:06.000Z</time>
      </trkpt>
      <trkpt lat="42.717252038419246673583984375" lon="-0.00723618082702159881591796875">
        <ele>1428</ele>
        <time>2021-08-24T09:03:46.000Z</time>
      </trkpt>
      <trkpt lat="42.7176775038242340087890625" lon="-0.00734858214855194091796875">
        <ele>1431.199951171875</ele>
        <time>2021-08-24T09:04:19.000Z</time>
      </trkpt>
      <trkpt lat="42.717984616756439208984375" lon="-0.00755083747208118438720703125">
        <ele>1433</ele>
        <time>2021-08-24T09:04:54.000Z</time>
      </trkpt>
      <trkpt lat="42.71840647794306278228759765625" lon="-0.007752589881420135498046875">
        <ele>1436</ele>
        <time>2021-08-24T09:05:34.000Z</time>
      </trkpt>
      <trkpt lat="42.71884904243052005767822265625" lon="-0.00769366510212421417236328125">
        <ele>1434.199951171875</ele>
        <time>2021-08-24T09:06:11.000Z</time>
      </trkpt>
      <trkpt lat="42.71897896192967891693115234375" lon="-0.0076347403228282928466796875">
        <ele>1435.199951171875</ele>
        <time>2021-08-24T09:06:25.000Z</time>
      </trkpt>
      <trkpt lat="42.71942856721580028533935546875" lon="-0.00778033398091793060302734375">
        <ele>1427.5999755859375</ele>
        <time>2021-08-24T09:07:01.000Z</time>
      </trkpt>
      <trkpt lat="42.71987180225551128387451171875" lon="-0.007959790527820587158203125">
        <ele>1417.4000244140625</ele>
        <time>2021-08-24T09:07:37.000Z</time>
      </trkpt>
      <trkpt lat="42.720007002353668212890625" lon="-0.0081701762974262237548828125">
        <ele>1413.5999755859375</ele>
        <time>2021-08-24T09:07:54.000Z</time>
      </trkpt>
      <trkpt lat="42.72005050443112850189208984375" lon="-0.00824443995952606201171875">
        <ele>1412.199951171875</ele>
        <time>2021-08-24T09:07:59.000Z</time>
      </trkpt>
      <trkpt lat="42.720406316220760345458984375" lon="-0.0084940530359745025634765625">
        <ele>1409.5999755859375</ele>
        <time>2021-08-24T09:08:32.000Z</time>
      </trkpt>
      <trkpt lat="42.72056800313293933868408203125" lon="-0.00857971608638763427734375">
        <ele>1409.199951171875</ele>
        <time>2021-08-24T09:08:47.000Z</time>
      </trkpt>
      <trkpt lat="42.72079347632825374603271484375" lon="-0.00867627561092376708984375">
        <ele>1406</ele>
        <time>2021-08-24T09:09:10.000Z</time>
      </trkpt>
      <trkpt lat="42.7212238870561122894287109375" lon="-0.00880762003362178802490234375">
        <ele>1401.800048828125</ele>
        <time>2021-08-24T09:09:42.000Z</time>
      </trkpt>
      <trkpt lat="42.721569724380970001220703125" lon="-0.00846915878355503082275390625">
        <ele>1398.199951171875</ele>
        <time>2021-08-24T09:10:15.000Z</time>
      </trkpt>
      <trkpt lat="42.7217921800911426544189453125" lon="-0.0081445276737213134765625">
        <ele>1394.4000244140625</ele>
        <time>2021-08-24T09:10:37.000Z</time>
      </trkpt>
      <trkpt lat="42.72203274071216583251953125" lon="-0.00785375945270061492919921875">
        <ele>1392</ele>
        <time>2021-08-24T09:11:02.000Z</time>
      </trkpt>
      <trkpt lat="42.72240447811782360076904296875" lon="-0.0075168907642364501953125">
        <ele>1393</ele>
        <time>2021-08-24T09:11:36.000Z</time>
      </trkpt>
      <trkpt lat="42.72247287444770336151123046875" lon="-0.00745712779462337493896484375">
        <ele>1393</ele>
        <time>2021-08-24T09:11:43.000Z</time>
      </trkpt>
      <trkpt lat="42.72253288887441158294677734375" lon="-0.00742326490581035614013671875">
        <ele>1393.199951171875</ele>
        <time>2021-08-24T09:11:47.000Z</time>
      </trkpt>
      <trkpt lat="42.7225462161004543304443359375" lon="-0.00741605646908283233642578125">
        <ele>1393.199951171875</ele>
        <time>2021-08-24T09:11:48.000Z</time>
      </trkpt>
      <trkpt lat="42.7225978486239910125732421875" lon="-0.00739577226340770721435546875">
        <ele>1393.199951171875</ele>
        <time>2021-08-24T09:11:51.000Z</time>
      </trkpt>
      <trkpt lat="42.722614109516143798828125" lon="-0.00739007256925106048583984375">
        <ele>1393.199951171875</ele>
        <time>2021-08-24T09:11:52.000Z</time>
      </trkpt>
      <trkpt lat="42.72263129241764545440673828125" lon="-0.00738722272217273712158203125">
        <ele>1393.199951171875</ele>
        <time>2021-08-24T09:11:53.000Z</time>
      </trkpt>
      <trkpt lat="42.7226702682673931121826171875" lon="-0.00736056827008724212646484375">
        <ele>1393</ele>
        <time>2021-08-24T09:11:56.000Z</time>
      </trkpt>
      <trkpt lat="42.722703628242015838623046875" lon="-0.007349587976932525634765625">
        <ele>1393</ele>
        <time>2021-08-24T09:11:59.000Z</time>
      </trkpt>
      <trkpt lat="42.72277571260929107666015625" lon="-0.0073640048503875732421875">
        <ele>1393</ele>
        <time>2021-08-24T09:12:04.000Z</time>
      </trkpt>
      <trkpt lat="42.72312783636152744293212890625" lon="-0.00737272202968597412109375">
        <ele>1393</ele>
        <time>2021-08-24T09:12:29.000Z</time>
      </trkpt>
      <trkpt lat="42.72315633483231067657470703125" lon="-0.007371716201305389404296875">
        <ele>1393</ele>
        <time>2021-08-24T09:12:39.000Z</time>
      </trkpt>
      <trkpt lat="42.72315683774650096893310546875" lon="-0.007364340126514434814453125">
        <ele>1393</ele>
        <time>2021-08-24T09:12:52.000Z</time>
      </trkpt>
      <trkpt lat="42.72317008115351200103759765625" lon="-0.0073598138988018035888671875">
        <ele>1393</ele>
        <time>2021-08-24T09:13:00.000Z</time>
      </trkpt>
      <trkpt lat="42.72317175753414630889892578125" lon="-0.00735419802367687225341796875">
        <ele>1393</ele>
        <time>2021-08-24T09:13:08.000Z</time>
      </trkpt>
      <trkpt lat="42.72317796014249324798583984375" lon="-0.00734858214855194091796875">
        <ele>1393</ele>
        <time>2021-08-24T09:13:16.000Z</time>
      </trkpt>
      <trkpt lat="42.72323529236018657684326171875" lon="-0.00738370232284069061279296875">
        <ele>1393.199951171875</ele>
        <time>2021-08-24T09:13:27.000Z</time>
      </trkpt>
      <trkpt lat="42.72364332340657711029052734375" lon="-0.00763633288443088531494140625">
        <ele>1392.199951171875</ele>
        <time>2021-08-24T09:14:01.000Z</time>
      </trkpt>
      <trkpt lat="42.724048085510730743408203125" lon="-0.0079250894486904144287109375">
        <ele>1389</ele>
        <time>2021-08-24T09:14:33.000Z</time>
      </trkpt>
      <trkpt lat="42.72439635358750820159912109375" lon="-0.00806414522230625152587890625">
        <ele>1389.4000244140625</ele>
        <time>2021-08-24T09:15:00.000Z</time>
      </trkpt>
      <trkpt lat="42.724442370235919952392578125" lon="-0.00807353295385837554931640625">
        <ele>1389.199951171875</ele>
        <time>2021-08-24T09:15:03.000Z</time>
      </trkpt>
      <trkpt lat="42.72445720620453357696533203125" lon="-0.0080742873251438140869140625">
        <ele>1389.199951171875</ele>
        <time>2021-08-24T09:15:04.000Z</time>
      </trkpt>
      <trkpt lat="42.7244881354272365570068359375" lon="-0.0080762989819049835205078125">
        <ele>1389</ele>
        <time>2021-08-24T09:15:06.000Z</time>
      </trkpt>
      <trkpt lat="42.72450079210102558135986328125" lon="-0.008081160485744476318359375">
        <ele>1389</ele>
        <time>2021-08-24T09:15:07.000Z</time>
      </trkpt>
      <trkpt lat="42.7245117723941802978515625" lon="-0.0080855190753936767578125">
        <ele>1389</ele>
        <time>2021-08-24T09:15:08.000Z</time>
      </trkpt>
      <trkpt lat="42.724536247551441192626953125" lon="-0.0080870278179645538330078125">
        <ele>1388.800048828125</ele>
        <time>2021-08-24T09:15:10.000Z</time>
      </trkpt>
      <trkpt lat="42.72454991005361080169677734375" lon="-0.0080883689224720001220703125">
        <ele>1388.5999755859375</ele>
        <time>2021-08-24T09:15:11.000Z</time>
      </trkpt>
      <trkpt lat="42.72456164471805095672607421875" lon="-0.00809029676020145416259765625">
        <ele>1388.5999755859375</ele>
        <time>2021-08-24T09:15:12.000Z</time>
      </trkpt>
      <trkpt lat="42.72458461113274097442626953125" lon="-0.0080923922359943389892578125">
        <ele>1388.4000244140625</ele>
        <time>2021-08-24T09:15:14.000Z</time>
      </trkpt>
      <trkpt lat="42.72483455948531627655029296875" lon="-0.00801838003098964691162109375">
        <ele>1386.199951171875</ele>
        <time>2021-08-24T09:15:31.000Z</time>
      </trkpt>
      <trkpt lat="42.724947296082973480224609375" lon="-0.0079701840877532958984375">
        <ele>1385.5999755859375</ele>
        <time>2021-08-24T09:15:39.000Z</time>
      </trkpt>
      <trkpt lat="42.72504159249365329742431640625" lon="-0.00794964842498302459716796875">
        <ele>1385.199951171875</ele>
        <time>2021-08-24T09:15:45.000Z</time>
      </trkpt>
      <trkpt lat="42.72512977011501789093017578125" lon="-0.0079049728810787200927734375">
        <ele>1385.5999755859375</ele>
        <time>2021-08-24T09:15:51.000Z</time>
      </trkpt>
      <trkpt lat="42.7252056263387203216552734375" lon="-0.00786297954618930816650390625">
        <ele>1386.4000244140625</ele>
        <time>2021-08-24T09:15:56.000Z</time>
      </trkpt>
      <trkpt lat="42.72524963133037090301513671875" lon="-0.00784001313149929046630859375">
        <ele>1387</ele>
        <time>2021-08-24T09:15:59.000Z</time>
      </trkpt>
      <trkpt lat="42.72526438347995281219482421875" lon="-0.00783146359026432037353515625">
        <ele>1387</ele>
        <time>2021-08-24T09:16:00.000Z</time>
      </trkpt>
      <trkpt lat="42.7252911217510700225830078125" lon="-0.00781319104135036468505859375">
        <ele>1387.4000244140625</ele>
        <time>2021-08-24T09:16:01.000Z</time>
      </trkpt>
      <trkpt lat="42.7252911217510700225830078125" lon="-0.00781319104135036468505859375">
        <ele>1387.4000244140625</ele>
        <time>2021-08-24T09:16:02.000Z</time>
      </trkpt>
      <trkpt lat="42.7257088758051395416259765625" lon="-0.00759174115955829620361328125">
        <ele>1387.5999755859375</ele>
        <time>2021-08-24T09:16:37.000Z</time>
      </trkpt>
      <trkpt lat="42.72572119720280170440673828125" lon="-0.00758419744670391082763671875">
        <ele>1387.4000244140625</ele>
        <time>2021-08-24T09:16:38.000Z</time>
      </trkpt>
      <trkpt lat="42.72579629905521869659423828125" lon="-0.00753256492316722869873046875">
        <ele>1387.199951171875</ele>
        <time>2021-08-24T09:16:45.000Z</time>
      </trkpt>
      <trkpt lat="42.72580652497708797454833984375" lon="-0.00752560794353485107421875">
        <ele>1387</ele>
        <time>2021-08-24T09:16:46.000Z</time>
      </trkpt>
      <trkpt lat="42.72581867873668670654296875" lon="-0.00752502121031284332275390625">
        <ele>1387</ele>
        <time>2021-08-24T09:16:47.000Z</time>
      </trkpt>
      <trkpt lat="42.7260196767747402191162109375" lon="-0.00745528377592563629150390625">
        <ele>1385.4000244140625</ele>
        <time>2021-08-24T09:17:03.000Z</time>
      </trkpt>
      <trkpt lat="42.7261309884488582611083984375" lon="-0.00745327211916446685791015625">
        <ele>1384.800048828125</ele>
        <time>2021-08-24T09:17:10.000Z</time>
      </trkpt>
      <trkpt lat="42.7265906520187854766845703125" lon="-0.00744103454053401947021484375">
        <ele>1387.4000244140625</ele>
        <time>2021-08-24T09:17:42.000Z</time>
      </trkpt>
      <trkpt lat="42.72683783434331417083740234375" lon="-0.00746852718293666839599609375">
        <ele>1387.800048828125</ele>
        <time>2021-08-24T09:18:02.000Z</time>
      </trkpt>
      <trkpt lat="42.72702835500240325927734375" lon="-0.007534325122833251953125">
        <ele>1387.199951171875</ele>
        <time>2021-08-24T09:18:20.000Z</time>
      </trkpt>
      <trkpt lat="42.72712701000273227691650390625" lon="-0.00750121660530567169189453125">
        <ele>1386.5999755859375</ele>
        <time>2021-08-24T09:18:35.000Z</time>
      </trkpt>
      <trkpt lat="42.72756974212825298309326171875" lon="-0.00765795819461345672607421875">
        <ele>1386.4000244140625</ele>
        <time>2021-08-24T09:19:09.000Z</time>
      </trkpt>
      <trkpt lat="42.72765875793993473052978515625" lon="-0.007635913789272308349609375">
        <ele>1387</ele>
        <time>2021-08-24T09:19:55.000Z</time>
      </trkpt>
      <trkpt lat="42.72766931913793087005615234375" lon="-0.00762459821999073028564453125">
        <ele>1387</ele>
        <time>2021-08-24T09:20:04.000Z</time>
      </trkpt>
      <trkpt lat="42.72766730748116970062255859375" lon="-0.00762007199227809906005859375">
        <ele>1387</ele>
        <time>2021-08-24T09:20:18.000Z</time>
      </trkpt>
      <trkpt lat="42.72766328416764736175537109375" lon="-0.00761546194553375244140625">
        <ele>1386.800048828125</ele>
        <time>2021-08-24T09:20:24.000Z</time>
      </trkpt>
      <trkpt lat="42.7276618592441082000732421875" lon="-0.00761386938393115997314453125">
        <ele>1386.800048828125</ele>
        <time>2021-08-24T09:20:30.000Z</time>
      </trkpt>
      <trkpt lat="42.72766646929085254669189453125" lon="-0.00762811861932277679443359375">
        <ele>1387</ele>
        <time>2021-08-24T09:20:35.000Z</time>
      </trkpt>
      <trkpt lat="42.72766244597733020782470703125" lon="-0.0077286176383495330810546875">
        <ele>1388.5999755859375</ele>
        <time>2021-08-24T09:20:43.000Z</time>
      </trkpt>
      <trkpt lat="42.72769815288484096527099609375" lon="-0.0078848563134670257568359375">
        <ele>1391.199951171875</ele>
        <time>2021-08-24T09:20:56.000Z</time>
      </trkpt>
      <trkpt lat="42.7277196943759918212890625" lon="-0.0078965909779071807861328125">
        <ele>1391.4000244140625</ele>
        <time>2021-08-24T09:20:58.000Z</time>
      </trkpt>
      <trkpt lat="42.7277664653956890106201171875" lon="-0.00790824182331562042236328125">
        <ele>1391.5999755859375</ele>
        <time>2021-08-24T09:21:02.000Z</time>
      </trkpt>
      <trkpt lat="42.72779144346714019775390625" lon="-0.00791762955486774444580078125">
        <ele>1391.800048828125</ele>
        <time>2021-08-24T09:21:04.000Z</time>
      </trkpt>
      <trkpt lat="42.7278041839599609375" lon="-0.0079210661351680755615234375">
        <ele>1392</ele>
        <time>2021-08-24T09:21:05.000Z</time>
      </trkpt>
      <trkpt lat="42.7278167568147182464599609375" lon="-0.00792550854384899139404296875">
        <ele>1392</ele>
        <time>2021-08-24T09:21:06.000Z</time>
      </trkpt>
      <trkpt lat="42.7278522960841655731201171875" lon="-0.0079314596951007843017578125">
        <ele>1392.199951171875</ele>
        <time>2021-08-24T09:21:09.000Z</time>
      </trkpt>
      <trkpt lat="42.72787459194660186767578125" lon="-0.0079304538667201995849609375">
        <ele>1392.4000244140625</ele>
        <time>2021-08-24T09:21:11.000Z</time>
      </trkpt>
      <trkpt lat="42.7280283160507678985595703125" lon="-0.0079569406807422637939453125">
        <ele>1393.4000244140625</ele>
        <time>2021-08-24T09:21:22.000Z</time>
      </trkpt>
      <trkpt lat="42.7281247079372406005859375" lon="-0.00800044275820255279541015625">
        <ele>1393.800048828125</ele>
        <time>2021-08-24T09:21:29.000Z</time>
      </trkpt>
      <trkpt lat="42.72823342122137546539306640625" lon="-0.0080652348697185516357421875">
        <ele>1393.4000244140625</ele>
        <time>2021-08-24T09:21:40.000Z</time>
      </trkpt>
      <trkpt lat="42.72826426662504673004150390625" lon="-0.008071102201938629150390625">
        <ele>1393</ele>
        <time>2021-08-24T09:21:45.000Z</time>
      </trkpt>
      <trkpt lat="42.728330902755260467529296875" lon="-0.00808711163699626922607421875">
        <ele>1392.5999755859375</ele>
        <time>2021-08-24T09:21:51.000Z</time>
      </trkpt>
      <trkpt lat="42.72846467792987823486328125" lon="-0.0080957449972629547119140625">
        <ele>1391.199951171875</ele>
        <time>2021-08-24T09:22:01.000Z</time>
      </trkpt>
      <trkpt lat="42.72869375534355640411376953125" lon="-0.00814125873148441314697265625">
        <ele>1388.4000244140625</ele>
        <time>2021-08-24T09:22:19.000Z</time>
      </trkpt>
      <trkpt lat="42.72870867513120174407958984375" lon="-0.00814243219792842864990234375">
        <ele>1388.199951171875</ele>
        <time>2021-08-24T09:22:20.000Z</time>
      </trkpt>
      <trkpt lat="42.72872225381433963775634765625" lon="-0.00814243219792842864990234375">
        <ele>1388</ele>
        <time>2021-08-24T09:22:21.000Z</time>
      </trkpt>
      <trkpt lat="42.72873197682201862335205078125" lon="-0.0081460364162921905517578125">
        <ele>1388</ele>
        <time>2021-08-24T09:22:22.000Z</time>
      </trkpt>
      <trkpt lat="42.72876516915857791900634765625" lon="-0.008153580129146575927734375">
        <ele>1388</ele>
        <time>2021-08-24T09:22:25.000Z</time>
      </trkpt>
      <trkpt lat="42.72880674339830875396728515625" lon="-0.0081524066627025604248046875">
        <ele>1387.800048828125</ele>
        <time>2021-08-24T09:22:28.000Z</time>
      </trkpt>
      <trkpt lat="42.7288896404206752777099609375" lon="-0.00818216241896152496337890625">
        <ele>1388</ele>
        <time>2021-08-24T09:22:33.000Z</time>
      </trkpt>
      <trkpt lat="42.729073874652385711669921875" lon="-0.00822859816253185272216796875">
        <ele>1387.4000244140625</ele>
        <time>2021-08-24T09:22:47.000Z</time>
      </trkpt>
      <trkpt lat="42.72938140667974948883056640625" lon="-0.00821761786937713623046875">
        <ele>1384.5999755859375</ele>
        <time>2021-08-24T09:23:15.000Z</time>
      </trkpt>
      <trkpt lat="42.72981391288340091705322265625" lon="-0.00835482962429523468017578125">
        <ele>1382.4000244140625</ele>
        <time>2021-08-24T09:23:47.000Z</time>
      </trkpt>
      <trkpt lat="42.730035446584224700927734375" lon="-0.00848944298923015594482421875">
        <ele>1377</ele>
        <time>2021-08-24T09:24:05.000Z</time>
      </trkpt>
      <trkpt lat="42.73043417371809482574462890625" lon="-0.008777864277362823486328125">
        <ele>1374.5999755859375</ele>
        <time>2021-08-24T09:24:38.000Z</time>
      </trkpt>
      <trkpt lat="42.73080918006598949432373046875" lon="-0.00890468247234821319580078125">
        <ele>1380.199951171875</ele>
        <time>2021-08-24T09:25:15.000Z</time>
      </trkpt>
      <trkpt lat="42.73082611151039600372314453125" lon="-0.00897609628736972808837890625">
        <ele>1380.800048828125</ele>
        <time>2021-08-24T09:25:26.000Z</time>
      </trkpt>
      <trkpt lat="42.7308278717100620269775390625" lon="-0.0090107135474681854248046875">
        <ele>1381.199951171875</ele>
        <time>2021-08-24T09:25:35.000Z</time>
      </trkpt>
      <trkpt lat="42.7307975292205810546875" lon="-0.00951438210904598236083984375">
        <ele>1384.800048828125</ele>
        <time>2021-08-24T09:26:29.000Z</time>
      </trkpt>
      <trkpt lat="42.730767019093036651611328125" lon="-0.00942737795412540435791015625">
        <ele>1384.199951171875</ele>
        <time>2021-08-24T09:38:01.000Z</time>
      </trkpt>
      <trkpt lat="42.73076492361724376678466796875" lon="-0.00941916368901729583740234375">
        <ele>1384</ele>
        <time>2021-08-24T09:38:02.000Z</time>
      </trkpt>
      <trkpt lat="42.73075662553310394287109375" lon="-0.0093654356896877288818359375">
        <ele>1383</ele>
        <time>2021-08-24T09:38:06.000Z</time>
      </trkpt>
      <trkpt lat="42.73075394332408905029296875" lon="-0.00932176597416400909423828125">
        <ele>1382.199951171875</ele>
        <time>2021-08-24T09:38:08.000Z</time>
      </trkpt>
      <trkpt lat="42.730757296085357666015625" lon="-0.00928387977182865142822265625">
        <ele>1382</ele>
        <time>2021-08-24T09:38:10.000Z</time>
      </trkpt>
      <trkpt lat="42.73075469769537448883056640625" lon="-0.0092454068362712860107421875">
        <ele>1381.800048828125</ele>
        <time>2021-08-24T09:38:12.000Z</time>
      </trkpt>
      <trkpt lat="42.73075805045664310455322265625" lon="-0.00917541794478893280029296875">
        <ele>1381.5999755859375</ele>
        <time>2021-08-24T09:38:16.000Z</time>
      </trkpt>
      <trkpt lat="42.73076341487467288970947265625" lon="-0.00916150398552417755126953125">
        <ele>1381.4000244140625</ele>
        <time>2021-08-24T09:38:17.000Z</time>
      </trkpt>
      <trkpt lat="42.73077816702425479888916015625" lon="-0.009118504822254180908203125">
        <ele>1381.4000244140625</ele>
        <time>2021-08-24T09:38:20.000Z</time>
      </trkpt>
      <trkpt lat="42.730791829526424407958984375" lon="-0.009052120149135589599609375">
        <ele>1381</ele>
        <time>2021-08-24T09:38:24.000Z</time>
      </trkpt>
      <trkpt lat="42.73079727776348590850830078125" lon="-0.009019933640956878662109375">
        <ele>1380.800048828125</ele>
        <time>2021-08-24T09:38:26.000Z</time>
      </trkpt>
      <trkpt lat="42.73080289363861083984375" lon="-0.00899319536983966827392578125">
        <ele>1380.800048828125</ele>
        <time>2021-08-24T09:38:28.000Z</time>
      </trkpt>
      <trkpt lat="42.7308412827551364898681640625" lon="-0.0088943727314472198486328125">
        <ele>1380.4000244140625</ele>
        <time>2021-08-24T09:38:36.000Z</time>
      </trkpt>
      <trkpt lat="42.73086014203727245330810546875" lon="-0.00887685455381870269775390625">
        <ele>1380.4000244140625</ele>
        <time>2021-08-24T09:38:38.000Z</time>
      </trkpt>
      <trkpt lat="42.7308791689574718475341796875" lon="-0.0088702328503131866455078125">
        <ele>1380.5999755859375</ele>
        <time>2021-08-24T09:38:40.000Z</time>
      </trkpt>
      <trkpt lat="42.7308898977935314178466796875" lon="-0.008870400488376617431640625">
        <ele>1380.800048828125</ele>
        <time>2021-08-24T09:38:41.000Z</time>
      </trkpt>
      <trkpt lat="42.730901129543781280517578125" lon="-0.00886914320290088653564453125">
        <ele>1380.800048828125</ele>
        <time>2021-08-24T09:38:42.000Z</time>
      </trkpt>
      <trkpt lat="42.73094496689736843109130859375" lon="-0.0088846497237682342529296875">
        <ele>1381</ele>
        <time>2021-08-24T09:38:45.000Z</time>
      </trkpt>
      <trkpt lat="42.7309720404446125030517578125" lon="-0.008889846503734588623046875">
        <ele>1381</ele>
        <time>2021-08-24T09:38:47.000Z</time>
      </trkpt>
      <trkpt lat="42.7309847809374332427978515625" lon="-0.0088933669030666351318359375">
        <ele>1381</ele>
        <time>2021-08-24T09:38:48.000Z</time>
      </trkpt>
      <trkpt lat="42.73104689083993434906005859375" lon="-0.00892714597284793853759765625">
        <ele>1381</ele>
        <time>2021-08-24T09:38:52.000Z</time>
      </trkpt>
      <trkpt lat="42.7310773171484470367431640625" lon="-0.00894156284630298614501953125">
        <ele>1380.800048828125</ele>
        <time>2021-08-24T09:38:54.000Z</time>
      </trkpt>
      <trkpt lat="42.731160633265972137451171875" lon="-0.00894273631274700164794921875">
        <ele>1380.199951171875</ele>
        <time>2021-08-24T09:39:02.000Z</time>
      </trkpt>
      <trkpt lat="42.7311839349567890167236328125" lon="-0.0089470110833644866943359375">
        <ele>1380</ele>
        <time>2021-08-24T09:39:05.000Z</time>
      </trkpt>
      <trkpt lat="42.73125828243792057037353515625" lon="-0.0089282356202602386474609375">
        <ele>1379.4000244140625</ele>
        <time>2021-08-24T09:39:22.000Z</time>
      </trkpt>
      <trkpt lat="42.73125015199184417724609375" lon="-0.0089654512703418731689453125">
        <ele>1379.4000244140625</ele>
        <time>2021-08-24T09:39:46.000Z</time>
      </trkpt>
      <trkpt lat="42.73125928826630115509033203125" lon="-0.00898682512342929840087890625">
        <ele>1379.4000244140625</ele>
        <time>2021-08-24T09:40:02.000Z</time>
      </trkpt>
      <trkpt lat="42.73123464547097682952880859375" lon="-0.00897978432476520538330078125">
        <ele>1379.5999755859375</ele>
        <time>2021-08-24T09:40:10.000Z</time>
      </trkpt>
      <trkpt lat="42.73123464547097682952880859375" lon="-0.008988417685031890869140625">
        <ele>1379.5999755859375</ele>
        <time>2021-08-24T09:40:19.000Z</time>
      </trkpt>
      <trkpt lat="42.7312441170215606689453125" lon="-0.0089842267334461212158203125">
        <ele>1379.5999755859375</ele>
        <time>2021-08-24T09:40:31.000Z</time>
      </trkpt>
      <trkpt lat="42.73129147477447986602783203125" lon="-0.00902404077351093292236328125">
        <ele>1379.199951171875</ele>
        <time>2021-08-24T09:40:37.000Z</time>
      </trkpt>
      <trkpt lat="42.73134193383157253265380859375" lon="-0.0090603344142436981201171875">
        <ele>1379</ele>
        <time>2021-08-24T09:40:42.000Z</time>
      </trkpt>
      <trkpt lat="42.73135266266763210296630859375" lon="-0.0090670399367809295654296875">
        <ele>1379</ele>
        <time>2021-08-24T09:40:43.000Z</time>
      </trkpt>
      <trkpt lat="42.7313643135130405426025390625" lon="-0.00907751731574535369873046875">
        <ele>1379</ele>
        <time>2021-08-24T09:40:44.000Z</time>
      </trkpt>
      <trkpt lat="42.73139222525060176849365234375" lon="-0.0091009028255939483642578125">
        <ele>1379</ele>
        <time>2021-08-24T09:40:47.000Z</time>
      </trkpt>
      <trkpt lat="42.7314561791718006134033203125" lon="-0.00917290337383747100830078125">
        <ele>1378.5999755859375</ele>
        <time>2021-08-24T09:40:57.000Z</time>
      </trkpt>
      <trkpt lat="42.7314615435898303985595703125" lon="-0.00917516648769378662109375">
        <ele>1378.4000244140625</ele>
        <time>2021-08-24T09:40:59.000Z</time>
      </trkpt>
      <trkpt lat="42.7315192110836505889892578125" lon="-0.00919436104595661163330078125">
        <ele>1378.4000244140625</ele>
        <time>2021-08-24T09:41:22.000Z</time>
      </trkpt>
      <trkpt lat="42.7315232343971729278564453125" lon="-0.00918363220989704132080078125">
        <ele>1378.199951171875</ele>
        <time>2021-08-24T09:41:24.000Z</time>
      </trkpt>
      <trkpt lat="42.73156254552304744720458984375" lon="-0.0091418065130710601806640625">
        <ele>1378</ele>
        <time>2021-08-24T09:41:34.000Z</time>
      </trkpt>
      <trkpt lat="42.7315788902342319488525390625" lon="-0.009119175374507904052734375">
        <ele>1377.800048828125</ele>
        <time>2021-08-24T09:41:38.000Z</time>
      </trkpt>
      <trkpt lat="42.73157964460551738739013671875" lon="-0.00911624170839786529541015625">
        <ele>1377.800048828125</ele>
        <time>2021-08-24T09:41:39.000Z</time>
      </trkpt>
      <trkpt lat="42.73158676922321319580078125" lon="-0.0090891681611537933349609375">
        <ele>1377.800048828125</ele>
        <time>2021-08-24T09:41:58.000Z</time>
      </trkpt>
      <trkpt lat="42.73157067596912384033203125" lon="-0.009074248373508453369140625">
        <ele>1377.800048828125</ele>
        <time>2021-08-24T09:42:08.000Z</time>
      </trkpt>
      <trkpt lat="42.73157411254942417144775390625" lon="-0.009068213403224945068359375">
        <ele>1377.800048828125</ele>
        <time>2021-08-24T09:42:19.000Z</time>
      </trkpt>
      <trkpt lat="42.731581069529056549072265625" lon="-0.0090645253658294677734375">
        <ele>1377.5999755859375</ele>
        <time>2021-08-24T09:42:22.000Z</time>
      </trkpt>
      <trkpt lat="42.7315914630889892578125" lon="-0.00905220396816730499267578125">
        <ele>1377.5999755859375</ele>
        <time>2021-08-24T09:42:27.000Z</time>
      </trkpt>
      <trkpt lat="42.73159188218414783477783203125" lon="-0.00905253924429416656494140625">
        <ele>1377.5999755859375</ele>
        <time>2021-08-24T09:42:28.000Z</time>
      </trkpt>
      <trkpt lat="42.73159070871770381927490234375" lon="-0.00905178487300872802734375">
        <ele>1377.5999755859375</ele>
        <time>2021-08-24T09:42:29.000Z</time>
      </trkpt>
      <trkpt lat="42.73159079253673553466796875" lon="-0.009059496223926544189453125">
        <ele>1377.5999755859375</ele>
        <time>2021-08-24T09:42:33.000Z</time>
      </trkpt>
      <trkpt lat="42.731585092842578887939453125" lon="-0.0090496055781841278076171875">
        <ele>1377.5999755859375</ele>
        <time>2021-08-24T09:42:47.000Z</time>
      </trkpt>
      <trkpt lat="42.731436900794506072998046875" lon="-0.00916770659387111663818359375">
        <ele>1378.5999755859375</ele>
        <time>2021-08-24T09:43:10.000Z</time>
      </trkpt>
      <trkpt lat="42.7314132638275623321533203125" lon="-0.00918044708669185638427734375">
        <ele>1379</ele>
        <time>2021-08-24T09:43:28.000Z</time>
      </trkpt>
      <trkpt lat="42.7315638028085231781005859375" lon="-0.0091914273798465728759765625">
        <ele>1378.199951171875</ele>
        <time>2021-08-24T09:43:48.000Z</time>
      </trkpt>
      <trkpt lat="42.7316828258335590362548828125" lon="-0.0093315728008747100830078125">
        <ele>1377.5999755859375</ele>
        <time>2021-08-24T09:44:02.000Z</time>
      </trkpt>
      <trkpt lat="42.7317009307444095611572265625" lon="-0.00934054143726825714111328125">
        <ele>1377.4000244140625</ele>
        <time>2021-08-24T09:44:04.000Z</time>
      </trkpt>
      <trkpt lat="42.7317116595804691314697265625" lon="-0.0093461573123931884765625">
        <ele>1377.4000244140625</ele>
        <time>2021-08-24T09:44:05.000Z</time>
      </trkpt>
      <trkpt lat="42.73172498680651187896728515625" lon="-0.0093488395214080810546875">
        <ele>1377.4000244140625</ele>
        <time>2021-08-24T09:44:06.000Z</time>
      </trkpt>
      <trkpt lat="42.731772847473621368408203125" lon="-0.00935479067265987396240234375">
        <ele>1377.199951171875</ele>
        <time>2021-08-24T09:44:11.000Z</time>
      </trkpt>
      <trkpt lat="42.7318018488585948944091796875" lon="-0.00934422947466373443603515625">
        <ele>1377</ele>
        <time>2021-08-24T09:44:16.000Z</time>
      </trkpt>
      <trkpt lat="42.73182439617812633514404296875" lon="-0.00934640876948833465576171875">
        <ele>1377</ele>
        <time>2021-08-24T09:44:20.000Z</time>
      </trkpt>
      <trkpt lat="42.73188357241451740264892578125" lon="-0.009349845349788665771484375">
        <ele>1376.800048828125</ele>
        <time>2021-08-24T09:44:25.000Z</time>
      </trkpt>
      <trkpt lat="42.73190653882920742034912109375" lon="-0.00935076735913753509521484375">
        <ele>1376.5999755859375</ele>
        <time>2021-08-24T09:44:28.000Z</time>
      </trkpt>
      <trkpt lat="42.73193403147161006927490234375" lon="-0.0093622505664825439453125">
        <ele>1376.5999755859375</ele>
        <time>2021-08-24T09:44:31.000Z</time>
      </trkpt>
      <trkpt lat="42.73201500065624713897705078125" lon="-0.0094398669898509979248046875">
        <ele>1376.4000244140625</ele>
        <time>2021-08-24T09:44:45.000Z</time>
      </trkpt>
      <trkpt lat="42.73202304728329181671142578125" lon="-0.00944699160754680633544921875">
        <ele>1376.4000244140625</ele>
        <time>2021-08-24T09:44:47.000Z</time>
      </trkpt>
      <trkpt lat="42.73211273364722728729248046875" lon="-0.0094643421471118927001953125">
        <ele>1376.199951171875</ele>
        <time>2021-08-24T09:44:59.000Z</time>
      </trkpt>
      <trkpt lat="42.73227416910231113433837890625" lon="-0.00946995802223682403564453125">
        <ele>1375.5999755859375</ele>
        <time>2021-08-24T09:45:15.000Z</time>
      </trkpt>
      <trkpt lat="42.732708267867565155029296875" lon="-0.009644888341426849365234375">
        <ele>1376.4000244140625</ele>
        <time>2021-08-24T09:46:00.000Z</time>
      </trkpt>
      <trkpt lat="42.73293281905353069305419921875" lon="-0.00964296050369739532470703125">
        <ele>1377.199951171875</ele>
        <time>2021-08-24T09:46:36.000Z</time>
      </trkpt>
      <trkpt lat="42.7328078448772430419921875" lon="-0.009615719318389892578125">
        <ele>1376.4000244140625</ele>
        <time>2021-08-24T13:06:38.000Z</time>
      </trkpt>
      <trkpt lat="42.7328150533139705657958984375" lon="-0.00962133519351482391357421875">
        <ele>1376.4000244140625</ele>
        <time>2021-08-24T13:06:39.000Z</time>
      </trkpt>
      <trkpt lat="42.732824273407459259033203125" lon="-0.0096266157925128936767578125">
        <ele>1376.199951171875</ele>
        <time>2021-08-24T13:06:40.000Z</time>
      </trkpt>
      <trkpt lat="42.73284413851797580718994140625" lon="-0.00963457860052585601806640625">
        <ele>1376.199951171875</ele>
        <time>2021-08-24T13:06:42.000Z</time>
      </trkpt>
      <trkpt lat="42.732853777706623077392578125" lon="-0.0096373446285724639892578125">
        <ele>1376.4000244140625</ele>
        <time>2021-08-24T13:06:43.000Z</time>
      </trkpt>
      <trkpt lat="42.7328589744865894317626953125" lon="-0.00964061357080936431884765625">
        <ele>1376.4000244140625</ele>
        <time>2021-08-24T13:06:44.000Z</time>
      </trkpt>
      <trkpt lat="42.73288386873900890350341796875" lon="-0.009679757058620452880859375">
        <ele>1376.800048828125</ele>
        <time>2021-08-24T13:06:52.000Z</time>
      </trkpt>
      <trkpt lat="42.7329779975116252899169921875" lon="-0.00975695438683032989501953125">
        <ele>1378.199951171875</ele>
        <time>2021-08-24T13:07:03.000Z</time>
      </trkpt>
      <trkpt lat="42.73295067250728607177734375" lon="-0.01005250029265880584716796875">
        <ele>1381.5999755859375</ele>
        <time>2021-08-24T13:07:24.000Z</time>
      </trkpt>
      <trkpt lat="42.7329085953533649444580078125" lon="-0.01007529906928539276123046875">
        <ele>1381.800048828125</ele>
        <time>2021-08-24T13:07:36.000Z</time>
      </trkpt>
      <trkpt lat="42.73287230171263217926025390625" lon="-0.0100846029818058013916015625">
        <ele>1381.4000244140625</ele>
        <time>2021-08-24T13:07:41.000Z</time>
      </trkpt>
      <trkpt lat="42.7328257821500301361083984375" lon="-0.010110251605510711669921875">
        <ele>1381.5999755859375</ele>
        <time>2021-08-24T13:07:47.000Z</time>
      </trkpt>
      <trkpt lat="42.73279334418475627899169921875" lon="-0.010109581053256988525390625">
        <ele>1381.800048828125</ele>
        <time>2021-08-24T13:07:50.000Z</time>
      </trkpt>
      <trkpt lat="42.7324053458869457244873046875" lon="-0.0104259140789508819580078125">
        <ele>1388.4000244140625</ele>
        <time>2021-08-24T13:08:33.000Z</time>
      </trkpt>
      <trkpt lat="42.73232571780681610107421875" lon="-0.0104969926178455352783203125">
        <ele>1388.4000244140625</ele>
        <time>2021-08-24T13:08:58.000Z</time>
      </trkpt>
      <trkpt lat="42.73239017464220523834228515625" lon="-0.01051585189998149871826171875">
        <ele>1388.800048828125</ele>
        <time>2021-08-24T13:09:35.000Z</time>
      </trkpt>
      <trkpt lat="42.73236653767526149749755859375" lon="-0.01056857407093048095703125">
        <ele>1388.800048828125</ele>
        <time>2021-08-24T13:09:53.000Z</time>
      </trkpt>
      <trkpt lat="42.73236217908561229705810546875" lon="-0.01056178472936153411865234375">
        <ele>1388.800048828125</ele>
        <time>2021-08-24T13:10:00.000Z</time>
      </trkpt>
      <trkpt lat="42.732358239591121673583984375" lon="-0.01056094653904438018798828125">
        <ele>1388.800048828125</ele>
        <time>2021-08-24T13:10:08.000Z</time>
      </trkpt>
      <trkpt lat="42.7323111332952976226806640625" lon="-0.0105104036629199981689453125">
        <ele>1388.4000244140625</ele>
        <time>2021-08-24T13:10:17.000Z</time>
      </trkpt>
      <trkpt lat="42.73229998536407947540283203125" lon="-0.01049405895173549652099609375">
        <ele>1388.4000244140625</ele>
        <time>2021-08-24T13:10:21.000Z</time>
      </trkpt>
      <trkpt lat="42.7322879992425441741943359375" lon="-0.0105442665517330169677734375">
        <ele>1388.4000244140625</ele>
        <time>2021-08-24T13:10:44.000Z</time>
      </trkpt>
      <trkpt lat="42.7322883345186710357666015625" lon="-0.01054585911333560943603515625">
        <ele>1388.4000244140625</ele>
        <time>2021-08-24T13:10:47.000Z</time>
      </trkpt>
      <trkpt lat="42.73228816688060760498046875" lon="-0.010546781122684478759765625">
        <ele>1388.4000244140625</ele>
        <time>2021-08-24T13:10:48.000Z</time>
      </trkpt>
      <trkpt lat="42.7322876639664173126220703125" lon="-0.01054979860782623291015625">
        <ele>1388.4000244140625</ele>
        <time>2021-08-24T13:10:51.000Z</time>
      </trkpt>
      <trkpt lat="42.7322883345186710357666015625" lon="-0.0105496309697628021240234375">
        <ele>1388.4000244140625</ele>
        <time>2021-08-24T13:10:52.000Z</time>
      </trkpt>
      <trkpt lat="42.73228875361382961273193359375" lon="-0.0105499662458896636962890625">
        <ele>1388.4000244140625</ele>
        <time>2021-08-24T13:10:53.000Z</time>
      </trkpt>
      <trkpt lat="42.7322893403470516204833984375" lon="-0.01054979860782623291015625">
        <ele>1388.4000244140625</ele>
        <time>2021-08-24T13:10:54.000Z</time>
      </trkpt>
      <trkpt lat="42.73229026235640048980712890625" lon="-0.01055113971233367919921875">
        <ele>1388.4000244140625</ele>
        <time>2021-08-24T13:10:56.000Z</time>
      </trkpt>
      <trkpt lat="42.732293866574764251708984375" lon="-0.01056748442351818084716796875">
        <ele>1388.5999755859375</ele>
        <time>2021-08-24T13:11:02.000Z</time>
      </trkpt>
      <trkpt lat="42.7322588302195072174072265625" lon="-0.01061039976775646209716796875">
        <ele>1388.5999755859375</ele>
        <time>2021-08-24T13:11:09.000Z</time>
      </trkpt>
      <trkpt lat="42.7322541363537311553955078125" lon="-0.01061392016708850860595703125">
        <ele>1388.5999755859375</ele>
        <time>2021-08-24T13:11:10.000Z</time>
      </trkpt>
      <trkpt lat="42.73216805420815944671630859375" lon="-0.01065582968294620513916015625">
        <ele>1388.4000244140625</ele>
        <time>2021-08-24T13:11:42.000Z</time>
      </trkpt>
      <trkpt lat="42.73193805478513240814208984375" lon="-0.0106931291520595550537109375">
        <ele>1388.4000244140625</ele>
        <time>2021-08-24T13:12:02.000Z</time>
      </trkpt>
      <trkpt lat="42.7317636273801326751708984375" lon="-0.01074853353202342987060546875">
        <ele>1391.199951171875</ele>
        <time>2021-08-24T13:12:56.000Z</time>
      </trkpt>
      <trkpt lat="42.731665559113025665283203125" lon="-0.01074828207492828369140625">
        <ele>1393.800048828125</ele>
        <time>2021-08-24T13:13:15.000Z</time>
      </trkpt>
      <trkpt lat="42.73161082528531551361083984375" lon="-0.010731518268585205078125">
        <ele>1394.199951171875</ele>
        <time>2021-08-24T13:13:24.000Z</time>
      </trkpt>
      <trkpt lat="42.73149800486862659454345703125" lon="-0.01072858460247516632080078125">
        <ele>1396.4000244140625</ele>
        <time>2021-08-24T13:13:36.000Z</time>
      </trkpt>
      <trkpt lat="42.73105359636247158050537109375" lon="-0.01061475835740566253662109375">
        <ele>1403.5999755859375</ele>
        <time>2021-08-24T13:14:21.000Z</time>
      </trkpt>
      <trkpt lat="42.73081697523593902587890625" lon="-0.010582320392131805419921875">
        <ele>1408</ele>
        <time>2021-08-24T13:14:46.000Z</time>
      </trkpt>
      <trkpt lat="42.73080783896148204803466796875" lon="-0.01057787798345088958740234375">
        <ele>1408.199951171875</ele>
        <time>2021-08-24T13:14:47.000Z</time>
      </trkpt>
      <trkpt lat="42.7307970263063907623291015625" lon="-0.01057569868862628936767578125">
        <ele>1408.4000244140625</ele>
        <time>2021-08-24T13:14:48.000Z</time>
      </trkpt>
      <trkpt lat="42.73078001104295253753662109375" lon="-0.0105777941644191741943359375">
        <ele>1409</ele>
        <time>2021-08-24T13:14:49.000Z</time>
      </trkpt>
      <trkpt lat="42.7307728864252567291259765625" lon="-0.0105798058211803436279296875">
        <ele>1409.199951171875</ele>
        <time>2021-08-24T13:14:51.000Z</time>
      </trkpt>
      <trkpt lat="42.7307554520666599273681640625" lon="-0.01058307476341724395751953125">
        <ele>1409.800048828125</ele>
        <time>2021-08-24T13:14:53.000Z</time>
      </trkpt>
      <trkpt lat="42.73074463941156864166259765625" lon="-0.01058525405824184417724609375">
        <ele>1410.199951171875</ele>
        <time>2021-08-24T13:14:54.000Z</time>
      </trkpt>
      <trkpt lat="42.73072334937751293182373046875" lon="-0.0105885230004787445068359375">
        <ele>1410.800048828125</ele>
        <time>2021-08-24T13:14:56.000Z</time>
      </trkpt>
      <trkpt lat="42.73067657835781574249267578125" lon="-0.01058676280081272125244140625">
        <ele>1411.800048828125</ele>
        <time>2021-08-24T13:15:01.000Z</time>
      </trkpt>
      <trkpt lat="42.73047273047268390655517578125" lon="-0.0105610303580760955810546875">
        <ele>1416.800048828125</ele>
        <time>2021-08-24T13:15:20.000Z</time>
      </trkpt>
      <trkpt lat="42.73038438521325588226318359375" lon="-0.010566897690296173095703125">
        <ele>1419.199951171875</ele>
        <time>2021-08-24T13:15:29.000Z</time>
      </trkpt>
      <trkpt lat="42.73024675436317920684814453125" lon="-0.0105472840368747711181640625">
        <ele>1422.199951171875</ele>
        <time>2021-08-24T13:15:51.000Z</time>
      </trkpt>
      <trkpt lat="42.730229236185550689697265625" lon="-0.01051870174705982208251953125">
        <ele>1421.5999755859375</ele>
        <time>2021-08-24T13:16:00.000Z</time>
      </trkpt>
      <trkpt lat="42.7302471734583377838134765625" lon="-0.01054041087627410888671875">
        <ele>1422</ele>
        <time>2021-08-24T13:16:38.000Z</time>
      </trkpt>
      <trkpt lat="42.73026033304631710052490234375" lon="-0.01053596846759319305419921875">
        <ele>1421.4000244140625</ele>
        <time>2021-08-24T13:16:52.000Z</time>
      </trkpt>
      <trkpt lat="42.7302391268312931060791015625" lon="-0.0105285085737705230712890625">
        <ele>1421.5999755859375</ele>
        <time>2021-08-24T13:17:16.000Z</time>
      </trkpt>
      <trkpt lat="42.7302693016827106475830078125" lon="-0.010466314852237701416015625">
        <ele>1418.199951171875</ele>
        <time>2021-08-24T13:17:23.000Z</time>
      </trkpt>
      <trkpt lat="42.73024834692478179931640625" lon="-0.0104242376983165740966796875">
        <ele>1417.5999755859375</ele>
        <time>2021-08-24T13:17:29.000Z</time>
      </trkpt>
      <trkpt lat="42.73022077046334743499755859375" lon="-0.01043404452502727508544921875">
        <ele>1418.800048828125</ele>
        <time>2021-08-24T13:17:34.000Z</time>
      </trkpt>
      <trkpt lat="42.73021322675049304962158203125" lon="-0.01042951829731464385986328125">
        <ele>1419</ele>
        <time>2021-08-24T13:17:38.000Z</time>
      </trkpt>
      <trkpt lat="42.73016042076051235198974609375" lon="-0.01040101982653141021728515625">
        <ele>1419.800048828125</ele>
        <time>2021-08-24T13:17:47.000Z</time>
      </trkpt>
      <trkpt lat="42.73011918179690837860107421875" lon="-0.0104158557951450347900390625">
        <ele>1421.800048828125</ele>
        <time>2021-08-24T13:17:54.000Z</time>
      </trkpt>
      <trkpt lat="42.73007995449006557464599609375" lon="-0.010399930179119110107421875">
        <ele>1422.5999755859375</ele>
        <time>2021-08-24T13:17:58.000Z</time>
      </trkpt>
      <trkpt lat="42.7300639450550079345703125" lon="-0.01039833761751651763916015625">
        <ele>1423</ele>
        <time>2021-08-24T13:18:00.000Z</time>
      </trkpt>
      <trkpt lat="42.730058915913105010986328125" lon="-0.0104014389216899871826171875">
        <ele>1423.4000244140625</ele>
        <time>2021-08-24T13:18:01.000Z</time>
      </trkpt>
      <trkpt lat="42.730042822659015655517578125" lon="-0.01040370203554630279541015625">
        <ele>1423.5999755859375</ele>
        <time>2021-08-24T13:18:04.000Z</time>
      </trkpt>
      <trkpt lat="42.730036787688732147216796875" lon="-0.01040236093103885650634765625">
        <ele>1423.800048828125</ele>
        <time>2021-08-24T13:18:05.000Z</time>
      </trkpt>
      <trkpt lat="42.7300131507217884063720703125" lon="-0.01039783470332622528076171875">
        <ele>1424</ele>
        <time>2021-08-24T13:18:08.000Z</time>
      </trkpt>
      <trkpt lat="42.72997769527137279510498046875" lon="-0.010388530790805816650390625">
        <ele>1424.199951171875</ele>
        <time>2021-08-24T13:18:13.000Z</time>
      </trkpt>
      <trkpt lat="42.729896642267704010009765625" lon="-0.01039397902786731719970703125">
        <ele>1426</ele>
        <time>2021-08-24T13:18:21.000Z</time>
      </trkpt>
      <trkpt lat="42.72984626702964305877685546875" lon="-0.01037134788930416107177734375">
        <ele>1425.800048828125</ele>
        <time>2021-08-24T13:18:26.000Z</time>
      </trkpt>
      <trkpt lat="42.72981944493949413299560546875" lon="-0.0103511475026607513427734375">
        <ele>1425.4000244140625</ele>
        <time>2021-08-24T13:18:29.000Z</time>
      </trkpt>
      <trkpt lat="42.72979815490543842315673828125" lon="-0.0103484652936458587646484375">
        <ele>1425.4000244140625</ele>
        <time>2021-08-24T13:18:31.000Z</time>
      </trkpt>
      <trkpt lat="42.729515098035335540771484375" lon="-0.0102488882839679718017578125">
        <ele>1425.5999755859375</ele>
        <time>2021-08-24T13:18:55.000Z</time>
      </trkpt>
      <trkpt lat="42.7295062132179737091064453125" lon="-0.01023639924824237823486328125">
        <ele>1425.199951171875</ele>
        <time>2021-08-24T13:18:57.000Z</time>
      </trkpt>
      <trkpt lat="42.72950403392314910888671875" lon="-0.01023036427795886993408203125">
        <ele>1424.800048828125</ele>
        <time>2021-08-24T13:19:00.000Z</time>
      </trkpt>
      <trkpt lat="42.72950311191380023956298828125" lon="-0.010227262973785400390625">
        <ele>1424.800048828125</ele>
        <time>2021-08-24T13:19:01.000Z</time>
      </trkpt>
      <trkpt lat="42.72950537502765655517578125" lon="-0.0102237425744533538818359375">
        <ele>1424.5999755859375</ele>
        <time>2021-08-24T13:19:04.000Z</time>
      </trkpt>
      <trkpt lat="42.7295075543224811553955078125" lon="-0.0102260895073413848876953125">
        <ele>1424.5999755859375</ele>
        <time>2021-08-24T13:19:06.000Z</time>
      </trkpt>
      <trkpt lat="42.7294864319264888763427734375" lon="-0.01022097654640674591064453125">
        <ele>1424.5999755859375</ele>
        <time>2021-08-24T13:19:09.000Z</time>
      </trkpt>
      <trkpt lat="42.72947377525269985198974609375" lon="-0.01021921634674072265625">
        <ele>1424.800048828125</ele>
        <time>2021-08-24T13:19:10.000Z</time>
      </trkpt>
      <trkpt lat="42.72945818491280078887939453125" lon="-0.01021611504256725311279296875">
        <ele>1424.800048828125</ele>
        <time>2021-08-24T13:19:11.000Z</time>
      </trkpt>
      <trkpt lat="42.7294438518583774566650390625" lon="-0.01021192409098148345947265625">
        <ele>1424.800048828125</ele>
        <time>2021-08-24T13:19:12.000Z</time>
      </trkpt>
      <trkpt lat="42.72926506586372852325439453125" lon="-0.010193400084972381591796875">
        <ele>1428</ele>
        <time>2021-08-24T13:19:28.000Z</time>
      </trkpt>
      <trkpt lat="42.72920790128409862518310546875" lon="-0.0101878680288791656494140625">
        <ele>1428.800048828125</ele>
        <time>2021-08-24T13:19:33.000Z</time>
      </trkpt>
      <trkpt lat="42.72910681553184986114501953125" lon="-0.01013447530567646026611328125">
        <ele>1428.4000244140625</ele>
        <time>2021-08-24T13:19:41.000Z</time>
      </trkpt>
      <trkpt lat="42.7289285324513912200927734375" lon="-0.01007496379315853118896484375">
        <ele>1429.199951171875</ele>
        <time>2021-08-24T13:19:53.000Z</time>
      </trkpt>
      <trkpt lat="42.72888670675456523895263671875" lon="-0.01006239093840122222900390625">
        <ele>1429.4000244140625</ele>
        <time>2021-08-24T13:19:56.000Z</time>
      </trkpt>
      <trkpt lat="42.72875343449413776397705078125" lon="-0.0100232474505901336669921875">
        <ele>1429.800048828125</ele>
        <time>2021-08-24T13:20:06.000Z</time>
      </trkpt>
      <trkpt lat="42.728659808635711669921875" lon="-0.01000019721686840057373046875">
        <ele>1430</ele>
        <time>2021-08-24T13:20:14.000Z</time>
      </trkpt>
      <trkpt lat="42.728631310164928436279296875" lon="-0.00999416224658489227294921875">
        <ele>1430.199951171875</ele>
        <time>2021-08-24T13:20:17.000Z</time>
      </trkpt>
      <trkpt lat="42.72859266959130764007568359375" lon="-0.0099605508148670196533203125">
        <ele>1429.4000244140625</ele>
        <time>2021-08-24T13:20:21.000Z</time>
      </trkpt>
      <trkpt lat="42.728558890521526336669921875" lon="-0.009939931333065032958984375">
        <ele>1428.800048828125</ele>
        <time>2021-08-24T13:20:25.000Z</time>
      </trkpt>
      <trkpt lat="42.72852444089949131011962890625" lon="-0.00992752611637115478515625">
        <ele>1428.5999755859375</ele>
        <time>2021-08-24T13:20:30.000Z</time>
      </trkpt>
      <trkpt lat="42.72828957997262477874755859375" lon="-0.00981294550001621246337890625">
        <ele>1427.199951171875</ele>
        <time>2021-08-24T13:20:52.000Z</time>
      </trkpt>
      <trkpt lat="42.72823090665042400360107421875" lon="-0.00982702709734439849853515625">
        <ele>1429</ele>
        <time>2021-08-24T13:21:01.000Z</time>
      </trkpt>
      <trkpt lat="42.7281470037996768951416015625" lon="-0.00979836098849773406982421875">
        <ele>1429.800048828125</ele>
        <time>2021-08-24T13:21:14.000Z</time>
      </trkpt>
      <trkpt lat="42.72810685448348522186279296875" lon="-0.00978008843958377838134765625">
        <ele>1430.4000244140625</ele>
        <time>2021-08-24T13:21:21.000Z</time>
      </trkpt>
      <trkpt lat="42.72805404849350452423095703125" lon="-0.00976181589066982269287109375">
        <ele>1431.4000244140625</ele>
        <time>2021-08-24T13:21:29.000Z</time>
      </trkpt>
      <trkpt lat="42.72792194969952106475830078125" lon="-0.0097305513918399810791015625">
        <ele>1434.199951171875</ele>
        <time>2021-08-24T13:21:44.000Z</time>
      </trkpt>
      <trkpt lat="42.72783704102039337158203125" lon="-0.00967732630670070648193359375">
        <ele>1434</ele>
        <time>2021-08-24T13:21:55.000Z</time>
      </trkpt>
      <trkpt lat="42.727622799575328826904296875" lon="-0.00970180146396160125732421875">
        <ele>1439.800048828125</ele>
        <time>2021-08-24T13:22:18.000Z</time>
      </trkpt>
      <trkpt lat="42.7274117432534694671630859375" lon="-0.0096500851213932037353515625">
        <ele>1441.4000244140625</ele>
        <time>2021-08-24T13:22:37.000Z</time>
      </trkpt>
      <trkpt lat="42.72737435996532440185546875" lon="-0.0096572935581207275390625">
        <ele>1442.4000244140625</ele>
        <time>2021-08-24T13:22:43.000Z</time>
      </trkpt>
      <trkpt lat="42.72694026120007038116455078125" lon="-0.00963675789535045623779296875">
        <ele>1445.4000244140625</ele>
        <time>2021-08-24T13:23:25.000Z</time>
      </trkpt>
      <trkpt lat="42.7268320508301258087158203125" lon="-0.00962703488767147064208984375">
        <ele>1445</ele>
        <time>2021-08-24T13:23:35.000Z</time>
      </trkpt>
      <trkpt lat="42.7267991937696933746337890625" lon="-0.0096246041357517242431640625">
        <ele>1444.800048828125</ele>
        <time>2021-08-24T13:23:39.000Z</time>
      </trkpt>
      <trkpt lat="42.7266352437436580657958984375" lon="-0.009680427610874176025390625">
        <ele>1447.4000244140625</ele>
        <time>2021-08-24T13:23:56.000Z</time>
      </trkpt>
      <trkpt lat="42.72626199759542942047119140625" lon="-0.00978092662990093231201171875">
        <ele>1451.5999755859375</ele>
        <time>2021-08-24T13:24:34.000Z</time>
      </trkpt>
      <trkpt lat="42.72608430124819278717041015625" lon="-0.0098093412816524505615234375">
        <ele>1452.5999755859375</ele>
        <time>2021-08-24T13:24:52.000Z</time>
      </trkpt>
      <trkpt lat="42.725772745907306671142578125" lon="-0.0099055655300617218017578125">
        <ele>1457</ele>
        <time>2021-08-24T13:25:27.000Z</time>
      </trkpt>
      <trkpt lat="42.72576394490897655487060546875" lon="-0.0099095888435840606689453125">
        <ele>1457.199951171875</ele>
        <time>2021-08-24T13:25:29.000Z</time>
      </trkpt>
      <trkpt lat="42.72536848671734333038330078125" lon="-0.010077059268951416015625">
        <ele>1471.800048828125</ele>
        <time>2021-08-24T13:26:08.000Z</time>
      </trkpt>
      <trkpt lat="42.72534250281751155853271484375" lon="-0.010079406201839447021484375">
        <ele>1472.4000244140625</ele>
        <time>2021-08-24T13:26:10.000Z</time>
      </trkpt>
      <trkpt lat="42.72529120557010173797607421875" lon="-0.0101077370345592498779296875">
        <ele>1473.4000244140625</ele>
        <time>2021-08-24T13:26:14.000Z</time>
      </trkpt>
      <trkpt lat="42.72528081201016902923583984375" lon="-0.01011586748063564300537109375">
        <ele>1473.5999755859375</ele>
        <time>2021-08-24T13:26:15.000Z</time>
      </trkpt>
      <trkpt lat="42.72524225525557994842529296875" lon="-0.010116957128047943115234375">
        <ele>1473.199951171875</ele>
        <time>2021-08-24T13:26:18.000Z</time>
      </trkpt>
      <trkpt lat="42.7249246649444103240966796875" lon="-0.01022282056510448455810546875">
        <ele>1470.4000244140625</ele>
        <time>2021-08-24T13:26:44.000Z</time>
      </trkpt>
      <trkpt lat="42.72464093752205371856689453125" lon="-0.010282583534717559814453125">
        <ele>1461</ele>
        <time>2021-08-24T13:27:14.000Z</time>
      </trkpt>
      <trkpt lat="42.7246088348329067230224609375" lon="-0.0102944858372211456298828125">
        <ele>1460.800048828125</ele>
        <time>2021-08-24T13:27:23.000Z</time>
      </trkpt>
      <trkpt lat="42.7242531068623065948486328125" lon="-0.0106577575206756591796875">
        <ele>1470.5999755859375</ele>
        <time>2021-08-24T13:28:02.000Z</time>
      </trkpt>
      <trkpt lat="42.7239833772182464599609375" lon="-0.01088029704988002777099609375">
        <ele>1472.800048828125</ele>
        <time>2021-08-24T13:28:29.000Z</time>
      </trkpt>
      <trkpt lat="42.7239667810499668121337890625" lon="-0.01092053018510341644287109375">
        <ele>1473.800048828125</ele>
        <time>2021-08-24T13:28:32.000Z</time>
      </trkpt>
      <trkpt lat="42.7239592373371124267578125" lon="-0.01093159429728984832763671875">
        <ele>1473.800048828125</ele>
        <time>2021-08-24T13:28:33.000Z</time>
      </trkpt>
      <trkpt lat="42.723944485187530517578125" lon="-0.0109554827213287353515625">
        <ele>1474.199951171875</ele>
        <time>2021-08-24T13:28:35.000Z</time>
      </trkpt>
      <trkpt lat="42.72393953986465930938720703125" lon="-0.01097233034670352935791015625">
        <ele>1474.4000244140625</ele>
        <time>2021-08-24T13:28:36.000Z</time>
      </trkpt>
      <trkpt lat="42.72393400780856609344482421875" lon="-0.010990016162395477294921875">
        <ele>1475.199951171875</ele>
        <time>2021-08-24T13:28:37.000Z</time>
      </trkpt>
      <trkpt lat="42.72392009384930133819580078125" lon="-0.01101491041481494903564453125">
        <ele>1476.199951171875</ele>
        <time>2021-08-24T13:28:39.000Z</time>
      </trkpt>
      <trkpt lat="42.723902575671672821044921875" lon="-0.01103988848626613616943359375">
        <ele>1477</ele>
        <time>2021-08-24T13:28:42.000Z</time>
      </trkpt>
      <trkpt lat="42.723911963403224945068359375" lon="-0.01106184907257556915283203125">
        <ele>1478.5999755859375</ele>
        <time>2021-08-24T13:28:50.000Z</time>
      </trkpt>
      <trkpt lat="42.72390970028936862945556640625" lon="-0.011087916791439056396484375">
        <ele>1479.800048828125</ele>
        <time>2021-08-24T13:28:55.000Z</time>
      </trkpt>
      <trkpt lat="42.72389813326299190521240234375" lon="-0.01108280383050441741943359375">
        <ele>1479.199951171875</ele>
        <time>2021-08-24T13:28:59.000Z</time>
      </trkpt>
      <trkpt lat="42.7238970436155796051025390625" lon="-0.0110820494592189788818359375">
        <ele>1479.199951171875</ele>
        <time>2021-08-24T13:29:00.000Z</time>
      </trkpt>
      <trkpt lat="42.723891846835613250732421875" lon="-0.01110040582716464996337890625">
        <ele>1480</ele>
        <time>2021-08-24T13:29:10.000Z</time>
      </trkpt>
      <trkpt lat="42.72388874553143978118896484375" lon="-0.01110577024519443511962890625">
        <ele>1480.199951171875</ele>
        <time>2021-08-24T13:29:11.000Z</time>
      </trkpt>
      <trkpt lat="42.7238869853317737579345703125" lon="-0.01111440360546112060546875">
        <ele>1480.5999755859375</ele>
        <time>2021-08-24T13:29:14.000Z</time>
      </trkpt>
      <trkpt lat="42.72388614714145660400390625" lon="-0.011116079986095428466796875">
        <ele>1480.800048828125</ele>
        <time>2021-08-24T13:29:15.000Z</time>
      </trkpt>
      <trkpt lat="42.72388589568436145782470703125" lon="-0.011117756366729736328125">
        <ele>1480.800048828125</ele>
        <time>2021-08-24T13:29:16.000Z</time>
      </trkpt>
      <trkpt lat="42.72390215657651424407958984375" lon="-0.01107324846088886260986328125">
        <ele>1478.800048828125</ele>
        <time>2021-08-24T13:29:21.000Z</time>
      </trkpt>
      <trkpt lat="42.7239225246012210845947265625" lon="-0.01105749048292636871337890625">
        <ele>1478.5999755859375</ele>
        <time>2021-08-24T13:29:30.000Z</time>
      </trkpt>
      <trkpt lat="42.72392009384930133819580078125" lon="-0.01105581410229206085205078125">
        <ele>1478.4000244140625</ele>
        <time>2021-08-24T13:29:31.000Z</time>
      </trkpt>
      <trkpt lat="42.723910622298717498779296875" lon="-0.01104961149394512176513671875">
        <ele>1477.800048828125</ele>
        <time>2021-08-24T13:29:39.000Z</time>
      </trkpt>
      <trkpt lat="42.723899222910404205322265625" lon="-0.0110666267573833465576171875">
        <ele>1478.4000244140625</ele>
        <time>2021-08-24T13:29:43.000Z</time>
      </trkpt>
      <trkpt lat="42.7238967083394527435302734375" lon="-0.01106344163417816162109375">
        <ele>1478.199951171875</ele>
        <time>2021-08-24T13:29:45.000Z</time>
      </trkpt>
      <trkpt lat="42.72388505749404430389404296875" lon="-0.011069811880588531494140625">
        <ele>1478.199951171875</ele>
        <time>2021-08-24T13:29:47.000Z</time>
      </trkpt>
      <trkpt lat="42.72386192344129085540771484375" lon="-0.011101998388767242431640625">
        <ele>1479.199951171875</ele>
        <time>2021-08-24T13:29:50.000Z</time>
      </trkpt>
      <trkpt lat="42.72383275441825389862060546875" lon="-0.01114214770495891571044921875">
        <ele>1480.5999755859375</ele>
        <time>2021-08-24T13:29:53.000Z</time>
      </trkpt>
      <trkpt lat="42.7238162420690059661865234375" lon="-0.01117148436605930328369140625">
        <ele>1481.800048828125</ele>
        <time>2021-08-24T13:29:55.000Z</time>
      </trkpt>
      <trkpt lat="42.72378514520823955535888671875" lon="-0.01121121458709239959716796875">
        <ele>1483</ele>
        <time>2021-08-24T13:29:58.000Z</time>
      </trkpt>
      <trkpt lat="42.723776511847972869873046875" lon="-0.01122663728892803192138671875">
        <ele>1483.5999755859375</ele>
        <time>2021-08-24T13:29:59.000Z</time>
      </trkpt>
      <trkpt lat="42.7237706445157527923583984375" lon="-0.011246502399444580078125">
        <ele>1484.4000244140625</ele>
        <time>2021-08-24T13:30:00.000Z</time>
      </trkpt>
      <trkpt lat="42.72376201115548610687255859375" lon="-0.011262930929660797119140625">
        <ele>1485.4000244140625</ele>
        <time>2021-08-24T13:30:01.000Z</time>
      </trkpt>
      <trkpt lat="42.72373192012310028076171875" lon="-0.011334680020809173583984375">
        <ele>1490.4000244140625</ele>
        <time>2021-08-24T13:30:06.000Z</time>
      </trkpt>
      <trkpt lat="42.72372278384864330291748046875" lon="-0.01138606108725070953369140625">
        <ele>1494.4000244140625</ele>
        <time>2021-08-24T13:30:09.000Z</time>
      </trkpt>
      <trkpt lat="42.7236834727227687835693359375" lon="-0.011459402740001678466796875">
        <ele>1499.4000244140625</ele>
        <time>2021-08-24T13:30:15.000Z</time>
      </trkpt>
      <trkpt lat="42.72349429316818714141845703125" lon="-0.01139729283750057220458984375">
        <ele>1492.4000244140625</ele>
        <time>2021-08-24T13:30:34.000Z</time>
      </trkpt>
      <trkpt lat="42.723384909331798553466796875" lon="-0.01137332059442996978759765625">
        <ele>1488.5999755859375</ele>
        <time>2021-08-24T13:30:46.000Z</time>
      </trkpt>
      <trkpt lat="42.7233015932142734527587890625" lon="-0.01137080602347850799560546875">
        <ele>1486.199951171875</ele>
        <time>2021-08-24T13:30:57.000Z</time>
      </trkpt>
      <trkpt lat="42.72298215888440608978271484375" lon="-0.01132428646087646484375">
        <ele>1480.800048828125</ele>
        <time>2021-08-24T13:31:43.000Z</time>
      </trkpt>
      <trkpt lat="42.722533307969570159912109375" lon="-0.011409781873226165771484375">
        <ele>1489.800048828125</ele>
        <time>2021-08-24T13:32:30.000Z</time>
      </trkpt>
      <trkpt lat="42.7222759835422039031982421875" lon="-0.01156124286353588104248046875">
        <ele>1492.199951171875</ele>
        <time>2021-08-24T13:33:27.000Z</time>
      </trkpt>
      <trkpt lat="42.72221085615456104278564453125" lon="-0.01154012046754360198974609375">
        <ele>1490.800048828125</ele>
        <time>2021-08-24T13:33:38.000Z</time>
      </trkpt>
      <trkpt lat="42.7220630832016468048095703125" lon="-0.01162880100309848785400390625">
        <ele>1493</ele>
        <time>2021-08-24T13:33:55.000Z</time>
      </trkpt>
      <trkpt lat="42.722191326320171356201171875" lon="-0.01182175241410732269287109375">
        <ele>1502.199951171875</ele>
        <time>2021-08-24T13:34:34.000Z</time>
      </trkpt>
      <trkpt lat="42.72233407013118267059326171875" lon="-0.0118746422231197357177734375">
        <ele>1506.5999755859375</ele>
        <time>2021-08-24T13:34:58.000Z</time>
      </trkpt>
      <trkpt lat="42.72242107428610324859619140625" lon="-0.011906661093235015869140625">
        <ele>1509.800048828125</ele>
        <time>2021-08-24T13:35:12.000Z</time>
      </trkpt>
      <trkpt lat="42.72246214561164379119873046875" lon="-0.01192199997603893280029296875">
        <ele>1511.199951171875</ele>
        <time>2021-08-24T13:35:18.000Z</time>
      </trkpt>
      <trkpt lat="42.722467593848705291748046875" lon="-0.0119210779666900634765625">
        <ele>1511.199951171875</ele>
        <time>2021-08-24T13:35:19.000Z</time>
      </trkpt>
      <trkpt lat="42.7224167995154857635498046875" lon="-0.0120055675506591796875">
        <ele>1513.199951171875</ele>
        <time>2021-08-24T13:35:34.000Z</time>
      </trkpt>
      <trkpt lat="42.7223936654627323150634765625" lon="-0.012024343013763427734375">
        <ele>1513.5999755859375</ele>
        <time>2021-08-24T13:35:38.000Z</time>
      </trkpt>
      <trkpt lat="42.72238000296056270599365234375" lon="-0.0120417773723602294921875">
        <ele>1514</ele>
        <time>2021-08-24T13:35:44.000Z</time>
      </trkpt>
      <trkpt lat="42.72233557887375354766845703125" lon="-0.012119896709918975830078125">
        <ele>1516</ele>
        <time>2021-08-24T13:35:59.000Z</time>
      </trkpt>
      <trkpt lat="42.7223631553351879119873046875" lon="-0.0121240876615047454833984375">
        <ele>1516.5999755859375</ele>
        <time>2021-08-24T13:36:09.000Z</time>
      </trkpt>
      <trkpt lat="42.72262223996222019195556640625" lon="-0.0124016962945461273193359375">
        <ele>1531.800048828125</ele>
        <time>2021-08-24T13:37:51.000Z</time>
      </trkpt>
      <trkpt lat="42.7226115949451923370361328125" lon="-0.01240949146449565887451171875">
        <ele>1531.800048828125</ele>
        <time>2021-08-24T13:38:03.000Z</time>
      </trkpt>
      <trkpt lat="42.7225780673325061798095703125" lon="-0.01247302629053592681884765625">
        <ele>1533.5999755859375</ele>
        <time>2021-08-24T13:38:14.000Z</time>
      </trkpt>
      <trkpt lat="42.72256658412516117095947265625" lon="-0.01254326663911342620849609375">
        <ele>1536.199951171875</ele>
        <time>2021-08-24T13:38:20.000Z</time>
      </trkpt>
      <trkpt lat="42.72265358828008174896240234375" lon="-0.01254980452358722686767578125">
        <ele>1538.4000244140625</ele>
        <time>2021-08-24T13:38:37.000Z</time>
      </trkpt>
      <trkpt lat="42.72288241423666477203369140625" lon="-0.01257981173694133758544921875">
        <ele>1544.199951171875</ele>
        <time>2021-08-24T13:39:41.000Z</time>
      </trkpt>
      <trkpt lat="42.72284503094851970672607421875" lon="-0.0126407481729984283447265625">
        <ele>1546</ele>
        <time>2021-08-24T13:39:55.000Z</time>
      </trkpt>
      <trkpt lat="42.72282592020928859710693359375" lon="-0.0128506310284137725830078125">
        <ele>1556.199951171875</ele>
        <time>2021-08-24T13:40:32.000Z</time>
      </trkpt>
      <trkpt lat="42.72278803400695323944091796875" lon="-0.01300008036196231842041015625">
        <ele>1561</ele>
        <time>2021-08-24T13:40:53.000Z</time>
      </trkpt>
      <trkpt lat="42.722765989601612091064453125" lon="-0.01331004314124584197998046875">
        <ele>1572.4000244140625</ele>
        <time>2021-08-24T13:41:55.000Z</time>
      </trkpt>
      <trkpt lat="42.72241654805839061737060546875" lon="-0.0131594203412532806396484375">
        <ele>1561.5999755859375</ele>
        <time>2021-08-24T13:42:48.000Z</time>
      </trkpt>
      <trkpt lat="42.72236131131649017333984375" lon="-0.0132794491946697235107421875">
        <ele>1567.800048828125</ele>
        <time>2021-08-24T13:43:05.000Z</time>
      </trkpt>
      <trkpt lat="42.72194598801434040069580078125" lon="-0.01348656602203845977783203125">
        <ele>1585.4000244140625</ele>
        <time>2021-08-24T13:44:07.000Z</time>
      </trkpt>
      <trkpt lat="42.72190558724105358123779296875" lon="-0.0134821236133575439453125">
        <ele>1586</ele>
        <time>2021-08-24T13:44:13.000Z</time>
      </trkpt>
      <trkpt lat="42.72189402021467685699462890625" lon="-0.0134849734604358673095703125">
        <ele>1586.4000244140625</ele>
        <time>2021-08-24T13:44:17.000Z</time>
      </trkpt>
      <trkpt lat="42.72178463637828826904296875" lon="-0.013461671769618988037109375">
        <ele>1587</ele>
        <time>2021-08-24T13:44:53.000Z</time>
      </trkpt>
      <trkpt lat="42.72136059589684009552001953125" lon="-0.013487823307514190673828125">
        <ele>1594.5999755859375</ele>
        <time>2021-08-24T13:45:46.000Z</time>
      </trkpt>
      <trkpt lat="42.72131701000034809112548828125" lon="-0.0135089457035064697265625">
        <ele>1595.5999755859375</ele>
        <time>2021-08-24T13:46:04.000Z</time>
      </trkpt>
      <trkpt lat="42.721262276172637939453125" lon="-0.01351900398731231689453125">
        <ele>1596.199951171875</ele>
        <time>2021-08-24T13:46:24.000Z</time>
      </trkpt>
      <trkpt lat="42.72123637609183788299560546875" lon="-0.01352529041469097137451171875">
        <ele>1596.4000244140625</ele>
        <time>2021-08-24T13:46:27.000Z</time>
      </trkpt>
      <trkpt lat="42.720924317836761474609375" lon="-0.01349226571619510650634765625">
        <ele>1601</ele>
        <time>2021-08-24T13:47:34.000Z</time>
      </trkpt>
      <trkpt lat="42.72074888460338115692138671875" lon="-0.0133719854056835174560546875">
        <ele>1600.800048828125</ele>
        <time>2021-08-24T13:47:52.000Z</time>
      </trkpt>
      <trkpt lat="42.7204155363142490386962890625" lon="-0.01325740478932857513427734375">
        <ele>1600.800048828125</ele>
        <time>2021-08-24T13:48:50.000Z</time>
      </trkpt>
      <trkpt lat="42.72035309113562107086181640625" lon="-0.0133669562637805938720703125">
        <ele>1605.5999755859375</ele>
        <time>2021-08-24T13:49:04.000Z</time>
      </trkpt>
      <trkpt lat="42.7203478105366230010986328125" lon="-0.01339268870651721954345703125">
        <ele>1606.5999755859375</ele>
        <time>2021-08-24T13:49:06.000Z</time>
      </trkpt>
      <trkpt lat="42.7203384228050708770751953125" lon="-0.01343141309916973114013671875">
        <ele>1608.199951171875</ele>
        <time>2021-08-24T13:49:09.000Z</time>
      </trkpt>
      <trkpt lat="42.72031822241842746734619140625" lon="-0.0134574808180332183837890625">
        <ele>1609</ele>
        <time>2021-08-24T13:49:12.000Z</time>
      </trkpt>
      <trkpt lat="42.7202344872057437896728515625" lon="-0.01351824961602687835693359375">
        <ele>1609.800048828125</ele>
        <time>2021-08-24T13:49:24.000Z</time>
      </trkpt>
      <trkpt lat="42.72022820077836513519287109375" lon="-0.01352126710116863250732421875">
        <ele>1609.800048828125</ele>
        <time>2021-08-24T13:49:25.000Z</time>
      </trkpt>
      <trkpt lat="42.72019408643245697021484375" lon="-0.01353451050817966461181640625">
        <ele>1609.800048828125</ele>
        <time>2021-08-24T13:49:30.000Z</time>
      </trkpt>
      <trkpt lat="42.7201746404170989990234375" lon="-0.01354037784039974212646484375">
        <ele>1609.800048828125</ele>
        <time>2021-08-24T13:49:33.000Z</time>
      </trkpt>
      <trkpt lat="42.72011035121977329254150390625" lon="-0.0135708041489124298095703125">
        <ele>1609.800048828125</ele>
        <time>2021-08-24T13:49:41.000Z</time>
      </trkpt>
      <trkpt lat="42.72007799707353115081787109375" lon="-0.01364297233521938323974609375">
        <ele>1611.5999755859375</ele>
        <time>2021-08-24T13:49:50.000Z</time>
      </trkpt>
      <trkpt lat="42.72000926546752452850341796875" lon="-0.0136505998671054840087890625">
        <ele>1610.800048828125</ele>
        <time>2021-08-24T13:50:05.000Z</time>
      </trkpt>
      <trkpt lat="42.719910442829132080078125" lon="-0.0136750750243663787841796875">
        <ele>1609.800048828125</ele>
        <time>2021-08-24T13:50:20.000Z</time>
      </trkpt>
      <trkpt lat="42.71969846449792385101318359375" lon="-0.01411772333085536956787109375">
        <ele>1621.199951171875</ele>
        <time>2021-08-24T13:51:21.000Z</time>
      </trkpt>
      <trkpt lat="42.7196283079683780670166015625" lon="-0.0142537616193294525146484375">
        <ele>1625.199951171875</ele>
        <time>2021-08-24T13:51:38.000Z</time>
      </trkpt>
      <trkpt lat="42.71959620527923107147216796875" lon="-0.01436264254152774810791015625">
        <ele>1629.4000244140625</ele>
        <time>2021-08-24T13:52:04.000Z</time>
      </trkpt>
      <trkpt lat="42.71960207261145114898681640625" lon="-0.0143670849502086639404296875">
        <ele>1629.800048828125</ele>
        <time>2021-08-24T13:52:09.000Z</time>
      </trkpt>
      <trkpt lat="42.719602994620800018310546875" lon="-0.01436716876924037933349609375">
        <ele>1630</ele>
        <time>2021-08-24T13:52:10.000Z</time>
      </trkpt>
      <trkpt lat="42.7196138910949230194091796875" lon="-0.0143664143979549407958984375">
        <ele>1630.199951171875</ele>
        <time>2021-08-24T13:52:12.000Z</time>
      </trkpt>
      <trkpt lat="42.71963895298540592193603515625" lon="-0.0143627263605594635009765625">
        <ele>1630.800048828125</ele>
        <time>2021-08-24T13:52:15.000Z</time>
      </trkpt>
      <trkpt lat="42.71965454332530498504638671875" lon="-0.01435719430446624755859375">
        <ele>1630.800048828125</ele>
        <time>2021-08-24T13:52:17.000Z</time>
      </trkpt>
      <trkpt lat="42.71965990774333477020263671875" lon="-0.0143526680767536163330078125">
        <ele>1630.800048828125</ele>
        <time>2021-08-24T13:52:18.000Z</time>
      </trkpt>
      <trkpt lat="42.7196628414094448089599609375" lon="-0.0143486447632312774658203125">
        <ele>1630.5999755859375</ele>
        <time>2021-08-24T13:52:19.000Z</time>
      </trkpt>
      <trkpt lat="42.7196779288351535797119140625" lon="-0.01433364115655422210693359375">
        <ele>1630.199951171875</ele>
        <time>2021-08-24T13:52:23.000Z</time>
      </trkpt>
      <trkpt lat="42.7197211794555187225341796875" lon="-0.01432056538760662078857421875">
        <ele>1630.800048828125</ele>
        <time>2021-08-24T13:52:30.000Z</time>
      </trkpt>
      <trkpt lat="42.71972964517772197723388671875" lon="-0.014315284788608551025390625">
        <ele>1630.800048828125</ele>
        <time>2021-08-24T13:52:32.000Z</time>
      </trkpt>
      <trkpt lat="42.71973752416670322418212890625" lon="-0.01431218348443508148193359375">
        <ele>1630.800048828125</ele>
        <time>2021-08-24T13:52:33.000Z</time>
      </trkpt>
      <trkpt lat="42.71976149640977382659912109375" lon="-0.01430698670446872711181640625">
        <ele>1631.199951171875</ele>
        <time>2021-08-24T13:52:35.000Z</time>
      </trkpt>
      <trkpt lat="42.71978446282446384429931640625" lon="-0.0142950005829334259033203125">
        <ele>1631.4000244140625</ele>
        <time>2021-08-24T13:52:37.000Z</time>
      </trkpt>
      <trkpt lat="42.71992997266352176666259765625" lon="-0.0142222456634044647216796875">
        <ele>1632</ele>
        <time>2021-08-24T13:52:56.000Z</time>
      </trkpt>
      <trkpt lat="42.7199904061853885650634765625" lon="-0.0142131932079792022705078125">
        <ele>1633</ele>
        <time>2021-08-24T13:53:03.000Z</time>
      </trkpt>
      <trkpt lat="42.72001882083714008331298828125" lon="-0.01422031782567501068115234375">
        <ele>1634</ele>
        <time>2021-08-24T13:53:09.000Z</time>
      </trkpt>
      <trkpt lat="42.7200056612491607666015625" lon="-0.0142846070230007171630859375">
        <ele>1636.5999755859375</ele>
        <time>2021-08-24T13:53:21.000Z</time>
      </trkpt>
      <trkpt lat="42.71998294629156589508056640625" lon="-0.01431453041732311248779296875">
        <ele>1637.199951171875</ele>
        <time>2021-08-24T13:53:26.000Z</time>
      </trkpt>
      <trkpt lat="42.719938270747661590576171875" lon="-0.01436582766473293304443359375">
        <ele>1638</ele>
        <time>2021-08-24T13:53:34.000Z</time>
      </trkpt>
      <trkpt lat="42.7198881469666957855224609375" lon="-0.01445643603801727294921875">
        <ele>1640</ele>
        <time>2021-08-24T13:53:46.000Z</time>
      </trkpt>
      <trkpt lat="42.71983408369123935699462890625" lon="-0.0145380757749080657958984375">
        <ele>1641.4000244140625</ele>
        <time>2021-08-24T13:54:06.000Z</time>
      </trkpt>
      <trkpt lat="42.7197915874421596527099609375" lon="-0.014610998332500457763671875">
        <ele>1643.199951171875</ele>
        <time>2021-08-24T13:54:31.000Z</time>
      </trkpt>
      <trkpt lat="42.71974942646920680999755859375" lon="-0.01466556452214717864990234375">
        <ele>1645.800048828125</ele>
        <time>2021-08-24T13:54:39.000Z</time>
      </trkpt>
      <trkpt lat="42.71973366849124431610107421875" lon="-0.01473270356655120849609375">
        <ele>1649</ele>
        <time>2021-08-24T13:54:48.000Z</time>
      </trkpt>
      <trkpt lat="42.71978781558573246002197265625" lon="-0.01471686176955699920654296875">
        <ele>1648.199951171875</ele>
        <time>2021-08-24T13:54:57.000Z</time>
      </trkpt>
      <trkpt lat="42.71979804150760173797607421875" lon="-0.01471149735152721405029296875">
        <ele>1648</ele>
        <time>2021-08-24T13:54:58.000Z</time>
      </trkpt>
      <trkpt lat="42.71982603706419467926025390625" lon="-0.01469389535486698150634765625">
        <ele>1647.800048828125</ele>
        <time>2021-08-24T13:55:01.000Z</time>
      </trkpt>
      <trkpt lat="42.7199176512658596038818359375" lon="-0.0146688334643840789794921875">
        <ele>1648.199951171875</ele>
        <time>2021-08-24T13:55:15.000Z</time>
      </trkpt>
      <trkpt lat="42.71992242895066738128662109375" lon="-0.01474720425903797149658203125">
        <ele>1652</ele>
        <time>2021-08-24T13:55:46.000Z</time>
      </trkpt>
      <trkpt lat="42.71985369734466075897216796875" lon="-0.01485365442931652069091796875">
        <ele>1655.5999755859375</ele>
        <time>2021-08-24T13:56:03.000Z</time>
      </trkpt>
      <trkpt lat="42.719893343746662139892578125" lon="-0.01489656977355480194091796875">
        <ele>1658</ele>
        <time>2021-08-24T13:56:37.000Z</time>
      </trkpt>
      <trkpt lat="42.7199967764317989349365234375" lon="-0.01484175212681293487548828125">
        <ele>1657</ele>
        <time>2021-08-24T13:56:50.000Z</time>
      </trkpt>
      <trkpt lat="42.72005151025950908660888671875" lon="-0.01481794752180576324462890625">
        <ele>1656.800048828125</ele>
        <time>2021-08-24T13:56:55.000Z</time>
      </trkpt>
      <trkpt lat="42.720073722302913665771484375" lon="-0.01481811515986919403076171875">
        <ele>1657.4000244140625</ele>
        <time>2021-08-24T13:56:57.000Z</time>
      </trkpt>
      <trkpt lat="42.72008185274899005889892578125" lon="-0.01481719315052032470703125">
        <ele>1657.5999755859375</ele>
        <time>2021-08-24T13:56:58.000Z</time>
      </trkpt>
      <trkpt lat="42.7201100997626781463623046875" lon="-0.0148232281208038330078125">
        <ele>1658.5999755859375</ele>
        <time>2021-08-24T13:57:01.000Z</time>
      </trkpt>
      <trkpt lat="42.72016114555299282073974609375" lon="-0.01495859585702419281005859375">
        <ele>1666</ele>
        <time>2021-08-24T13:57:52.000Z</time>
      </trkpt>
      <trkpt lat="42.720166258513927459716796875" lon="-0.014957673847675323486328125">
        <ele>1666</ele>
        <time>2021-08-24T13:57:53.000Z</time>
      </trkpt>
      <trkpt lat="42.7201711200177669525146484375" lon="-0.0149561651051044464111328125">
        <ele>1666</ele>
        <time>2021-08-24T13:57:54.000Z</time>
      </trkpt>
      <trkpt lat="42.72018210031092166900634765625" lon="-0.01495398581027984619140625">
        <ele>1666.4000244140625</ele>
        <time>2021-08-24T13:57:56.000Z</time>
      </trkpt>
      <trkpt lat="42.720305733382701873779296875" lon="-0.01494350843131542205810546875">
        <ele>1668.5999755859375</ele>
        <time>2021-08-24T13:58:13.000Z</time>
      </trkpt>
      <trkpt lat="42.720370106399059295654296875" lon="-0.014951638877391815185546875">
        <ele>1669.199951171875</ele>
        <time>2021-08-24T13:58:22.000Z</time>
      </trkpt>
      <trkpt lat="42.72031336091458797454833984375" lon="-0.01513092778623104095458984375">
        <ele>1673.4000244140625</ele>
        <time>2021-08-24T13:58:55.000Z</time>
      </trkpt>
      <trkpt lat="42.720328532159328460693359375" lon="-0.01516177318990230560302734375">
        <ele>1674.4000244140625</ele>
        <time>2021-08-24T13:59:01.000Z</time>
      </trkpt>
      <trkpt lat="42.7202432043850421905517578125" lon="-0.01517350785434246063232421875">
        <ele>1673.800048828125</ele>
        <time>2021-08-24T13:59:14.000Z</time>
      </trkpt>
      <trkpt lat="42.72018025629222393035888671875" lon="-0.01519815064966678619384765625">
        <ele>1673.800048828125</ele>
        <time>2021-08-24T13:59:22.000Z</time>
      </trkpt>
      <trkpt lat="42.72016081027686595916748046875" lon="-0.01521390862762928009033203125">
        <ele>1674.199951171875</ele>
        <time>2021-08-24T13:59:25.000Z</time>
      </trkpt>
      <trkpt lat="42.720031477510929107666015625" lon="-0.0153752602636814117431640625">
        <ele>1677.4000244140625</ele>
        <time>2021-08-24T13:59:50.000Z</time>
      </trkpt>
      <trkpt lat="42.7200163900852203369140625" lon="-0.015396215021610260009765625">
        <ele>1678</ele>
        <time>2021-08-24T13:59:53.000Z</time>
      </trkpt>
      <trkpt lat="42.71989024244248867034912109375" lon="-0.0155392102897167205810546875">
        <ele>1679.4000244140625</ele>
        <time>2021-08-24T14:00:14.000Z</time>
      </trkpt>
      <trkpt lat="42.71987062878906726837158203125" lon="-0.0155667029321193695068359375">
        <ele>1679.800048828125</ele>
        <time>2021-08-24T14:00:19.000Z</time>
      </trkpt>
      <trkpt lat="42.71979753859341144561767578125" lon="-0.015633590519428253173828125">
        <ele>1680.199951171875</ele>
        <time>2021-08-24T14:00:52.000Z</time>
      </trkpt>
      <trkpt lat="42.7197433076798915863037109375" lon="-0.0156478397548198699951171875">
        <ele>1680.199951171875</ele>
        <time>2021-08-24T14:01:04.000Z</time>
      </trkpt>
      <trkpt lat="42.7196899987757205963134765625" lon="-0.0156931020319461822509765625">
        <ele>1681</ele>
        <time>2021-08-24T14:01:15.000Z</time>
      </trkpt>
      <trkpt lat="42.71958262659609317779541015625" lon="-0.0157940201461315155029296875">
        <ele>1682</ele>
        <time>2021-08-24T14:01:34.000Z</time>
      </trkpt>
      <trkpt lat="42.7194465883076190948486328125" lon="-0.0160146318376064300537109375">
        <ele>1684</ele>
        <time>2021-08-24T14:01:55.000Z</time>
      </trkpt>
      <trkpt lat="42.71938213147222995758056640625" lon="-0.01612083055078983306884765625">
        <ele>1684.199951171875</ele>
        <time>2021-08-24T14:02:05.000Z</time>
      </trkpt>
      <trkpt lat="42.71937726996839046478271484375" lon="-0.01613357104361057281494140625">
        <ele>1684.199951171875</ele>
        <time>2021-08-24T14:02:06.000Z</time>
      </trkpt>
      <trkpt lat="42.71936872042715549468994140625" lon="-0.01614429987967014312744140625">
        <ele>1684.199951171875</ele>
        <time>2021-08-24T14:02:07.000Z</time>
      </trkpt>
      <trkpt lat="42.71933703683316707611083984375" lon="-0.01619760878384113311767578125">
        <ele>1684.4000244140625</ele>
        <time>2021-08-24T14:02:12.000Z</time>
      </trkpt>
      <trkpt lat="42.71932831965386867523193359375" lon="-0.01621604897081851959228515625">
        <ele>1684.4000244140625</ele>
        <time>2021-08-24T14:02:14.000Z</time>
      </trkpt>
      <trkpt lat="42.71932446397840976715087890625" lon="-0.0162288732826709747314453125">
        <ele>1684.5999755859375</ele>
        <time>2021-08-24T14:02:15.000Z</time>
      </trkpt>
      <trkpt lat="42.71931708790361881256103515625" lon="-0.01626650802791118621826171875">
        <ele>1684.800048828125</ele>
        <time>2021-08-24T14:02:18.000Z</time>
      </trkpt>
      <trkpt lat="42.71930719725787639617919921875" lon="-0.0162905640900135040283203125">
        <ele>1684.800048828125</ele>
        <time>2021-08-24T14:02:20.000Z</time>
      </trkpt>
      <trkpt lat="42.71929956972599029541015625" lon="-0.0163009576499462127685546875">
        <ele>1684.800048828125</ele>
        <time>2021-08-24T14:02:21.000Z</time>
      </trkpt>
      <trkpt lat="42.71929286420345306396484375" lon="-0.01631361432373523712158203125">
        <ele>1684.800048828125</ele>
        <time>2021-08-24T14:02:22.000Z</time>
      </trkpt>
      <trkpt lat="42.7192869968712329864501953125" lon="-0.01632551662623882293701171875">
        <ele>1685</ele>
        <time>2021-08-24T14:02:23.000Z</time>
      </trkpt>
      <trkpt lat="42.7192823030054569244384765625" lon="-0.01633540727198123931884765625">
        <ele>1685</ele>
        <time>2021-08-24T14:02:24.000Z</time>
      </trkpt>
      <trkpt lat="42.71924282424151897430419921875" lon="-0.0164233334362506866455078125">
        <ele>1685.4000244140625</ele>
        <time>2021-08-24T14:02:32.000Z</time>
      </trkpt>
      <trkpt lat="42.7192206121981143951416015625" lon="-0.016702115535736083984375">
        <ele>1689</ele>
        <time>2021-08-24T14:02:54.000Z</time>
      </trkpt>
      <trkpt lat="42.71917006932199001312255859375" lon="-0.016784928739070892333984375">
        <ele>1690.4000244140625</ele>
        <time>2021-08-24T14:03:03.000Z</time>
      </trkpt>
      <trkpt lat="42.7191438339650630950927734375" lon="-0.01682792790234088897705078125">
        <ele>1691.199951171875</ele>
        <time>2021-08-24T14:03:07.000Z</time>
      </trkpt>
      <trkpt lat="42.7191032655537128448486328125" lon="-0.01693102531135082244873046875">
        <ele>1694.4000244140625</ele>
        <time>2021-08-24T14:03:15.000Z</time>
      </trkpt>
      <trkpt lat="42.7190808020532131195068359375" lon="-0.01699439249932765960693359375">
        <ele>1695.4000244140625</ele>
        <time>2021-08-24T14:03:20.000Z</time>
      </trkpt>
      <trkpt lat="42.71904601715505123138427734375" lon="-0.0170590169727802276611328125">
        <ele>1696.800048828125</ele>
        <time>2021-08-24T14:03:26.000Z</time>
      </trkpt>
      <trkpt lat="42.71900109015405178070068359375" lon="-0.017128251492977142333984375">
        <ele>1699</ele>
        <time>2021-08-24T14:03:33.000Z</time>
      </trkpt>
      <trkpt lat="42.71894359029829502105712890625" lon="-0.01718021929264068603515625">
        <ele>1701.4000244140625</ele>
        <time>2021-08-24T14:03:41.000Z</time>
      </trkpt>
      <trkpt lat="42.71893051452934741973876953125" lon="-0.01719019375741481781005859375">
        <ele>1701.800048828125</ele>
        <time>2021-08-24T14:03:46.000Z</time>
      </trkpt>
      <trkpt lat="42.7188925445079803466796875" lon="-0.0172211229801177978515625">
        <ele>1703.199951171875</ele>
        <time>2021-08-24T14:03:56.000Z</time>
      </trkpt>
      <trkpt lat="42.718756757676601409912109375" lon="-0.01733637414872646331787109375">
        <ele>1708</ele>
        <time>2021-08-24T14:04:31.000Z</time>
      </trkpt>
      <trkpt lat="42.7186902053654193878173828125" lon="-0.01738297753036022186279296875">
        <ele>1710.199951171875</ele>
        <time>2021-08-24T14:04:42.000Z</time>
      </trkpt>
      <trkpt lat="42.71860630251467227935791015625" lon="-0.01746042631566524505615234375">
        <ele>1710.800048828125</ele>
        <time>2021-08-24T14:04:55.000Z</time>
      </trkpt>
      <trkpt lat="42.71841578185558319091796875" lon="-0.0174978934228420257568359375">
        <ele>1709.199951171875</ele>
        <time>2021-08-24T14:05:23.000Z</time>
      </trkpt>
      <trkpt lat="42.7183783985674381256103515625" lon="-0.01744835637509822845458984375">
        <ele>1708.199951171875</ele>
        <time>2021-08-24T14:06:13.000Z</time>
      </trkpt>
      <trkpt lat="42.7183790691196918487548828125" lon="-0.01746864058077335357666015625">
        <ele>1708.4000244140625</ele>
        <time>2021-08-24T14:06:21.000Z</time>
      </trkpt>
      <trkpt lat="42.71837563253939151763916015625" lon="-0.017474927008152008056640625">
        <ele>1708.5999755859375</ele>
        <time>2021-08-24T14:06:28.000Z</time>
      </trkpt>
      <trkpt lat="42.71837865002453327178955078125" lon="-0.01747987233102321624755859375">
        <ele>1708.5999755859375</ele>
        <time>2021-08-24T14:06:39.000Z</time>
      </trkpt>
      <trkpt lat="42.71837177686393260955810546875" lon="-0.01747132278978824615478515625">
        <ele>1708.4000244140625</ele>
        <time>2021-08-24T14:06:48.000Z</time>
      </trkpt>
      <trkpt lat="42.7183710224926471710205078125" lon="-0.017470903694629669189453125">
        <ele>1708.4000244140625</ele>
        <time>2021-08-24T14:06:49.000Z</time>
      </trkpt>
      <trkpt lat="42.7183720283210277557373046875" lon="-0.017474591732025146484375">
        <ele>1708.4000244140625</ele>
        <time>2021-08-24T14:06:55.000Z</time>
      </trkpt>
      <trkpt lat="42.71837244741618633270263671875" lon="-0.0174750946462154388427734375">
        <ele>1708.4000244140625</ele>
        <time>2021-08-24T14:06:58.000Z</time>
      </trkpt>
      <trkpt lat="42.7183723635971546173095703125" lon="-0.017474927008152008056640625">
        <ele>1708.4000244140625</ele>
        <time>2021-08-24T14:07:01.000Z</time>
      </trkpt>
      <trkpt lat="42.71837244741618633270263671875" lon="-0.017476938664913177490234375">
        <ele>1708.5999755859375</ele>
        <time>2021-08-24T14:07:17.000Z</time>
      </trkpt>
      <trkpt lat="42.71837110631167888641357421875" lon="-0.01747618429362773895263671875">
        <ele>1708.5999755859375</ele>
        <time>2021-08-24T14:07:25.000Z</time>
      </trkpt>
      <trkpt lat="42.71836741827428340911865234375" lon="-0.01747165806591510772705078125">
        <ele>1708.4000244140625</ele>
        <time>2021-08-24T14:07:32.000Z</time>
      </trkpt>
      <trkpt lat="42.7184028737246990203857421875" lon="-0.01748993061482906341552734375">
        <ele>1708.800048828125</ele>
        <time>2021-08-24T14:07:40.000Z</time>
      </trkpt>
      <trkpt lat="42.718404717743396759033203125" lon="-0.01753234304487705230712890625">
        <ele>1709.5999755859375</ele>
        <time>2021-08-24T14:07:48.000Z</time>
      </trkpt>
      <trkpt lat="42.71836389787495136260986328125" lon="-0.01764868386089801788330078125">
        <ele>1711</ele>
        <time>2021-08-24T14:07:56.000Z</time>
      </trkpt>
      <trkpt lat="42.71835015155375003814697265625" lon="-0.01768204383552074432373046875">
        <ele>1711.199951171875</ele>
        <time>2021-08-24T14:07:59.000Z</time>
      </trkpt>
      <trkpt lat="42.71833925507962703704833984375" lon="-0.01770467497408390045166015625">
        <ele>1711.5999755859375</ele>
        <time>2021-08-24T14:08:01.000Z</time>
      </trkpt>
      <trkpt lat="42.71831461228430271148681640625" lon="-0.0177335925400257110595703125">
        <ele>1711.800048828125</ele>
        <time>2021-08-24T14:08:04.000Z</time>
      </trkpt>
      <trkpt lat="42.71825828589498996734619140625" lon="-0.01780894584953784942626953125">
        <ele>1712.5999755859375</ele>
        <time>2021-08-24T14:08:12.000Z</time>
      </trkpt>
      <trkpt lat="42.71825694479048252105712890625" lon="-0.017818920314311981201171875">
        <ele>1712.800048828125</ele>
        <time>2021-08-24T14:08:13.000Z</time>
      </trkpt>
      <trkpt lat="42.7182402648031711578369140625" lon="-0.0178559683263301849365234375">
        <ele>1713.4000244140625</ele>
        <time>2021-08-24T14:08:17.000Z</time>
      </trkpt>
      <trkpt lat="42.7182288654148578643798828125" lon="-0.018003992736339569091796875">
        <ele>1715.800048828125</ele>
        <time>2021-08-24T14:08:28.000Z</time>
      </trkpt>
      <trkpt lat="42.71822894923388957977294921875" lon="-0.01811773516237735748291015625">
        <ele>1717.5999755859375</ele>
        <time>2021-08-24T14:08:35.000Z</time>
      </trkpt>
      <trkpt lat="42.7182338945567607879638671875" lon="-0.01814573071897029876708984375">
        <ele>1718.199951171875</ele>
        <time>2021-08-24T14:08:37.000Z</time>
      </trkpt>
      <trkpt lat="42.71822878159582614898681640625" lon="-0.0182096846401691436767578125">
        <ele>1719.199951171875</ele>
        <time>2021-08-24T14:08:43.000Z</time>
      </trkpt>
      <trkpt lat="42.718222327530384063720703125" lon="-0.018269531428813934326171875">
        <ele>1720.5999755859375</ele>
        <time>2021-08-24T14:08:48.000Z</time>
      </trkpt>
      <trkpt lat="42.718105316162109375" lon="-0.018423087894916534423828125">
        <ele>1722.4000244140625</ele>
        <time>2021-08-24T14:09:20.000Z</time>
      </trkpt>
      <trkpt lat="42.71807405166327953338623046875" lon="-0.01846575178205966949462890625">
        <ele>1722.5999755859375</ele>
        <time>2021-08-24T14:09:28.000Z</time>
      </trkpt>
      <trkpt lat="42.7180035598576068878173828125" lon="-0.0186173804104328155517578125">
        <ele>1725.4000244140625</ele>
        <time>2021-08-24T14:10:08.000Z</time>
      </trkpt>
      <trkpt lat="42.7179482392966747283935546875" lon="-0.01874688081443309783935546875">
        <ele>1728.5999755859375</ele>
        <time>2021-08-24T14:10:20.000Z</time>
      </trkpt>
      <trkpt lat="42.71789082325994968414306640625" lon="-0.0189216434955596923828125">
        <ele>1734</ele>
        <time>2021-08-24T14:10:35.000Z</time>
      </trkpt>
      <trkpt lat="42.71784841082990169525146484375" lon="-0.01897034235298633575439453125">
        <ele>1734.5999755859375</ele>
        <time>2021-08-24T14:10:44.000Z</time>
      </trkpt>
      <trkpt lat="42.71774464286863803863525390625" lon="-0.0191642157733440399169921875">
        <ele>1740.5999755859375</ele>
        <time>2021-08-24T14:11:13.000Z</time>
      </trkpt>
      <trkpt lat="42.71771111525595188140869140625" lon="-0.0192094780504703521728515625">
        <ele>1741.800048828125</ele>
        <time>2021-08-24T14:11:19.000Z</time>
      </trkpt>
      <trkpt lat="42.71760768257081508636474609375" lon="-0.01940217800438404083251953125">
        <ele>1746.4000244140625</ele>
        <time>2021-08-24T14:11:45.000Z</time>
      </trkpt>
      <trkpt lat="42.71757884882390499114990234375" lon="-0.01948314718902111053466796875">
        <ele>1747.800048828125</ele>
        <time>2021-08-24T14:11:55.000Z</time>
      </trkpt>
      <trkpt lat="42.71751397289335727691650390625" lon="-0.01966905780136585235595703125">
        <ele>1751.199951171875</ele>
        <time>2021-08-24T14:12:16.000Z</time>
      </trkpt>
      <trkpt lat="42.71747608669102191925048828125" lon="-0.019811801612377166748046875">
        <ele>1753.4000244140625</ele>
        <time>2021-08-24T14:12:30.000Z</time>
      </trkpt>
      <trkpt lat="42.71744557656347751617431640625" lon="-0.0198937766253948211669921875">
        <ele>1754.800048828125</ele>
        <time>2021-08-24T14:12:43.000Z</time>
      </trkpt>
      <trkpt lat="42.71735136397182941436767578125" lon="-0.01997910439968109130859375">
        <ele>1756.4000244140625</ele>
        <time>2021-08-24T14:12:56.000Z</time>
      </trkpt>
      <trkpt lat="42.7172501944005489349365234375" lon="-0.02006770111620426177978515625">
        <ele>1757.800048828125</ele>
        <time>2021-08-24T14:13:10.000Z</time>
      </trkpt>
      <trkpt lat="42.71723871119320392608642578125" lon="-0.020094774663448333740234375">
        <ele>1758.199951171875</ele>
        <time>2021-08-24T14:13:13.000Z</time>
      </trkpt>
      <trkpt lat="42.71723602898418903350830078125" lon="-0.02013333141803741455078125">
        <ele>1759.199951171875</ele>
        <time>2021-08-24T14:13:16.000Z</time>
      </trkpt>
      <trkpt lat="42.71722228266298770904541015625" lon="-0.02016224898397922515869140625">
        <ele>1759.5999755859375</ele>
        <time>2021-08-24T14:13:19.000Z</time>
      </trkpt>
      <trkpt lat="42.71715170703828334808349609375" lon="-0.0202116183936595916748046875">
        <ele>1759.800048828125</ele>
        <time>2021-08-24T14:13:28.000Z</time>
      </trkpt>
      <trkpt lat="42.71709487773478031158447265625" lon="-0.02021354623138904571533203125">
        <ele>1759.199951171875</ele>
        <time>2021-08-24T14:13:34.000Z</time>
      </trkpt>
      <trkpt lat="42.7170533873140811920166015625" lon="-0.02024338580667972564697265625">
        <ele>1759.4000244140625</ele>
        <time>2021-08-24T14:13:39.000Z</time>
      </trkpt>
      <trkpt lat="42.71703352220356464385986328125" lon="-0.020273141562938690185546875">
        <ele>1759.5999755859375</ele>
        <time>2021-08-24T14:13:43.000Z</time>
      </trkpt>
      <trkpt lat="42.71702229045331478118896484375" lon="-0.02031748183071613311767578125">
        <ele>1760.4000244140625</ele>
        <time>2021-08-24T14:13:47.000Z</time>
      </trkpt>
      <trkpt lat="42.7169735915958881378173828125" lon="-0.02044287510216236114501953125">
        <ele>1761.4000244140625</ele>
        <time>2021-08-24T14:14:00.000Z</time>
      </trkpt>
      <trkpt lat="42.71693981252610683441162109375" lon="-0.020529292523860931396484375">
        <ele>1761.5999755859375</ele>
        <time>2021-08-24T14:14:09.000Z</time>
      </trkpt>
      <trkpt lat="42.71690913476049900054931640625" lon="-0.02054479904472827911376953125">
        <ele>1761</ele>
        <time>2021-08-24T14:14:15.000Z</time>
      </trkpt>
      <trkpt lat="42.71688449196517467498779296875" lon="-0.02056089229881763458251953125">
        <ele>1760.5999755859375</ele>
        <time>2021-08-24T14:14:18.000Z</time>
      </trkpt>
      <trkpt lat="42.716840319335460662841796875" lon="-0.02062107436358928680419921875">
        <ele>1760.199951171875</ele>
        <time>2021-08-24T14:14:27.000Z</time>
      </trkpt>
      <trkpt lat="42.716564722359180450439453125" lon="-0.02097177319228649139404296875">
        <ele>1758</ele>
        <time>2021-08-24T14:15:04.000Z</time>
      </trkpt>
      <trkpt lat="42.71647294051945209503173828125" lon="-0.02117863856256008148193359375">
        <ele>1760.800048828125</ele>
        <time>2021-08-24T14:15:18.000Z</time>
      </trkpt>
      <trkpt lat="42.71637654863297939300537109375" lon="-0.0214256532490253448486328125">
        <ele>1764.5999755859375</ele>
        <time>2021-08-24T14:15:37.000Z</time>
      </trkpt>
      <trkpt lat="42.716338075697422027587890625" lon="-0.0215708278119564056396484375">
        <ele>1767.199951171875</ele>
        <time>2021-08-24T14:15:50.000Z</time>
      </trkpt>
      <trkpt lat="42.71630496717989444732666015625" lon="-0.02179630100727081298828125">
        <ele>1773.4000244140625</ele>
        <time>2021-08-24T14:16:05.000Z</time>
      </trkpt>
      <trkpt lat="42.7161994390189647674560546875" lon="-0.02189227379858493804931640625">
        <ele>1772.199951171875</ele>
        <time>2021-08-24T14:16:19.000Z</time>
      </trkpt>
      <trkpt lat="42.715928368270397186279296875" lon="-0.02190400846302509307861328125">
        <ele>1764.5999755859375</ele>
        <time>2021-08-24T14:16:56.000Z</time>
      </trkpt>
      <trkpt lat="42.715758718550205230712890625" lon="-0.0222547911107540130615234375">
        <ele>1764</ele>
        <time>2021-08-24T14:17:20.000Z</time>
      </trkpt>
      <trkpt lat="42.7157463133335113525390625" lon="-0.02227247692644596099853515625">
        <ele>1763.800048828125</ele>
        <time>2021-08-24T14:17:23.000Z</time>
      </trkpt>
      <trkpt lat="42.71560306660830974578857421875" lon="-0.02268352545797824859619140625">
        <ele>1761</ele>
        <time>2021-08-24T14:17:52.000Z</time>
      </trkpt>
      <trkpt lat="42.71560759283602237701416015625" lon="-0.0226842798292636871337890625">
        <ele>1761.199951171875</ele>
        <time>2021-08-24T14:17:53.000Z</time>
      </trkpt>
      <trkpt lat="42.715608179569244384765625" lon="-0.0226896442472934722900390625">
        <ele>1761.4000244140625</ele>
        <time>2021-08-24T14:17:54.000Z</time>
      </trkpt>
      <trkpt lat="42.7156175673007965087890625" lon="-0.0227308832108974456787109375">
        <ele>1762.4000244140625</ele>
        <time>2021-08-24T14:17:57.000Z</time>
      </trkpt>
      <trkpt lat="42.71562150679528713226318359375" lon="-0.0227992795407772064208984375">
        <ele>1763.5999755859375</ele>
        <time>2021-08-24T14:18:01.000Z</time>
      </trkpt>
      <trkpt lat="42.71562720648944377899169921875" lon="-0.02283842302858829498291015625">
        <ele>1764.4000244140625</ele>
        <time>2021-08-24T14:18:03.000Z</time>
      </trkpt>
      <trkpt lat="42.71565721370279788970947265625" lon="-0.0230856053531169891357421875">
        <ele>1767</ele>
        <time>2021-08-24T14:18:20.000Z</time>
      </trkpt>
      <trkpt lat="42.7156167291104793548583984375" lon="-0.0236351229250431060791015625">
        <ele>1771.800048828125</ele>
        <time>2021-08-24T14:18:56.000Z</time>
      </trkpt>
      <trkpt lat="42.7155969478189945220947265625" lon="-0.023759342730045318603515625">
        <ele>1772.199951171875</ele>
        <time>2021-08-24T14:19:11.000Z</time>
      </trkpt>
      <trkpt lat="42.71557800471782684326171875" lon="-0.02409738488495349884033203125">
        <ele>1773.5999755859375</ele>
        <time>2021-08-24T14:19:30.000Z</time>
      </trkpt>
      <trkpt lat="42.71544548682868480682373046875" lon="-0.0242543779313564300537109375">
        <ele>1772</ele>
        <time>2021-08-24T14:21:05.000Z</time>
      </trkpt>
      <trkpt lat="42.715444900095462799072265625" lon="-0.02425999380648136138916015625">
        <ele>1772</ele>
        <time>2021-08-24T14:21:13.000Z</time>
      </trkpt>
      <trkpt lat="42.71544246934354305267333984375" lon="-0.0242699682712554931640625">
        <ele>1772</ele>
        <time>2021-08-24T14:21:25.000Z</time>
      </trkpt>
      <trkpt lat="42.71543643437325954437255859375" lon="-0.0242691300809383392333984375">
        <ele>1771.800048828125</ele>
        <time>2021-08-24T14:21:34.000Z</time>
      </trkpt>
      <trkpt lat="42.71544096060097217559814453125" lon="-0.02427793107926845550537109375">
        <ele>1772</ele>
        <time>2021-08-24T14:21:42.000Z</time>
      </trkpt>
      <trkpt lat="42.7154420502483844757080078125" lon="-0.02427466213703155517578125">
        <ele>1772</ele>
        <time>2021-08-24T14:21:53.000Z</time>
      </trkpt>
      <trkpt lat="42.715442888438701629638671875" lon="-0.0242780148983001708984375">
        <ele>1772</ele>
        <time>2021-08-24T14:22:06.000Z</time>
      </trkpt>
      <trkpt lat="42.71545085124671459197998046875" lon="-0.02427399158477783203125">
        <ele>1772.199951171875</ele>
        <time>2021-08-24T14:22:12.000Z</time>
      </trkpt>
      <trkpt lat="42.71546208299696445465087890625" lon="-0.02426837570965290069580078125">
        <ele>1772.4000244140625</ele>
        <time>2021-08-24T14:22:18.000Z</time>
      </trkpt>
      <trkpt lat="42.7154648490250110626220703125" lon="-0.02426435239613056182861328125">
        <ele>1772.4000244140625</ele>
        <time>2021-08-24T14:22:20.000Z</time>
      </trkpt>
      <trkpt lat="42.7154641784727573394775390625" lon="-0.02426183782517910003662109375">
        <ele>1772.4000244140625</ele>
        <time>2021-08-24T14:22:21.000Z</time>
      </trkpt>
      <trkpt lat="42.71546426229178905487060546875" lon="-0.0242587365210056304931640625">
        <ele>1772.4000244140625</ele>
        <time>2021-08-24T14:22:22.000Z</time>
      </trkpt>
      <trkpt lat="42.715461663901805877685546875" lon="-0.02425320446491241455078125">
        <ele>1772.199951171875</ele>
        <time>2021-08-24T14:22:27.000Z</time>
      </trkpt>
      <trkpt lat="42.71548085846006870269775390625" lon="-0.0242711417376995086669921875">
        <ele>1772.800048828125</ele>
        <time>2021-08-24T14:22:57.000Z</time>
      </trkpt>
      <trkpt lat="42.7154668606817722320556640625" lon="-0.024335347115993499755859375">
        <ele>1773.4000244140625</ele>
        <time>2021-08-24T14:23:01.000Z</time>
      </trkpt>
      <trkpt lat="42.71541698835790157318115234375" lon="-0.02449401654303073883056640625">
        <ele>1776.199951171875</ele>
        <time>2021-08-24T14:23:12.000Z</time>
      </trkpt>
      <trkpt lat="42.715404666960239410400390625" lon="-0.024538524448871612548828125">
        <ele>1776.800048828125</ele>
        <time>2021-08-24T14:23:15.000Z</time>
      </trkpt>
      <trkpt lat="42.71539033390581607818603515625" lon="-0.0246047414839267730712890625">
        <ele>1777.5999755859375</ele>
        <time>2021-08-24T14:23:20.000Z</time>
      </trkpt>
      <trkpt lat="42.7153803594410419464111328125" lon="-0.02460935153067111968994140625">
        <ele>1777.800048828125</ele>
        <time>2021-08-24T14:23:21.000Z</time>
      </trkpt>
      <trkpt lat="42.715356051921844482421875" lon="-0.02461731433868408203125">
        <ele>1777.800048828125</ele>
        <time>2021-08-24T14:23:23.000Z</time>
      </trkpt>
      <trkpt lat="42.71525152958929538726806640625" lon="-0.02464346587657928466796875">
        <ele>1778</ele>
        <time>2021-08-24T14:23:35.000Z</time>
      </trkpt>
      <trkpt lat="42.7152154035866260528564453125" lon="-0.02464086748659610748291015625">
        <ele>1777.199951171875</ele>
        <time>2021-08-24T14:23:38.000Z</time>
      </trkpt>
      <trkpt lat="42.71520140580832958221435546875" lon="-0.02464304678142070770263671875">
        <ele>1777</ele>
        <time>2021-08-24T14:23:39.000Z</time>
      </trkpt>
      <trkpt lat="42.71517458371818065643310546875" lon="-0.02464539371430873870849609375">
        <ele>1776.5999755859375</ele>
        <time>2021-08-24T14:23:41.000Z</time>
      </trkpt>
      <trkpt lat="42.71514885127544403076171875" lon="-0.0246441364288330078125">
        <ele>1776.199951171875</ele>
        <time>2021-08-24T14:23:43.000Z</time>
      </trkpt>
      <trkpt lat="42.71510920487344264984130859375" lon="-0.02464036457240581512451171875">
        <ele>1775.199951171875</ele>
        <time>2021-08-24T14:23:46.000Z</time>
      </trkpt>
      <trkpt lat="42.71509713493287563323974609375" lon="-0.02464254386723041534423828125">
        <ele>1775.199951171875</ele>
        <time>2021-08-24T14:23:47.000Z</time>
      </trkpt>
      <trkpt lat="42.7150822989642620086669921875" lon="-0.024644471704959869384765625">
        <ele>1775</ele>
        <time>2021-08-24T14:23:48.000Z</time>
      </trkpt>
      <trkpt lat="42.71506913937628269195556640625" lon="-0.02464991994202136993408203125">
        <ele>1775</ele>
        <time>2021-08-24T14:23:49.000Z</time>
      </trkpt>
      <trkpt lat="42.71490074694156646728515625" lon="-0.02486701123416423797607421875">
        <ele>1781.5999755859375</ele>
        <time>2021-08-24T14:24:11.000Z</time>
      </trkpt>
      <trkpt lat="42.714808546006679534912109375" lon="-0.02500866539776325225830078125">
        <ele>1783.199951171875</ele>
        <time>2021-08-24T14:24:25.000Z</time>
      </trkpt>
      <trkpt lat="42.714783735573291778564453125" lon="-0.025041438639163970947265625">
        <ele>1783.4000244140625</ele>
        <time>2021-08-24T14:24:30.000Z</time>
      </trkpt>
      <trkpt lat="42.71466546691954135894775390625" lon="-0.02543915994465351104736328125">
        <ele>1786.4000244140625</ele>
        <time>2021-08-24T14:25:00.000Z</time>
      </trkpt>
      <trkpt lat="42.71463898010551929473876953125" lon="-0.02550043165683746337890625">
        <ele>1786.199951171875</ele>
        <time>2021-08-24T14:25:08.000Z</time>
      </trkpt>
      <trkpt lat="42.714644260704517364501953125" lon="-0.0255666486918926239013671875">
        <ele>1787.199951171875</ele>
        <time>2021-08-24T14:25:19.000Z</time>
      </trkpt>
      <trkpt lat="42.7147389762103557586669921875" lon="-0.0260953791439533233642578125">
        <ele>1804</ele>
        <time>2021-08-24T14:25:58.000Z</time>
      </trkpt>
      <trkpt lat="42.71466932259500026702880859375" lon="-0.026283971965312957763671875">
        <ele>1808.5999755859375</ele>
        <time>2021-08-24T14:26:24.000Z</time>
      </trkpt>
      <trkpt lat="42.7146129123866558074951171875" lon="-0.02649444155395030975341796875">
        <ele>1813</ele>
        <time>2021-08-24T14:26:43.000Z</time>
      </trkpt>
      <trkpt lat="42.7145904488861560821533203125" lon="-0.026560239493846893310546875">
        <ele>1814.199951171875</ele>
        <time>2021-08-24T14:26:49.000Z</time>
      </trkpt>
      <trkpt lat="42.714541666209697723388671875" lon="-0.02668035216629505157470703125">
        <ele>1817.199951171875</ele>
        <time>2021-08-24T14:27:01.000Z</time>
      </trkpt>
      <trkpt lat="42.7144845016300678253173828125" lon="-0.026745982468128204345703125">
        <ele>1817.4000244140625</ele>
        <time>2021-08-24T14:27:11.000Z</time>
      </trkpt>
      <trkpt lat="42.7144754491746425628662109375" lon="-0.02675428055226802825927734375">
        <ele>1817.4000244140625</ele>
        <time>2021-08-24T14:27:12.000Z</time>
      </trkpt>
      <trkpt lat="42.71440680138766765594482421875" lon="-0.026853270828723907470703125">
        <ele>1819.4000244140625</ele>
        <time>2021-08-24T14:27:28.000Z</time>
      </trkpt>
      <trkpt lat="42.71438450552523136138916015625" lon="-0.026864670217037200927734375">
        <ele>1819.4000244140625</ele>
        <time>2021-08-24T14:27:30.000Z</time>
      </trkpt>
      <trkpt lat="42.7140161208808422088623046875" lon="-0.027214698493480682373046875">
        <ele>1823.800048828125</ele>
        <time>2021-08-24T14:28:19.000Z</time>
      </trkpt>
      <trkpt lat="42.7139760553836822509765625" lon="-0.02720036543905735015869140625">
        <ele>1818</ele>
        <time>2021-08-24T14:28:21.000Z</time>
      </trkpt>
      <trkpt lat="42.713939845561981201171875" lon="-0.02724830992519855499267578125">
        <ele>1820.5999755859375</ele>
        <time>2021-08-24T14:28:28.000Z</time>
      </trkpt>
      <trkpt lat="42.7138739638030529022216796875" lon="-0.02731050364673137664794921875">
        <ele>1822.4000244140625</ele>
        <time>2021-08-24T14:28:36.000Z</time>
      </trkpt>
      <trkpt lat="42.71369299851357936859130859375" lon="-0.02755500376224517822265625">
        <ele>1830</ele>
        <time>2021-08-24T14:29:06.000Z</time>
      </trkpt>
      <trkpt lat="42.7135200798511505126953125" lon="-0.0277845002710819244384765625">
        <ele>1835</ele>
        <time>2021-08-24T14:29:33.000Z</time>
      </trkpt>
      <trkpt lat="42.71335755474865436553955078125" lon="-0.0279524736106395721435546875">
        <ele>1834.199951171875</ele>
        <time>2021-08-24T14:29:54.000Z</time>
      </trkpt>
      <trkpt lat="42.713124118745326995849609375" lon="-0.02823553048074245452880859375">
        <ele>1831.800048828125</ele>
        <time>2021-08-24T14:30:25.000Z</time>
      </trkpt>
      <trkpt lat="42.71285824477672576904296875" lon="-0.02872771583497524261474609375">
        <ele>1840.800048828125</ele>
        <time>2021-08-24T14:31:15.000Z</time>
      </trkpt>
      <trkpt lat="42.712844498455524444580078125" lon="-0.02874917350709438323974609375">
        <ele>1841</ele>
        <time>2021-08-24T14:31:17.000Z</time>
      </trkpt>
      <trkpt lat="42.71265045739710330963134765625" lon="-0.02929450012743473052978515625">
        <ele>1854.800048828125</ele>
        <time>2021-08-24T14:32:08.000Z</time>
      </trkpt>
      <trkpt lat="42.7124195359647274017333984375" lon="-0.0295282714068889617919921875">
        <ele>1853.800048828125</ele>
        <time>2021-08-24T14:32:33.000Z</time>
      </trkpt>
      <trkpt lat="42.71242163144052028656005859375" lon="-0.0295856036245822906494140625">
        <ele>1855.4000244140625</ele>
        <time>2021-08-24T14:32:37.000Z</time>
      </trkpt>
      <trkpt lat="42.712299339473247528076171875" lon="-0.02977042458951473236083984375">
        <ele>1852.5999755859375</ele>
        <time>2021-08-24T14:34:02.000Z</time>
      </trkpt>
      <trkpt lat="42.71220101974904537200927734375" lon="-0.02973404712975025177001953125">
        <ele>1845.199951171875</ele>
        <time>2021-08-24T14:34:21.000Z</time>
      </trkpt>
      <trkpt lat="42.71219934336841106414794921875" lon="-0.0297639705240726470947265625">
        <ele>1845</ele>
        <time>2021-08-24T14:34:32.000Z</time>
      </trkpt>
      <trkpt lat="42.71217134781181812286376953125" lon="-0.02979288809001445770263671875">
        <ele>1842.4000244140625</ele>
        <time>2021-08-24T14:34:38.000Z</time>
      </trkpt>
      <trkpt lat="42.71213999949395656585693359375" lon="-0.02992632798850536346435546875">
        <ele>1842.800048828125</ele>
        <time>2021-08-24T14:34:49.000Z</time>
      </trkpt>
      <trkpt lat="42.712140418589115142822265625" lon="-0.029939152300357818603515625">
        <ele>1843.5999755859375</ele>
        <time>2021-08-24T14:34:50.000Z</time>
      </trkpt>
      <trkpt lat="42.71213941276073455810546875" lon="-0.02996362745761871337890625">
        <ele>1845</ele>
        <time>2021-08-24T14:34:52.000Z</time>
      </trkpt>
      <trkpt lat="42.71212893538177013397216796875" lon="-0.02998349256813526153564453125">
        <ele>1845.199951171875</ele>
        <time>2021-08-24T14:34:54.000Z</time>
      </trkpt>
      <trkpt lat="42.71211787126958370208740234375" lon="-0.03001391887664794921875">
        <ele>1846.199951171875</ele>
        <time>2021-08-24T14:34:57.000Z</time>
      </trkpt>
      <trkpt lat="42.71209507249295711517333984375" lon="-0.0300412438809871673583984375">
        <ele>1845.800048828125</ele>
        <time>2021-08-24T14:35:00.000Z</time>
      </trkpt>
      <trkpt lat="42.71209783852100372314453125" lon="-0.0300684012472629547119140625">
        <ele>1848.4000244140625</ele>
        <time>2021-08-24T14:35:02.000Z</time>
      </trkpt>
      <trkpt lat="42.712090797722339630126953125" lon="-0.0300968997180461883544921875">
        <ele>1850.4000244140625</ele>
        <time>2021-08-24T14:35:05.000Z</time>
      </trkpt>
      <trkpt lat="42.71209423430263996124267578125" lon="-0.0301082991063594818115234375">
        <ele>1852</ele>
        <time>2021-08-24T14:35:06.000Z</time>
      </trkpt>
      <trkpt lat="42.712094150483608245849609375" lon="-0.03011777065694332122802734375">
        <ele>1853</ele>
        <time>2021-08-24T14:35:07.000Z</time>
      </trkpt>
      <trkpt lat="42.71209917962551116943359375" lon="-0.03013922832906246185302734375">
        <ele>1856</ele>
        <time>2021-08-24T14:35:09.000Z</time>
      </trkpt>
      <trkpt lat="42.712102197110652923583984375" lon="-0.0301532261073589324951171875">
        <ele>1857.4000244140625</ele>
        <time>2021-08-24T14:35:10.000Z</time>
      </trkpt>
      <trkpt lat="42.7119617164134979248046875" lon="-0.0302727520465850830078125">
        <ele>1844.800048828125</ele>
        <time>2021-08-24T14:35:33.000Z</time>
      </trkpt>
      <trkpt lat="42.711956687271595001220703125" lon="-0.03032731823623180389404296875">
        <ele>1846</ele>
        <time>2021-08-24T14:35:39.000Z</time>
      </trkpt>
      <trkpt lat="42.71193883381783962249755859375" lon="-0.0304056890308856964111328125">
        <ele>1847</ele>
        <time>2021-08-24T14:35:47.000Z</time>
      </trkpt>
      <trkpt lat="42.7119313739240169525146484375" lon="-0.0304372049868106842041015625">
        <ele>1847.5999755859375</ele>
        <time>2021-08-24T14:35:50.000Z</time>
      </trkpt>
      <trkpt lat="42.71188217215240001678466796875" lon="-0.0305807031691074371337890625">
        <ele>1851.800048828125</ele>
        <time>2021-08-24T14:36:02.000Z</time>
      </trkpt>
      <trkpt lat="42.71186440251767635345458984375" lon="-0.03062621690332889556884765625">
        <ele>1854</ele>
        <time>2021-08-24T14:36:06.000Z</time>
      </trkpt>
      <trkpt lat="42.71188016049563884735107421875" lon="-0.0306869857013225555419921875">
        <ele>1862</ele>
        <time>2021-08-24T14:36:11.000Z</time>
      </trkpt>
      <trkpt lat="42.7118750475347042083740234375" lon="-0.0307877361774444580078125">
        <ele>1867.199951171875</ele>
        <time>2021-08-24T14:36:21.000Z</time>
      </trkpt>
      <trkpt lat="42.7118747122585773468017578125" lon="-0.0309374369680881500244140625">
        <ele>1869.199951171875</ele>
        <time>2021-08-24T14:36:35.000Z</time>
      </trkpt>
      <trkpt lat="42.71186172030866146087646484375" lon="-0.031525008380413055419921875">
        <ele>1870.4000244140625</ele>
        <time>2021-08-24T14:37:34.000Z</time>
      </trkpt>
      <trkpt lat="42.711846046149730682373046875" lon="-0.03163523040711879730224609375">
        <ele>1868.199951171875</ele>
        <time>2021-08-24T14:37:42.000Z</time>
      </trkpt>
      <trkpt lat="42.71182752214372158050537109375" lon="-0.03166808746755123138427734375">
        <ele>1866.5999755859375</ele>
        <time>2021-08-24T14:37:45.000Z</time>
      </trkpt>
      <trkpt lat="42.71173775196075439453125" lon="-0.0318420119583606719970703125">
        <ele>1858.800048828125</ele>
        <time>2021-08-24T14:37:59.000Z</time>
      </trkpt>
      <trkpt lat="42.7117342315614223480224609375" lon="-0.03185366280376911163330078125">
        <ele>1858.800048828125</ele>
        <time>2021-08-24T14:38:00.000Z</time>
      </trkpt>
      <trkpt lat="42.71171587519347667694091796875" lon="-0.03189238719642162322998046875">
        <ele>1857.800048828125</ele>
        <time>2021-08-24T14:38:03.000Z</time>
      </trkpt>
      <trkpt lat="42.71170933730900287628173828125" lon="-0.0319303572177886962890625">
        <ele>1857.5999755859375</ele>
        <time>2021-08-24T14:38:06.000Z</time>
      </trkpt>
      <trkpt lat="42.7117095887660980224609375" lon="-0.0321360491216182708740234375">
        <ele>1858.199951171875</ele>
        <time>2021-08-24T14:38:19.000Z</time>
      </trkpt>
      <trkpt lat="42.711729370057582855224609375" lon="-0.03242530860006809234619140625">
        <ele>1857.5999755859375</ele>
        <time>2021-08-24T14:38:42.000Z</time>
      </trkpt>
      <trkpt lat="42.7119236625730991363525390625" lon="-0.03296904265880584716796875">
        <ele>1851.4000244140625</ele>
        <time>2021-08-24T14:39:21.000Z</time>
      </trkpt>
      <trkpt lat="42.712143100798130035400390625" lon="-0.0333789177238941192626953125">
        <ele>1852.199951171875</ele>
        <time>2021-08-24T14:39:53.000Z</time>
      </trkpt>
      <trkpt lat="42.71235960535705089569091796875" lon="-0.03366633318364620208740234375">
        <ele>1863.5999755859375</ele>
        <time>2021-08-24T14:40:34.000Z</time>
      </trkpt>
      <trkpt lat="42.71233814768493175506591796875" lon="-0.03370522521436214447021484375">
        <ele>1862.199951171875</ele>
        <time>2021-08-24T14:40:41.000Z</time>
      </trkpt>
      <trkpt lat="42.71223731338977813720703125" lon="-0.0337544269859790802001953125">
        <ele>1856.800048828125</ele>
        <time>2021-08-24T14:40:52.000Z</time>
      </trkpt>
      <trkpt lat="42.71223194897174835205078125" lon="-0.03389197401702404022216796875">
        <ele>1856.800048828125</ele>
        <time>2021-08-24T14:41:08.000Z</time>
      </trkpt>
      <trkpt lat="42.71222591400146484375" lon="-0.0341252423822879791259765625">
        <ele>1857.4000244140625</ele>
        <time>2021-08-24T14:41:27.000Z</time>
      </trkpt>
      <trkpt lat="42.7122089825570583343505859375" lon="-0.03418014384806156158447265625">
        <ele>1857</ele>
        <time>2021-08-24T14:41:32.000Z</time>
      </trkpt>
      <trkpt lat="42.7121613733470439910888671875" lon="-0.0342650525271892547607421875">
        <ele>1855.5999755859375</ele>
        <time>2021-08-24T14:41:39.000Z</time>
      </trkpt>
      <trkpt lat="42.71213404834270477294921875" lon="-0.03429581411182880401611328125">
        <ele>1854.5999755859375</ele>
        <time>2021-08-24T14:41:43.000Z</time>
      </trkpt>
      <trkpt lat="42.71209104917943477630615234375" lon="-0.03438432700932025909423828125">
        <ele>1854.199951171875</ele>
        <time>2021-08-24T14:41:53.000Z</time>
      </trkpt>
      <trkpt lat="42.71207210607826709747314453125" lon="-0.034445263445377349853515625">
        <ele>1854.4000244140625</ele>
        <time>2021-08-24T14:42:03.000Z</time>
      </trkpt>
      <trkpt lat="42.712035477161407470703125" lon="-0.0345178507268428802490234375">
        <ele>1854</ele>
        <time>2021-08-24T14:42:15.000Z</time>
      </trkpt>
      <trkpt lat="42.7120312862098217010498046875" lon="-0.03454140387475490570068359375">
        <ele>1854.199951171875</ele>
        <time>2021-08-24T14:42:17.000Z</time>
      </trkpt>
      <trkpt lat="42.71203204058110713958740234375" lon="-0.03462840802967548370361328125">
        <ele>1855.4000244140625</ele>
        <time>2021-08-24T14:42:23.000Z</time>
      </trkpt>
      <trkpt lat="42.71205626428127288818359375" lon="-0.034781210124492645263671875">
        <ele>1857.5999755859375</ele>
        <time>2021-08-24T14:42:40.000Z</time>
      </trkpt>
      <trkpt lat="42.71214955486357212066650390625" lon="-0.03517926670610904693603515625">
        <ele>1862</ele>
        <time>2021-08-24T14:43:13.000Z</time>
      </trkpt>
      <trkpt lat="42.71207344718277454376220703125" lon="-0.0353617407381534576416015625">
        <ele>1861.5999755859375</ele>
        <time>2021-08-24T14:43:31.000Z</time>
      </trkpt>
      <trkpt lat="42.71202407777309417724609375" lon="-0.03563649952411651611328125">
        <ele>1862.199951171875</ele>
        <time>2021-08-24T14:43:53.000Z</time>
      </trkpt>
      <trkpt lat="42.712034471333026885986328125" lon="-0.03567765466868877410888671875">
        <ele>1862.800048828125</ele>
        <time>2021-08-24T14:43:57.000Z</time>
      </trkpt>
      <trkpt lat="42.712243683636188507080078125" lon="-0.03621845506131649017333984375">
        <ele>1872.5999755859375</ele>
        <time>2021-08-24T14:44:37.000Z</time>
      </trkpt>
      <trkpt lat="42.712357677519321441650390625" lon="-0.036623887717723846435546875">
        <ele>1880.4000244140625</ele>
        <time>2021-08-24T14:45:11.000Z</time>
      </trkpt>
      <trkpt lat="42.71223773248493671417236328125" lon="-0.0368242152035236358642578125">
        <ele>1879.199951171875</ele>
        <time>2021-08-24T14:45:32.000Z</time>
      </trkpt>
      <trkpt lat="42.7122019417583942413330078125" lon="-0.03683452494442462921142578125">
        <ele>1878.5999755859375</ele>
        <time>2021-08-24T14:45:43.000Z</time>
      </trkpt>
      <trkpt lat="42.71219171583652496337890625" lon="-0.03686268813908100128173828125">
        <ele>1879</ele>
        <time>2021-08-24T14:45:51.000Z</time>
      </trkpt>
      <trkpt lat="42.71217956207692623138427734375" lon="-0.03684307448565959930419921875">
        <ele>1878.4000244140625</ele>
        <time>2021-08-24T14:46:14.000Z</time>
      </trkpt>
      <trkpt lat="42.7121955715119838714599609375" lon="-0.03685363568365573883056640625">
        <ele>1879</ele>
        <time>2021-08-24T14:46:27.000Z</time>
      </trkpt>
      <trkpt lat="42.71222935058176517486572265625" lon="-0.03686629235744476318359375">
        <ele>1880</ele>
        <time>2021-08-24T14:46:34.000Z</time>
      </trkpt>
      <trkpt lat="42.712226249277591705322265625" lon="-0.03686495125293731689453125">
        <ele>1879.800048828125</ele>
        <time>2021-08-24T14:46:50.000Z</time>
      </trkpt>
      <trkpt lat="42.7121861837804317474365234375" lon="-0.0368865765631198883056640625">
        <ele>1879.4000244140625</ele>
        <time>2021-08-24T14:46:57.000Z</time>
      </trkpt>
      <trkpt lat="42.71223052404820919036865234375" lon="-0.0369234569370746612548828125">
        <ele>1881</ele>
        <time>2021-08-24T14:47:10.000Z</time>
      </trkpt>
      <trkpt lat="42.71223739720880985260009765625" lon="-0.036937035620212554931640625">
        <ele>1881.4000244140625</ele>
        <time>2021-08-24T14:47:12.000Z</time>
      </trkpt>
      <trkpt lat="42.71224427036941051483154296875" lon="-0.0369817949831485748291015625">
        <ele>1882.4000244140625</ele>
        <time>2021-08-24T14:47:16.000Z</time>
      </trkpt>
      <trkpt lat="42.712244354188442230224609375" lon="-0.03699294291436672210693359375">
        <ele>1882.5999755859375</ele>
        <time>2021-08-24T14:47:17.000Z</time>
      </trkpt>
      <trkpt lat="42.7122415043413639068603515625" lon="-0.03700383938848972320556640625">
        <ele>1882.5999755859375</ele>
        <time>2021-08-24T14:47:18.000Z</time>
      </trkpt>
      <trkpt lat="42.71222968585789203643798828125" lon="-0.0370186753571033477783203125">
        <ele>1882.800048828125</ele>
        <time>2021-08-24T14:47:21.000Z</time>
      </trkpt>
      <trkpt lat="42.71222264505922794342041015625" lon="-0.03702412359416484832763671875">
        <ele>1882.5999755859375</ele>
        <time>2021-08-24T14:47:23.000Z</time>
      </trkpt>
      <trkpt lat="42.7122150175273418426513671875" lon="-0.037075169384479522705078125">
        <ele>1883.4000244140625</ele>
        <time>2021-08-24T14:47:30.000Z</time>
      </trkpt>
      <trkpt lat="42.71221661008894443511962890625" lon="-0.0370847247540950775146484375">
        <ele>1883.5999755859375</ele>
        <time>2021-08-24T14:47:32.000Z</time>
      </trkpt>
      <trkpt lat="42.7121982537209987640380859375" lon="-0.03707190044224262237548828125">
        <ele>1883.199951171875</ele>
        <time>2021-08-24T14:47:39.000Z</time>
      </trkpt>
      <trkpt lat="42.7121950685977935791015625" lon="-0.0370649434626102447509765625">
        <ele>1883</ele>
        <time>2021-08-24T14:47:41.000Z</time>
      </trkpt>
      <trkpt lat="42.71219448186457157135009765625" lon="-0.03706184215843677520751953125">
        <ele>1882.800048828125</ele>
        <time>2021-08-24T14:47:42.000Z</time>
      </trkpt>
      <trkpt lat="42.71219708025455474853515625" lon="-0.037057064473628997802734375">
        <ele>1882.800048828125</ele>
        <time>2021-08-24T14:47:44.000Z</time>
      </trkpt>
      <trkpt lat="42.7122012712061405181884765625" lon="-0.03705647774040699005126953125">
        <ele>1882.800048828125</ele>
        <time>2021-08-24T14:47:46.000Z</time>
      </trkpt>
      <trkpt lat="42.71220420487225055694580078125" lon="-0.0370555557310581207275390625">
        <ele>1883</ele>
        <time>2021-08-24T14:47:48.000Z</time>
      </trkpt>
      <trkpt lat="42.712219543755054473876953125" lon="-0.03707307390868663787841796875">
        <ele>1883.5999755859375</ele>
        <time>2021-08-24T14:47:58.000Z</time>
      </trkpt>
      <trkpt lat="42.7122431807219982147216796875" lon="-0.0370803661644458770751953125">
        <ele>1884</ele>
        <time>2021-08-24T14:48:07.000Z</time>
      </trkpt>
      <trkpt lat="42.71223597228527069091796875" lon="-0.0371284782886505126953125">
        <ele>1884.800048828125</ele>
        <time>2021-08-24T14:48:11.000Z</time>
      </trkpt>
      <trkpt lat="42.71220806054770946502685546875" lon="-0.0373314879834651947021484375">
        <ele>1887.4000244140625</ele>
        <time>2021-08-24T14:48:24.000Z</time>
      </trkpt>
      <trkpt lat="42.712165899574756622314453125" lon="-0.0375034846365451812744140625">
        <ele>1888.199951171875</ele>
        <time>2021-08-24T14:48:37.000Z</time>
      </trkpt>
      <trkpt lat="42.71215978078544139862060546875" lon="-0.037554614245891571044921875">
        <ele>1888.199951171875</ele>
        <time>2021-08-24T14:48:41.000Z</time>
      </trkpt>
      <trkpt lat="42.71214234642684459686279296875" lon="-0.03758520819246768951416015625">
        <ele>1888</ele>
        <time>2021-08-24T14:48:44.000Z</time>
      </trkpt>
      <trkpt lat="42.71213463507592678070068359375" lon="-0.03759560175240039825439453125">
        <ele>1888</ele>
        <time>2021-08-24T14:48:45.000Z</time>
      </trkpt>
      <trkpt lat="42.71213128231465816497802734375" lon="-0.03760783933103084564208984375">
        <ele>1888</ele>
        <time>2021-08-24T14:48:46.000Z</time>
      </trkpt>
      <trkpt lat="42.712132036685943603515625" lon="-0.03761999309062957763671875">
        <ele>1888</ele>
        <time>2021-08-24T14:48:47.000Z</time>
      </trkpt>
      <trkpt lat="42.7121258340775966644287109375" lon="-0.03764681518077850341796875">
        <ele>1887.800048828125</ele>
        <time>2021-08-24T14:48:49.000Z</time>
      </trkpt>
      <trkpt lat="42.71211435087025165557861328125" lon="-0.03768830560147762298583984375">
        <ele>1887.5999755859375</ele>
        <time>2021-08-24T14:48:52.000Z</time>
      </trkpt>
      <trkpt lat="42.7121083997189998626708984375" lon="-0.03773398697376251220703125">
        <ele>1887.4000244140625</ele>
        <time>2021-08-24T14:48:55.000Z</time>
      </trkpt>
      <trkpt lat="42.7121011912822723388671875" lon="-0.0377717055380344390869140625">
        <ele>1887.199951171875</ele>
        <time>2021-08-24T14:48:58.000Z</time>
      </trkpt>
      <trkpt lat="42.7119997702538967132568359375" lon="-0.03794252872467041015625">
        <ele>1886</ele>
        <time>2021-08-24T14:49:14.000Z</time>
      </trkpt>
      <trkpt lat="42.7119042165577411651611328125" lon="-0.03810237161815166473388671875">
        <ele>1887</ele>
        <time>2021-08-24T14:49:28.000Z</time>
      </trkpt>
      <trkpt lat="42.711777649819850921630859375" lon="-0.0382756255567073822021484375">
        <ele>1887.4000244140625</ele>
        <time>2021-08-24T14:49:43.000Z</time>
      </trkpt>
      <trkpt lat="42.7117583714425563812255859375" lon="-0.03833480179309844970703125">
        <ele>1887.5999755859375</ele>
        <time>2021-08-24T14:49:48.000Z</time>
      </trkpt>
      <trkpt lat="42.711755521595478057861328125" lon="-0.0383520685136318206787109375">
        <ele>1887.5999755859375</ele>
        <time>2021-08-24T14:49:55.000Z</time>
      </trkpt>
      <trkpt lat="42.71173775196075439453125" lon="-0.03839171491563320159912109375">
        <ele>1887.800048828125</ele>
        <time>2021-08-24T14:49:58.000Z</time>
      </trkpt>
      <trkpt lat="42.7116805873811244964599609375" lon="-0.03859673626720905303955078125">
        <ele>1888.199951171875</ele>
        <time>2021-08-24T14:50:14.000Z</time>
      </trkpt>
      <trkpt lat="42.71165351383388042449951171875" lon="-0.038674771785736083984375">
        <ele>1888.4000244140625</ele>
        <time>2021-08-24T14:50:22.000Z</time>
      </trkpt>
      <trkpt lat="42.71170514635741710662841796875" lon="-0.03882304765284061431884765625">
        <ele>1890.199951171875</ele>
        <time>2021-08-24T14:50:42.000Z</time>
      </trkpt>
      <trkpt lat="42.71171118132770061492919921875" lon="-0.0388821400701999664306640625">
        <ele>1890.800048828125</ele>
        <time>2021-08-24T14:50:48.000Z</time>
      </trkpt>
      <trkpt lat="42.71156013943254947662353515625" lon="-0.039206184446811676025390625">
        <ele>1893.199951171875</ele>
        <time>2021-08-24T14:51:17.000Z</time>
      </trkpt>
      <trkpt lat="42.7116103470325469970703125" lon="-0.0397749803960323333740234375">
        <ele>1902.199951171875</ele>
        <time>2021-08-24T14:51:47.000Z</time>
      </trkpt>
      <trkpt lat="42.7115964330732822418212890625" lon="-0.0399315543472766876220703125">
        <ele>1904.4000244140625</ele>
        <time>2021-08-24T14:51:57.000Z</time>
      </trkpt>
      <trkpt lat="42.71133114583790302276611328125" lon="-0.040435977280139923095703125">
        <ele>1906.800048828125</ele>
        <time>2021-08-24T14:52:34.000Z</time>
      </trkpt>
      <trkpt lat="42.71124531514942646026611328125" lon="-0.04103352315723896026611328125">
        <ele>1910.4000244140625</ele>
        <time>2021-08-24T14:53:10.000Z</time>
      </trkpt>
      <trkpt lat="42.71119753830134868621826171875" lon="-0.04109605215489864349365234375">
        <ele>1908.199951171875</ele>
        <time>2021-08-24T14:53:34.000Z</time>
      </trkpt>
      <trkpt lat="42.7111961133778095245361328125" lon="-0.04111030139029026031494140625">
        <ele>1908</ele>
        <time>2021-08-24T14:53:35.000Z</time>
      </trkpt>
      <trkpt lat="42.7112105302512645721435546875" lon="-0.041332505643367767333984375">
        <ele>1907.5999755859375</ele>
        <time>2021-08-24T14:53:48.000Z</time>
      </trkpt>
      <trkpt lat="42.7112282998859882354736328125" lon="-0.0415405444800853729248046875">
        <ele>1908.199951171875</ele>
        <time>2021-08-24T14:54:00.000Z</time>
      </trkpt>
      <trkpt lat="42.71124850027263164520263671875" lon="-0.04161246120929718017578125">
        <ele>1909.4000244140625</ele>
        <time>2021-08-24T14:54:04.000Z</time>
      </trkpt>
      <trkpt lat="42.7112219296395778656005859375" lon="-0.04189266823232173919677734375">
        <ele>1912.199951171875</ele>
        <time>2021-08-24T14:54:23.000Z</time>
      </trkpt>
      <trkpt lat="42.7112132124602794647216796875" lon="-0.04190306179225444793701171875">
        <ele>1912.199951171875</ele>
        <time>2021-08-24T14:54:24.000Z</time>
      </trkpt>
      <trkpt lat="42.71120424382388591766357421875" lon="-0.04191412590444087982177734375">
        <ele>1912.199951171875</ele>
        <time>2021-08-24T14:54:25.000Z</time>
      </trkpt>
      <trkpt lat="42.7111974544823169708251953125" lon="-0.0419284589588642120361328125">
        <ele>1912.4000244140625</ele>
        <time>2021-08-24T14:54:26.000Z</time>
      </trkpt>
      <trkpt lat="42.711175493896007537841796875" lon="-0.041954778134822845458984375">
        <ele>1912.5999755859375</ele>
        <time>2021-08-24T14:54:28.000Z</time>
      </trkpt>
      <trkpt lat="42.711160071194171905517578125" lon="-0.04198486916720867156982421875">
        <ele>1912.800048828125</ele>
        <time>2021-08-24T14:54:30.000Z</time>
      </trkpt>
      <trkpt lat="42.7111528627574443817138671875" lon="-0.042011439800262451171875">
        <ele>1913.199951171875</ele>
        <time>2021-08-24T14:54:32.000Z</time>
      </trkpt>
      <trkpt lat="42.71115479059517383575439453125" lon="-0.04202686250209808349609375">
        <ele>1913.5999755859375</ele>
        <time>2021-08-24T14:54:33.000Z</time>
      </trkpt>
      <trkpt lat="42.71115009672939777374267578125" lon="-0.04204161465167999267578125">
        <ele>1913.5999755859375</ele>
        <time>2021-08-24T14:54:34.000Z</time>
      </trkpt>
      <trkpt lat="42.711144648492336273193359375" lon="-0.042057037353515625">
        <ele>1913.800048828125</ele>
        <time>2021-08-24T14:54:35.000Z</time>
      </trkpt>
      <trkpt lat="42.71114238537847995758056640625" lon="-0.04207304678857326507568359375">
        <ele>1914.199951171875</ele>
        <time>2021-08-24T14:54:36.000Z</time>
      </trkpt>
      <trkpt lat="42.7111394517123699188232421875" lon="-0.04208595491945743560791015625">
        <ele>1914.199951171875</ele>
        <time>2021-08-24T14:54:37.000Z</time>
      </trkpt>
      <trkpt lat="42.71113702096045017242431640625" lon="-0.04209919832646846771240234375">
        <ele>1914.4000244140625</ele>
        <time>2021-08-24T14:54:38.000Z</time>
      </trkpt>
      <trkpt lat="42.71111606620252132415771484375" lon="-0.042207241058349609375">
        <ele>1916.800048828125</ele>
        <time>2021-08-24T14:54:46.000Z</time>
      </trkpt>
      <trkpt lat="42.7111079357564449310302734375" lon="-0.04225493408739566802978515625">
        <ele>1918.199951171875</ele>
        <time>2021-08-24T14:54:49.000Z</time>
      </trkpt>
      <trkpt lat="42.7111002244055271148681640625" lon="-0.04227002151310443878173828125">
        <ele>1918.4000244140625</ele>
        <time>2021-08-24T14:54:50.000Z</time>
      </trkpt>
      <trkpt lat="42.71109829656779766082763671875" lon="-0.04228569567203521728515625">
        <ele>1918.800048828125</ele>
        <time>2021-08-24T14:54:51.000Z</time>
      </trkpt>
      <trkpt lat="42.71109309978783130645751953125" lon="-0.04229910671710968017578125">
        <ele>1919.199951171875</ele>
        <time>2021-08-24T14:54:52.000Z</time>
      </trkpt>
      <trkpt lat="42.711064517498016357421875" lon="-0.04261493682861328125">
        <ele>1924</ele>
        <time>2021-08-24T14:55:11.000Z</time>
      </trkpt>
      <trkpt lat="42.71106879226863384246826171875" lon="-0.04265441559255123138427734375">
        <ele>1924.800048828125</ele>
        <time>2021-08-24T14:55:14.000Z</time>
      </trkpt>
      <trkpt lat="42.71105890162289142608642578125" lon="-0.04270655103027820587158203125">
        <ele>1924.800048828125</ele>
        <time>2021-08-24T14:55:18.000Z</time>
      </trkpt>
      <trkpt lat="42.71105504594743251800537109375" lon="-0.04272029735147953033447265625">
        <ele>1924.800048828125</ele>
        <time>2021-08-24T14:55:19.000Z</time>
      </trkpt>
      <trkpt lat="42.71104515530169010162353515625" lon="-0.04273320548236370086669921875">
        <ele>1924.5999755859375</ele>
        <time>2021-08-24T14:55:20.000Z</time>
      </trkpt>
      <trkpt lat="42.71098874509334564208984375" lon="-0.04306345246732234954833984375">
        <ele>1924.800048828125</ele>
        <time>2021-08-24T14:55:42.000Z</time>
      </trkpt>
      <trkpt lat="42.71096862852573394775390625" lon="-0.04318767227232456207275390625">
        <ele>1924.5999755859375</ele>
        <time>2021-08-24T14:55:51.000Z</time>
      </trkpt>
      <trkpt lat="42.7109664492309093475341796875" lon="-0.04325791262090206146240234375">
        <ele>1925.199951171875</ele>
        <time>2021-08-24T14:55:57.000Z</time>
      </trkpt>
      <trkpt lat="42.7109614200890064239501953125" lon="-0.04326914437115192413330078125">
        <ele>1925.199951171875</ele>
        <time>2021-08-24T14:55:58.000Z</time>
      </trkpt>
      <trkpt lat="42.71095932461321353912353515625" lon="-0.04328071139752864837646484375">
        <ele>1925.199951171875</ele>
        <time>2021-08-24T14:55:59.000Z</time>
      </trkpt>
      <trkpt lat="42.71090450696647167205810546875" lon="-0.04385671578347682952880859375">
        <ele>1932.5999755859375</ele>
        <time>2021-08-24T14:56:44.000Z</time>
      </trkpt>
      <trkpt lat="42.71092839539051055908203125" lon="-0.0439930893480777740478515625">
        <ele>1936.800048828125</ele>
        <time>2021-08-24T14:56:54.000Z</time>
      </trkpt>
      <trkpt lat="42.71085136570036411285400390625" lon="-0.04439667798578739166259765625">
        <ele>1940.4000244140625</ele>
        <time>2021-08-24T14:57:24.000Z</time>
      </trkpt>
      <trkpt lat="42.71084147505462169647216796875" lon="-0.04443640820682048797607421875">
        <ele>1941.199951171875</ele>
        <time>2021-08-24T14:57:28.000Z</time>
      </trkpt>
      <trkpt lat="42.71078380756080150604248046875" lon="-0.04454654641449451446533203125">
        <ele>1943.199951171875</ele>
        <time>2021-08-24T14:57:39.000Z</time>
      </trkpt>
      <trkpt lat="42.71074189804494380950927734375" lon="-0.04456289112567901611328125">
        <ele>1943</ele>
        <time>2021-08-24T14:57:43.000Z</time>
      </trkpt>
      <trkpt lat="42.7106405608355998992919921875" lon="-0.04474855028092861175537109375">
        <ele>1947.800048828125</ele>
        <time>2021-08-24T14:58:04.000Z</time>
      </trkpt>
      <trkpt lat="42.710530757904052734375" lon="-0.04485122859477996826171875">
        <ele>1950</ele>
        <time>2021-08-24T14:58:23.000Z</time>
      </trkpt>
      <trkpt lat="42.7105185203254222869873046875" lon="-0.0448654778301715850830078125">
        <ele>1950.4000244140625</ele>
        <time>2021-08-24T14:58:25.000Z</time>
      </trkpt>
      <trkpt lat="42.710512988269329071044921875" lon="-0.0448755361139774322509765625">
        <ele>1950.5999755859375</ele>
        <time>2021-08-24T14:58:26.000Z</time>
      </trkpt>
      <trkpt lat="42.71050737239420413970947265625" lon="-0.04488618113100528717041015625">
        <ele>1950.5999755859375</ele>
        <time>2021-08-24T14:58:27.000Z</time>
      </trkpt>
      <trkpt lat="42.7104933746159076690673828125" lon="-0.04492322914302349090576171875">
        <ele>1951.199951171875</ele>
        <time>2021-08-24T14:58:31.000Z</time>
      </trkpt>
      <trkpt lat="42.71049362607300281524658203125" lon="-0.04495675675570964813232421875">
        <ele>1951.800048828125</ele>
        <time>2021-08-24T14:58:35.000Z</time>
      </trkpt>
      <trkpt lat="42.71047032438218593597412109375" lon="-0.04500235430896282196044921875">
        <ele>1952.199951171875</ele>
        <time>2021-08-24T14:58:42.000Z</time>
      </trkpt>
      <trkpt lat="42.7104652114212512969970703125" lon="-0.04502733238041400909423828125">
        <ele>1952.5999755859375</ele>
        <time>2021-08-24T14:58:48.000Z</time>
      </trkpt>
      <trkpt lat="42.710471414029598236083984375" lon="-0.045023895800113677978515625">
        <ele>1952.800048828125</ele>
        <time>2021-08-24T14:58:53.000Z</time>
      </trkpt>
      <trkpt lat="42.7103921212255954742431640625" lon="-0.04500922746956348419189453125">
        <ele>1951.199951171875</ele>
        <time>2021-08-24T14:59:03.000Z</time>
      </trkpt>
      <trkpt lat="42.71036806516349315643310546875" lon="-0.04500688053667545318603515625">
        <ele>1950.800048828125</ele>
        <time>2021-08-24T14:59:14.000Z</time>
      </trkpt>
      <trkpt lat="42.71044149063527584075927734375" lon="-0.044964216649532318115234375">
        <ele>1951.199951171875</ele>
        <time>2021-08-24T14:59:39.000Z</time>
      </trkpt>
      <trkpt lat="42.710459344089031219482421875" lon="-0.04494636319577693939208984375">
        <ele>1951</ele>
        <time>2021-08-24T14:59:47.000Z</time>
      </trkpt>
      <trkpt lat="42.71045238710939884185791015625" lon="-0.04500671289861202239990234375">
        <ele>1952</ele>
        <time>2021-08-24T15:01:15.000Z</time>
      </trkpt>
      <trkpt lat="42.7104127407073974609375" lon="-0.04504309035837650299072265625">
        <ele>1952.199951171875</ele>
        <time>2021-08-24T15:01:23.000Z</time>
      </trkpt>
      <trkpt lat="42.71041751839220523834228515625" lon="-0.04506320692598819732666015625">
        <ele>1952.5999755859375</ele>
        <time>2021-08-24T15:01:25.000Z</time>
      </trkpt>
      <trkpt lat="42.7104202844202518463134765625" lon="-0.04508533515036106109619140625">
        <ele>1953.199951171875</ele>
        <time>2021-08-24T15:01:28.000Z</time>
      </trkpt>
      <trkpt lat="42.7104266546666622161865234375" lon="-0.04513428546488285064697265625">
        <ele>1955</ele>
        <time>2021-08-24T15:01:34.000Z</time>
      </trkpt>
      <trkpt lat="42.71042682230472564697265625" lon="-0.04514803178608417510986328125">
        <ele>1955.4000244140625</ele>
        <time>2021-08-24T15:01:39.000Z</time>
      </trkpt>
      <trkpt lat="42.710428498685359954833984375" lon="-0.04506446421146392822265625">
        <ele>1952.800048828125</ele>
        <time>2021-08-25T06:39:01.000Z</time>
      </trkpt>
      <trkpt lat="42.7104256488382816314697265625" lon="-0.045065470039844512939453125">
        <ele>1952.800048828125</ele>
        <time>2021-08-25T06:39:02.000Z</time>
      </trkpt>
      <trkpt lat="42.71047552116215229034423828125" lon="-0.04508231766521930694580078125">
        <ele>1954.800048828125</ele>
        <time>2021-08-25T06:39:10.000Z</time>
      </trkpt>
      <trkpt lat="42.71047644317150115966796875" lon="-0.04516638815402984619140625">
        <ele>1957.199951171875</ele>
        <time>2021-08-25T06:39:18.000Z</time>
      </trkpt>
      <trkpt lat="42.71047635935246944427490234375" lon="-0.045182146131992340087890625">
        <ele>1957.4000244140625</ele>
        <time>2021-08-25T06:39:19.000Z</time>
      </trkpt>
      <trkpt lat="42.71047283895313739776611328125" lon="-0.045332014560699462890625">
        <ele>1959.5999755859375</ele>
        <time>2021-08-25T06:39:32.000Z</time>
      </trkpt>
      <trkpt lat="42.71047954447567462921142578125" lon="-0.04535657353699207305908203125">
        <ele>1960.4000244140625</ele>
        <time>2021-08-25T06:39:34.000Z</time>
      </trkpt>
      <trkpt lat="42.710488848388195037841796875" lon="-0.045401416718959808349609375">
        <ele>1961.4000244140625</ele>
        <time>2021-08-25T06:39:37.000Z</time>
      </trkpt>
      <trkpt lat="42.7104866690933704376220703125" lon="-0.04550728015601634979248046875">
        <ele>1962.800048828125</ele>
        <time>2021-08-25T06:39:45.000Z</time>
      </trkpt>
      <trkpt lat="42.71049790084362030029296875" lon="-0.04551851190626621246337890625">
        <ele>1963.199951171875</ele>
        <time>2021-08-25T06:39:46.000Z</time>
      </trkpt>
      <trkpt lat="42.71050720475614070892333984375" lon="-0.04556494764983654022216796875">
        <ele>1963.5999755859375</ele>
        <time>2021-08-25T06:39:51.000Z</time>
      </trkpt>
      <trkpt lat="42.710513658821582794189453125" lon="-0.04558556713163852691650390625">
        <ele>1963.800048828125</ele>
        <time>2021-08-25T06:39:52.000Z</time>
      </trkpt>
      <trkpt lat="42.7105004154145717620849609375" lon="-0.0456647761166095733642578125">
        <ele>1963.5999755859375</ele>
        <time>2021-08-25T06:39:59.000Z</time>
      </trkpt>
      <trkpt lat="42.71049295552074909210205078125" lon="-0.04568765871226787567138671875">
        <ele>1963.4000244140625</ele>
        <time>2021-08-25T06:40:00.000Z</time>
      </trkpt>
      <trkpt lat="42.71049295552074909210205078125" lon="-0.04568765871226787567138671875">
        <ele>1963.4000244140625</ele>
        <time>2021-08-25T06:40:01.000Z</time>
      </trkpt>
      <trkpt lat="42.71047887392342090606689453125" lon="-0.0457130558788776397705078125">
        <ele>1963.199951171875</ele>
        <time>2021-08-25T06:40:02.000Z</time>
      </trkpt>
      <trkpt lat="42.71047887392342090606689453125" lon="-0.0457130558788776397705078125">
        <ele>1963.199951171875</ele>
        <time>2021-08-25T06:40:03.000Z</time>
      </trkpt>
      <trkpt lat="42.71042305044829845428466796875" lon="-0.0458005629479885101318359375">
        <ele>1963.800048828125</ele>
        <time>2021-08-25T06:40:10.000Z</time>
      </trkpt>
      <trkpt lat="42.710386253893375396728515625" lon="-0.04588924348354339599609375">
        <ele>1965</ele>
        <time>2021-08-25T06:40:17.000Z</time>
      </trkpt>
      <trkpt lat="42.7103666402399539947509765625" lon="-0.04594347439706325531005859375">
        <ele>1965.800048828125</ele>
        <time>2021-08-25T06:40:21.000Z</time>
      </trkpt>
      <trkpt lat="42.71038264967501163482666015625" lon="-0.04637497477233409881591796875">
        <ele>1976.4000244140625</ele>
        <time>2021-08-25T06:40:49.000Z</time>
      </trkpt>
      <trkpt lat="42.710323221981525421142578125" lon="-0.0465277768671512603759765625">
        <ele>1977.800048828125</ele>
        <time>2021-08-25T06:41:01.000Z</time>
      </trkpt>
      <trkpt lat="42.7102714218199253082275390625" lon="-0.0465582869946956634521484375">
        <ele>1977.5999755859375</ele>
        <time>2021-08-25T06:41:08.000Z</time>
      </trkpt>
      <trkpt lat="42.71015885286033153533935546875" lon="-0.04658267833292484283447265625">
        <ele>1976.800048828125</ele>
        <time>2021-08-25T06:41:20.000Z</time>
      </trkpt>
      <trkpt lat="42.710124067962169647216796875" lon="-0.04658787511289119720458984375">
        <ele>1976.5999755859375</ele>
        <time>2021-08-25T06:41:25.000Z</time>
      </trkpt>
      <trkpt lat="42.71010420285165309906005859375" lon="-0.0465851090848445892333984375">
        <ele>1976.4000244140625</ele>
        <time>2021-08-25T06:41:26.000Z</time>
      </trkpt>
      <trkpt lat="42.7100957371294498443603515625" lon="-0.04658318124711513519287109375">
        <ele>1976.4000244140625</ele>
        <time>2021-08-25T06:41:28.000Z</time>
      </trkpt>
      <trkpt lat="42.7100484631955623626708984375" lon="-0.046601705253124237060546875">
        <ele>1976.199951171875</ele>
        <time>2021-08-25T06:41:35.000Z</time>
      </trkpt>
      <trkpt lat="42.71002851426601409912109375" lon="-0.0466115958988666534423828125">
        <ele>1976.199951171875</ele>
        <time>2021-08-25T06:41:37.000Z</time>
      </trkpt>
      <trkpt lat="42.70999104715883731842041015625" lon="-0.04663565196096897125244140625">
        <ele>1976.4000244140625</ele>
        <time>2021-08-25T06:41:47.000Z</time>
      </trkpt>
      <trkpt lat="42.70997495390474796295166015625" lon="-0.04664386622607707977294921875">
        <ele>1976.4000244140625</ele>
        <time>2021-08-25T06:41:55.000Z</time>
      </trkpt>
      <trkpt lat="42.70996288396418094635009765625" lon="-0.046662054955959320068359375">
        <ele>1976.4000244140625</ele>
        <time>2021-08-25T06:41:57.000Z</time>
      </trkpt>
      <trkpt lat="42.70973355509340763092041015625" lon="-0.0469884462654590606689453125">
        <ele>1978.800048828125</ele>
        <time>2021-08-25T06:42:32.000Z</time>
      </trkpt>
      <trkpt lat="42.709655351936817169189453125" lon="-0.04713370464742183685302734375">
        <ele>1980.5999755859375</ele>
        <time>2021-08-25T06:42:52.000Z</time>
      </trkpt>
      <trkpt lat="42.70946986041963100433349609375" lon="-0.04757367074489593505859375">
        <ele>1988.4000244140625</ele>
        <time>2021-08-25T06:43:29.000Z</time>
      </trkpt>
      <trkpt lat="42.70938889123499393463134765625" lon="-0.04785974510014057159423828125">
        <ele>1991.199951171875</ele>
        <time>2021-08-25T06:43:49.000Z</time>
      </trkpt>
      <trkpt lat="42.70939442329108715057373046875" lon="-0.0484539382159709930419921875">
        <ele>1995.800048828125</ele>
        <time>2021-08-25T06:44:34.000Z</time>
      </trkpt>
      <trkpt lat="42.70929853431880474090576171875" lon="-0.048564411699771881103515625">
        <ele>1996.4000244140625</ele>
        <time>2021-08-25T06:44:43.000Z</time>
      </trkpt>
      <trkpt lat="42.7091740630567073822021484375" lon="-0.04879868589341640472412109375">
        <ele>1999.4000244140625</ele>
        <time>2021-08-25T06:45:01.000Z</time>
      </trkpt>
      <trkpt lat="42.70914799533784389495849609375" lon="-0.04900974221527576446533203125">
        <ele>2003.199951171875</ele>
        <time>2021-08-25T06:45:16.000Z</time>
      </trkpt>
      <trkpt lat="42.70898354239761829376220703125" lon="-0.0495523028075695037841796875">
        <ele>2002.800048828125</ele>
        <time>2021-08-25T06:46:06.000Z</time>
      </trkpt>
      <trkpt lat="42.70897482521831989288330078125" lon="-0.04959379322826862335205078125">
        <ele>2002.800048828125</ele>
        <time>2021-08-25T06:46:09.000Z</time>
      </trkpt>
      <trkpt lat="42.708973400294780731201171875" lon="-0.04961575381457805633544921875">
        <ele>2003.199951171875</ele>
        <time>2021-08-25T06:46:11.000Z</time>
      </trkpt>
      <trkpt lat="42.70896610803902149200439453125" lon="-0.04963687621057033538818359375">
        <ele>2003.4000244140625</ele>
        <time>2021-08-25T06:46:13.000Z</time>
      </trkpt>
      <trkpt lat="42.70895873196423053741455078125" lon="-0.04965716041624546051025390625">
        <ele>2003.4000244140625</ele>
        <time>2021-08-25T06:46:14.000Z</time>
      </trkpt>
      <trkpt lat="42.70895873196423053741455078125" lon="-0.04965716041624546051025390625">
        <ele>2003.4000244140625</ele>
        <time>2021-08-25T06:46:15.000Z</time>
      </trkpt>
      <trkpt lat="42.7089490927755832672119140625" lon="-0.04967610351741313934326171875">
        <ele>2003.4000244140625</ele>
        <time>2021-08-25T06:46:16.000Z</time>
      </trkpt>
      <trkpt lat="42.7089490927755832672119140625" lon="-0.04967610351741313934326171875">
        <ele>2003.4000244140625</ele>
        <time>2021-08-25T06:46:17.000Z</time>
      </trkpt>
      <trkpt lat="42.708923108875751495361328125" lon="-0.0498503632843494415283203125">
        <ele>2006.199951171875</ele>
        <time>2021-08-25T06:46:30.000Z</time>
      </trkpt>
      <trkpt lat="42.7089145593345165252685546875" lon="-0.0499011576175689697265625">
        <ele>2007</ele>
        <time>2021-08-25T06:46:33.000Z</time>
      </trkpt>
      <trkpt lat="42.708906345069408416748046875" lon="-0.04993007518351078033447265625">
        <ele>2007.4000244140625</ele>
        <time>2021-08-25T06:46:35.000Z</time>
      </trkpt>
      <trkpt lat="42.7089021541178226470947265625" lon="-0.0499620102345943450927734375">
        <ele>2008</ele>
        <time>2021-08-25T06:46:37.000Z</time>
      </trkpt>
      <trkpt lat="42.70889586769044399261474609375" lon="-0.050015486776828765869140625">
        <ele>2009.199951171875</ele>
        <time>2021-08-25T06:46:41.000Z</time>
      </trkpt>
      <trkpt lat="42.7088964544236660003662109375" lon="-0.05008681677281856536865234375">
        <ele>2010.5999755859375</ele>
        <time>2021-08-25T06:46:46.000Z</time>
      </trkpt>
      <trkpt lat="42.70886334590613842010498046875" lon="-0.050370879471302032470703125">
        <ele>2014.5999755859375</ele>
        <time>2021-08-25T06:47:09.000Z</time>
      </trkpt>
      <trkpt lat="42.708781622350215911865234375" lon="-0.05045997910201549530029296875">
        <ele>2014.4000244140625</ele>
        <time>2021-08-25T06:47:20.000Z</time>
      </trkpt>
      <trkpt lat="42.7086892537772655487060546875" lon="-0.05048654973506927490234375">
        <ele>2013</ele>
        <time>2021-08-25T06:47:31.000Z</time>
      </trkpt>
      <trkpt lat="42.7084783650934696197509765625" lon="-0.0510020367801189422607421875">
        <ele>2016.199951171875</ele>
        <time>2021-08-25T06:48:12.000Z</time>
      </trkpt>
      <trkpt lat="42.7084760181605815887451171875" lon="-0.05102969706058502197265625">
        <ele>2016</ele>
        <time>2021-08-25T06:48:13.000Z</time>
      </trkpt>
      <trkpt lat="42.7084760181605815887451171875" lon="-0.05102969706058502197265625">
        <ele>2016</ele>
        <time>2021-08-25T06:48:14.000Z</time>
      </trkpt>
      <trkpt lat="42.70847744308412075042724609375" lon="-0.05110370926558971405029296875">
        <ele>2015.4000244140625</ele>
        <time>2021-08-25T06:48:18.000Z</time>
      </trkpt>
      <trkpt lat="42.7084813825786113739013671875" lon="-0.05112114362418651580810546875">
        <ele>2015.4000244140625</ele>
        <time>2021-08-25T06:48:19.000Z</time>
      </trkpt>
      <trkpt lat="42.708492279052734375" lon="-0.0511579401791095733642578125">
        <ele>2015.199951171875</ele>
        <time>2021-08-25T06:48:20.000Z</time>
      </trkpt>
      <trkpt lat="42.70851935259997844696044921875" lon="-0.051222145557403564453125">
        <ele>2015.5999755859375</ele>
        <time>2021-08-25T06:48:25.000Z</time>
      </trkpt>
      <trkpt lat="42.708549611270427703857421875" lon="-0.05138282664120197296142578125">
        <ele>2016.800048828125</ele>
        <time>2021-08-25T06:48:35.000Z</time>
      </trkpt>
      <trkpt lat="42.70853896625339984893798828125" lon="-0.0514702498912811279296875">
        <ele>2016.4000244140625</ele>
        <time>2021-08-25T06:48:40.000Z</time>
      </trkpt>
      <trkpt lat="42.708525471389293670654296875" lon="-0.051670409739017486572265625">
        <ele>2016.4000244140625</ele>
        <time>2021-08-25T06:48:53.000Z</time>
      </trkpt>
      <trkpt lat="42.70843251608312129974365234375" lon="-0.052034854888916015625">
        <ele>2019</ele>
        <time>2021-08-25T06:49:16.000Z</time>
      </trkpt>
      <trkpt lat="42.70835808478295803070068359375" lon="-0.052245743572711944580078125">
        <ele>2019.800048828125</ele>
        <time>2021-08-25T06:49:38.000Z</time>
      </trkpt>
      <trkpt lat="42.708350457251071929931640625" lon="-0.05227281711995601654052734375">
        <ele>2020</ele>
        <time>2021-08-25T06:49:39.000Z</time>
      </trkpt>
      <trkpt lat="42.7083338610827922821044921875" lon="-0.05229712463915348052978515625">
        <ele>2020</ele>
        <time>2021-08-25T06:49:42.000Z</time>
      </trkpt>
      <trkpt lat="42.7080968208611011505126953125" lon="-0.05280724726617336273193359375">
        <ele>2021.199951171875</ele>
        <time>2021-08-25T06:50:20.000Z</time>
      </trkpt>
      <trkpt lat="42.70804636180400848388671875" lon="-0.05299215205013751983642578125">
        <ele>2022.199951171875</ele>
        <time>2021-08-25T06:50:33.000Z</time>
      </trkpt>
      <trkpt lat="42.7080699987709522247314453125" lon="-0.0531625561416149139404296875">
        <ele>2023.5999755859375</ele>
        <time>2021-08-25T06:50:44.000Z</time>
      </trkpt>
      <trkpt lat="42.7081387303769588470458984375" lon="-0.05348081700503826141357421875">
        <ele>2026.199951171875</ele>
        <time>2021-08-25T06:51:01.000Z</time>
      </trkpt>
      <trkpt lat="42.70813529379665851593017578125" lon="-0.05367712117731571197509765625">
        <ele>2026.199951171875</ele>
        <time>2021-08-25T06:51:13.000Z</time>
      </trkpt>
      <trkpt lat="42.7081025205552577972412109375" lon="-0.0537010096013545989990234375">
        <ele>2025.800048828125</ele>
        <time>2021-08-25T06:51:17.000Z</time>
      </trkpt>
      <trkpt lat="42.70793999545276165008544921875" lon="-0.0542528741061687469482421875">
        <ele>2029.4000244140625</ele>
        <time>2021-08-25T06:51:56.000Z</time>
      </trkpt>
      <trkpt lat="42.70779415033757686614990234375" lon="-0.054827034473419189453125">
        <ele>2037.800048828125</ele>
        <time>2021-08-25T06:52:34.000Z</time>
      </trkpt>
      <trkpt lat="42.7077420987188816070556640625" lon="-0.05501369945704936981201171875">
        <ele>2039.4000244140625</ele>
        <time>2021-08-25T06:52:54.000Z</time>
      </trkpt>
      <trkpt lat="42.7077451162040233612060546875" lon="-0.055122412741184234619140625">
        <ele>2040.5999755859375</ele>
        <time>2021-08-25T06:53:38.000Z</time>
      </trkpt>
      <trkpt lat="42.7077370695769786834716796875" lon="-0.055109672248363494873046875">
        <ele>2040.4000244140625</ele>
        <time>2021-08-25T06:53:48.000Z</time>
      </trkpt>
      <trkpt lat="42.70773832686245441436767578125" lon="-0.0551098398864269256591796875">
        <ele>2040.4000244140625</ele>
        <time>2021-08-25T06:53:53.000Z</time>
      </trkpt>
      <trkpt lat="42.70775358192622661590576171875" lon="-0.05509265698492527008056640625">
        <ele>2040.4000244140625</ele>
        <time>2021-08-25T06:53:59.000Z</time>
      </trkpt>
      <trkpt lat="42.7078101597726345062255859375" lon="-0.05512534640729427337646484375">
        <ele>2041.4000244140625</ele>
        <time>2021-08-25T06:54:12.000Z</time>
      </trkpt>
      <trkpt lat="42.70783958025276660919189453125" lon="-0.05517815239727497100830078125">
        <ele>2042.199951171875</ele>
        <time>2021-08-25T06:54:19.000Z</time>
      </trkpt>
      <trkpt lat="42.70792909897863864898681640625" lon="-0.0553609617054462432861328125">
        <ele>2044.800048828125</ele>
        <time>2021-08-25T06:54:43.000Z</time>
      </trkpt>
      <trkpt lat="42.7079489640891551971435546875" lon="-0.055416785180568695068359375">
        <ele>2046</ele>
        <time>2021-08-25T06:54:49.000Z</time>
      </trkpt>
      <trkpt lat="42.70800168626010417938232421875" lon="-0.05553924478590488433837890625">
        <ele>2048.800048828125</ele>
        <time>2021-08-25T06:55:03.000Z</time>
      </trkpt>
      <trkpt lat="42.7080381475389003753662109375" lon="-0.05560831166803836822509765625">
        <ele>2051.39990234375</ele>
        <time>2021-08-25T06:55:11.000Z</time>
      </trkpt>
      <trkpt lat="42.70809439010918140411376953125" lon="-0.05571006797254085540771484375">
        <ele>2055.60009765625</ele>
        <time>2021-08-25T06:55:26.000Z</time>
      </trkpt>
      <trkpt lat="42.70820084027945995330810546875" lon="-0.05584434606134891510009765625">
        <ele>2061</ele>
        <time>2021-08-25T06:55:50.000Z</time>
      </trkpt>
      <trkpt lat="42.7081933803856372833251953125" lon="-0.05599689669907093048095703125">
        <ele>2064</ele>
        <time>2021-08-25T06:56:05.000Z</time>
      </trkpt>
      <trkpt lat="42.70813127048313617706298828125" lon="-0.0562829710543155670166015625">
        <ele>2066.800048828125</ele>
        <time>2021-08-25T06:56:30.000Z</time>
      </trkpt>
      <trkpt lat="42.70810998044908046722412109375" lon="-0.056366622447967529296875">
        <ele>2067.39990234375</ele>
        <time>2021-08-25T06:56:36.000Z</time>
      </trkpt>
      <trkpt lat="42.70810562185943126678466796875" lon="-0.0563791953027248382568359375">
        <ele>2067.60009765625</ele>
        <time>2021-08-25T06:56:37.000Z</time>
      </trkpt>
      <trkpt lat="42.708100341260433197021484375" lon="-0.056393109261989593505859375">
        <ele>2067.60009765625</ele>
        <time>2021-08-25T06:56:38.000Z</time>
      </trkpt>
      <trkpt lat="42.70803437568247318267822265625" lon="-0.056633166968822479248046875">
        <ele>2071.199951171875</ele>
        <time>2021-08-25T06:56:55.000Z</time>
      </trkpt>
      <trkpt lat="42.707912586629390716552734375" lon="-0.05699467845261096954345703125">
        <ele>2079.60009765625</ele>
        <time>2021-08-25T06:57:25.000Z</time>
      </trkpt>
      <trkpt lat="42.7078983373939990997314453125" lon="-0.05701462738215923309326171875">
        <ele>2080</ele>
        <time>2021-08-25T06:57:26.000Z</time>
      </trkpt>
      <trkpt lat="42.7078983373939990997314453125" lon="-0.05701462738215923309326171875">
        <ele>2080</ele>
        <time>2021-08-25T06:57:27.000Z</time>
      </trkpt>
      <trkpt lat="42.70781560800969600677490234375" lon="-0.05724110640585422515869140625">
        <ele>2085.199951171875</ele>
        <time>2021-08-25T06:57:48.000Z</time>
      </trkpt>
      <trkpt lat="42.7075771428644657135009765625" lon="-0.05776078440248966217041015625">
        <ele>2087.199951171875</ele>
        <time>2021-08-25T06:58:35.000Z</time>
      </trkpt>
      <trkpt lat="42.70756423473358154296875" lon="-0.0579010136425495147705078125">
        <ele>2088</ele>
        <time>2021-08-25T06:58:49.000Z</time>
      </trkpt>
      <trkpt lat="42.7076058089733123779296875" lon="-0.0579585134983062744140625">
        <ele>2091.800048828125</ele>
        <time>2021-08-25T06:59:07.000Z</time>
      </trkpt>
      <trkpt lat="42.70761829800903797149658203125" lon="-0.05792808718979358673095703125">
        <ele>2091.800048828125</ele>
        <time>2021-08-25T06:59:10.000Z</time>
      </trkpt>
      <trkpt lat="42.70762366242706775665283203125" lon="-0.0579140894114971160888671875">
        <ele>2091.800048828125</ele>
        <time>2021-08-25T06:59:11.000Z</time>
      </trkpt>
      <trkpt lat="42.70763204433023929595947265625" lon="-0.0579016841948032379150390625">
        <ele>2092.199951171875</ele>
        <time>2021-08-25T06:59:12.000Z</time>
      </trkpt>
      <trkpt lat="42.70763791166245937347412109375" lon="-0.05789154209196567535400390625">
        <ele>2092.39990234375</ele>
        <time>2021-08-25T06:59:13.000Z</time>
      </trkpt>
      <trkpt lat="42.7076562680304050445556640625" lon="-0.05787611939013004302978515625">
        <ele>2093.199951171875</ele>
        <time>2021-08-25T06:59:15.000Z</time>
      </trkpt>
      <trkpt lat="42.707743942737579345703125" lon="-0.05781057290732860565185546875">
        <ele>2097.39990234375</ele>
        <time>2021-08-25T06:59:25.000Z</time>
      </trkpt>
      <trkpt lat="42.707854919135570526123046875" lon="-0.05777168087661266326904296875">
        <ele>2103.199951171875</ele>
        <time>2021-08-25T06:59:37.000Z</time>
      </trkpt>
      <trkpt lat="42.70822498016059398651123046875" lon="-0.05757269449532032012939453125">
        <ele>2108.60009765625</ele>
        <time>2021-08-25T07:00:28.000Z</time>
      </trkpt>
      <trkpt lat="42.70853594876825809478759765625" lon="-0.0572371669113636016845703125">
        <ele>2104.60009765625</ele>
        <time>2021-08-25T07:01:09.000Z</time>
      </trkpt>
      <trkpt lat="42.70862965844571590423583984375" lon="-0.057071037590503692626953125">
        <ele>2102.800048828125</ele>
        <time>2021-08-25T07:01:26.000Z</time>
      </trkpt>
      <trkpt lat="42.708639800548553466796875" lon="-0.05704513750970363616943359375">
        <ele>2102.60009765625</ele>
        <time>2021-08-25T07:01:28.000Z</time>
      </trkpt>
      <trkpt lat="42.7086532115936279296875" lon="-0.057028792798519134521484375">
        <ele>2102.800048828125</ele>
        <time>2021-08-25T07:01:31.000Z</time>
      </trkpt>
      <trkpt lat="42.70868715830147266387939453125" lon="-0.0570329837501049041748046875">
        <ele>2103.800048828125</ele>
        <time>2021-08-25T07:01:39.000Z</time>
      </trkpt>
      <trkpt lat="42.7086798660457134246826171875" lon="-0.05706106312572956085205078125">
        <ele>2104</ele>
        <time>2021-08-25T07:01:42.000Z</time>
      </trkpt>
      <trkpt lat="42.70866838283836841583251953125" lon="-0.057075731456279754638671875">
        <ele>2103.800048828125</ele>
        <time>2021-08-25T07:01:45.000Z</time>
      </trkpt>
      <trkpt lat="42.7086688019335269927978515625" lon="-0.0570856221020221710205078125">
        <ele>2103.800048828125</ele>
        <time>2021-08-25T07:01:51.000Z</time>
      </trkpt>
      <trkpt lat="42.708666957914829254150390625" lon="-0.05710045807063579559326171875">
        <ele>2104</ele>
        <time>2021-08-25T07:01:54.000Z</time>
      </trkpt>
      <trkpt lat="42.708656229078769683837890625" lon="-0.05717203952372074127197265625">
        <ele>2105.60009765625</ele>
        <time>2021-08-25T07:02:05.000Z</time>
      </trkpt>
      <trkpt lat="42.7086652815341949462890625" lon="-0.05724948830902576446533203125">
        <ele>2107.800048828125</ele>
        <time>2021-08-25T07:02:23.000Z</time>
      </trkpt>
      <trkpt lat="42.7086704783141613006591796875" lon="-0.05722484551370143890380859375">
        <ele>2107.199951171875</ele>
        <time>2021-08-25T07:02:31.000Z</time>
      </trkpt>
      <trkpt lat="42.7086724899709224700927734375" lon="-0.05721629597246646881103515625">
        <ele>2107</ele>
        <time>2021-08-25T07:02:32.000Z</time>
      </trkpt>
      <trkpt lat="42.7086741663515567779541015625" lon="-0.0572076626121997833251953125">
        <ele>2106.800048828125</ele>
        <time>2021-08-25T07:02:33.000Z</time>
      </trkpt>
      <trkpt lat="42.70867525599896907806396484375" lon="-0.05718746222555637359619140625">
        <ele>2106.39990234375</ele>
        <time>2021-08-25T07:02:34.000Z</time>
      </trkpt>
      <trkpt lat="42.70867936313152313232421875" lon="-0.057177655398845672607421875">
        <ele>2106.199951171875</ele>
        <time>2021-08-25T07:02:38.000Z</time>
      </trkpt>
      <trkpt lat="42.70865254104137420654296875" lon="-0.05726340226829051971435546875">
        <ele>2107.800048828125</ele>
        <time>2021-08-25T07:02:48.000Z</time>
      </trkpt>
      <trkpt lat="42.7086317539215087890625" lon="-0.0572837702929973602294921875">
        <ele>2107.800048828125</ele>
        <time>2021-08-25T07:02:52.000Z</time>
      </trkpt>
      <trkpt lat="42.70860535092651844024658203125" lon="-0.05732215940952301025390625">
        <ele>2108.199951171875</ele>
        <time>2021-08-25T07:02:56.000Z</time>
      </trkpt>
      <trkpt lat="42.70859177224338054656982421875" lon="-0.0573642365634441375732421875">
        <ele>2109</ele>
        <time>2021-08-25T07:03:00.000Z</time>
      </trkpt>
      <trkpt lat="42.70858682692050933837890625" lon="-0.0573746301233768463134765625">
        <ele>2109.199951171875</ele>
        <time>2021-08-25T07:03:01.000Z</time>
      </trkpt>
      <trkpt lat="42.708581797778606414794921875" lon="-0.0573833473026752471923828125">
        <ele>2109.39990234375</ele>
        <time>2021-08-25T07:03:02.000Z</time>
      </trkpt>
      <trkpt lat="42.70857249386608600616455078125" lon="-0.0574027933180332183837890625">
        <ele>2110</ele>
        <time>2021-08-25T07:03:03.000Z</time>
      </trkpt>
      <trkpt lat="42.70856671035289764404296875" lon="-0.05741201341152191162109375">
        <ele>2110.199951171875</ele>
        <time>2021-08-25T07:03:05.000Z</time>
      </trkpt>
      <trkpt lat="42.70854818634688854217529296875" lon="-0.0574410147964954376220703125">
        <ele>2111</ele>
        <time>2021-08-25T07:03:08.000Z</time>
      </trkpt>
      <trkpt lat="42.7085336856544017791748046875" lon="-0.057477056980133056640625">
        <ele>2112</ele>
        <time>2021-08-25T07:03:11.000Z</time>
      </trkpt>
      <trkpt lat="42.708531506359577178955078125" lon="-0.05748954601585865020751953125">
        <ele>2112.39990234375</ele>
        <time>2021-08-25T07:03:12.000Z</time>
      </trkpt>
      <trkpt lat="42.70852781832218170166015625" lon="-0.057500861585140228271484375">
        <ele>2112.800048828125</ele>
        <time>2021-08-25T07:03:13.000Z</time>
      </trkpt>
      <trkpt lat="42.7085259743034839630126953125" lon="-0.0575856864452362060546875">
        <ele>2116.39990234375</ele>
        <time>2021-08-25T07:03:22.000Z</time>
      </trkpt>
      <trkpt lat="42.7084828913211822509765625" lon="-0.057655088603496551513671875">
        <ele>2118.39990234375</ele>
        <time>2021-08-25T07:03:30.000Z</time>
      </trkpt>
      <trkpt lat="42.708447016775608062744140625" lon="-0.0577122531831264495849609375">
        <ele>2120</ele>
        <time>2021-08-25T07:03:36.000Z</time>
      </trkpt>
      <trkpt lat="42.7084052748978137969970703125" lon="-0.05774536170065402984619140625">
        <ele>2120.60009765625</ele>
        <time>2021-08-25T07:03:42.000Z</time>
      </trkpt>
      <trkpt lat="42.70836126990616321563720703125" lon="-0.05779146216809749603271484375">
        <ele>2121.199951171875</ele>
        <time>2021-08-25T07:03:47.000Z</time>
      </trkpt>
      <trkpt lat="42.70829874090850353240966796875" lon="-0.057918615639209747314453125">
        <ele>2124.60009765625</ele>
        <time>2021-08-25T07:04:04.000Z</time>
      </trkpt>
      <trkpt lat="42.708162367343902587890625" lon="-0.058117099106311798095703125">
        <ele>2125.199951171875</ele>
        <time>2021-08-25T07:04:28.000Z</time>
      </trkpt>
      <trkpt lat="42.7081095613539218902587890625" lon="-0.05837894976139068603515625">
        <ele>2133</ele>
        <time>2021-08-25T07:04:54.000Z</time>
      </trkpt>
      <trkpt lat="42.7080914564430713653564453125" lon="-0.058442316949367523193359375">
        <ele>2134.39990234375</ele>
        <time>2021-08-25T07:05:02.000Z</time>
      </trkpt>
      <trkpt lat="42.708030603826045989990234375" lon="-0.0584988109767436981201171875">
        <ele>2132.39990234375</ele>
        <time>2021-08-25T07:05:10.000Z</time>
      </trkpt>
      <trkpt lat="42.70800654776394367218017578125" lon="-0.058520101010799407958984375">
        <ele>2131.39990234375</ele>
        <time>2021-08-25T07:05:13.000Z</time>
      </trkpt>
      <trkpt lat="42.70799229852855205535888671875" lon="-0.05854256451129913330078125">
        <ele>2131.199951171875</ele>
        <time>2021-08-25T07:05:15.000Z</time>
      </trkpt>
      <trkpt lat="42.7078892849385738372802734375" lon="-0.05869167856872081756591796875">
        <ele>2129.199951171875</ele>
        <time>2021-08-25T07:05:32.000Z</time>
      </trkpt>
      <trkpt lat="42.70785994827747344970703125" lon="-0.0587596558034420013427734375">
        <ele>2129.60009765625</ele>
        <time>2021-08-25T07:05:41.000Z</time>
      </trkpt>
      <trkpt lat="42.707805298268795013427734375" lon="-0.05880542099475860595703125">
        <ele>2128.60009765625</ele>
        <time>2021-08-25T07:05:48.000Z</time>
      </trkpt>
      <trkpt lat="42.70748787559568881988525390625" lon="-0.05924790166318416595458984375">
        <ele>2137.199951171875</ele>
        <time>2021-08-25T07:06:31.000Z</time>
      </trkpt>
      <trkpt lat="42.70723499357700347900390625" lon="-0.05972835235297679901123046875">
        <ele>2154</ele>
        <time>2021-08-25T07:07:36.000Z</time>
      </trkpt>
      <trkpt lat="42.7071925811469554901123046875" lon="-0.05979004316031932830810546875">
        <ele>2156.800048828125</ele>
        <time>2021-08-25T07:07:45.000Z</time>
      </trkpt>
      <trkpt lat="42.70704346708953380584716796875" lon="-0.059971846640110015869140625">
        <ele>2162.199951171875</ele>
        <time>2021-08-25T07:08:12.000Z</time>
      </trkpt>
      <trkpt lat="42.70686359144747257232666015625" lon="-0.060158260166645050048828125">
        <ele>2163.60009765625</ele>
        <time>2021-08-25T07:08:48.000Z</time>
      </trkpt>
      <trkpt lat="42.7068817801773548126220703125" lon="-0.06017468869686126708984375">
        <ele>2165.60009765625</ele>
        <time>2021-08-25T07:08:56.000Z</time>
      </trkpt>
      <trkpt lat="42.70687834359705448150634765625" lon="-0.0601617805659770965576171875">
        <ele>2164.800048828125</ele>
        <time>2021-08-25T07:09:06.000Z</time>
      </trkpt>
      <trkpt lat="42.7068950235843658447265625" lon="-0.0601456873118877410888671875">
        <ele>2165</ele>
        <time>2021-08-25T07:09:30.000Z</time>
      </trkpt>
      <trkpt lat="42.70687147043645381927490234375" lon="-0.06016186438500881195068359375">
        <ele>2164.39990234375</ele>
        <time>2021-08-25T07:09:39.000Z</time>
      </trkpt>
      <trkpt lat="42.7068723924458026885986328125" lon="-0.06016002036631107330322265625">
        <ele>2164.39990234375</ele>
        <time>2021-08-25T07:09:43.000Z</time>
      </trkpt>
      <trkpt lat="42.70687381736934185028076171875" lon="-0.0601597689092159271240234375">
        <ele>2164.39990234375</ele>
        <time>2021-08-25T07:09:48.000Z</time>
      </trkpt>
      <trkpt lat="42.70687683485448360443115234375" lon="-0.06015817634761333465576171875">
        <ele>2164.60009765625</ele>
        <time>2021-08-25T07:09:53.000Z</time>
      </trkpt>
      <trkpt lat="42.70688052289187908172607421875" lon="-0.06015599705278873443603515625">
        <ele>2164.800048828125</ele>
        <time>2021-08-25T07:09:59.000Z</time>
      </trkpt>
      <trkpt lat="42.7068807743489742279052734375" lon="-0.06015365011990070343017578125">
        <ele>2164.60009765625</ele>
        <time>2021-08-25T07:10:06.000Z</time>
      </trkpt>
      <trkpt lat="42.70687147043645381927490234375" lon="-0.06015817634761333465576171875">
        <ele>2164.199951171875</ele>
        <time>2021-08-25T07:10:19.000Z</time>
      </trkpt>
      <trkpt lat="42.706785388290882110595703125" lon="-0.06037987768650054931640625">
        <ele>2168.60009765625</ele>
        <time>2021-08-25T07:10:44.000Z</time>
      </trkpt>
      <trkpt lat="42.70677356980741024017333984375" lon="-0.0604283250868320465087890625">
        <ele>2169.39990234375</ele>
        <time>2021-08-25T07:10:48.000Z</time>
      </trkpt>
      <trkpt lat="42.7067708037793636322021484375" lon="-0.06043779663741588592529296875">
        <ele>2169.60009765625</ele>
        <time>2021-08-25T07:10:49.000Z</time>
      </trkpt>
      <trkpt lat="42.7067617513239383697509765625" lon="-0.0604759342968463897705078125">
        <ele>2171.60009765625</ele>
        <time>2021-08-25T07:10:53.000Z</time>
      </trkpt>
      <trkpt lat="42.70675093866884708404541015625" lon="-0.06050049327313899993896484375">
        <ele>2172.60009765625</ele>
        <time>2021-08-25T07:10:55.000Z</time>
      </trkpt>
      <trkpt lat="42.70670953206717967987060546875" lon="-0.060594119131565093994140625">
        <ele>2176.800048828125</ele>
        <time>2021-08-25T07:11:05.000Z</time>
      </trkpt>
      <trkpt lat="42.70666125230491161346435546875" lon="-0.0606834702193737030029296875">
        <ele>2180.800048828125</ele>
        <time>2021-08-25T07:11:17.000Z</time>
      </trkpt>
      <trkpt lat="42.70663149654865264892578125" lon="-0.06079821847379207611083984375">
        <ele>2185.39990234375</ele>
        <time>2021-08-25T07:11:28.000Z</time>
      </trkpt>
      <trkpt lat="42.70663015544414520263671875" lon="-0.06082302890717983245849609375">
        <ele>2186.39990234375</ele>
        <time>2021-08-25T07:11:31.000Z</time>
      </trkpt>
      <trkpt lat="42.70662973634898662567138671875" lon="-0.06082805804908275604248046875">
        <ele>2186.39990234375</ele>
        <time>2021-08-25T07:11:32.000Z</time>
      </trkpt>
      <trkpt lat="42.70663308911025524139404296875" lon="-0.06083945743739604949951171875">
        <ele>2187</ele>
        <time>2021-08-25T07:11:33.000Z</time>
      </trkpt>
      <trkpt lat="42.70663795061409473419189453125" lon="-0.06085999310016632080078125">
        <ele>2187.800048828125</ele>
        <time>2021-08-25T07:11:35.000Z</time>
      </trkpt>
      <trkpt lat="42.706638872623443603515625" lon="-0.0608698837459087371826171875">
        <ele>2188.199951171875</ele>
        <time>2021-08-25T07:11:36.000Z</time>
      </trkpt>
      <trkpt lat="42.70664080046117305755615234375" lon="-0.0608799420297145843505859375">
        <ele>2188.60009765625</ele>
        <time>2021-08-25T07:11:37.000Z</time>
      </trkpt>
      <trkpt lat="42.7065689675509929656982421875" lon="-0.06093953736126422882080078125">
        <ele>2188.800048828125</ele>
        <time>2021-08-25T07:11:48.000Z</time>
      </trkpt>
      <trkpt lat="42.7063989825546741485595703125" lon="-0.0610391981899738311767578125">
        <ele>2186.39990234375</ele>
        <time>2021-08-25T07:12:11.000Z</time>
      </trkpt>
      <trkpt lat="42.70630032755434513092041015625" lon="-0.0613966025412082672119140625">
        <ele>2191.39990234375</ele>
        <time>2021-08-25T07:12:46.000Z</time>
      </trkpt>
      <trkpt lat="42.70619303919374942779541015625" lon="-0.0615541823208332061767578125">
        <ele>2193.39990234375</ele>
        <time>2021-08-25T07:13:05.000Z</time>
      </trkpt>
      <trkpt lat="42.7061022631824016571044921875" lon="-0.0617104209959506988525390625">
        <ele>2198</ele>
        <time>2021-08-25T07:13:25.000Z</time>
      </trkpt>
      <trkpt lat="42.70605079829692840576171875" lon="-0.06176062859594821929931640625">
        <ele>2199.199951171875</ele>
        <time>2021-08-25T07:13:33.000Z</time>
      </trkpt>
      <trkpt lat="42.7056942321360111236572265625" lon="-0.06211250089108943939208984375">
        <ele>2207.39990234375</ele>
        <time>2021-08-25T07:14:34.000Z</time>
      </trkpt>
      <trkpt lat="42.70554251968860626220703125" lon="-0.06222733296453952789306640625">
        <ele>2207.60009765625</ele>
        <time>2021-08-25T07:14:55.000Z</time>
      </trkpt>
      <trkpt lat="42.7052791602909564971923828125" lon="-0.0624592602252960205078125">
        <ele>2211.39990234375</ele>
        <time>2021-08-25T07:15:40.000Z</time>
      </trkpt>
      <trkpt lat="42.70509316585958003997802734375" lon="-0.062621533870697021484375">
        <ele>2217.60009765625</ele>
        <time>2021-08-25T07:16:10.000Z</time>
      </trkpt>
      <trkpt lat="42.70480952225625514984130859375" lon="-0.062816999852657318115234375">
        <ele>2234</ele>
        <time>2021-08-25T07:17:19.000Z</time>
      </trkpt>
      <trkpt lat="42.70480583421885967254638671875" lon="-0.06279520690441131591796875">
        <ele>2232.800048828125</ele>
        <time>2021-08-25T07:17:36.000Z</time>
      </trkpt>
      <trkpt lat="42.7048297226428985595703125" lon="-0.0627437420189380645751953125">
        <ele>2229.39990234375</ele>
        <time>2021-08-25T07:17:45.000Z</time>
      </trkpt>
      <trkpt lat="42.70483768545091152191162109375" lon="-0.06274826824665069580078125">
        <ele>2229.39990234375</ele>
        <time>2021-08-25T07:17:50.000Z</time>
      </trkpt>
      <trkpt lat="42.7048319019377231597900390625" lon="-0.0627638585865497589111328125">
        <ele>2230.39990234375</ele>
        <time>2021-08-25T07:18:04.000Z</time>
      </trkpt>
      <trkpt lat="42.7048324048519134521484375" lon="-0.0627601705491542816162109375">
        <ele>2230.199951171875</ele>
        <time>2021-08-25T07:18:11.000Z</time>
      </trkpt>
      <trkpt lat="42.704828046262264251708984375" lon="-0.0627524591982364654541015625">
        <ele>2230</ele>
        <time>2021-08-25T07:18:18.000Z</time>
      </trkpt>
      <trkpt lat="42.7048235200345516204833984375" lon="-0.0627397187054157257080078125">
        <ele>2229.39990234375</ele>
        <time>2021-08-25T07:18:23.000Z</time>
      </trkpt>
      <trkpt lat="42.70482293330132961273193359375" lon="-0.06273728795349597930908203125">
        <ele>2229.199951171875</ele>
        <time>2021-08-25T07:18:24.000Z</time>
      </trkpt>
      <trkpt lat="42.70482259802520275115966796875" lon="-0.06273393519222736358642578125">
        <ele>2229</ele>
        <time>2021-08-25T07:18:30.000Z</time>
      </trkpt>
      <trkpt lat="42.70483064465224742889404296875" lon="-0.06273259408771991729736328125">
        <ele>2228.800048828125</ele>
        <time>2021-08-25T07:18:32.000Z</time>
      </trkpt>
      <trkpt lat="42.70483450032770633697509765625" lon="-0.06273779086768627166748046875">
        <ele>2229</ele>
        <time>2021-08-25T07:18:39.000Z</time>
      </trkpt>
      <trkpt lat="42.70478001795709133148193359375" lon="-0.06274701096117496490478515625">
        <ele>2230.800048828125</ele>
        <time>2021-08-25T07:19:01.000Z</time>
      </trkpt>
      <trkpt lat="42.7047712169587612152099609375" lon="-0.06275354884564876556396484375">
        <ele>2231.39990234375</ele>
        <time>2021-08-25T07:19:02.000Z</time>
      </trkpt>
      <trkpt lat="42.70472117699682712554931640625" lon="-0.0627677142620086669921875">
        <ele>2232.39990234375</ele>
        <time>2021-08-25T07:19:08.000Z</time>
      </trkpt>
      <trkpt lat="42.7047162316739559173583984375" lon="-0.06277668289840221405029296875">
        <ele>2233</ele>
        <time>2021-08-25T07:19:10.000Z</time>
      </trkpt>
      <trkpt lat="42.7047132141888141632080078125" lon="-0.06277978420257568359375">
        <ele>2233.199951171875</ele>
        <time>2021-08-25T07:19:11.000Z</time>
      </trkpt>
      <trkpt lat="42.70470508374273777008056640625" lon="-0.06279545836150646209716796875">
        <ele>2234</ele>
        <time>2021-08-25T07:19:13.000Z</time>
      </trkpt>
      <trkpt lat="42.70466216839849948883056640625" lon="-0.062841475009918212890625">
        <ele>2236.800048828125</ele>
        <time>2021-08-25T07:19:20.000Z</time>
      </trkpt>
      <trkpt lat="42.7046203427016735076904296875" lon="-0.0628460012376308441162109375">
        <ele>2237.39990234375</ele>
        <time>2021-08-25T07:19:26.000Z</time>
      </trkpt>
      <trkpt lat="42.7045777626335620880126953125" lon="-0.06285681389272212982177734375">
        <ele>2238.199951171875</ele>
        <time>2021-08-25T07:19:30.000Z</time>
      </trkpt>
      <trkpt lat="42.70453535020351409912109375" lon="-0.06286486051976680755615234375">
        <ele>2239.39990234375</ele>
        <time>2021-08-25T07:19:34.000Z</time>
      </trkpt>
      <trkpt lat="42.70450307987630367279052734375" lon="-0.062879361212253570556640625">
        <ele>2240.60009765625</ele>
        <time>2021-08-25T07:19:38.000Z</time>
      </trkpt>
      <trkpt lat="42.70447625778615474700927734375" lon="-0.06289402954280376434326171875">
        <ele>2241.60009765625</ele>
        <time>2021-08-25T07:19:42.000Z</time>
      </trkpt>
      <trkpt lat="42.70433711819350719451904296875" lon="-0.06321488879621028900146484375">
        <ele>2254.60009765625</ele>
        <time>2021-08-25T07:21:03.000Z</time>
      </trkpt>
      <trkpt lat="42.704281546175479888916015625" lon="-0.06346441805362701416015625">
        <ele>2263.60009765625</ele>
        <time>2021-08-25T07:22:06.000Z</time>
      </trkpt>
      <trkpt lat="42.7040493674576282501220703125" lon="-0.063784606754779815673828125">
        <ele>2269</ele>
        <time>2021-08-25T07:23:02.000Z</time>
      </trkpt>
      <trkpt lat="42.70394417457282543182373046875" lon="-0.064231865108013153076171875">
        <ele>2271</ele>
        <time>2021-08-25T07:23:54.000Z</time>
      </trkpt>
      <trkpt lat="42.7039645425975322723388671875" lon="-0.06421904079616069793701171875">
        <ele>2271.199951171875</ele>
        <time>2021-08-25T07:24:23.000Z</time>
      </trkpt>
      <trkpt lat="42.7039585076272487640380859375" lon="-0.064227841794490814208984375">
        <ele>2271</ele>
        <time>2021-08-25T07:24:59.000Z</time>
      </trkpt>
      <trkpt lat="42.703958339989185333251953125" lon="-0.064227171242237091064453125">
        <ele>2271</ele>
        <time>2021-08-25T07:25:04.000Z</time>
      </trkpt>
      <trkpt lat="42.703958339989185333251953125" lon="-0.0642270036041736602783203125">
        <ele>2271</ele>
        <time>2021-08-25T07:25:05.000Z</time>
      </trkpt>
      <trkpt lat="42.70395825617015361785888671875" lon="-0.064227171242237091064453125">
        <ele>2271</ele>
        <time>2021-08-25T07:25:08.000Z</time>
      </trkpt>
      <trkpt lat="42.7039595134556293487548828125" lon="-0.0642268359661102294921875">
        <ele>2271.199951171875</ele>
        <time>2021-08-25T07:25:10.000Z</time>
      </trkpt>
      <trkpt lat="42.703968398272991180419921875" lon="-0.064214430749416351318359375">
        <ele>2271.199951171875</ele>
        <time>2021-08-25T07:25:19.000Z</time>
      </trkpt>
      <trkpt lat="42.70396982319653034210205078125" lon="-0.0642152689397335052490234375">
        <ele>2271.199951171875</ele>
        <time>2021-08-25T07:25:22.000Z</time>
      </trkpt>
      <trkpt lat="42.70397820509970188140869140625" lon="-0.06421401165425777435302734375">
        <ele>2271.199951171875</ele>
        <time>2021-08-25T07:25:27.000Z</time>
      </trkpt>
      <trkpt lat="42.70397971384227275848388671875" lon="-0.06421384401619434356689453125">
        <ele>2271.199951171875</ele>
        <time>2021-08-25T07:25:29.000Z</time>
      </trkpt>
      <trkpt lat="42.70397971384227275848388671875" lon="-0.06421367637813091278076171875">
        <ele>2271.199951171875</ele>
        <time>2021-08-25T07:25:30.000Z</time>
      </trkpt>
      <trkpt lat="42.70397786982357501983642578125" lon="-0.064213760197162628173828125">
        <ele>2271.199951171875</ele>
        <time>2021-08-25T07:25:31.000Z</time>
      </trkpt>
      <trkpt lat="42.70397686399519443511962890625" lon="-0.0642119161784648895263671875">
        <ele>2271.199951171875</ele>
        <time>2021-08-25T07:25:34.000Z</time>
      </trkpt>
      <trkpt lat="42.70397753454744815826416015625" lon="-0.06421049125492572784423828125">
        <ele>2271.199951171875</ele>
        <time>2021-08-25T07:25:35.000Z</time>
      </trkpt>
      <trkpt lat="42.70397610962390899658203125" lon="-0.0642048753798007965087890625">
        <ele>2271.199951171875</ele>
        <time>2021-08-25T07:25:39.000Z</time>
      </trkpt>
      <trkpt lat="42.7039437554776668548583984375" lon="-0.06421837024390697479248046875">
        <ele>2271</ele>
        <time>2021-08-25T07:25:49.000Z</time>
      </trkpt>
      <trkpt lat="42.70393051207065582275390625" lon="-0.06430470384657382965087890625">
        <ele>2271.199951171875</ele>
        <time>2021-08-25T07:25:57.000Z</time>
      </trkpt>
      <trkpt lat="42.70386270247399806976318359375" lon="-0.06487349979579448699951171875">
        <ele>2263.60009765625</ele>
        <time>2021-08-25T07:27:11.000Z</time>
      </trkpt>
      <trkpt lat="42.7038378082215785980224609375" lon="-0.06486712954938411712646484375">
        <ele>2263</ele>
        <time>2021-08-25T07:27:17.000Z</time>
      </trkpt>
      <trkpt lat="42.7038158476352691650390625" lon="-0.06487123668193817138671875">
        <ele>2262.39990234375</ele>
        <time>2021-08-25T07:27:29.000Z</time>
      </trkpt>
      <trkpt lat="42.7037684060633182525634765625" lon="-0.06488657556474208831787109375">
        <ele>2260.800048828125</ele>
        <time>2021-08-25T07:27:36.000Z</time>
      </trkpt>
      <trkpt lat="42.7037514746189117431640625" lon="-0.06490836851298809051513671875">
        <ele>2259.800048828125</ele>
        <time>2021-08-25T07:27:40.000Z</time>
      </trkpt>
      <trkpt lat="42.7037335373461246490478515625" lon="-0.0649243779480457305908203125">
        <ele>2259</ele>
        <time>2021-08-25T07:27:43.000Z</time>
      </trkpt>
      <trkpt lat="42.7037238143384456634521484375" lon="-0.06493150256574153900146484375">
        <ele>2258.39990234375</ele>
        <time>2021-08-25T07:27:46.000Z</time>
      </trkpt>
      <trkpt lat="42.70372088067233562469482421875" lon="-0.06493167020380496978759765625">
        <ele>2258.39990234375</ele>
        <time>2021-08-25T07:27:48.000Z</time>
      </trkpt>
      <trkpt lat="42.70371853373944759368896484375" lon="-0.0649294070899486541748046875">
        <ele>2258.39990234375</ele>
        <time>2021-08-25T07:27:50.000Z</time>
      </trkpt>
      <trkpt lat="42.70371803082525730133056640625" lon="-0.0649237073957920074462890625">
        <ele>2258.39990234375</ele>
        <time>2021-08-25T07:27:52.000Z</time>
      </trkpt>
      <trkpt lat="42.7037187851965427398681640625" lon="-0.064922533929347991943359375">
        <ele>2258.60009765625</ele>
        <time>2021-08-25T07:27:53.000Z</time>
      </trkpt>
      <trkpt lat="42.70371937192976474761962890625" lon="-0.064920522272586822509765625">
        <ele>2258.60009765625</ele>
        <time>2021-08-25T07:27:54.000Z</time>
      </trkpt>
      <trkpt lat="42.70368148572742938995361328125" lon="-0.06495128385722637176513671875">
        <ele>2256.800048828125</ele>
        <time>2021-08-25T07:28:13.000Z</time>
      </trkpt>
      <trkpt lat="42.703423239290714263916015625" lon="-0.0651962868869304656982421875">
        <ele>2253.60009765625</ele>
        <time>2021-08-25T07:28:37.000Z</time>
      </trkpt>
      <trkpt lat="42.70340052433311939239501953125" lon="-0.065228305757045745849609375">
        <ele>2253</ele>
        <time>2021-08-25T07:28:40.000Z</time>
      </trkpt>
      <trkpt lat="42.7033893764019012451171875" lon="-0.06525135599076747894287109375">
        <ele>2252.60009765625</ele>
        <time>2021-08-25T07:28:42.000Z</time>
      </trkpt>
      <trkpt lat="42.70338627509772777557373046875" lon="-0.065265186131000518798828125">
        <ele>2252.39990234375</ele>
        <time>2021-08-25T07:28:43.000Z</time>
      </trkpt>
      <trkpt lat="42.70338191650807857513427734375" lon="-0.06527767516672611236572265625">
        <ele>2252.199951171875</ele>
        <time>2021-08-25T07:28:44.000Z</time>
      </trkpt>
      <trkpt lat="42.70337135531008243560791015625" lon="-0.065328218042850494384765625">
        <ele>2251.39990234375</ele>
        <time>2021-08-25T07:28:48.000Z</time>
      </trkpt>
      <trkpt lat="42.70337797701358795166015625" lon="-0.06534389220178127288818359375">
        <ele>2250.800048828125</ele>
        <time>2021-08-25T07:28:50.000Z</time>
      </trkpt>
      <trkpt lat="42.703381665050983428955078125" lon="-0.0653759948909282684326171875">
        <ele>2249.800048828125</ele>
        <time>2021-08-25T07:28:55.000Z</time>
      </trkpt>
      <trkpt lat="42.70336615853011608123779296875" lon="-0.06544045172631740570068359375">
        <ele>2248.800048828125</ele>
        <time>2021-08-25T07:29:02.000Z</time>
      </trkpt>
      <trkpt lat="42.70337152294814586639404296875" lon="-0.0654692016541957855224609375">
        <ele>2247.800048828125</ele>
        <time>2021-08-25T07:29:05.000Z</time>
      </trkpt>
      <trkpt lat="42.70331494510173797607421875" lon="-0.06557087413966655731201171875">
        <ele>2247.199951171875</ele>
        <time>2021-08-25T07:29:21.000Z</time>
      </trkpt>
      <trkpt lat="42.70330346189439296722412109375" lon="-0.0658468902111053466796875">
        <ele>2242.199951171875</ele>
        <time>2021-08-25T07:30:02.000Z</time>
      </trkpt>
      <trkpt lat="42.70329692400991916656494140625" lon="-0.06585250608623027801513671875">
        <ele>2242.39990234375</ele>
        <time>2021-08-25T07:30:03.000Z</time>
      </trkpt>
      <trkpt lat="42.7032309584319591522216796875" lon="-0.06595325656235218048095703125">
        <ele>2242.60009765625</ele>
        <time>2021-08-25T07:30:18.000Z</time>
      </trkpt>
      <trkpt lat="42.7032403461635112762451171875" lon="-0.0661199726164340972900390625">
        <ele>2237.60009765625</ele>
        <time>2021-08-25T07:30:37.000Z</time>
      </trkpt>
      <trkpt lat="42.7032430283725261688232421875" lon="-0.06612592376768589019775390625">
        <ele>2237.39990234375</ele>
        <time>2021-08-25T07:30:38.000Z</time>
      </trkpt>
      <trkpt lat="42.70325032062828540802001953125" lon="-0.0661394186317920684814453125">
        <ele>2236.800048828125</ele>
        <time>2021-08-25T07:30:40.000Z</time>
      </trkpt>
      <trkpt lat="42.7032738737761974334716796875" lon="-0.06615509279072284698486328125">
        <ele>2235.60009765625</ele>
        <time>2021-08-25T07:30:44.000Z</time>
      </trkpt>
      <trkpt lat="42.70327663980424404144287109375" lon="-0.06616397760808467864990234375">
        <ele>2235.199951171875</ele>
        <time>2021-08-25T07:30:45.000Z</time>
      </trkpt>
      <trkpt lat="42.703275717794895172119140625" lon="-0.06617085076868534088134765625">
        <ele>2235.199951171875</ele>
        <time>2021-08-25T07:30:46.000Z</time>
      </trkpt>
      <trkpt lat="42.70327563397586345672607421875" lon="-0.0661799870431423187255859375">
        <ele>2235</ele>
        <time>2021-08-25T07:30:47.000Z</time>
      </trkpt>
      <trkpt lat="42.70328653044998645782470703125" lon="-0.06623589433729648590087890625">
        <ele>2233.199951171875</ele>
        <time>2021-08-25T07:30:53.000Z</time>
      </trkpt>
      <trkpt lat="42.70328837446868419647216796875" lon="-0.0662550888955593109130859375">
        <ele>2232.60009765625</ele>
        <time>2021-08-25T07:30:55.000Z</time>
      </trkpt>
      <trkpt lat="42.7032899670302867889404296875" lon="-0.066268332302570343017578125">
        <ele>2232.199951171875</ele>
        <time>2021-08-25T07:30:56.000Z</time>
      </trkpt>
      <trkpt lat="42.70329223014414310455322265625" lon="-0.0662966631352901458740234375">
        <ele>2231</ele>
        <time>2021-08-25T07:30:58.000Z</time>
      </trkpt>
      <trkpt lat="42.703285776078701019287109375" lon="-0.066325664520263671875">
        <ele>2229.800048828125</ele>
        <time>2021-08-25T07:31:00.000Z</time>
      </trkpt>
      <trkpt lat="42.7032755501568317413330078125" lon="-0.066353492438793182373046875">
        <ele>2229</ele>
        <time>2021-08-25T07:31:02.000Z</time>
      </trkpt>
      <trkpt lat="42.703270353376865386962890625" lon="-0.06638291291892528533935546875">
        <ele>2228</ele>
        <time>2021-08-25T07:31:06.000Z</time>
      </trkpt>
      <trkpt lat="42.70326473750174045562744140625" lon="-0.0663940608501434326171875">
        <ele>2227.60009765625</ele>
        <time>2021-08-25T07:31:10.000Z</time>
      </trkpt>
      <trkpt lat="42.70326188765466213226318359375" lon="-0.06642415188252925872802734375">
        <ele>2226.199951171875</ele>
        <time>2021-08-25T07:31:12.000Z</time>
      </trkpt>
      <trkpt lat="42.7032768912613391876220703125" lon="-0.0664740242063999176025390625">
        <ele>2223.199951171875</ele>
        <time>2021-08-25T07:31:16.000Z</time>
      </trkpt>
      <trkpt lat="42.70328200422227382659912109375" lon="-0.06648601032793521881103515625">
        <ele>2222.39990234375</ele>
        <time>2021-08-25T07:31:17.000Z</time>
      </trkpt>
      <trkpt lat="42.70328619517385959625244140625" lon="-0.066495649516582489013671875">
        <ele>2221.60009765625</ele>
        <time>2021-08-25T07:31:18.000Z</time>
      </trkpt>
      <trkpt lat="42.70329038612544536590576171875" lon="-0.06651752628386020660400390625">
        <ele>2220.39990234375</ele>
        <time>2021-08-25T07:31:20.000Z</time>
      </trkpt>
      <trkpt lat="42.70329876802861690521240234375" lon="-0.0665461085736751556396484375">
        <ele>2218.60009765625</ele>
        <time>2021-08-25T07:31:23.000Z</time>
      </trkpt>
      <trkpt lat="42.70332106389105319976806640625" lon="-0.066634118556976318359375">
        <ele>2214.800048828125</ele>
        <time>2021-08-25T07:31:31.000Z</time>
      </trkpt>
      <trkpt lat="42.7032986842095851898193359375" lon="-0.0667352043092250823974609375">
        <ele>2212.39990234375</ele>
        <time>2021-08-25T07:31:39.000Z</time>
      </trkpt>
      <trkpt lat="42.70329692400991916656494140625" lon="-0.06681181490421295166015625">
        <ele>2210</ele>
        <time>2021-08-25T07:31:48.000Z</time>
      </trkpt>
      <trkpt lat="42.70329172722995281219482421875" lon="-0.0668559037148952484130859375">
        <ele>2208.800048828125</ele>
        <time>2021-08-25T07:31:52.000Z</time>
      </trkpt>
      <trkpt lat="42.703279741108417510986328125" lon="-0.0669008307158946990966796875">
        <ele>2207.800048828125</ele>
        <time>2021-08-25T07:31:58.000Z</time>
      </trkpt>
      <trkpt lat="42.70324847660958766937255859375" lon="-0.06694232113659381866455078125">
        <ele>2207.800048828125</ele>
        <time>2021-08-25T07:32:05.000Z</time>
      </trkpt>
      <trkpt lat="42.703273035585880279541015625" lon="-0.06700149737298488616943359375">
        <ele>2205</ele>
        <time>2021-08-25T07:32:13.000Z</time>
      </trkpt>
      <trkpt lat="42.703367583453655242919921875" lon="-0.06706218235194683074951171875">
        <ele>2200</ele>
        <time>2021-08-25T07:32:25.000Z</time>
      </trkpt>
      <trkpt lat="42.70336213521659374237060546875" lon="-0.0671378709375858306884765625">
        <ele>2198</ele>
        <time>2021-08-25T07:32:35.000Z</time>
      </trkpt>
      <trkpt lat="42.7034022845327854156494140625" lon="-0.0672139786183834075927734375">
        <ele>2194.800048828125</ele>
        <time>2021-08-25T07:32:45.000Z</time>
      </trkpt>
      <trkpt lat="42.70341628231108188629150390625" lon="-0.06729595363140106201171875">
        <ele>2192.60009765625</ele>
        <time>2021-08-25T07:32:59.000Z</time>
      </trkpt>
      <trkpt lat="42.703417874872684478759765625" lon="-0.0675995461642742156982421875">
        <ele>2182.800048828125</ele>
        <time>2021-08-25T07:33:54.000Z</time>
      </trkpt>
      <trkpt lat="42.70342902280390262603759765625" lon="-0.06765629164874553680419921875">
        <ele>2181.39990234375</ele>
        <time>2021-08-25T07:34:07.000Z</time>
      </trkpt>
      <trkpt lat="42.70346271805465221405029296875" lon="-0.06780087947845458984375">
        <ele>2177.60009765625</ele>
        <time>2021-08-25T07:34:34.000Z</time>
      </trkpt>
      <trkpt lat="42.7034819126129150390625" lon="-0.0679175555706024169921875">
        <ele>2174.199951171875</ele>
        <time>2021-08-25T07:34:52.000Z</time>
      </trkpt>
      <trkpt lat="42.703472189605236053466796875" lon="-0.067963488399982452392578125">
        <ele>2173.199951171875</ele>
        <time>2021-08-25T07:34:59.000Z</time>
      </trkpt>
      <trkpt lat="42.703487612307071685791015625" lon="-0.06842248141765594482421875">
        <ele>2163.800048828125</ele>
        <time>2021-08-25T07:35:57.000Z</time>
      </trkpt>
      <trkpt lat="42.7034924738109111785888671875" lon="-0.068526752293109893798828125">
        <ele>2160.199951171875</ele>
        <time>2021-08-25T07:36:07.000Z</time>
      </trkpt>
      <trkpt lat="42.70352390594780445098876953125" lon="-0.06862507201731204986572265625">
        <ele>2156.199951171875</ele>
        <time>2021-08-25T07:36:18.000Z</time>
      </trkpt>
      <trkpt lat="42.7036926336586475372314453125" lon="-0.06910451687872409820556640625">
        <ele>2144.39990234375</ele>
        <time>2021-08-25T07:37:04.000Z</time>
      </trkpt>
      <trkpt lat="42.7038009278476238250732421875" lon="-0.06967398338019847869873046875">
        <ele>2139</ele>
        <time>2021-08-25T07:37:46.000Z</time>
      </trkpt>
      <trkpt lat="42.7037811465561389923095703125" lon="-0.0697500072419643402099609375">
        <ele>2138.199951171875</ele>
        <time>2021-08-25T07:37:53.000Z</time>
      </trkpt>
      <trkpt lat="42.70376731641590595245361328125" lon="-0.0701235048472881317138671875">
        <ele>2134.60009765625</ele>
        <time>2021-08-25T07:38:27.000Z</time>
      </trkpt>
      <trkpt lat="42.70375960506498813629150390625" lon="-0.07031033746898174285888671875">
        <ele>2131.199951171875</ele>
        <time>2021-08-25T07:38:40.000Z</time>
      </trkpt>
      <trkpt lat="42.70372264087200164794921875" lon="-0.07054788060486316680908203125">
        <ele>2126.199951171875</ele>
        <time>2021-08-25T07:39:00.000Z</time>
      </trkpt>
      <trkpt lat="42.70372021012008190155029296875" lon="-0.07068064995110034942626953125">
        <ele>2124.199951171875</ele>
        <time>2021-08-25T07:39:10.000Z</time>
      </trkpt>
      <trkpt lat="42.70371325314044952392578125" lon="-0.0706659816205501556396484375">
        <ele>2124.199951171875</ele>
        <time>2021-08-25T07:39:16.000Z</time>
      </trkpt>
      <trkpt lat="42.70370596088469028472900390625" lon="-0.0707300193607807159423828125">
        <ele>2123</ele>
        <time>2021-08-25T07:39:27.000Z</time>
      </trkpt>
      <trkpt lat="42.70371199585497379302978515625" lon="-0.07080000825226306915283203125">
        <ele>2122.199951171875</ele>
        <time>2021-08-25T07:39:31.000Z</time>
      </trkpt>
      <trkpt lat="42.70372339524328708648681640625" lon="-0.07097384892404079437255859375">
        <ele>2120</ele>
        <time>2021-08-25T07:39:40.000Z</time>
      </trkpt>
      <trkpt lat="42.703709900379180908203125" lon="-0.07106789387762546539306640625">
        <ele>2118.60009765625</ele>
        <time>2021-08-25T07:39:46.000Z</time>
      </trkpt>
      <trkpt lat="42.7037214674055576324462890625" lon="-0.07125430740416049957275390625">
        <ele>2117.39990234375</ele>
        <time>2021-08-25T07:39:59.000Z</time>
      </trkpt>
      <trkpt lat="42.70345752127468585968017578125" lon="-0.0717445649206638336181640625">
        <ele>2097</ele>
        <time>2021-08-25T07:40:38.000Z</time>
      </trkpt>
      <trkpt lat="42.7034277655184268951416015625" lon="-0.07195620797574520111083984375">
        <ele>2094.60009765625</ele>
        <time>2021-08-25T07:40:51.000Z</time>
      </trkpt>
      <trkpt lat="42.7034237422049045562744140625" lon="-0.07200784049928188323974609375">
        <ele>2094.39990234375</ele>
        <time>2021-08-25T07:40:54.000Z</time>
      </trkpt>
      <trkpt lat="42.70342198200523853302001953125" lon="-0.07203675806522369384765625">
        <ele>2094.199951171875</ele>
        <time>2021-08-25T07:40:56.000Z</time>
      </trkpt>
      <trkpt lat="42.70341846160590648651123046875" lon="-0.072264410555362701416015625">
        <ele>2093.800048828125</ele>
        <time>2021-08-25T07:41:13.000Z</time>
      </trkpt>
      <trkpt lat="42.703443355858325958251953125" lon="-0.0722612254321575164794921875">
        <ele>2095.39990234375</ele>
        <time>2021-08-25T07:41:44.000Z</time>
      </trkpt>
      <trkpt lat="42.70343489013612270355224609375" lon="-0.07226206362247467041015625">
        <ele>2095</ele>
        <time>2021-08-25T07:42:06.000Z</time>
      </trkpt>
      <trkpt lat="42.70343673415482044219970703125" lon="-0.07226030342280864715576171875">
        <ele>2095</ele>
        <time>2021-08-25T07:42:11.000Z</time>
      </trkpt>
      <trkpt lat="42.70340421237051486968994140625" lon="-0.0722575373947620391845703125">
        <ele>2093</ele>
        <time>2021-08-25T07:42:24.000Z</time>
      </trkpt>
      <trkpt lat="42.7033974230289459228515625" lon="-0.072270445525646209716796875">
        <ele>2092.39990234375</ele>
        <time>2021-08-25T07:42:31.000Z</time>
      </trkpt>
      <trkpt lat="42.703383676707744598388671875" lon="-0.07228310219943523406982421875">
        <ele>2091.60009765625</ele>
        <time>2021-08-25T07:42:38.000Z</time>
      </trkpt>
      <trkpt lat="42.7033835090696811676025390625" lon="-0.072283186018466949462890625">
        <ele>2091.60009765625</ele>
        <time>2021-08-25T07:42:39.000Z</time>
      </trkpt>
      <trkpt lat="42.70338929258286952972412109375" lon="-0.07227941416203975677490234375">
        <ele>2092</ele>
        <time>2021-08-25T07:42:48.000Z</time>
      </trkpt>
      <trkpt lat="42.7033902145922183990478515625" lon="-0.07227689959108829498291015625">
        <ele>2092</ele>
        <time>2021-08-25T07:42:50.000Z</time>
      </trkpt>
      <trkpt lat="42.7033920586109161376953125" lon="-0.07227279245853424072265625">
        <ele>2092.199951171875</ele>
        <time>2021-08-25T07:42:52.000Z</time>
      </trkpt>
      <trkpt lat="42.7033999375998973846435546875" lon="-0.0722565315663814544677734375">
        <ele>2092.60009765625</ele>
        <time>2021-08-25T07:43:10.000Z</time>
      </trkpt>
      <trkpt lat="42.7034012787044048309326171875" lon="-0.07225024513900279998779296875">
        <ele>2092.800048828125</ele>
        <time>2021-08-25T07:43:20.000Z</time>
      </trkpt>
      <trkpt lat="42.70342851988971233367919921875" lon="-0.07231713272631168365478515625">
        <ele>2094.60009765625</ele>
        <time>2021-08-25T07:43:33.000Z</time>
      </trkpt>
      <trkpt lat="42.7034458704292774200439453125" lon="-0.07247571833431720733642578125">
        <ele>2091.60009765625</ele>
        <time>2021-08-25T07:43:43.000Z</time>
      </trkpt>
      <trkpt lat="42.70344662480056285858154296875" lon="-0.0725649856030941009521484375">
        <ele>2088.199951171875</ele>
        <time>2021-08-25T07:43:49.000Z</time>
      </trkpt>
      <trkpt lat="42.7034720219671726226806640625" lon="-0.07266581989824771881103515625">
        <ele>2085.39990234375</ele>
        <time>2021-08-25T07:43:55.000Z</time>
      </trkpt>
      <trkpt lat="42.703481577336788177490234375" lon="-0.07267470471560955047607421875">
        <ele>2085.39990234375</ele>
        <time>2021-08-25T07:43:56.000Z</time>
      </trkpt>
      <trkpt lat="42.70348836667835712432861328125" lon="-0.0726843439042568206787109375">
        <ele>2085.199951171875</ele>
        <time>2021-08-25T07:43:57.000Z</time>
      </trkpt>
      <trkpt lat="42.70349867641925811767578125" lon="-0.07268585264682769775390625">
        <ele>2085.60009765625</ele>
        <time>2021-08-25T07:43:58.000Z</time>
      </trkpt>
      <trkpt lat="42.70351703278720378875732421875" lon="-0.07268853485584259033203125">
        <ele>2086.60009765625</ele>
        <time>2021-08-25T07:44:00.000Z</time>
      </trkpt>
      <trkpt lat="42.70353128202259540557861328125" lon="-0.0726994313299655914306640625">
        <ele>2086.60009765625</ele>
        <time>2021-08-25T07:44:02.000Z</time>
      </trkpt>
      <trkpt lat="42.7035410888493061065673828125" lon="-0.07270555011928081512451171875">
        <ele>2086.800048828125</ele>
        <time>2021-08-25T07:44:03.000Z</time>
      </trkpt>
      <trkpt lat="42.70362951792776584625244140625" lon="-0.07275299169123172760009765625">
        <ele>2090</ele>
        <time>2021-08-25T07:44:13.000Z</time>
      </trkpt>
      <trkpt lat="42.7036581002175807952880859375" lon="-0.072769336402416229248046875">
        <ele>2091.60009765625</ele>
        <time>2021-08-25T07:44:17.000Z</time>
      </trkpt>
      <trkpt lat="42.703690119087696075439453125" lon="-0.0727946497499942779541015625">
        <ele>2092.60009765625</ele>
        <time>2021-08-25T07:44:22.000Z</time>
      </trkpt>
      <trkpt lat="42.70366220735013484954833984375" lon="-0.072900764644145965576171875">
        <ele>2086.199951171875</ele>
        <time>2021-08-25T07:44:47.000Z</time>
      </trkpt>
      <trkpt lat="42.70367511548101902008056640625" lon="-0.073024146258831024169921875">
        <ele>2081.60009765625</ele>
        <time>2021-08-25T07:45:00.000Z</time>
      </trkpt>
      <trkpt lat="42.70373948849737644195556640625" lon="-0.07316487841308116912841796875">
        <ele>2077.60009765625</ele>
        <time>2021-08-25T07:45:17.000Z</time>
      </trkpt>
      <trkpt lat="42.70374904386699199676513671875" lon="-0.07318633608520030975341796875">
        <ele>2076.60009765625</ele>
        <time>2021-08-25T07:45:19.000Z</time>
      </trkpt>
      <trkpt lat="42.70379103720188140869140625" lon="-0.07351054809987545013427734375">
        <ele>2064.60009765625</ele>
        <time>2021-08-25T07:45:53.000Z</time>
      </trkpt>
      <trkpt lat="42.70383051596581935882568359375" lon="-0.07379184477031230926513671875">
        <ele>2056.60009765625</ele>
        <time>2021-08-25T07:46:32.000Z</time>
      </trkpt>
      <trkpt lat="42.703821547329425811767578125" lon="-0.07401245646178722381591796875">
        <ele>2049.39990234375</ele>
        <time>2021-08-25T07:46:53.000Z</time>
      </trkpt>
      <trkpt lat="42.7038280852138996124267578125" lon="-0.074621737003326416015625">
        <ele>2037.199951171875</ele>
        <time>2021-08-25T07:47:41.000Z</time>
      </trkpt>
      <trkpt lat="42.703828923404216766357421875" lon="-0.0746856071054935455322265625">
        <ele>2036.199951171875</ele>
        <time>2021-08-25T07:47:47.000Z</time>
      </trkpt>
      <trkpt lat="42.7038264088332653045654296875" lon="-0.0746990181505680084228515625">
        <ele>2035.800048828125</ele>
        <time>2021-08-25T07:47:48.000Z</time>
      </trkpt>
      <trkpt lat="42.703824900090694427490234375" lon="-0.0747965835034847259521484375">
        <ele>2032.4000244140625</ele>
        <time>2021-08-25T07:47:56.000Z</time>
      </trkpt>
      <trkpt lat="42.70381324924528598785400390625" lon="-0.07484293542802333831787109375">
        <ele>2029.800048828125</ele>
        <time>2021-08-25T07:47:59.000Z</time>
      </trkpt>
      <trkpt lat="42.70380285568535327911376953125" lon="-0.07520788349211215972900390625">
        <ele>2024</ele>
        <time>2021-08-25T07:48:27.000Z</time>
      </trkpt>
      <trkpt lat="42.7037804760038852691650390625" lon="-0.07532648742198944091796875">
        <ele>2022</ele>
        <time>2021-08-25T07:48:36.000Z</time>
      </trkpt>
      <trkpt lat="42.70377603359520435333251953125" lon="-0.0754406489431858062744140625">
        <ele>2021.4000244140625</ele>
        <time>2021-08-25T07:48:45.000Z</time>
      </trkpt>
      <trkpt lat="42.70373244769871234893798828125" lon="-0.0756357796490192413330078125">
        <ele>2018.5999755859375</ele>
        <time>2021-08-25T07:49:02.000Z</time>
      </trkpt>
      <trkpt lat="42.70372758619487285614013671875" lon="-0.0756498612463474273681640625">
        <ele>2018.199951171875</ele>
        <time>2021-08-25T07:49:03.000Z</time>
      </trkpt>
      <trkpt lat="42.70371769554913043975830078125" lon="-0.07575890980660915374755859375">
        <ele>2016.800048828125</ele>
        <time>2021-08-25T07:49:11.000Z</time>
      </trkpt>
      <trkpt lat="42.70369171164929866790771484375" lon="-0.07594716735184192657470703125">
        <ele>2012</ele>
        <time>2021-08-25T07:49:23.000Z</time>
      </trkpt>
      <trkpt lat="42.70369405858218669891357421875" lon="-0.07598840631544589996337890625">
        <ele>2011.5999755859375</ele>
        <time>2021-08-25T07:49:26.000Z</time>
      </trkpt>
      <trkpt lat="42.70369355566799640655517578125" lon="-0.0760070979595184326171875">
        <ele>2011.4000244140625</ele>
        <time>2021-08-25T07:49:28.000Z</time>
      </trkpt>
      <trkpt lat="42.70369623787701129913330078125" lon="-0.07603400386869907379150390625">
        <ele>2011</ele>
        <time>2021-08-25T07:49:30.000Z</time>
      </trkpt>
      <trkpt lat="42.703691460192203521728515625" lon="-0.07610030472278594970703125">
        <ele>2009.5999755859375</ele>
        <time>2021-08-25T07:49:35.000Z</time>
      </trkpt>
      <trkpt lat="42.7036882750689983367919921875" lon="-0.07613358087837696075439453125">
        <ele>2008.800048828125</ele>
        <time>2021-08-25T07:49:38.000Z</time>
      </trkpt>
      <trkpt lat="42.7036715112626552581787109375" lon="-0.07617733441293239593505859375">
        <ele>2007</ele>
        <time>2021-08-25T07:49:42.000Z</time>
      </trkpt>
      <trkpt lat="42.70366572774946689605712890625" lon="-0.07619091309607028961181640625">
        <ele>2006.4000244140625</ele>
        <time>2021-08-25T07:49:43.000Z</time>
      </trkpt>
      <trkpt lat="42.70366153679788112640380859375" lon="-0.0762050785124301910400390625">
        <ele>2005.800048828125</ele>
        <time>2021-08-25T07:49:44.000Z</time>
      </trkpt>
      <trkpt lat="42.7036547474563121795654296875" lon="-0.07623366080224514007568359375">
        <ele>2005</ele>
        <time>2021-08-25T07:49:45.000Z</time>
      </trkpt>
      <trkpt lat="42.70363203249871730804443359375" lon="-0.07630021311342716217041015625">
        <ele>2003.5999755859375</ele>
        <time>2021-08-25T07:49:51.000Z</time>
      </trkpt>
      <trkpt lat="42.703616358339786529541015625" lon="-0.07635285146534442901611328125">
        <ele>2003</ele>
        <time>2021-08-25T07:49:55.000Z</time>
      </trkpt>
      <trkpt lat="42.70358995534479618072509765625" lon="-0.07640431635081768035888671875">
        <ele>2002.199951171875</ele>
        <time>2021-08-25T07:49:59.000Z</time>
      </trkpt>
      <trkpt lat="42.70358442328870296478271484375" lon="-0.0764183141291141510009765625">
        <ele>2002</ele>
        <time>2021-08-25T07:50:00.000Z</time>
      </trkpt>
      <trkpt lat="42.70357646048069000244140625" lon="-0.07648394443094730377197265625">
        <ele>2001.800048828125</ele>
        <time>2021-08-25T07:50:04.000Z</time>
      </trkpt>
      <trkpt lat="42.70359967835247516632080078125" lon="-0.0765998661518096923828125">
        <ele>2003.800048828125</ele>
        <time>2021-08-25T07:50:10.000Z</time>
      </trkpt>
      <trkpt lat="42.70360236056149005889892578125" lon="-0.07667672820389270782470703125">
        <ele>2005</ele>
        <time>2021-08-25T07:50:14.000Z</time>
      </trkpt>
      <trkpt lat="42.70359456539154052734375" lon="-0.07673573680222034454345703125">
        <ele>2005.5999755859375</ele>
        <time>2021-08-25T07:50:18.000Z</time>
      </trkpt>
      <trkpt lat="42.70348115824162960052490234375" lon="-0.0768680870532989501953125">
        <ele>2002.5999755859375</ele>
        <time>2021-08-25T07:50:31.000Z</time>
      </trkpt>
      <trkpt lat="42.70342893898487091064453125" lon="-0.07696129381656646728515625">
        <ele>2001.5999755859375</ele>
        <time>2021-08-25T07:50:37.000Z</time>
      </trkpt>
      <trkpt lat="42.70338007248938083648681640625" lon="-0.0770942308008670806884765625">
        <ele>2001.4000244140625</ele>
        <time>2021-08-25T07:50:45.000Z</time>
      </trkpt>
      <trkpt lat="42.70333682186901569366455078125" lon="-0.07723161019384860992431640625">
        <ele>2000.4000244140625</ele>
        <time>2021-08-25T07:50:53.000Z</time>
      </trkpt>
      <trkpt lat="42.70332726649940013885498046875" lon="-0.07727016694843769073486328125">
        <ele>2000.199951171875</ele>
        <time>2021-08-25T07:50:57.000Z</time>
      </trkpt>
      <trkpt lat="42.70331251434981822967529296875" lon="-0.07734484970569610595703125">
        <ele>2000.199951171875</ele>
        <time>2021-08-25T07:51:04.000Z</time>
      </trkpt>
      <trkpt lat="42.70327194593846797943115234375" lon="-0.07741048000752925872802734375">
        <ele>1998.4000244140625</ele>
        <time>2021-08-25T07:51:10.000Z</time>
      </trkpt>
      <trkpt lat="42.7031689323484897613525390625" lon="-0.077570490539073944091796875">
        <ele>1993</ele>
        <time>2021-08-25T07:51:23.000Z</time>
      </trkpt>
      <trkpt lat="42.70312895067036151885986328125" lon="-0.07763561792671680450439453125">
        <ele>1990.800048828125</ele>
        <time>2021-08-25T07:51:28.000Z</time>
      </trkpt>
      <trkpt lat="42.70313565619289875030517578125" lon="-0.07783963344991207122802734375">
        <ele>1989.4000244140625</ele>
        <time>2021-08-25T07:51:38.000Z</time>
      </trkpt>
      <trkpt lat="42.70311906002461910247802734375" lon="-0.07797072641551494598388671875">
        <ele>1987.5999755859375</ele>
        <time>2021-08-25T07:51:46.000Z</time>
      </trkpt>
      <trkpt lat="42.70310816355049610137939453125" lon="-0.0781895779073238372802734375">
        <ele>1987.800048828125</ele>
        <time>2021-08-25T07:52:00.000Z</time>
      </trkpt>
      <trkpt lat="42.70283424295485019683837890625" lon="-0.078684277832508087158203125">
        <ele>1983.4000244140625</ele>
        <time>2021-08-25T07:52:34.000Z</time>
      </trkpt>
      <trkpt lat="42.7025972865521907806396484375" lon="-0.07918752729892730712890625">
        <ele>1984</ele>
        <time>2021-08-25T07:53:08.000Z</time>
      </trkpt>
      <trkpt lat="42.70233836956322193145751953125" lon="-0.07969186641275882720947265625">
        <ele>1982.5999755859375</ele>
        <time>2021-08-25T07:53:42.000Z</time>
      </trkpt>
      <trkpt lat="42.70221331156790256500244140625" lon="-0.07992974482476711273193359375">
        <ele>1980.800048828125</ele>
        <time>2021-08-25T07:53:58.000Z</time>
      </trkpt>
      <trkpt lat="42.70214793272316455841064453125" lon="-0.08010442368686199188232421875">
        <ele>1982</ele>
        <time>2021-08-25T07:54:08.000Z</time>
      </trkpt>
      <trkpt lat="42.701986916363239288330078125" lon="-0.08067187853157520294189453125">
        <ele>1984.800048828125</ele>
        <time>2021-08-25T07:54:42.000Z</time>
      </trkpt>
      <trkpt lat="42.70192279480397701263427734375" lon="-0.08128241635859012603759765625">
        <ele>1976</ele>
        <time>2021-08-25T07:55:19.000Z</time>
      </trkpt>
      <trkpt lat="42.701914496719837188720703125" lon="-0.08174560032784938812255859375">
        <ele>1976.5999755859375</ele>
        <time>2021-08-25T07:55:48.000Z</time>
      </trkpt>
      <trkpt lat="42.70197442732751369476318359375" lon="-0.08222487755119800567626953125">
        <ele>1977.4000244140625</ele>
        <time>2021-08-25T07:56:28.000Z</time>
      </trkpt>
      <trkpt lat="42.7019753493368625640869140625" lon="-0.082252286374568939208984375">
        <ele>1977.4000244140625</ele>
        <time>2021-08-25T07:56:30.000Z</time>
      </trkpt>
      <trkpt lat="42.7019864134490489959716796875" lon="-0.0824995525181293487548828125">
        <ele>1976.199951171875</ele>
        <time>2021-08-25T07:56:49.000Z</time>
      </trkpt>
      <trkpt lat="42.70193637348711490631103515625" lon="-0.08310631848871707916259765625">
        <ele>1971.5999755859375</ele>
        <time>2021-08-25T07:57:45.000Z</time>
      </trkpt>
      <trkpt lat="42.70177996717393398284912109375" lon="-0.083661787211894989013671875">
        <ele>1967.4000244140625</ele>
        <time>2021-08-25T07:58:32.000Z</time>
      </trkpt>
      <trkpt lat="42.70175792276859283447265625" lon="-0.08374594151973724365234375">
        <ele>1967.199951171875</ele>
        <time>2021-08-25T07:58:44.000Z</time>
      </trkpt>
      <trkpt lat="42.7016923762857913970947265625" lon="-0.084044001996517181396484375">
        <ele>1965.199951171875</ele>
        <time>2021-08-25T07:59:11.000Z</time>
      </trkpt>
      <trkpt lat="42.701687514781951904296875" lon="-0.0840911082923412322998046875">
        <ele>1964.800048828125</ele>
        <time>2021-08-25T07:59:14.000Z</time>
      </trkpt>
      <trkpt lat="42.7016829885542392730712890625" lon="-0.08414735086262226104736328125">
        <ele>1964.4000244140625</ele>
        <time>2021-08-25T07:59:17.000Z</time>
      </trkpt>
      <trkpt lat="42.70170168019831180572509765625" lon="-0.084224380552768707275390625">
        <ele>1962.800048828125</ele>
        <time>2021-08-25T07:59:32.000Z</time>
      </trkpt>
      <trkpt lat="42.70170419476926326751708984375" lon="-0.08432320319116115570068359375">
        <ele>1961.800048828125</ele>
        <time>2021-08-25T07:59:41.000Z</time>
      </trkpt>
      <trkpt lat="42.7017961442470550537109375" lon="-0.0843650288879871368408203125">
        <ele>1960.800048828125</ele>
        <time>2021-08-25T08:00:07.000Z</time>
      </trkpt>
      <trkpt lat="42.70200225524604320526123046875" lon="-0.08453258313238620758056640625">
        <ele>1961</ele>
        <time>2021-08-25T08:00:33.000Z</time>
      </trkpt>
      <trkpt lat="42.70209093578159809112548828125" lon="-0.08448396809399127960205078125">
        <ele>1963.199951171875</ele>
        <time>2021-08-25T08:00:46.000Z</time>
      </trkpt>
      <trkpt lat="42.702208198606967926025390625" lon="-0.08442780934274196624755859375">
        <ele>1966.199951171875</ele>
        <time>2021-08-25T08:01:04.000Z</time>
      </trkpt>
      <trkpt lat="42.7022958733141422271728515625" lon="-0.0843459181487560272216796875">
        <ele>1968.5999755859375</ele>
        <time>2021-08-25T08:01:21.000Z</time>
      </trkpt>
      <trkpt lat="42.702294029295444488525390625" lon="-0.084483884274959564208984375">
        <ele>1968</ele>
        <time>2021-08-25T08:01:29.000Z</time>
      </trkpt>
      <trkpt lat="42.70229210145771503448486328125" lon="-0.08449922315776348114013671875">
        <ele>1967.800048828125</ele>
        <time>2021-08-25T08:01:30.000Z</time>
      </trkpt>
      <trkpt lat="42.7022881619632244110107421875" lon="-0.08452671580016613006591796875">
        <ele>1967.5999755859375</ele>
        <time>2021-08-25T08:01:31.000Z</time>
      </trkpt>
      <trkpt lat="42.70228757523000240325927734375" lon="-0.08453744463622570037841796875">
        <ele>1967.5999755859375</ele>
        <time>2021-08-25T08:01:33.000Z</time>
      </trkpt>
      <trkpt lat="42.70228187553584575653076171875" lon="-0.08459511213004589080810546875">
        <ele>1967.199951171875</ele>
        <time>2021-08-25T08:01:41.000Z</time>
      </trkpt>
      <trkpt lat="42.70219420082867145538330078125" lon="-0.0845376960933208465576171875">
        <ele>1965.4000244140625</ele>
        <time>2021-08-25T08:02:09.000Z</time>
      </trkpt>
      <trkpt lat="42.702170312404632568359375" lon="-0.0845621712505817413330078125">
        <ele>1964.800048828125</ele>
        <time>2021-08-25T08:02:19.000Z</time>
      </trkpt>
      <trkpt lat="42.70216000266373157501220703125" lon="-0.08453543297946453094482421875">
        <ele>1964.800048828125</ele>
        <time>2021-08-25T08:02:25.000Z</time>
      </trkpt>
      <trkpt lat="42.70225974731147289276123046875" lon="-0.08461765944957733154296875">
        <ele>1966.5999755859375</ele>
        <time>2021-08-25T08:02:33.000Z</time>
      </trkpt>
      <trkpt lat="42.70226527936756610870361328125" lon="-0.084624029695987701416015625">
        <ele>1966.5999755859375</ele>
        <time>2021-08-25T08:02:38.000Z</time>
      </trkpt>
      <trkpt lat="42.70223912782967090606689453125" lon="-0.08459527976810932159423828125">
        <ele>1966.199951171875</ele>
        <time>2021-08-25T08:02:45.000Z</time>
      </trkpt>
      <trkpt lat="42.7019141614437103271484375" lon="-0.08449218235909938812255859375">
        <ele>1960.4000244140625</ele>
        <time>2021-08-25T08:03:20.000Z</time>
      </trkpt>
      <trkpt lat="42.70177669823169708251953125" lon="-0.08431901223957538604736328125">
        <ele>1961</ele>
        <time>2021-08-25T08:03:38.000Z</time>
      </trkpt>
      <trkpt lat="42.70174912177026271820068359375" lon="-0.0843408890068531036376953125">
        <ele>1961</ele>
        <time>2021-08-25T08:03:41.000Z</time>
      </trkpt>
      <trkpt lat="42.7017346210777759552001953125" lon="-0.0843646936118602752685546875">
        <ele>1960.800048828125</ele>
        <time>2021-08-25T08:03:44.000Z</time>
      </trkpt>
      <trkpt lat="42.70174224860966205596923828125" lon="-0.08465252816677093505859375">
        <ele>1958.4000244140625</ele>
        <time>2021-08-25T08:12:42.000Z</time>
      </trkpt>
      <trkpt lat="42.701757587492465972900390625" lon="-0.0846734829246997833251953125">
        <ele>1958.199951171875</ele>
        <time>2021-08-25T08:12:43.000Z</time>
      </trkpt>
      <trkpt lat="42.701738141477108001708984375" lon="-0.0847277976572513580322265625">
        <ele>1957.4000244140625</ele>
        <time>2021-08-25T08:12:46.000Z</time>
      </trkpt>
      <trkpt lat="42.7016883529722690582275390625" lon="-0.08538519032299518585205078125">
        <ele>1953.5999755859375</ele>
        <time>2021-08-25T08:13:33.000Z</time>
      </trkpt>
      <trkpt lat="42.701657675206661224365234375" lon="-0.08587502874433994293212890625">
        <ele>1951.5999755859375</ele>
        <time>2021-08-25T08:14:02.000Z</time>
      </trkpt>
      <trkpt lat="42.70174426026642322540283203125" lon="-0.08647282607853412628173828125">
        <ele>1944.5999755859375</ele>
        <time>2021-08-25T08:14:38.000Z</time>
      </trkpt>
      <trkpt lat="42.70165759138762950897216796875" lon="-0.087039358913898468017578125">
        <ele>1927</ele>
        <time>2021-08-25T08:15:13.000Z</time>
      </trkpt>
      <trkpt lat="42.70150437019765377044677734375" lon="-0.0876084901392459869384765625">
        <ele>1927.199951171875</ele>
        <time>2021-08-25T08:15:50.000Z</time>
      </trkpt>
      <trkpt lat="42.701400853693485260009765625" lon="-0.08791116066277027130126953125">
        <ele>1928.199951171875</ele>
        <time>2021-08-25T08:16:07.000Z</time>
      </trkpt>
      <trkpt lat="42.70133455283939838409423828125" lon="-0.08810855448246002197265625">
        <ele>1926.4000244140625</ele>
        <time>2021-08-25T08:16:17.000Z</time>
      </trkpt>
      <trkpt lat="42.70122944377362728118896484375" lon="-0.08832254447042942047119140625">
        <ele>1925.4000244140625</ele>
        <time>2021-08-25T08:16:32.000Z</time>
      </trkpt>
      <trkpt lat="42.701172530651092529296875" lon="-0.0883823074400424957275390625">
        <ele>1927</ele>
        <time>2021-08-25T08:16:39.000Z</time>
      </trkpt>
      <trkpt lat="42.70102039910852909088134765625" lon="-0.08842111565172672271728515625">
        <ele>1930.4000244140625</ele>
        <time>2021-08-25T08:16:56.000Z</time>
      </trkpt>
      <trkpt lat="42.70089316181838512420654296875" lon="-0.08856662549078464508056640625">
        <ele>1929.5999755859375</ele>
        <time>2021-08-25T08:17:11.000Z</time>
      </trkpt>
      <trkpt lat="42.7008890546858310699462890625" lon="-0.0886096246540546417236328125">
        <ele>1928.4000244140625</ele>
        <time>2021-08-25T08:17:15.000Z</time>
      </trkpt>
      <trkpt lat="42.70094898529350757598876953125" lon="-0.0887128897011280059814453125">
        <ele>1923.199951171875</ele>
        <time>2021-08-25T08:17:43.000Z</time>
      </trkpt>
      <trkpt lat="42.70099173299968242645263671875" lon="-0.0888349302113056182861328125">
        <ele>1918</ele>
        <time>2021-08-25T08:18:03.000Z</time>
      </trkpt>
      <trkpt lat="42.70102090202271938323974609375" lon="-0.08883115835487842559814453125">
        <ele>1917.199951171875</ele>
        <time>2021-08-25T08:18:06.000Z</time>
      </trkpt>
      <trkpt lat="42.70120681263506412506103515625" lon="-0.08893475867807865142822265625">
        <ele>1905.5999755859375</ele>
        <time>2021-08-25T08:18:41.000Z</time>
      </trkpt>
      <trkpt lat="42.70117395557463169097900390625" lon="-0.0889757461845874786376953125">
        <ele>1905.5999755859375</ele>
        <time>2021-08-25T08:18:45.000Z</time>
      </trkpt>
      <trkpt lat="42.70097563974559307098388671875" lon="-0.089317224919795989990234375">
        <ele>1902.800048828125</ele>
        <time>2021-08-25T08:19:30.000Z</time>
      </trkpt>
      <trkpt lat="42.7008466422557830810546875" lon="-0.0896112620830535888671875">
        <ele>1890.800048828125</ele>
        <time>2021-08-25T08:19:59.000Z</time>
      </trkpt>
      <trkpt lat="42.70060331560671329498291015625" lon="-0.09006966836750507354736328125">
        <ele>1875.4000244140625</ele>
        <time>2021-08-25T08:20:44.000Z</time>
      </trkpt>
      <trkpt lat="42.700541205704212188720703125" lon="-0.0902434252202510833740234375">
        <ele>1873</ele>
        <time>2021-08-25T08:21:01.000Z</time>
      </trkpt>
      <trkpt lat="42.7002845518290996551513671875" lon="-0.09074248373508453369140625">
        <ele>1869.800048828125</ele>
        <time>2021-08-25T08:21:46.000Z</time>
      </trkpt>
      <trkpt lat="42.70027642138302326202392578125" lon="-0.090898387134075164794921875">
        <ele>1862.5999755859375</ele>
        <time>2021-08-25T08:21:57.000Z</time>
      </trkpt>
      <trkpt lat="42.70028932951390743255615234375" lon="-0.09096167050302028656005859375">
        <ele>1858.800048828125</ele>
        <time>2021-08-25T08:22:01.000Z</time>
      </trkpt>
      <trkpt lat="42.7002875693142414093017578125" lon="-0.09097843430936336517333984375">
        <ele>1858.199951171875</ele>
        <time>2021-08-25T08:22:02.000Z</time>
      </trkpt>
      <trkpt lat="42.7002848871052265167236328125" lon="-0.0909952819347381591796875">
        <ele>1857.4000244140625</ele>
        <time>2021-08-25T08:22:03.000Z</time>
      </trkpt>
      <trkpt lat="42.70024322904646396636962890625" lon="-0.09114523418247699737548828125">
        <ele>1852.5999755859375</ele>
        <time>2021-08-25T08:22:12.000Z</time>
      </trkpt>
      <trkpt lat="42.7002245374023914337158203125" lon="-0.09118379093706607818603515625">
        <ele>1851.800048828125</ele>
        <time>2021-08-25T08:22:15.000Z</time>
      </trkpt>
      <trkpt lat="42.7001108787953853607177734375" lon="-0.09149408899247646331787109375">
        <ele>1842.800048828125</ele>
        <time>2021-08-25T08:22:37.000Z</time>
      </trkpt>
      <trkpt lat="42.700063772499561309814453125" lon="-0.09156499989330768585205078125">
        <ele>1841.4000244140625</ele>
        <time>2021-08-25T08:22:43.000Z</time>
      </trkpt>
      <trkpt lat="42.69994718022644519805908203125" lon="-0.09173749946057796478271484375">
        <ele>1838</ele>
        <time>2021-08-25T08:22:58.000Z</time>
      </trkpt>
      <trkpt lat="42.69975305534899234771728515625" lon="-0.091994069516658782958984375">
        <ele>1833.199951171875</ele>
        <time>2021-08-25T08:23:21.000Z</time>
      </trkpt>
      <trkpt lat="42.69961408339440822601318359375" lon="-0.09231132455170154571533203125">
        <ele>1831.5999755859375</ele>
        <time>2021-08-25T08:23:40.000Z</time>
      </trkpt>
      <trkpt lat="42.6995684020221233367919921875" lon="-0.0928491912782192230224609375">
        <ele>1822.199951171875</ele>
        <time>2021-08-25T08:24:27.000Z</time>
      </trkpt>
      <trkpt lat="42.69957317970693111419677734375" lon="-0.0929541327059268951416015625">
        <ele>1819.800048828125</ele>
        <time>2021-08-25T08:24:37.000Z</time>
      </trkpt>
      <trkpt lat="42.69947108812630176544189453125" lon="-0.093032084405422210693359375">
        <ele>1822.5999755859375</ele>
        <time>2021-08-25T08:24:55.000Z</time>
      </trkpt>
      <trkpt lat="42.69934737123548984527587890625" lon="-0.093400888144969940185546875">
        <ele>1824.5999755859375</ele>
        <time>2021-08-25T08:25:53.000Z</time>
      </trkpt>
      <trkpt lat="42.6993407495319843292236328125" lon="-0.09344036690890789031982421875">
        <ele>1823.5999755859375</ele>
        <time>2021-08-25T08:25:56.000Z</time>
      </trkpt>
      <trkpt lat="42.69931635819375514984130859375" lon="-0.0937688536942005157470703125">
        <ele>1813.4000244140625</ele>
        <time>2021-08-25T08:26:22.000Z</time>
      </trkpt>
      <trkpt lat="42.6992686651647090911865234375" lon="-0.09405442513525485992431640625">
        <ele>1806.199951171875</ele>
        <time>2021-08-25T08:26:41.000Z</time>
      </trkpt>
      <trkpt lat="42.69928014837205410003662109375" lon="-0.09413254447281360626220703125">
        <ele>1804.800048828125</ele>
        <time>2021-08-25T08:26:47.000Z</time>
      </trkpt>
      <trkpt lat="42.69933194853365421295166015625" lon="-0.0945832394063472747802734375">
        <ele>1790.800048828125</ele>
        <time>2021-08-25T08:27:18.000Z</time>
      </trkpt>
      <trkpt lat="42.6994051225483417510986328125" lon="-0.0950776040554046630859375">
        <ele>1774.4000244140625</ele>
        <time>2021-08-25T08:27:51.000Z</time>
      </trkpt>
      <trkpt lat="42.6993866823613643646240234375" lon="-0.0951545499265193939208984375">
        <ele>1773.5999755859375</ele>
        <time>2021-08-25T08:27:57.000Z</time>
      </trkpt>
      <trkpt lat="42.6994322799146175384521484375" lon="-0.09576894342899322509765625">
        <ele>1760</ele>
        <time>2021-08-25T08:28:38.000Z</time>
      </trkpt>
      <trkpt lat="42.69941878505051136016845703125" lon="-0.095877908170223236083984375">
        <ele>1758.4000244140625</ele>
        <time>2021-08-25T08:28:46.000Z</time>
      </trkpt>
      <trkpt lat="42.6994302682578563690185546875" lon="-0.09591671638190746307373046875">
        <ele>1757.199951171875</ele>
        <time>2021-08-25T08:28:50.000Z</time>
      </trkpt>
      <trkpt lat="42.699417360126972198486328125" lon="-0.096022747457027435302734375">
        <ele>1755.5999755859375</ele>
        <time>2021-08-25T08:28:59.000Z</time>
      </trkpt>
      <trkpt lat="42.69938307814300060272216796875" lon="-0.096143782138824462890625">
        <ele>1753.5999755859375</ele>
        <time>2021-08-25T08:29:08.000Z</time>
      </trkpt>
      <trkpt lat="42.69934133626520633697509765625" lon="-0.09629272855818271636962890625">
        <ele>1751.4000244140625</ele>
        <time>2021-08-25T08:29:18.000Z</time>
      </trkpt>
      <trkpt lat="42.69933848641812801361083984375" lon="-0.0965114124119281768798828125">
        <ele>1745.800048828125</ele>
        <time>2021-08-25T08:29:31.000Z</time>
      </trkpt>
      <trkpt lat="42.699319459497928619384765625" lon="-0.096613503992557525634765625">
        <ele>1744.199951171875</ele>
        <time>2021-08-25T08:29:38.000Z</time>
      </trkpt>
      <trkpt lat="42.69933362491428852081298828125" lon="-0.096674524247646331787109375">
        <ele>1742.4000244140625</ele>
        <time>2021-08-25T08:29:43.000Z</time>
      </trkpt>
      <trkpt lat="42.69931769929826259613037109375" lon="-0.0968939624726772308349609375">
        <ele>1737.4000244140625</ele>
        <time>2021-08-25T08:30:00.000Z</time>
      </trkpt>
      <trkpt lat="42.699300013482570648193359375" lon="-0.0969516299664974212646484375">
        <ele>1736.5999755859375</ele>
        <time>2021-08-25T08:30:04.000Z</time>
      </trkpt>
      <trkpt lat="42.6992498897016048431396484375" lon="-0.09727626107633113861083984375">
        <ele>1731.800048828125</ele>
        <time>2021-08-25T08:30:26.000Z</time>
      </trkpt>
      <trkpt lat="42.6992331258952617645263671875" lon="-0.0973358564078807830810546875">
        <ele>1731.4000244140625</ele>
        <time>2021-08-25T08:30:30.000Z</time>
      </trkpt>
      <trkpt lat="42.69918300211429595947265625" lon="-0.09755101986229419708251953125">
        <ele>1727</ele>
        <time>2021-08-25T08:30:45.000Z</time>
      </trkpt>
      <trkpt lat="42.6991781406104564666748046875" lon="-0.09761790744960308074951171875">
        <ele>1725</ele>
        <time>2021-08-25T08:30:50.000Z</time>
      </trkpt>
      <trkpt lat="42.69910412840545177459716796875" lon="-0.09764623828232288360595703125">
        <ele>1726.4000244140625</ele>
        <time>2021-08-25T08:30:57.000Z</time>
      </trkpt>
      <trkpt lat="42.69934284500777721405029296875" lon="-0.09795888327062129974365234375">
        <ele>1706.199951171875</ele>
        <time>2021-08-25T08:31:39.000Z</time>
      </trkpt>
      <trkpt lat="42.6992118358612060546875" lon="-0.0982645712792873382568359375">
        <ele>1701.5999755859375</ele>
        <time>2021-08-25T08:32:05.000Z</time>
      </trkpt>
      <trkpt lat="42.69922030158340930938720703125" lon="-0.09836934506893157958984375">
        <ele>1700</ele>
        <time>2021-08-25T08:32:14.000Z</time>
      </trkpt>
      <trkpt lat="42.69942750222980976104736328125" lon="-0.09854913689196109771728515625">
        <ele>1693</ele>
        <time>2021-08-25T08:32:36.000Z</time>
      </trkpt>
      <trkpt lat="42.69942482002079486846923828125" lon="-0.0987436808645725250244140625">
        <ele>1688.800048828125</ele>
        <time>2021-08-25T08:32:48.000Z</time>
      </trkpt>
      <trkpt lat="42.699451558291912078857421875" lon="-0.09876723401248455047607421875">
        <ele>1688</ele>
        <time>2021-08-25T08:32:52.000Z</time>
      </trkpt>
      <trkpt lat="42.6995046995580196380615234375" lon="-0.098909474909305572509765625">
        <ele>1683</ele>
        <time>2021-08-25T08:33:08.000Z</time>
      </trkpt>
      <trkpt lat="42.69948869012296199798583984375" lon="-0.09892590343952178955078125">
        <ele>1682.800048828125</ele>
        <time>2021-08-25T08:33:10.000Z</time>
      </trkpt>
      <trkpt lat="42.6994259096682071685791015625" lon="-0.099002681672573089599609375">
        <ele>1681</ele>
        <time>2021-08-25T08:33:20.000Z</time>
      </trkpt>
      <trkpt lat="42.69944393076002597808837890625" lon="-0.09904333390295505523681640625">
        <ele>1679.800048828125</ele>
        <time>2021-08-25T08:33:24.000Z</time>
      </trkpt>
      <trkpt lat="42.6994366385042667388916015625" lon="-0.09906948544085025787353515625">
        <ele>1679</ele>
        <time>2021-08-25T08:33:26.000Z</time>
      </trkpt>
      <trkpt lat="42.69939062185585498809814453125" lon="-0.09920485317707061767578125">
        <ele>1675.4000244140625</ele>
        <time>2021-08-25T08:33:38.000Z</time>
      </trkpt>
      <trkpt lat="42.6993960700929164886474609375" lon="-0.0992377102375030517578125">
        <ele>1674.199951171875</ele>
        <time>2021-08-25T08:33:41.000Z</time>
      </trkpt>
      <trkpt lat="42.699411325156688690185546875" lon="-0.099273584783077239990234375">
        <ele>1672.800048828125</ele>
        <time>2021-08-25T08:33:44.000Z</time>
      </trkpt>
      <trkpt lat="42.6994197070598602294921875" lon="-0.09930300526320934295654296875">
        <ele>1671.800048828125</ele>
        <time>2021-08-25T08:33:46.000Z</time>
      </trkpt>
      <trkpt lat="42.69944711588323116302490234375" lon="-0.09936016984283924102783203125">
        <ele>1669.800048828125</ele>
        <time>2021-08-25T08:33:50.000Z</time>
      </trkpt>
      <trkpt lat="42.69948206841945648193359375" lon="-0.099458992481231689453125">
        <ele>1667</ele>
        <time>2021-08-25T08:33:56.000Z</time>
      </trkpt>
      <trkpt lat="42.699501514434814453125" lon="-0.09947131387889385223388671875">
        <ele>1666.4000244140625</ele>
        <time>2021-08-25T08:33:57.000Z</time>
      </trkpt>
      <trkpt lat="42.69955574534833431243896484375" lon="-0.0994950346648693084716796875">
        <ele>1664.5999755859375</ele>
        <time>2021-08-25T08:34:04.000Z</time>
      </trkpt>
      <trkpt lat="42.699595391750335693359375" lon="-0.0995872355997562408447265625">
        <ele>1661.4000244140625</ele>
        <time>2021-08-25T08:34:14.000Z</time>
      </trkpt>
      <trkpt lat="42.69959363155066967010498046875" lon="-0.099613554775714874267578125">
        <ele>1660.800048828125</ele>
        <time>2021-08-25T08:34:16.000Z</time>
      </trkpt>
      <trkpt lat="42.699603103101253509521484375" lon="-0.09964901022613048553466796875">
        <ele>1659.5999755859375</ele>
        <time>2021-08-25T08:34:19.000Z</time>
      </trkpt>
      <trkpt lat="42.6997172646224498748779296875" lon="-0.09987515397369861602783203125">
        <ele>1653.4000244140625</ele>
        <time>2021-08-25T08:34:49.000Z</time>
      </trkpt>
      <trkpt lat="42.69973059184849262237548828125" lon="-0.0998779200017452239990234375">
        <ele>1653.4000244140625</ele>
        <time>2021-08-25T08:34:50.000Z</time>
      </trkpt>
      <trkpt lat="42.6997631974518299102783203125" lon="-0.09991119615733623504638671875">
        <ele>1652.4000244140625</ele>
        <time>2021-08-25T08:34:54.000Z</time>
      </trkpt>
      <trkpt lat="42.69976713694632053375244140625" lon="-0.099937431514263153076171875">
        <ele>1651.4000244140625</ele>
        <time>2021-08-25T08:34:56.000Z</time>
      </trkpt>
      <trkpt lat="42.69977803342044353485107421875" lon="-0.09995847009122371673583984375">
        <ele>1650.800048828125</ele>
        <time>2021-08-25T08:34:57.000Z</time>
      </trkpt>
      <trkpt lat="42.69979077391326427459716796875" lon="-0.09997976012527942657470703125">
        <ele>1649.5999755859375</ele>
        <time>2021-08-25T08:35:00.000Z</time>
      </trkpt>
      <trkpt lat="42.69979680888354778289794921875" lon="-0.1000137068331241607666015625">
        <ele>1648.199951171875</ele>
        <time>2021-08-25T08:35:01.000Z</time>
      </trkpt>
      <trkpt lat="42.6998004131019115447998046875" lon="-0.10002938099205493927001953125">
        <ele>1647.5999755859375</ele>
        <time>2021-08-25T08:35:03.000Z</time>
      </trkpt>
      <trkpt lat="42.69980795681476593017578125" lon="-0.10005704127252101898193359375">
        <ele>1646.4000244140625</ele>
        <time>2021-08-25T08:35:05.000Z</time>
      </trkpt>
      <trkpt lat="42.69981910474598407745361328125" lon="-0.10008352808654308319091796875">
        <ele>1645.199951171875</ele>
        <time>2021-08-25T08:35:07.000Z</time>
      </trkpt>
      <trkpt lat="42.6998379640281200408935546875" lon="-0.10009794495999813079833984375">
        <ele>1644</ele>
        <time>2021-08-25T08:35:08.000Z</time>
      </trkpt>
      <trkpt lat="42.6998379640281200408935546875" lon="-0.10009794495999813079833984375">
        <ele>1644</ele>
        <time>2021-08-25T08:35:09.000Z</time>
      </trkpt>
      <trkpt lat="42.69984341226518154144287109375" lon="-0.1001052372157573699951171875">
        <ele>1643.5999755859375</ele>
        <time>2021-08-25T08:35:10.000Z</time>
      </trkpt>
      <trkpt lat="42.6998362876474857330322265625" lon="-0.10012485086917877197265625">
        <ele>1643.4000244140625</ele>
        <time>2021-08-25T08:35:11.000Z</time>
      </trkpt>
      <trkpt lat="42.6998362876474857330322265625" lon="-0.10012485086917877197265625">
        <ele>1643.4000244140625</ele>
        <time>2021-08-25T08:35:12.000Z</time>
      </trkpt>
      <trkpt lat="42.6998289115726947784423828125" lon="-0.10013532824814319610595703125">
        <ele>1643.4000244140625</ele>
        <time>2021-08-25T08:35:13.000Z</time>
      </trkpt>
      <trkpt lat="42.69982161931693553924560546875" lon="-0.1001783274114131927490234375">
        <ele>1642.800048828125</ele>
        <time>2021-08-25T08:35:16.000Z</time>
      </trkpt>
      <trkpt lat="42.6998376287519931793212890625" lon="-0.1001974381506443023681640625">
        <ele>1642.199951171875</ele>
        <time>2021-08-25T08:35:18.000Z</time>
      </trkpt>
      <trkpt lat="42.69985489547252655029296875" lon="-0.10021244175732135772705078125">
        <ele>1641.5999755859375</ele>
        <time>2021-08-25T08:35:19.000Z</time>
      </trkpt>
      <trkpt lat="42.69985489547252655029296875" lon="-0.10021244175732135772705078125">
        <ele>1641.5999755859375</ele>
        <time>2021-08-25T08:35:20.000Z</time>
      </trkpt>
      <trkpt lat="42.6998708210885524749755859375" lon="-0.100234486162662506103515625">
        <ele>1640.800048828125</ele>
        <time>2021-08-25T08:35:22.000Z</time>
      </trkpt>
      <trkpt lat="42.69987811334431171417236328125" lon="-0.10026122443377971649169921875">
        <ele>1640.199951171875</ele>
        <time>2021-08-25T08:35:23.000Z</time>
      </trkpt>
      <trkpt lat="42.69987392239272594451904296875" lon="-0.10028955526649951934814453125">
        <ele>1639.800048828125</ele>
        <time>2021-08-25T08:35:26.000Z</time>
      </trkpt>
      <trkpt lat="42.699872665107250213623046875" lon="-0.1003429479897022247314453125">
        <ele>1638.800048828125</ele>
        <time>2021-08-25T08:35:29.000Z</time>
      </trkpt>
      <trkpt lat="42.69988632760941982269287109375" lon="-0.10037253610789775848388671875">
        <ele>1638</ele>
        <time>2021-08-25T08:35:31.000Z</time>
      </trkpt>
      <trkpt lat="42.6999090425670146942138671875" lon="-0.10040581226348876953125">
        <ele>1637.199951171875</ele>
        <time>2021-08-25T08:35:34.000Z</time>
      </trkpt>
      <trkpt lat="42.69992530345916748046875" lon="-0.10048015974462032318115234375">
        <ele>1635.800048828125</ele>
        <time>2021-08-25T08:35:39.000Z</time>
      </trkpt>
      <trkpt lat="42.6998906023800373077392578125" lon="-0.1005669124424457550048828125">
        <ele>1634.800048828125</ele>
        <time>2021-08-25T08:35:45.000Z</time>
      </trkpt>
      <trkpt lat="42.6999378763139247894287109375" lon="-0.1006336323916912078857421875">
        <ele>1633.199951171875</ele>
        <time>2021-08-25T08:35:50.000Z</time>
      </trkpt>
      <trkpt lat="42.69998322241008281707763671875" lon="-0.10066087357699871063232421875">
        <ele>1632.4000244140625</ele>
        <time>2021-08-25T08:35:54.000Z</time>
      </trkpt>
      <trkpt lat="42.70002865232527256011962890625" lon="-0.10066573508083820343017578125">
        <ele>1632</ele>
        <time>2021-08-25T08:35:58.000Z</time>
      </trkpt>
      <trkpt lat="42.70014247857034206390380859375" lon="-0.1007261686027050018310546875">
        <ele>1628</ele>
        <time>2021-08-25T08:36:11.000Z</time>
      </trkpt>
      <trkpt lat="42.700133509933948516845703125" lon="-0.10078844614326953887939453125">
        <ele>1625.800048828125</ele>
        <time>2021-08-25T08:36:17.000Z</time>
      </trkpt>
      <trkpt lat="42.7001051791012287139892578125" lon="-0.10086840949952602386474609375">
        <ele>1623.5999755859375</ele>
        <time>2021-08-25T08:36:23.000Z</time>
      </trkpt>
      <trkpt lat="42.70004860125482082366943359375" lon="-0.10099246166646480560302734375">
        <ele>1620.4000244140625</ele>
        <time>2021-08-25T08:36:35.000Z</time>
      </trkpt>
      <trkpt lat="42.69993930123746395111083984375" lon="-0.1010366342961788177490234375">
        <ele>1619.5999755859375</ele>
        <time>2021-08-25T08:36:52.000Z</time>
      </trkpt>
      <trkpt lat="42.69998238421976566314697265625" lon="-0.10113562457263469696044921875">
        <ele>1615.4000244140625</ele>
        <time>2021-08-25T08:37:12.000Z</time>
      </trkpt>
      <trkpt lat="42.70005815662443637847900390625" lon="-0.10145162232220172882080078125">
        <ele>1603.199951171875</ele>
        <time>2021-08-25T08:37:58.000Z</time>
      </trkpt>
      <trkpt lat="42.70009336061775684356689453125" lon="-0.1015744172036647796630859375">
        <ele>1597.5999755859375</ele>
        <time>2021-08-25T08:38:28.000Z</time>
      </trkpt>
      <trkpt lat="42.6999033428728580474853515625" lon="-0.10173375718295574188232421875">
        <ele>1590.5999755859375</ele>
        <time>2021-08-25T08:38:53.000Z</time>
      </trkpt>
      <trkpt lat="42.69990988075733184814453125" lon="-0.10183802805840969085693359375">
        <ele>1585.800048828125</ele>
        <time>2021-08-25T08:39:04.000Z</time>
      </trkpt>
      <trkpt lat="42.69992589019238948822021484375" lon="-0.101865269243717193603515625">
        <ele>1584.800048828125</ele>
        <time>2021-08-25T08:39:06.000Z</time>
      </trkpt>
      <trkpt lat="42.70006469450891017913818359375" lon="-0.10203056037425994873046875">
        <ele>1578.800048828125</ele>
        <time>2021-08-25T08:39:24.000Z</time>
      </trkpt>
      <trkpt lat="42.69995748996734619140625" lon="-0.10221387259662151336669921875">
        <ele>1573.800048828125</ele>
        <time>2021-08-25T08:39:52.000Z</time>
      </trkpt>
      <trkpt lat="42.69960117526352405548095703125" lon="-0.1023717038333415985107421875">
        <ele>1569.800048828125</ele>
        <time>2021-08-25T08:40:24.000Z</time>
      </trkpt>
      <trkpt lat="42.6994653046131134033203125" lon="-0.1025095023214817047119140625">
        <ele>1562.800048828125</ele>
        <time>2021-08-25T08:40:49.000Z</time>
      </trkpt>
      <trkpt lat="42.69942716695368289947509765625" lon="-0.1025202311575412750244140625">
        <ele>1561.5999755859375</ele>
        <time>2021-08-25T08:40:54.000Z</time>
      </trkpt>
      <trkpt lat="42.69941710866987705230712890625" lon="-0.10251939296722412109375">
        <ele>1561.4000244140625</ele>
        <time>2021-08-25T08:40:55.000Z</time>
      </trkpt>
      <trkpt lat="42.6994057931005954742431640625" lon="-0.10251595638692378997802734375">
        <ele>1561.4000244140625</ele>
        <time>2021-08-25T08:40:56.000Z</time>
      </trkpt>
      <trkpt lat="42.69939397461712360382080078125" lon="-0.1025111787021160125732421875">
        <ele>1561.4000244140625</ele>
        <time>2021-08-25T08:40:57.000Z</time>
      </trkpt>
      <trkpt lat="42.69935675896704196929931640625" lon="-0.1024987734854221343994140625">
        <ele>1561.4000244140625</ele>
        <time>2021-08-25T08:41:00.000Z</time>
      </trkpt>
      <trkpt lat="42.69933060742914676666259765625" lon="-0.10249726474285125732421875">
        <ele>1561.199951171875</ele>
        <time>2021-08-25T08:41:02.000Z</time>
      </trkpt>
      <trkpt lat="42.699317447841167449951171875" lon="-0.10249617509543895721435546875">
        <ele>1561</ele>
        <time>2021-08-25T08:41:03.000Z</time>
      </trkpt>
      <trkpt lat="42.69925500266253948211669921875" lon="-0.1025155372917652130126953125">
        <ele>1559.199951171875</ele>
        <time>2021-08-25T08:41:09.000Z</time>
      </trkpt>
      <trkpt lat="42.6992190442979335784912109375" lon="-0.1025517471134662628173828125">
        <ele>1556.800048828125</ele>
        <time>2021-08-25T08:41:13.000Z</time>
      </trkpt>
      <trkpt lat="42.6992118358612060546875" lon="-0.1025651581585407257080078125">
        <ele>1556.199951171875</ele>
        <time>2021-08-25T08:41:14.000Z</time>
      </trkpt>
      <trkpt lat="42.69920621998608112335205078125" lon="-0.102578066289424896240234375">
        <ele>1555.800048828125</ele>
        <time>2021-08-25T08:41:15.000Z</time>
      </trkpt>
      <trkpt lat="42.69919012673199176788330078125" lon="-0.1025985181331634521484375">
        <ele>1555</ele>
        <time>2021-08-25T08:41:17.000Z</time>
      </trkpt>
      <trkpt lat="42.699182331562042236328125" lon="-0.1026053912937641143798828125">
        <ele>1554.5999755859375</ele>
        <time>2021-08-25T08:41:18.000Z</time>
      </trkpt>
      <trkpt lat="42.69916246645152568817138671875" lon="-0.10261335410177707672119140625">
        <ele>1554.5999755859375</ele>
        <time>2021-08-25T08:41:19.000Z</time>
      </trkpt>
      <trkpt lat="42.69916246645152568817138671875" lon="-0.10261335410177707672119140625">
        <ele>1554.5999755859375</ele>
        <time>2021-08-25T08:41:20.000Z</time>
      </trkpt>
      <trkpt lat="42.699152491986751556396484375" lon="-0.1026228256523609161376953125">
        <ele>1554.199951171875</ele>
        <time>2021-08-25T08:41:21.000Z</time>
      </trkpt>
      <trkpt lat="42.6991273462772369384765625" lon="-0.1026449538767337799072265625">
        <ele>1553.4000244140625</ele>
        <time>2021-08-25T08:41:23.000Z</time>
      </trkpt>
      <trkpt lat="42.69909859634935855865478515625" lon="-0.1026721112430095672607421875">
        <ele>1552.5999755859375</ele>
        <time>2021-08-25T08:41:26.000Z</time>
      </trkpt>
      <trkpt lat="42.6990648172795772552490234375" lon="-0.102732963860034942626953125">
        <ele>1551</ele>
        <time>2021-08-25T08:41:32.000Z</time>
      </trkpt>
      <trkpt lat="42.6990403421223163604736328125" lon="-0.102811418473720550537109375">
        <ele>1548.4000244140625</ele>
        <time>2021-08-25T08:41:40.000Z</time>
      </trkpt>
      <trkpt lat="42.69906305707991123199462890625" lon="-0.10299238376319408416748046875">
        <ele>1541.5999755859375</ele>
        <time>2021-08-25T08:42:03.000Z</time>
      </trkpt>
      <trkpt lat="42.699124999344348907470703125" lon="-0.10298735462129116058349609375">
        <ele>1540.800048828125</ele>
        <time>2021-08-25T08:42:13.000Z</time>
      </trkpt>
      <trkpt lat="42.6991358958184719085693359375" lon="-0.10305373929440975189208984375">
        <ele>1538.4000244140625</ele>
        <time>2021-08-25T08:42:19.000Z</time>
      </trkpt>
      <trkpt lat="42.69916883669793605804443359375" lon="-0.10313152335584163665771484375">
        <ele>1535</ele>
        <time>2021-08-25T08:42:32.000Z</time>
      </trkpt>
      <trkpt lat="42.6991640590131282806396484375" lon="-0.1031430065631866455078125">
        <ele>1534.800048828125</ele>
        <time>2021-08-25T08:42:34.000Z</time>
      </trkpt>
      <trkpt lat="42.69914000295102596282958984375" lon="-0.10315574705600738525390625">
        <ele>1534.5999755859375</ele>
        <time>2021-08-25T08:42:40.000Z</time>
      </trkpt>
      <trkpt lat="42.699121646583080291748046875" lon="-0.10317343287169933319091796875">
        <ele>1534.199951171875</ele>
        <time>2021-08-25T08:42:43.000Z</time>
      </trkpt>
      <trkpt lat="42.69907395355403423309326171875" lon="-0.1032434217631816864013671875">
        <ele>1532.199951171875</ele>
        <time>2021-08-25T08:42:50.000Z</time>
      </trkpt>
      <trkpt lat="42.69906724803149700164794921875" lon="-0.1032591797411441802978515625">
        <ele>1531.4000244140625</ele>
        <time>2021-08-25T08:42:51.000Z</time>
      </trkpt>
      <trkpt lat="42.6990346424281597137451171875" lon="-0.1032940484583377838134765625">
        <ele>1530.199951171875</ele>
        <time>2021-08-25T08:42:55.000Z</time>
      </trkpt>
      <trkpt lat="42.699082084000110626220703125" lon="-0.1034465990960597991943359375">
        <ele>1522.4000244140625</ele>
        <time>2021-08-25T08:43:13.000Z</time>
      </trkpt>
      <trkpt lat="42.6990745402872562408447265625" lon="-0.10349764488637447357177734375">
        <ele>1520.199951171875</ele>
        <time>2021-08-25T08:43:17.000Z</time>
      </trkpt>
      <trkpt lat="42.6991067267954349517822265625" lon="-0.1035448350012302398681640625">
        <ele>1517.4000244140625</ele>
        <time>2021-08-25T08:43:26.000Z</time>
      </trkpt>
      <trkpt lat="42.69912860356271266937255859375" lon="-0.10355313308537006378173828125">
        <ele>1516.5999755859375</ele>
        <time>2021-08-25T08:43:29.000Z</time>
      </trkpt>
      <trkpt lat="42.69917084835469722747802734375" lon="-0.103571824729442596435546875">
        <ele>1515.4000244140625</ele>
        <time>2021-08-25T08:43:36.000Z</time>
      </trkpt>
      <trkpt lat="42.69917470403015613555908203125" lon="-0.10359160602092742919921875">
        <ele>1514.4000244140625</ele>
        <time>2021-08-25T08:43:39.000Z</time>
      </trkpt>
      <trkpt lat="42.69918836653232574462890625" lon="-0.10360904037952423095703125">
        <ele>1513.5999755859375</ele>
        <time>2021-08-25T08:43:43.000Z</time>
      </trkpt>
      <trkpt lat="42.6991925574839115142822265625" lon="-0.10361767373979091644287109375">
        <ele>1513.199951171875</ele>
        <time>2021-08-25T08:43:44.000Z</time>
      </trkpt>
      <trkpt lat="42.6991972513496875762939453125" lon="-0.1036266423761844635009765625">
        <ele>1512.5999755859375</ele>
        <time>2021-08-25T08:43:45.000Z</time>
      </trkpt>
      <trkpt lat="42.699182666838169097900390625" lon="-0.1037386246025562286376953125">
        <ele>1507</ele>
        <time>2021-08-25T08:43:56.000Z</time>
      </trkpt>
      <trkpt lat="42.69891536794602870941162109375" lon="-0.10386192239820957183837890625">
        <ele>1500.199951171875</ele>
        <time>2021-08-25T08:44:26.000Z</time>
      </trkpt>
      <trkpt lat="42.698671706020832061767578125" lon="-0.10388019494712352752685546875">
        <ele>1495.800048828125</ele>
        <time>2021-08-25T08:44:51.000Z</time>
      </trkpt>
      <trkpt lat="42.69853751175105571746826171875" lon="-0.10390299372375011444091796875">
        <ele>1494</ele>
        <time>2021-08-25T08:45:11.000Z</time>
      </trkpt>
      <trkpt lat="42.6985857076942920684814453125" lon="-0.10395227931439876556396484375">
        <ele>1491</ele>
        <time>2021-08-25T08:45:16.000Z</time>
      </trkpt>
      <trkpt lat="42.698651589453220367431640625" lon="-0.10400776751339435577392578125">
        <ele>1488</ele>
        <time>2021-08-25T08:45:21.000Z</time>
      </trkpt>
      <trkpt lat="42.6987154595553874969482421875" lon="-0.10405386798083782196044921875">
        <ele>1486.199951171875</ele>
        <time>2021-08-25T08:45:26.000Z</time>
      </trkpt>
      <trkpt lat="42.6987459696829319000244140625" lon="-0.10411337949335575103759765625">
        <ele>1483</ele>
        <time>2021-08-25T08:45:32.000Z</time>
      </trkpt>
      <trkpt lat="42.6987375877797603607177734375" lon="-0.10412611998617649078369140625">
        <ele>1482</ele>
        <time>2021-08-25T08:45:33.000Z</time>
      </trkpt>
      <trkpt lat="42.6987017132341861724853515625" lon="-0.10414791293442249298095703125">
        <ele>1479.800048828125</ele>
        <time>2021-08-25T08:45:37.000Z</time>
      </trkpt>
      <trkpt lat="42.69869106821715831756591796875" lon="-0.104141794145107269287109375">
        <ele>1480</ele>
        <time>2021-08-25T08:45:38.000Z</time>
      </trkpt>
      <trkpt lat="42.6986142061650753021240234375" lon="-0.10409343056380748748779296875">
        <ele>1482.199951171875</ele>
        <time>2021-08-25T08:45:45.000Z</time>
      </trkpt>
      <trkpt lat="42.6985635794699192047119140625" lon="-0.10406208224594593048095703125">
        <ele>1484.199951171875</ele>
        <time>2021-08-25T08:45:49.000Z</time>
      </trkpt>
      <trkpt lat="42.6985615678131580352783203125" lon="-0.1041322387754917144775390625">
        <ele>1479.199951171875</ele>
        <time>2021-08-25T08:45:54.000Z</time>
      </trkpt>
      <trkpt lat="42.69874789752066135406494140625" lon="-0.1042462326586246490478515625">
        <ele>1474.4000244140625</ele>
        <time>2021-08-25T08:46:13.000Z</time>
      </trkpt>
      <trkpt lat="42.6987625658512115478515625" lon="-0.10427582077682018280029296875">
        <ele>1474.199951171875</ele>
        <time>2021-08-25T08:46:16.000Z</time>
      </trkpt>
      <trkpt lat="42.6987402699887752532958984375" lon="-0.104314796626567840576171875">
        <ele>1471.800048828125</ele>
        <time>2021-08-25T08:46:20.000Z</time>
      </trkpt>
      <trkpt lat="42.69868872128427028656005859375" lon="-0.104314796626567840576171875">
        <ele>1468.800048828125</ele>
        <time>2021-08-25T08:46:27.000Z</time>
      </trkpt>
      <trkpt lat="42.6986557804048061370849609375" lon="-0.10430549271404743194580078125">
        <ele>1468.800048828125</ele>
        <time>2021-08-25T08:46:31.000Z</time>
      </trkpt>
      <trkpt lat="42.69852175377309322357177734375" lon="-0.10428856126964092254638671875">
        <ele>1468.4000244140625</ele>
        <time>2021-08-25T08:46:44.000Z</time>
      </trkpt>
      <trkpt lat="42.69841010682284832000732421875" lon="-0.104222930967807769775390625">
        <ele>1472.199951171875</ele>
        <time>2021-08-25T08:46:56.000Z</time>
      </trkpt>
      <trkpt lat="42.698215059936046600341796875" lon="-0.1042375154793262481689453125">
        <ele>1471.5999755859375</ele>
        <time>2021-08-25T08:47:14.000Z</time>
      </trkpt>
      <trkpt lat="42.6981746591627597808837890625" lon="-0.10425142943859100341796875">
        <ele>1470.5999755859375</ele>
        <time>2021-08-25T08:47:19.000Z</time>
      </trkpt>
      <trkpt lat="42.69801355898380279541015625" lon="-0.10424715466797351837158203125">
        <ele>1467.800048828125</ele>
        <time>2021-08-25T08:47:30.000Z</time>
      </trkpt>
      <trkpt lat="42.697850950062274932861328125" lon="-0.1043615676462650299072265625">
        <ele>1456.199951171875</ele>
        <time>2021-08-25T08:47:55.000Z</time>
      </trkpt>
      <trkpt lat="42.697874419391155242919921875" lon="-0.1044128648936748504638671875">
        <ele>1454.199951171875</ele>
        <time>2021-08-25T08:47:59.000Z</time>
      </trkpt>
      <trkpt lat="42.69786947406828403472900390625" lon="-0.1044909842312335968017578125">
        <ele>1450.199951171875</ele>
        <time>2021-08-25T08:48:10.000Z</time>
      </trkpt>
      <trkpt lat="42.69799050875008106231689453125" lon="-0.1045815087854862213134765625">
        <ele>1448.199951171875</ele>
        <time>2021-08-25T08:48:29.000Z</time>
      </trkpt>
      <trkpt lat="42.69808354787528514862060546875" lon="-0.10464093647897243499755859375">
        <ele>1446.5999755859375</ele>
        <time>2021-08-25T08:48:37.000Z</time>
      </trkpt>
      <trkpt lat="42.69813417457044124603271484375" lon="-0.1047330535948276519775390625">
        <ele>1444</ele>
        <time>2021-08-25T08:48:52.000Z</time>
      </trkpt>
      <trkpt lat="42.69805773161351680755615234375" lon="-0.1047411002218723297119140625">
        <ele>1441.4000244140625</ele>
        <time>2021-08-25T08:49:10.000Z</time>
      </trkpt>
      <trkpt lat="42.69807902164757251739501953125" lon="-0.10476297698915004730224609375">
        <ele>1441.5999755859375</ele>
        <time>2021-08-25T08:49:14.000Z</time>
      </trkpt>
      <trkpt lat="42.69826308824121952056884765625" lon="-0.10486699640750885009765625">
        <ele>1438.5999755859375</ele>
        <time>2021-08-25T08:49:33.000Z</time>
      </trkpt>
      <trkpt lat="42.69830499775707721710205078125" lon="-0.10490630753338336944580078125">
        <ele>1437.4000244140625</ele>
        <time>2021-08-25T08:49:39.000Z</time>
      </trkpt>
      <trkpt lat="42.698327712714672088623046875" lon="-0.10495240800082683563232421875">
        <ele>1435.800048828125</ele>
        <time>2021-08-25T08:49:45.000Z</time>
      </trkpt>
      <trkpt lat="42.69833567552268505096435546875" lon="-0.104966573417186737060546875">
        <ele>1435.5999755859375</ele>
        <time>2021-08-25T08:49:46.000Z</time>
      </trkpt>
      <trkpt lat="42.69833835773169994354248046875" lon="-0.10497805662453174591064453125">
        <ele>1435.4000244140625</ele>
        <time>2021-08-25T08:49:47.000Z</time>
      </trkpt>
      <trkpt lat="42.6983396150171756744384765625" lon="-0.10499314405024051666259765625">
        <ele>1435</ele>
        <time>2021-08-25T08:49:49.000Z</time>
      </trkpt>
      <trkpt lat="42.69834087230265140533447265625" lon="-0.105006136000156402587890625">
        <ele>1434.800048828125</ele>
        <time>2021-08-25T08:49:50.000Z</time>
      </trkpt>
      <trkpt lat="42.69831840880215167999267578125" lon="-0.10506573133170604705810546875">
        <ele>1433.199951171875</ele>
        <time>2021-08-25T08:50:01.000Z</time>
      </trkpt>
      <trkpt lat="42.6982256211340427398681640625" lon="-0.10510328225791454315185546875">
        <ele>1431</ele>
        <time>2021-08-25T08:50:10.000Z</time>
      </trkpt>
      <trkpt lat="42.6981287263333797454833984375" lon="-0.105100683867931365966796875">
        <ele>1430.4000244140625</ele>
        <time>2021-08-25T08:50:17.000Z</time>
      </trkpt>
      <trkpt lat="42.69807793200016021728515625" lon="-0.10506841354072093963623046875">
        <ele>1429.800048828125</ele>
        <time>2021-08-25T08:50:27.000Z</time>
      </trkpt>
      <trkpt lat="42.6980392076075077056884765625" lon="-0.10506304912269115447998046875">
        <ele>1428</ele>
        <time>2021-08-25T08:50:33.000Z</time>
      </trkpt>
      <trkpt lat="42.6980459131300449371337890625" lon="-0.10512205772101879119873046875">
        <ele>1426.199951171875</ele>
        <time>2021-08-25T08:50:39.000Z</time>
      </trkpt>
      <trkpt lat="42.69800710491836071014404296875" lon="-0.10517821647226810455322265625">
        <ele>1422.199951171875</ele>
        <time>2021-08-25T08:50:51.000Z</time>
      </trkpt>
      <trkpt lat="42.6979520358145236968994140625" lon="-0.10519447736442089080810546875">
        <ele>1419</ele>
        <time>2021-08-25T08:50:57.000Z</time>
      </trkpt>
      <trkpt lat="42.6979399658739566802978515625" lon="-0.1052029430866241455078125">
        <ele>1418.199951171875</ele>
        <time>2021-08-25T08:50:58.000Z</time>
      </trkpt>
      <trkpt lat="42.697932086884975433349609375" lon="-0.10521207936108112335205078125">
        <ele>1417.5999755859375</ele>
        <time>2021-08-25T08:50:59.000Z</time>
      </trkpt>
      <trkpt lat="42.69791037775576114654541015625" lon="-0.10523253120481967926025390625">
        <ele>1416</ele>
        <time>2021-08-25T08:51:03.000Z</time>
      </trkpt>
      <trkpt lat="42.69790149293839931488037109375" lon="-0.10523286648094654083251953125">
        <ele>1415.5999755859375</ele>
        <time>2021-08-25T08:51:04.000Z</time>
      </trkpt>
      <trkpt lat="42.69787274301052093505859375" lon="-0.10523705743253231048583984375">
        <ele>1414</ele>
        <time>2021-08-25T08:51:07.000Z</time>
      </trkpt>
      <trkpt lat="42.69786276854574680328369140625" lon="-0.10524057783186435699462890625">
        <ele>1413.4000244140625</ele>
        <time>2021-08-25T08:51:08.000Z</time>
      </trkpt>
      <trkpt lat="42.69785304553806781768798828125" lon="-0.10524041019380092620849609375">
        <ele>1412.800048828125</ele>
        <time>2021-08-25T08:51:09.000Z</time>
      </trkpt>
      <trkpt lat="42.69783795811235904693603515625" lon="-0.10524024255573749542236328125">
        <ele>1412</ele>
        <time>2021-08-25T08:51:10.000Z</time>
      </trkpt>
      <trkpt lat="42.697818093001842498779296875" lon="-0.105246864259243011474609375">
        <ele>1410.800048828125</ele>
        <time>2021-08-25T08:51:13.000Z</time>
      </trkpt>
      <trkpt lat="42.69779906608164310455322265625" lon="-0.1052619516849517822265625">
        <ele>1409.5999755859375</ele>
        <time>2021-08-25T08:51:16.000Z</time>
      </trkpt>
      <trkpt lat="42.697781212627887725830078125" lon="-0.1052658073604106903076171875">
        <ele>1408.5999755859375</ele>
        <time>2021-08-25T08:51:19.000Z</time>
      </trkpt>
      <trkpt lat="42.69775070250034332275390625" lon="-0.1052688248455524444580078125">
        <ele>1407</ele>
        <time>2021-08-25T08:51:23.000Z</time>
      </trkpt>
      <trkpt lat="42.6977381296455860137939453125" lon="-0.10526739992201328277587890625">
        <ele>1406.4000244140625</ele>
        <time>2021-08-25T08:51:24.000Z</time>
      </trkpt>
      <trkpt lat="42.69771306775510311126708984375" lon="-0.1052644662559032440185546875">
        <ele>1405.199951171875</ele>
        <time>2021-08-25T08:51:26.000Z</time>
      </trkpt>
      <trkpt lat="42.69767870195209980010986328125" lon="-0.10525817982852458953857421875">
        <ele>1403.4000244140625</ele>
        <time>2021-08-25T08:51:29.000Z</time>
      </trkpt>
      <trkpt lat="42.6976496167480945587158203125" lon="-0.1052664779126644134521484375">
        <ele>1401.5999755859375</ele>
        <time>2021-08-25T08:51:36.000Z</time>
      </trkpt>
      <trkpt lat="42.69763804972171783447265625" lon="-0.1052795536816120147705078125">
        <ele>1400.800048828125</ele>
        <time>2021-08-25T08:51:38.000Z</time>
      </trkpt>
      <trkpt lat="42.69760963506996631622314453125" lon="-0.1053048670291900634765625">
        <ele>1399</ele>
        <time>2021-08-25T08:51:41.000Z</time>
      </trkpt>
      <trkpt lat="42.69754140637814998626708984375" lon="-0.10529187507927417755126953125">
        <ele>1395.4000244140625</ele>
        <time>2021-08-25T08:51:47.000Z</time>
      </trkpt>
      <trkpt lat="42.697505950927734375" lon="-0.105273686349391937255859375">
        <ele>1393.800048828125</ele>
        <time>2021-08-25T08:51:50.000Z</time>
      </trkpt>
      <trkpt lat="42.697462029755115509033203125" lon="-0.1052829064428806304931640625">
        <ele>1391.4000244140625</ele>
        <time>2021-08-25T08:51:54.000Z</time>
      </trkpt>
      <trkpt lat="42.6974752731621265411376953125" lon="-0.10532573796808719635009765625">
        <ele>1391.4000244140625</ele>
        <time>2021-08-25T08:52:00.000Z</time>
      </trkpt>
      <trkpt lat="42.69746010191738605499267578125" lon="-0.1053841598331928253173828125">
        <ele>1389.800048828125</ele>
        <time>2021-08-25T08:52:06.000Z</time>
      </trkpt>
      <trkpt lat="42.69739438779652118682861328125" lon="-0.105423890054225921630859375">
        <ele>1385.5999755859375</ele>
        <time>2021-08-25T08:52:11.000Z</time>
      </trkpt>
      <trkpt lat="42.69735700450837612152099609375" lon="-0.10543554089963436126708984375">
        <ele>1383.4000244140625</ele>
        <time>2021-08-25T08:52:16.000Z</time>
      </trkpt>
      <trkpt lat="42.6973260752856731414794921875" lon="-0.1054559089243412017822265625">
        <ele>1381.5999755859375</ele>
        <time>2021-08-25T08:52:20.000Z</time>
      </trkpt>
      <trkpt lat="42.697279639542102813720703125" lon="-0.1054656319320201873779296875">
        <ele>1378.800048828125</ele>
        <time>2021-08-25T08:52:24.000Z</time>
      </trkpt>
      <trkpt lat="42.69724309444427490234375" lon="-0.10545842349529266357421875">
        <ele>1378.800048828125</ele>
        <time>2021-08-25T08:52:27.000Z</time>
      </trkpt>
      <trkpt lat="42.697195149958133697509765625" lon="-0.105464793741703033447265625">
        <ele>1379.199951171875</ele>
        <time>2021-08-25T08:52:31.000Z</time>
      </trkpt>
      <trkpt lat="42.6971091516315937042236328125" lon="-0.105462782084941864013671875">
        <ele>1380.5999755859375</ele>
        <time>2021-08-25T08:52:41.000Z</time>
      </trkpt>
      <trkpt lat="42.697041928768157958984375" lon="-0.1054243929684162139892578125">
        <ele>1383</ele>
        <time>2021-08-25T08:52:51.000Z</time>
      </trkpt>
      <trkpt lat="42.69702692516148090362548828125" lon="-0.10540000163018703460693359375">
        <ele>1385</ele>
        <time>2021-08-25T08:52:53.000Z</time>
      </trkpt>
      <trkpt lat="42.6969683356583118438720703125" lon="-0.10536915622651576995849609375">
        <ele>1389.5999755859375</ele>
        <time>2021-08-25T08:53:03.000Z</time>
      </trkpt>
      <trkpt lat="42.69688728265464305877685546875" lon="-0.1054109819233417510986328125">
        <ele>1385.4000244140625</ele>
        <time>2021-08-25T08:53:17.000Z</time>
      </trkpt>
      <trkpt lat="42.6964050717651844024658203125" lon="-0.1055551506578922271728515625">
        <ele>1378.5999755859375</ele>
        <time>2021-08-25T08:54:07.000Z</time>
      </trkpt>
      <trkpt lat="42.69639828242361545562744140625" lon="-0.10555439628660678863525390625">
        <ele>1378.5999755859375</ele>
        <time>2021-08-25T08:54:08.000Z</time>
      </trkpt>
      <trkpt lat="42.69596745260059833526611328125" lon="-0.10567509569227695465087890625">
        <ele>1353.800048828125</ele>
        <time>2021-08-25T08:54:43.000Z</time>
      </trkpt>
      <trkpt lat="42.69587005488574504852294921875" lon="-0.105669982731342315673828125">
        <ele>1351.800048828125</ele>
        <time>2021-08-25T08:54:51.000Z</time>
      </trkpt>
      <trkpt lat="42.69571130163967609405517578125" lon="-0.10562061332166194915771484375">
        <ele>1354.800048828125</ele>
        <time>2021-08-25T08:55:05.000Z</time>
      </trkpt>
      <trkpt lat="42.69568665884435176849365234375" lon="-0.1056094653904438018798828125">
        <ele>1353.800048828125</ele>
        <time>2021-08-25T08:55:07.000Z</time>
      </trkpt>
      <trkpt lat="42.69553477875888347625732421875" lon="-0.10563754476606845855712890625">
        <ele>1348.5999755859375</ele>
        <time>2021-08-25T08:55:15.000Z</time>
      </trkpt>
      <trkpt lat="42.6955179311335086822509765625" lon="-0.105668641626834869384765625">
        <ele>1347.5999755859375</ele>
        <time>2021-08-25T08:55:18.000Z</time>
      </trkpt>
      <trkpt lat="42.69552740268409252166748046875" lon="-0.105706863105297088623046875">
        <ele>1346.5999755859375</ele>
        <time>2021-08-25T08:55:31.000Z</time>
      </trkpt>
      <trkpt lat="42.6954988203942775726318359375" lon="-0.10572664439678192138671875">
        <ele>1345.800048828125</ele>
        <time>2021-08-25T08:55:39.000Z</time>
      </trkpt>
      <trkpt lat="42.69555439241230487823486328125" lon="-0.10581423528492450714111328125">
        <ele>1345.5999755859375</ele>
        <time>2021-08-25T08:55:51.000Z</time>
      </trkpt>
      <trkpt lat="42.69546185620129108428955078125" lon="-0.10580333881080150604248046875">
        <ele>1345.199951171875</ele>
        <time>2021-08-25T08:55:59.000Z</time>
      </trkpt>
      <trkpt lat="42.69541961140930652618408203125" lon="-0.10584558360278606414794921875">
        <ele>1344.5999755859375</ele>
        <time>2021-08-25T08:56:03.000Z</time>
      </trkpt>
      <trkpt lat="42.695356495678424835205078125" lon="-0.10585178621113300323486328125">
        <ele>1343.800048828125</ele>
        <time>2021-08-25T08:56:11.000Z</time>
      </trkpt>
      <trkpt lat="42.69529874436557292938232421875" lon="-0.105810798704624176025390625">
        <ele>1343</ele>
        <time>2021-08-25T08:56:35.000Z</time>
      </trkpt>
      <trkpt lat="42.695298157632350921630859375" lon="-0.1058183424174785614013671875">
        <ele>1343</ele>
        <time>2021-08-25T08:56:37.000Z</time>
      </trkpt>
      <trkpt lat="42.6952963136136531829833984375" lon="-0.1058247126638889312744140625">
        <ele>1343</ele>
        <time>2021-08-25T08:56:40.000Z</time>
      </trkpt>
      <trkpt lat="42.6952850818634033203125" lon="-0.1058381237089633941650390625">
        <ele>1342.800048828125</ele>
        <time>2021-08-25T08:56:41.000Z</time>
      </trkpt>
      <trkpt lat="42.69525951705873012542724609375" lon="-0.10587173514068126678466796875">
        <ele>1342.199951171875</ele>
        <time>2021-08-25T08:56:46.000Z</time>
      </trkpt>
      <trkpt lat="42.6952416636049747467041015625" lon="-0.105897970497608184814453125">
        <ele>1341.800048828125</ele>
        <time>2021-08-25T08:56:49.000Z</time>
      </trkpt>
      <trkpt lat="42.69522330723702907562255859375" lon="-0.1059137284755706787109375">
        <ele>1341.4000244140625</ele>
        <time>2021-08-25T08:56:51.000Z</time>
      </trkpt>
      <trkpt lat="42.69514225423336029052734375" lon="-0.106012634932994842529296875">
        <ele>1339.800048828125</ele>
        <time>2021-08-25T08:57:03.000Z</time>
      </trkpt>
      <trkpt lat="42.695136554539203643798828125" lon="-0.106034092605113983154296875">
        <ele>1340</ele>
        <time>2021-08-25T08:57:05.000Z</time>
      </trkpt>
      <trkpt lat="42.69505701027810573577880859375" lon="-0.10614850558340549468994140625">
        <ele>1340.199951171875</ele>
        <time>2021-08-25T08:57:15.000Z</time>
      </trkpt>
      <trkpt lat="42.69501158036291599273681640625" lon="-0.106278173625469207763671875">
        <ele>1341</ele>
        <time>2021-08-25T08:57:27.000Z</time>
      </trkpt>
      <trkpt lat="42.69485031254589557647705078125" lon="-0.10635159909725189208984375">
        <ele>1337.4000244140625</ele>
        <time>2021-08-25T08:58:06.000Z</time>
      </trkpt>
      <trkpt lat="42.69484226591885089874267578125" lon="-0.10630139149725437164306640625">
        <ele>1337.4000244140625</ele>
        <time>2021-08-25T08:58:19.000Z</time>
      </trkpt>
      <trkpt lat="42.69481929950416088104248046875" lon="-0.1063685305416584014892578125">
        <ele>1336.5999755859375</ele>
        <time>2021-08-25T08:58:50.000Z</time>
      </trkpt>
      <trkpt lat="42.69483036361634731292724609375" lon="-0.10637171566486358642578125">
        <ele>1336.800048828125</ele>
        <time>2021-08-25T08:59:10.000Z</time>
      </trkpt>
      <trkpt lat="42.6948098279535770416259765625" lon="-0.106386132538318634033203125">
        <ele>1336.4000244140625</ele>
        <time>2021-08-25T09:00:07.000Z</time>
      </trkpt>
      <trkpt lat="42.69481024704873561859130859375" lon="-0.1063765771687030792236328125">
        <ele>1336.4000244140625</ele>
        <time>2021-08-25T09:00:20.000Z</time>
      </trkpt>
      <trkpt lat="42.6948125101625919342041015625" lon="-0.10638915002346038818359375">
        <ele>1336.4000244140625</ele>
        <time>2021-08-25T09:00:28.000Z</time>
      </trkpt>
      <trkpt lat="42.69476699642837047576904296875" lon="-0.10641437955200672149658203125">
        <ele>1335.4000244140625</ele>
        <time>2021-08-25T09:00:41.000Z</time>
      </trkpt>
      <trkpt lat="42.694765739142894744873046875" lon="-0.1064179837703704833984375">
        <ele>1335.4000244140625</ele>
        <time>2021-08-25T09:00:43.000Z</time>
      </trkpt>
      <trkpt lat="42.69476146437227725982666015625" lon="-0.10641320608556270599365234375">
        <ele>1335.4000244140625</ele>
        <time>2021-08-25T09:01:17.000Z</time>
      </trkpt>
      <trkpt lat="42.69475811161100864410400390625" lon="-0.1064188219606876373291015625">
        <ele>1335.4000244140625</ele>
        <time>2021-08-25T09:01:20.000Z</time>
      </trkpt>
      <trkpt lat="42.694758363068103790283203125" lon="-0.1064178161323070526123046875">
        <ele>1335.4000244140625</ele>
        <time>2021-08-25T09:01:25.000Z</time>
      </trkpt>
      <trkpt lat="42.69475894980132579803466796875" lon="-0.1064090989530086517333984375">
        <ele>1335.4000244140625</ele>
        <time>2021-08-25T09:01:30.000Z</time>
      </trkpt>
      <trkpt lat="42.69476942718029022216796875" lon="-0.10639174841344356536865234375">
        <ele>1335.5999755859375</ele>
        <time>2021-08-25T09:01:40.000Z</time>
      </trkpt>
    </trkseg>
  </trk>
</gpx>
